<?xml version="1.0" encoding="UTF-8" standalone="no" ?>
<gpx xmlns="http://www.topografix.com/GPX/1/1" xmlns:gpxtpx="http://www.garmin.com/xmlschemas/TrackPointExtension/v1" creator="OruxMaps v.6.0.7 Donate" version="1.1" xmlns:xsi="http://www.w3.org/2001/XMLSchema-instance" xsi:schemaLocation="http://www.topografix.com/GPX/1/1 http://www.topografix.com/GPX/1/1/gpx.xsd">
<metadata>
<name><![CDATA[2015-04-26 11:57]]></name>
<desc><![CDATA[]]></desc>
<link href="http://www.oruxmaps.com">
<text>OruxMaps</text>
</link>
<time>2015-04-26T08:57:10Z</time><bounds maxlat="35.1723756" maxlon="32.5865581" minlat="35.0353119" minlon="32.4246848"/>
</metadata>
<trk>
<name><![CDATA[2015-04-26 11:57]]></name>
<desc><![CDATA[<h1>OruxMaps</h1><br /><hr align="center" width="480" style="height: 2px; width: 517px"/><h2>Name: 2015-04-26 11:57</h2><br /><p>Start time: 04/26/2015 11:57</p><p>Finish time: 04/26/2015 20:11</p><p>Distance: 62.4km (08:14)</p><p>Moving time: 04:38</p><p>Average speed: 7.6km/h</p><p>Avg. Speed Mov.: 13.4km/h</p><p>Max. Speed: 42.7km/h</p><p>Minimum altitude: 8m</p><p>Maximum altitude: 211m</p><p>Ascent speed: 268.7m/h</p><p>Descent speed: -517.9m/h</p><p>Elevation gain: 1187m</p><p>Elevation loss: -1220m</p><p>Ascent time: 04:25</p><p>Descent time: 02:21</p><hr align="center" width="480" style="height: 2px; width: 517px"/>]]></desc>
<type>Undefined</type>
<extensions>
<om:oruxmapsextensions xmlns:om="http://www.oruxmaps.com/oruxmapsextensions/1/0">
<om:ext type="TYPE" subtype="0">0</om:ext>
</om:oruxmapsextensions>
</extensions>
<trkseg>
<trkpt lat="35.1106433" lon="32.5082114">
<ele>40.92</ele>
<time>2015-04-26T08:57:10Z</time>
</trkpt>
<trkpt lat="35.1106264" lon="32.5081467">
<ele>40.92</ele>
<time>2015-04-26T08:57:11Z</time>
</trkpt>
<trkpt lat="35.1106719" lon="32.5081193">
<ele>36.42</ele>
<time>2015-04-26T08:57:12Z</time>
</trkpt>
<trkpt lat="35.1107266" lon="32.5080942">
<ele>29.17</ele>
<time>2015-04-26T08:57:13Z</time>
</trkpt>
<trkpt lat="35.1106844" lon="32.5080194">
<ele>23.99</ele>
<time>2015-04-26T08:57:15Z</time>
</trkpt>
<trkpt lat="35.1107500" lon="32.5079929">
<ele>18.96</ele>
<time>2015-04-26T08:57:16Z</time>
</trkpt>
<trkpt lat="35.1107889" lon="32.5079613">
<ele>17.42</ele>
<time>2015-04-26T08:58:12Z</time>
</trkpt>
<trkpt lat="35.1108129" lon="32.5078956">
<ele>17.47</ele>
<time>2015-04-26T08:58:17Z</time>
</trkpt>
<trkpt lat="35.1108444" lon="32.5078459">
<ele>18.24</ele>
<time>2015-04-26T08:58:20Z</time>
</trkpt>
<trkpt lat="35.1108757" lon="32.5077913">
<ele>19.21</ele>
<time>2015-04-26T08:58:23Z</time>
</trkpt>
<trkpt lat="35.1108849" lon="32.5077305">
<ele>18.71</ele>
<time>2015-04-26T08:58:26Z</time>
</trkpt>
<trkpt lat="35.1108524" lon="32.5076794">
<ele>18.90</ele>
<time>2015-04-26T08:58:29Z</time>
</trkpt>
<trkpt lat="35.1108063" lon="32.5076431">
<ele>20.55</ele>
<time>2015-04-26T08:58:32Z</time>
</trkpt>
<trkpt lat="35.1107640" lon="32.5076157">
<ele>21.83</ele>
<time>2015-04-26T08:58:34Z</time>
</trkpt>
<trkpt lat="35.1107090" lon="32.5075833">
<ele>22.40</ele>
<time>2015-04-26T08:58:36Z</time>
</trkpt>
<trkpt lat="35.1106533" lon="32.5075550">
<ele>23.29</ele>
<time>2015-04-26T08:58:38Z</time>
</trkpt>
<trkpt lat="35.1106012" lon="32.5075328">
<ele>21.77</ele>
<time>2015-04-26T08:58:40Z</time>
</trkpt>
<trkpt lat="35.1105508" lon="32.5075065">
<ele>21.64</ele>
<time>2015-04-26T08:58:42Z</time>
</trkpt>
<trkpt lat="35.1104996" lon="32.5074667">
<ele>21.85</ele>
<time>2015-04-26T08:58:44Z</time>
</trkpt>
<trkpt lat="35.1104439" lon="32.5074304">
<ele>21.66</ele>
<time>2015-04-26T08:58:46Z</time>
</trkpt>
<trkpt lat="35.1103897" lon="32.5073929">
<ele>21.86</ele>
<time>2015-04-26T08:58:48Z</time>
</trkpt>
<trkpt lat="35.1103378" lon="32.5073564">
<ele>22.41</ele>
<time>2015-04-26T08:58:50Z</time>
</trkpt>
<trkpt lat="35.1102883" lon="32.5073232">
<ele>22.80</ele>
<time>2015-04-26T08:58:52Z</time>
</trkpt>
<trkpt lat="35.1102410" lon="32.5072886">
<ele>23.64</ele>
<time>2015-04-26T08:58:54Z</time>
</trkpt>
<trkpt lat="35.1101948" lon="32.5072585">
<ele>23.35</ele>
<time>2015-04-26T08:58:56Z</time>
</trkpt>
<trkpt lat="35.1101479" lon="32.5072314">
<ele>23.78</ele>
<time>2015-04-26T08:58:58Z</time>
</trkpt>
<trkpt lat="35.1101076" lon="32.5072047">
<ele>23.14</ele>
<time>2015-04-26T08:59:00Z</time>
</trkpt>
<trkpt lat="35.1100670" lon="32.5071799">
<ele>22.98</ele>
<time>2015-04-26T08:59:02Z</time>
</trkpt>
<trkpt lat="35.1100256" lon="32.5071542">
<ele>22.69</ele>
<time>2015-04-26T08:59:04Z</time>
</trkpt>
<trkpt lat="35.1099685" lon="32.5071192">
<ele>22.90</ele>
<time>2015-04-26T08:59:07Z</time>
</trkpt>
<trkpt lat="35.1099145" lon="32.5070755">
<ele>20.80</ele>
<time>2015-04-26T08:59:10Z</time>
</trkpt>
<trkpt lat="35.1098723" lon="32.5070404">
<ele>20.39</ele>
<time>2015-04-26T08:59:12Z</time>
</trkpt>
<trkpt lat="35.1098216" lon="32.5070106">
<ele>20.79</ele>
<time>2015-04-26T08:59:14Z</time>
</trkpt>
<trkpt lat="35.1097686" lon="32.5069770">
<ele>19.64</ele>
<time>2015-04-26T08:59:16Z</time>
</trkpt>
<trkpt lat="35.1097160" lon="32.5069398">
<ele>19.10</ele>
<time>2015-04-26T08:59:18Z</time>
</trkpt>
<trkpt lat="35.1096632" lon="32.5069025">
<ele>18.72</ele>
<time>2015-04-26T08:59:20Z</time>
</trkpt>
<trkpt lat="35.1096111" lon="32.5068688">
<ele>18.12</ele>
<time>2015-04-26T08:59:22Z</time>
</trkpt>
<trkpt lat="35.1095625" lon="32.5068394">
<ele>17.97</ele>
<time>2015-04-26T08:59:24Z</time>
</trkpt>
<trkpt lat="35.1095185" lon="32.5068108">
<ele>17.94</ele>
<time>2015-04-26T08:59:26Z</time>
</trkpt>
<trkpt lat="35.1094766" lon="32.5067839">
<ele>18.43</ele>
<time>2015-04-26T08:59:28Z</time>
</trkpt>
<trkpt lat="35.1094339" lon="32.5067558">
<ele>18.80</ele>
<time>2015-04-26T08:59:30Z</time>
</trkpt>
<trkpt lat="35.1093923" lon="32.5067281">
<ele>19.14</ele>
<time>2015-04-26T08:59:32Z</time>
</trkpt>
<trkpt lat="35.1093486" lon="32.5066951">
<ele>18.48</ele>
<time>2015-04-26T08:59:34Z</time>
</trkpt>
<trkpt lat="35.1093003" lon="32.5066626">
<ele>17.31</ele>
<time>2015-04-26T08:59:36Z</time>
</trkpt>
<trkpt lat="35.1092488" lon="32.5066308">
<ele>17.77</ele>
<time>2015-04-26T08:59:38Z</time>
</trkpt>
<trkpt lat="35.1091970" lon="32.5065967">
<ele>17.39</ele>
<time>2015-04-26T08:59:40Z</time>
</trkpt>
<trkpt lat="35.1091437" lon="32.5065644">
<ele>17.04</ele>
<time>2015-04-26T08:59:42Z</time>
</trkpt>
<trkpt lat="35.1090907" lon="32.5065287">
<ele>16.20</ele>
<time>2015-04-26T08:59:44Z</time>
</trkpt>
<trkpt lat="35.1090380" lon="32.5064881">
<ele>16.24</ele>
<time>2015-04-26T08:59:46Z</time>
</trkpt>
<trkpt lat="35.1089855" lon="32.5064475">
<ele>15.50</ele>
<time>2015-04-26T08:59:48Z</time>
</trkpt>
<trkpt lat="35.1089307" lon="32.5064102">
<ele>15.07</ele>
<time>2015-04-26T08:59:50Z</time>
</trkpt>
<trkpt lat="35.1088779" lon="32.5063724">
<ele>15.46</ele>
<time>2015-04-26T08:59:52Z</time>
</trkpt>
<trkpt lat="35.1088283" lon="32.5063349">
<ele>15.81</ele>
<time>2015-04-26T08:59:54Z</time>
</trkpt>
<trkpt lat="35.1087807" lon="32.5062975">
<ele>15.15</ele>
<time>2015-04-26T08:59:56Z</time>
</trkpt>
<trkpt lat="35.1087318" lon="32.5062669">
<ele>15.73</ele>
<time>2015-04-26T08:59:58Z</time>
</trkpt>
<trkpt lat="35.1086895" lon="32.5062319">
<ele>15.38</ele>
<time>2015-04-26T09:00:00Z</time>
</trkpt>
<trkpt lat="35.1086486" lon="32.5061928">
<ele>13.54</ele>
<time>2015-04-26T09:00:02Z</time>
</trkpt>
<trkpt lat="35.1086079" lon="32.5061587">
<ele>13.08</ele>
<time>2015-04-26T09:00:04Z</time>
</trkpt>
<trkpt lat="35.1085669" lon="32.5061326">
<ele>12.21</ele>
<time>2015-04-26T09:00:06Z</time>
</trkpt>
<trkpt lat="35.1085048" lon="32.5061127">
<ele>13.34</ele>
<time>2015-04-26T09:00:09Z</time>
</trkpt>
<trkpt lat="35.1084502" lon="32.5060872">
<ele>13.85</ele>
<time>2015-04-26T09:00:12Z</time>
</trkpt>
<trkpt lat="35.1083961" lon="32.5060521">
<ele>13.04</ele>
<time>2015-04-26T09:00:15Z</time>
</trkpt>
<trkpt lat="35.1083418" lon="32.5060149">
<ele>14.19</ele>
<time>2015-04-26T09:00:18Z</time>
</trkpt>
<trkpt lat="35.1082880" lon="32.5059770">
<ele>15.71</ele>
<time>2015-04-26T09:00:21Z</time>
</trkpt>
<trkpt lat="35.1082368" lon="32.5059289">
<ele>14.65</ele>
<time>2015-04-26T09:00:24Z</time>
</trkpt>
<trkpt lat="35.1081910" lon="32.5058931">
<ele>13.84</ele>
<time>2015-04-26T09:01:56Z</time>
</trkpt>
<trkpt lat="35.1081514" lon="32.5058666">
<ele>13.40</ele>
<time>2015-04-26T09:01:58Z</time>
</trkpt>
<trkpt lat="35.1080948" lon="32.5058338">
<ele>13.04</ele>
<time>2015-04-26T09:02:00Z</time>
</trkpt>
<trkpt lat="35.1080399" lon="32.5057992">
<ele>11.45</ele>
<time>2015-04-26T09:02:02Z</time>
</trkpt>
<trkpt lat="35.1079889" lon="32.5057721">
<ele>11.31</ele>
<time>2015-04-26T09:02:04Z</time>
</trkpt>
<trkpt lat="35.1079431" lon="32.5057507">
<ele>11.02</ele>
<time>2015-04-26T09:02:06Z</time>
</trkpt>
<trkpt lat="35.1078919" lon="32.5057189">
<ele>12.31</ele>
<time>2015-04-26T09:02:09Z</time>
</trkpt>
<trkpt lat="35.1078442" lon="32.5056749">
<ele>13.60</ele>
<time>2015-04-26T09:02:12Z</time>
</trkpt>
<trkpt lat="35.1078058" lon="32.5056352">
<ele>13.84</ele>
<time>2015-04-26T09:02:14Z</time>
</trkpt>
<trkpt lat="35.1077604" lon="32.5055979">
<ele>13.65</ele>
<time>2015-04-26T09:02:16Z</time>
</trkpt>
<trkpt lat="35.1077062" lon="32.5055664">
<ele>12.61</ele>
<time>2015-04-26T09:02:18Z</time>
</trkpt>
<trkpt lat="35.1076521" lon="32.5055316">
<ele>12.35</ele>
<time>2015-04-26T09:02:20Z</time>
</trkpt>
<trkpt lat="35.1075980" lon="32.5054904">
<ele>12.53</ele>
<time>2015-04-26T09:02:22Z</time>
</trkpt>
<trkpt lat="35.1075406" lon="32.5054486">
<ele>12.58</ele>
<time>2015-04-26T09:02:24Z</time>
</trkpt>
<trkpt lat="35.1074862" lon="32.5054064">
<ele>11.59</ele>
<time>2015-04-26T09:02:26Z</time>
</trkpt>
<trkpt lat="35.1074326" lon="32.5053676">
<ele>12.34</ele>
<time>2015-04-26T09:02:28Z</time>
</trkpt>
<trkpt lat="35.1073797" lon="32.5053298">
<ele>12.78</ele>
<time>2015-04-26T09:02:30Z</time>
</trkpt>
<trkpt lat="35.1073245" lon="32.5052944">
<ele>12.14</ele>
<time>2015-04-26T09:02:32Z</time>
</trkpt>
<trkpt lat="35.1072690" lon="32.5052575">
<ele>13.23</ele>
<time>2015-04-26T09:02:34Z</time>
</trkpt>
<trkpt lat="35.1072124" lon="32.5052190">
<ele>13.75</ele>
<time>2015-04-26T09:02:36Z</time>
</trkpt>
<trkpt lat="35.1071552" lon="32.5051775">
<ele>13.88</ele>
<time>2015-04-26T09:02:38Z</time>
</trkpt>
<trkpt lat="35.1070956" lon="32.5051350">
<ele>13.66</ele>
<time>2015-04-26T09:02:40Z</time>
</trkpt>
<trkpt lat="35.1070366" lon="32.5050964">
<ele>14.36</ele>
<time>2015-04-26T09:02:42Z</time>
</trkpt>
<trkpt lat="35.1069794" lon="32.5050603">
<ele>15.53</ele>
<time>2015-04-26T09:02:44Z</time>
</trkpt>
<trkpt lat="35.1069247" lon="32.5050212">
<ele>16.58</ele>
<time>2015-04-26T09:02:46Z</time>
</trkpt>
<trkpt lat="35.1068719" lon="32.5049896">
<ele>16.84</ele>
<time>2015-04-26T09:02:48Z</time>
</trkpt>
<trkpt lat="35.1068196" lon="32.5049541">
<ele>15.65</ele>
<time>2015-04-26T09:02:50Z</time>
</trkpt>
<trkpt lat="35.1067611" lon="32.5049160">
<ele>15.11</ele>
<time>2015-04-26T09:02:52Z</time>
</trkpt>
<trkpt lat="35.1066876" lon="32.5048692">
<ele>15.72</ele>
<time>2015-04-26T09:02:54Z</time>
</trkpt>
<trkpt lat="35.1066457" lon="32.5048432">
<ele>15.82</ele>
<time>2015-04-26T09:02:55Z</time>
</trkpt>
<trkpt lat="35.1065870" lon="32.5048054">
<ele>15.87</ele>
<time>2015-04-26T09:02:56Z</time>
</trkpt>
<trkpt lat="35.1065115" lon="32.5047499">
<ele>15.16</ele>
<time>2015-04-26T09:02:58Z</time>
</trkpt>
<trkpt lat="35.1064691" lon="32.5047212">
<ele>14.54</ele>
<time>2015-04-26T09:02:59Z</time>
</trkpt>
<trkpt lat="35.1064239" lon="32.5046924">
<ele>14.23</ele>
<time>2015-04-26T09:03:00Z</time>
</trkpt>
<trkpt lat="35.1063824" lon="32.5046627">
<ele>14.58</ele>
<time>2015-04-26T09:03:01Z</time>
</trkpt>
<trkpt lat="35.1063400" lon="32.5046326">
<ele>14.75</ele>
<time>2015-04-26T09:03:02Z</time>
</trkpt>
<trkpt lat="35.1063022" lon="32.5045948">
<ele>14.34</ele>
<time>2015-04-26T09:03:03Z</time>
</trkpt>
<trkpt lat="35.1062558" lon="32.5045613">
<ele>15.13</ele>
<time>2015-04-26T09:03:04Z</time>
</trkpt>
<trkpt lat="35.1062087" lon="32.5045297">
<ele>15.03</ele>
<time>2015-04-26T09:03:05Z</time>
</trkpt>
<trkpt lat="35.1061622" lon="32.5044925">
<ele>15.48</ele>
<time>2015-04-26T09:03:06Z</time>
</trkpt>
<trkpt lat="35.1061163" lon="32.5044602">
<ele>16.20</ele>
<time>2015-04-26T09:03:07Z</time>
</trkpt>
<trkpt lat="35.1060774" lon="32.5044305">
<ele>16.56</ele>
<time>2015-04-26T09:03:08Z</time>
</trkpt>
<trkpt lat="35.1060360" lon="32.5043999">
<ele>17.24</ele>
<time>2015-04-26T09:03:09Z</time>
</trkpt>
<trkpt lat="35.1059390" lon="32.5043534">
<ele>18.50</ele>
<time>2015-04-26T09:03:11Z</time>
</trkpt>
<trkpt lat="35.1058995" lon="32.5043258">
<ele>19.21</ele>
<time>2015-04-26T09:03:12Z</time>
</trkpt>
<trkpt lat="35.1058300" lon="32.5042639">
<ele>20.00</ele>
<time>2015-04-26T09:03:14Z</time>
</trkpt>
<trkpt lat="35.1057885" lon="32.5042362">
<ele>19.96</ele>
<time>2015-04-26T09:03:15Z</time>
</trkpt>
<trkpt lat="35.1057454" lon="32.5042049">
<ele>18.94</ele>
<time>2015-04-26T09:03:16Z</time>
</trkpt>
<trkpt lat="35.1056645" lon="32.5041829">
<ele>18.18</ele>
<time>2015-04-26T09:03:18Z</time>
</trkpt>
<trkpt lat="35.1055796" lon="32.5041653">
<ele>18.24</ele>
<time>2015-04-26T09:03:20Z</time>
</trkpt>
<trkpt lat="35.1054938" lon="32.5041409">
<ele>18.75</ele>
<time>2015-04-26T09:03:22Z</time>
</trkpt>
<trkpt lat="35.1054495" lon="32.5041253">
<ele>18.84</ele>
<time>2015-04-26T09:03:23Z</time>
</trkpt>
<trkpt lat="35.1053662" lon="32.5040992">
<ele>18.15</ele>
<time>2015-04-26T09:03:25Z</time>
</trkpt>
<trkpt lat="35.1053052" lon="32.5040799">
<ele>17.23</ele>
<time>2015-04-26T09:03:27Z</time>
</trkpt>
<trkpt lat="35.1052422" lon="32.5040632">
<ele>18.25</ele>
<time>2015-04-26T09:03:29Z</time>
</trkpt>
<trkpt lat="35.1051677" lon="32.5040494">
<ele>18.76</ele>
<time>2015-04-26T09:03:31Z</time>
</trkpt>
<trkpt lat="35.1051025" lon="32.5040336">
<ele>19.63</ele>
<time>2015-04-26T09:03:33Z</time>
</trkpt>
<trkpt lat="35.1050401" lon="32.5040232">
<ele>21.85</ele>
<time>2015-04-26T09:03:35Z</time>
</trkpt>
<trkpt lat="35.1049768" lon="32.5040114">
<ele>22.91</ele>
<time>2015-04-26T09:03:37Z</time>
</trkpt>
<trkpt lat="35.1049292" lon="32.5040065">
<ele>19.94</ele>
<time>2015-04-26T09:04:07Z</time>
</trkpt>
<trkpt lat="35.1048689" lon="32.5039940">
<ele>18.05</ele>
<time>2015-04-26T09:04:10Z</time>
</trkpt>
<trkpt lat="35.1048096" lon="32.5039720">
<ele>17.21</ele>
<time>2015-04-26T09:04:12Z</time>
</trkpt>
<trkpt lat="35.1047442" lon="32.5039580">
<ele>17.00</ele>
<time>2015-04-26T09:04:14Z</time>
</trkpt>
<trkpt lat="35.1046694" lon="32.5039479">
<ele>15.44</ele>
<time>2015-04-26T09:04:16Z</time>
</trkpt>
<trkpt lat="35.1046222" lon="32.5039392">
<ele>15.18</ele>
<time>2015-04-26T09:04:17Z</time>
</trkpt>
<trkpt lat="35.1045294" lon="32.5039217">
<ele>16.05</ele>
<time>2015-04-26T09:04:18Z</time>
</trkpt>
<trkpt lat="35.1044804" lon="32.5039122">
<ele>16.49</ele>
<time>2015-04-26T09:04:19Z</time>
</trkpt>
<trkpt lat="35.1044353" lon="32.5039043">
<ele>17.21</ele>
<time>2015-04-26T09:04:20Z</time>
</trkpt>
<trkpt lat="35.1043465" lon="32.5038644">
<ele>17.00</ele>
<time>2015-04-26T09:04:22Z</time>
</trkpt>
<trkpt lat="35.1042888" lon="32.5038483">
<ele>16.96</ele>
<time>2015-04-26T09:04:23Z</time>
</trkpt>
<trkpt lat="35.1042409" lon="32.5038334">
<ele>16.94</ele>
<time>2015-04-26T09:04:24Z</time>
</trkpt>
<trkpt lat="35.1041462" lon="32.5037924">
<ele>17.68</ele>
<time>2015-04-26T09:04:26Z</time>
</trkpt>
<trkpt lat="35.1040610" lon="32.5037605">
<ele>18.11</ele>
<time>2015-04-26T09:04:28Z</time>
</trkpt>
<trkpt lat="35.1040183" lon="32.5037382">
<ele>18.02</ele>
<time>2015-04-26T09:04:29Z</time>
</trkpt>
<trkpt lat="35.1039553" lon="32.5036985">
<ele>18.20</ele>
<time>2015-04-26T09:04:31Z</time>
</trkpt>
<trkpt lat="35.1039024" lon="32.5036449">
<ele>17.24</ele>
<time>2015-04-26T09:04:33Z</time>
</trkpt>
<trkpt lat="35.1038541" lon="32.5036347">
<ele>15.00</ele>
<time>2015-04-26T09:04:35Z</time>
</trkpt>
<trkpt lat="35.1038064" lon="32.5036112">
<ele>14.19</ele>
<time>2015-04-26T09:04:37Z</time>
</trkpt>
<trkpt lat="35.1037623" lon="32.5035994">
<ele>13.99</ele>
<time>2015-04-26T09:04:39Z</time>
</trkpt>
<trkpt lat="35.1037009" lon="32.5035914">
<ele>15.56</ele>
<time>2015-04-26T09:04:42Z</time>
</trkpt>
<trkpt lat="35.1036553" lon="32.5035862">
<ele>15.83</ele>
<time>2015-04-26T09:04:44Z</time>
</trkpt>
<trkpt lat="35.1036077" lon="32.5035977">
<ele>16.65</ele>
<time>2015-04-26T09:04:46Z</time>
</trkpt>
<trkpt lat="35.1035637" lon="32.5036271">
<ele>17.36</ele>
<time>2015-04-26T09:04:48Z</time>
</trkpt>
<trkpt lat="35.1035282" lon="32.5036735">
<ele>17.78</ele>
<time>2015-04-26T09:04:50Z</time>
</trkpt>
<trkpt lat="35.1035174" lon="32.5037295">
<ele>17.14</ele>
<time>2015-04-26T09:04:52Z</time>
</trkpt>
<trkpt lat="35.1035237" lon="32.5037904">
<ele>17.73</ele>
<time>2015-04-26T09:04:54Z</time>
</trkpt>
<trkpt lat="35.1035341" lon="32.5038487">
<ele>17.88</ele>
<time>2015-04-26T09:04:56Z</time>
</trkpt>
<trkpt lat="35.1035524" lon="32.5039027">
<ele>16.41</ele>
<time>2015-04-26T09:04:58Z</time>
</trkpt>
<trkpt lat="35.1035694" lon="32.5039585">
<ele>16.05</ele>
<time>2015-04-26T09:05:00Z</time>
</trkpt>
<trkpt lat="35.1035796" lon="32.5040195">
<ele>15.96</ele>
<time>2015-04-26T09:05:02Z</time>
</trkpt>
<trkpt lat="35.1035834" lon="32.5040832">
<ele>15.93</ele>
<time>2015-04-26T09:05:04Z</time>
</trkpt>
<trkpt lat="35.1035823" lon="32.5041500">
<ele>15.43</ele>
<time>2015-04-26T09:05:06Z</time>
</trkpt>
<trkpt lat="35.1035787" lon="32.5042182">
<ele>15.30</ele>
<time>2015-04-26T09:05:08Z</time>
</trkpt>
<trkpt lat="35.1035694" lon="32.5042820">
<ele>15.02</ele>
<time>2015-04-26T09:05:10Z</time>
</trkpt>
<trkpt lat="35.1035529" lon="32.5043411">
<ele>14.95</ele>
<time>2015-04-26T09:05:12Z</time>
</trkpt>
<trkpt lat="35.1035251" lon="32.5043876">
<ele>15.68</ele>
<time>2015-04-26T09:05:14Z</time>
</trkpt>
<trkpt lat="35.1034960" lon="32.5044311">
<ele>15.36</ele>
<time>2015-04-26T09:05:16Z</time>
</trkpt>
<trkpt lat="35.1034675" lon="32.5044764">
<ele>15.03</ele>
<time>2015-04-26T09:05:18Z</time>
</trkpt>
<trkpt lat="35.1034255" lon="32.5045383">
<ele>15.56</ele>
<time>2015-04-26T09:05:21Z</time>
</trkpt>
<trkpt lat="35.1033790" lon="32.5045775">
<ele>16.63</ele>
<time>2015-04-26T09:05:24Z</time>
</trkpt>
<trkpt lat="35.1033245" lon="32.5046026">
<ele>17.76</ele>
<time>2015-04-26T09:05:27Z</time>
</trkpt>
<trkpt lat="35.1032715" lon="32.5046378">
<ele>17.90</ele>
<time>2015-04-26T09:05:30Z</time>
</trkpt>
<trkpt lat="35.1032173" lon="32.5046663">
<ele>19.30</ele>
<time>2015-04-26T09:05:33Z</time>
</trkpt>
<trkpt lat="35.1031692" lon="32.5046915">
<ele>19.85</ele>
<time>2015-04-26T09:05:36Z</time>
</trkpt>
<trkpt lat="35.1031169" lon="32.5047003">
<ele>20.04</ele>
<time>2015-04-26T09:05:39Z</time>
</trkpt>
<trkpt lat="35.1030619" lon="32.5047237">
<ele>20.56</ele>
<time>2015-04-26T09:05:42Z</time>
</trkpt>
<trkpt lat="35.1030025" lon="32.5047416">
<ele>20.88</ele>
<time>2015-04-26T09:05:45Z</time>
</trkpt>
<trkpt lat="35.1029436" lon="32.5047733">
<ele>22.92</ele>
<time>2015-04-26T09:05:48Z</time>
</trkpt>
<trkpt lat="35.1029015" lon="32.5047955">
<ele>24.67</ele>
<time>2015-04-26T09:05:50Z</time>
</trkpt>
<trkpt lat="35.1028575" lon="32.5048161">
<ele>26.36</ele>
<time>2015-04-26T09:05:52Z</time>
</trkpt>
<trkpt lat="35.1028144" lon="32.5048379">
<ele>26.78</ele>
<time>2015-04-26T09:05:54Z</time>
</trkpt>
<trkpt lat="35.1027752" lon="32.5048694">
<ele>26.89</ele>
<time>2015-04-26T09:05:56Z</time>
</trkpt>
<trkpt lat="35.1027401" lon="32.5049064">
<ele>26.92</ele>
<time>2015-04-26T09:05:58Z</time>
</trkpt>
<trkpt lat="35.1027044" lon="32.5049444">
<ele>28.17</ele>
<time>2015-04-26T09:06:00Z</time>
</trkpt>
<trkpt lat="35.1026622" lon="32.5049787">
<ele>28.74</ele>
<time>2015-04-26T09:06:02Z</time>
</trkpt>
<trkpt lat="35.1026289" lon="32.5050180">
<ele>28.38</ele>
<time>2015-04-26T09:06:04Z</time>
</trkpt>
<trkpt lat="35.1025796" lon="32.5050735">
<ele>27.98</ele>
<time>2015-04-26T09:06:07Z</time>
</trkpt>
<trkpt lat="35.1025360" lon="32.5051291">
<ele>27.93</ele>
<time>2015-04-26T09:06:10Z</time>
</trkpt>
<trkpt lat="35.1024940" lon="32.5051622">
<ele>30.49</ele>
<time>2015-04-26T09:06:15Z</time>
</trkpt>
<trkpt lat="35.1024557" lon="32.5051939">
<ele>31.77</ele>
<time>2015-04-26T09:06:19Z</time>
</trkpt>
<trkpt lat="35.1024168" lon="32.5052314">
<ele>31.60</ele>
<time>2015-04-26T09:06:23Z</time>
</trkpt>
<trkpt lat="35.1023693" lon="32.5052782">
<ele>31.72</ele>
<time>2015-04-26T09:06:27Z</time>
</trkpt>
<trkpt lat="35.1023377" lon="32.5053380">
<ele>33.15</ele>
<time>2015-04-26T09:06:30Z</time>
</trkpt>
<trkpt lat="35.1023003" lon="32.5053968">
<ele>34.58</ele>
<time>2015-04-26T09:06:33Z</time>
</trkpt>
<trkpt lat="35.1022581" lon="32.5054574">
<ele>35.76</ele>
<time>2015-04-26T09:06:36Z</time>
</trkpt>
<trkpt lat="35.1022316" lon="32.5055022">
<ele>35.38</ele>
<time>2015-04-26T09:06:38Z</time>
</trkpt>
<trkpt lat="35.1022047" lon="32.5055501">
<ele>35.79</ele>
<time>2015-04-26T09:06:40Z</time>
</trkpt>
<trkpt lat="35.1021828" lon="32.5056011">
<ele>35.39</ele>
<time>2015-04-26T09:06:42Z</time>
</trkpt>
<trkpt lat="35.1021610" lon="32.5056526">
<ele>35.04</ele>
<time>2015-04-26T09:06:44Z</time>
</trkpt>
<trkpt lat="35.1021399" lon="32.5057040">
<ele>35.70</ele>
<time>2015-04-26T09:06:46Z</time>
</trkpt>
<trkpt lat="35.1021190" lon="32.5057552">
<ele>35.87</ele>
<time>2015-04-26T09:06:48Z</time>
</trkpt>
<trkpt lat="35.1021017" lon="32.5058082">
<ele>36.66</ele>
<time>2015-04-26T09:06:50Z</time>
</trkpt>
<trkpt lat="35.1020851" lon="32.5058642">
<ele>36.36</ele>
<time>2015-04-26T09:06:52Z</time>
</trkpt>
<trkpt lat="35.1020677" lon="32.5059236">
<ele>35.53</ele>
<time>2015-04-26T09:06:54Z</time>
</trkpt>
<trkpt lat="35.1020516" lon="32.5059843">
<ele>34.33</ele>
<time>2015-04-26T09:06:56Z</time>
</trkpt>
<trkpt lat="35.1020316" lon="32.5060425">
<ele>34.78</ele>
<time>2015-04-26T09:06:58Z</time>
</trkpt>
<trkpt lat="35.1020126" lon="32.5060984">
<ele>34.89</ele>
<time>2015-04-26T09:07:00Z</time>
</trkpt>
<trkpt lat="35.1019935" lon="32.5061553">
<ele>34.42</ele>
<time>2015-04-26T09:07:02Z</time>
</trkpt>
<trkpt lat="35.1019779" lon="32.5062141">
<ele>35.30</ele>
<time>2015-04-26T09:07:04Z</time>
</trkpt>
<trkpt lat="35.1019632" lon="32.5062743">
<ele>35.77</ele>
<time>2015-04-26T09:07:06Z</time>
</trkpt>
<trkpt lat="35.1019460" lon="32.5063325">
<ele>36.64</ele>
<time>2015-04-26T09:07:08Z</time>
</trkpt>
<trkpt lat="35.1019296" lon="32.5063933">
<ele>36.10</ele>
<time>2015-04-26T09:07:10Z</time>
</trkpt>
<trkpt lat="35.1019114" lon="32.5064560">
<ele>35.22</ele>
<time>2015-04-26T09:07:12Z</time>
</trkpt>
<trkpt lat="35.1018897" lon="32.5065152">
<ele>34.25</ele>
<time>2015-04-26T09:07:14Z</time>
</trkpt>
<trkpt lat="35.1018676" lon="32.5065741">
<ele>35.26</ele>
<time>2015-04-26T09:07:16Z</time>
</trkpt>
<trkpt lat="35.1018518" lon="32.5066343">
<ele>35.51</ele>
<time>2015-04-26T09:07:18Z</time>
</trkpt>
<trkpt lat="35.1018369" lon="32.5066970">
<ele>36.57</ele>
<time>2015-04-26T09:07:20Z</time>
</trkpt>
<trkpt lat="35.1018176" lon="32.5067583">
<ele>37.59</ele>
<time>2015-04-26T09:07:22Z</time>
</trkpt>
<trkpt lat="35.1017884" lon="32.5068156">
<ele>37.59</ele>
<time>2015-04-26T09:07:24Z</time>
</trkpt>
<trkpt lat="35.1017667" lon="32.5068755">
<ele>37.09</ele>
<time>2015-04-26T09:07:26Z</time>
</trkpt>
<trkpt lat="35.1017470" lon="32.5069360">
<ele>37.47</ele>
<time>2015-04-26T09:07:28Z</time>
</trkpt>
<trkpt lat="35.1017235" lon="32.5069933">
<ele>37.06</ele>
<time>2015-04-26T09:07:30Z</time>
</trkpt>
<trkpt lat="35.1017012" lon="32.5070495">
<ele>38.21</ele>
<time>2015-04-26T09:07:32Z</time>
</trkpt>
<trkpt lat="35.1016795" lon="32.5071084">
<ele>38.75</ele>
<time>2015-04-26T09:07:34Z</time>
</trkpt>
<trkpt lat="35.1016583" lon="32.5071671">
<ele>39.38</ele>
<time>2015-04-26T09:07:36Z</time>
</trkpt>
<trkpt lat="35.1016359" lon="32.5072279">
<ele>39.54</ele>
<time>2015-04-26T09:07:38Z</time>
</trkpt>
<trkpt lat="35.1016155" lon="32.5072918">
<ele>39.83</ele>
<time>2015-04-26T09:07:40Z</time>
</trkpt>
<trkpt lat="35.1015936" lon="32.5073529">
<ele>39.15</ele>
<time>2015-04-26T09:07:42Z</time>
</trkpt>
<trkpt lat="35.1015713" lon="32.5074128">
<ele>40.48</ele>
<time>2015-04-26T09:07:44Z</time>
</trkpt>
<trkpt lat="35.1015464" lon="32.5074657">
<ele>40.81</ele>
<time>2015-04-26T09:07:46Z</time>
</trkpt>
<trkpt lat="35.1015124" lon="32.5075324">
<ele>40.04</ele>
<time>2015-04-26T09:07:49Z</time>
</trkpt>
<trkpt lat="35.1014792" lon="32.5075941">
<ele>38.56</ele>
<time>2015-04-26T09:07:52Z</time>
</trkpt>
<trkpt lat="35.1014413" lon="32.5076528">
<ele>35.75</ele>
<time>2015-04-26T09:07:55Z</time>
</trkpt>
<trkpt lat="35.1014017" lon="32.5077093">
<ele>35.90</ele>
<time>2015-04-26T09:07:58Z</time>
</trkpt>
<trkpt lat="35.1013634" lon="32.5077624">
<ele>37.17</ele>
<time>2015-04-26T09:08:01Z</time>
</trkpt>
<trkpt lat="35.1013262" lon="32.5078060">
<ele>37.71</ele>
<time>2015-04-26T09:08:04Z</time>
</trkpt>
<trkpt lat="35.1012789" lon="32.5078397">
<ele>39.15</ele>
<time>2015-04-26T09:08:07Z</time>
</trkpt>
<trkpt lat="35.1012319" lon="32.5078773">
<ele>41.20</ele>
<time>2015-04-26T09:08:10Z</time>
</trkpt>
<trkpt lat="35.1011878" lon="32.5079189">
<ele>42.33</ele>
<time>2015-04-26T09:08:13Z</time>
</trkpt>
<trkpt lat="35.1011468" lon="32.5079713">
<ele>42.85</ele>
<time>2015-04-26T09:08:16Z</time>
</trkpt>
<trkpt lat="35.1011092" lon="32.5080334">
<ele>44.17</ele>
<time>2015-04-26T09:08:19Z</time>
</trkpt>
<trkpt lat="35.1010728" lon="32.5080967">
<ele>46.08</ele>
<time>2015-04-26T09:08:22Z</time>
</trkpt>
<trkpt lat="35.1010321" lon="32.5081602">
<ele>48.94</ele>
<time>2015-04-26T09:08:25Z</time>
</trkpt>
<trkpt lat="35.1010071" lon="32.5082062">
<ele>49.93</ele>
<time>2015-04-26T09:08:27Z</time>
</trkpt>
<trkpt lat="35.1009814" lon="32.5082519">
<ele>49.93</ele>
<time>2015-04-26T09:08:29Z</time>
</trkpt>
<trkpt lat="35.1009515" lon="32.5083255">
<ele>50.80</ele>
<time>2015-04-26T09:08:32Z</time>
</trkpt>
<trkpt lat="35.1009372" lon="32.5083800">
<ele>50.89</ele>
<time>2015-04-26T09:08:34Z</time>
</trkpt>
<trkpt lat="35.1009306" lon="32.5084564">
<ele>51.42</ele>
<time>2015-04-26T09:08:37Z</time>
</trkpt>
<trkpt lat="35.1009310" lon="32.5085255">
<ele>51.11</ele>
<time>2015-04-26T09:08:40Z</time>
</trkpt>
<trkpt lat="35.1009332" lon="32.5085973">
<ele>52.57</ele>
<time>2015-04-26T09:08:43Z</time>
</trkpt>
<trkpt lat="35.1009358" lon="32.5086534">
<ele>52.59</ele>
<time>2015-04-26T09:08:45Z</time>
</trkpt>
<trkpt lat="35.1009377" lon="32.5087100">
<ele>52.59</ele>
<time>2015-04-26T09:08:47Z</time>
</trkpt>
<trkpt lat="35.1009389" lon="32.5087698">
<ele>52.84</ele>
<time>2015-04-26T09:08:49Z</time>
</trkpt>
<trkpt lat="35.1009372" lon="32.5088255">
<ele>52.40</ele>
<time>2015-04-26T09:08:51Z</time>
</trkpt>
<trkpt lat="35.1009444" lon="32.5089014">
<ele>52.23</ele>
<time>2015-04-26T09:08:54Z</time>
</trkpt>
<trkpt lat="35.1009617" lon="32.5089743">
<ele>53.34</ele>
<time>2015-04-26T09:08:57Z</time>
</trkpt>
<trkpt lat="35.1009746" lon="32.5090509">
<ele>54.35</ele>
<time>2015-04-26T09:09:00Z</time>
</trkpt>
<trkpt lat="35.1009813" lon="32.5091259">
<ele>51.10</ele>
<time>2015-04-26T09:09:03Z</time>
</trkpt>
<trkpt lat="35.1009865" lon="32.5092023">
<ele>51.45</ele>
<time>2015-04-26T09:09:06Z</time>
</trkpt>
<trkpt lat="35.1009892" lon="32.5092774">
<ele>54.62</ele>
<time>2015-04-26T09:09:09Z</time>
</trkpt>
<trkpt lat="35.1010015" lon="32.5093478">
<ele>54.01</ele>
<time>2015-04-26T09:09:12Z</time>
</trkpt>
<trkpt lat="35.1010093" lon="32.5094176">
<ele>51.81</ele>
<time>2015-04-26T09:09:15Z</time>
</trkpt>
<trkpt lat="35.1010203" lon="32.5094886">
<ele>51.91</ele>
<time>2015-04-26T09:09:18Z</time>
</trkpt>
<trkpt lat="35.1010349" lon="32.5095684">
<ele>53.17</ele>
<time>2015-04-26T09:09:21Z</time>
</trkpt>
<trkpt lat="35.1010407" lon="32.5096237">
<ele>53.74</ele>
<time>2015-04-26T09:09:23Z</time>
</trkpt>
<trkpt lat="35.1010437" lon="32.5096986">
<ele>53.53</ele>
<time>2015-04-26T09:09:26Z</time>
</trkpt>
<trkpt lat="35.1010446" lon="32.5097554">
<ele>53.83</ele>
<time>2015-04-26T09:09:28Z</time>
</trkpt>
<trkpt lat="35.1010473" lon="32.5098177">
<ele>54.40</ele>
<time>2015-04-26T09:09:30Z</time>
</trkpt>
<trkpt lat="35.1010516" lon="32.5098873">
<ele>54.79</ele>
<time>2015-04-26T09:09:32Z</time>
</trkpt>
<trkpt lat="35.1010530" lon="32.5099704">
<ele>54.89</ele>
<time>2015-04-26T09:09:34Z</time>
</trkpt>
<trkpt lat="35.1010570" lon="32.5100556">
<ele>55.42</ele>
<time>2015-04-26T09:09:36Z</time>
</trkpt>
<trkpt lat="35.1010622" lon="32.5101429">
<ele>55.80</ele>
<time>2015-04-26T09:09:38Z</time>
</trkpt>
<trkpt lat="35.1010647" lon="32.5102254">
<ele>55.89</ele>
<time>2015-04-26T09:09:40Z</time>
</trkpt>
<trkpt lat="35.1010662" lon="32.5103065">
<ele>55.92</ele>
<time>2015-04-26T09:09:42Z</time>
</trkpt>
<trkpt lat="35.1010663" lon="32.5103870">
<ele>56.42</ele>
<time>2015-04-26T09:09:44Z</time>
</trkpt>
<trkpt lat="35.1010626" lon="32.5104650">
<ele>56.55</ele>
<time>2015-04-26T09:09:46Z</time>
</trkpt>
<trkpt lat="35.1010622" lon="32.5105320">
<ele>56.83</ele>
<time>2015-04-26T09:09:48Z</time>
</trkpt>
<trkpt lat="35.1010634" lon="32.5105953">
<ele>56.90</ele>
<time>2015-04-26T09:09:50Z</time>
</trkpt>
<trkpt lat="35.1010624" lon="32.5106537">
<ele>56.92</ele>
<time>2015-04-26T09:09:52Z</time>
</trkpt>
<trkpt lat="35.1010648" lon="32.5107090">
<ele>56.92</ele>
<time>2015-04-26T09:09:55Z</time>
</trkpt>
<trkpt lat="35.1010742" lon="32.5107709">
<ele>56.92</ele>
<time>2015-04-26T09:09:58Z</time>
</trkpt>
<trkpt lat="35.1010811" lon="32.5108259">
<ele>56.92</ele>
<time>2015-04-26T09:10:00Z</time>
</trkpt>
<trkpt lat="35.1010870" lon="32.5109067">
<ele>56.92</ele>
<time>2015-04-26T09:10:03Z</time>
</trkpt>
<trkpt lat="35.1010918" lon="32.5109838">
<ele>56.80</ele>
<time>2015-04-26T09:10:06Z</time>
</trkpt>
<trkpt lat="35.1011005" lon="32.5110672">
<ele>56.91</ele>
<time>2015-04-26T09:10:09Z</time>
</trkpt>
<trkpt lat="35.1011088" lon="32.5111416">
<ele>56.17</ele>
<time>2015-04-26T09:10:11Z</time>
</trkpt>
<trkpt lat="35.1011283" lon="32.5112949">
<ele>55.24</ele>
<time>2015-04-26T09:10:13Z</time>
</trkpt>
<trkpt lat="35.1011413" lon="32.5113654">
<ele>54.58</ele>
<time>2015-04-26T09:10:14Z</time>
</trkpt>
<trkpt lat="35.1011551" lon="32.5114419">
<ele>53.75</ele>
<time>2015-04-26T09:10:15Z</time>
</trkpt>
<trkpt lat="35.1011714" lon="32.5115290">
<ele>53.34</ele>
<time>2015-04-26T09:10:16Z</time>
</trkpt>
<trkpt lat="35.1011838" lon="32.5116240">
<ele>52.63</ele>
<time>2015-04-26T09:10:17Z</time>
</trkpt>
<trkpt lat="35.1012058" lon="32.5117106">
<ele>51.78</ele>
<time>2015-04-26T09:10:18Z</time>
</trkpt>
<trkpt lat="35.1012202" lon="32.5117981">
<ele>51.35</ele>
<time>2015-04-26T09:10:19Z</time>
</trkpt>
<trkpt lat="35.1012341" lon="32.5118840">
<ele>51.14</ele>
<time>2015-04-26T09:10:20Z</time>
</trkpt>
<trkpt lat="35.1012500" lon="32.5119729">
<ele>51.53</ele>
<time>2015-04-26T09:10:21Z</time>
</trkpt>
<trkpt lat="35.1012711" lon="32.5120615">
<ele>51.73</ele>
<time>2015-04-26T09:10:22Z</time>
</trkpt>
<trkpt lat="35.1012890" lon="32.5121490">
<ele>52.33</ele>
<time>2015-04-26T09:10:23Z</time>
</trkpt>
<trkpt lat="35.1013061" lon="32.5122312">
<ele>52.13</ele>
<time>2015-04-26T09:10:24Z</time>
</trkpt>
<trkpt lat="35.1013206" lon="32.5123117">
<ele>52.03</ele>
<time>2015-04-26T09:10:25Z</time>
</trkpt>
<trkpt lat="35.1013266" lon="32.5123864">
<ele>51.98</ele>
<time>2015-04-26T09:10:26Z</time>
</trkpt>
<trkpt lat="35.1013179" lon="32.5124754">
<ele>51.45</ele>
<time>2015-04-26T09:10:27Z</time>
</trkpt>
<trkpt lat="35.1013168" lon="32.5125647">
<ele>50.19</ele>
<time>2015-04-26T09:10:28Z</time>
</trkpt>
<trkpt lat="35.1013070" lon="32.5126392">
<ele>49.56</ele>
<time>2015-04-26T09:10:29Z</time>
</trkpt>
<trkpt lat="35.1012900" lon="32.5127202">
<ele>49.24</ele>
<time>2015-04-26T09:10:30Z</time>
</trkpt>
<trkpt lat="35.1012682" lon="32.5127974">
<ele>48.58</ele>
<time>2015-04-26T09:10:31Z</time>
</trkpt>
<trkpt lat="35.1012539" lon="32.5128618">
<ele>48.75</ele>
<time>2015-04-26T09:10:32Z</time>
</trkpt>
<trkpt lat="35.1012354" lon="32.5129210">
<ele>49.34</ele>
<time>2015-04-26T09:10:33Z</time>
</trkpt>
<trkpt lat="35.1012065" lon="32.5130169">
<ele>49.13</ele>
<time>2015-04-26T09:10:34Z</time>
</trkpt>
<trkpt lat="35.1011791" lon="32.5130848">
<ele>48.53</ele>
<time>2015-04-26T09:10:35Z</time>
</trkpt>
<trkpt lat="35.1011608" lon="32.5131485">
<ele>48.23</ele>
<time>2015-04-26T09:10:36Z</time>
</trkpt>
<trkpt lat="35.1011444" lon="32.5132044">
<ele>48.08</ele>
<time>2015-04-26T09:10:37Z</time>
</trkpt>
<trkpt lat="35.1010970" lon="32.5133091">
<ele>47.96</ele>
<time>2015-04-26T09:10:39Z</time>
</trkpt>
<trkpt lat="35.1010639" lon="32.5133565">
<ele>48.44</ele>
<time>2015-04-26T09:10:40Z</time>
</trkpt>
<trkpt lat="35.1010263" lon="32.5134007">
<ele>48.18</ele>
<time>2015-04-26T09:10:41Z</time>
</trkpt>
<trkpt lat="35.1009670" lon="32.5134642">
<ele>47.99</ele>
<time>2015-04-26T09:10:43Z</time>
</trkpt>
<trkpt lat="35.1009080" lon="32.5135297">
<ele>48.69</ele>
<time>2015-04-26T09:10:45Z</time>
</trkpt>
<trkpt lat="35.1008548" lon="32.5135996">
<ele>49.62</ele>
<time>2015-04-26T09:10:47Z</time>
</trkpt>
<trkpt lat="35.1008014" lon="32.5136551">
<ele>50.60</ele>
<time>2015-04-26T09:10:49Z</time>
</trkpt>
<trkpt lat="35.1007595" lon="32.5137118">
<ele>50.84</ele>
<time>2015-04-26T09:10:51Z</time>
</trkpt>
<trkpt lat="35.1007182" lon="32.5137699">
<ele>50.90</ele>
<time>2015-04-26T09:10:53Z</time>
</trkpt>
<trkpt lat="35.1006821" lon="32.5138284">
<ele>51.17</ele>
<time>2015-04-26T09:10:55Z</time>
</trkpt>
<trkpt lat="35.1006556" lon="32.5138881">
<ele>50.99</ele>
<time>2015-04-26T09:10:57Z</time>
</trkpt>
<trkpt lat="35.1006327" lon="32.5139540">
<ele>51.44</ele>
<time>2015-04-26T09:10:59Z</time>
</trkpt>
<trkpt lat="35.1006188" lon="32.5140245">
<ele>52.55</ele>
<time>2015-04-26T09:11:01Z</time>
</trkpt>
<trkpt lat="35.1006066" lon="32.5140932">
<ele>54.08</ele>
<time>2015-04-26T09:11:03Z</time>
</trkpt>
<trkpt lat="35.1005965" lon="32.5141585">
<ele>52.71</ele>
<time>2015-04-26T09:11:05Z</time>
</trkpt>
<trkpt lat="35.1005825" lon="32.5142248">
<ele>52.12</ele>
<time>2015-04-26T09:11:07Z</time>
</trkpt>
<trkpt lat="35.1005619" lon="32.5142944">
<ele>52.47</ele>
<time>2015-04-26T09:11:09Z</time>
</trkpt>
<trkpt lat="35.1005387" lon="32.5143653">
<ele>53.31</ele>
<time>2015-04-26T09:11:11Z</time>
</trkpt>
<trkpt lat="35.1005090" lon="32.5144349">
<ele>54.27</ele>
<time>2015-04-26T09:11:13Z</time>
</trkpt>
<trkpt lat="35.1004800" lon="32.5145052">
<ele>55.26</ele>
<time>2015-04-26T09:11:15Z</time>
</trkpt>
<trkpt lat="35.1004521" lon="32.5145742">
<ele>55.01</ele>
<time>2015-04-26T09:11:17Z</time>
</trkpt>
<trkpt lat="35.1004240" lon="32.5146356">
<ele>54.45</ele>
<time>2015-04-26T09:11:19Z</time>
</trkpt>
<trkpt lat="35.1004044" lon="32.5146885">
<ele>54.31</ele>
<time>2015-04-26T09:11:21Z</time>
</trkpt>
<trkpt lat="35.1003826" lon="32.5147508">
<ele>53.51</ele>
<time>2015-04-26T09:11:25Z</time>
</trkpt>
<trkpt lat="35.1003654" lon="32.5148058">
<ele>54.25</ele>
<time>2015-04-26T09:11:28Z</time>
</trkpt>
<trkpt lat="35.1003468" lon="32.5148632">
<ele>54.09</ele>
<time>2015-04-26T09:11:31Z</time>
</trkpt>
<trkpt lat="35.1003388" lon="32.5149208">
<ele>54.82</ele>
<time>2015-04-26T09:11:34Z</time>
</trkpt>
<trkpt lat="35.1003381" lon="32.5149866">
<ele>54.04</ele>
<time>2015-04-26T09:11:38Z</time>
</trkpt>
<trkpt lat="35.1003574" lon="32.5150439">
<ele>55.30</ele>
<time>2015-04-26T09:11:57Z</time>
</trkpt>
<trkpt lat="35.1003569" lon="32.5151252">
<ele>54.47</ele>
<time>2015-04-26T09:12:00Z</time>
</trkpt>
<trkpt lat="35.1003577" lon="32.5151836">
<ele>53.81</ele>
<time>2015-04-26T09:12:02Z</time>
</trkpt>
<trkpt lat="35.1003701" lon="32.5152422">
<ele>54.65</ele>
<time>2015-04-26T09:12:04Z</time>
</trkpt>
<trkpt lat="35.1003763" lon="32.5153016">
<ele>54.86</ele>
<time>2015-04-26T09:12:06Z</time>
</trkpt>
<trkpt lat="35.1003807" lon="32.5153584">
<ele>55.41</ele>
<time>2015-04-26T09:12:08Z</time>
</trkpt>
<trkpt lat="35.1003900" lon="32.5154123">
<ele>56.05</ele>
<time>2015-04-26T09:12:10Z</time>
</trkpt>
<trkpt lat="35.1003955" lon="32.5154885">
<ele>57.57</ele>
<time>2015-04-26T09:12:13Z</time>
</trkpt>
<trkpt lat="35.1003985" lon="32.5155604">
<ele>58.63</ele>
<time>2015-04-26T09:12:16Z</time>
</trkpt>
<trkpt lat="35.1003998" lon="32.5156305">
<ele>58.39</ele>
<time>2015-04-26T09:12:19Z</time>
</trkpt>
<trkpt lat="35.1003977" lon="32.5156972">
<ele>59.73</ele>
<time>2015-04-26T09:12:22Z</time>
</trkpt>
<trkpt lat="35.1003852" lon="32.5157562">
<ele>59.90</ele>
<time>2015-04-26T09:12:25Z</time>
</trkpt>
<trkpt lat="35.1003737" lon="32.5158230">
<ele>59.92</ele>
<time>2015-04-26T09:12:29Z</time>
</trkpt>
<trkpt lat="35.1003753" lon="32.5158971">
<ele>63.46</ele>
<time>2015-04-26T09:13:56Z</time>
</trkpt>
<trkpt lat="35.1003831" lon="32.5159567">
<ele>63.06</ele>
<time>2015-04-26T09:13:58Z</time>
</trkpt>
<trkpt lat="35.1003931" lon="32.5160253">
<ele>62.46</ele>
<time>2015-04-26T09:14:00Z</time>
</trkpt>
<trkpt lat="35.1003986" lon="32.5160946">
<ele>63.31</ele>
<time>2015-04-26T09:14:02Z</time>
</trkpt>
<trkpt lat="35.1004099" lon="32.5161634">
<ele>64.27</ele>
<time>2015-04-26T09:14:04Z</time>
</trkpt>
<trkpt lat="35.1004210" lon="32.5162315">
<ele>64.01</ele>
<time>2015-04-26T09:14:06Z</time>
</trkpt>
<trkpt lat="35.1004331" lon="32.5163005">
<ele>63.95</ele>
<time>2015-04-26T09:14:08Z</time>
</trkpt>
<trkpt lat="35.1004510" lon="32.5163586">
<ele>64.43</ele>
<time>2015-04-26T09:14:10Z</time>
</trkpt>
<trkpt lat="35.1004714" lon="32.5164349">
<ele>64.86</ele>
<time>2015-04-26T09:14:13Z</time>
</trkpt>
<trkpt lat="35.1004853" lon="32.5164914">
<ele>65.41</ele>
<time>2015-04-26T09:14:15Z</time>
</trkpt>
<trkpt lat="35.1004972" lon="32.5165451">
<ele>65.80</ele>
<time>2015-04-26T09:14:17Z</time>
</trkpt>
<trkpt lat="35.1005061" lon="32.5166216">
<ele>67.66</ele>
<time>2015-04-26T09:14:20Z</time>
</trkpt>
<trkpt lat="35.1004785" lon="32.5166917">
<ele>69.14</ele>
<time>2015-04-26T09:14:23Z</time>
</trkpt>
<trkpt lat="35.1004458" lon="32.5167625">
<ele>68.95</ele>
<time>2015-04-26T09:14:26Z</time>
</trkpt>
<trkpt lat="35.1004335" lon="32.5168161">
<ele>69.68</ele>
<time>2015-04-26T09:14:28Z</time>
</trkpt>
<trkpt lat="35.1004214" lon="32.5168703">
<ele>70.61</ele>
<time>2015-04-26T09:14:30Z</time>
</trkpt>
<trkpt lat="35.1003892" lon="32.5169379">
<ele>71.64</ele>
<time>2015-04-26T09:14:33Z</time>
</trkpt>
<trkpt lat="35.1003563" lon="32.5170092">
<ele>71.01</ele>
<time>2015-04-26T09:14:36Z</time>
</trkpt>
<trkpt lat="35.1003325" lon="32.5170570">
<ele>70.95</ele>
<time>2015-04-26T09:14:38Z</time>
</trkpt>
<trkpt lat="35.1002918" lon="32.5171206">
<ele>70.93</ele>
<time>2015-04-26T09:14:41Z</time>
</trkpt>
<trkpt lat="35.1002646" lon="32.5171648">
<ele>71.68</ele>
<time>2015-04-26T09:14:43Z</time>
</trkpt>
<trkpt lat="35.1002322" lon="32.5172054">
<ele>71.36</ele>
<time>2015-04-26T09:14:45Z</time>
</trkpt>
<trkpt lat="35.1001974" lon="32.5172423">
<ele>71.03</ele>
<time>2015-04-26T09:14:47Z</time>
</trkpt>
<trkpt lat="35.1001617" lon="32.5172777">
<ele>70.45</ele>
<time>2015-04-26T09:14:49Z</time>
</trkpt>
<trkpt lat="35.1001253" lon="32.5173113">
<ele>70.31</ele>
<time>2015-04-26T09:14:51Z</time>
</trkpt>
<trkpt lat="35.1000847" lon="32.5173464">
<ele>71.02</ele>
<time>2015-04-26T09:14:53Z</time>
</trkpt>
<trkpt lat="35.1000410" lon="32.5173812">
<ele>70.45</ele>
<time>2015-04-26T09:14:55Z</time>
</trkpt>
<trkpt lat="35.0999984" lon="32.5174159">
<ele>68.31</ele>
<time>2015-04-26T09:14:57Z</time>
</trkpt>
<trkpt lat="35.0999600" lon="32.5174506">
<ele>67.02</ele>
<time>2015-04-26T09:14:59Z</time>
</trkpt>
<trkpt lat="35.0999085" lon="32.5174966">
<ele>68.31</ele>
<time>2015-04-26T09:15:02Z</time>
</trkpt>
<trkpt lat="35.0998794" lon="32.5175435">
<ele>70.35</ele>
<time>2015-04-26T09:15:05Z</time>
</trkpt>
<trkpt lat="35.0999270" lon="32.5174903">
<ele>72.86</ele>
<time>2015-04-26T09:19:13Z</time>
</trkpt>
<trkpt lat="35.0999580" lon="32.5174486">
<ele>72.16</ele>
<time>2015-04-26T09:19:15Z</time>
</trkpt>
<trkpt lat="35.0999973" lon="32.5173997">
<ele>71.48</ele>
<time>2015-04-26T09:19:17Z</time>
</trkpt>
<trkpt lat="35.1000423" lon="32.5173453">
<ele>71.06</ele>
<time>2015-04-26T09:19:19Z</time>
</trkpt>
<trkpt lat="35.1000918" lon="32.5173018">
<ele>70.21</ele>
<time>2015-04-26T09:19:21Z</time>
</trkpt>
<trkpt lat="35.1001409" lon="32.5172689">
<ele>70.00</ele>
<time>2015-04-26T09:19:23Z</time>
</trkpt>
<trkpt lat="35.1001835" lon="32.5172232">
<ele>70.69</ele>
<time>2015-04-26T09:19:25Z</time>
</trkpt>
<trkpt lat="35.1002213" lon="32.5171759">
<ele>70.37</ele>
<time>2015-04-26T09:19:27Z</time>
</trkpt>
<trkpt lat="35.1002592" lon="32.5171343">
<ele>70.04</ele>
<time>2015-04-26T09:19:29Z</time>
</trkpt>
<trkpt lat="35.1002908" lon="32.5170896">
<ele>70.70</ele>
<time>2015-04-26T09:19:31Z</time>
</trkpt>
<trkpt lat="35.1003159" lon="32.5170437">
<ele>71.12</ele>
<time>2015-04-26T09:19:33Z</time>
</trkpt>
<trkpt lat="35.1003516" lon="32.5169816">
<ele>71.70</ele>
<time>2015-04-26T09:19:36Z</time>
</trkpt>
<trkpt lat="35.1003826" lon="32.5169198">
<ele>69.90</ele>
<time>2015-04-26T09:19:39Z</time>
</trkpt>
<trkpt lat="35.1004103" lon="32.5168613">
<ele>68.30</ele>
<time>2015-04-26T09:19:42Z</time>
</trkpt>
<trkpt lat="35.1004342" lon="32.5167909">
<ele>66.35</ele>
<time>2015-04-26T09:19:45Z</time>
</trkpt>
<trkpt lat="35.1004568" lon="32.5167338">
<ele>65.28</ele>
<time>2015-04-26T09:19:47Z</time>
</trkpt>
<trkpt lat="35.1004799" lon="32.5166565">
<ele>65.51</ele>
<time>2015-04-26T09:19:49Z</time>
</trkpt>
<trkpt lat="35.1004982" lon="32.5165639">
<ele>65.57</ele>
<time>2015-04-26T09:19:51Z</time>
</trkpt>
<trkpt lat="35.1005053" lon="32.5164687">
<ele>65.84</ele>
<time>2015-04-26T09:19:53Z</time>
</trkpt>
<trkpt lat="35.1004936" lon="32.5163694">
<ele>65.40</ele>
<time>2015-04-26T09:19:55Z</time>
</trkpt>
<trkpt lat="35.1004741" lon="32.5163041">
<ele>64.66</ele>
<time>2015-04-26T09:19:56Z</time>
</trkpt>
<trkpt lat="35.1004451" lon="32.5162176">
<ele>62.36</ele>
<time>2015-04-26T09:19:58Z</time>
</trkpt>
<trkpt lat="35.1004219" lon="32.5161133">
<ele>61.28</ele>
<time>2015-04-26T09:20:00Z</time>
</trkpt>
<trkpt lat="35.1004154" lon="32.5160565">
<ele>61.10</ele>
<time>2015-04-26T09:20:01Z</time>
</trkpt>
<trkpt lat="35.1003994" lon="32.5160048">
<ele>60.51</ele>
<time>2015-04-26T09:20:02Z</time>
</trkpt>
<trkpt lat="35.1003992" lon="32.5159470">
<ele>60.72</ele>
<time>2015-04-26T09:20:03Z</time>
</trkpt>
<trkpt lat="35.1004178" lon="32.5158381">
<ele>60.87</ele>
<time>2015-04-26T09:20:05Z</time>
</trkpt>
<trkpt lat="35.1004212" lon="32.5157805">
<ele>60.40</ele>
<time>2015-04-26T09:20:06Z</time>
</trkpt>
<trkpt lat="35.1004229" lon="32.5156687">
<ele>58.79</ele>
<time>2015-04-26T09:20:08Z</time>
</trkpt>
<trkpt lat="35.1004176" lon="32.5156047">
<ele>58.36</ele>
<time>2015-04-26T09:20:09Z</time>
</trkpt>
<trkpt lat="35.1004133" lon="32.5155383">
<ele>57.64</ele>
<time>2015-04-26T09:20:10Z</time>
</trkpt>
<trkpt lat="35.1004130" lon="32.5154735">
<ele>57.28</ele>
<time>2015-04-26T09:20:11Z</time>
</trkpt>
<trkpt lat="35.1004038" lon="32.5153960">
<ele>56.60</ele>
<time>2015-04-26T09:20:12Z</time>
</trkpt>
<trkpt lat="35.1003962" lon="32.5153189">
<ele>56.26</ele>
<time>2015-04-26T09:20:13Z</time>
</trkpt>
<trkpt lat="35.1003854" lon="32.5152542">
<ele>55.59</ele>
<time>2015-04-26T09:20:14Z</time>
</trkpt>
<trkpt lat="35.1003767" lon="32.5151924">
<ele>55.26</ele>
<time>2015-04-26T09:20:15Z</time>
</trkpt>
<trkpt lat="35.1003689" lon="32.5151278">
<ele>55.59</ele>
<time>2015-04-26T09:20:16Z</time>
</trkpt>
<trkpt lat="35.1003644" lon="32.5150612">
<ele>55.76</ele>
<time>2015-04-26T09:20:17Z</time>
</trkpt>
<trkpt lat="35.1003481" lon="32.5150063">
<ele>55.34</ele>
<time>2015-04-26T09:20:18Z</time>
</trkpt>
<trkpt lat="35.1003484" lon="32.5149070">
<ele>53.78</ele>
<time>2015-04-26T09:20:20Z</time>
</trkpt>
<trkpt lat="35.1003512" lon="32.5148278">
<ele>52.14</ele>
<time>2015-04-26T09:20:22Z</time>
</trkpt>
<trkpt lat="35.1003688" lon="32.5147533">
<ele>50.73</ele>
<time>2015-04-26T09:20:24Z</time>
</trkpt>
<trkpt lat="35.1004180" lon="32.5147079">
<ele>50.65</ele>
<time>2015-04-26T09:20:27Z</time>
</trkpt>
<trkpt lat="35.1004691" lon="32.5147067">
<ele>51.61</ele>
<time>2015-04-26T09:20:29Z</time>
</trkpt>
<trkpt lat="35.1005099" lon="32.5147391">
<ele>52.35</ele>
<time>2015-04-26T09:20:31Z</time>
</trkpt>
<trkpt lat="35.1005467" lon="32.5147825">
<ele>53.28</ele>
<time>2015-04-26T09:20:33Z</time>
</trkpt>
<trkpt lat="35.1005813" lon="32.5148266">
<ele>52.51</ele>
<time>2015-04-26T09:20:35Z</time>
</trkpt>
<trkpt lat="35.1006199" lon="32.5148651">
<ele>52.82</ele>
<time>2015-04-26T09:20:37Z</time>
</trkpt>
<trkpt lat="35.1006559" lon="32.5149172">
<ele>53.15</ele>
<time>2015-04-26T09:20:39Z</time>
</trkpt>
<trkpt lat="35.1006772" lon="32.5149858">
<ele>53.73</ele>
<time>2015-04-26T09:20:41Z</time>
</trkpt>
<trkpt lat="35.1006874" lon="32.5150481">
<ele>53.88</ele>
<time>2015-04-26T09:20:43Z</time>
</trkpt>
<trkpt lat="35.1007072" lon="32.5151172">
<ele>53.42</ele>
<time>2015-04-26T09:20:46Z</time>
</trkpt>
<trkpt lat="35.1007268" lon="32.5151764">
<ele>52.96</ele>
<time>2015-04-26T09:20:50Z</time>
</trkpt>
<trkpt lat="35.1007350" lon="32.5152439">
<ele>54.11</ele>
<time>2015-04-26T09:20:54Z</time>
</trkpt>
<trkpt lat="35.1007448" lon="32.5153047">
<ele>54.44</ele>
<time>2015-04-26T09:20:58Z</time>
</trkpt>
<trkpt lat="35.1007495" lon="32.5153698">
<ele>57.08</ele>
<time>2015-04-26T09:21:02Z</time>
</trkpt>
<trkpt lat="35.1007682" lon="32.5154311">
<ele>58.37</ele>
<time>2015-04-26T09:21:06Z</time>
</trkpt>
<trkpt lat="35.1007804" lon="32.5154947">
<ele>59.39</ele>
<time>2015-04-26T09:21:10Z</time>
</trkpt>
<trkpt lat="35.1007947" lon="32.5155632">
<ele>59.02</ele>
<time>2015-04-26T09:21:14Z</time>
</trkpt>
<trkpt lat="35.1008140" lon="32.5156229">
<ele>59.68</ele>
<time>2015-04-26T09:21:18Z</time>
</trkpt>
<trkpt lat="35.1008293" lon="32.5156824">
<ele>61.41</ele>
<time>2015-04-26T09:21:22Z</time>
</trkpt>
<trkpt lat="35.1008528" lon="32.5157404">
<ele>61.14</ele>
<time>2015-04-26T09:21:26Z</time>
</trkpt>
<trkpt lat="35.1008885" lon="32.5157864">
<ele>61.31</ele>
<time>2015-04-26T09:21:30Z</time>
</trkpt>
<trkpt lat="35.1009166" lon="32.5158388">
<ele>61.82</ele>
<time>2015-04-26T09:21:34Z</time>
</trkpt>
<trkpt lat="35.1009429" lon="32.5158903">
<ele>61.92</ele>
<time>2015-04-26T09:21:38Z</time>
</trkpt>
<trkpt lat="35.1009687" lon="32.5159456">
<ele>62.67</ele>
<time>2015-04-26T09:21:42Z</time>
</trkpt>
<trkpt lat="35.1009951" lon="32.5160030">
<ele>61.97</ele>
<time>2015-04-26T09:21:46Z</time>
</trkpt>
<trkpt lat="35.1010278" lon="32.5160676">
<ele>64.62</ele>
<time>2015-04-26T09:21:50Z</time>
</trkpt>
<trkpt lat="35.1010438" lon="32.5161249">
<ele>66.39</ele>
<time>2015-04-26T09:21:53Z</time>
</trkpt>
<trkpt lat="35.1010611" lon="32.5161782">
<ele>68.48</ele>
<time>2015-04-26T09:21:56Z</time>
</trkpt>
<trkpt lat="35.1010859" lon="32.5162342">
<ele>68.90</ele>
<time>2015-04-26T09:22:00Z</time>
</trkpt>
<trkpt lat="35.1011002" lon="32.5162944">
<ele>70.55</ele>
<time>2015-04-26T09:22:04Z</time>
</trkpt>
<trkpt lat="35.1011219" lon="32.5163464">
<ele>69.71</ele>
<time>2015-04-26T09:22:08Z</time>
</trkpt>
<trkpt lat="35.1011438" lon="32.5163965">
<ele>70.41</ele>
<time>2015-04-26T09:22:12Z</time>
</trkpt>
<trkpt lat="35.1011667" lon="32.5164490">
<ele>70.46</ele>
<time>2015-04-26T09:22:16Z</time>
</trkpt>
<trkpt lat="35.1011782" lon="32.5165145">
<ele>71.15</ele>
<time>2015-04-26T09:22:20Z</time>
</trkpt>
<trkpt lat="35.1011890" lon="32.5165782">
<ele>70.06</ele>
<time>2015-04-26T09:22:24Z</time>
</trkpt>
<trkpt lat="35.1011939" lon="32.5166420">
<ele>70.43</ele>
<time>2015-04-26T09:22:28Z</time>
</trkpt>
<trkpt lat="35.1011912" lon="32.5167110">
<ele>71.14</ele>
<time>2015-04-26T09:22:32Z</time>
</trkpt>
<trkpt lat="35.1011816" lon="32.5167722">
<ele>70.71</ele>
<time>2015-04-26T09:22:37Z</time>
</trkpt>
<trkpt lat="35.1011641" lon="32.5168287">
<ele>71.39</ele>
<time>2015-04-26T09:22:42Z</time>
</trkpt>
<trkpt lat="35.1011582" lon="32.5168942">
<ele>73.69</ele>
<time>2015-04-26T09:22:47Z</time>
</trkpt>
<trkpt lat="35.1011496" lon="32.5169488">
<ele>74.85</ele>
<time>2015-04-26T09:22:51Z</time>
</trkpt>
<trkpt lat="35.1011630" lon="32.5170024">
<ele>75.61</ele>
<time>2015-04-26T09:22:55Z</time>
</trkpt>
<trkpt lat="35.1011666" lon="32.5170660">
<ele>75.57</ele>
<time>2015-04-26T09:23:00Z</time>
</trkpt>
<trkpt lat="35.1011315" lon="32.5171222">
<ele>75.59</ele>
<time>2015-04-26T09:23:04Z</time>
</trkpt>
<trkpt lat="35.1011044" lon="32.5171784">
<ele>75.38</ele>
<time>2015-04-26T09:23:07Z</time>
</trkpt>
<trkpt lat="35.1010767" lon="32.5172425">
<ele>75.23</ele>
<time>2015-04-26T09:23:10Z</time>
</trkpt>
<trkpt lat="35.1010490" lon="32.5173110">
<ele>75.71</ele>
<time>2015-04-26T09:23:13Z</time>
</trkpt>
<trkpt lat="35.1010206" lon="32.5173822">
<ele>77.52</ele>
<time>2015-04-26T09:23:16Z</time>
</trkpt>
<trkpt lat="35.1009882" lon="32.5174520">
<ele>78.37</ele>
<time>2015-04-26T09:23:19Z</time>
</trkpt>
<trkpt lat="35.1009581" lon="32.5175221">
<ele>78.11</ele>
<time>2015-04-26T09:23:22Z</time>
</trkpt>
<trkpt lat="35.1009335" lon="32.5175979">
<ele>78.07</ele>
<time>2015-04-26T09:23:25Z</time>
</trkpt>
<trkpt lat="35.1009177" lon="32.5176670">
<ele>77.57</ele>
<time>2015-04-26T09:23:28Z</time>
</trkpt>
<trkpt lat="35.1008801" lon="32.5177000">
<ele>68.80</ele>
<time>2015-04-26T09:23:55Z</time>
</trkpt>
<trkpt lat="35.1008924" lon="32.5177541">
<ele>70.83</ele>
<time>2015-04-26T09:25:48Z</time>
</trkpt>
<trkpt lat="35.1008927" lon="32.5178103">
<ele>70.91</ele>
<time>2015-04-26T09:25:51Z</time>
</trkpt>
<trkpt lat="35.1008990" lon="32.5178837">
<ele>72.55</ele>
<time>2015-04-26T09:25:54Z</time>
</trkpt>
<trkpt lat="35.1009067" lon="32.5179520">
<ele>72.63</ele>
<time>2015-04-26T09:25:57Z</time>
</trkpt>
<trkpt lat="35.1009134" lon="32.5180180">
<ele>73.64</ele>
<time>2015-04-26T09:26:00Z</time>
</trkpt>
<trkpt lat="35.1009126" lon="32.5180796">
<ele>75.51</ele>
<time>2015-04-26T09:26:03Z</time>
</trkpt>
<trkpt lat="35.1008970" lon="32.5181377">
<ele>76.87</ele>
<time>2015-04-26T09:26:06Z</time>
</trkpt>
<trkpt lat="35.1008788" lon="32.5182049">
<ele>77.54</ele>
<time>2015-04-26T09:26:09Z</time>
</trkpt>
<trkpt lat="35.1008684" lon="32.5182696">
<ele>77.13</ele>
<time>2015-04-26T09:26:12Z</time>
</trkpt>
<trkpt lat="35.1008444" lon="32.5183225">
<ele>78.58</ele>
<time>2015-04-26T09:26:15Z</time>
</trkpt>
<trkpt lat="35.1008188" lon="32.5183797">
<ele>80.63</ele>
<time>2015-04-26T09:26:18Z</time>
</trkpt>
<trkpt lat="35.1008002" lon="32.5184446">
<ele>80.51</ele>
<time>2015-04-26T09:26:21Z</time>
</trkpt>
<trkpt lat="35.1007852" lon="32.5185058">
<ele>82.50</ele>
<time>2015-04-26T09:26:24Z</time>
</trkpt>
<trkpt lat="35.1007723" lon="32.5185652">
<ele>84.12</ele>
<time>2015-04-26T09:26:27Z</time>
</trkpt>
<trkpt lat="35.1007630" lon="32.5186244">
<ele>84.07</ele>
<time>2015-04-26T09:26:30Z</time>
</trkpt>
<trkpt lat="35.1007583" lon="32.5186885">
<ele>85.69</ele>
<time>2015-04-26T09:26:33Z</time>
</trkpt>
<trkpt lat="35.1007614" lon="32.5187632">
<ele>85.90</ele>
<time>2015-04-26T09:26:36Z</time>
</trkpt>
<trkpt lat="35.1007698" lon="32.5188208">
<ele>85.17</ele>
<time>2015-04-26T09:26:38Z</time>
</trkpt>
<trkpt lat="35.1007876" lon="32.5188952">
<ele>85.74</ele>
<time>2015-04-26T09:26:40Z</time>
</trkpt>
<trkpt lat="35.1008177" lon="32.5189775">
<ele>85.88</ele>
<time>2015-04-26T09:26:42Z</time>
</trkpt>
<trkpt lat="35.1008578" lon="32.5190666">
<ele>85.91</ele>
<time>2015-04-26T09:26:44Z</time>
</trkpt>
<trkpt lat="35.1008836" lon="32.5191129">
<ele>85.92</ele>
<time>2015-04-26T09:26:45Z</time>
</trkpt>
<trkpt lat="35.1009370" lon="32.5192034">
<ele>85.42</ele>
<time>2015-04-26T09:26:47Z</time>
</trkpt>
<trkpt lat="35.1009865" lon="32.5192803">
<ele>85.05</ele>
<time>2015-04-26T09:26:49Z</time>
</trkpt>
<trkpt lat="35.1010261" lon="32.5193289">
<ele>84.46</ele>
<time>2015-04-26T09:26:51Z</time>
</trkpt>
<trkpt lat="35.1010602" lon="32.5193693">
<ele>83.12</ele>
<time>2015-04-26T09:26:54Z</time>
</trkpt>
<trkpt lat="35.1010890" lon="32.5194318">
<ele>82.07</ele>
<time>2015-04-26T09:26:57Z</time>
</trkpt>
<trkpt lat="35.1011429" lon="32.5194672">
<ele>81.44</ele>
<time>2015-04-26T09:27:00Z</time>
</trkpt>
<trkpt lat="35.1011891" lon="32.5194852">
<ele>81.71</ele>
<time>2015-04-26T09:27:04Z</time>
</trkpt>
<trkpt lat="35.1012370" lon="32.5194816">
<ele>81.91</ele>
<time>2015-04-26T09:27:08Z</time>
</trkpt>
<trkpt lat="35.1012837" lon="32.5194997">
<ele>82.86</ele>
<time>2015-04-26T09:27:12Z</time>
</trkpt>
<trkpt lat="35.1013337" lon="32.5195332">
<ele>85.98</ele>
<time>2015-04-26T09:27:16Z</time>
</trkpt>
<trkpt lat="35.1013824" lon="32.5195571">
<ele>88.68</ele>
<time>2015-04-26T09:27:20Z</time>
</trkpt>
<trkpt lat="35.1014217" lon="32.5195990">
<ele>85.85</ele>
<time>2015-04-26T09:27:24Z</time>
</trkpt>
<trkpt lat="35.1014516" lon="32.5196577">
<ele>86.61</ele>
<time>2015-04-26T09:27:28Z</time>
</trkpt>
<trkpt lat="35.1014792" lon="32.5197145">
<ele>86.16</ele>
<time>2015-04-26T09:27:32Z</time>
</trkpt>
<trkpt lat="35.1015097" lon="32.5197625">
<ele>88.19</ele>
<time>2015-04-26T09:27:36Z</time>
</trkpt>
<trkpt lat="35.1015552" lon="32.5197730">
<ele>85.41</ele>
<time>2015-04-26T09:27:50Z</time>
</trkpt>
<trkpt lat="35.1016048" lon="32.5197970">
<ele>88.93</ele>
<time>2015-04-26T09:28:37Z</time>
</trkpt>
<trkpt lat="35.1016526" lon="32.5198182">
<ele>89.69</ele>
<time>2015-04-26T09:28:43Z</time>
</trkpt>
<trkpt lat="35.1016975" lon="32.5198394">
<ele>89.70</ele>
<time>2015-04-26T09:28:48Z</time>
</trkpt>
<trkpt lat="35.1017396" lon="32.5198605">
<ele>91.67</ele>
<time>2015-04-26T09:28:53Z</time>
</trkpt>
<trkpt lat="35.1017855" lon="32.5198762">
<ele>91.92</ele>
<time>2015-04-26T09:28:59Z</time>
</trkpt>
<trkpt lat="35.1018383" lon="32.5198822">
<ele>94.02</ele>
<time>2015-04-26T09:29:05Z</time>
</trkpt>
<trkpt lat="35.1018871" lon="32.5198917">
<ele>93.21</ele>
<time>2015-04-26T09:29:11Z</time>
</trkpt>
<trkpt lat="35.1019339" lon="32.5199144">
<ele>95.48</ele>
<time>2015-04-26T09:29:18Z</time>
</trkpt>
<trkpt lat="35.1019794" lon="32.5199365">
<ele>95.71</ele>
<time>2015-04-26T09:29:26Z</time>
</trkpt>
<trkpt lat="35.1020265" lon="32.5199568">
<ele>95.92</ele>
<time>2015-04-26T09:29:33Z</time>
</trkpt>
<trkpt lat="35.1020744" lon="32.5199692">
<ele>97.75</ele>
<time>2015-04-26T09:29:41Z</time>
</trkpt>
<trkpt lat="35.1021201" lon="32.5199615">
<ele>99.76</ele>
<time>2015-04-26T09:29:46Z</time>
</trkpt>
<trkpt lat="35.1021684" lon="32.5199373">
<ele>100.89</ele>
<time>2015-04-26T09:29:51Z</time>
</trkpt>
<trkpt lat="35.1022148" lon="32.5199120">
<ele>100.92</ele>
<time>2015-04-26T09:29:56Z</time>
</trkpt>
<trkpt lat="35.1022595" lon="32.5198934">
<ele>101.89</ele>
<time>2015-04-26T09:30:02Z</time>
</trkpt>
<trkpt lat="35.1023033" lon="32.5198646">
<ele>104.64</ele>
<time>2015-04-26T09:30:09Z</time>
</trkpt>
<trkpt lat="35.1023467" lon="32.5198440">
<ele>105.69</ele>
<time>2015-04-26T09:30:16Z</time>
</trkpt>
<trkpt lat="35.1023902" lon="32.5198240">
<ele>106.58</ele>
<time>2015-04-26T09:30:24Z</time>
</trkpt>
<trkpt lat="35.1024360" lon="32.5198034">
<ele>108.78</ele>
<time>2015-04-26T09:30:32Z</time>
</trkpt>
<trkpt lat="35.1024824" lon="32.5197899">
<ele>110.81</ele>
<time>2015-04-26T09:30:39Z</time>
</trkpt>
<trkpt lat="35.1025294" lon="32.5197977">
<ele>112.49</ele>
<time>2015-04-26T09:30:45Z</time>
</trkpt>
<trkpt lat="35.1025774" lon="32.5198160">
<ele>111.19</ele>
<time>2015-04-26T09:30:52Z</time>
</trkpt>
<trkpt lat="35.1026017" lon="32.5198676">
<ele>109.46</ele>
<time>2015-04-26T09:31:03Z</time>
</trkpt>
<trkpt lat="35.1026106" lon="32.5199265">
<ele>111.10</ele>
<time>2015-04-26T09:31:11Z</time>
</trkpt>
<trkpt lat="35.1025907" lon="32.5199826">
<ele>111.61</ele>
<time>2015-04-26T09:31:18Z</time>
</trkpt>
<trkpt lat="35.1025525" lon="32.5200195">
<ele>111.92</ele>
<time>2015-04-26T09:31:24Z</time>
</trkpt>
<trkpt lat="35.1025266" lon="32.5200723">
<ele>114.05</ele>
<time>2015-04-26T09:31:39Z</time>
</trkpt>
<trkpt lat="35.1024999" lon="32.5201266">
<ele>117.47</ele>
<time>2015-04-26T09:31:45Z</time>
</trkpt>
<trkpt lat="35.1024828" lon="32.5201785">
<ele>116.79</ele>
<time>2015-04-26T09:31:50Z</time>
</trkpt>
<trkpt lat="35.1024590" lon="32.5202303">
<ele>119.53</ele>
<time>2015-04-26T09:31:56Z</time>
</trkpt>
<trkpt lat="35.1024490" lon="32.5202879">
<ele>122.15</ele>
<time>2015-04-26T09:32:02Z</time>
</trkpt>
<trkpt lat="35.1024435" lon="32.5203435">
<ele>121.98</ele>
<time>2015-04-26T09:32:08Z</time>
</trkpt>
<trkpt lat="35.1024768" lon="32.5203906">
<ele>122.61</ele>
<time>2015-04-26T09:32:15Z</time>
</trkpt>
<trkpt lat="35.1025260" lon="32.5203839">
<ele>121.07</ele>
<time>2015-04-26T09:32:20Z</time>
</trkpt>
<trkpt lat="35.1025708" lon="32.5203653">
<ele>120.47</ele>
<time>2015-04-26T09:32:27Z</time>
</trkpt>
<trkpt lat="35.1026109" lon="32.5203309">
<ele>120.75</ele>
<time>2015-04-26T09:32:40Z</time>
</trkpt>
<trkpt lat="35.1026537" lon="32.5202976">
<ele>121.42</ele>
<time>2015-04-26T09:32:45Z</time>
</trkpt>
<trkpt lat="35.1026967" lon="32.5202682">
<ele>122.47</ele>
<time>2015-04-26T09:32:50Z</time>
</trkpt>
<trkpt lat="35.1027320" lon="32.5202322">
<ele>123.04</ele>
<time>2015-04-26T09:32:55Z</time>
</trkpt>
<trkpt lat="35.1027758" lon="32.5202019">
<ele>123.86</ele>
<time>2015-04-26T09:33:01Z</time>
</trkpt>
<trkpt lat="35.1028259" lon="32.5201774">
<ele>124.08</ele>
<time>2015-04-26T09:33:07Z</time>
</trkpt>
<trkpt lat="35.1028696" lon="32.5201520">
<ele>124.80</ele>
<time>2015-04-26T09:33:12Z</time>
</trkpt>
<trkpt lat="35.1029095" lon="32.5201210">
<ele>128.26</ele>
<time>2015-04-26T09:33:31Z</time>
</trkpt>
<trkpt lat="35.1029530" lon="32.5200964">
<ele>127.93</ele>
<time>2015-04-26T09:33:37Z</time>
</trkpt>
<trkpt lat="35.1029954" lon="32.5200608">
<ele>128.68</ele>
<time>2015-04-26T09:33:43Z</time>
</trkpt>
<trkpt lat="35.1030230" lon="32.5200144">
<ele>129.85</ele>
<time>2015-04-26T09:33:48Z</time>
</trkpt>
<trkpt lat="35.1030502" lon="32.5199680">
<ele>129.92</ele>
<time>2015-04-26T09:33:56Z</time>
</trkpt>
<trkpt lat="35.1030651" lon="32.5199136">
<ele>131.03</ele>
<time>2015-04-26T09:34:03Z</time>
</trkpt>
<trkpt lat="35.1030959" lon="32.5198714">
<ele>132.69</ele>
<time>2015-04-26T09:34:13Z</time>
</trkpt>
<trkpt lat="35.1031332" lon="32.5198365">
<ele>133.95</ele>
<time>2015-04-26T09:34:20Z</time>
</trkpt>
<trkpt lat="35.1031751" lon="32.5198143">
<ele>134.08</ele>
<time>2015-04-26T09:34:32Z</time>
</trkpt>
<trkpt lat="35.1032040" lon="32.5198583">
<ele>134.30</ele>
<time>2015-04-26T09:34:38Z</time>
</trkpt>
<trkpt lat="35.1032074" lon="32.5199198">
<ele>133.99</ele>
<time>2015-04-26T09:34:44Z</time>
</trkpt>
<trkpt lat="35.1032171" lon="32.5199746">
<ele>133.21</ele>
<time>2015-04-26T09:34:49Z</time>
</trkpt>
<trkpt lat="35.1032294" lon="32.5200397">
<ele>131.43</ele>
<time>2015-04-26T09:34:55Z</time>
</trkpt>
<trkpt lat="35.1032330" lon="32.5200948">
<ele>131.88</ele>
<time>2015-04-26T09:35:00Z</time>
</trkpt>
<trkpt lat="35.1032254" lon="32.5201543">
<ele>133.39</ele>
<time>2015-04-26T09:35:11Z</time>
</trkpt>
<trkpt lat="35.1032176" lon="32.5202162">
<ele>135.60</ele>
<time>2015-04-26T09:35:16Z</time>
</trkpt>
<trkpt lat="35.1032191" lon="32.5202803">
<ele>136.79</ele>
<time>2015-04-26T09:35:21Z</time>
</trkpt>
<trkpt lat="35.1032278" lon="32.5203390">
<ele>136.55</ele>
<time>2015-04-26T09:35:26Z</time>
</trkpt>
<trkpt lat="35.1032373" lon="32.5203970">
<ele>137.01</ele>
<time>2015-04-26T09:35:31Z</time>
</trkpt>
<trkpt lat="35.1032465" lon="32.5204517">
<ele>138.62</ele>
<time>2015-04-26T09:35:36Z</time>
</trkpt>
<trkpt lat="35.1032588" lon="32.5205136">
<ele>142.09</ele>
<time>2015-04-26T09:35:42Z</time>
</trkpt>
<trkpt lat="35.1032591" lon="32.5205756">
<ele>142.18</ele>
<time>2015-04-26T09:35:47Z</time>
</trkpt>
<trkpt lat="35.1032664" lon="32.5206347">
<ele>142.05</ele>
<time>2015-04-26T09:35:53Z</time>
</trkpt>
<trkpt lat="35.1032341" lon="32.5206877">
<ele>142.90</ele>
<time>2015-04-26T09:35:58Z</time>
</trkpt>
<trkpt lat="35.1032326" lon="32.5207508">
<ele>142.42</ele>
<time>2015-04-26T09:36:04Z</time>
</trkpt>
<trkpt lat="35.1032295" lon="32.5208159">
<ele>143.41</ele>
<time>2015-04-26T09:36:09Z</time>
</trkpt>
<trkpt lat="35.1032328" lon="32.5208717">
<ele>144.77</ele>
<time>2015-04-26T09:36:13Z</time>
</trkpt>
<trkpt lat="35.1032544" lon="32.5209308">
<ele>144.92</ele>
<time>2015-04-26T09:36:18Z</time>
</trkpt>
<trkpt lat="35.1032484" lon="32.5209877">
<ele>147.06</ele>
<time>2015-04-26T09:36:28Z</time>
</trkpt>
<trkpt lat="35.1032450" lon="32.5210445">
<ele>150.65</ele>
<time>2015-04-26T09:36:37Z</time>
</trkpt>
<trkpt lat="35.1032636" lon="32.5210981">
<ele>154.29</ele>
<time>2015-04-26T09:36:46Z</time>
</trkpt>
<trkpt lat="35.1032720" lon="32.5211554">
<ele>151.43</ele>
<time>2015-04-26T09:37:01Z</time>
</trkpt>
<trkpt lat="35.1032836" lon="32.5212121">
<ele>151.43</ele>
<time>2015-04-26T09:37:25Z</time>
</trkpt>
<trkpt lat="35.1032956" lon="32.5212718">
<ele>151.48</ele>
<time>2015-04-26T09:37:34Z</time>
</trkpt>
<trkpt lat="35.1033062" lon="32.5213262">
<ele>151.69</ele>
<time>2015-04-26T09:37:41Z</time>
</trkpt>
<trkpt lat="35.1033247" lon="32.5213808">
<ele>152.04</ele>
<time>2015-04-26T09:37:49Z</time>
</trkpt>
<trkpt lat="35.1033465" lon="32.5214348">
<ele>151.93</ele>
<time>2015-04-26T09:37:57Z</time>
</trkpt>
<trkpt lat="35.1033884" lon="32.5214690">
<ele>154.66</ele>
<time>2015-04-26T09:38:05Z</time>
</trkpt>
<trkpt lat="35.1034300" lon="32.5215034">
<ele>161.42</ele>
<time>2015-04-26T09:38:33Z</time>
</trkpt>
<trkpt lat="35.1034792" lon="32.5215175">
<ele>161.80</ele>
<time>2015-04-26T09:39:30Z</time>
</trkpt>
<trkpt lat="35.1035242" lon="32.5215113">
<ele>161.92</ele>
<time>2015-04-26T09:39:36Z</time>
</trkpt>
<trkpt lat="35.1035717" lon="32.5215034">
<ele>163.67</ele>
<time>2015-04-26T09:39:43Z</time>
</trkpt>
<trkpt lat="35.1036094" lon="32.5214695">
<ele>163.83</ele>
<time>2015-04-26T09:39:49Z</time>
</trkpt>
<trkpt lat="35.1036562" lon="32.5214425">
<ele>163.94</ele>
<time>2015-04-26T09:39:56Z</time>
</trkpt>
<trkpt lat="35.1036998" lon="32.5214188">
<ele>165.52</ele>
<time>2015-04-26T09:40:08Z</time>
</trkpt>
<trkpt lat="35.1037422" lon="32.5213910">
<ele>165.80</ele>
<time>2015-04-26T09:40:17Z</time>
</trkpt>
<trkpt lat="35.1037839" lon="32.5213700">
<ele>167.77</ele>
<time>2015-04-26T09:40:26Z</time>
</trkpt>
<trkpt lat="35.1038233" lon="32.5213324">
<ele>169.08</ele>
<time>2015-04-26T09:40:33Z</time>
</trkpt>
<trkpt lat="35.1038709" lon="32.5213196">
<ele>169.39</ele>
<time>2015-04-26T09:40:40Z</time>
</trkpt>
<trkpt lat="35.1039225" lon="32.5213031">
<ele>170.91</ele>
<time>2015-04-26T09:40:55Z</time>
</trkpt>
<trkpt lat="35.1039672" lon="32.5212862">
<ele>169.94</ele>
<time>2015-04-26T09:41:03Z</time>
</trkpt>
<trkpt lat="35.1040109" lon="32.5212476">
<ele>170.86</ele>
<time>2015-04-26T09:41:07Z</time>
</trkpt>
<trkpt lat="35.1040657" lon="32.5212222">
<ele>170.54</ele>
<time>2015-04-26T09:41:10Z</time>
</trkpt>
<trkpt lat="35.1041222" lon="32.5211969">
<ele>171.25</ele>
<time>2015-04-26T09:41:13Z</time>
</trkpt>
<trkpt lat="35.1041799" lon="32.5211850">
<ele>171.09</ele>
<time>2015-04-26T09:41:16Z</time>
</trkpt>
<trkpt lat="35.1042298" lon="32.5211971">
<ele>171.32</ele>
<time>2015-04-26T09:41:19Z</time>
</trkpt>
<trkpt lat="35.1042746" lon="32.5212228">
<ele>171.60</ele>
<time>2015-04-26T09:41:22Z</time>
</trkpt>
<trkpt lat="35.1043124" lon="32.5212544">
<ele>171.88</ele>
<time>2015-04-26T09:41:25Z</time>
</trkpt>
<trkpt lat="35.1043468" lon="32.5212990">
<ele>172.42</ele>
<time>2015-04-26T09:41:29Z</time>
</trkpt>
<trkpt lat="35.1043335" lon="32.5213568">
<ele>174.48</ele>
<time>2015-04-26T09:41:57Z</time>
</trkpt>
<trkpt lat="35.1043430" lon="32.5214196">
<ele>177.64</ele>
<time>2015-04-26T09:42:03Z</time>
</trkpt>
<trkpt lat="35.1043509" lon="32.5214826">
<ele>177.92</ele>
<time>2015-04-26T09:42:09Z</time>
</trkpt>
<trkpt lat="35.1043725" lon="32.5215371">
<ele>179.64</ele>
<time>2015-04-26T09:42:14Z</time>
</trkpt>
<trkpt lat="35.1043811" lon="32.5215962">
<ele>180.45</ele>
<time>2015-04-26T09:42:19Z</time>
</trkpt>
<trkpt lat="35.1043946" lon="32.5216587">
<ele>181.36</ele>
<time>2015-04-26T09:42:25Z</time>
</trkpt>
<trkpt lat="35.1044133" lon="32.5217177">
<ele>182.38</ele>
<time>2015-04-26T09:42:31Z</time>
</trkpt>
<trkpt lat="35.1044275" lon="32.5217781">
<ele>182.64</ele>
<time>2015-04-26T09:42:37Z</time>
</trkpt>
<trkpt lat="35.1044291" lon="32.5218352">
<ele>182.92</ele>
<time>2015-04-26T09:42:42Z</time>
</trkpt>
<trkpt lat="35.1044310" lon="32.5219007">
<ele>181.69</ele>
<time>2015-04-26T09:42:54Z</time>
</trkpt>
<trkpt lat="35.1044570" lon="32.5219556">
<ele>182.86</ele>
<time>2015-04-26T09:43:00Z</time>
</trkpt>
<trkpt lat="35.1044809" lon="32.5220114">
<ele>182.92</ele>
<time>2015-04-26T09:43:05Z</time>
</trkpt>
<trkpt lat="35.1044869" lon="32.5220738">
<ele>183.42</ele>
<time>2015-04-26T09:43:10Z</time>
</trkpt>
<trkpt lat="35.1044894" lon="32.5221372">
<ele>186.61</ele>
<time>2015-04-26T09:43:30Z</time>
</trkpt>
<trkpt lat="35.1044934" lon="32.5222014">
<ele>186.73</ele>
<time>2015-04-26T09:43:35Z</time>
</trkpt>
<trkpt lat="35.1045022" lon="32.5222684">
<ele>185.98</ele>
<time>2015-04-26T09:43:40Z</time>
</trkpt>
<trkpt lat="35.1045014" lon="32.5223247">
<ele>186.87</ele>
<time>2015-04-26T09:43:44Z</time>
</trkpt>
<trkpt lat="35.1045087" lon="32.5223892">
<ele>186.74</ele>
<time>2015-04-26T09:43:49Z</time>
</trkpt>
<trkpt lat="35.1045132" lon="32.5224518">
<ele>186.67</ele>
<time>2015-04-26T09:43:54Z</time>
</trkpt>
<trkpt lat="35.1045296" lon="32.5225107">
<ele>186.92</ele>
<time>2015-04-26T09:43:59Z</time>
</trkpt>
<trkpt lat="35.1045437" lon="32.5225704">
<ele>188.48</ele>
<time>2015-04-26T09:44:10Z</time>
</trkpt>
<trkpt lat="35.1045610" lon="32.5226212">
<ele>187.18</ele>
<time>2015-04-26T09:44:16Z</time>
</trkpt>
<trkpt lat="35.1045690" lon="32.5226762">
<ele>189.66</ele>
<time>2015-04-26T09:44:26Z</time>
</trkpt>
<trkpt lat="35.1045763" lon="32.5227329">
<ele>192.73</ele>
<time>2015-04-26T09:44:32Z</time>
</trkpt>
<trkpt lat="35.1045768" lon="32.5227916">
<ele>195.61</ele>
<time>2015-04-26T09:44:55Z</time>
</trkpt>
<trkpt lat="35.1045868" lon="32.5228474">
<ele>195.58</ele>
<time>2015-04-26T09:45:16Z</time>
</trkpt>
<trkpt lat="35.1046071" lon="32.5228997">
<ele>197.41</ele>
<time>2015-04-26T09:45:23Z</time>
</trkpt>
<trkpt lat="35.1046310" lon="32.5229502">
<ele>199.34</ele>
<time>2015-04-26T09:45:31Z</time>
</trkpt>
<trkpt lat="35.1046567" lon="32.5229982">
<ele>198.83</ele>
<time>2015-04-26T09:45:38Z</time>
</trkpt>
<trkpt lat="35.1046770" lon="32.5230495">
<ele>200.60</ele>
<time>2015-04-26T09:45:46Z</time>
</trkpt>
<trkpt lat="35.1047004" lon="32.5231038">
<ele>200.33</ele>
<time>2015-04-26T09:45:55Z</time>
</trkpt>
<trkpt lat="35.1047067" lon="32.5231587">
<ele>202.66</ele>
<time>2015-04-26T09:46:05Z</time>
</trkpt>
<trkpt lat="35.1047401" lon="32.5232034">
<ele>203.17</ele>
<time>2015-04-26T09:46:12Z</time>
</trkpt>
<trkpt lat="35.1047559" lon="32.5232620">
<ele>205.99</ele>
<time>2015-04-26T09:46:18Z</time>
</trkpt>
<trkpt lat="35.1047901" lon="32.5233023">
<ele>204.82</ele>
<time>2015-04-26T09:46:38Z</time>
</trkpt>
<trkpt lat="35.1048252" lon="32.5233455">
<ele>205.67</ele>
<time>2015-04-26T09:46:45Z</time>
</trkpt>
<trkpt lat="35.1048589" lon="32.5233830">
<ele>205.36</ele>
<time>2015-04-26T09:46:51Z</time>
</trkpt>
<trkpt lat="35.1048827" lon="32.5234307">
<ele>205.46</ele>
<time>2015-04-26T09:46:57Z</time>
</trkpt>
<trkpt lat="35.1048996" lon="32.5234864">
<ele>208.16</ele>
<time>2015-04-26T09:47:04Z</time>
</trkpt>
<trkpt lat="35.1049237" lon="32.5235441">
<ele>211.15</ele>
<time>2015-04-26T09:47:11Z</time>
</trkpt>
<trkpt lat="35.1049402" lon="32.5236037">
<ele>211.66</ele>
<time>2015-04-26T09:47:17Z</time>
</trkpt>
<trkpt lat="35.1049392" lon="32.5236636">
<ele>208.20</ele>
<time>2015-04-26T09:47:39Z</time>
</trkpt>
<trkpt lat="35.1049310" lon="32.5237256">
<ele>207.04</ele>
<time>2015-04-26T09:47:45Z</time>
</trkpt>
<trkpt lat="35.1049769" lon="32.5237196">
<ele>208.36</ele>
<time>2015-04-26T09:49:36Z</time>
</trkpt>
<trkpt lat="35.1050194" lon="32.5236796">
<ele>208.90</ele>
<time>2015-04-26T09:51:13Z</time>
</trkpt>
<trkpt lat="35.1050685" lon="32.5236487">
<ele>207.67</ele>
<time>2015-04-26T09:51:17Z</time>
</trkpt>
<trkpt lat="35.1051256" lon="32.5236250">
<ele>206.27</ele>
<time>2015-04-26T09:51:20Z</time>
</trkpt>
<trkpt lat="35.1051818" lon="32.5236011">
<ele>204.47</ele>
<time>2015-04-26T09:51:23Z</time>
</trkpt>
<trkpt lat="35.1052363" lon="32.5235810">
<ele>205.62</ele>
<time>2015-04-26T09:51:26Z</time>
</trkpt>
<trkpt lat="35.1052923" lon="32.5235721">
<ele>204.76</ele>
<time>2015-04-26T09:51:29Z</time>
</trkpt>
<trkpt lat="35.1053518" lon="32.5235568">
<ele>204.03</ele>
<time>2015-04-26T09:51:32Z</time>
</trkpt>
<trkpt lat="35.1054002" lon="32.5235345">
<ele>203.20</ele>
<time>2015-04-26T09:51:34Z</time>
</trkpt>
<trkpt lat="35.1054533" lon="32.5234968">
<ele>203.74</ele>
<time>2015-04-26T09:51:36Z</time>
</trkpt>
<trkpt lat="35.1054988" lon="32.5234475">
<ele>203.88</ele>
<time>2015-04-26T09:51:38Z</time>
</trkpt>
<trkpt lat="35.1055406" lon="32.5233946">
<ele>203.16</ele>
<time>2015-04-26T09:51:40Z</time>
</trkpt>
<trkpt lat="35.1055792" lon="32.5233359">
<ele>201.73</ele>
<time>2015-04-26T09:51:42Z</time>
</trkpt>
<trkpt lat="35.1056152" lon="32.5232743">
<ele>201.88</ele>
<time>2015-04-26T09:51:44Z</time>
</trkpt>
<trkpt lat="35.1056514" lon="32.5232029">
<ele>200.66</ele>
<time>2015-04-26T09:51:46Z</time>
</trkpt>
<trkpt lat="35.1056894" lon="32.5231229">
<ele>199.11</ele>
<time>2015-04-26T09:51:48Z</time>
</trkpt>
<trkpt lat="35.1057301" lon="32.5230422">
<ele>196.97</ele>
<time>2015-04-26T09:51:50Z</time>
</trkpt>
<trkpt lat="35.1057846" lon="32.5229213">
<ele>195.69</ele>
<time>2015-04-26T09:51:52Z</time>
</trkpt>
<trkpt lat="35.1058065" lon="32.5228672">
<ele>194.81</ele>
<time>2015-04-26T09:51:53Z</time>
</trkpt>
<trkpt lat="35.1058330" lon="32.5228018">
<ele>194.37</ele>
<time>2015-04-26T09:51:54Z</time>
</trkpt>
<trkpt lat="35.1058540" lon="32.5227342">
<ele>193.65</ele>
<time>2015-04-26T09:51:55Z</time>
</trkpt>
<trkpt lat="35.1058744" lon="32.5226740">
<ele>193.29</ele>
<time>2015-04-26T09:51:56Z</time>
</trkpt>
<trkpt lat="35.1059027" lon="32.5225846">
<ele>192.27</ele>
<time>2015-04-26T09:51:58Z</time>
</trkpt>
<trkpt lat="35.1059282" lon="32.5225077">
<ele>191.26</ele>
<time>2015-04-26T09:52:00Z</time>
</trkpt>
<trkpt lat="35.1059452" lon="32.5224490">
<ele>190.51</ele>
<time>2015-04-26T09:52:02Z</time>
</trkpt>
<trkpt lat="35.1059648" lon="32.5223890">
<ele>190.07</ele>
<time>2015-04-26T09:52:04Z</time>
</trkpt>
<trkpt lat="35.1059868" lon="32.5223244">
<ele>189.46</ele>
<time>2015-04-26T09:52:06Z</time>
</trkpt>
<trkpt lat="35.1060048" lon="32.5222518">
<ele>188.31</ele>
<time>2015-04-26T09:52:08Z</time>
</trkpt>
<trkpt lat="35.1060199" lon="32.5221862">
<ele>187.27</ele>
<time>2015-04-26T09:52:10Z</time>
</trkpt>
<trkpt lat="35.1060367" lon="32.5221192">
<ele>186.22</ele>
<time>2015-04-26T09:52:13Z</time>
</trkpt>
<trkpt lat="35.1060420" lon="32.5220640">
<ele>186.34</ele>
<time>2015-04-26T09:52:16Z</time>
</trkpt>
<trkpt lat="35.1060432" lon="32.5220057">
<ele>186.73</ele>
<time>2015-04-26T09:52:19Z</time>
</trkpt>
<trkpt lat="35.1060490" lon="32.5219361">
<ele>186.15</ele>
<time>2015-04-26T09:52:22Z</time>
</trkpt>
<trkpt lat="35.1060705" lon="32.5218698">
<ele>186.08</ele>
<time>2015-04-26T09:52:25Z</time>
</trkpt>
<trkpt lat="35.1061124" lon="32.5218062">
<ele>185.19</ele>
<time>2015-04-26T09:52:28Z</time>
</trkpt>
<trkpt lat="35.1061456" lon="32.5217555">
<ele>184.24</ele>
<time>2015-04-26T09:52:30Z</time>
</trkpt>
<trkpt lat="35.1061788" lon="32.5216888">
<ele>183.50</ele>
<time>2015-04-26T09:52:32Z</time>
</trkpt>
<trkpt lat="35.1062030" lon="32.5216083">
<ele>181.82</ele>
<time>2015-04-26T09:52:34Z</time>
</trkpt>
<trkpt lat="35.1062193" lon="32.5215164">
<ele>181.15</ele>
<time>2015-04-26T09:52:36Z</time>
</trkpt>
<trkpt lat="35.1062321" lon="32.5214247">
<ele>181.73</ele>
<time>2015-04-26T09:52:38Z</time>
</trkpt>
<trkpt lat="35.1062404" lon="32.5213513">
<ele>182.13</ele>
<time>2015-04-26T09:52:40Z</time>
</trkpt>
<trkpt lat="35.1062393" lon="32.5212891">
<ele>179.07</ele>
<time>2015-04-26T09:53:20Z</time>
</trkpt>
<trkpt lat="35.1062279" lon="32.5212354">
<ele>181.93</ele>
<time>2015-04-26T09:53:48Z</time>
</trkpt>
<trkpt lat="35.1062391" lon="32.5211820">
<ele>179.93</ele>
<time>2015-04-26T09:54:04Z</time>
</trkpt>
<trkpt lat="35.1062213" lon="32.5211281">
<ele>176.68</ele>
<time>2015-04-26T09:54:22Z</time>
</trkpt>
<trkpt lat="35.1061855" lon="32.5210845">
<ele>175.90</ele>
<time>2015-04-26T09:54:30Z</time>
</trkpt>
<trkpt lat="35.1061606" lon="32.5210366">
<ele>174.05</ele>
<time>2015-04-26T09:54:39Z</time>
</trkpt>
<trkpt lat="35.1061246" lon="32.5209950">
<ele>173.68</ele>
<time>2015-04-26T09:54:46Z</time>
</trkpt>
<trkpt lat="35.1060817" lon="32.5209626">
<ele>173.11</ele>
<time>2015-04-26T09:54:52Z</time>
</trkpt>
<trkpt lat="35.1060572" lon="32.5209144">
<ele>169.99</ele>
<time>2015-04-26T09:55:06Z</time>
</trkpt>
<trkpt lat="35.1060297" lon="32.5208668">
<ele>166.21</ele>
<time>2015-04-26T09:55:11Z</time>
</trkpt>
<trkpt lat="35.1059994" lon="32.5208200">
<ele>165.88</ele>
<time>2015-04-26T09:55:15Z</time>
</trkpt>
<trkpt lat="35.1059606" lon="32.5207793">
<ele>165.49</ele>
<time>2015-04-26T09:55:20Z</time>
</trkpt>
<trkpt lat="35.1059279" lon="32.5207375">
<ele>165.93</ele>
<time>2015-04-26T09:55:36Z</time>
</trkpt>
<trkpt lat="35.1059011" lon="32.5206897">
<ele>164.94</ele>
<time>2015-04-26T09:55:43Z</time>
</trkpt>
<trkpt lat="35.1059090" lon="32.5206308">
<ele>162.56</ele>
<time>2015-04-26T09:55:50Z</time>
</trkpt>
<trkpt lat="35.1058807" lon="32.5205825">
<ele>160.00</ele>
<time>2015-04-26T09:56:10Z</time>
</trkpt>
<trkpt lat="35.1058813" lon="32.5205217">
<ele>157.99</ele>
<time>2015-04-26T09:56:19Z</time>
</trkpt>
<trkpt lat="35.1058681" lon="32.5204687">
<ele>157.18</ele>
<time>2015-04-26T09:57:04Z</time>
</trkpt>
<trkpt lat="35.1058493" lon="32.5204180">
<ele>156.43</ele>
<time>2015-04-26T09:57:09Z</time>
</trkpt>
<trkpt lat="35.1058376" lon="32.5203574">
<ele>155.31</ele>
<time>2015-04-26T09:57:15Z</time>
</trkpt>
<trkpt lat="35.1058269" lon="32.5202969">
<ele>155.12</ele>
<time>2015-04-26T09:57:21Z</time>
</trkpt>
<trkpt lat="35.1058165" lon="32.5202359">
<ele>154.18</ele>
<time>2015-04-26T09:57:28Z</time>
</trkpt>
<trkpt lat="35.1058032" lon="32.5201771">
<ele>152.49</ele>
<time>2015-04-26T09:57:34Z</time>
</trkpt>
<trkpt lat="35.1057749" lon="32.5201309">
<ele>152.37</ele>
<time>2015-04-26T09:57:40Z</time>
</trkpt>
<trkpt lat="35.1057734" lon="32.5200644">
<ele>150.24</ele>
<time>2015-04-26T09:57:50Z</time>
</trkpt>
<trkpt lat="35.1057532" lon="32.5200077">
<ele>150.00</ele>
<time>2015-04-26T09:57:58Z</time>
</trkpt>
<trkpt lat="35.1057461" lon="32.5199530">
<ele>149.43</ele>
<time>2015-04-26T09:58:10Z</time>
</trkpt>
<trkpt lat="35.1057454" lon="32.5198759">
<ele>146.83</ele>
<time>2015-04-26T09:58:14Z</time>
</trkpt>
<trkpt lat="35.1057555" lon="32.5198106">
<ele>144.40</ele>
<time>2015-04-26T09:58:16Z</time>
</trkpt>
<trkpt lat="35.1057662" lon="32.5197335">
<ele>142.04</ele>
<time>2015-04-26T09:58:18Z</time>
</trkpt>
<trkpt lat="35.1057715" lon="32.5196596">
<ele>140.45</ele>
<time>2015-04-26T09:58:20Z</time>
</trkpt>
<trkpt lat="35.1057754" lon="32.5195972">
<ele>140.06</ele>
<time>2015-04-26T09:58:22Z</time>
</trkpt>
<trkpt lat="35.1057823" lon="32.5195357">
<ele>139.19</ele>
<time>2015-04-26T09:58:25Z</time>
</trkpt>
<trkpt lat="35.1057906" lon="32.5194647">
<ele>136.63</ele>
<time>2015-04-26T09:58:29Z</time>
</trkpt>
<trkpt lat="35.1057937" lon="32.5193952">
<ele>134.26</ele>
<time>2015-04-26T09:58:32Z</time>
</trkpt>
<trkpt lat="35.1057906" lon="32.5193186">
<ele>132.34</ele>
<time>2015-04-26T09:58:35Z</time>
</trkpt>
<trkpt lat="35.1057771" lon="32.5192650">
<ele>130.06</ele>
<time>2015-04-26T09:58:46Z</time>
</trkpt>
<trkpt lat="35.1057627" lon="32.5192123">
<ele>127.52</ele>
<time>2015-04-26T09:58:51Z</time>
</trkpt>
<trkpt lat="35.1057516" lon="32.5191548">
<ele>126.19</ele>
<time>2015-04-26T09:58:56Z</time>
</trkpt>
<trkpt lat="35.1057428" lon="32.5190968">
<ele>127.31</ele>
<time>2015-04-26T09:59:01Z</time>
</trkpt>
<trkpt lat="35.1057256" lon="32.5190428">
<ele>126.94</ele>
<time>2015-04-26T09:59:06Z</time>
</trkpt>
<trkpt lat="35.1057060" lon="32.5189922">
<ele>129.85</ele>
<time>2015-04-26T09:59:15Z</time>
</trkpt>
<trkpt lat="35.1056994" lon="32.5189292">
<ele>126.03</ele>
<time>2015-04-26T09:59:23Z</time>
</trkpt>
<trkpt lat="35.1057166" lon="32.5188706">
<ele>123.27</ele>
<time>2015-04-26T09:59:29Z</time>
</trkpt>
<trkpt lat="35.1057219" lon="32.5188140">
<ele>121.92</ele>
<time>2015-04-26T09:59:44Z</time>
</trkpt>
<trkpt lat="35.1057414" lon="32.5187616">
<ele>120.99</ele>
<time>2015-04-26T09:59:55Z</time>
</trkpt>
<trkpt lat="35.1057415" lon="32.5187065">
<ele>120.05</ele>
<time>2015-04-26T10:00:09Z</time>
</trkpt>
<trkpt lat="35.1057563" lon="32.5186503">
<ele>117.55</ele>
<time>2015-04-26T10:00:34Z</time>
</trkpt>
<trkpt lat="35.1057914" lon="32.5185812">
<ele>114.99</ele>
<time>2015-04-26T10:00:56Z</time>
</trkpt>
<trkpt lat="35.1058332" lon="32.5184694">
<ele>112.44</ele>
<time>2015-04-26T10:00:58Z</time>
</trkpt>
<trkpt lat="35.1058545" lon="32.5184131">
<ele>111.18</ele>
<time>2015-04-26T10:00:59Z</time>
</trkpt>
<trkpt lat="35.1058922" lon="32.5183140">
<ele>109.55</ele>
<time>2015-04-26T10:01:00Z</time>
</trkpt>
<trkpt lat="35.1059273" lon="32.5182269">
<ele>107.74</ele>
<time>2015-04-26T10:01:01Z</time>
</trkpt>
<trkpt lat="35.1059600" lon="32.5181346">
<ele>105.83</ele>
<time>2015-04-26T10:01:02Z</time>
</trkpt>
<trkpt lat="35.1059923" lon="32.5180431">
<ele>103.88</ele>
<time>2015-04-26T10:01:03Z</time>
</trkpt>
<trkpt lat="35.1060224" lon="32.5179278">
<ele>101.90</ele>
<time>2015-04-26T10:01:04Z</time>
</trkpt>
<trkpt lat="35.1060562" lon="32.5178229">
<ele>100.41</ele>
<time>2015-04-26T10:01:05Z</time>
</trkpt>
<trkpt lat="35.1060818" lon="32.5177308">
<ele>98.67</ele>
<time>2015-04-26T10:01:06Z</time>
</trkpt>
<trkpt lat="35.1061037" lon="32.5176482">
<ele>97.30</ele>
<time>2015-04-26T10:01:07Z</time>
</trkpt>
<trkpt lat="35.1061339" lon="32.5175770">
<ele>96.11</ele>
<time>2015-04-26T10:01:08Z</time>
</trkpt>
<trkpt lat="35.1061653" lon="32.5175034">
<ele>95.52</ele>
<time>2015-04-26T10:01:09Z</time>
</trkpt>
<trkpt lat="35.1061817" lon="32.5174328">
<ele>94.72</ele>
<time>2015-04-26T10:01:10Z</time>
</trkpt>
<trkpt lat="35.1061967" lon="32.5173586">
<ele>93.82</ele>
<time>2015-04-26T10:01:11Z</time>
</trkpt>
<trkpt lat="35.1062038" lon="32.5172971">
<ele>92.87</ele>
<time>2015-04-26T10:01:12Z</time>
</trkpt>
<trkpt lat="35.1062243" lon="32.5172246">
<ele>92.40</ele>
<time>2015-04-26T10:01:13Z</time>
</trkpt>
<trkpt lat="35.1062522" lon="32.5171550">
<ele>92.16</ele>
<time>2015-04-26T10:01:14Z</time>
</trkpt>
<trkpt lat="35.1062663" lon="32.5170855">
<ele>91.54</ele>
<time>2015-04-26T10:01:15Z</time>
</trkpt>
<trkpt lat="35.1062835" lon="32.5170287">
<ele>90.73</ele>
<time>2015-04-26T10:01:16Z</time>
</trkpt>
<trkpt lat="35.1063105" lon="32.5169604">
<ele>89.33</ele>
<time>2015-04-26T10:01:17Z</time>
</trkpt>
<trkpt lat="35.1063245" lon="32.5169005">
<ele>88.63</ele>
<time>2015-04-26T10:01:18Z</time>
</trkpt>
<trkpt lat="35.1063432" lon="32.5168150">
<ele>86.85</ele>
<time>2015-04-26T10:01:20Z</time>
</trkpt>
<trkpt lat="35.1063589" lon="32.5167425">
<ele>86.16</ele>
<time>2015-04-26T10:01:22Z</time>
</trkpt>
<trkpt lat="35.1063901" lon="32.5166766">
<ele>84.73</ele>
<time>2015-04-26T10:01:24Z</time>
</trkpt>
<trkpt lat="35.1064248" lon="32.5166078">
<ele>83.13</ele>
<time>2015-04-26T10:01:26Z</time>
</trkpt>
<trkpt lat="35.1064382" lon="32.5165474">
<ele>82.23</ele>
<time>2015-04-26T10:01:28Z</time>
</trkpt>
<trkpt lat="35.1064690" lon="32.5164750">
<ele>81.21</ele>
<time>2015-04-26T10:01:31Z</time>
</trkpt>
<trkpt lat="35.1065000" lon="32.5164144">
<ele>79.59</ele>
<time>2015-04-26T10:01:34Z</time>
</trkpt>
<trkpt lat="35.1065316" lon="32.5163550">
<ele>78.51</ele>
<time>2015-04-26T10:01:37Z</time>
</trkpt>
<trkpt lat="35.1065696" lon="32.5162937">
<ele>76.37</ele>
<time>2015-04-26T10:01:40Z</time>
</trkpt>
<trkpt lat="35.1066076" lon="32.5162455">
<ele>74.61</ele>
<time>2015-04-26T10:01:43Z</time>
</trkpt>
<trkpt lat="35.1066498" lon="32.5162079">
<ele>73.26</ele>
<time>2015-04-26T10:01:46Z</time>
</trkpt>
<trkpt lat="35.1066546" lon="32.5161452">
<ele>72.97</ele>
<time>2015-04-26T10:01:49Z</time>
</trkpt>
<trkpt lat="35.1066338" lon="32.5160856">
<ele>73.43</ele>
<time>2015-04-26T10:01:52Z</time>
</trkpt>
<trkpt lat="35.1065884" lon="32.5160490">
<ele>73.05</ele>
<time>2015-04-26T10:02:26Z</time>
</trkpt>
<trkpt lat="35.1065369" lon="32.5159964">
<ele>71.32</ele>
<time>2015-04-26T10:02:29Z</time>
</trkpt>
<trkpt lat="35.1064914" lon="32.5159692">
<ele>70.77</ele>
<time>2015-04-26T10:02:31Z</time>
</trkpt>
<trkpt lat="35.1064341" lon="32.5159575">
<ele>70.14</ele>
<time>2015-04-26T10:02:33Z</time>
</trkpt>
<trkpt lat="35.1063616" lon="32.5159724">
<ele>69.98</ele>
<time>2015-04-26T10:02:35Z</time>
</trkpt>
<trkpt lat="35.1062866" lon="32.5160093">
<ele>69.19</ele>
<time>2015-04-26T10:02:37Z</time>
</trkpt>
<trkpt lat="35.1062167" lon="32.5160503">
<ele>68.49</ele>
<time>2015-04-26T10:02:39Z</time>
</trkpt>
<trkpt lat="35.1061437" lon="32.5160598">
<ele>68.07</ele>
<time>2015-04-26T10:02:41Z</time>
</trkpt>
<trkpt lat="35.1060827" lon="32.5160204">
<ele>67.21</ele>
<time>2015-04-26T10:02:43Z</time>
</trkpt>
<trkpt lat="35.1060427" lon="32.5159528">
<ele>66.00</ele>
<time>2015-04-26T10:02:45Z</time>
</trkpt>
<trkpt lat="35.1060327" lon="32.5158710">
<ele>65.69</ele>
<time>2015-04-26T10:02:47Z</time>
</trkpt>
<trkpt lat="35.1060404" lon="32.5157958">
<ele>65.12</ele>
<time>2015-04-26T10:02:49Z</time>
</trkpt>
<trkpt lat="35.1060527" lon="32.5157350">
<ele>64.97</ele>
<time>2015-04-26T10:02:51Z</time>
</trkpt>
<trkpt lat="35.1060685" lon="32.5156791">
<ele>63.24</ele>
<time>2015-04-26T10:02:55Z</time>
</trkpt>
<trkpt lat="35.1060850" lon="32.5156135">
<ele>63.82</ele>
<time>2015-04-26T10:02:59Z</time>
</trkpt>
<trkpt lat="35.1060955" lon="32.5155533">
<ele>63.54</ele>
<time>2015-04-26T10:03:02Z</time>
</trkpt>
<trkpt lat="35.1061119" lon="32.5154781">
<ele>63.00</ele>
<time>2015-04-26T10:03:05Z</time>
</trkpt>
<trkpt lat="35.1061140" lon="32.5154181">
<ele>63.44</ele>
<time>2015-04-26T10:03:07Z</time>
</trkpt>
<trkpt lat="35.1061109" lon="32.5153616">
<ele>64.30</ele>
<time>2015-04-26T10:03:09Z</time>
</trkpt>
<trkpt lat="35.1060925" lon="32.5152851">
<ele>64.85</ele>
<time>2015-04-26T10:03:12Z</time>
</trkpt>
<trkpt lat="35.1060611" lon="32.5152227">
<ele>65.79</ele>
<time>2015-04-26T10:03:15Z</time>
</trkpt>
<trkpt lat="35.1060240" lon="32.5151691">
<ele>66.78</ele>
<time>2015-04-26T10:03:18Z</time>
</trkpt>
<trkpt lat="35.1059950" lon="32.5151189">
<ele>66.78</ele>
<time>2015-04-26T10:03:21Z</time>
</trkpt>
<trkpt lat="35.1059496" lon="32.5150792">
<ele>66.03</ele>
<time>2015-04-26T10:03:24Z</time>
</trkpt>
<trkpt lat="35.1058984" lon="32.5150530">
<ele>66.45</ele>
<time>2015-04-26T10:03:26Z</time>
</trkpt>
<trkpt lat="35.1058182" lon="32.5150133">
<ele>66.06</ele>
<time>2015-04-26T10:03:28Z</time>
</trkpt>
<trkpt lat="35.1057504" lon="32.5149875">
<ele>65.99</ele>
<time>2015-04-26T10:03:29Z</time>
</trkpt>
<trkpt lat="35.1057057" lon="32.5149600">
<ele>65.96</ele>
<time>2015-04-26T10:03:30Z</time>
</trkpt>
<trkpt lat="35.1056591" lon="32.5149392">
<ele>65.44</ele>
<time>2015-04-26T10:03:31Z</time>
</trkpt>
<trkpt lat="35.1056164" lon="32.5149128">
<ele>65.18</ele>
<time>2015-04-26T10:03:32Z</time>
</trkpt>
<trkpt lat="35.1055704" lon="32.5148937">
<ele>65.55</ele>
<time>2015-04-26T10:03:33Z</time>
</trkpt>
<trkpt lat="35.1055246" lon="32.5148672">
<ele>65.24</ele>
<time>2015-04-26T10:03:34Z</time>
</trkpt>
<trkpt lat="35.1054806" lon="32.5148422">
<ele>65.08</ele>
<time>2015-04-26T10:03:35Z</time>
</trkpt>
<trkpt lat="35.1054027" lon="32.5148070">
<ele>64.96</ele>
<time>2015-04-26T10:03:37Z</time>
</trkpt>
<trkpt lat="35.1053274" lon="32.5147637">
<ele>64.18</ele>
<time>2015-04-26T10:03:39Z</time>
</trkpt>
<trkpt lat="35.1052546" lon="32.5147345">
<ele>63.99</ele>
<time>2015-04-26T10:03:41Z</time>
</trkpt>
<trkpt lat="35.1051953" lon="32.5147100">
<ele>64.69</ele>
<time>2015-04-26T10:03:43Z</time>
</trkpt>
<trkpt lat="35.1051334" lon="32.5146689">
<ele>65.37</ele>
<time>2015-04-26T10:03:45Z</time>
</trkpt>
<trkpt lat="35.1050678" lon="32.5146195">
<ele>65.79</ele>
<time>2015-04-26T10:03:47Z</time>
</trkpt>
<trkpt lat="35.1050067" lon="32.5145668">
<ele>65.89</ele>
<time>2015-04-26T10:03:49Z</time>
</trkpt>
<trkpt lat="35.1049525" lon="32.5145088">
<ele>65.92</ele>
<time>2015-04-26T10:03:51Z</time>
</trkpt>
<trkpt lat="35.1049024" lon="32.5144484">
<ele>65.17</ele>
<time>2015-04-26T10:03:53Z</time>
</trkpt>
<trkpt lat="35.1048532" lon="32.5143895">
<ele>64.99</ele>
<time>2015-04-26T10:03:55Z</time>
</trkpt>
<trkpt lat="35.1048011" lon="32.5143357">
<ele>65.44</ele>
<time>2015-04-26T10:03:57Z</time>
</trkpt>
<trkpt lat="35.1047484" lon="32.5142838">
<ele>65.80</ele>
<time>2015-04-26T10:03:59Z</time>
</trkpt>
<trkpt lat="35.1047022" lon="32.5142308">
<ele>65.89</ele>
<time>2015-04-26T10:04:01Z</time>
</trkpt>
<trkpt lat="35.1046543" lon="32.5141848">
<ele>65.42</ele>
<time>2015-04-26T10:04:03Z</time>
</trkpt>
<trkpt lat="35.1046021" lon="32.5141525">
<ele>65.80</ele>
<time>2015-04-26T10:04:05Z</time>
</trkpt>
<trkpt lat="35.1045581" lon="32.5141266">
<ele>65.89</ele>
<time>2015-04-26T10:04:07Z</time>
</trkpt>
<trkpt lat="35.1045027" lon="32.5141098">
<ele>65.92</ele>
<time>2015-04-26T10:04:10Z</time>
</trkpt>
<trkpt lat="35.1044427" lon="32.5141001">
<ele>65.92</ele>
<time>2015-04-26T10:04:13Z</time>
</trkpt>
<trkpt lat="35.1043890" lon="32.5140896">
<ele>65.92</ele>
<time>2015-04-26T10:04:16Z</time>
</trkpt>
<trkpt lat="35.1043529" lon="32.5140568">
<ele>65.67</ele>
<time>2015-04-26T10:04:19Z</time>
</trkpt>
<trkpt lat="35.1043894" lon="32.5140054">
<ele>64.27</ele>
<time>2015-04-26T10:04:22Z</time>
</trkpt>
<trkpt lat="35.1044412" lon="32.5139900">
<ele>63.76</ele>
<time>2015-04-26T10:04:24Z</time>
</trkpt>
<trkpt lat="35.1045067" lon="32.5139920">
<ele>62.63</ele>
<time>2015-04-26T10:04:26Z</time>
</trkpt>
<trkpt lat="35.1045985" lon="32.5140032">
<ele>62.10</ele>
<time>2015-04-26T10:04:28Z</time>
</trkpt>
<trkpt lat="35.1046825" lon="32.5140098">
<ele>61.51</ele>
<time>2015-04-26T10:04:29Z</time>
</trkpt>
<trkpt lat="35.1047405" lon="32.5140091">
<ele>61.22</ele>
<time>2015-04-26T10:04:30Z</time>
</trkpt>
<trkpt lat="35.1048038" lon="32.5140079">
<ele>60.57</ele>
<time>2015-04-26T10:04:31Z</time>
</trkpt>
<trkpt lat="35.1048685" lon="32.5140036">
<ele>60.25</ele>
<time>2015-04-26T10:04:32Z</time>
</trkpt>
<trkpt lat="35.1049392" lon="32.5140051">
<ele>59.59</ele>
<time>2015-04-26T10:04:33Z</time>
</trkpt>
<trkpt lat="35.1050137" lon="32.5140113">
<ele>58.76</ele>
<time>2015-04-26T10:04:34Z</time>
</trkpt>
<trkpt lat="35.1050921" lon="32.5140084">
<ele>57.84</ele>
<time>2015-04-26T10:04:35Z</time>
</trkpt>
<trkpt lat="35.1051786" lon="32.5140052">
<ele>57.38</ele>
<time>2015-04-26T10:04:36Z</time>
</trkpt>
<trkpt lat="35.1052588" lon="32.5140037">
<ele>56.65</ele>
<time>2015-04-26T10:04:37Z</time>
</trkpt>
<trkpt lat="35.1053488" lon="32.5140019">
<ele>56.29</ele>
<time>2015-04-26T10:04:38Z</time>
</trkpt>
<trkpt lat="35.1054455" lon="32.5140116">
<ele>55.61</ele>
<time>2015-04-26T10:04:39Z</time>
</trkpt>
<trkpt lat="35.1055367" lon="32.5140112">
<ele>55.77</ele>
<time>2015-04-26T10:04:40Z</time>
</trkpt>
<trkpt lat="35.1056251" lon="32.5140190">
<ele>55.85</ele>
<time>2015-04-26T10:04:41Z</time>
</trkpt>
<trkpt lat="35.1057206" lon="32.5140315">
<ele>55.89</ele>
<time>2015-04-26T10:04:42Z</time>
</trkpt>
<trkpt lat="35.1058112" lon="32.5140279">
<ele>55.91</ele>
<time>2015-04-26T10:04:43Z</time>
</trkpt>
<trkpt lat="35.1058957" lon="32.5140206">
<ele>55.42</ele>
<time>2015-04-26T10:04:44Z</time>
</trkpt>
<trkpt lat="35.1059771" lon="32.5140044">
<ele>55.17</ele>
<time>2015-04-26T10:04:45Z</time>
</trkpt>
<trkpt lat="35.1060503" lon="32.5139813">
<ele>55.05</ele>
<time>2015-04-26T10:04:46Z</time>
</trkpt>
<trkpt lat="35.1061262" lon="32.5139490">
<ele>54.99</ele>
<time>2015-04-26T10:04:47Z</time>
</trkpt>
<trkpt lat="35.1061984" lon="32.5139137">
<ele>54.46</ele>
<time>2015-04-26T10:04:48Z</time>
</trkpt>
<trkpt lat="35.1062646" lon="32.5138804">
<ele>54.19</ele>
<time>2015-04-26T10:04:49Z</time>
</trkpt>
<trkpt lat="35.1063328" lon="32.5138641">
<ele>54.56</ele>
<time>2015-04-26T10:04:50Z</time>
</trkpt>
<trkpt lat="35.1063963" lon="32.5138476">
<ele>54.74</ele>
<time>2015-04-26T10:04:51Z</time>
</trkpt>
<trkpt lat="35.1064670" lon="32.5138370">
<ele>54.33</ele>
<time>2015-04-26T10:04:52Z</time>
</trkpt>
<trkpt lat="35.1065356" lon="32.5138394">
<ele>53.63</ele>
<time>2015-04-26T10:04:53Z</time>
</trkpt>
<trkpt lat="35.1065968" lon="32.5138246">
<ele>53.28</ele>
<time>2015-04-26T10:04:54Z</time>
</trkpt>
<trkpt lat="35.1066585" lon="32.5138158">
<ele>53.10</ele>
<time>2015-04-26T10:04:55Z</time>
</trkpt>
<trkpt lat="35.1067244" lon="32.5138068">
<ele>52.01</ele>
<time>2015-04-26T10:04:56Z</time>
</trkpt>
<trkpt lat="35.1067880" lon="32.5137954">
<ele>51.47</ele>
<time>2015-04-26T10:04:57Z</time>
</trkpt>
<trkpt lat="35.1068590" lon="32.5137997">
<ele>51.20</ele>
<time>2015-04-26T10:04:58Z</time>
</trkpt>
<trkpt lat="35.1069343" lon="32.5138024">
<ele>51.06</ele>
<time>2015-04-26T10:04:59Z</time>
</trkpt>
<trkpt lat="35.1070067" lon="32.5138020">
<ele>50.49</ele>
<time>2015-04-26T10:05:00Z</time>
</trkpt>
<trkpt lat="35.1070828" lon="32.5138144">
<ele>50.21</ele>
<time>2015-04-26T10:05:01Z</time>
</trkpt>
<trkpt lat="35.1071589" lon="32.5138265">
<ele>50.07</ele>
<time>2015-04-26T10:05:02Z</time>
</trkpt>
<trkpt lat="35.1072342" lon="32.5138510">
<ele>49.50</ele>
<time>2015-04-26T10:05:03Z</time>
</trkpt>
<trkpt lat="35.1073150" lon="32.5138828">
<ele>49.21</ele>
<time>2015-04-26T10:05:04Z</time>
</trkpt>
<trkpt lat="35.1073946" lon="32.5139246">
<ele>49.07</ele>
<time>2015-04-26T10:05:05Z</time>
</trkpt>
<trkpt lat="35.1074813" lon="32.5139578">
<ele>48.00</ele>
<time>2015-04-26T10:05:06Z</time>
</trkpt>
<trkpt lat="35.1075623" lon="32.5140097">
<ele>47.46</ele>
<time>2015-04-26T10:05:07Z</time>
</trkpt>
<trkpt lat="35.1076407" lon="32.5140658">
<ele>47.19</ele>
<time>2015-04-26T10:05:08Z</time>
</trkpt>
<trkpt lat="35.1077110" lon="32.5141253">
<ele>46.56</ele>
<time>2015-04-26T10:05:09Z</time>
</trkpt>
<trkpt lat="35.1077817" lon="32.5141847">
<ele>46.24</ele>
<time>2015-04-26T10:05:10Z</time>
</trkpt>
<trkpt lat="35.1078551" lon="32.5142437">
<ele>46.58</ele>
<time>2015-04-26T10:05:11Z</time>
</trkpt>
<trkpt lat="35.1079260" lon="32.5143183">
<ele>46.75</ele>
<time>2015-04-26T10:05:12Z</time>
</trkpt>
<trkpt lat="35.1079936" lon="32.5143825">
<ele>46.84</ele>
<time>2015-04-26T10:05:13Z</time>
</trkpt>
<trkpt lat="35.1080580" lon="32.5144499">
<ele>46.88</ele>
<time>2015-04-26T10:05:14Z</time>
</trkpt>
<trkpt lat="35.1081142" lon="32.5145148">
<ele>46.90</ele>
<time>2015-04-26T10:05:15Z</time>
</trkpt>
<trkpt lat="35.1081736" lon="32.5145662">
<ele>46.91</ele>
<time>2015-04-26T10:05:16Z</time>
</trkpt>
<trkpt lat="35.1082384" lon="32.5146021">
<ele>46.92</ele>
<time>2015-04-26T10:05:17Z</time>
</trkpt>
<trkpt lat="35.1083058" lon="32.5146239">
<ele>46.92</ele>
<time>2015-04-26T10:05:18Z</time>
</trkpt>
<trkpt lat="35.1083699" lon="32.5146385">
<ele>46.92</ele>
<time>2015-04-26T10:05:19Z</time>
</trkpt>
<trkpt lat="35.1084338" lon="32.5146510">
<ele>46.92</ele>
<time>2015-04-26T10:05:20Z</time>
</trkpt>
<trkpt lat="35.1085036" lon="32.5146727">
<ele>46.92</ele>
<time>2015-04-26T10:05:21Z</time>
</trkpt>
<trkpt lat="35.1085770" lon="32.5146888">
<ele>46.92</ele>
<time>2015-04-26T10:05:22Z</time>
</trkpt>
<trkpt lat="35.1086405" lon="32.5147078">
<ele>46.92</ele>
<time>2015-04-26T10:05:23Z</time>
</trkpt>
<trkpt lat="35.1086967" lon="32.5147344">
<ele>46.92</ele>
<time>2015-04-26T10:05:24Z</time>
</trkpt>
<trkpt lat="35.1087715" lon="32.5147731">
<ele>46.92</ele>
<time>2015-04-26T10:05:25Z</time>
</trkpt>
<trkpt lat="35.1088427" lon="32.5148107">
<ele>47.42</ele>
<time>2015-04-26T10:05:26Z</time>
</trkpt>
<trkpt lat="35.1089266" lon="32.5148462">
<ele>47.67</ele>
<time>2015-04-26T10:05:27Z</time>
</trkpt>
<trkpt lat="35.1089997" lon="32.5148865">
<ele>47.80</ele>
<time>2015-04-26T10:05:28Z</time>
</trkpt>
<trkpt lat="35.1090703" lon="32.5149306">
<ele>48.36</ele>
<time>2015-04-26T10:05:29Z</time>
</trkpt>
<trkpt lat="35.1091345" lon="32.5149536">
<ele>47.64</ele>
<time>2015-04-26T10:05:30Z</time>
</trkpt>
<trkpt lat="35.1092132" lon="32.5149640">
<ele>47.28</ele>
<time>2015-04-26T10:05:31Z</time>
</trkpt>
<trkpt lat="35.1092972" lon="32.5149638">
<ele>46.10</ele>
<time>2015-04-26T10:05:32Z</time>
</trkpt>
<trkpt lat="35.1093736" lon="32.5149640">
<ele>45.01</ele>
<time>2015-04-26T10:05:33Z</time>
</trkpt>
<trkpt lat="35.1094472" lon="32.5149521">
<ele>43.97</ele>
<time>2015-04-26T10:05:34Z</time>
</trkpt>
<trkpt lat="35.1095368" lon="32.5149323">
<ele>42.95</ele>
<time>2015-04-26T10:05:35Z</time>
</trkpt>
<trkpt lat="35.1096194" lon="32.5149048">
<ele>42.44</ele>
<time>2015-04-26T10:05:36Z</time>
</trkpt>
<trkpt lat="35.1096879" lon="32.5148659">
<ele>41.68</ele>
<time>2015-04-26T10:05:37Z</time>
</trkpt>
<trkpt lat="35.1097530" lon="32.5148273">
<ele>40.80</ele>
<time>2015-04-26T10:05:38Z</time>
</trkpt>
<trkpt lat="35.1098107" lon="32.5147665">
<ele>40.36</ele>
<time>2015-04-26T10:05:39Z</time>
</trkpt>
<trkpt lat="35.1098560" lon="32.5147120">
<ele>40.14</ele>
<time>2015-04-26T10:05:40Z</time>
</trkpt>
<trkpt lat="35.1098954" lon="32.5146632">
<ele>40.03</ele>
<time>2015-04-26T10:05:41Z</time>
</trkpt>
<trkpt lat="35.1099421" lon="32.5146158">
<ele>40.48</ele>
<time>2015-04-26T10:05:42Z</time>
</trkpt>
<trkpt lat="35.1099835" lon="32.5145838">
<ele>40.70</ele>
<time>2015-04-26T10:05:43Z</time>
</trkpt>
<trkpt lat="35.1100251" lon="32.5145532">
<ele>41.31</ele>
<time>2015-04-26T10:05:44Z</time>
</trkpt>
<trkpt lat="35.1100698" lon="32.5145113">
<ele>41.62</ele>
<time>2015-04-26T10:05:45Z</time>
</trkpt>
<trkpt lat="35.1101146" lon="32.5144804">
<ele>41.27</ele>
<time>2015-04-26T10:05:46Z</time>
</trkpt>
<trkpt lat="35.1101613" lon="32.5144465">
<ele>41.60</ele>
<time>2015-04-26T10:05:47Z</time>
</trkpt>
<trkpt lat="35.1102128" lon="32.5144309">
<ele>42.26</ele>
<time>2015-04-26T10:05:48Z</time>
</trkpt>
<trkpt lat="35.1102649" lon="32.5144203">
<ele>42.59</ele>
<time>2015-04-26T10:05:49Z</time>
</trkpt>
<trkpt lat="35.1103114" lon="32.5144060">
<ele>42.76</ele>
<time>2015-04-26T10:05:50Z</time>
</trkpt>
<trkpt lat="35.1103625" lon="32.5144049">
<ele>43.34</ele>
<time>2015-04-26T10:05:51Z</time>
</trkpt>
<trkpt lat="35.1104157" lon="32.5144063">
<ele>43.63</ele>
<time>2015-04-26T10:05:52Z</time>
</trkpt>
<trkpt lat="35.1104972" lon="32.5143913">
<ele>43.85</ele>
<time>2015-04-26T10:05:54Z</time>
</trkpt>
<trkpt lat="35.1105504" lon="32.5143894">
<ele>43.89</ele>
<time>2015-04-26T10:05:55Z</time>
</trkpt>
<trkpt lat="35.1105976" lon="32.5143719">
<ele>43.41</ele>
<time>2015-04-26T10:05:56Z</time>
</trkpt>
<trkpt lat="35.1106474" lon="32.5143536">
<ele>43.17</ele>
<time>2015-04-26T10:05:57Z</time>
</trkpt>
<trkpt lat="35.1106921" lon="32.5143352">
<ele>43.05</ele>
<time>2015-04-26T10:05:58Z</time>
</trkpt>
<trkpt lat="35.1107436" lon="32.5143240">
<ele>42.99</ele>
<time>2015-04-26T10:05:59Z</time>
</trkpt>
<trkpt lat="35.1107892" lon="32.5143165">
<ele>42.96</ele>
<time>2015-04-26T10:06:00Z</time>
</trkpt>
<trkpt lat="35.1108873" lon="32.5142946">
<ele>42.43</ele>
<time>2015-04-26T10:06:02Z</time>
</trkpt>
<trkpt lat="35.1109430" lon="32.5142971">
<ele>42.18</ele>
<time>2015-04-26T10:06:03Z</time>
</trkpt>
<trkpt lat="35.1109986" lon="32.5142890">
<ele>41.55</ele>
<time>2015-04-26T10:06:04Z</time>
</trkpt>
<trkpt lat="35.1110513" lon="32.5142740">
<ele>41.24</ele>
<time>2015-04-26T10:06:05Z</time>
</trkpt>
<trkpt lat="35.1111058" lon="32.5142632">
<ele>41.08</ele>
<time>2015-04-26T10:06:06Z</time>
</trkpt>
<trkpt lat="35.1111565" lon="32.5142518">
<ele>41.00</ele>
<time>2015-04-26T10:06:07Z</time>
</trkpt>
<trkpt lat="35.1112145" lon="32.5142373">
<ele>40.46</ele>
<time>2015-04-26T10:06:08Z</time>
</trkpt>
<trkpt lat="35.1112743" lon="32.5142208">
<ele>40.69</ele>
<time>2015-04-26T10:06:09Z</time>
</trkpt>
<trkpt lat="35.1113387" lon="32.5142118">
<ele>40.81</ele>
<time>2015-04-26T10:06:10Z</time>
</trkpt>
<trkpt lat="35.1114057" lon="32.5142115">
<ele>40.37</ele>
<time>2015-04-26T10:06:11Z</time>
</trkpt>
<trkpt lat="35.1114602" lon="32.5142022">
<ele>39.65</ele>
<time>2015-04-26T10:06:12Z</time>
</trkpt>
<trkpt lat="35.1115323" lon="32.5141842">
<ele>39.79</ele>
<time>2015-04-26T10:06:13Z</time>
</trkpt>
<trkpt lat="35.1116014" lon="32.5141732">
<ele>39.36</ele>
<time>2015-04-26T10:06:14Z</time>
</trkpt>
<trkpt lat="35.1116719" lon="32.5141636">
<ele>39.14</ele>
<time>2015-04-26T10:06:15Z</time>
</trkpt>
<trkpt lat="35.1117443" lon="32.5141606">
<ele>39.03</ele>
<time>2015-04-26T10:06:16Z</time>
</trkpt>
<trkpt lat="35.1118170" lon="32.5141672">
<ele>39.48</ele>
<time>2015-04-26T10:06:17Z</time>
</trkpt>
<trkpt lat="35.1118844" lon="32.5141779">
<ele>39.20</ele>
<time>2015-04-26T10:06:18Z</time>
</trkpt>
<trkpt lat="35.1119640" lon="32.5142042">
<ele>39.56</ele>
<time>2015-04-26T10:06:19Z</time>
</trkpt>
<trkpt lat="35.1120367" lon="32.5142350">
<ele>39.24</ele>
<time>2015-04-26T10:06:20Z</time>
</trkpt>
<trkpt lat="35.1121003" lon="32.5142656">
<ele>39.58</ele>
<time>2015-04-26T10:06:21Z</time>
</trkpt>
<trkpt lat="35.1121696" lon="32.5143010">
<ele>39.25</ele>
<time>2015-04-26T10:06:22Z</time>
</trkpt>
<trkpt lat="35.1122453" lon="32.5143365">
<ele>39.09</ele>
<time>2015-04-26T10:06:23Z</time>
</trkpt>
<trkpt lat="35.1123155" lon="32.5143739">
<ele>39.01</ele>
<time>2015-04-26T10:06:24Z</time>
</trkpt>
<trkpt lat="35.1123907" lon="32.5144100">
<ele>38.47</ele>
<time>2015-04-26T10:06:25Z</time>
</trkpt>
<trkpt lat="35.1124670" lon="32.5144447">
<ele>38.20</ele>
<time>2015-04-26T10:06:26Z</time>
</trkpt>
<trkpt lat="35.1125459" lon="32.5144808">
<ele>37.56</ele>
<time>2015-04-26T10:06:27Z</time>
</trkpt>
<trkpt lat="35.1126293" lon="32.5145169">
<ele>37.24</ele>
<time>2015-04-26T10:06:28Z</time>
</trkpt>
<trkpt lat="35.1127134" lon="32.5145403">
<ele>37.08</ele>
<time>2015-04-26T10:06:29Z</time>
</trkpt>
<trkpt lat="35.1127990" lon="32.5145595">
<ele>36.50</ele>
<time>2015-04-26T10:06:30Z</time>
</trkpt>
<trkpt lat="35.1128809" lon="32.5145750">
<ele>36.21</ele>
<time>2015-04-26T10:06:31Z</time>
</trkpt>
<trkpt lat="35.1129726" lon="32.5145836">
<ele>35.57</ele>
<time>2015-04-26T10:06:32Z</time>
</trkpt>
<trkpt lat="35.1130559" lon="32.5145975">
<ele>34.75</ele>
<time>2015-04-26T10:06:33Z</time>
</trkpt>
<trkpt lat="35.1131301" lon="32.5145950">
<ele>34.84</ele>
<time>2015-04-26T10:06:34Z</time>
</trkpt>
<trkpt lat="35.1132002" lon="32.5145735">
<ele>33.88</ele>
<time>2015-04-26T10:06:35Z</time>
</trkpt>
<trkpt lat="35.1132675" lon="32.5145280">
<ele>33.40</ele>
<time>2015-04-26T10:06:36Z</time>
</trkpt>
<trkpt lat="35.1133296" lon="32.5144930">
<ele>33.16</ele>
<time>2015-04-26T10:06:37Z</time>
</trkpt>
<trkpt lat="35.1133940" lon="32.5144585">
<ele>32.54</ele>
<time>2015-04-26T10:06:38Z</time>
</trkpt>
<trkpt lat="35.1134543" lon="32.5144158">
<ele>32.23</ele>
<time>2015-04-26T10:06:39Z</time>
</trkpt>
<trkpt lat="35.1135074" lon="32.5143850">
<ele>32.08</ele>
<time>2015-04-26T10:06:40Z</time>
</trkpt>
<trkpt lat="35.1135734" lon="32.5143496">
<ele>32.00</ele>
<time>2015-04-26T10:06:41Z</time>
</trkpt>
<trkpt lat="35.1136379" lon="32.5143081">
<ele>31.96</ele>
<time>2015-04-26T10:06:42Z</time>
</trkpt>
<trkpt lat="35.1136924" lon="32.5142799">
<ele>31.44</ele>
<time>2015-04-26T10:06:43Z</time>
</trkpt>
<trkpt lat="35.1137492" lon="32.5142382">
<ele>31.18</ele>
<time>2015-04-26T10:06:44Z</time>
</trkpt>
<trkpt lat="35.1138122" lon="32.5141980">
<ele>31.05</ele>
<time>2015-04-26T10:06:45Z</time>
</trkpt>
<trkpt lat="35.1138758" lon="32.5141519">
<ele>30.99</ele>
<time>2015-04-26T10:06:46Z</time>
</trkpt>
<trkpt lat="35.1139330" lon="32.5141109">
<ele>30.46</ele>
<time>2015-04-26T10:06:47Z</time>
</trkpt>
<trkpt lat="35.1139867" lon="32.5140678">
<ele>30.19</ele>
<time>2015-04-26T10:06:48Z</time>
</trkpt>
<trkpt lat="35.1140391" lon="32.5140312">
<ele>30.06</ele>
<time>2015-04-26T10:06:49Z</time>
</trkpt>
<trkpt lat="35.1140943" lon="32.5139968">
<ele>29.99</ele>
<time>2015-04-26T10:06:50Z</time>
</trkpt>
<trkpt lat="35.1141380" lon="32.5139571">
<ele>29.46</ele>
<time>2015-04-26T10:06:51Z</time>
</trkpt>
<trkpt lat="35.1141898" lon="32.5139263">
<ele>29.19</ele>
<time>2015-04-26T10:06:52Z</time>
</trkpt>
<trkpt lat="35.1142451" lon="32.5138994">
<ele>28.56</ele>
<time>2015-04-26T10:06:53Z</time>
</trkpt>
<trkpt lat="35.1142962" lon="32.5138729">
<ele>27.74</ele>
<time>2015-04-26T10:06:54Z</time>
</trkpt>
<trkpt lat="35.1143511" lon="32.5138491">
<ele>26.83</ele>
<time>2015-04-26T10:06:55Z</time>
</trkpt>
<trkpt lat="35.1144077" lon="32.5138311">
<ele>26.38</ele>
<time>2015-04-26T10:06:56Z</time>
</trkpt>
<trkpt lat="35.1144709" lon="32.5138125">
<ele>26.15</ele>
<time>2015-04-26T10:06:57Z</time>
</trkpt>
<trkpt lat="35.1145224" lon="32.5137969">
<ele>26.04</ele>
<time>2015-04-26T10:06:58Z</time>
</trkpt>
<trkpt lat="35.1145739" lon="32.5137958">
<ele>25.48</ele>
<time>2015-04-26T10:06:59Z</time>
</trkpt>
<trkpt lat="35.1146513" lon="32.5137892">
<ele>25.81</ele>
<time>2015-04-26T10:07:01Z</time>
</trkpt>
<trkpt lat="35.1146997" lon="32.5137920">
<ele>25.65</ele>
<time>2015-04-26T10:07:03Z</time>
</trkpt>
<trkpt lat="35.1147525" lon="32.5137700">
<ele>25.27</ele>
<time>2015-04-26T10:07:06Z</time>
</trkpt>
<trkpt lat="35.1147897" lon="32.5137383">
<ele>26.20</ele>
<time>2015-04-26T10:07:10Z</time>
</trkpt>
<trkpt lat="35.1148135" lon="32.5137929">
<ele>26.39</ele>
<time>2015-04-26T10:09:26Z</time>
</trkpt>
<trkpt lat="35.1147755" lon="32.5138639">
<ele>26.86</ele>
<time>2015-04-26T10:09:29Z</time>
</trkpt>
<trkpt lat="35.1147588" lon="32.5139278">
<ele>26.16</ele>
<time>2015-04-26T10:09:31Z</time>
</trkpt>
<trkpt lat="35.1147525" lon="32.5139960">
<ele>25.23</ele>
<time>2015-04-26T10:09:33Z</time>
</trkpt>
<trkpt lat="35.1147504" lon="32.5140592">
<ele>25.75</ele>
<time>2015-04-26T10:09:35Z</time>
</trkpt>
<trkpt lat="35.1147374" lon="32.5141325">
<ele>27.28</ele>
<time>2015-04-26T10:09:38Z</time>
</trkpt>
<trkpt lat="35.1147260" lon="32.5141870">
<ele>28.34</ele>
<time>2015-04-26T10:09:41Z</time>
</trkpt>
<trkpt lat="35.1147360" lon="32.5142494">
<ele>28.85</ele>
<time>2015-04-26T10:09:44Z</time>
</trkpt>
<trkpt lat="35.1147510" lon="32.5143310">
<ele>29.67</ele>
<time>2015-04-26T10:09:47Z</time>
</trkpt>
<trkpt lat="35.1147569" lon="32.5143866">
<ele>29.86</ele>
<time>2015-04-26T10:09:49Z</time>
</trkpt>
<trkpt lat="35.1147638" lon="32.5144577">
<ele>30.42</ele>
<time>2015-04-26T10:09:52Z</time>
</trkpt>
<trkpt lat="35.1147685" lon="32.5145209">
<ele>31.24</ele>
<time>2015-04-26T10:09:55Z</time>
</trkpt>
<trkpt lat="35.1147506" lon="32.5145724">
<ele>30.96</ele>
<time>2015-04-26T10:09:58Z</time>
</trkpt>
<trkpt lat="35.1146962" lon="32.5145727">
<ele>30.93</ele>
<time>2015-04-26T10:10:01Z</time>
</trkpt>
<trkpt lat="35.1146719" lon="32.5145126">
<ele>30.55</ele>
<time>2015-04-26T10:10:04Z</time>
</trkpt>
<trkpt lat="35.1146994" lon="32.5144570">
<ele>30.88</ele>
<time>2015-04-26T10:10:07Z</time>
</trkpt>
<trkpt lat="35.1146790" lon="32.5145062">
<ele>31.92</ele>
<time>2015-04-26T10:10:37Z</time>
</trkpt>
<trkpt lat="35.1146909" lon="32.5144488">
<ele>31.92</ele>
<time>2015-04-26T10:10:48Z</time>
</trkpt>
<trkpt lat="35.1147090" lon="32.5145063">
<ele>34.74</ele>
<time>2015-04-26T10:11:12Z</time>
</trkpt>
<trkpt lat="35.1147423" lon="32.5145519">
<ele>31.93</ele>
<time>2015-04-26T10:11:35Z</time>
</trkpt>
<trkpt lat="35.1147643" lon="32.5146054">
<ele>32.71</ele>
<time>2015-04-26T10:11:40Z</time>
</trkpt>
<trkpt lat="35.1148034" lon="32.5146407">
<ele>31.93</ele>
<time>2015-04-26T10:12:00Z</time>
</trkpt>
<trkpt lat="35.1148342" lon="32.5146863">
<ele>33.18</ele>
<time>2015-04-26T10:12:02Z</time>
</trkpt>
<trkpt lat="35.1148658" lon="32.5147415">
<ele>33.74</ele>
<time>2015-04-26T10:12:04Z</time>
</trkpt>
<trkpt lat="35.1148974" lon="32.5147980">
<ele>34.63</ele>
<time>2015-04-26T10:12:06Z</time>
</trkpt>
<trkpt lat="35.1149303" lon="32.5148532">
<ele>34.85</ele>
<time>2015-04-26T10:12:08Z</time>
</trkpt>
<trkpt lat="35.1149607" lon="32.5149062">
<ele>35.66</ele>
<time>2015-04-26T10:12:10Z</time>
</trkpt>
<trkpt lat="35.1149889" lon="32.5149585">
<ele>35.86</ele>
<time>2015-04-26T10:12:12Z</time>
</trkpt>
<trkpt lat="35.1150140" lon="32.5150091">
<ele>35.91</ele>
<time>2015-04-26T10:12:14Z</time>
</trkpt>
<trkpt lat="35.1150421" lon="32.5150657">
<ele>36.67</ele>
<time>2015-04-26T10:12:17Z</time>
</trkpt>
<trkpt lat="35.1150172" lon="32.5151162">
<ele>36.17</ele>
<time>2015-04-26T10:12:30Z</time>
</trkpt>
<trkpt lat="35.1150457" lon="32.5151832">
<ele>34.92</ele>
<time>2015-04-26T10:13:32Z</time>
</trkpt>
<trkpt lat="35.1150520" lon="32.5152457">
<ele>35.80</ele>
<time>2015-04-26T10:13:35Z</time>
</trkpt>
<trkpt lat="35.1150494" lon="32.5153209">
<ele>36.41</ele>
<time>2015-04-26T10:13:38Z</time>
</trkpt>
<trkpt lat="35.1150564" lon="32.5153994">
<ele>36.61</ele>
<time>2015-04-26T10:13:41Z</time>
</trkpt>
<trkpt lat="35.1150593" lon="32.5154787">
<ele>36.39</ele>
<time>2015-04-26T10:13:44Z</time>
</trkpt>
<trkpt lat="35.1150524" lon="32.5155536">
<ele>35.98</ele>
<time>2015-04-26T10:13:47Z</time>
</trkpt>
<trkpt lat="35.1150346" lon="32.5156141">
<ele>35.06</ele>
<time>2015-04-26T10:13:50Z</time>
</trkpt>
<trkpt lat="35.1149967" lon="32.5156698">
<ele>33.68</ele>
<time>2015-04-26T10:13:54Z</time>
</trkpt>
<trkpt lat="35.1149952" lon="32.5157314">
<ele>31.06</ele>
<time>2015-04-26T10:14:11Z</time>
</trkpt>
<trkpt lat="35.1149985" lon="32.5157938">
<ele>31.57</ele>
<time>2015-04-26T10:14:14Z</time>
</trkpt>
<trkpt lat="35.1150110" lon="32.5158550">
<ele>32.34</ele>
<time>2015-04-26T10:14:16Z</time>
</trkpt>
<trkpt lat="35.1150281" lon="32.5159248">
<ele>33.28</ele>
<time>2015-04-26T10:14:18Z</time>
</trkpt>
<trkpt lat="35.1150434" lon="32.5159921">
<ele>34.26</ele>
<time>2015-04-26T10:14:20Z</time>
</trkpt>
<trkpt lat="35.1150659" lon="32.5160548">
<ele>34.01</ele>
<time>2015-04-26T10:14:22Z</time>
</trkpt>
<trkpt lat="35.1150847" lon="32.5161180">
<ele>33.95</ele>
<time>2015-04-26T10:14:24Z</time>
</trkpt>
<trkpt lat="35.1150976" lon="32.5161778">
<ele>35.43</ele>
<time>2015-04-26T10:14:26Z</time>
</trkpt>
<trkpt lat="35.1151071" lon="32.5162326">
<ele>36.55</ele>
<time>2015-04-26T10:14:28Z</time>
</trkpt>
<trkpt lat="35.1151230" lon="32.5163034">
<ele>37.13</ele>
<time>2015-04-26T10:14:31Z</time>
</trkpt>
<trkpt lat="35.1151469" lon="32.5163712">
<ele>37.45</ele>
<time>2015-04-26T10:14:34Z</time>
</trkpt>
<trkpt lat="35.1151660" lon="32.5164429">
<ele>38.37</ele>
<time>2015-04-26T10:14:37Z</time>
</trkpt>
<trkpt lat="35.1151818" lon="32.5165171">
<ele>39.73</ele>
<time>2015-04-26T10:14:40Z</time>
</trkpt>
<trkpt lat="35.1151990" lon="32.5165918">
<ele>39.78</ele>
<time>2015-04-26T10:14:43Z</time>
</trkpt>
<trkpt lat="35.1152109" lon="32.5166650">
<ele>39.16</ele>
<time>2015-04-26T10:14:46Z</time>
</trkpt>
<trkpt lat="35.1152327" lon="32.5167365">
<ele>39.83</ele>
<time>2015-04-26T10:14:49Z</time>
</trkpt>
<trkpt lat="35.1152644" lon="32.5168051">
<ele>40.04</ele>
<time>2015-04-26T10:14:52Z</time>
</trkpt>
<trkpt lat="35.1152904" lon="32.5168731">
<ele>39.94</ele>
<time>2015-04-26T10:14:55Z</time>
</trkpt>
<trkpt lat="35.1153137" lon="32.5169384">
<ele>40.30</ele>
<time>2015-04-26T10:14:58Z</time>
</trkpt>
<trkpt lat="35.1153374" lon="32.5170043">
<ele>39.47</ele>
<time>2015-04-26T10:15:01Z</time>
</trkpt>
<trkpt lat="35.1153493" lon="32.5170730">
<ele>41.49</ele>
<time>2015-04-26T10:15:04Z</time>
</trkpt>
<trkpt lat="35.1153641" lon="32.5171349">
<ele>42.50</ele>
<time>2015-04-26T10:15:07Z</time>
</trkpt>
<trkpt lat="35.1153766" lon="32.5172025">
<ele>41.96</ele>
<time>2015-04-26T10:15:11Z</time>
</trkpt>
<trkpt lat="35.1153767" lon="32.5172590">
<ele>41.93</ele>
<time>2015-04-26T10:15:14Z</time>
</trkpt>
<trkpt lat="35.1153754" lon="32.5173174">
<ele>41.93</ele>
<time>2015-04-26T10:15:17Z</time>
</trkpt>
<trkpt lat="35.1153804" lon="32.5173770">
<ele>42.68</ele>
<time>2015-04-26T10:15:20Z</time>
</trkpt>
<trkpt lat="35.1153913" lon="32.5174328">
<ele>44.27</ele>
<time>2015-04-26T10:15:23Z</time>
</trkpt>
<trkpt lat="35.1154003" lon="32.5174974">
<ele>44.88</ele>
<time>2015-04-26T10:15:27Z</time>
</trkpt>
<trkpt lat="35.1154147" lon="32.5175634">
<ele>45.42</ele>
<time>2015-04-26T10:15:31Z</time>
</trkpt>
<trkpt lat="35.1154293" lon="32.5176248">
<ele>44.64</ele>
<time>2015-04-26T10:15:35Z</time>
</trkpt>
<trkpt lat="35.1154341" lon="32.5176876">
<ele>44.45</ele>
<time>2015-04-26T10:15:40Z</time>
</trkpt>
<trkpt lat="35.1154516" lon="32.5177430">
<ele>45.79</ele>
<time>2015-04-26T10:15:45Z</time>
</trkpt>
<trkpt lat="35.1154184" lon="32.5177881">
<ele>48.67</ele>
<time>2015-04-26T10:18:38Z</time>
</trkpt>
<trkpt lat="35.1154514" lon="32.5178312">
<ele>43.92</ele>
<time>2015-04-26T10:19:15Z</time>
</trkpt>
<trkpt lat="35.1154534" lon="32.5178966">
<ele>45.30</ele>
<time>2015-04-26T10:19:19Z</time>
</trkpt>
<trkpt lat="35.1154717" lon="32.5179559">
<ele>46.76</ele>
<time>2015-04-26T10:19:23Z</time>
</trkpt>
<trkpt lat="35.1154815" lon="32.5180126">
<ele>47.85</ele>
<time>2015-04-26T10:19:27Z</time>
</trkpt>
<trkpt lat="35.1154902" lon="32.5180717">
<ele>47.67</ele>
<time>2015-04-26T10:19:31Z</time>
</trkpt>
<trkpt lat="35.1154637" lon="32.5181257">
<ele>47.91</ele>
<time>2015-04-26T10:19:35Z</time>
</trkpt>
<trkpt lat="35.1154437" lon="32.5181820">
<ele>47.42</ele>
<time>2015-04-26T10:20:12Z</time>
</trkpt>
<trkpt lat="35.1154530" lon="32.5182454">
<ele>49.67</ele>
<time>2015-04-26T10:20:21Z</time>
</trkpt>
<trkpt lat="35.1154677" lon="32.5183032">
<ele>49.91</ele>
<time>2015-04-26T10:20:25Z</time>
</trkpt>
<trkpt lat="35.1154828" lon="32.5183710">
<ele>50.55</ele>
<time>2015-04-26T10:20:29Z</time>
</trkpt>
<trkpt lat="35.1154974" lon="32.5184236">
<ele>50.88</ele>
<time>2015-04-26T10:20:32Z</time>
</trkpt>
<trkpt lat="35.1155062" lon="32.5184914">
<ele>51.36</ele>
<time>2015-04-26T10:20:36Z</time>
</trkpt>
<trkpt lat="35.1155129" lon="32.5185624">
<ele>50.95</ele>
<time>2015-04-26T10:20:40Z</time>
</trkpt>
<trkpt lat="35.1155201" lon="32.5186285">
<ele>51.11</ele>
<time>2015-04-26T10:20:44Z</time>
</trkpt>
<trkpt lat="35.1155335" lon="32.5186943">
<ele>52.75</ele>
<time>2015-04-26T10:20:48Z</time>
</trkpt>
<trkpt lat="35.1155417" lon="32.5187496">
<ele>52.03</ele>
<time>2015-04-26T10:20:51Z</time>
</trkpt>
<trkpt lat="35.1155371" lon="32.5188076">
<ele>53.56</ele>
<time>2015-04-26T10:20:54Z</time>
</trkpt>
<trkpt lat="35.1155399" lon="32.5188673">
<ele>53.88</ele>
<time>2015-04-26T10:20:57Z</time>
</trkpt>
<trkpt lat="35.1155386" lon="32.5189276">
<ele>53.92</ele>
<time>2015-04-26T10:21:00Z</time>
</trkpt>
<trkpt lat="35.1155367" lon="32.5189868">
<ele>53.92</ele>
<time>2015-04-26T10:21:03Z</time>
</trkpt>
<trkpt lat="35.1155358" lon="32.5190467">
<ele>53.42</ele>
<time>2015-04-26T10:21:06Z</time>
</trkpt>
<trkpt lat="35.1155351" lon="32.5191057">
<ele>53.86</ele>
<time>2015-04-26T10:21:09Z</time>
</trkpt>
<trkpt lat="35.1155413" lon="32.5191615">
<ele>55.17</ele>
<time>2015-04-26T10:21:12Z</time>
</trkpt>
<trkpt lat="35.1155376" lon="32.5192186">
<ele>55.08</ele>
<time>2015-04-26T10:21:15Z</time>
</trkpt>
<trkpt lat="35.1155273" lon="32.5192746">
<ele>54.44</ele>
<time>2015-04-26T10:21:18Z</time>
</trkpt>
<trkpt lat="35.1155308" lon="32.5193462">
<ele>54.77</ele>
<time>2015-04-26T10:21:22Z</time>
</trkpt>
<trkpt lat="35.1155414" lon="32.5194054">
<ele>53.98</ele>
<time>2015-04-26T10:21:26Z</time>
</trkpt>
<trkpt lat="35.1155350" lon="32.5194692">
<ele>54.12</ele>
<time>2015-04-26T10:21:30Z</time>
</trkpt>
<trkpt lat="35.1155276" lon="32.5195346">
<ele>53.94</ele>
<time>2015-04-26T10:21:34Z</time>
</trkpt>
<trkpt lat="35.1155103" lon="32.5195982">
<ele>55.36</ele>
<time>2015-04-26T10:21:38Z</time>
</trkpt>
<trkpt lat="35.1155007" lon="32.5196662">
<ele>56.64</ele>
<time>2015-04-26T10:21:42Z</time>
</trkpt>
<trkpt lat="35.1154885" lon="32.5197338">
<ele>56.84</ele>
<time>2015-04-26T10:21:46Z</time>
</trkpt>
<trkpt lat="35.1154842" lon="32.5198013">
<ele>56.92</ele>
<time>2015-04-26T10:21:50Z</time>
</trkpt>
<trkpt lat="35.1154700" lon="32.5198649">
<ele>57.86</ele>
<time>2015-04-26T10:21:54Z</time>
</trkpt>
<trkpt lat="35.1154538" lon="32.5199289">
<ele>59.61</ele>
<time>2015-04-26T10:21:58Z</time>
</trkpt>
<trkpt lat="35.1154385" lon="32.5199942">
<ele>60.66</ele>
<time>2015-04-26T10:22:02Z</time>
</trkpt>
<trkpt lat="35.1154302" lon="32.5200494">
<ele>61.85</ele>
<time>2015-04-26T10:22:06Z</time>
</trkpt>
<trkpt lat="35.1154169" lon="32.5201100">
<ele>62.67</ele>
<time>2015-04-26T10:22:10Z</time>
</trkpt>
<trkpt lat="35.1154063" lon="32.5201678">
<ele>64.66</ele>
<time>2015-04-26T10:22:14Z</time>
</trkpt>
<trkpt lat="35.1153972" lon="32.5202250">
<ele>64.41</ele>
<time>2015-04-26T10:22:18Z</time>
</trkpt>
<trkpt lat="35.1153949" lon="32.5202903">
<ele>65.63</ele>
<time>2015-04-26T10:22:23Z</time>
</trkpt>
<trkpt lat="35.1153936" lon="32.5203524">
<ele>66.67</ele>
<time>2015-04-26T10:22:28Z</time>
</trkpt>
<trkpt lat="35.1153881" lon="32.5204128">
<ele>67.85</ele>
<time>2015-04-26T10:22:33Z</time>
</trkpt>
<trkpt lat="35.1153730" lon="32.5204678">
<ele>68.86</ele>
<time>2015-04-26T10:22:38Z</time>
</trkpt>
<trkpt lat="35.1153644" lon="32.5205261">
<ele>69.86</ele>
<time>2015-04-26T10:22:43Z</time>
</trkpt>
<trkpt lat="35.1153574" lon="32.5205847">
<ele>69.92</ele>
<time>2015-04-26T10:22:48Z</time>
</trkpt>
<trkpt lat="35.1153489" lon="32.5206465">
<ele>69.92</ele>
<time>2015-04-26T10:22:53Z</time>
</trkpt>
<trkpt lat="35.1153369" lon="32.5207093">
<ele>69.92</ele>
<time>2015-04-26T10:22:58Z</time>
</trkpt>
<trkpt lat="35.1153264" lon="32.5207646">
<ele>70.86</ele>
<time>2015-04-26T10:23:02Z</time>
</trkpt>
<trkpt lat="35.1153296" lon="32.5208263">
<ele>71.86</ele>
<time>2015-04-26T10:23:07Z</time>
</trkpt>
<trkpt lat="35.1153318" lon="32.5208813">
<ele>72.67</ele>
<time>2015-04-26T10:23:11Z</time>
</trkpt>
<trkpt lat="35.1153370" lon="32.5209397">
<ele>72.91</ele>
<time>2015-04-26T10:23:15Z</time>
</trkpt>
<trkpt lat="35.1153272" lon="32.5209982">
<ele>72.92</ele>
<time>2015-04-26T10:23:19Z</time>
</trkpt>
<trkpt lat="35.1153325" lon="32.5210589">
<ele>72.42</ele>
<time>2015-04-26T10:23:23Z</time>
</trkpt>
<trkpt lat="35.1153358" lon="32.5211171">
<ele>72.83</ele>
<time>2015-04-26T10:23:27Z</time>
</trkpt>
<trkpt lat="35.1153358" lon="32.5211821">
<ele>72.92</ele>
<time>2015-04-26T10:23:31Z</time>
</trkpt>
<trkpt lat="35.1153291" lon="32.5212434">
<ele>73.05</ele>
<time>2015-04-26T10:23:35Z</time>
</trkpt>
<trkpt lat="35.1152970" lon="32.5212912">
<ele>72.00</ele>
<time>2015-04-26T10:23:39Z</time>
</trkpt>
<trkpt lat="35.1152871" lon="32.5213572">
<ele>71.68</ele>
<time>2015-04-26T10:23:44Z</time>
</trkpt>
<trkpt lat="35.1152843" lon="32.5214173">
<ele>70.97</ele>
<time>2015-04-26T10:23:48Z</time>
</trkpt>
<trkpt lat="35.1152813" lon="32.5214745">
<ele>70.99</ele>
<time>2015-04-26T10:23:52Z</time>
</trkpt>
<trkpt lat="35.1152790" lon="32.5215431">
<ele>71.80</ele>
<time>2015-04-26T10:23:57Z</time>
</trkpt>
<trkpt lat="35.1152695" lon="32.5216048">
<ele>73.55</ele>
<time>2015-04-26T10:24:02Z</time>
</trkpt>
<trkpt lat="35.1152635" lon="32.5216593">
<ele>73.90</ele>
<time>2015-04-26T10:24:06Z</time>
</trkpt>
<trkpt lat="35.1152441" lon="32.5217140">
<ele>73.80</ele>
<time>2015-04-26T10:24:10Z</time>
</trkpt>
<trkpt lat="35.1152338" lon="32.5217749">
<ele>74.79</ele>
<time>2015-04-26T10:24:14Z</time>
</trkpt>
<trkpt lat="35.1152363" lon="32.5218371">
<ele>75.67</ele>
<time>2015-04-26T10:24:18Z</time>
</trkpt>
<trkpt lat="35.1152234" lon="32.5218945">
<ele>76.03</ele>
<time>2015-04-26T10:24:22Z</time>
</trkpt>
<trkpt lat="35.1152155" lon="32.5219627">
<ele>77.87</ele>
<time>2015-04-26T10:24:27Z</time>
</trkpt>
<trkpt lat="35.1151929" lon="32.5220167">
<ele>78.30</ele>
<time>2015-04-26T10:24:31Z</time>
</trkpt>
<trkpt lat="35.1151748" lon="32.5220762">
<ele>78.14</ele>
<time>2015-04-26T10:24:35Z</time>
</trkpt>
<trkpt lat="35.1151597" lon="32.5221299">
<ele>77.94</ele>
<time>2015-04-26T10:24:39Z</time>
</trkpt>
<trkpt lat="35.1151642" lon="32.5221881">
<ele>76.99</ele>
<time>2015-04-26T10:24:43Z</time>
</trkpt>
<trkpt lat="35.1151705" lon="32.5222466">
<ele>78.37</ele>
<time>2015-04-26T10:24:47Z</time>
</trkpt>
<trkpt lat="35.1151732" lon="32.5223058">
<ele>79.27</ele>
<time>2015-04-26T10:24:51Z</time>
</trkpt>
<trkpt lat="35.1151761" lon="32.5223634">
<ele>78.51</ele>
<time>2015-04-26T10:24:55Z</time>
</trkpt>
<trkpt lat="35.1151887" lon="32.5224246">
<ele>78.90</ele>
<time>2015-04-26T10:24:59Z</time>
</trkpt>
<trkpt lat="35.1151847" lon="32.5224882">
<ele>78.92</ele>
<time>2015-04-26T10:25:03Z</time>
</trkpt>
<trkpt lat="35.1151751" lon="32.5225506">
<ele>80.30</ele>
<time>2015-04-26T10:25:07Z</time>
</trkpt>
<trkpt lat="35.1151682" lon="32.5226126">
<ele>81.01</ele>
<time>2015-04-26T10:25:11Z</time>
</trkpt>
<trkpt lat="35.1151653" lon="32.5226729">
<ele>81.06</ele>
<time>2015-04-26T10:25:15Z</time>
</trkpt>
<trkpt lat="35.1151597" lon="32.5227335">
<ele>80.18</ele>
<time>2015-04-26T10:25:19Z</time>
</trkpt>
<trkpt lat="35.1151559" lon="32.5227961">
<ele>80.75</ele>
<time>2015-04-26T10:25:23Z</time>
</trkpt>
<trkpt lat="35.1151466" lon="32.5228569">
<ele>80.91</ele>
<time>2015-04-26T10:25:27Z</time>
</trkpt>
<trkpt lat="35.1151379" lon="32.5229113">
<ele>80.92</ele>
<time>2015-04-26T10:25:31Z</time>
</trkpt>
<trkpt lat="35.1151178" lon="32.5229658">
<ele>81.67</ele>
<time>2015-04-26T10:25:35Z</time>
</trkpt>
<trkpt lat="35.1151044" lon="32.5230221">
<ele>81.10</ele>
<time>2015-04-26T10:25:39Z</time>
</trkpt>
<trkpt lat="35.1151010" lon="32.5230896">
<ele>83.34</ele>
<time>2015-04-26T10:25:44Z</time>
</trkpt>
<trkpt lat="35.1150911" lon="32.5231434">
<ele>84.26</ele>
<time>2015-04-26T10:25:48Z</time>
</trkpt>
<trkpt lat="35.1150712" lon="32.5231983">
<ele>87.07</ele>
<time>2015-04-26T10:25:52Z</time>
</trkpt>
<trkpt lat="35.1150478" lon="32.5232556">
<ele>87.87</ele>
<time>2015-04-26T10:25:56Z</time>
</trkpt>
<trkpt lat="35.1150114" lon="32.5232987">
<ele>87.42</ele>
<time>2015-04-26T10:26:00Z</time>
</trkpt>
<trkpt lat="35.1149692" lon="32.5233348">
<ele>88.33</ele>
<time>2015-04-26T10:26:04Z</time>
</trkpt>
<trkpt lat="35.1149214" lon="32.5233760">
<ele>90.39</ele>
<time>2015-04-26T10:26:08Z</time>
</trkpt>
<trkpt lat="35.1148798" lon="32.5234206">
<ele>91.77</ele>
<time>2015-04-26T10:26:12Z</time>
</trkpt>
<trkpt lat="35.1148409" lon="32.5234536">
<ele>92.67</ele>
<time>2015-04-26T10:26:16Z</time>
</trkpt>
<trkpt lat="35.1148062" lon="32.5234913">
<ele>92.66</ele>
<time>2015-04-26T10:26:20Z</time>
</trkpt>
<trkpt lat="35.1147773" lon="32.5235407">
<ele>93.41</ele>
<time>2015-04-26T10:26:24Z</time>
</trkpt>
<trkpt lat="35.1147558" lon="32.5236010">
<ele>92.96</ele>
<time>2015-04-26T10:26:28Z</time>
</trkpt>
<trkpt lat="35.1147503" lon="32.5236620">
<ele>92.93</ele>
<time>2015-04-26T10:26:32Z</time>
</trkpt>
<trkpt lat="35.1147348" lon="32.5237180">
<ele>93.86</ele>
<time>2015-04-26T10:26:36Z</time>
</trkpt>
<trkpt lat="35.1147170" lon="32.5237700">
<ele>94.67</ele>
<time>2015-04-26T10:26:40Z</time>
</trkpt>
<trkpt lat="35.1147004" lon="32.5238213">
<ele>95.78</ele>
<time>2015-04-26T10:26:44Z</time>
</trkpt>
<trkpt lat="35.1147003" lon="32.5238867">
<ele>97.55</ele>
<time>2015-04-26T10:26:49Z</time>
</trkpt>
<trkpt lat="35.1146961" lon="32.5239445">
<ele>97.90</ele>
<time>2015-04-26T10:26:53Z</time>
</trkpt>
<trkpt lat="35.1146755" lon="32.5240056">
<ele>99.74</ele>
<time>2015-04-26T10:26:57Z</time>
</trkpt>
<trkpt lat="35.1146541" lon="32.5240682">
<ele>100.60</ele>
<time>2015-04-26T10:27:01Z</time>
</trkpt>
<trkpt lat="35.1146358" lon="32.5241290">
<ele>101.03</ele>
<time>2015-04-26T10:27:05Z</time>
</trkpt>
<trkpt lat="35.1146037" lon="32.5241870">
<ele>101.31</ele>
<time>2015-04-26T10:27:09Z</time>
</trkpt>
<trkpt lat="35.1145768" lon="32.5242483">
<ele>100.95</ele>
<time>2015-04-26T10:27:13Z</time>
</trkpt>
<trkpt lat="35.1145586" lon="32.5243064">
<ele>101.61</ele>
<time>2015-04-26T10:27:17Z</time>
</trkpt>
<trkpt lat="35.1145408" lon="32.5243689">
<ele>101.91</ele>
<time>2015-04-26T10:27:21Z</time>
</trkpt>
<trkpt lat="35.1145380" lon="32.5244299">
<ele>101.92</ele>
<time>2015-04-26T10:27:25Z</time>
</trkpt>
<trkpt lat="35.1145369" lon="32.5244890">
<ele>101.67</ele>
<time>2015-04-26T10:27:29Z</time>
</trkpt>
<trkpt lat="35.1145352" lon="32.5245467">
<ele>103.35</ele>
<time>2015-04-26T10:27:33Z</time>
</trkpt>
<trkpt lat="35.1145384" lon="32.5246026">
<ele>104.45</ele>
<time>2015-04-26T10:27:37Z</time>
</trkpt>
<trkpt lat="35.1145372" lon="32.5246632">
<ele>105.65</ele>
<time>2015-04-26T10:27:41Z</time>
</trkpt>
<trkpt lat="35.1145323" lon="32.5247300">
<ele>107.28</ele>
<time>2015-04-26T10:27:45Z</time>
</trkpt>
<trkpt lat="35.1145398" lon="32.5247965">
<ele>108.20</ele>
<time>2015-04-26T10:27:49Z</time>
</trkpt>
<trkpt lat="35.1145457" lon="32.5248661">
<ele>109.50</ele>
<time>2015-04-26T10:27:53Z</time>
</trkpt>
<trkpt lat="35.1145400" lon="32.5249257">
<ele>109.90</ele>
<time>2015-04-26T10:27:57Z</time>
</trkpt>
<trkpt lat="35.1145225" lon="32.5249881">
<ele>109.92</ele>
<time>2015-04-26T10:28:01Z</time>
</trkpt>
<trkpt lat="35.1145049" lon="32.5250497">
<ele>108.49</ele>
<time>2015-04-26T10:28:05Z</time>
</trkpt>
<trkpt lat="35.1144831" lon="32.5251183">
<ele>108.90</ele>
<time>2015-04-26T10:28:09Z</time>
</trkpt>
<trkpt lat="35.1144619" lon="32.5251852">
<ele>108.99</ele>
<time>2015-04-26T10:28:13Z</time>
</trkpt>
<trkpt lat="35.1144362" lon="32.5252482">
<ele>108.43</ele>
<time>2015-04-26T10:28:17Z</time>
</trkpt>
<trkpt lat="35.1144184" lon="32.5252992">
<ele>108.49</ele>
<time>2015-04-26T10:28:20Z</time>
</trkpt>
<trkpt lat="35.1143986" lon="32.5253543">
<ele>108.00</ele>
<time>2015-04-26T10:28:23Z</time>
</trkpt>
<trkpt lat="35.1143834" lon="32.5254073">
<ele>107.06</ele>
<time>2015-04-26T10:28:26Z</time>
</trkpt>
<trkpt lat="35.1143650" lon="32.5254691">
<ele>108.75</ele>
<time>2015-04-26T10:28:30Z</time>
</trkpt>
<trkpt lat="35.1143700" lon="32.5255329">
<ele>109.85</ele>
<time>2015-04-26T10:28:34Z</time>
</trkpt>
<trkpt lat="35.1143753" lon="32.5256006">
<ele>111.17</ele>
<time>2015-04-26T10:28:38Z</time>
</trkpt>
<trkpt lat="35.1143859" lon="32.5256602">
<ele>111.58</ele>
<time>2015-04-26T10:28:41Z</time>
</trkpt>
<trkpt lat="35.1143993" lon="32.5257184">
<ele>111.01</ele>
<time>2015-04-26T10:28:44Z</time>
</trkpt>
<trkpt lat="35.1144098" lon="32.5257757">
<ele>111.81</ele>
<time>2015-04-26T10:28:47Z</time>
</trkpt>
<trkpt lat="35.1144239" lon="32.5258436">
<ele>112.86</ele>
<time>2015-04-26T10:28:51Z</time>
</trkpt>
<trkpt lat="35.1144303" lon="32.5259112">
<ele>113.17</ele>
<time>2015-04-26T10:28:55Z</time>
</trkpt>
<trkpt lat="35.1144439" lon="32.5259674">
<ele>113.07</ele>
<time>2015-04-26T10:28:59Z</time>
</trkpt>
<trkpt lat="35.1144614" lon="32.5260285">
<ele>112.93</ele>
<time>2015-04-26T10:29:03Z</time>
</trkpt>
<trkpt lat="35.1144797" lon="32.5260967">
<ele>111.86</ele>
<time>2015-04-26T10:29:07Z</time>
</trkpt>
<trkpt lat="35.1145046" lon="32.5261615">
<ele>111.11</ele>
<time>2015-04-26T10:29:11Z</time>
</trkpt>
<trkpt lat="35.1145351" lon="32.5262213">
<ele>110.94</ele>
<time>2015-04-26T10:29:15Z</time>
</trkpt>
<trkpt lat="35.1145584" lon="32.5262868">
<ele>112.18</ele>
<time>2015-04-26T10:29:19Z</time>
</trkpt>
<trkpt lat="35.1145702" lon="32.5263546">
<ele>112.19</ele>
<time>2015-04-26T10:29:23Z</time>
</trkpt>
<trkpt lat="35.1145771" lon="32.5264094">
<ele>113.58</ele>
<time>2015-04-26T10:29:26Z</time>
</trkpt>
<trkpt lat="35.1145667" lon="32.5264682">
<ele>113.88</ele>
<time>2015-04-26T10:29:29Z</time>
</trkpt>
<trkpt lat="35.1145611" lon="32.5265290">
<ele>114.67</ele>
<time>2015-04-26T10:29:32Z</time>
</trkpt>
<trkpt lat="35.1145308" lon="32.5265765">
<ele>114.11</ele>
<time>2015-04-26T10:30:07Z</time>
</trkpt>
<trkpt lat="35.1145063" lon="32.5266379">
<ele>114.68</ele>
<time>2015-04-26T10:30:12Z</time>
</trkpt>
<trkpt lat="35.1144918" lon="32.5266951">
<ele>115.47</ele>
<time>2015-04-26T10:30:16Z</time>
</trkpt>
<trkpt lat="35.1145069" lon="32.5266394">
<ele>115.55</ele>
<time>2015-04-26T10:30:29Z</time>
</trkpt>
<trkpt lat="35.1145161" lon="32.5265739">
<ele>115.03</ele>
<time>2015-04-26T10:30:33Z</time>
</trkpt>
<trkpt lat="35.1145604" lon="32.5265895">
<ele>115.12</ele>
<time>2015-04-26T10:30:38Z</time>
</trkpt>
<trkpt lat="35.1145601" lon="32.5266692">
<ele>114.20</ele>
<time>2015-04-26T10:30:41Z</time>
</trkpt>
<trkpt lat="35.1145598" lon="32.5268204">
<ele>112.74</ele>
<time>2015-04-26T10:30:43Z</time>
</trkpt>
<trkpt lat="35.1145665" lon="32.5269125">
<ele>110.88</ele>
<time>2015-04-26T10:30:45Z</time>
</trkpt>
<trkpt lat="35.1145640" lon="32.5269858">
<ele>109.66</ele>
<time>2015-04-26T10:30:47Z</time>
</trkpt>
<trkpt lat="35.1145647" lon="32.5270663">
<ele>108.61</ele>
<time>2015-04-26T10:30:49Z</time>
</trkpt>
<trkpt lat="35.1145277" lon="32.5271212">
<ele>108.77</ele>
<time>2015-04-26T10:30:50Z</time>
</trkpt>
<trkpt lat="35.1145229" lon="32.5272230">
<ele>108.89</ele>
<time>2015-04-26T10:30:52Z</time>
</trkpt>
<trkpt lat="35.1145100" lon="32.5272845">
<ele>107.91</ele>
<time>2015-04-26T10:30:53Z</time>
</trkpt>
<trkpt lat="35.1144895" lon="32.5273476">
<ele>106.92</ele>
<time>2015-04-26T10:30:54Z</time>
</trkpt>
<trkpt lat="35.1144689" lon="32.5274273">
<ele>106.42</ele>
<time>2015-04-26T10:30:55Z</time>
</trkpt>
<trkpt lat="35.1144523" lon="32.5274998">
<ele>105.67</ele>
<time>2015-04-26T10:30:56Z</time>
</trkpt>
<trkpt lat="35.1144338" lon="32.5275755">
<ele>105.30</ele>
<time>2015-04-26T10:30:57Z</time>
</trkpt>
<trkpt lat="35.1144345" lon="32.5276483">
<ele>105.11</ele>
<time>2015-04-26T10:30:58Z</time>
</trkpt>
<trkpt lat="35.1144258" lon="32.5277286">
<ele>105.02</ele>
<time>2015-04-26T10:30:59Z</time>
</trkpt>
<trkpt lat="35.1144121" lon="32.5277981">
<ele>104.97</ele>
<time>2015-04-26T10:31:00Z</time>
</trkpt>
<trkpt lat="35.1143692" lon="32.5278706">
<ele>104.45</ele>
<time>2015-04-26T10:31:01Z</time>
</trkpt>
<trkpt lat="35.1143685" lon="32.5279532">
<ele>104.19</ele>
<time>2015-04-26T10:31:02Z</time>
</trkpt>
<trkpt lat="35.1143756" lon="32.5280372">
<ele>104.56</ele>
<time>2015-04-26T10:31:03Z</time>
</trkpt>
<trkpt lat="35.1143954" lon="32.5281022">
<ele>104.74</ele>
<time>2015-04-26T10:31:04Z</time>
</trkpt>
<trkpt lat="35.1143959" lon="32.5281754">
<ele>104.83</ele>
<time>2015-04-26T10:31:05Z</time>
</trkpt>
<trkpt lat="35.1143832" lon="32.5282336">
<ele>104.38</ele>
<time>2015-04-26T10:31:06Z</time>
</trkpt>
<trkpt lat="35.1143742" lon="32.5282920">
<ele>103.65</ele>
<time>2015-04-26T10:31:07Z</time>
</trkpt>
<trkpt lat="35.1143834" lon="32.5283477">
<ele>102.79</ele>
<time>2015-04-26T10:31:08Z</time>
</trkpt>
<trkpt lat="35.1144052" lon="32.5284368">
<ele>101.64</ele>
<time>2015-04-26T10:31:10Z</time>
</trkpt>
<trkpt lat="35.1144547" lon="32.5284991">
<ele>100.35</ele>
<time>2015-04-26T10:31:12Z</time>
</trkpt>
<trkpt lat="35.1145110" lon="32.5285118">
<ele>100.53</ele>
<time>2015-04-26T10:31:14Z</time>
</trkpt>
<trkpt lat="35.1145677" lon="32.5284726">
<ele>101.83</ele>
<time>2015-04-26T10:31:16Z</time>
</trkpt>
<trkpt lat="35.1146146" lon="32.5284561">
<ele>102.65</ele>
<time>2015-04-26T10:31:18Z</time>
</trkpt>
<trkpt lat="35.1146532" lon="32.5284192">
<ele>102.86</ele>
<time>2015-04-26T10:31:20Z</time>
</trkpt>
<trkpt lat="35.1146792" lon="32.5283708">
<ele>102.41</ele>
<time>2015-04-26T10:31:22Z</time>
</trkpt>
<trkpt lat="35.1146980" lon="32.5283204">
<ele>102.05</ele>
<time>2015-04-26T10:31:24Z</time>
</trkpt>
<trkpt lat="35.1147235" lon="32.5282645">
<ele>101.96</ele>
<time>2015-04-26T10:31:26Z</time>
</trkpt>
<trkpt lat="35.1147587" lon="32.5282122">
<ele>104.18</ele>
<time>2015-04-26T10:31:28Z</time>
</trkpt>
<trkpt lat="35.1148088" lon="32.5281811">
<ele>104.24</ele>
<time>2015-04-26T10:31:30Z</time>
</trkpt>
<trkpt lat="35.1148669" lon="32.5281721">
<ele>103.25</ele>
<time>2015-04-26T10:31:32Z</time>
</trkpt>
<trkpt lat="35.1149212" lon="32.5281707">
<ele>103.01</ele>
<time>2015-04-26T10:31:34Z</time>
</trkpt>
<trkpt lat="35.1149675" lon="32.5281756">
<ele>102.95</ele>
<time>2015-04-26T10:31:36Z</time>
</trkpt>
<trkpt lat="35.1150282" lon="32.5281912">
<ele>101.68</ele>
<time>2015-04-26T10:31:39Z</time>
</trkpt>
<trkpt lat="35.1150751" lon="32.5282008">
<ele>100.36</ele>
<time>2015-04-26T10:31:41Z</time>
</trkpt>
<trkpt lat="35.1151296" lon="32.5282112">
<ele>99.78</ele>
<time>2015-04-26T10:31:43Z</time>
</trkpt>
<trkpt lat="35.1151919" lon="32.5281952">
<ele>99.39</ele>
<time>2015-04-26T10:31:45Z</time>
</trkpt>
<trkpt lat="35.1152302" lon="32.5281379">
<ele>98.54</ele>
<time>2015-04-26T10:31:47Z</time>
</trkpt>
<trkpt lat="35.1152453" lon="32.5280613">
<ele>98.08</ele>
<time>2015-04-26T10:31:49Z</time>
</trkpt>
<trkpt lat="35.1152680" lon="32.5279154">
<ele>97.71</ele>
<time>2015-04-26T10:31:51Z</time>
</trkpt>
<trkpt lat="35.1152727" lon="32.5278520">
<ele>96.82</ele>
<time>2015-04-26T10:31:52Z</time>
</trkpt>
<trkpt lat="35.1152850" lon="32.5277854">
<ele>96.87</ele>
<time>2015-04-26T10:31:53Z</time>
</trkpt>
<trkpt lat="35.1152930" lon="32.5277263">
<ele>96.90</ele>
<time>2015-04-26T10:31:54Z</time>
</trkpt>
<trkpt lat="35.1152943" lon="32.5276642">
<ele>97.41</ele>
<time>2015-04-26T10:31:55Z</time>
</trkpt>
<trkpt lat="35.1153032" lon="32.5276064">
<ele>97.67</ele>
<time>2015-04-26T10:31:56Z</time>
</trkpt>
<trkpt lat="35.1153197" lon="32.5275381">
<ele>97.30</ele>
<time>2015-04-26T10:31:57Z</time>
</trkpt>
<trkpt lat="35.1153380" lon="32.5274740">
<ele>96.61</ele>
<time>2015-04-26T10:31:58Z</time>
</trkpt>
<trkpt lat="35.1153605" lon="32.5274166">
<ele>96.27</ele>
<time>2015-04-26T10:31:59Z</time>
</trkpt>
<trkpt lat="35.1153904" lon="32.5273491">
<ele>95.60</ele>
<time>2015-04-26T10:32:00Z</time>
</trkpt>
<trkpt lat="35.1154341" lon="32.5272845">
<ele>94.26</ele>
<time>2015-04-26T10:32:01Z</time>
</trkpt>
<trkpt lat="35.1154767" lon="32.5272154">
<ele>93.09</ele>
<time>2015-04-26T10:32:02Z</time>
</trkpt>
<trkpt lat="35.1155293" lon="32.5271560">
<ele>92.01</ele>
<time>2015-04-26T10:32:03Z</time>
</trkpt>
<trkpt lat="35.1155762" lon="32.5270923">
<ele>91.47</ele>
<time>2015-04-26T10:32:04Z</time>
</trkpt>
<trkpt lat="35.1156162" lon="32.5270100">
<ele>91.20</ele>
<time>2015-04-26T10:32:05Z</time>
</trkpt>
<trkpt lat="35.1156330" lon="32.5269109">
<ele>91.06</ele>
<time>2015-04-26T10:32:06Z</time>
</trkpt>
<trkpt lat="35.1156515" lon="32.5268265">
<ele>91.49</ele>
<time>2015-04-26T10:32:07Z</time>
</trkpt>
<trkpt lat="35.1156472" lon="32.5267512">
<ele>91.71</ele>
<time>2015-04-26T10:32:08Z</time>
</trkpt>
<trkpt lat="35.1156469" lon="32.5266954">
<ele>91.82</ele>
<time>2015-04-26T10:32:09Z</time>
</trkpt>
<trkpt lat="35.1156419" lon="32.5266354">
<ele>92.37</ele>
<time>2015-04-26T10:32:10Z</time>
</trkpt>
<trkpt lat="35.1156615" lon="32.5265685">
<ele>92.65</ele>
<time>2015-04-26T10:32:11Z</time>
</trkpt>
<trkpt lat="35.1156778" lon="32.5265063">
<ele>92.79</ele>
<time>2015-04-26T10:32:12Z</time>
</trkpt>
<trkpt lat="35.1157075" lon="32.5264416">
<ele>92.86</ele>
<time>2015-04-26T10:32:13Z</time>
</trkpt>
<trkpt lat="35.1157393" lon="32.5263813">
<ele>93.39</ele>
<time>2015-04-26T10:32:14Z</time>
</trkpt>
<trkpt lat="35.1157761" lon="32.5263262">
<ele>93.16</ele>
<time>2015-04-26T10:32:15Z</time>
</trkpt>
<trkpt lat="35.1158090" lon="32.5262768">
<ele>93.54</ele>
<time>2015-04-26T10:32:16Z</time>
</trkpt>
<trkpt lat="35.1158552" lon="32.5261997">
<ele>94.58</ele>
<time>2015-04-26T10:32:18Z</time>
</trkpt>
<trkpt lat="35.1158880" lon="32.5261602">
<ele>94.84</ele>
<time>2015-04-26T10:32:20Z</time>
</trkpt>
<trkpt lat="35.1159196" lon="32.5261090">
<ele>94.90</ele>
<time>2015-04-26T10:32:22Z</time>
</trkpt>
<trkpt lat="35.1159634" lon="32.5260620">
<ele>95.67</ele>
<time>2015-04-26T10:32:25Z</time>
</trkpt>
<trkpt lat="35.1160197" lon="32.5260210">
<ele>95.39</ele>
<time>2015-04-26T10:32:28Z</time>
</trkpt>
<trkpt lat="35.1160619" lon="32.5259895">
<ele>95.54</ele>
<time>2015-04-26T10:32:30Z</time>
</trkpt>
<trkpt lat="35.1161091" lon="32.5259466">
<ele>95.33</ele>
<time>2015-04-26T10:32:32Z</time>
</trkpt>
<trkpt lat="35.1161793" lon="32.5258784">
<ele>94.28</ele>
<time>2015-04-26T10:32:34Z</time>
</trkpt>
<trkpt lat="35.1162480" lon="32.5257905">
<ele>93.60</ele>
<time>2015-04-26T10:32:35Z</time>
</trkpt>
<trkpt lat="35.1162712" lon="32.5257183">
<ele>94.76</ele>
<time>2015-04-26T10:32:36Z</time>
</trkpt>
<trkpt lat="35.1162776" lon="32.5256490">
<ele>95.34</ele>
<time>2015-04-26T10:32:37Z</time>
</trkpt>
<trkpt lat="35.1162725" lon="32.5255893">
<ele>95.63</ele>
<time>2015-04-26T10:32:38Z</time>
</trkpt>
<trkpt lat="35.1162726" lon="32.5255309">
<ele>96.28</ele>
<time>2015-04-26T10:32:39Z</time>
</trkpt>
<trkpt lat="35.1162816" lon="32.5254332">
<ele>97.51</ele>
<time>2015-04-26T10:32:41Z</time>
</trkpt>
<trkpt lat="35.1162928" lon="32.5253798">
<ele>97.72</ele>
<time>2015-04-26T10:32:42Z</time>
</trkpt>
<trkpt lat="35.1163024" lon="32.5253255">
<ele>97.82</ele>
<time>2015-04-26T10:32:43Z</time>
</trkpt>
<trkpt lat="35.1163187" lon="32.5252690">
<ele>98.37</ele>
<time>2015-04-26T10:32:44Z</time>
</trkpt>
<trkpt lat="35.1163381" lon="32.5252058">
<ele>99.29</ele>
<time>2015-04-26T10:32:46Z</time>
</trkpt>
<trkpt lat="35.1163632" lon="32.5251548">
<ele>99.77</ele>
<time>2015-04-26T10:32:48Z</time>
</trkpt>
<trkpt lat="35.1164090" lon="32.5250974">
<ele>100.28</ele>
<time>2015-04-26T10:32:51Z</time>
</trkpt>
<trkpt lat="35.1164531" lon="32.5250611">
<ele>100.76</ele>
<time>2015-04-26T10:32:53Z</time>
</trkpt>
<trkpt lat="35.1164993" lon="32.5250420">
<ele>100.13</ele>
<time>2015-04-26T10:32:55Z</time>
</trkpt>
<trkpt lat="35.1165470" lon="32.5250138">
<ele>99.98</ele>
<time>2015-04-26T10:32:57Z</time>
</trkpt>
<trkpt lat="35.1165986" lon="32.5249734">
<ele>99.94</ele>
<time>2015-04-26T10:32:59Z</time>
</trkpt>
<trkpt lat="35.1166469" lon="32.5249142">
<ele>99.93</ele>
<time>2015-04-26T10:33:01Z</time>
</trkpt>
<trkpt lat="35.1166855" lon="32.5248456">
<ele>99.93</ele>
<time>2015-04-26T10:33:03Z</time>
</trkpt>
<trkpt lat="35.1167219" lon="32.5247751">
<ele>99.43</ele>
<time>2015-04-26T10:33:05Z</time>
</trkpt>
<trkpt lat="35.1167619" lon="32.5247044">
<ele>99.05</ele>
<time>2015-04-26T10:33:07Z</time>
</trkpt>
<trkpt lat="35.1168111" lon="32.5246359">
<ele>98.96</ele>
<time>2015-04-26T10:33:09Z</time>
</trkpt>
<trkpt lat="35.1168789" lon="32.5245784">
<ele>97.68</ele>
<time>2015-04-26T10:33:11Z</time>
</trkpt>
<trkpt lat="35.1169466" lon="32.5245413">
<ele>97.30</ele>
<time>2015-04-26T10:33:12Z</time>
</trkpt>
<trkpt lat="35.1169913" lon="32.5245174">
<ele>97.11</ele>
<time>2015-04-26T10:33:13Z</time>
</trkpt>
<trkpt lat="35.1170419" lon="32.5244887">
<ele>97.02</ele>
<time>2015-04-26T10:33:14Z</time>
</trkpt>
<trkpt lat="35.1170871" lon="32.5244811">
<ele>96.47</ele>
<time>2015-04-26T10:33:15Z</time>
</trkpt>
<trkpt lat="35.1171662" lon="32.5244810">
<ele>95.81</ele>
<time>2015-04-26T10:33:17Z</time>
</trkpt>
<trkpt lat="35.1172411" lon="32.5245208">
<ele>94.65</ele>
<time>2015-04-26T10:33:19Z</time>
</trkpt>
<trkpt lat="35.1173123" lon="32.5246029">
<ele>92.86</ele>
<time>2015-04-26T10:33:21Z</time>
</trkpt>
<trkpt lat="35.1173467" lon="32.5246653">
<ele>91.89</ele>
<time>2015-04-26T10:33:22Z</time>
</trkpt>
<trkpt lat="35.1173867" lon="32.5247373">
<ele>90.41</ele>
<time>2015-04-26T10:33:23Z</time>
</trkpt>
<trkpt lat="35.1174369" lon="32.5248272">
<ele>89.17</ele>
<time>2015-04-26T10:33:24Z</time>
</trkpt>
<trkpt lat="35.1174903" lon="32.5249275">
<ele>87.55</ele>
<time>2015-04-26T10:33:25Z</time>
</trkpt>
<trkpt lat="35.1175382" lon="32.5250074">
<ele>86.74</ele>
<time>2015-04-26T10:33:26Z</time>
</trkpt>
<trkpt lat="35.1175773" lon="32.5250798">
<ele>85.83</ele>
<time>2015-04-26T10:33:27Z</time>
</trkpt>
<trkpt lat="35.1176232" lon="32.5251487">
<ele>84.88</ele>
<time>2015-04-26T10:33:28Z</time>
</trkpt>
<trkpt lat="35.1176612" lon="32.5251948">
<ele>84.90</ele>
<time>2015-04-26T10:33:29Z</time>
</trkpt>
<trkpt lat="35.1177478" lon="32.5252469">
<ele>85.67</ele>
<time>2015-04-26T10:33:31Z</time>
</trkpt>
<trkpt lat="35.1178156" lon="32.5252277">
<ele>86.11</ele>
<time>2015-04-26T10:33:33Z</time>
</trkpt>
<trkpt lat="35.1178638" lon="32.5251985">
<ele>85.97</ele>
<time>2015-04-26T10:33:35Z</time>
</trkpt>
<trkpt lat="35.1179092" lon="32.5251837">
<ele>86.69</ele>
<time>2015-04-26T10:33:37Z</time>
</trkpt>
<trkpt lat="35.1179562" lon="32.5251847">
<ele>86.87</ele>
<time>2015-04-26T10:33:39Z</time>
</trkpt>
<trkpt lat="35.1180046" lon="32.5251943">
<ele>86.91</ele>
<time>2015-04-26T10:33:41Z</time>
</trkpt>
<trkpt lat="35.1180600" lon="32.5251874">
<ele>88.30</ele>
<time>2015-04-26T10:33:44Z</time>
</trkpt>
<trkpt lat="35.1181084" lon="32.5251551">
<ele>88.22</ele>
<time>2015-04-26T10:33:47Z</time>
</trkpt>
<trkpt lat="35.1181493" lon="32.5250884">
<ele>87.96</ele>
<time>2015-04-26T10:33:50Z</time>
</trkpt>
<trkpt lat="35.1181761" lon="32.5250377">
<ele>87.93</ele>
<time>2015-04-26T10:33:52Z</time>
</trkpt>
<trkpt lat="35.1182138" lon="32.5250035">
<ele>86.21</ele>
<time>2015-04-26T10:34:16Z</time>
</trkpt>
<trkpt lat="35.1182377" lon="32.5249566">
<ele>86.96</ele>
<time>2015-04-26T10:38:45Z</time>
</trkpt>
<trkpt lat="35.1182864" lon="32.5248971">
<ele>86.93</ele>
<time>2015-04-26T10:38:47Z</time>
</trkpt>
<trkpt lat="35.1183428" lon="32.5248273">
<ele>86.43</ele>
<time>2015-04-26T10:38:48Z</time>
</trkpt>
<trkpt lat="35.1184003" lon="32.5247462">
<ele>84.80</ele>
<time>2015-04-26T10:38:50Z</time>
</trkpt>
<trkpt lat="35.1184294" lon="32.5247034">
<ele>83.86</ele>
<time>2015-04-26T10:38:51Z</time>
</trkpt>
<trkpt lat="35.1184790" lon="32.5246284">
<ele>82.66</ele>
<time>2015-04-26T10:38:53Z</time>
</trkpt>
<trkpt lat="35.1185284" lon="32.5245531">
<ele>81.61</ele>
<time>2015-04-26T10:38:55Z</time>
</trkpt>
<trkpt lat="35.1185773" lon="32.5244601">
<ele>80.35</ele>
<time>2015-04-26T10:38:57Z</time>
</trkpt>
<trkpt lat="35.1185881" lon="32.5244059">
<ele>80.14</ele>
<time>2015-04-26T10:38:58Z</time>
</trkpt>
<trkpt lat="35.1185910" lon="32.5242995">
<ele>79.48</ele>
<time>2015-04-26T10:39:00Z</time>
</trkpt>
<trkpt lat="35.1185997" lon="32.5242408">
<ele>78.70</ele>
<time>2015-04-26T10:39:01Z</time>
</trkpt>
<trkpt lat="35.1186137" lon="32.5241781">
<ele>77.81</ele>
<time>2015-04-26T10:39:02Z</time>
</trkpt>
<trkpt lat="35.1186266" lon="32.5241194">
<ele>76.87</ele>
<time>2015-04-26T10:39:03Z</time>
</trkpt>
<trkpt lat="35.1186442" lon="32.5240620">
<ele>76.40</ele>
<time>2015-04-26T10:39:04Z</time>
</trkpt>
<trkpt lat="35.1186833" lon="32.5239696">
<ele>76.04</ele>
<time>2015-04-26T10:39:06Z</time>
</trkpt>
<trkpt lat="35.1186940" lon="32.5239006">
<ele>75.45</ele>
<time>2015-04-26T10:39:08Z</time>
</trkpt>
<trkpt lat="35.1187062" lon="32.5238472">
<ele>75.06</ele>
<time>2015-04-26T10:39:10Z</time>
</trkpt>
<trkpt lat="35.1187066" lon="32.5237841">
<ele>75.69</ele>
<time>2015-04-26T10:39:13Z</time>
</trkpt>
<trkpt lat="35.1186788" lon="32.5237305">
<ele>75.90</ele>
<time>2015-04-26T10:39:16Z</time>
</trkpt>
<trkpt lat="35.1186511" lon="32.5236743">
<ele>75.92</ele>
<time>2015-04-26T10:39:19Z</time>
</trkpt>
<trkpt lat="35.1186503" lon="32.5236141">
<ele>75.17</ele>
<time>2015-04-26T10:39:22Z</time>
</trkpt>
<trkpt lat="35.1186920" lon="32.5235847">
<ele>75.46</ele>
<time>2015-04-26T10:39:25Z</time>
</trkpt>
<trkpt lat="35.1187258" lon="32.5236232">
<ele>75.37</ele>
<time>2015-04-26T10:39:28Z</time>
</trkpt>
<trkpt lat="35.1187538" lon="32.5236732">
<ele>75.11</ele>
<time>2015-04-26T10:39:31Z</time>
</trkpt>
<trkpt lat="35.1187986" lon="32.5237140">
<ele>74.94</ele>
<time>2015-04-26T10:39:35Z</time>
</trkpt>
<trkpt lat="35.1188457" lon="32.5236588">
<ele>73.50</ele>
<time>2015-04-26T10:39:45Z</time>
</trkpt>
<trkpt lat="35.1188919" lon="32.5236256">
<ele>72.32</ele>
<time>2015-04-26T10:39:47Z</time>
</trkpt>
<trkpt lat="35.1189347" lon="32.5235891">
<ele>72.02</ele>
<time>2015-04-26T10:39:49Z</time>
</trkpt>
<trkpt lat="35.1189652" lon="32.5235403">
<ele>71.95</ele>
<time>2015-04-26T10:39:51Z</time>
</trkpt>
<trkpt lat="35.1189865" lon="32.5234868">
<ele>71.43</ele>
<time>2015-04-26T10:39:53Z</time>
</trkpt>
<trkpt lat="35.1190075" lon="32.5234153">
<ele>69.74</ele>
<time>2015-04-26T10:39:56Z</time>
</trkpt>
<trkpt lat="35.1190428" lon="32.5233587">
<ele>68.65</ele>
<time>2015-04-26T10:39:59Z</time>
</trkpt>
<trkpt lat="35.1190833" lon="32.5232941">
<ele>67.89</ele>
<time>2015-04-26T10:40:02Z</time>
</trkpt>
<trkpt lat="35.1191128" lon="32.5232448">
<ele>67.92</ele>
<time>2015-04-26T10:40:04Z</time>
</trkpt>
<trkpt lat="35.1191418" lon="32.5231871">
<ele>67.42</ele>
<time>2015-04-26T10:40:06Z</time>
</trkpt>
<trkpt lat="35.1191695" lon="32.5231249">
<ele>67.05</ele>
<time>2015-04-26T10:40:08Z</time>
</trkpt>
<trkpt lat="35.1191956" lon="32.5230602">
<ele>66.96</ele>
<time>2015-04-26T10:40:10Z</time>
</trkpt>
<trkpt lat="35.1192208" lon="32.5229921">
<ele>66.18</ele>
<time>2015-04-26T10:40:12Z</time>
</trkpt>
<trkpt lat="35.1192515" lon="32.5229147">
<ele>65.24</ele>
<time>2015-04-26T10:40:14Z</time>
</trkpt>
<trkpt lat="35.1192912" lon="32.5228248">
<ele>65.50</ele>
<time>2015-04-26T10:40:16Z</time>
</trkpt>
<trkpt lat="35.1193342" lon="32.5227350">
<ele>65.82</ele>
<time>2015-04-26T10:40:18Z</time>
</trkpt>
<trkpt lat="35.1193733" lon="32.5226478">
<ele>65.15</ele>
<time>2015-04-26T10:40:20Z</time>
</trkpt>
<trkpt lat="35.1194074" lon="32.5225700">
<ele>64.98</ele>
<time>2015-04-26T10:40:22Z</time>
</trkpt>
<trkpt lat="35.1194358" lon="32.5225130">
<ele>64.19</ele>
<time>2015-04-26T10:40:24Z</time>
</trkpt>
<trkpt lat="35.1194666" lon="32.5224645">
<ele>64.21</ele>
<time>2015-04-26T10:40:27Z</time>
</trkpt>
<trkpt lat="35.1195088" lon="32.5224432">
<ele>63.96</ele>
<time>2015-04-26T10:40:30Z</time>
</trkpt>
<trkpt lat="35.1195588" lon="32.5224331">
<ele>63.43</ele>
<time>2015-04-26T10:40:34Z</time>
</trkpt>
<trkpt lat="35.1196007" lon="32.5224114">
<ele>61.80</ele>
<time>2015-04-26T10:40:36Z</time>
</trkpt>
<trkpt lat="35.1197026" lon="32.5223739">
<ele>60.14</ele>
<time>2015-04-26T10:40:38Z</time>
</trkpt>
<trkpt lat="35.1197476" lon="32.5223474">
<ele>59.53</ele>
<time>2015-04-26T10:40:39Z</time>
</trkpt>
<trkpt lat="35.1197898" lon="32.5223183">
<ele>58.73</ele>
<time>2015-04-26T10:40:40Z</time>
</trkpt>
<trkpt lat="35.1198383" lon="32.5222947">
<ele>57.83</ele>
<time>2015-04-26T10:40:41Z</time>
</trkpt>
<trkpt lat="35.1198868" lon="32.5222676">
<ele>57.38</ele>
<time>2015-04-26T10:40:42Z</time>
</trkpt>
<trkpt lat="35.1199337" lon="32.5222503">
<ele>57.15</ele>
<time>2015-04-26T10:40:43Z</time>
</trkpt>
<trkpt lat="35.1199874" lon="32.5222291">
<ele>56.54</ele>
<time>2015-04-26T10:40:44Z</time>
</trkpt>
<trkpt lat="35.1200352" lon="32.5222256">
<ele>56.23</ele>
<time>2015-04-26T10:40:45Z</time>
</trkpt>
<trkpt lat="35.1200985" lon="32.5222211">
<ele>55.08</ele>
<time>2015-04-26T10:40:46Z</time>
</trkpt>
<trkpt lat="35.1201725" lon="32.5222149">
<ele>53.50</ele>
<time>2015-04-26T10:40:47Z</time>
</trkpt>
<trkpt lat="35.1202484" lon="32.5222082">
<ele>52.21</ele>
<time>2015-04-26T10:40:48Z</time>
</trkpt>
<trkpt lat="35.1203240" lon="32.5222074">
<ele>51.07</ele>
<time>2015-04-26T10:40:49Z</time>
</trkpt>
<trkpt lat="35.1204019" lon="32.5222262">
<ele>50.00</ele>
<time>2015-04-26T10:40:50Z</time>
</trkpt>
<trkpt lat="35.1204833" lon="32.5222422">
<ele>49.46</ele>
<time>2015-04-26T10:40:51Z</time>
</trkpt>
<trkpt lat="35.1205712" lon="32.5222514">
<ele>48.19</ele>
<time>2015-04-26T10:40:52Z</time>
</trkpt>
<trkpt lat="35.1206604" lon="32.5222622">
<ele>47.06</ele>
<time>2015-04-26T10:40:53Z</time>
</trkpt>
<trkpt lat="35.1207483" lon="32.5222692">
<ele>46.49</ele>
<time>2015-04-26T10:40:54Z</time>
</trkpt>
<trkpt lat="35.1208438" lon="32.5222708">
<ele>45.21</ele>
<time>2015-04-26T10:40:55Z</time>
</trkpt>
<trkpt lat="35.1209375" lon="32.5222764">
<ele>44.57</ele>
<time>2015-04-26T10:40:56Z</time>
</trkpt>
<trkpt lat="35.1210195" lon="32.5222572">
<ele>44.75</ele>
<time>2015-04-26T10:40:57Z</time>
</trkpt>
<trkpt lat="35.1211029" lon="32.5222282">
<ele>44.34</ele>
<time>2015-04-26T10:40:58Z</time>
</trkpt>
<trkpt lat="35.1211885" lon="32.5221871">
<ele>43.63</ele>
<time>2015-04-26T10:40:59Z</time>
</trkpt>
<trkpt lat="35.1212705" lon="32.5221493">
<ele>43.28</ele>
<time>2015-04-26T10:41:00Z</time>
</trkpt>
<trkpt lat="35.1213448" lon="32.5221115">
<ele>43.10</ele>
<time>2015-04-26T10:41:01Z</time>
</trkpt>
<trkpt lat="35.1214234" lon="32.5220723">
<ele>43.51</ele>
<time>2015-04-26T10:41:02Z</time>
</trkpt>
<trkpt lat="35.1214870" lon="32.5220397">
<ele>44.22</ele>
<time>2015-04-26T10:41:03Z</time>
</trkpt>
<trkpt lat="35.1215325" lon="32.5220097">
<ele>44.07</ele>
<time>2015-04-26T10:41:04Z</time>
</trkpt>
<trkpt lat="35.1215688" lon="32.5219735">
<ele>43.50</ele>
<time>2015-04-26T10:41:05Z</time>
</trkpt>
<trkpt lat="35.1215980" lon="32.5218949">
<ele>43.82</ele>
<time>2015-04-26T10:41:07Z</time>
</trkpt>
<trkpt lat="35.1216032" lon="32.5218099">
<ele>43.40</ele>
<time>2015-04-26T10:41:09Z</time>
</trkpt>
<trkpt lat="35.1216004" lon="32.5217376">
<ele>43.04</ele>
<time>2015-04-26T10:41:11Z</time>
</trkpt>
<trkpt lat="35.1216083" lon="32.5216632">
<ele>42.20</ele>
<time>2015-04-26T10:41:13Z</time>
</trkpt>
<trkpt lat="35.1216230" lon="32.5215982">
<ele>41.24</ele>
<time>2015-04-26T10:41:15Z</time>
</trkpt>
<trkpt lat="35.1216295" lon="32.5215426">
<ele>40.25</ele>
<time>2015-04-26T10:41:17Z</time>
</trkpt>
<trkpt lat="35.1216133" lon="32.5215963">
<ele>42.05</ele>
<time>2015-04-26T10:42:20Z</time>
</trkpt>
<trkpt lat="35.1216094" lon="32.5216553">
<ele>41.94</ele>
<time>2015-04-26T10:42:23Z</time>
</trkpt>
<trkpt lat="35.1216037" lon="32.5217200">
<ele>41.68</ele>
<time>2015-04-26T10:42:26Z</time>
</trkpt>
<trkpt lat="35.1216027" lon="32.5217870">
<ele>42.27</ele>
<time>2015-04-26T10:42:29Z</time>
</trkpt>
<trkpt lat="35.1216058" lon="32.5218456">
<ele>41.49</ele>
<time>2015-04-26T10:42:43Z</time>
</trkpt>
<trkpt lat="35.1215893" lon="32.5219239">
<ele>42.46</ele>
<time>2015-04-26T10:42:47Z</time>
</trkpt>
<trkpt lat="35.1215747" lon="32.5219768">
<ele>42.06</ele>
<time>2015-04-26T10:42:49Z</time>
</trkpt>
<trkpt lat="35.1215470" lon="32.5220325">
<ele>42.69</ele>
<time>2015-04-26T10:42:52Z</time>
</trkpt>
<trkpt lat="35.1215540" lon="32.5219771">
<ele>41.19</ele>
<time>2015-04-26T10:42:58Z</time>
</trkpt>
<trkpt lat="35.1215824" lon="32.5219241">
<ele>40.08</ele>
<time>2015-04-26T10:43:01Z</time>
</trkpt>
<trkpt lat="35.1215986" lon="32.5218675">
<ele>40.44</ele>
<time>2015-04-26T10:43:04Z</time>
</trkpt>
<trkpt lat="35.1216224" lon="32.5218176">
<ele>41.74</ele>
<time>2015-04-26T10:43:07Z</time>
</trkpt>
<trkpt lat="35.1216662" lon="32.5218392">
<ele>42.10</ele>
<time>2015-04-26T10:43:11Z</time>
</trkpt>
<trkpt lat="35.1216980" lon="32.5218850">
<ele>42.17</ele>
<time>2015-04-26T10:43:40Z</time>
</trkpt>
<trkpt lat="35.1217256" lon="32.5219298">
<ele>43.86</ele>
<time>2015-04-26T10:43:48Z</time>
</trkpt>
<trkpt lat="35.1217588" lon="32.5219791">
<ele>43.55</ele>
<time>2015-04-26T10:43:58Z</time>
</trkpt>
<trkpt lat="35.1217924" lon="32.5220273">
<ele>43.78</ele>
<time>2015-04-26T10:44:02Z</time>
</trkpt>
<trkpt lat="35.1218229" lon="32.5220721">
<ele>45.29</ele>
<time>2015-04-26T10:44:06Z</time>
</trkpt>
<trkpt lat="35.1218478" lon="32.5221243">
<ele>47.78</ele>
<time>2015-04-26T10:44:11Z</time>
</trkpt>
<trkpt lat="35.1218709" lon="32.5221805">
<ele>47.23</ele>
<time>2015-04-26T10:44:16Z</time>
</trkpt>
<trkpt lat="35.1218909" lon="32.5222332">
<ele>47.00</ele>
<time>2015-04-26T10:44:21Z</time>
</trkpt>
<trkpt lat="35.1219115" lon="32.5222938">
<ele>46.60</ele>
<time>2015-04-26T10:44:27Z</time>
</trkpt>
<trkpt lat="35.1219441" lon="32.5223387">
<ele>48.73</ele>
<time>2015-04-26T10:44:33Z</time>
</trkpt>
<trkpt lat="35.1219811" lon="32.5223736">
<ele>49.74</ele>
<time>2015-04-26T10:44:40Z</time>
</trkpt>
<trkpt lat="35.1220251" lon="32.5223956">
<ele>52.49</ele>
<time>2015-04-26T10:44:49Z</time>
</trkpt>
<trkpt lat="35.1220682" lon="32.5224112">
<ele>54.72</ele>
<time>2015-04-26T10:44:56Z</time>
</trkpt>
<trkpt lat="35.1221183" lon="32.5224285">
<ele>56.03</ele>
<time>2015-04-26T10:45:02Z</time>
</trkpt>
<trkpt lat="35.1221136" lon="32.5224874">
<ele>56.93</ele>
<time>2015-04-26T10:45:08Z</time>
</trkpt>
<trkpt lat="35.1220948" lon="32.5225499">
<ele>56.05</ele>
<time>2015-04-26T10:45:13Z</time>
</trkpt>
<trkpt lat="35.1221107" lon="32.5226013">
<ele>55.68</ele>
<time>2015-04-26T10:45:18Z</time>
</trkpt>
<trkpt lat="35.1221606" lon="32.5226414">
<ele>56.64</ele>
<time>2015-04-26T10:45:24Z</time>
</trkpt>
<trkpt lat="35.1222288" lon="32.5226677">
<ele>57.64</ele>
<time>2015-04-26T10:45:27Z</time>
</trkpt>
<trkpt lat="35.1222825" lon="32.5226994">
<ele>57.85</ele>
<time>2015-04-26T10:45:29Z</time>
</trkpt>
<trkpt lat="35.1223346" lon="32.5227309">
<ele>57.91</ele>
<time>2015-04-26T10:45:31Z</time>
</trkpt>
<trkpt lat="35.1223861" lon="32.5227637">
<ele>57.92</ele>
<time>2015-04-26T10:45:33Z</time>
</trkpt>
<trkpt lat="35.1224375" lon="32.5227900">
<ele>58.67</ele>
<time>2015-04-26T10:45:35Z</time>
</trkpt>
<trkpt lat="35.1224902" lon="32.5228084">
<ele>58.86</ele>
<time>2015-04-26T10:45:37Z</time>
</trkpt>
<trkpt lat="35.1225411" lon="32.5228264">
<ele>58.16</ele>
<time>2015-04-26T10:45:39Z</time>
</trkpt>
<trkpt lat="35.1225830" lon="32.5228578">
<ele>57.73</ele>
<time>2015-04-26T10:45:41Z</time>
</trkpt>
<trkpt lat="35.1226135" lon="32.5228984">
<ele>57.38</ele>
<time>2015-04-26T10:45:43Z</time>
</trkpt>
<trkpt lat="35.1226415" lon="32.5229415">
<ele>57.04</ele>
<time>2015-04-26T10:45:45Z</time>
</trkpt>
<trkpt lat="35.1226709" lon="32.5230057">
<ele>57.06</ele>
<time>2015-04-26T10:45:48Z</time>
</trkpt>
<trkpt lat="35.1226826" lon="32.5230762">
<ele>56.07</ele>
<time>2015-04-26T10:45:51Z</time>
</trkpt>
<trkpt lat="35.1227069" lon="32.5231309">
<ele>56.32</ele>
<time>2015-04-26T10:45:54Z</time>
</trkpt>
<trkpt lat="35.1227307" lon="32.5231797">
<ele>55.47</ele>
<time>2015-04-26T10:45:59Z</time>
</trkpt>
<trkpt lat="35.1227122" lon="32.5231284">
<ele>54.93</ele>
<time>2015-04-26T10:46:08Z</time>
</trkpt>
<trkpt lat="35.1226754" lon="32.5230903">
<ele>56.30</ele>
<time>2015-04-26T10:46:24Z</time>
</trkpt>
<trkpt lat="35.1226528" lon="32.5230296">
<ele>55.95</ele>
<time>2015-04-26T10:46:28Z</time>
</trkpt>
<trkpt lat="35.1226206" lon="32.5229590">
<ele>55.93</ele>
<time>2015-04-26T10:46:31Z</time>
</trkpt>
<trkpt lat="35.1225858" lon="32.5229041">
<ele>56.43</ele>
<time>2015-04-26T10:46:33Z</time>
</trkpt>
<trkpt lat="35.1225490" lon="32.5228568">
<ele>55.55</ele>
<time>2015-04-26T10:46:35Z</time>
</trkpt>
<trkpt lat="35.1225085" lon="32.5228222">
<ele>55.83</ele>
<time>2015-04-26T10:46:37Z</time>
</trkpt>
<trkpt lat="35.1224637" lon="32.5227990">
<ele>55.65</ele>
<time>2015-04-26T10:46:39Z</time>
</trkpt>
<trkpt lat="35.1224115" lon="32.5227812">
<ele>55.11</ele>
<time>2015-04-26T10:46:41Z</time>
</trkpt>
<trkpt lat="35.1223602" lon="32.5227600">
<ele>54.47</ele>
<time>2015-04-26T10:46:43Z</time>
</trkpt>
<trkpt lat="35.1223087" lon="32.5227319">
<ele>54.06</ele>
<time>2015-04-26T10:46:45Z</time>
</trkpt>
<trkpt lat="35.1222541" lon="32.5227055">
<ele>53.21</ele>
<time>2015-04-26T10:46:47Z</time>
</trkpt>
<trkpt lat="35.1222019" lon="32.5226813">
<ele>52.25</ele>
<time>2015-04-26T10:46:49Z</time>
</trkpt>
<trkpt lat="35.1221556" lon="32.5226504">
<ele>51.51</ele>
<time>2015-04-26T10:46:51Z</time>
</trkpt>
<trkpt lat="35.1221161" lon="32.5226095">
<ele>50.57</ele>
<time>2015-04-26T10:46:53Z</time>
</trkpt>
<trkpt lat="35.1220983" lon="32.5225500">
<ele>50.09</ele>
<time>2015-04-26T10:46:55Z</time>
</trkpt>
<trkpt lat="35.1221138" lon="32.5224833">
<ele>50.47</ele>
<time>2015-04-26T10:46:57Z</time>
</trkpt>
<trkpt lat="35.1221230" lon="32.5224227">
<ele>50.81</ele>
<time>2015-04-26T10:46:59Z</time>
</trkpt>
<trkpt lat="35.1220882" lon="32.5223615">
<ele>52.41</ele>
<time>2015-04-26T10:47:02Z</time>
</trkpt>
<trkpt lat="35.1220314" lon="32.5223436">
<ele>51.08</ele>
<time>2015-04-26T10:47:06Z</time>
</trkpt>
<trkpt lat="35.1219793" lon="32.5223419">
<ele>49.32</ele>
<time>2015-04-26T10:47:09Z</time>
</trkpt>
<trkpt lat="35.1219211" lon="32.5222946">
<ele>47.60</ele>
<time>2015-04-26T10:47:12Z</time>
</trkpt>
<trkpt lat="35.1218834" lon="32.5222347">
<ele>46.59</ele>
<time>2015-04-26T10:47:14Z</time>
</trkpt>
<trkpt lat="35.1218404" lon="32.5221485">
<ele>45.34</ele>
<time>2015-04-26T10:47:16Z</time>
</trkpt>
<trkpt lat="35.1218068" lon="32.5220788">
<ele>44.63</ele>
<time>2015-04-26T10:47:17Z</time>
</trkpt>
<trkpt lat="35.1217792" lon="32.5220261">
<ele>44.28</ele>
<time>2015-04-26T10:47:18Z</time>
</trkpt>
<trkpt lat="35.1217521" lon="32.5219814">
<ele>44.10</ele>
<time>2015-04-26T10:47:19Z</time>
</trkpt>
<trkpt lat="35.1217084" lon="32.5219142">
<ele>42.72</ele>
<time>2015-04-26T10:47:21Z</time>
</trkpt>
<trkpt lat="35.1216638" lon="32.5218768">
<ele>42.12</ele>
<time>2015-04-26T10:47:23Z</time>
</trkpt>
<trkpt lat="35.1216171" lon="32.5218693">
<ele>42.44</ele>
<time>2015-04-26T10:47:27Z</time>
</trkpt>
<trkpt lat="35.1215912" lon="32.5219271">
<ele>42.89</ele>
<time>2015-04-26T10:47:31Z</time>
</trkpt>
<trkpt lat="35.1215811" lon="32.5219982">
<ele>42.74</ele>
<time>2015-04-26T10:47:35Z</time>
</trkpt>
<trkpt lat="35.1215393" lon="32.5220347">
<ele>42.38</ele>
<time>2015-04-26T10:47:37Z</time>
</trkpt>
<trkpt lat="35.1214760" lon="32.5220649">
<ele>42.04</ele>
<time>2015-04-26T10:47:39Z</time>
</trkpt>
<trkpt lat="35.1214054" lon="32.5220928">
<ele>42.70</ele>
<time>2015-04-26T10:47:41Z</time>
</trkpt>
<trkpt lat="35.1213291" lon="32.5221244">
<ele>42.87</ele>
<time>2015-04-26T10:47:43Z</time>
</trkpt>
<trkpt lat="35.1212502" lon="32.5221567">
<ele>42.41</ele>
<time>2015-04-26T10:47:45Z</time>
</trkpt>
<trkpt lat="35.1211400" lon="32.5222112">
<ele>42.55</ele>
<time>2015-04-26T10:47:47Z</time>
</trkpt>
<trkpt lat="35.1210908" lon="32.5222354">
<ele>42.74</ele>
<time>2015-04-26T10:47:48Z</time>
</trkpt>
<trkpt lat="35.1210444" lon="32.5222485">
<ele>42.83</ele>
<time>2015-04-26T10:47:49Z</time>
</trkpt>
<trkpt lat="35.1210000" lon="32.5222617">
<ele>43.38</ele>
<time>2015-04-26T10:47:50Z</time>
</trkpt>
<trkpt lat="35.1209194" lon="32.5222778">
<ele>43.79</ele>
<time>2015-04-26T10:47:52Z</time>
</trkpt>
<trkpt lat="35.1208430" lon="32.5222804">
<ele>45.14</ele>
<time>2015-04-26T10:47:54Z</time>
</trkpt>
<trkpt lat="35.1207758" lon="32.5222793">
<ele>45.73</ele>
<time>2015-04-26T10:47:56Z</time>
</trkpt>
<trkpt lat="35.1207224" lon="32.5222895">
<ele>45.88</ele>
<time>2015-04-26T10:47:58Z</time>
</trkpt>
<trkpt lat="35.1206652" lon="32.5223067">
<ele>46.41</ele>
<time>2015-04-26T10:48:00Z</time>
</trkpt>
<trkpt lat="35.1206111" lon="32.5223317">
<ele>46.80</ele>
<time>2015-04-26T10:48:02Z</time>
</trkpt>
<trkpt lat="35.1205542" lon="32.5223629">
<ele>46.39</ele>
<time>2015-04-26T10:48:04Z</time>
</trkpt>
<trkpt lat="35.1204979" lon="32.5223933">
<ele>46.04</ele>
<time>2015-04-26T10:48:06Z</time>
</trkpt>
<trkpt lat="35.1204424" lon="32.5224169">
<ele>45.95</ele>
<time>2015-04-26T10:48:08Z</time>
</trkpt>
<trkpt lat="35.1203895" lon="32.5224433">
<ele>45.18</ele>
<time>2015-04-26T10:48:10Z</time>
</trkpt>
<trkpt lat="35.1203346" lon="32.5224832">
<ele>44.99</ele>
<time>2015-04-26T10:48:12Z</time>
</trkpt>
<trkpt lat="35.1202830" lon="32.5225335">
<ele>44.94</ele>
<time>2015-04-26T10:48:14Z</time>
</trkpt>
<trkpt lat="35.1202484" lon="32.5225910">
<ele>44.43</ele>
<time>2015-04-26T10:48:16Z</time>
</trkpt>
<trkpt lat="35.1202305" lon="32.5226610">
<ele>43.30</ele>
<time>2015-04-26T10:48:18Z</time>
</trkpt>
<trkpt lat="35.1202284" lon="32.5227368">
<ele>42.77</ele>
<time>2015-04-26T10:48:20Z</time>
</trkpt>
<trkpt lat="35.1202244" lon="32.5228122">
<ele>44.14</ele>
<time>2015-04-26T10:48:22Z</time>
</trkpt>
<trkpt lat="35.1202199" lon="32.5228839">
<ele>43.98</ele>
<time>2015-04-26T10:48:24Z</time>
</trkpt>
<trkpt lat="35.1202132" lon="32.5229567">
<ele>44.69</ele>
<time>2015-04-26T10:48:26Z</time>
</trkpt>
<trkpt lat="35.1202018" lon="32.5230283">
<ele>46.12</ele>
<time>2015-04-26T10:48:28Z</time>
</trkpt>
<trkpt lat="35.1201833" lon="32.5231010">
<ele>47.97</ele>
<time>2015-04-26T10:48:30Z</time>
</trkpt>
<trkpt lat="35.1201577" lon="32.5231708">
<ele>48.44</ele>
<time>2015-04-26T10:48:32Z</time>
</trkpt>
<trkpt lat="35.1201206" lon="32.5232271">
<ele>48.80</ele>
<time>2015-04-26T10:48:34Z</time>
</trkpt>
<trkpt lat="35.1200760" lon="32.5232682">
<ele>48.39</ele>
<time>2015-04-26T10:48:36Z</time>
</trkpt>
<trkpt lat="35.1200288" lon="32.5233097">
<ele>48.29</ele>
<time>2015-04-26T10:48:38Z</time>
</trkpt>
<trkpt lat="35.1199764" lon="32.5233438">
<ele>48.02</ele>
<time>2015-04-26T10:48:40Z</time>
</trkpt>
<trkpt lat="35.1199241" lon="32.5233794">
<ele>47.70</ele>
<time>2015-04-26T10:48:42Z</time>
</trkpt>
<trkpt lat="35.1198753" lon="32.5234204">
<ele>47.12</ele>
<time>2015-04-26T10:48:44Z</time>
</trkpt>
<trkpt lat="35.1198278" lon="32.5234702">
<ele>47.22</ele>
<time>2015-04-26T10:48:46Z</time>
</trkpt>
<trkpt lat="35.1197840" lon="32.5235264">
<ele>46.50</ele>
<time>2015-04-26T10:48:48Z</time>
</trkpt>
<trkpt lat="35.1197441" lon="32.5235908">
<ele>46.82</ele>
<time>2015-04-26T10:48:50Z</time>
</trkpt>
<trkpt lat="35.1197072" lon="32.5236573">
<ele>47.65</ele>
<time>2015-04-26T10:48:52Z</time>
</trkpt>
<trkpt lat="35.1196816" lon="32.5237288">
<ele>48.36</ele>
<time>2015-04-26T10:48:54Z</time>
</trkpt>
<trkpt lat="35.1196685" lon="32.5238036">
<ele>48.78</ele>
<time>2015-04-26T10:48:56Z</time>
</trkpt>
<trkpt lat="35.1196638" lon="32.5238811">
<ele>49.64</ele>
<time>2015-04-26T10:48:58Z</time>
</trkpt>
<trkpt lat="35.1196660" lon="32.5239577">
<ele>49.85</ele>
<time>2015-04-26T10:49:00Z</time>
</trkpt>
<trkpt lat="35.1196703" lon="32.5240348">
<ele>51.16</ele>
<time>2015-04-26T10:49:02Z</time>
</trkpt>
<trkpt lat="35.1196711" lon="32.5241100">
<ele>52.23</ele>
<time>2015-04-26T10:49:04Z</time>
</trkpt>
<trkpt lat="35.1196724" lon="32.5241765">
<ele>53.50</ele>
<time>2015-04-26T10:49:06Z</time>
</trkpt>
<trkpt lat="35.1196748" lon="32.5242365">
<ele>54.57</ele>
<time>2015-04-26T10:49:08Z</time>
</trkpt>
<trkpt lat="35.1196789" lon="32.5242945">
<ele>54.84</ele>
<time>2015-04-26T10:49:10Z</time>
</trkpt>
<trkpt lat="35.1196772" lon="32.5243526">
<ele>55.40</ele>
<time>2015-04-26T10:49:12Z</time>
</trkpt>
<trkpt lat="35.1196712" lon="32.5244132">
<ele>55.04</ele>
<time>2015-04-26T10:49:14Z</time>
</trkpt>
<trkpt lat="35.1196686" lon="32.5244741">
<ele>55.45</ele>
<time>2015-04-26T10:49:16Z</time>
</trkpt>
<trkpt lat="35.1196647" lon="32.5245345">
<ele>55.81</ele>
<time>2015-04-26T10:49:18Z</time>
</trkpt>
<trkpt lat="35.1196626" lon="32.5245984">
<ele>55.90</ele>
<time>2015-04-26T10:49:20Z</time>
</trkpt>
<trkpt lat="35.1196692" lon="32.5246645">
<ele>55.92</ele>
<time>2015-04-26T10:49:22Z</time>
</trkpt>
<trkpt lat="35.1196824" lon="32.5247345">
<ele>55.92</ele>
<time>2015-04-26T10:49:24Z</time>
</trkpt>
<trkpt lat="35.1196959" lon="32.5248069">
<ele>56.42</ele>
<time>2015-04-26T10:49:26Z</time>
</trkpt>
<trkpt lat="35.1197003" lon="32.5248788">
<ele>56.80</ele>
<time>2015-04-26T10:49:28Z</time>
</trkpt>
<trkpt lat="35.1196859" lon="32.5249492">
<ele>57.39</ele>
<time>2015-04-26T10:49:30Z</time>
</trkpt>
<trkpt lat="35.1196573" lon="32.5250135">
<ele>56.29</ele>
<time>2015-04-26T10:49:32Z</time>
</trkpt>
<trkpt lat="35.1196200" lon="32.5250723">
<ele>55.52</ele>
<time>2015-04-26T10:49:34Z</time>
</trkpt>
<trkpt lat="35.1195840" lon="32.5251287">
<ele>54.32</ele>
<time>2015-04-26T10:49:36Z</time>
</trkpt>
<trkpt lat="35.1195508" lon="32.5251786">
<ele>53.27</ele>
<time>2015-04-26T10:49:38Z</time>
</trkpt>
<trkpt lat="35.1195266" lon="32.5252327">
<ele>52.22</ele>
<time>2015-04-26T10:49:41Z</time>
</trkpt>
<trkpt lat="35.1194959" lon="32.5252909">
<ele>51.96</ele>
<time>2015-04-26T10:49:44Z</time>
</trkpt>
<trkpt lat="35.1194676" lon="32.5253678">
<ele>51.55</ele>
<time>2015-04-26T10:49:47Z</time>
</trkpt>
<trkpt lat="35.1194577" lon="32.5254531">
<ele>51.83</ele>
<time>2015-04-26T10:49:49Z</time>
</trkpt>
<trkpt lat="35.1194641" lon="32.5255333">
<ele>51.15</ele>
<time>2015-04-26T10:49:51Z</time>
</trkpt>
<trkpt lat="35.1194754" lon="32.5255992">
<ele>50.98</ele>
<time>2015-04-26T10:49:53Z</time>
</trkpt>
<trkpt lat="35.1194911" lon="32.5256579">
<ele>51.44</ele>
<time>2015-04-26T10:49:55Z</time>
</trkpt>
<trkpt lat="35.1195172" lon="32.5257119">
<ele>51.80</ele>
<time>2015-04-26T10:49:57Z</time>
</trkpt>
<trkpt lat="35.1195452" lon="32.5257654">
<ele>51.89</ele>
<time>2015-04-26T10:49:59Z</time>
</trkpt>
<trkpt lat="35.1195803" lon="32.5258134">
<ele>51.42</ele>
<time>2015-04-26T10:50:01Z</time>
</trkpt>
<trkpt lat="35.1196215" lon="32.5258489">
<ele>51.05</ele>
<time>2015-04-26T10:50:03Z</time>
</trkpt>
<trkpt lat="35.1196608" lon="32.5258853">
<ele>50.44</ele>
<time>2015-04-26T10:50:06Z</time>
</trkpt>
<trkpt lat="35.1196866" lon="32.5259326">
<ele>50.82</ele>
<time>2015-04-26T10:50:11Z</time>
</trkpt>
<trkpt lat="35.1197095" lon="32.5259948">
<ele>52.83</ele>
<time>2015-04-26T10:50:16Z</time>
</trkpt>
<trkpt lat="35.1197425" lon="32.5260404">
<ele>52.42</ele>
<time>2015-04-26T10:50:21Z</time>
</trkpt>
<trkpt lat="35.1196987" lon="32.5260260">
<ele>54.15</ele>
<time>2015-04-26T10:50:27Z</time>
</trkpt>
<trkpt lat="35.1196818" lon="32.5259564">
<ele>55.38</ele>
<time>2015-04-26T10:50:31Z</time>
</trkpt>
<trkpt lat="35.1196909" lon="32.5258685">
<ele>57.23</ele>
<time>2015-04-26T10:50:34Z</time>
</trkpt>
<trkpt lat="35.1197192" lon="32.5258026">
<ele>57.00</ele>
<time>2015-04-26T10:50:36Z</time>
</trkpt>
<trkpt lat="35.1197575" lon="32.5257500">
<ele>55.94</ele>
<time>2015-04-26T10:50:38Z</time>
</trkpt>
<trkpt lat="35.1198023" lon="32.5257006">
<ele>54.43</ele>
<time>2015-04-26T10:50:40Z</time>
</trkpt>
<trkpt lat="35.1198446" lon="32.5256596">
<ele>54.80</ele>
<time>2015-04-26T10:50:42Z</time>
</trkpt>
<trkpt lat="35.1198888" lon="32.5256170">
<ele>55.03</ele>
<time>2015-04-26T10:50:45Z</time>
</trkpt>
<trkpt lat="35.1199192" lon="32.5255620">
<ele>57.31</ele>
<time>2015-04-26T10:50:49Z</time>
</trkpt>
<trkpt lat="35.1199363" lon="32.5255072">
<ele>58.57</ele>
<time>2015-04-26T10:50:53Z</time>
</trkpt>
<trkpt lat="35.1199677" lon="32.5254489">
<ele>62.34</ele>
<time>2015-04-26T10:50:57Z</time>
</trkpt>
<trkpt lat="35.1200075" lon="32.5254055">
<ele>63.73</ele>
<time>2015-04-26T10:51:00Z</time>
</trkpt>
<trkpt lat="35.1200586" lon="32.5253765">
<ele>64.78</ele>
<time>2015-04-26T10:51:03Z</time>
</trkpt>
<trkpt lat="35.1201091" lon="32.5253566">
<ele>65.78</ele>
<time>2015-04-26T10:51:06Z</time>
</trkpt>
<trkpt lat="35.1201561" lon="32.5253336">
<ele>66.78</ele>
<time>2015-04-26T10:51:09Z</time>
</trkpt>
<trkpt lat="35.1202079" lon="32.5253108">
<ele>66.66</ele>
<time>2015-04-26T10:51:12Z</time>
</trkpt>
<trkpt lat="35.1202599" lon="32.5252921">
<ele>67.39</ele>
<time>2015-04-26T10:51:15Z</time>
</trkpt>
<trkpt lat="35.1203040" lon="32.5252674">
<ele>67.11</ele>
<time>2015-04-26T10:51:18Z</time>
</trkpt>
<trkpt lat="35.1203471" lon="32.5252394">
<ele>67.82</ele>
<time>2015-04-26T10:51:21Z</time>
</trkpt>
<trkpt lat="35.1203810" lon="32.5251996">
<ele>69.29</ele>
<time>2015-04-26T10:51:24Z</time>
</trkpt>
<trkpt lat="35.1204171" lon="32.5251550">
<ele>69.72</ele>
<time>2015-04-26T10:51:27Z</time>
</trkpt>
<trkpt lat="35.1204537" lon="32.5251164">
<ele>70.40</ele>
<time>2015-04-26T10:51:30Z</time>
</trkpt>
<trkpt lat="35.1204917" lon="32.5250856">
<ele>71.36</ele>
<time>2015-04-26T10:51:33Z</time>
</trkpt>
<trkpt lat="35.1205318" lon="32.5250366">
<ele>71.89</ele>
<time>2015-04-26T10:51:37Z</time>
</trkpt>
<trkpt lat="35.1205644" lon="32.5249789">
<ele>71.55</ele>
<time>2015-04-26T10:51:41Z</time>
</trkpt>
<trkpt lat="35.1205597" lon="32.5249148">
<ele>72.65</ele>
<time>2015-04-26T10:51:45Z</time>
</trkpt>
<trkpt lat="35.1205408" lon="32.5248478">
<ele>74.66</ele>
<time>2015-04-26T10:51:49Z</time>
</trkpt>
<trkpt lat="35.1205298" lon="32.5247834">
<ele>77.16</ele>
<time>2015-04-26T10:51:53Z</time>
</trkpt>
<trkpt lat="35.1205691" lon="32.5247354">
<ele>77.44</ele>
<time>2015-04-26T10:51:57Z</time>
</trkpt>
<trkpt lat="35.1206232" lon="32.5247528">
<ele>77.39</ele>
<time>2015-04-26T10:52:01Z</time>
</trkpt>
<trkpt lat="35.1206506" lon="32.5247972">
<ele>76.98</ele>
<time>2015-04-26T10:52:04Z</time>
</trkpt>
<trkpt lat="35.1206884" lon="32.5248464">
<ele>78.30</ele>
<time>2015-04-26T10:52:08Z</time>
</trkpt>
<trkpt lat="35.1207329" lon="32.5248861">
<ele>78.14</ele>
<time>2015-04-26T10:52:12Z</time>
</trkpt>
<trkpt lat="35.1207871" lon="32.5249106">
<ele>80.19</ele>
<time>2015-04-26T10:52:16Z</time>
</trkpt>
<trkpt lat="35.1208311" lon="32.5249229">
<ele>79.21</ele>
<time>2015-04-26T10:52:19Z</time>
</trkpt>
<trkpt lat="35.1208745" lon="32.5249432">
<ele>79.84</ele>
<time>2015-04-26T10:52:22Z</time>
</trkpt>
<trkpt lat="35.1209270" lon="32.5249665">
<ele>79.92</ele>
<time>2015-04-26T10:52:26Z</time>
</trkpt>
<trkpt lat="35.1209820" lon="32.5249858">
<ele>80.17</ele>
<time>2015-04-26T10:52:30Z</time>
</trkpt>
<trkpt lat="35.1210347" lon="32.5249903">
<ele>79.58</ele>
<time>2015-04-26T10:52:33Z</time>
</trkpt>
<trkpt lat="35.1210967" lon="32.5250086">
<ele>79.13</ele>
<time>2015-04-26T10:52:36Z</time>
</trkpt>
<trkpt lat="35.1211476" lon="32.5250211">
<ele>78.98</ele>
<time>2015-04-26T10:52:38Z</time>
</trkpt>
<trkpt lat="35.1212173" lon="32.5250408">
<ele>78.94</ele>
<time>2015-04-26T10:52:40Z</time>
</trkpt>
<trkpt lat="35.1212978" lon="32.5250689">
<ele>78.18</ele>
<time>2015-04-26T10:52:42Z</time>
</trkpt>
<trkpt lat="35.1213417" lon="32.5250815">
<ele>78.55</ele>
<time>2015-04-26T10:52:43Z</time>
</trkpt>
<trkpt lat="35.1214166" lon="32.5250983">
<ele>78.74</ele>
<time>2015-04-26T10:52:44Z</time>
</trkpt>
<trkpt lat="35.1214623" lon="32.5251055">
<ele>79.33</ele>
<time>2015-04-26T10:52:45Z</time>
</trkpt>
<trkpt lat="35.1215156" lon="32.5251019">
<ele>79.13</ele>
<time>2015-04-26T10:52:46Z</time>
</trkpt>
<trkpt lat="35.1215690" lon="32.5251046">
<ele>79.03</ele>
<time>2015-04-26T10:52:47Z</time>
</trkpt>
<trkpt lat="35.1216226" lon="32.5251106">
<ele>78.98</ele>
<time>2015-04-26T10:52:48Z</time>
</trkpt>
<trkpt lat="35.1216818" lon="32.5251151">
<ele>78.95</ele>
<time>2015-04-26T10:52:49Z</time>
</trkpt>
<trkpt lat="35.1217460" lon="32.5251260">
<ele>78.44</ele>
<time>2015-04-26T10:52:50Z</time>
</trkpt>
<trkpt lat="35.1218134" lon="32.5251415">
<ele>78.18</ele>
<time>2015-04-26T10:52:51Z</time>
</trkpt>
<trkpt lat="35.1218832" lon="32.5251560">
<ele>77.05</ele>
<time>2015-04-26T10:52:52Z</time>
</trkpt>
<trkpt lat="35.1219594" lon="32.5251756">
<ele>75.99</ele>
<time>2015-04-26T10:52:53Z</time>
</trkpt>
<trkpt lat="35.1220304" lon="32.5251659">
<ele>75.96</ele>
<time>2015-04-26T10:52:54Z</time>
</trkpt>
<trkpt lat="35.1220966" lon="32.5251615">
<ele>76.44</ele>
<time>2015-04-26T10:52:55Z</time>
</trkpt>
<trkpt lat="35.1221601" lon="32.5251402">
<ele>77.18</ele>
<time>2015-04-26T10:52:56Z</time>
</trkpt>
<trkpt lat="35.1222093" lon="32.5251142">
<ele>78.05</ele>
<time>2015-04-26T10:52:57Z</time>
</trkpt>
<trkpt lat="35.1222547" lon="32.5250734">
<ele>78.49</ele>
<time>2015-04-26T10:52:58Z</time>
</trkpt>
<trkpt lat="35.1223058" lon="32.5250179">
<ele>79.32</ele>
<time>2015-04-26T10:53:00Z</time>
</trkpt>
<trkpt lat="35.1223357" lon="32.5249735">
<ele>80.22</ele>
<time>2015-04-26T10:53:03Z</time>
</trkpt>
<trkpt lat="35.1223538" lon="32.5249160">
<ele>80.46</ele>
<time>2015-04-26T10:53:06Z</time>
</trkpt>
<trkpt lat="35.1223710" lon="32.5248593">
<ele>80.87</ele>
<time>2015-04-26T10:53:09Z</time>
</trkpt>
<trkpt lat="35.1223979" lon="32.5248061">
<ele>83.04</ele>
<time>2015-04-26T10:53:12Z</time>
</trkpt>
<trkpt lat="35.1224319" lon="32.5247605">
<ele>83.56</ele>
<time>2015-04-26T10:53:15Z</time>
</trkpt>
<trkpt lat="35.1224666" lon="32.5247188">
<ele>84.63</ele>
<time>2015-04-26T10:53:18Z</time>
</trkpt>
<trkpt lat="35.1225046" lon="32.5246880">
<ele>85.39</ele>
<time>2015-04-26T10:53:21Z</time>
</trkpt>
<trkpt lat="35.1225500" lon="32.5246772">
<ele>85.73</ele>
<time>2015-04-26T10:53:24Z</time>
</trkpt>
<trkpt lat="35.1225973" lon="32.5246704">
<ele>85.90</ele>
<time>2015-04-26T10:53:27Z</time>
</trkpt>
<trkpt lat="35.1226450" lon="32.5246684">
<ele>85.05</ele>
<time>2015-04-26T10:53:30Z</time>
</trkpt>
<trkpt lat="35.1226932" lon="32.5246725">
<ele>84.19</ele>
<time>2015-04-26T10:53:33Z</time>
</trkpt>
<trkpt lat="35.1227496" lon="32.5246807">
<ele>83.96</ele>
<time>2015-04-26T10:53:36Z</time>
</trkpt>
<trkpt lat="35.1228169" lon="32.5246963">
<ele>84.43</ele>
<time>2015-04-26T10:53:39Z</time>
</trkpt>
<trkpt lat="35.1228757" lon="32.5247091">
<ele>84.30</ele>
<time>2015-04-26T10:53:41Z</time>
</trkpt>
<trkpt lat="35.1229334" lon="32.5247261">
<ele>83.52</ele>
<time>2015-04-26T10:53:43Z</time>
</trkpt>
<trkpt lat="35.1229872" lon="32.5247450">
<ele>82.57</ele>
<time>2015-04-26T10:53:45Z</time>
</trkpt>
<trkpt lat="35.1230452" lon="32.5247725">
<ele>83.34</ele>
<time>2015-04-26T10:53:47Z</time>
</trkpt>
<trkpt lat="35.1230991" lon="32.5247972">
<ele>83.78</ele>
<time>2015-04-26T10:53:49Z</time>
</trkpt>
<trkpt lat="35.1231565" lon="32.5248274">
<ele>83.89</ele>
<time>2015-04-26T10:53:51Z</time>
</trkpt>
<trkpt lat="35.1232156" lon="32.5248622">
<ele>83.92</ele>
<time>2015-04-26T10:53:53Z</time>
</trkpt>
<trkpt lat="35.1232738" lon="32.5249093">
<ele>83.92</ele>
<time>2015-04-26T10:53:55Z</time>
</trkpt>
<trkpt lat="35.1233271" lon="32.5249704">
<ele>83.92</ele>
<time>2015-04-26T10:53:57Z</time>
</trkpt>
<trkpt lat="35.1233823" lon="32.5250425">
<ele>83.92</ele>
<time>2015-04-26T10:53:59Z</time>
</trkpt>
<trkpt lat="35.1234377" lon="32.5251075">
<ele>83.42</ele>
<time>2015-04-26T10:54:00Z</time>
</trkpt>
<trkpt lat="35.1234744" lon="32.5251411">
<ele>83.17</ele>
<time>2015-04-26T10:54:01Z</time>
</trkpt>
<trkpt lat="35.1235208" lon="32.5251770">
<ele>82.55</ele>
<time>2015-04-26T10:54:02Z</time>
</trkpt>
<trkpt lat="35.1236089" lon="32.5252152">
<ele>81.58</ele>
<time>2015-04-26T10:54:04Z</time>
</trkpt>
<trkpt lat="35.1236576" lon="32.5252347">
<ele>81.25</ele>
<time>2015-04-26T10:54:05Z</time>
</trkpt>
<trkpt lat="35.1237109" lon="32.5252520">
<ele>81.59</ele>
<time>2015-04-26T10:54:06Z</time>
</trkpt>
<trkpt lat="35.1237608" lon="32.5252656">
<ele>81.76</ele>
<time>2015-04-26T10:54:07Z</time>
</trkpt>
<trkpt lat="35.1238148" lon="32.5252787">
<ele>81.84</ele>
<time>2015-04-26T10:54:08Z</time>
</trkpt>
<trkpt lat="35.1238680" lon="32.5252868">
<ele>82.38</ele>
<time>2015-04-26T10:54:09Z</time>
</trkpt>
<trkpt lat="35.1239182" lon="32.5252864">
<ele>82.65</ele>
<time>2015-04-26T10:54:10Z</time>
</trkpt>
<trkpt lat="35.1239621" lon="32.5253019">
<ele>82.79</ele>
<time>2015-04-26T10:54:11Z</time>
</trkpt>
<trkpt lat="35.1240068" lon="32.5253267">
<ele>83.36</ele>
<time>2015-04-26T10:54:12Z</time>
</trkpt>
<trkpt lat="35.1240594" lon="32.5253598">
<ele>84.53</ele>
<time>2015-04-26T10:54:14Z</time>
</trkpt>
<trkpt lat="35.1241003" lon="32.5254099">
<ele>85.58</ele>
<time>2015-04-26T10:54:16Z</time>
</trkpt>
<trkpt lat="35.1241497" lon="32.5254498">
<ele>85.84</ele>
<time>2015-04-26T10:54:18Z</time>
</trkpt>
<trkpt lat="35.1242116" lon="32.5254914">
<ele>85.90</ele>
<time>2015-04-26T10:54:20Z</time>
</trkpt>
<trkpt lat="35.1242616" lon="32.5255332">
<ele>86.67</ele>
<time>2015-04-26T10:54:22Z</time>
</trkpt>
<trkpt lat="35.1243079" lon="32.5255714">
<ele>86.86</ele>
<time>2015-04-26T10:54:24Z</time>
</trkpt>
<trkpt lat="35.1243532" lon="32.5256144">
<ele>86.91</ele>
<time>2015-04-26T10:54:26Z</time>
</trkpt>
<trkpt lat="35.1244021" lon="32.5256570">
<ele>88.17</ele>
<time>2015-04-26T10:54:28Z</time>
</trkpt>
<trkpt lat="35.1244458" lon="32.5256962">
<ele>88.74</ele>
<time>2015-04-26T10:54:30Z</time>
</trkpt>
<trkpt lat="35.1244872" lon="32.5257325">
<ele>89.63</ele>
<time>2015-04-26T10:54:32Z</time>
</trkpt>
<trkpt lat="35.1245316" lon="32.5257652">
<ele>89.85</ele>
<time>2015-04-26T10:54:34Z</time>
</trkpt>
<trkpt lat="35.1245804" lon="32.5257971">
<ele>90.66</ele>
<time>2015-04-26T10:54:36Z</time>
</trkpt>
<trkpt lat="35.1246293" lon="32.5258350">
<ele>91.61</ele>
<time>2015-04-26T10:54:38Z</time>
</trkpt>
<trkpt lat="35.1246779" lon="32.5258822">
<ele>91.60</ele>
<time>2015-04-26T10:54:40Z</time>
</trkpt>
<trkpt lat="35.1247268" lon="32.5259200">
<ele>91.84</ele>
<time>2015-04-26T10:54:42Z</time>
</trkpt>
<trkpt lat="35.1247657" lon="32.5259510">
<ele>91.90</ele>
<time>2015-04-26T10:54:44Z</time>
</trkpt>
<trkpt lat="35.1248112" lon="32.5259810">
<ele>92.80</ele>
<time>2015-04-26T10:54:47Z</time>
</trkpt>
<trkpt lat="35.1248608" lon="32.5260042">
<ele>92.16</ele>
<time>2015-04-26T10:54:50Z</time>
</trkpt>
<trkpt lat="35.1249028" lon="32.5260285">
<ele>91.08</ele>
<time>2015-04-26T10:54:53Z</time>
</trkpt>
<trkpt lat="35.1249394" lon="32.5260639">
<ele>91.82</ele>
<time>2015-04-26T10:54:56Z</time>
</trkpt>
<trkpt lat="35.1249800" lon="32.5260974">
<ele>91.41</ele>
<time>2015-04-26T10:54:59Z</time>
</trkpt>
<trkpt lat="35.1250235" lon="32.5261384">
<ele>91.74</ele>
<time>2015-04-26T10:55:02Z</time>
</trkpt>
<trkpt lat="35.1250580" lon="32.5261798">
<ele>94.28</ele>
<time>2015-04-26T10:55:05Z</time>
</trkpt>
<trkpt lat="35.1250827" lon="32.5262271">
<ele>94.84</ele>
<time>2015-04-26T10:55:08Z</time>
</trkpt>
<trkpt lat="35.1251151" lon="32.5262833">
<ele>95.16</ele>
<time>2015-04-26T10:55:11Z</time>
</trkpt>
<trkpt lat="35.1251440" lon="32.5263518">
<ele>95.83</ele>
<time>2015-04-26T10:55:14Z</time>
</trkpt>
<trkpt lat="35.1251488" lon="32.5264066">
<ele>95.90</ele>
<time>2015-04-26T10:55:16Z</time>
</trkpt>
<trkpt lat="35.1251454" lon="32.5264693">
<ele>96.67</ele>
<time>2015-04-26T10:55:18Z</time>
</trkpt>
<trkpt lat="35.1251421" lon="32.5265504">
<ele>96.86</ele>
<time>2015-04-26T10:55:20Z</time>
</trkpt>
<trkpt lat="35.1251460" lon="32.5266384">
<ele>97.16</ele>
<time>2015-04-26T10:55:22Z</time>
</trkpt>
<trkpt lat="35.1251540" lon="32.5267255">
<ele>96.73</ele>
<time>2015-04-26T10:55:24Z</time>
</trkpt>
<trkpt lat="35.1251644" lon="32.5268094">
<ele>96.13</ele>
<time>2015-04-26T10:55:26Z</time>
</trkpt>
<trkpt lat="35.1252049" lon="32.5268788">
<ele>95.98</ele>
<time>2015-04-26T10:55:28Z</time>
</trkpt>
<trkpt lat="35.1252750" lon="32.5268862">
<ele>97.69</ele>
<time>2015-04-26T10:55:30Z</time>
</trkpt>
<trkpt lat="35.1253364" lon="32.5268300">
<ele>99.37</ele>
<time>2015-04-26T10:55:32Z</time>
</trkpt>
<trkpt lat="35.1253894" lon="32.5267718">
<ele>99.54</ele>
<time>2015-04-26T10:55:34Z</time>
</trkpt>
<trkpt lat="35.1254441" lon="32.5267460">
<ele>99.08</ele>
<time>2015-04-26T10:55:36Z</time>
</trkpt>
<trkpt lat="35.1254958" lon="32.5267533">
<ele>97.71</ele>
<time>2015-04-26T10:55:38Z</time>
</trkpt>
<trkpt lat="35.1255447" lon="32.5267751">
<ele>98.37</ele>
<time>2015-04-26T10:55:40Z</time>
</trkpt>
<trkpt lat="35.1255898" lon="32.5268055">
<ele>98.29</ele>
<time>2015-04-26T10:55:42Z</time>
</trkpt>
<trkpt lat="35.1256323" lon="32.5268590">
<ele>97.97</ele>
<time>2015-04-26T10:55:45Z</time>
</trkpt>
<trkpt lat="35.1256561" lon="32.5269058">
<ele>97.94</ele>
<time>2015-04-26T10:55:47Z</time>
</trkpt>
<trkpt lat="35.1256865" lon="32.5269659">
<ele>97.18</ele>
<time>2015-04-26T10:55:49Z</time>
</trkpt>
<trkpt lat="35.1257243" lon="32.5270444">
<ele>96.49</ele>
<time>2015-04-26T10:55:51Z</time>
</trkpt>
<trkpt lat="35.1257599" lon="32.5271331">
<ele>95.57</ele>
<time>2015-04-26T10:55:53Z</time>
</trkpt>
<trkpt lat="35.1257802" lon="32.5272239">
<ele>93.84</ele>
<time>2015-04-26T10:55:55Z</time>
</trkpt>
<trkpt lat="35.1258178" lon="32.5273040">
<ele>91.40</ele>
<time>2015-04-26T10:55:57Z</time>
</trkpt>
<trkpt lat="35.1258748" lon="32.5273322">
<ele>90.16</ele>
<time>2015-04-26T10:55:58Z</time>
</trkpt>
<trkpt lat="35.1259337" lon="32.5273710">
<ele>89.54</ele>
<time>2015-04-26T10:55:59Z</time>
</trkpt>
<trkpt lat="35.1260047" lon="32.5274051">
<ele>88.73</ele>
<time>2015-04-26T10:56:00Z</time>
</trkpt>
<trkpt lat="35.1260803" lon="32.5274348">
<ele>88.33</ele>
<time>2015-04-26T10:56:01Z</time>
</trkpt>
<trkpt lat="35.1261531" lon="32.5274440">
<ele>88.13</ele>
<time>2015-04-26T10:56:02Z</time>
</trkpt>
<trkpt lat="35.1262038" lon="32.5274370">
<ele>87.53</ele>
<time>2015-04-26T10:56:03Z</time>
</trkpt>
<trkpt lat="35.1262586" lon="32.5273771">
<ele>87.33</ele>
<time>2015-04-26T10:56:05Z</time>
</trkpt>
<trkpt lat="35.1262924" lon="32.5272894">
<ele>87.03</ele>
<time>2015-04-26T10:56:07Z</time>
</trkpt>
<trkpt lat="35.1263063" lon="32.5272023">
<ele>86.20</ele>
<time>2015-04-26T10:56:09Z</time>
</trkpt>
<trkpt lat="35.1262970" lon="32.5271368">
<ele>86.74</ele>
<time>2015-04-26T10:56:11Z</time>
</trkpt>
<trkpt lat="35.1262960" lon="32.5270741">
<ele>88.03</ele>
<time>2015-04-26T10:56:14Z</time>
</trkpt>
<trkpt lat="35.1262972" lon="32.5270077">
<ele>89.31</ele>
<time>2015-04-26T10:56:17Z</time>
</trkpt>
<trkpt lat="35.1263045" lon="32.5269439">
<ele>90.22</ele>
<time>2015-04-26T10:56:20Z</time>
</trkpt>
<trkpt lat="35.1263274" lon="32.5268822">
<ele>90.34</ele>
<time>2015-04-26T10:56:23Z</time>
</trkpt>
<trkpt lat="35.1263661" lon="32.5268290">
<ele>92.98</ele>
<time>2015-04-26T10:56:26Z</time>
</trkpt>
<trkpt lat="35.1264133" lon="32.5267887">
<ele>94.68</ele>
<time>2015-04-26T10:56:29Z</time>
</trkpt>
<trkpt lat="35.1264689" lon="32.5267688">
<ele>95.52</ele>
<time>2015-04-26T10:56:32Z</time>
</trkpt>
<trkpt lat="35.1265245" lon="32.5267641">
<ele>96.62</ele>
<time>2015-04-26T10:56:35Z</time>
</trkpt>
<trkpt lat="35.1265763" lon="32.5267740">
<ele>97.64</ele>
<time>2015-04-26T10:56:38Z</time>
</trkpt>
<trkpt lat="35.1266269" lon="32.5267777">
<ele>98.39</ele>
<time>2015-04-26T10:56:41Z</time>
</trkpt>
<trkpt lat="35.1266757" lon="32.5267913">
<ele>98.86</ele>
<time>2015-04-26T10:56:44Z</time>
</trkpt>
<trkpt lat="35.1267167" lon="32.5268176">
<ele>99.67</ele>
<time>2015-04-26T10:56:47Z</time>
</trkpt>
<trkpt lat="35.1267743" lon="32.5268483">
<ele>99.91</ele>
<time>2015-04-26T10:56:51Z</time>
</trkpt>
<trkpt lat="35.1268282" lon="32.5268900">
<ele>99.30</ele>
<time>2015-04-26T10:56:54Z</time>
</trkpt>
<trkpt lat="35.1268663" lon="32.5269274">
<ele>98.52</ele>
<time>2015-04-26T10:56:56Z</time>
</trkpt>
<trkpt lat="35.1269104" lon="32.5269749">
<ele>97.57</ele>
<time>2015-04-26T10:56:58Z</time>
</trkpt>
<trkpt lat="35.1269550" lon="32.5270180">
<ele>96.34</ele>
<time>2015-04-26T10:57:00Z</time>
</trkpt>
<trkpt lat="35.1269896" lon="32.5270599">
<ele>95.53</ele>
<time>2015-04-26T10:57:02Z</time>
</trkpt>
<trkpt lat="35.1270055" lon="32.5271218">
<ele>92.19</ele>
<time>2015-04-26T10:57:23Z</time>
</trkpt>
<trkpt lat="35.1270792" lon="32.5272518">
<ele>90.74</ele>
<time>2015-04-26T10:57:25Z</time>
</trkpt>
<trkpt lat="35.1271203" lon="32.5272999">
<ele>89.83</ele>
<time>2015-04-26T10:57:26Z</time>
</trkpt>
<trkpt lat="35.1271768" lon="32.5273516">
<ele>89.38</ele>
<time>2015-04-26T10:57:27Z</time>
</trkpt>
<trkpt lat="35.1272389" lon="32.5274046">
<ele>88.65</ele>
<time>2015-04-26T10:57:28Z</time>
</trkpt>
<trkpt lat="35.1273111" lon="32.5274590">
<ele>87.79</ele>
<time>2015-04-26T10:57:29Z</time>
</trkpt>
<trkpt lat="35.1273861" lon="32.5275134">
<ele>86.86</ele>
<time>2015-04-26T10:57:30Z</time>
</trkpt>
<trkpt lat="35.1274787" lon="32.5275290">
<ele>87.39</ele>
<time>2015-04-26T10:57:31Z</time>
</trkpt>
<trkpt lat="35.1275532" lon="32.5275409">
<ele>87.66</ele>
<time>2015-04-26T10:57:32Z</time>
</trkpt>
<trkpt lat="35.1276295" lon="32.5275482">
<ele>87.79</ele>
<time>2015-04-26T10:57:33Z</time>
</trkpt>
<trkpt lat="35.1277033" lon="32.5275635">
<ele>87.86</ele>
<time>2015-04-26T10:57:34Z</time>
</trkpt>
<trkpt lat="35.1277719" lon="32.5275759">
<ele>88.39</ele>
<time>2015-04-26T10:57:35Z</time>
</trkpt>
<trkpt lat="35.1278410" lon="32.5275780">
<ele>88.66</ele>
<time>2015-04-26T10:57:36Z</time>
</trkpt>
<trkpt lat="35.1279016" lon="32.5275668">
<ele>88.79</ele>
<time>2015-04-26T10:57:37Z</time>
</trkpt>
<trkpt lat="35.1279373" lon="32.5275172">
<ele>88.86</ele>
<time>2015-04-26T10:57:38Z</time>
</trkpt>
<trkpt lat="35.1279613" lon="32.5274702">
<ele>88.39</ele>
<time>2015-04-26T10:57:39Z</time>
</trkpt>
<trkpt lat="35.1279751" lon="32.5274045">
<ele>89.54</ele>
<time>2015-04-26T10:57:41Z</time>
</trkpt>
<trkpt lat="35.1280018" lon="32.5273349">
<ele>90.75</ele>
<time>2015-04-26T10:57:44Z</time>
</trkpt>
<trkpt lat="35.1280308" lon="32.5272850">
<ele>92.38</ele>
<time>2015-04-26T10:57:46Z</time>
</trkpt>
<trkpt lat="35.1280760" lon="32.5272607">
<ele>92.79</ele>
<time>2015-04-26T10:57:48Z</time>
</trkpt>
<trkpt lat="35.1281309" lon="32.5272296">
<ele>92.91</ele>
<time>2015-04-26T10:57:51Z</time>
</trkpt>
<trkpt lat="35.1281889" lon="32.5272173">
<ele>92.92</ele>
<time>2015-04-26T10:57:54Z</time>
</trkpt>
<trkpt lat="35.1282458" lon="32.5272140">
<ele>92.92</ele>
<time>2015-04-26T10:57:57Z</time>
</trkpt>
<trkpt lat="35.1283018" lon="32.5271928">
<ele>93.05</ele>
<time>2015-04-26T10:58:00Z</time>
</trkpt>
<trkpt lat="35.1282562" lon="32.5272342">
<ele>92.77</ele>
<time>2015-04-26T10:58:07Z</time>
</trkpt>
<trkpt lat="35.1282047" lon="32.5272336">
<ele>93.14</ele>
<time>2015-04-26T10:58:09Z</time>
</trkpt>
<trkpt lat="35.1281532" lon="32.5272366">
<ele>92.48</ele>
<time>2015-04-26T10:58:11Z</time>
</trkpt>
<trkpt lat="35.1281073" lon="32.5272455">
<ele>92.06</ele>
<time>2015-04-26T10:58:13Z</time>
</trkpt>
<trkpt lat="35.1280701" lon="32.5272988">
<ele>92.57</ele>
<time>2015-04-26T10:58:16Z</time>
</trkpt>
<trkpt lat="35.1280745" lon="32.5273788">
<ele>95.13</ele>
<time>2015-04-26T10:58:19Z</time>
</trkpt>
<trkpt lat="35.1281036" lon="32.5274443">
<ele>96.08</ele>
<time>2015-04-26T10:58:22Z</time>
</trkpt>
<trkpt lat="35.1281265" lon="32.5275016">
<ele>96.82</ele>
<time>2015-04-26T10:58:25Z</time>
</trkpt>
<trkpt lat="35.1281559" lon="32.5275552">
<ele>96.91</ele>
<time>2015-04-26T10:58:28Z</time>
</trkpt>
<trkpt lat="35.1281879" lon="32.5276018">
<ele>95.30</ele>
<time>2015-04-26T10:58:31Z</time>
</trkpt>
<trkpt lat="35.1282198" lon="32.5276475">
<ele>94.97</ele>
<time>2015-04-26T10:58:34Z</time>
</trkpt>
<trkpt lat="35.1282563" lon="32.5276831">
<ele>94.93</ele>
<time>2015-04-26T10:58:37Z</time>
</trkpt>
<trkpt lat="35.1283005" lon="32.5277197">
<ele>97.11</ele>
<time>2015-04-26T10:58:41Z</time>
</trkpt>
<trkpt lat="35.1283454" lon="32.5277554">
<ele>96.94</ele>
<time>2015-04-26T10:58:45Z</time>
</trkpt>
<trkpt lat="35.1283821" lon="32.5277992">
<ele>96.93</ele>
<time>2015-04-26T10:58:49Z</time>
</trkpt>
<trkpt lat="35.1284111" lon="32.5278457">
<ele>97.05</ele>
<time>2015-04-26T10:58:53Z</time>
</trkpt>
<trkpt lat="35.1284063" lon="32.5279089">
<ele>100.47</ele>
<time>2015-04-26T10:59:05Z</time>
</trkpt>
<trkpt lat="35.1284220" lon="32.5279656">
<ele>101.91</ele>
<time>2015-04-26T10:59:10Z</time>
</trkpt>
<trkpt lat="35.1284427" lon="32.5280254">
<ele>104.17</ele>
<time>2015-04-26T10:59:16Z</time>
</trkpt>
<trkpt lat="35.1284486" lon="32.5280831">
<ele>104.91</ele>
<time>2015-04-26T10:59:22Z</time>
</trkpt>
<trkpt lat="35.1284657" lon="32.5281369">
<ele>108.57</ele>
<time>2015-04-26T10:59:29Z</time>
</trkpt>
<trkpt lat="35.1285042" lon="32.5281786">
<ele>107.53</ele>
<time>2015-04-26T10:59:42Z</time>
</trkpt>
<trkpt lat="35.1285496" lon="32.5281809">
<ele>106.94</ele>
<time>2015-04-26T10:59:47Z</time>
</trkpt>
<trkpt lat="35.1286043" lon="32.5281711">
<ele>104.30</ele>
<time>2015-04-26T11:00:07Z</time>
</trkpt>
<trkpt lat="35.1286606" lon="32.5281683">
<ele>103.95</ele>
<time>2015-04-26T11:00:11Z</time>
</trkpt>
<trkpt lat="35.1287089" lon="32.5281650">
<ele>103.93</ele>
<time>2015-04-26T11:00:14Z</time>
</trkpt>
<trkpt lat="35.1287678" lon="32.5281572">
<ele>105.55</ele>
<time>2015-04-26T11:00:18Z</time>
</trkpt>
<trkpt lat="35.1288146" lon="32.5281632">
<ele>105.88</ele>
<time>2015-04-26T11:00:21Z</time>
</trkpt>
<trkpt lat="35.1288663" lon="32.5281755">
<ele>106.04</ele>
<time>2015-04-26T11:00:24Z</time>
</trkpt>
<trkpt lat="35.1289206" lon="32.5281959">
<ele>104.70</ele>
<time>2015-04-26T11:00:26Z</time>
</trkpt>
<trkpt lat="35.1289735" lon="32.5282154">
<ele>103.62</ele>
<time>2015-04-26T11:00:28Z</time>
</trkpt>
<trkpt lat="35.1290182" lon="32.5282367">
<ele>102.60</ele>
<time>2015-04-26T11:00:30Z</time>
</trkpt>
<trkpt lat="35.1290769" lon="32.5282746">
<ele>103.01</ele>
<time>2015-04-26T11:00:33Z</time>
</trkpt>
<trkpt lat="35.1291311" lon="32.5283083">
<ele>102.19</ele>
<time>2015-04-26T11:00:36Z</time>
</trkpt>
<trkpt lat="35.1291727" lon="32.5283341">
<ele>103.24</ele>
<time>2015-04-26T11:00:38Z</time>
</trkpt>
<trkpt lat="35.1292216" lon="32.5283650">
<ele>104.50</ele>
<time>2015-04-26T11:00:40Z</time>
</trkpt>
<trkpt lat="35.1292735" lon="32.5284000">
<ele>104.82</ele>
<time>2015-04-26T11:00:42Z</time>
</trkpt>
<trkpt lat="35.1293261" lon="32.5284368">
<ele>104.90</ele>
<time>2015-04-26T11:00:44Z</time>
</trkpt>
<trkpt lat="35.1293773" lon="32.5284729">
<ele>104.92</ele>
<time>2015-04-26T11:00:46Z</time>
</trkpt>
<trkpt lat="35.1294264" lon="32.5285125">
<ele>105.42</ele>
<time>2015-04-26T11:00:48Z</time>
</trkpt>
<trkpt lat="35.1294721" lon="32.5285579">
<ele>105.30</ele>
<time>2015-04-26T11:00:50Z</time>
</trkpt>
<trkpt lat="35.1295105" lon="32.5286050">
<ele>105.52</ele>
<time>2015-04-26T11:00:52Z</time>
</trkpt>
<trkpt lat="35.1295412" lon="32.5286456">
<ele>105.57</ele>
<time>2015-04-26T11:00:54Z</time>
</trkpt>
<trkpt lat="35.1295740" lon="32.5286860">
<ele>105.38</ele>
<time>2015-04-26T11:00:57Z</time>
</trkpt>
<trkpt lat="35.1296168" lon="32.5287283">
<ele>105.89</ele>
<time>2015-04-26T11:01:01Z</time>
</trkpt>
<trkpt lat="35.1296759" lon="32.5287758">
<ele>105.92</ele>
<time>2015-04-26T11:01:04Z</time>
</trkpt>
<trkpt lat="35.1297298" lon="32.5288159">
<ele>105.92</ele>
<time>2015-04-26T11:01:06Z</time>
</trkpt>
<trkpt lat="35.1297861" lon="32.5288601">
<ele>106.42</ele>
<time>2015-04-26T11:01:08Z</time>
</trkpt>
<trkpt lat="35.1298412" lon="32.5289089">
<ele>106.80</ele>
<time>2015-04-26T11:01:10Z</time>
</trkpt>
<trkpt lat="35.1298923" lon="32.5289631">
<ele>106.89</ele>
<time>2015-04-26T11:01:12Z</time>
</trkpt>
<trkpt lat="35.1299328" lon="32.5290215">
<ele>106.17</ele>
<time>2015-04-26T11:01:14Z</time>
</trkpt>
<trkpt lat="35.1299457" lon="32.5290750">
<ele>105.99</ele>
<time>2015-04-26T11:01:16Z</time>
</trkpt>
<trkpt lat="35.1299375" lon="32.5291305">
<ele>107.56</ele>
<time>2015-04-26T11:01:19Z</time>
</trkpt>
<trkpt lat="35.1299080" lon="32.5291733">
<ele>108.38</ele>
<time>2015-04-26T11:01:22Z</time>
</trkpt>
<trkpt lat="35.1298708" lon="32.5292269">
<ele>107.95</ele>
<time>2015-04-26T11:01:26Z</time>
</trkpt>
<trkpt lat="35.1298586" lon="32.5292907">
<ele>108.68</ele>
<time>2015-04-26T11:01:30Z</time>
</trkpt>
<trkpt lat="35.1298836" lon="32.5293474">
<ele>108.47</ele>
<time>2015-04-26T11:01:34Z</time>
</trkpt>
<trkpt lat="35.1299275" lon="32.5293723">
<ele>108.68</ele>
<time>2015-04-26T11:01:48Z</time>
</trkpt>
<trkpt lat="35.1299640" lon="32.5294058">
<ele>107.47</ele>
<time>2015-04-26T11:01:57Z</time>
</trkpt>
<trkpt lat="35.1300104" lon="32.5294228">
<ele>108.93</ele>
<time>2015-04-26T11:02:07Z</time>
</trkpt>
<trkpt lat="35.1300576" lon="32.5294361">
<ele>108.39</ele>
<time>2015-04-26T11:02:14Z</time>
</trkpt>
<trkpt lat="35.1301070" lon="32.5294524">
<ele>108.17</ele>
<time>2015-04-26T11:02:20Z</time>
</trkpt>
<trkpt lat="35.1301504" lon="32.5294670">
<ele>108.00</ele>
<time>2015-04-26T11:02:25Z</time>
</trkpt>
<trkpt lat="35.1301936" lon="32.5294961">
<ele>107.93</ele>
<time>2015-04-26T11:02:31Z</time>
</trkpt>
<trkpt lat="35.1302404" lon="32.5295069">
<ele>108.58</ele>
<time>2015-04-26T11:02:38Z</time>
</trkpt>
<trkpt lat="35.1302737" lon="32.5295472">
<ele>106.97</ele>
<time>2015-04-26T11:02:42Z</time>
</trkpt>
<trkpt lat="35.1303259" lon="32.5295951">
<ele>104.99</ele>
<time>2015-04-26T11:02:46Z</time>
</trkpt>
<trkpt lat="35.1303770" lon="32.5296214">
<ele>104.19</ele>
<time>2015-04-26T11:02:48Z</time>
</trkpt>
<trkpt lat="35.1304273" lon="32.5296388">
<ele>104.49</ele>
<time>2015-04-26T11:02:50Z</time>
</trkpt>
<trkpt lat="35.1304713" lon="32.5296525">
<ele>105.32</ele>
<time>2015-04-26T11:02:52Z</time>
</trkpt>
<trkpt lat="35.1305305" lon="32.5296662">
<ele>107.10</ele>
<time>2015-04-26T11:02:55Z</time>
</trkpt>
<trkpt lat="35.1305798" lon="32.5296841">
<ele>108.32</ele>
<time>2015-04-26T11:02:58Z</time>
</trkpt>
<trkpt lat="35.1306327" lon="32.5297171">
<ele>110.14</ele>
<time>2015-04-26T11:03:02Z</time>
</trkpt>
<trkpt lat="35.1306678" lon="32.5297706">
<ele>109.20</ele>
<time>2015-04-26T11:03:05Z</time>
</trkpt>
<trkpt lat="35.1307061" lon="32.5298383">
<ele>110.21</ele>
<time>2015-04-26T11:03:08Z</time>
</trkpt>
<trkpt lat="35.1307317" lon="32.5298902">
<ele>110.75</ele>
<time>2015-04-26T11:03:10Z</time>
</trkpt>
<trkpt lat="35.1307607" lon="32.5299687">
<ele>110.38</ele>
<time>2015-04-26T11:03:12Z</time>
</trkpt>
<trkpt lat="35.1307901" lon="32.5300597">
<ele>109.54</ele>
<time>2015-04-26T11:03:14Z</time>
</trkpt>
<trkpt lat="35.1308245" lon="32.5301482">
<ele>107.58</ele>
<time>2015-04-26T11:03:16Z</time>
</trkpt>
<trkpt lat="35.1309296" lon="32.5301903">
<ele>107.59</ele>
<time>2015-04-26T11:03:18Z</time>
</trkpt>
<trkpt lat="35.1309731" lon="32.5301722">
<ele>108.76</ele>
<time>2015-04-26T11:03:19Z</time>
</trkpt>
<trkpt lat="35.1310416" lon="32.5301509">
<ele>109.63</ele>
<time>2015-04-26T11:03:21Z</time>
</trkpt>
<trkpt lat="35.1310868" lon="32.5301495">
<ele>110.35</ele>
<time>2015-04-26T11:03:23Z</time>
</trkpt>
<trkpt lat="35.1311471" lon="32.5301657">
<ele>113.55</ele>
<time>2015-04-26T11:03:59Z</time>
</trkpt>
<trkpt lat="35.1311906" lon="32.5301872">
<ele>114.08</ele>
<time>2015-04-26T11:04:01Z</time>
</trkpt>
<trkpt lat="35.1312505" lon="32.5302258">
<ele>112.96</ele>
<time>2015-04-26T11:04:03Z</time>
</trkpt>
<trkpt lat="35.1313387" lon="32.5302550">
<ele>112.43</ele>
<time>2015-04-26T11:04:05Z</time>
</trkpt>
<trkpt lat="35.1313852" lon="32.5302502">
<ele>112.68</ele>
<time>2015-04-26T11:04:06Z</time>
</trkpt>
<trkpt lat="35.1314272" lon="32.5302280">
<ele>113.30</ele>
<time>2015-04-26T11:04:07Z</time>
</trkpt>
<trkpt lat="35.1314802" lon="32.5301498">
<ele>114.27</ele>
<time>2015-04-26T11:04:09Z</time>
</trkpt>
<trkpt lat="35.1314918" lon="32.5300589">
<ele>114.76</ele>
<time>2015-04-26T11:04:11Z</time>
</trkpt>
<trkpt lat="35.1314904" lon="32.5299824">
<ele>115.63</ele>
<time>2015-04-26T11:04:13Z</time>
</trkpt>
<trkpt lat="35.1314879" lon="32.5299267">
<ele>115.85</ele>
<time>2015-04-26T11:04:15Z</time>
</trkpt>
<trkpt lat="35.1315021" lon="32.5298530">
<ele>116.17</ele>
<time>2015-04-26T11:04:18Z</time>
</trkpt>
<trkpt lat="35.1315275" lon="32.5297950">
<ele>115.08</ele>
<time>2015-04-26T11:04:21Z</time>
</trkpt>
<trkpt lat="35.1315662" lon="32.5297513">
<ele>113.69</ele>
<time>2015-04-26T11:04:24Z</time>
</trkpt>
<trkpt lat="35.1316122" lon="32.5297145">
<ele>113.90</ele>
<time>2015-04-26T11:04:27Z</time>
</trkpt>
<trkpt lat="35.1316648" lon="32.5296939">
<ele>114.80</ele>
<time>2015-04-26T11:04:30Z</time>
</trkpt>
<trkpt lat="35.1317201" lon="32.5296729">
<ele>114.91</ele>
<time>2015-04-26T11:04:33Z</time>
</trkpt>
<trkpt lat="35.1317752" lon="32.5296613">
<ele>114.05</ele>
<time>2015-04-26T11:04:36Z</time>
</trkpt>
<trkpt lat="35.1318297" lon="32.5296446">
<ele>111.94</ele>
<time>2015-04-26T11:04:39Z</time>
</trkpt>
<trkpt lat="35.1318890" lon="32.5296145">
<ele>111.43</ele>
<time>2015-04-26T11:04:42Z</time>
</trkpt>
<trkpt lat="35.1319544" lon="32.5295966">
<ele>111.36</ele>
<time>2015-04-26T11:04:45Z</time>
</trkpt>
<trkpt lat="35.1320053" lon="32.5295956">
<ele>110.78</ele>
<time>2015-04-26T11:04:47Z</time>
</trkpt>
<trkpt lat="35.1320711" lon="32.5296113">
<ele>110.64</ele>
<time>2015-04-26T11:04:49Z</time>
</trkpt>
<trkpt lat="35.1321363" lon="32.5296366">
<ele>112.10</ele>
<time>2015-04-26T11:04:51Z</time>
</trkpt>
<trkpt lat="35.1321922" lon="32.5296646">
<ele>114.22</ele>
<time>2015-04-26T11:04:53Z</time>
</trkpt>
<trkpt lat="35.1322416" lon="32.5296898">
<ele>115.50</ele>
<time>2015-04-26T11:04:55Z</time>
</trkpt>
<trkpt lat="35.1322910" lon="32.5297030">
<ele>115.82</ele>
<time>2015-04-26T11:04:57Z</time>
</trkpt>
<trkpt lat="35.1323402" lon="32.5297038">
<ele>116.65</ele>
<time>2015-04-26T11:04:59Z</time>
</trkpt>
<trkpt lat="35.1323855" lon="32.5296890">
<ele>117.36</ele>
<time>2015-04-26T11:05:01Z</time>
</trkpt>
<trkpt lat="35.1324140" lon="32.5296430">
<ele>118.28</ele>
<time>2015-04-26T11:05:03Z</time>
</trkpt>
<trkpt lat="35.1324292" lon="32.5295876">
<ele>118.51</ele>
<time>2015-04-26T11:05:05Z</time>
</trkpt>
<trkpt lat="35.1324389" lon="32.5295273">
<ele>118.37</ele>
<time>2015-04-26T11:05:08Z</time>
</trkpt>
<trkpt lat="35.1324288" lon="32.5294710">
<ele>117.95</ele>
<time>2015-04-26T11:05:12Z</time>
</trkpt>
<trkpt lat="35.1324132" lon="32.5294092">
<ele>118.68</ele>
<time>2015-04-26T11:05:16Z</time>
</trkpt>
<trkpt lat="35.1324071" lon="32.5293410">
<ele>120.16</ele>
<time>2015-04-26T11:05:20Z</time>
</trkpt>
<trkpt lat="35.1324034" lon="32.5292800">
<ele>120.33</ele>
<time>2015-04-26T11:05:23Z</time>
</trkpt>
<trkpt lat="35.1324064" lon="32.5292081">
<ele>120.35</ele>
<time>2015-04-26T11:05:26Z</time>
</trkpt>
<trkpt lat="35.1324090" lon="32.5291332">
<ele>120.48</ele>
<time>2015-04-26T11:05:29Z</time>
</trkpt>
<trkpt lat="35.1324222" lon="32.5290613">
<ele>120.99</ele>
<time>2015-04-26T11:05:32Z</time>
</trkpt>
<trkpt lat="35.1324367" lon="32.5289936">
<ele>121.06</ele>
<time>2015-04-26T11:05:35Z</time>
</trkpt>
<trkpt lat="35.1324504" lon="32.5289402">
<ele>120.96</ele>
<time>2015-04-26T11:05:37Z</time>
</trkpt>
<trkpt lat="35.1324720" lon="32.5288477">
<ele>121.68</ele>
<time>2015-04-26T11:05:39Z</time>
</trkpt>
<trkpt lat="35.1324901" lon="32.5287451">
<ele>121.30</ele>
<time>2015-04-26T11:05:40Z</time>
</trkpt>
<trkpt lat="35.1324990" lon="32.5286542">
<ele>121.02</ele>
<time>2015-04-26T11:05:42Z</time>
</trkpt>
<trkpt lat="35.1325177" lon="32.5285635">
<ele>120.20</ele>
<time>2015-04-26T11:05:44Z</time>
</trkpt>
<trkpt lat="35.1325394" lon="32.5284761">
<ele>120.74</ele>
<time>2015-04-26T11:05:46Z</time>
</trkpt>
<trkpt lat="35.1325968" lon="32.5284079">
<ele>119.63</ele>
<time>2015-04-26T11:05:48Z</time>
</trkpt>
<trkpt lat="35.1326433" lon="32.5283348">
<ele>118.60</ele>
<time>2015-04-26T11:05:50Z</time>
</trkpt>
<trkpt lat="35.1326988" lon="32.5282715">
<ele>117.59</ele>
<time>2015-04-26T11:05:52Z</time>
</trkpt>
<trkpt lat="35.1327624" lon="32.5282126">
<ele>116.34</ele>
<time>2015-04-26T11:05:54Z</time>
</trkpt>
<trkpt lat="35.1328396" lon="32.5281676">
<ele>115.28</ele>
<time>2015-04-26T11:05:56Z</time>
</trkpt>
<trkpt lat="35.1329213" lon="32.5281343">
<ele>114.51</ele>
<time>2015-04-26T11:05:58Z</time>
</trkpt>
<trkpt lat="35.1330020" lon="32.5281044">
<ele>114.07</ele>
<time>2015-04-26T11:06:00Z</time>
</trkpt>
<trkpt lat="35.1330808" lon="32.5280820">
<ele>113.96</ele>
<time>2015-04-26T11:06:02Z</time>
</trkpt>
<trkpt lat="35.1331577" lon="32.5280799">
<ele>113.18</ele>
<time>2015-04-26T11:06:04Z</time>
</trkpt>
<trkpt lat="35.1332574" lon="32.5281208">
<ele>111.74</ele>
<time>2015-04-26T11:06:06Z</time>
</trkpt>
<trkpt lat="35.1333185" lon="32.5281071">
<ele>111.33</ele>
<time>2015-04-26T11:06:07Z</time>
</trkpt>
<trkpt lat="35.1333780" lon="32.5280729">
<ele>112.13</ele>
<time>2015-04-26T11:06:08Z</time>
</trkpt>
<trkpt lat="35.1334223" lon="32.5280352">
<ele>112.53</ele>
<time>2015-04-26T11:06:09Z</time>
</trkpt>
<trkpt lat="35.1334652" lon="32.5279712">
<ele>114.08</ele>
<time>2015-04-26T11:06:11Z</time>
</trkpt>
<trkpt lat="35.1335044" lon="32.5279240">
<ele>116.18</ele>
<time>2015-04-26T11:06:15Z</time>
</trkpt>
<trkpt lat="35.1335553" lon="32.5279063">
<ele>114.74</ele>
<time>2015-04-26T11:06:17Z</time>
</trkpt>
<trkpt lat="35.1336011" lon="32.5278816">
<ele>113.38</ele>
<time>2015-04-26T11:06:19Z</time>
</trkpt>
<trkpt lat="35.1336530" lon="32.5278598">
<ele>113.79</ele>
<time>2015-04-26T11:06:21Z</time>
</trkpt>
<trkpt lat="35.1337035" lon="32.5278446">
<ele>114.14</ele>
<time>2015-04-26T11:06:23Z</time>
</trkpt>
<trkpt lat="35.1337514" lon="32.5278380">
<ele>113.48</ele>
<time>2015-04-26T11:06:25Z</time>
</trkpt>
<trkpt lat="35.1338141" lon="32.5278486">
<ele>113.37</ele>
<time>2015-04-26T11:06:28Z</time>
</trkpt>
<trkpt lat="35.1338625" lon="32.5278758">
<ele>112.23</ele>
<time>2015-04-26T11:06:31Z</time>
</trkpt>
<trkpt lat="35.1339040" lon="32.5279072">
<ele>111.50</ele>
<time>2015-04-26T11:06:33Z</time>
</trkpt>
<trkpt lat="35.1340345" lon="32.5279194">
<ele>111.57</ele>
<time>2015-04-26T11:06:35Z</time>
</trkpt>
<trkpt lat="35.1340770" lon="32.5278899">
<ele>111.25</ele>
<time>2015-04-26T11:06:36Z</time>
</trkpt>
<trkpt lat="35.1341356" lon="32.5278403">
<ele>111.01</ele>
<time>2015-04-26T11:06:38Z</time>
</trkpt>
<trkpt lat="35.1341972" lon="32.5277877">
<ele>111.45</ele>
<time>2015-04-26T11:06:40Z</time>
</trkpt>
<trkpt lat="35.1342462" lon="32.5277643">
<ele>112.56</ele>
<time>2015-04-26T11:06:42Z</time>
</trkpt>
<trkpt lat="35.1342995" lon="32.5277684">
<ele>113.83</ele>
<time>2015-04-26T11:06:44Z</time>
</trkpt>
<trkpt lat="35.1343584" lon="32.5277896">
<ele>113.40</ele>
<time>2015-04-26T11:06:46Z</time>
</trkpt>
<trkpt lat="35.1344133" lon="32.5278244">
<ele>111.79</ele>
<time>2015-04-26T11:06:48Z</time>
</trkpt>
<trkpt lat="35.1344545" lon="32.5278718">
<ele>111.89</ele>
<time>2015-04-26T11:06:50Z</time>
</trkpt>
<trkpt lat="35.1344905" lon="32.5279325">
<ele>110.92</ele>
<time>2015-04-26T11:06:52Z</time>
</trkpt>
<trkpt lat="35.1345260" lon="32.5279896">
<ele>109.67</ele>
<time>2015-04-26T11:06:54Z</time>
</trkpt>
<trkpt lat="35.1345588" lon="32.5280438">
<ele>108.86</ele>
<time>2015-04-26T11:06:56Z</time>
</trkpt>
<trkpt lat="35.1345913" lon="32.5280939">
<ele>108.91</ele>
<time>2015-04-26T11:06:58Z</time>
</trkpt>
<trkpt lat="35.1346227" lon="32.5281408">
<ele>108.92</ele>
<time>2015-04-26T11:07:00Z</time>
</trkpt>
<trkpt lat="35.1346505" lon="32.5281890">
<ele>109.42</ele>
<time>2015-04-26T11:07:02Z</time>
</trkpt>
<trkpt lat="35.1346745" lon="32.5282410">
<ele>109.80</ele>
<time>2015-04-26T11:07:04Z</time>
</trkpt>
<trkpt lat="35.1346937" lon="32.5282980">
<ele>109.39</ele>
<time>2015-04-26T11:07:06Z</time>
</trkpt>
<trkpt lat="35.1347090" lon="32.5283585">
<ele>109.79</ele>
<time>2015-04-26T11:07:08Z</time>
</trkpt>
<trkpt lat="35.1347236" lon="32.5284253">
<ele>108.64</ele>
<time>2015-04-26T11:07:10Z</time>
</trkpt>
<trkpt lat="35.1347362" lon="32.5284993">
<ele>107.35</ele>
<time>2015-04-26T11:07:12Z</time>
</trkpt>
<trkpt lat="35.1347381" lon="32.5285970">
<ele>107.03</ele>
<time>2015-04-26T11:07:14Z</time>
</trkpt>
<trkpt lat="35.1347325" lon="32.5286976">
<ele>106.20</ele>
<time>2015-04-26T11:07:16Z</time>
</trkpt>
<trkpt lat="35.1347384" lon="32.5287862">
<ele>106.06</ele>
<time>2015-04-26T11:07:17Z</time>
</trkpt>
<trkpt lat="35.1347439" lon="32.5288416">
<ele>105.99</ele>
<time>2015-04-26T11:07:18Z</time>
</trkpt>
<trkpt lat="35.1347966" lon="32.5289398">
<ele>106.44</ele>
<time>2015-04-26T11:07:20Z</time>
</trkpt>
<trkpt lat="35.1348655" lon="32.5289944">
<ele>106.30</ele>
<time>2015-04-26T11:07:22Z</time>
</trkpt>
<trkpt lat="35.1349505" lon="32.5289710">
<ele>105.52</ele>
<time>2015-04-26T11:07:24Z</time>
</trkpt>
<trkpt lat="35.1349974" lon="32.5289042">
<ele>103.82</ele>
<time>2015-04-26T11:07:26Z</time>
</trkpt>
<trkpt lat="35.1350242" lon="32.5288376">
<ele>103.40</ele>
<time>2015-04-26T11:07:28Z</time>
</trkpt>
<trkpt lat="35.1350467" lon="32.5287848">
<ele>103.54</ele>
<time>2015-04-26T11:07:30Z</time>
</trkpt>
<trkpt lat="35.1350007" lon="32.5287654">
<ele>108.49</ele>
<time>2015-04-26T11:12:46Z</time>
</trkpt>
<trkpt lat="35.1350466" lon="32.5287689">
<ele>108.43</ele>
<time>2015-04-26T11:34:58Z</time>
</trkpt>
<trkpt lat="35.1350798" lon="32.5287274">
<ele>109.15</ele>
<time>2015-04-26T11:35:32Z</time>
</trkpt>
<trkpt lat="35.1351242" lon="32.5286827">
<ele>108.95</ele>
<time>2015-04-26T11:35:35Z</time>
</trkpt>
<trkpt lat="35.1351712" lon="32.5286347">
<ele>108.93</ele>
<time>2015-04-26T11:35:38Z</time>
</trkpt>
<trkpt lat="35.1352252" lon="32.5286190">
<ele>108.93</ele>
<time>2015-04-26T11:35:41Z</time>
</trkpt>
<trkpt lat="35.1352755" lon="32.5286036">
<ele>108.93</ele>
<time>2015-04-26T11:35:44Z</time>
</trkpt>
<trkpt lat="35.1353215" lon="32.5285761">
<ele>108.93</ele>
<time>2015-04-26T11:35:47Z</time>
</trkpt>
<trkpt lat="35.1353761" lon="32.5285374">
<ele>108.93</ele>
<time>2015-04-26T11:35:50Z</time>
</trkpt>
<trkpt lat="35.1354259" lon="32.5285020">
<ele>108.93</ele>
<time>2015-04-26T11:35:53Z</time>
</trkpt>
<trkpt lat="35.1354804" lon="32.5284596">
<ele>108.93</ele>
<time>2015-04-26T11:35:56Z</time>
</trkpt>
<trkpt lat="35.1355144" lon="32.5284207">
<ele>108.93</ele>
<time>2015-04-26T11:35:58Z</time>
</trkpt>
<trkpt lat="35.1355519" lon="32.5283687">
<ele>108.93</ele>
<time>2015-04-26T11:36:00Z</time>
</trkpt>
<trkpt lat="35.1355802" lon="32.5283250">
<ele>108.93</ele>
<time>2015-04-26T11:36:02Z</time>
</trkpt>
<trkpt lat="35.1356090" lon="32.5282782">
<ele>108.18</ele>
<time>2015-04-26T11:36:04Z</time>
</trkpt>
<trkpt lat="35.1356422" lon="32.5282308">
<ele>107.99</ele>
<time>2015-04-26T11:36:06Z</time>
</trkpt>
<trkpt lat="35.1356786" lon="32.5281942">
<ele>107.94</ele>
<time>2015-04-26T11:36:08Z</time>
</trkpt>
<trkpt lat="35.1357313" lon="32.5281713">
<ele>107.93</ele>
<time>2015-04-26T11:36:12Z</time>
</trkpt>
<trkpt lat="35.1357776" lon="32.5281821">
<ele>107.68</ele>
<time>2015-04-26T11:36:16Z</time>
</trkpt>
<trkpt lat="35.1358223" lon="32.5282059">
<ele>107.85</ele>
<time>2015-04-26T11:36:20Z</time>
</trkpt>
<trkpt lat="35.1358737" lon="32.5282173">
<ele>108.80</ele>
<time>2015-04-26T11:36:25Z</time>
</trkpt>
<trkpt lat="35.1359172" lon="32.5282342">
<ele>108.92</ele>
<time>2015-04-26T11:36:29Z</time>
</trkpt>
<trkpt lat="35.1359679" lon="32.5282606">
<ele>109.67</ele>
<time>2015-04-26T11:36:32Z</time>
</trkpt>
<trkpt lat="35.1360253" lon="32.5282839">
<ele>109.14</ele>
<time>2015-04-26T11:36:35Z</time>
</trkpt>
<trkpt lat="35.1360906" lon="32.5283002">
<ele>108.95</ele>
<time>2015-04-26T11:36:38Z</time>
</trkpt>
<trkpt lat="35.1361409" lon="32.5283038">
<ele>108.93</ele>
<time>2015-04-26T11:36:40Z</time>
</trkpt>
<trkpt lat="35.1361935" lon="32.5282884">
<ele>108.93</ele>
<time>2015-04-26T11:36:42Z</time>
</trkpt>
<trkpt lat="35.1362439" lon="32.5282601">
<ele>109.68</ele>
<time>2015-04-26T11:36:44Z</time>
</trkpt>
<trkpt lat="35.1362879" lon="32.5282231">
<ele>109.86</ele>
<time>2015-04-26T11:36:46Z</time>
</trkpt>
<trkpt lat="35.1363269" lon="32.5281849">
<ele>109.91</ele>
<time>2015-04-26T11:36:48Z</time>
</trkpt>
<trkpt lat="35.1363620" lon="32.5281464">
<ele>109.92</ele>
<time>2015-04-26T11:36:50Z</time>
</trkpt>
<trkpt lat="35.1363940" lon="32.5281025">
<ele>109.92</ele>
<time>2015-04-26T11:36:52Z</time>
</trkpt>
<trkpt lat="35.1364276" lon="32.5280563">
<ele>109.17</ele>
<time>2015-04-26T11:36:54Z</time>
</trkpt>
<trkpt lat="35.1364651" lon="32.5280129">
<ele>108.99</ele>
<time>2015-04-26T11:36:56Z</time>
</trkpt>
<trkpt lat="35.1365095" lon="32.5279800">
<ele>108.44</ele>
<time>2015-04-26T11:36:58Z</time>
</trkpt>
<trkpt lat="35.1365557" lon="32.5279574">
<ele>108.05</ele>
<time>2015-04-26T11:37:00Z</time>
</trkpt>
<trkpt lat="35.1366008" lon="32.5279486">
<ele>107.96</ele>
<time>2015-04-26T11:37:02Z</time>
</trkpt>
<trkpt lat="35.1366432" lon="32.5279694">
<ele>107.93</ele>
<time>2015-04-26T11:37:04Z</time>
</trkpt>
<trkpt lat="35.1366761" lon="32.5280171">
<ele>107.93</ele>
<time>2015-04-26T11:37:06Z</time>
</trkpt>
<trkpt lat="35.1367017" lon="32.5280863">
<ele>107.43</ele>
<time>2015-04-26T11:37:08Z</time>
</trkpt>
<trkpt lat="35.1367244" lon="32.5281611">
<ele>107.05</ele>
<time>2015-04-26T11:37:10Z</time>
</trkpt>
<trkpt lat="35.1367502" lon="32.5282485">
<ele>106.46</ele>
<time>2015-04-26T11:37:12Z</time>
</trkpt>
<trkpt lat="35.1367959" lon="32.5283419">
<ele>105.56</ele>
<time>2015-04-26T11:37:14Z</time>
</trkpt>
<trkpt lat="35.1368557" lon="32.5284174">
<ele>104.33</ele>
<time>2015-04-26T11:37:16Z</time>
</trkpt>
<trkpt lat="35.1369218" lon="32.5285002">
<ele>103.28</ele>
<time>2015-04-26T11:37:18Z</time>
</trkpt>
<trkpt lat="35.1369531" lon="32.5285503">
<ele>102.60</ele>
<time>2015-04-26T11:37:19Z</time>
</trkpt>
<trkpt lat="35.1369865" lon="32.5286053">
<ele>101.76</ele>
<time>2015-04-26T11:37:20Z</time>
</trkpt>
<trkpt lat="35.1370212" lon="32.5286555">
<ele>100.84</ele>
<time>2015-04-26T11:37:21Z</time>
</trkpt>
<trkpt lat="35.1370638" lon="32.5286998">
<ele>99.88</ele>
<time>2015-04-26T11:37:22Z</time>
</trkpt>
<trkpt lat="35.1371097" lon="32.5287171">
<ele>99.40</ele>
<time>2015-04-26T11:37:23Z</time>
</trkpt>
<trkpt lat="35.1371903" lon="32.5287054">
<ele>99.04</ele>
<time>2015-04-26T11:37:25Z</time>
</trkpt>
<trkpt lat="35.1372337" lon="32.5286329">
<ele>98.45</ele>
<time>2015-04-26T11:37:27Z</time>
</trkpt>
<trkpt lat="35.1372531" lon="32.5285757">
<ele>98.19</ele>
<time>2015-04-26T11:37:28Z</time>
</trkpt>
<trkpt lat="35.1372794" lon="32.5285236">
<ele>97.56</ele>
<time>2015-04-26T11:37:29Z</time>
</trkpt>
<trkpt lat="35.1373258" lon="32.5284365">
<ele>97.08</ele>
<time>2015-04-26T11:37:31Z</time>
</trkpt>
<trkpt lat="35.1373652" lon="32.5283906">
<ele>96.50</ele>
<time>2015-04-26T11:37:32Z</time>
</trkpt>
<trkpt lat="35.1374026" lon="32.5283483">
<ele>96.21</ele>
<time>2015-04-26T11:37:33Z</time>
</trkpt>
<trkpt lat="35.1374496" lon="32.5283096">
<ele>96.07</ele>
<time>2015-04-26T11:37:34Z</time>
</trkpt>
<trkpt lat="35.1374916" lon="32.5282747">
<ele>96.00</ele>
<time>2015-04-26T11:37:35Z</time>
</trkpt>
<trkpt lat="35.1375324" lon="32.5282510">
<ele>95.46</ele>
<time>2015-04-26T11:37:36Z</time>
</trkpt>
<trkpt lat="35.1376054" lon="32.5282109">
<ele>95.56</ele>
<time>2015-04-26T11:37:38Z</time>
</trkpt>
<trkpt lat="35.1376721" lon="32.5281960">
<ele>95.83</ele>
<time>2015-04-26T11:37:40Z</time>
</trkpt>
<trkpt lat="35.1377408" lon="32.5281781">
<ele>95.90</ele>
<time>2015-04-26T11:37:42Z</time>
</trkpt>
<trkpt lat="35.1378052" lon="32.5281534">
<ele>95.92</ele>
<time>2015-04-26T11:37:44Z</time>
</trkpt>
<trkpt lat="35.1378773" lon="32.5281444">
<ele>95.92</ele>
<time>2015-04-26T11:37:46Z</time>
</trkpt>
<trkpt lat="35.1379487" lon="32.5281643">
<ele>95.17</ele>
<time>2015-04-26T11:37:48Z</time>
</trkpt>
<trkpt lat="35.1380220" lon="32.5282142">
<ele>94.49</ele>
<time>2015-04-26T11:37:50Z</time>
</trkpt>
<trkpt lat="35.1380579" lon="32.5282480">
<ele>94.21</ele>
<time>2015-04-26T11:37:51Z</time>
</trkpt>
<trkpt lat="35.1380870" lon="32.5283046">
<ele>94.57</ele>
<time>2015-04-26T11:37:52Z</time>
</trkpt>
<trkpt lat="35.1381464" lon="32.5283838">
<ele>94.84</ele>
<time>2015-04-26T11:37:54Z</time>
</trkpt>
<trkpt lat="35.1381912" lon="32.5284687">
<ele>95.65</ele>
<time>2015-04-26T11:37:56Z</time>
</trkpt>
<trkpt lat="35.1382496" lon="32.5285523">
<ele>95.86</ele>
<time>2015-04-26T11:37:58Z</time>
</trkpt>
<trkpt lat="35.1382821" lon="32.5285942">
<ele>95.89</ele>
<time>2015-04-26T11:37:59Z</time>
</trkpt>
<trkpt lat="35.1383243" lon="32.5286282">
<ele>95.91</ele>
<time>2015-04-26T11:38:00Z</time>
</trkpt>
<trkpt lat="35.1383895" lon="32.5286950">
<ele>95.92</ele>
<time>2015-04-26T11:38:02Z</time>
</trkpt>
<trkpt lat="35.1384504" lon="32.5287524">
<ele>96.42</ele>
<time>2015-04-26T11:38:04Z</time>
</trkpt>
<trkpt lat="35.1384995" lon="32.5288124">
<ele>96.80</ele>
<time>2015-04-26T11:38:06Z</time>
</trkpt>
<trkpt lat="35.1385371" lon="32.5288814">
<ele>96.89</ele>
<time>2015-04-26T11:38:08Z</time>
</trkpt>
<trkpt lat="35.1385657" lon="32.5289514">
<ele>96.92</ele>
<time>2015-04-26T11:38:10Z</time>
</trkpt>
<trkpt lat="35.1385917" lon="32.5290128">
<ele>96.92</ele>
<time>2015-04-26T11:38:12Z</time>
</trkpt>
<trkpt lat="35.1386104" lon="32.5290693">
<ele>96.92</ele>
<time>2015-04-26T11:38:14Z</time>
</trkpt>
<trkpt lat="35.1386307" lon="32.5291219">
<ele>96.92</ele>
<time>2015-04-26T11:38:16Z</time>
</trkpt>
<trkpt lat="35.1386701" lon="32.5291634">
<ele>97.42</ele>
<time>2015-04-26T11:38:18Z</time>
</trkpt>
<trkpt lat="35.1387173" lon="32.5291874">
<ele>97.80</ele>
<time>2015-04-26T11:38:20Z</time>
</trkpt>
<trkpt lat="35.1387761" lon="32.5291772">
<ele>98.66</ele>
<time>2015-04-26T11:38:23Z</time>
</trkpt>
<trkpt lat="35.1388254" lon="32.5291276">
<ele>98.89</ele>
<time>2015-04-26T11:38:26Z</time>
</trkpt>
<trkpt lat="35.1388593" lon="32.5290742">
<ele>98.92</ele>
<time>2015-04-26T11:38:28Z</time>
</trkpt>
<trkpt lat="35.1389008" lon="32.5290107">
<ele>98.92</ele>
<time>2015-04-26T11:38:30Z</time>
</trkpt>
<trkpt lat="35.1389485" lon="32.5289461">
<ele>99.67</ele>
<time>2015-04-26T11:38:32Z</time>
</trkpt>
<trkpt lat="35.1389943" lon="32.5288876">
<ele>99.86</ele>
<time>2015-04-26T11:38:34Z</time>
</trkpt>
<trkpt lat="35.1390348" lon="32.5288292">
<ele>99.91</ele>
<time>2015-04-26T11:38:36Z</time>
</trkpt>
<trkpt lat="35.1390727" lon="32.5287722">
<ele>99.92</ele>
<time>2015-04-26T11:38:38Z</time>
</trkpt>
<trkpt lat="35.1391114" lon="32.5287192">
<ele>99.92</ele>
<time>2015-04-26T11:38:40Z</time>
</trkpt>
<trkpt lat="35.1391618" lon="32.5286804">
<ele>99.17</ele>
<time>2015-04-26T11:38:42Z</time>
</trkpt>
<trkpt lat="35.1392258" lon="32.5286774">
<ele>99.49</ele>
<time>2015-04-26T11:38:44Z</time>
</trkpt>
<trkpt lat="35.1392870" lon="32.5286950">
<ele>99.82</ele>
<time>2015-04-26T11:38:46Z</time>
</trkpt>
<trkpt lat="35.1393430" lon="32.5287249">
<ele>99.90</ele>
<time>2015-04-26T11:38:48Z</time>
</trkpt>
<trkpt lat="35.1393949" lon="32.5287577">
<ele>99.92</ele>
<time>2015-04-26T11:38:50Z</time>
</trkpt>
<trkpt lat="35.1394482" lon="32.5287877">
<ele>99.92</ele>
<time>2015-04-26T11:38:52Z</time>
</trkpt>
<trkpt lat="35.1395088" lon="32.5288254">
<ele>99.92</ele>
<time>2015-04-26T11:38:54Z</time>
</trkpt>
<trkpt lat="35.1395683" lon="32.5288749">
<ele>99.92</ele>
<time>2015-04-26T11:38:56Z</time>
</trkpt>
<trkpt lat="35.1396160" lon="32.5289352">
<ele>99.42</ele>
<time>2015-04-26T11:38:58Z</time>
</trkpt>
<trkpt lat="35.1396573" lon="32.5289975">
<ele>99.55</ele>
<time>2015-04-26T11:39:00Z</time>
</trkpt>
<trkpt lat="35.1396858" lon="32.5290599">
<ele>99.83</ele>
<time>2015-04-26T11:39:02Z</time>
</trkpt>
<trkpt lat="35.1396988" lon="32.5291154">
<ele>99.90</ele>
<time>2015-04-26T11:39:04Z</time>
</trkpt>
<trkpt lat="35.1397153" lon="32.5291829">
<ele>100.80</ele>
<time>2015-04-26T11:39:07Z</time>
</trkpt>
<trkpt lat="35.1397365" lon="32.5292388">
<ele>100.91</ele>
<time>2015-04-26T11:39:10Z</time>
</trkpt>
<trkpt lat="35.1397663" lon="32.5293004">
<ele>100.05</ele>
<time>2015-04-26T11:39:13Z</time>
</trkpt>
<trkpt lat="35.1397965" lon="32.5293562">
<ele>100.44</ele>
<time>2015-04-26T11:39:16Z</time>
</trkpt>
<trkpt lat="35.1398343" lon="32.5294016">
<ele>99.96</ele>
<time>2015-04-26T11:39:20Z</time>
</trkpt>
<trkpt lat="35.1398682" lon="32.5294451">
<ele>100.80</ele>
<time>2015-04-26T11:39:23Z</time>
</trkpt>
<trkpt lat="35.1399001" lon="32.5294999">
<ele>100.91</ele>
<time>2015-04-26T11:39:26Z</time>
</trkpt>
<trkpt lat="35.1399314" lon="32.5295530">
<ele>100.92</ele>
<time>2015-04-26T11:39:29Z</time>
</trkpt>
<trkpt lat="35.1399637" lon="32.5296032">
<ele>100.92</ele>
<time>2015-04-26T11:39:32Z</time>
</trkpt>
<trkpt lat="35.1399943" lon="32.5296564">
<ele>100.92</ele>
<time>2015-04-26T11:39:35Z</time>
</trkpt>
<trkpt lat="35.1400512" lon="32.5296807">
<ele>101.42</ele>
<time>2015-04-26T11:39:38Z</time>
</trkpt>
<trkpt lat="35.1401099" lon="32.5296744">
<ele>101.86</ele>
<time>2015-04-26T11:39:41Z</time>
</trkpt>
<trkpt lat="35.1401623" lon="32.5296412">
<ele>101.92</ele>
<time>2015-04-26T11:39:44Z</time>
</trkpt>
<trkpt lat="35.1402158" lon="32.5295844">
<ele>101.92</ele>
<time>2015-04-26T11:39:47Z</time>
</trkpt>
<trkpt lat="35.1402610" lon="32.5295538">
<ele>101.92</ele>
<time>2015-04-26T11:39:49Z</time>
</trkpt>
<trkpt lat="35.1403124" lon="32.5295414">
<ele>101.92</ele>
<time>2015-04-26T11:39:51Z</time>
</trkpt>
<trkpt lat="35.1403621" lon="32.5295599">
<ele>101.92</ele>
<time>2015-04-26T11:39:53Z</time>
</trkpt>
<trkpt lat="35.1403991" lon="32.5295981">
<ele>101.92</ele>
<time>2015-04-26T11:39:55Z</time>
</trkpt>
<trkpt lat="35.1404286" lon="32.5296507">
<ele>101.93</ele>
<time>2015-04-26T11:39:58Z</time>
</trkpt>
<trkpt lat="35.1404531" lon="32.5297053">
<ele>101.93</ele>
<time>2015-04-26T11:40:02Z</time>
</trkpt>
<trkpt lat="35.1404657" lon="32.5297955">
<ele>100.46</ele>
<time>2015-04-26T11:40:08Z</time>
</trkpt>
<trkpt lat="35.1404727" lon="32.5298691">
<ele>100.06</ele>
<time>2015-04-26T11:40:10Z</time>
</trkpt>
<trkpt lat="35.1404867" lon="32.5299430">
<ele>99.96</ele>
<time>2015-04-26T11:40:12Z</time>
</trkpt>
<trkpt lat="35.1405056" lon="32.5300138">
<ele>99.93</ele>
<time>2015-04-26T11:40:14Z</time>
</trkpt>
<trkpt lat="35.1405246" lon="32.5300776">
<ele>99.18</ele>
<time>2015-04-26T11:40:16Z</time>
</trkpt>
<trkpt lat="35.1405492" lon="32.5301432">
<ele>99.83</ele>
<time>2015-04-26T11:40:19Z</time>
</trkpt>
<trkpt lat="35.1405839" lon="32.5301986">
<ele>99.91</ele>
<time>2015-04-26T11:40:22Z</time>
</trkpt>
<trkpt lat="35.1406148" lon="32.5302552">
<ele>99.17</ele>
<time>2015-04-26T11:40:25Z</time>
</trkpt>
<trkpt lat="35.1406410" lon="32.5303133">
<ele>99.25</ele>
<time>2015-04-26T11:40:29Z</time>
</trkpt>
<trkpt lat="35.1406832" lon="32.5303846">
<ele>100.32</ele>
<time>2015-04-26T11:40:33Z</time>
</trkpt>
<trkpt lat="35.1407242" lon="32.5304303">
<ele>100.77</ele>
<time>2015-04-26T11:40:35Z</time>
</trkpt>
<trkpt lat="35.1407747" lon="32.5304792">
<ele>100.89</ele>
<time>2015-04-26T11:40:37Z</time>
</trkpt>
<trkpt lat="35.1408414" lon="32.5304960">
<ele>100.92</ele>
<time>2015-04-26T11:40:39Z</time>
</trkpt>
<trkpt lat="35.1408990" lon="32.5304491">
<ele>100.92</ele>
<time>2015-04-26T11:40:41Z</time>
</trkpt>
<trkpt lat="35.1409342" lon="32.5303784">
<ele>100.42</ele>
<time>2015-04-26T11:40:43Z</time>
</trkpt>
<trkpt lat="35.1409635" lon="32.5303118">
<ele>100.55</ele>
<time>2015-04-26T11:40:45Z</time>
</trkpt>
<trkpt lat="35.1409885" lon="32.5302464">
<ele>100.83</ele>
<time>2015-04-26T11:40:47Z</time>
</trkpt>
<trkpt lat="35.1410025" lon="32.5301762">
<ele>101.40</ele>
<time>2015-04-26T11:40:49Z</time>
</trkpt>
<trkpt lat="35.1410136" lon="32.5301048">
<ele>101.79</ele>
<time>2015-04-26T11:40:51Z</time>
</trkpt>
<trkpt lat="35.1410373" lon="32.5300365">
<ele>101.89</ele>
<time>2015-04-26T11:40:53Z</time>
</trkpt>
<trkpt lat="35.1410738" lon="32.5299730">
<ele>101.92</ele>
<time>2015-04-26T11:40:55Z</time>
</trkpt>
<trkpt lat="35.1411342" lon="32.5299203">
<ele>101.17</ele>
<time>2015-04-26T11:40:57Z</time>
</trkpt>
<trkpt lat="35.1412018" lon="32.5298750">
<ele>100.99</ele>
<time>2015-04-26T11:40:59Z</time>
</trkpt>
<trkpt lat="35.1412645" lon="32.5298288">
<ele>100.94</ele>
<time>2015-04-26T11:41:01Z</time>
</trkpt>
<trkpt lat="35.1413247" lon="32.5297880">
<ele>101.43</ele>
<time>2015-04-26T11:41:03Z</time>
</trkpt>
<trkpt lat="35.1413850" lon="32.5297507">
<ele>101.80</ele>
<time>2015-04-26T11:41:05Z</time>
</trkpt>
<trkpt lat="35.1414450" lon="32.5297215">
<ele>101.89</ele>
<time>2015-04-26T11:41:07Z</time>
</trkpt>
<trkpt lat="35.1414984" lon="32.5297131">
<ele>101.92</ele>
<time>2015-04-26T11:41:09Z</time>
</trkpt>
<trkpt lat="35.1415493" lon="32.5297186">
<ele>102.67</ele>
<time>2015-04-26T11:41:11Z</time>
</trkpt>
<trkpt lat="35.1415948" lon="32.5297348">
<ele>102.86</ele>
<time>2015-04-26T11:41:13Z</time>
</trkpt>
<trkpt lat="35.1416385" lon="32.5297600">
<ele>102.91</ele>
<time>2015-04-26T11:41:15Z</time>
</trkpt>
<trkpt lat="35.1416782" lon="32.5298018">
<ele>102.92</ele>
<time>2015-04-26T11:41:17Z</time>
</trkpt>
<trkpt lat="35.1416994" lon="32.5298659">
<ele>102.92</ele>
<time>2015-04-26T11:41:19Z</time>
</trkpt>
<trkpt lat="35.1416985" lon="32.5299404">
<ele>102.92</ele>
<time>2015-04-26T11:41:21Z</time>
</trkpt>
<trkpt lat="35.1416938" lon="32.5300134">
<ele>102.92</ele>
<time>2015-04-26T11:41:23Z</time>
</trkpt>
<trkpt lat="35.1416849" lon="32.5300854">
<ele>102.92</ele>
<time>2015-04-26T11:41:25Z</time>
</trkpt>
<trkpt lat="35.1416776" lon="32.5301545">
<ele>102.92</ele>
<time>2015-04-26T11:41:27Z</time>
</trkpt>
<trkpt lat="35.1416717" lon="32.5302224">
<ele>102.92</ele>
<time>2015-04-26T11:41:29Z</time>
</trkpt>
<trkpt lat="35.1416635" lon="32.5302877">
<ele>102.93</ele>
<time>2015-04-26T11:41:31Z</time>
</trkpt>
<trkpt lat="35.1416568" lon="32.5303500">
<ele>102.93</ele>
<time>2015-04-26T11:41:33Z</time>
</trkpt>
<trkpt lat="35.1416514" lon="32.5304128">
<ele>102.93</ele>
<time>2015-04-26T11:41:35Z</time>
</trkpt>
<trkpt lat="35.1416420" lon="32.5304773">
<ele>102.18</ele>
<time>2015-04-26T11:41:37Z</time>
</trkpt>
<trkpt lat="35.1416355" lon="32.5305435">
<ele>101.99</ele>
<time>2015-04-26T11:41:39Z</time>
</trkpt>
<trkpt lat="35.1416566" lon="32.5306063">
<ele>101.94</ele>
<time>2015-04-26T11:41:41Z</time>
</trkpt>
<trkpt lat="35.1417056" lon="32.5306451">
<ele>101.18</ele>
<time>2015-04-26T11:41:43Z</time>
</trkpt>
<trkpt lat="35.1417671" lon="32.5306234">
<ele>100.99</ele>
<time>2015-04-26T11:41:45Z</time>
</trkpt>
<trkpt lat="35.1418178" lon="32.5305674">
<ele>100.94</ele>
<time>2015-04-26T11:41:47Z</time>
</trkpt>
<trkpt lat="35.1418713" lon="32.5305067">
<ele>100.93</ele>
<time>2015-04-26T11:41:49Z</time>
</trkpt>
<trkpt lat="35.1419287" lon="32.5304501">
<ele>100.93</ele>
<time>2015-04-26T11:41:51Z</time>
</trkpt>
<trkpt lat="35.1419868" lon="32.5304015">
<ele>100.93</ele>
<time>2015-04-26T11:41:53Z</time>
</trkpt>
<trkpt lat="35.1420419" lon="32.5303553">
<ele>101.68</ele>
<time>2015-04-26T11:41:55Z</time>
</trkpt>
<trkpt lat="35.1420954" lon="32.5303170">
<ele>101.61</ele>
<time>2015-04-26T11:41:57Z</time>
</trkpt>
<trkpt lat="35.1421500" lon="32.5302886">
<ele>101.85</ele>
<time>2015-04-26T11:41:59Z</time>
</trkpt>
<trkpt lat="35.1421986" lon="32.5302716">
<ele>101.91</ele>
<time>2015-04-26T11:42:01Z</time>
</trkpt>
<trkpt lat="35.1422617" lon="32.5302674">
<ele>102.17</ele>
<time>2015-04-26T11:42:04Z</time>
</trkpt>
<trkpt lat="35.1423127" lon="32.5302607">
<ele>101.99</ele>
<time>2015-04-26T11:42:06Z</time>
</trkpt>
<trkpt lat="35.1423671" lon="32.5302563">
<ele>102.44</ele>
<time>2015-04-26T11:42:08Z</time>
</trkpt>
<trkpt lat="35.1424198" lon="32.5302519">
<ele>103.55</ele>
<time>2015-04-26T11:42:10Z</time>
</trkpt>
<trkpt lat="35.1424703" lon="32.5302521">
<ele>103.83</ele>
<time>2015-04-26T11:42:12Z</time>
</trkpt>
<trkpt lat="35.1425227" lon="32.5302536">
<ele>103.65</ele>
<time>2015-04-26T11:42:14Z</time>
</trkpt>
<trkpt lat="35.1425803" lon="32.5302656">
<ele>103.86</ele>
<time>2015-04-26T11:42:16Z</time>
</trkpt>
<trkpt lat="35.1426338" lon="32.5302834">
<ele>103.91</ele>
<time>2015-04-26T11:42:18Z</time>
</trkpt>
<trkpt lat="35.1426852" lon="32.5303005">
<ele>103.92</ele>
<time>2015-04-26T11:42:20Z</time>
</trkpt>
<trkpt lat="35.1427360" lon="32.5303176">
<ele>103.92</ele>
<time>2015-04-26T11:42:22Z</time>
</trkpt>
<trkpt lat="35.1427836" lon="32.5303353">
<ele>103.92</ele>
<time>2015-04-26T11:42:24Z</time>
</trkpt>
<trkpt lat="35.1428282" lon="32.5303573">
<ele>103.92</ele>
<time>2015-04-26T11:42:26Z</time>
</trkpt>
<trkpt lat="35.1428683" lon="32.5303847">
<ele>103.92</ele>
<time>2015-04-26T11:42:28Z</time>
</trkpt>
<trkpt lat="35.1429035" lon="32.5304215">
<ele>104.67</ele>
<time>2015-04-26T11:42:30Z</time>
</trkpt>
<trkpt lat="35.1429353" lon="32.5304634">
<ele>104.86</ele>
<time>2015-04-26T11:42:32Z</time>
</trkpt>
<trkpt lat="35.1429635" lon="32.5305284">
<ele>105.04</ele>
<time>2015-04-26T11:42:35Z</time>
</trkpt>
<trkpt lat="35.1429825" lon="32.5306060">
<ele>104.94</ele>
<time>2015-04-26T11:42:38Z</time>
</trkpt>
<trkpt lat="35.1429878" lon="32.5306631">
<ele>104.18</ele>
<time>2015-04-26T11:42:40Z</time>
</trkpt>
<trkpt lat="35.1429936" lon="32.5307200">
<ele>103.99</ele>
<time>2015-04-26T11:42:42Z</time>
</trkpt>
<trkpt lat="35.1430001" lon="32.5307792">
<ele>103.44</ele>
<time>2015-04-26T11:42:44Z</time>
</trkpt>
<trkpt lat="35.1430052" lon="32.5308408">
<ele>103.05</ele>
<time>2015-04-26T11:42:46Z</time>
</trkpt>
<trkpt lat="35.1430116" lon="32.5309024">
<ele>102.96</ele>
<time>2015-04-26T11:42:48Z</time>
</trkpt>
<trkpt lat="35.1430198" lon="32.5309583">
<ele>102.18</ele>
<time>2015-04-26T11:42:50Z</time>
</trkpt>
<trkpt lat="35.1430391" lon="32.5310159">
<ele>101.96</ele>
<time>2015-04-26T11:42:53Z</time>
</trkpt>
<trkpt lat="35.1430875" lon="32.5310494">
<ele>100.99</ele>
<time>2015-04-26T11:42:57Z</time>
</trkpt>
<trkpt lat="35.1431542" lon="32.5310302">
<ele>100.93</ele>
<time>2015-04-26T11:43:00Z</time>
</trkpt>
<trkpt lat="35.1432032" lon="32.5309892">
<ele>100.18</ele>
<time>2015-04-26T11:43:02Z</time>
</trkpt>
<trkpt lat="35.1432437" lon="32.5309394">
<ele>99.99</ele>
<time>2015-04-26T11:43:04Z</time>
</trkpt>
<trkpt lat="35.1432801" lon="32.5308842">
<ele>99.44</ele>
<time>2015-04-26T11:43:06Z</time>
</trkpt>
<trkpt lat="35.1433161" lon="32.5308274">
<ele>99.05</ele>
<time>2015-04-26T11:43:08Z</time>
</trkpt>
<trkpt lat="35.1433510" lon="32.5307800">
<ele>98.96</ele>
<time>2015-04-26T11:43:10Z</time>
</trkpt>
<trkpt lat="35.1434098" lon="32.5307644">
<ele>98.93</ele>
<time>2015-04-26T11:43:36Z</time>
</trkpt>
<trkpt lat="35.1434647" lon="32.5307282">
<ele>98.55</ele>
<time>2015-04-26T11:43:39Z</time>
</trkpt>
<trkpt lat="35.1435140" lon="32.5306954">
<ele>98.88</ele>
<time>2015-04-26T11:43:42Z</time>
</trkpt>
<trkpt lat="35.1435578" lon="32.5306619">
<ele>101.89</ele>
<time>2015-04-26T11:44:54Z</time>
</trkpt>
<trkpt lat="35.1436104" lon="32.5306288">
<ele>102.61</ele>
<time>2015-04-26T11:44:58Z</time>
</trkpt>
<trkpt lat="35.1436595" lon="32.5305972">
<ele>103.76</ele>
<time>2015-04-26T11:45:01Z</time>
</trkpt>
<trkpt lat="35.1437033" lon="32.5305732">
<ele>103.88</ele>
<time>2015-04-26T11:45:03Z</time>
</trkpt>
<trkpt lat="35.1437492" lon="32.5305499">
<ele>104.41</ele>
<time>2015-04-26T11:45:05Z</time>
</trkpt>
<trkpt lat="35.1437933" lon="32.5305311">
<ele>105.05</ele>
<time>2015-04-26T11:45:07Z</time>
</trkpt>
<trkpt lat="35.1438384" lon="32.5305197">
<ele>105.71</ele>
<time>2015-04-26T11:45:09Z</time>
</trkpt>
<trkpt lat="35.1439051" lon="32.5304975">
<ele>105.40</ele>
<time>2015-04-26T11:45:12Z</time>
</trkpt>
<trkpt lat="35.1439531" lon="32.5304869">
<ele>106.04</ele>
<time>2015-04-26T11:45:14Z</time>
</trkpt>
<trkpt lat="35.1440160" lon="32.5304746">
<ele>106.31</ele>
<time>2015-04-26T11:45:17Z</time>
</trkpt>
<trkpt lat="35.1440742" lon="32.5304754">
<ele>106.10</ele>
<time>2015-04-26T11:45:20Z</time>
</trkpt>
<trkpt lat="35.1441355" lon="32.5304910">
<ele>106.07</ele>
<time>2015-04-26T11:45:23Z</time>
</trkpt>
<trkpt lat="35.1441806" lon="32.5305319">
<ele>105.32</ele>
<time>2015-04-26T11:45:26Z</time>
</trkpt>
<trkpt lat="35.1442132" lon="32.5305705">
<ele>104.85</ele>
<time>2015-04-26T11:45:29Z</time>
</trkpt>
<trkpt lat="35.1442499" lon="32.5306110">
<ele>104.92</ele>
<time>2015-04-26T11:45:33Z</time>
</trkpt>
<trkpt lat="35.1442622" lon="32.5306702">
<ele>106.27</ele>
<time>2015-04-26T11:45:38Z</time>
</trkpt>
<trkpt lat="35.1442545" lon="32.5307478">
<ele>103.83</ele>
<time>2015-04-26T11:46:53Z</time>
</trkpt>
<trkpt lat="35.1442427" lon="32.5308109">
<ele>103.16</ele>
<time>2015-04-26T11:46:56Z</time>
</trkpt>
<trkpt lat="35.1442236" lon="32.5308858">
<ele>101.83</ele>
<time>2015-04-26T11:46:59Z</time>
</trkpt>
<trkpt lat="35.1441912" lon="32.5309875">
<ele>100.54</ele>
<time>2015-04-26T11:47:02Z</time>
</trkpt>
<trkpt lat="35.1441726" lon="32.5310619">
<ele>101.33</ele>
<time>2015-04-26T11:47:04Z</time>
</trkpt>
<trkpt lat="35.1441604" lon="32.5311289">
<ele>101.78</ele>
<time>2015-04-26T11:47:06Z</time>
</trkpt>
<trkpt lat="35.1441559" lon="32.5311937">
<ele>101.64</ele>
<time>2015-04-26T11:47:08Z</time>
</trkpt>
<trkpt lat="35.1441566" lon="32.5312498">
<ele>102.10</ele>
<time>2015-04-26T11:47:10Z</time>
</trkpt>
<trkpt lat="35.1441415" lon="32.5313228">
<ele>102.32</ele>
<time>2015-04-26T11:47:13Z</time>
</trkpt>
<trkpt lat="35.1441339" lon="32.5313851">
<ele>100.72</ele>
<time>2015-04-26T11:47:16Z</time>
</trkpt>
<trkpt lat="35.1441203" lon="32.5314404">
<ele>100.27</ele>
<time>2015-04-26T11:47:19Z</time>
</trkpt>
<trkpt lat="35.1441060" lon="32.5314954">
<ele>98.72</ele>
<time>2015-04-26T11:47:22Z</time>
</trkpt>
<trkpt lat="35.1440979" lon="32.5315530">
<ele>96.65</ele>
<time>2015-04-26T11:47:25Z</time>
</trkpt>
<trkpt lat="35.1440905" lon="32.5316180">
<ele>95.52</ele>
<time>2015-04-26T11:47:28Z</time>
</trkpt>
<trkpt lat="35.1440777" lon="32.5316937">
<ele>92.37</ele>
<time>2015-04-26T11:47:31Z</time>
</trkpt>
<trkpt lat="35.1440754" lon="32.5317544">
<ele>93.04</ele>
<time>2015-04-26T11:47:33Z</time>
</trkpt>
<trkpt lat="35.1440842" lon="32.5318109">
<ele>93.20</ele>
<time>2015-04-26T11:47:35Z</time>
</trkpt>
<trkpt lat="35.1441023" lon="32.5319047">
<ele>93.49</ele>
<time>2015-04-26T11:47:37Z</time>
</trkpt>
<trkpt lat="35.1441157" lon="32.5319903">
<ele>93.82</ele>
<time>2015-04-26T11:47:39Z</time>
</trkpt>
<trkpt lat="35.1441361" lon="32.5320846">
<ele>93.40</ele>
<time>2015-04-26T11:47:41Z</time>
</trkpt>
<trkpt lat="35.1441503" lon="32.5321640">
<ele>91.79</ele>
<time>2015-04-26T11:47:43Z</time>
</trkpt>
<trkpt lat="35.1441647" lon="32.5322360">
<ele>90.89</ele>
<time>2015-04-26T11:47:45Z</time>
</trkpt>
<trkpt lat="35.1441800" lon="32.5323046">
<ele>91.42</ele>
<time>2015-04-26T11:47:47Z</time>
</trkpt>
<trkpt lat="35.1441920" lon="32.5323724">
<ele>91.80</ele>
<time>2015-04-26T11:47:49Z</time>
</trkpt>
<trkpt lat="35.1442009" lon="32.5324334">
<ele>91.14</ele>
<time>2015-04-26T11:47:51Z</time>
</trkpt>
<trkpt lat="35.1442121" lon="32.5324945">
<ele>90.73</ele>
<time>2015-04-26T11:47:53Z</time>
</trkpt>
<trkpt lat="35.1442161" lon="32.5325579">
<ele>92.40</ele>
<time>2015-04-26T11:47:56Z</time>
</trkpt>
<trkpt lat="35.1441710" lon="32.5325585">
<ele>92.39</ele>
<time>2015-04-26T11:49:01Z</time>
</trkpt>
<trkpt lat="35.1441418" lon="32.5325160">
<ele>91.86</ele>
<time>2015-04-26T11:49:28Z</time>
</trkpt>
<trkpt lat="35.1441187" lon="32.5325700">
<ele>95.36</ele>
<time>2015-04-26T11:52:03Z</time>
</trkpt>
<trkpt lat="35.1440969" lon="32.5326195">
<ele>100.93</ele>
<time>2015-04-26T11:53:04Z</time>
</trkpt>
<trkpt lat="35.1440539" lon="32.5326396">
<ele>100.93</ele>
<time>2015-04-26T11:53:14Z</time>
</trkpt>
<trkpt lat="35.1440309" lon="32.5326984">
<ele>98.18</ele>
<time>2015-04-26T11:54:33Z</time>
</trkpt>
<trkpt lat="35.1440391" lon="32.5327775">
<ele>97.49</ele>
<time>2015-04-26T11:54:35Z</time>
</trkpt>
<trkpt lat="35.1440457" lon="32.5328747">
<ele>97.07</ele>
<time>2015-04-26T11:54:37Z</time>
</trkpt>
<trkpt lat="35.1440316" lon="32.5329779">
<ele>95.71</ele>
<time>2015-04-26T11:54:39Z</time>
</trkpt>
<trkpt lat="35.1440181" lon="32.5330310">
<ele>95.32</ele>
<time>2015-04-26T11:54:40Z</time>
</trkpt>
<trkpt lat="35.1439888" lon="32.5331041">
<ele>95.12</ele>
<time>2015-04-26T11:54:41Z</time>
</trkpt>
<trkpt lat="35.1439705" lon="32.5331613">
<ele>95.02</ele>
<time>2015-04-26T11:54:42Z</time>
</trkpt>
<trkpt lat="35.1439619" lon="32.5332214">
<ele>94.97</ele>
<time>2015-04-26T11:54:43Z</time>
</trkpt>
<trkpt lat="35.1439355" lon="32.5332820">
<ele>94.95</ele>
<time>2015-04-26T11:54:44Z</time>
</trkpt>
<trkpt lat="35.1439138" lon="32.5333374">
<ele>94.94</ele>
<time>2015-04-26T11:54:45Z</time>
</trkpt>
<trkpt lat="35.1438892" lon="32.5333950">
<ele>94.93</ele>
<time>2015-04-26T11:54:46Z</time>
</trkpt>
<trkpt lat="35.1438627" lon="32.5334459">
<ele>94.43</ele>
<time>2015-04-26T11:54:47Z</time>
</trkpt>
<trkpt lat="35.1438341" lon="32.5334954">
<ele>94.18</ele>
<time>2015-04-26T11:54:48Z</time>
</trkpt>
<trkpt lat="35.1438002" lon="32.5335380">
<ele>94.05</ele>
<time>2015-04-26T11:54:49Z</time>
</trkpt>
<trkpt lat="35.1437641" lon="32.5335854">
<ele>93.99</ele>
<time>2015-04-26T11:54:50Z</time>
</trkpt>
<trkpt lat="35.1437272" lon="32.5336238">
<ele>94.46</ele>
<time>2015-04-26T11:54:51Z</time>
</trkpt>
<trkpt lat="35.1436903" lon="32.5336594">
<ele>94.69</ele>
<time>2015-04-26T11:54:52Z</time>
</trkpt>
<trkpt lat="35.1436506" lon="32.5336935">
<ele>94.81</ele>
<time>2015-04-26T11:54:53Z</time>
</trkpt>
<trkpt lat="35.1436072" lon="32.5337271">
<ele>94.87</ele>
<time>2015-04-26T11:54:54Z</time>
</trkpt>
<trkpt lat="35.1435672" lon="32.5337638">
<ele>94.40</ele>
<time>2015-04-26T11:54:55Z</time>
</trkpt>
<trkpt lat="35.1435037" lon="32.5338424">
<ele>94.04</ele>
<time>2015-04-26T11:54:57Z</time>
</trkpt>
<trkpt lat="35.1434548" lon="32.5339334">
<ele>93.95</ele>
<time>2015-04-26T11:54:59Z</time>
</trkpt>
<trkpt lat="35.1434286" lon="32.5339817">
<ele>93.94</ele>
<time>2015-04-26T11:55:00Z</time>
</trkpt>
<trkpt lat="35.1433727" lon="32.5340656">
<ele>93.18</ele>
<time>2015-04-26T11:55:02Z</time>
</trkpt>
<trkpt lat="35.1433233" lon="32.5341164">
<ele>92.99</ele>
<time>2015-04-26T11:55:04Z</time>
</trkpt>
<trkpt lat="35.1432562" lon="32.5341610">
<ele>92.94</ele>
<time>2015-04-26T11:55:06Z</time>
</trkpt>
<trkpt lat="35.1431725" lon="32.5342102">
<ele>92.18</ele>
<time>2015-04-26T11:55:08Z</time>
</trkpt>
<trkpt lat="35.1431318" lon="32.5342424">
<ele>91.55</ele>
<time>2015-04-26T11:55:09Z</time>
</trkpt>
<trkpt lat="35.1430931" lon="32.5342752">
<ele>91.24</ele>
<time>2015-04-26T11:55:10Z</time>
</trkpt>
<trkpt lat="35.1430558" lon="32.5343122">
<ele>91.58</ele>
<time>2015-04-26T11:55:11Z</time>
</trkpt>
<trkpt lat="35.1430210" lon="32.5343558">
<ele>90.75</ele>
<time>2015-04-26T11:55:12Z</time>
</trkpt>
<trkpt lat="35.1429871" lon="32.5343990">
<ele>90.34</ele>
<time>2015-04-26T11:55:13Z</time>
</trkpt>
<trkpt lat="35.1429422" lon="32.5344799">
<ele>88.28</ele>
<time>2015-04-26T11:55:15Z</time>
</trkpt>
<trkpt lat="35.1429227" lon="32.5345308">
<ele>87.60</ele>
<time>2015-04-26T11:55:16Z</time>
</trkpt>
<trkpt lat="35.1429091" lon="32.5345901">
<ele>87.26</ele>
<time>2015-04-26T11:55:17Z</time>
</trkpt>
<trkpt lat="35.1429003" lon="32.5347006">
<ele>87.01</ele>
<time>2015-04-26T11:55:19Z</time>
</trkpt>
<trkpt lat="35.1429185" lon="32.5347979">
<ele>85.70</ele>
<time>2015-04-26T11:55:21Z</time>
</trkpt>
<trkpt lat="35.1429320" lon="32.5348508">
<ele>84.81</ele>
<time>2015-04-26T11:55:22Z</time>
</trkpt>
<trkpt lat="35.1429619" lon="32.5349009">
<ele>83.87</ele>
<time>2015-04-26T11:55:23Z</time>
</trkpt>
<trkpt lat="35.1429999" lon="32.5349466">
<ele>82.90</ele>
<time>2015-04-26T11:55:24Z</time>
</trkpt>
<trkpt lat="35.1430407" lon="32.5349781">
<ele>82.41</ele>
<time>2015-04-26T11:55:25Z</time>
</trkpt>
<trkpt lat="35.1431310" lon="32.5349923">
<ele>82.80</ele>
<time>2015-04-26T11:55:27Z</time>
</trkpt>
<trkpt lat="35.1432078" lon="32.5349674">
<ele>83.39</ele>
<time>2015-04-26T11:55:29Z</time>
</trkpt>
<trkpt lat="35.1432725" lon="32.5348895">
<ele>84.79</ele>
<time>2015-04-26T11:55:31Z</time>
</trkpt>
<trkpt lat="35.1433273" lon="32.5348385">
<ele>86.89</ele>
<time>2015-04-26T11:55:33Z</time>
</trkpt>
<trkpt lat="35.1433794" lon="32.5348055">
<ele>88.42</ele>
<time>2015-04-26T11:55:35Z</time>
</trkpt>
<trkpt lat="35.1434341" lon="32.5347874">
<ele>90.24</ele>
<time>2015-04-26T11:55:38Z</time>
</trkpt>
<trkpt lat="35.1434836" lon="32.5347968">
<ele>90.84</ele>
<time>2015-04-26T11:55:41Z</time>
</trkpt>
<trkpt lat="35.1435312" lon="32.5347998">
<ele>92.29</ele>
<time>2015-04-26T11:55:44Z</time>
</trkpt>
<trkpt lat="35.1435886" lon="32.5348071">
<ele>92.70</ele>
<time>2015-04-26T11:55:48Z</time>
</trkpt>
<trkpt lat="35.1436328" lon="32.5347877">
<ele>93.40</ele>
<time>2015-04-26T11:55:51Z</time>
</trkpt>
<trkpt lat="35.1436775" lon="32.5347686">
<ele>94.36</ele>
<time>2015-04-26T11:55:54Z</time>
</trkpt>
<trkpt lat="35.1437199" lon="32.5347422">
<ele>94.85</ele>
<time>2015-04-26T11:55:57Z</time>
</trkpt>
<trkpt lat="35.1437615" lon="32.5347106">
<ele>95.42</ele>
<time>2015-04-26T11:56:00Z</time>
</trkpt>
<trkpt lat="35.1438133" lon="32.5346860">
<ele>95.36</ele>
<time>2015-04-26T11:56:03Z</time>
</trkpt>
<trkpt lat="35.1438580" lon="32.5346701">
<ele>95.85</ele>
<time>2015-04-26T11:56:06Z</time>
</trkpt>
<trkpt lat="35.1439051" lon="32.5346520">
<ele>96.67</ele>
<time>2015-04-26T11:56:09Z</time>
</trkpt>
<trkpt lat="35.1439458" lon="32.5346270">
<ele>97.36</ele>
<time>2015-04-26T11:56:11Z</time>
</trkpt>
<trkpt lat="35.1439855" lon="32.5346009">
<ele>97.28</ele>
<time>2015-04-26T11:56:13Z</time>
</trkpt>
<trkpt lat="35.1440416" lon="32.5345589">
<ele>97.47</ele>
<time>2015-04-26T11:56:16Z</time>
</trkpt>
<trkpt lat="35.1440974" lon="32.5345222">
<ele>97.74</ele>
<time>2015-04-26T11:56:19Z</time>
</trkpt>
<trkpt lat="35.1441543" lon="32.5344975">
<ele>97.90</ele>
<time>2015-04-26T11:56:22Z</time>
</trkpt>
<trkpt lat="35.1442165" lon="32.5344770">
<ele>98.80</ele>
<time>2015-04-26T11:56:25Z</time>
</trkpt>
<trkpt lat="35.1442792" lon="32.5344539">
<ele>99.41</ele>
<time>2015-04-26T11:56:28Z</time>
</trkpt>
<trkpt lat="35.1443325" lon="32.5344181">
<ele>100.36</ele>
<time>2015-04-26T11:56:31Z</time>
</trkpt>
<trkpt lat="35.1443778" lon="32.5343680">
<ele>100.85</ele>
<time>2015-04-26T11:56:34Z</time>
</trkpt>
<trkpt lat="35.1444206" lon="32.5343222">
<ele>100.04</ele>
<time>2015-04-26T11:56:37Z</time>
</trkpt>
<trkpt lat="35.1444723" lon="32.5342781">
<ele>100.69</ele>
<time>2015-04-26T11:56:40Z</time>
</trkpt>
<trkpt lat="35.1445270" lon="32.5342373">
<ele>100.90</ele>
<time>2015-04-26T11:56:43Z</time>
</trkpt>
<trkpt lat="35.1445871" lon="32.5341886">
<ele>100.92</ele>
<time>2015-04-26T11:56:46Z</time>
</trkpt>
<trkpt lat="35.1446313" lon="32.5341510">
<ele>100.92</ele>
<time>2015-04-26T11:56:48Z</time>
</trkpt>
<trkpt lat="35.1446752" lon="32.5341102">
<ele>100.92</ele>
<time>2015-04-26T11:56:50Z</time>
</trkpt>
<trkpt lat="35.1447203" lon="32.5340675">
<ele>100.92</ele>
<time>2015-04-26T11:56:52Z</time>
</trkpt>
<trkpt lat="35.1447653" lon="32.5340197">
<ele>101.17</ele>
<time>2015-04-26T11:56:54Z</time>
</trkpt>
<trkpt lat="35.1448162" lon="32.5339548">
<ele>101.24</ele>
<time>2015-04-26T11:56:56Z</time>
</trkpt>
<trkpt lat="35.1448814" lon="32.5338930">
<ele>101.00</ele>
<time>2015-04-26T11:56:58Z</time>
</trkpt>
<trkpt lat="35.1449539" lon="32.5338370">
<ele>100.94</ele>
<time>2015-04-26T11:57:00Z</time>
</trkpt>
<trkpt lat="35.1450272" lon="32.5337880">
<ele>100.93</ele>
<time>2015-04-26T11:57:02Z</time>
</trkpt>
<trkpt lat="35.1451065" lon="32.5337545">
<ele>100.93</ele>
<time>2015-04-26T11:57:04Z</time>
</trkpt>
<trkpt lat="35.1451918" lon="32.5337475">
<ele>100.18</ele>
<time>2015-04-26T11:57:06Z</time>
</trkpt>
<trkpt lat="35.1452930" lon="32.5337973">
<ele>100.49</ele>
<time>2015-04-26T11:57:08Z</time>
</trkpt>
<trkpt lat="35.1453586" lon="32.5338495">
<ele>101.32</ele>
<time>2015-04-26T11:57:10Z</time>
</trkpt>
<trkpt lat="35.1454018" lon="32.5338961">
<ele>101.77</ele>
<time>2015-04-26T11:57:12Z</time>
</trkpt>
<trkpt lat="35.1454327" lon="32.5339373">
<ele>101.89</ele>
<time>2015-04-26T11:57:14Z</time>
</trkpt>
<trkpt lat="35.1454601" lon="32.5339904">
<ele>101.92</ele>
<time>2015-04-26T11:57:16Z</time>
</trkpt>
<trkpt lat="35.1454901" lon="32.5340573">
<ele>102.67</ele>
<time>2015-04-26T11:57:18Z</time>
</trkpt>
<trkpt lat="35.1455149" lon="32.5341251">
<ele>102.86</ele>
<time>2015-04-26T11:57:20Z</time>
</trkpt>
<trkpt lat="35.1455407" lon="32.5341893">
<ele>102.91</ele>
<time>2015-04-26T11:57:22Z</time>
</trkpt>
<trkpt lat="35.1455721" lon="32.5342496">
<ele>103.42</ele>
<time>2015-04-26T11:57:24Z</time>
</trkpt>
<trkpt lat="35.1456061" lon="32.5343080">
<ele>103.80</ele>
<time>2015-04-26T11:57:26Z</time>
</trkpt>
<trkpt lat="35.1456392" lon="32.5343672">
<ele>103.39</ele>
<time>2015-04-26T11:57:28Z</time>
</trkpt>
<trkpt lat="35.1456771" lon="32.5344185">
<ele>103.04</ele>
<time>2015-04-26T11:57:30Z</time>
</trkpt>
<trkpt lat="35.1457202" lon="32.5344579">
<ele>102.95</ele>
<time>2015-04-26T11:57:32Z</time>
</trkpt>
<trkpt lat="35.1457632" lon="32.5344849">
<ele>102.93</ele>
<time>2015-04-26T11:57:36Z</time>
</trkpt>
<trkpt lat="35.1458115" lon="32.5345103">
<ele>102.30</ele>
<time>2015-04-26T11:57:45Z</time>
</trkpt>
<trkpt lat="35.1458499" lon="32.5345450">
<ele>102.77</ele>
<time>2015-04-26T11:57:47Z</time>
</trkpt>
<trkpt lat="35.1458955" lon="32.5345858">
<ele>103.39</ele>
<time>2015-04-26T11:57:49Z</time>
</trkpt>
<trkpt lat="35.1459346" lon="32.5346370">
<ele>103.79</ele>
<time>2015-04-26T11:57:51Z</time>
</trkpt>
<trkpt lat="35.1459647" lon="32.5346978">
<ele>103.89</ele>
<time>2015-04-26T11:57:53Z</time>
</trkpt>
<trkpt lat="35.1459915" lon="32.5347603">
<ele>105.17</ele>
<time>2015-04-26T11:57:55Z</time>
</trkpt>
<trkpt lat="35.1460157" lon="32.5348238">
<ele>105.74</ele>
<time>2015-04-26T11:57:57Z</time>
</trkpt>
<trkpt lat="35.1460319" lon="32.5348863">
<ele>105.63</ele>
<time>2015-04-26T11:57:59Z</time>
</trkpt>
<trkpt lat="35.1460510" lon="32.5349622">
<ele>105.89</ele>
<time>2015-04-26T11:58:02Z</time>
</trkpt>
<trkpt lat="35.1460691" lon="32.5350166">
<ele>105.92</ele>
<time>2015-04-26T11:58:04Z</time>
</trkpt>
<trkpt lat="35.1460796" lon="32.5350750">
<ele>106.67</ele>
<time>2015-04-26T11:58:06Z</time>
</trkpt>
<trkpt lat="35.1460778" lon="32.5351360">
<ele>105.61</ele>
<time>2015-04-26T11:58:08Z</time>
</trkpt>
<trkpt lat="35.1460615" lon="32.5351962">
<ele>104.85</ele>
<time>2015-04-26T11:58:10Z</time>
</trkpt>
<trkpt lat="35.1460441" lon="32.5352510">
<ele>103.16</ele>
<time>2015-04-26T11:58:12Z</time>
</trkpt>
<trkpt lat="35.1460324" lon="32.5353054">
<ele>100.98</ele>
<time>2015-04-26T11:58:14Z</time>
</trkpt>
<trkpt lat="35.1460220" lon="32.5353728">
<ele>99.19</ele>
<time>2015-04-26T11:58:16Z</time>
</trkpt>
<trkpt lat="35.1460257" lon="32.5354537">
<ele>97.49</ele>
<time>2015-04-26T11:58:18Z</time>
</trkpt>
<trkpt lat="35.1460503" lon="32.5355291">
<ele>97.32</ele>
<time>2015-04-26T11:58:20Z</time>
</trkpt>
<trkpt lat="35.1460980" lon="32.5355804">
<ele>97.77</ele>
<time>2015-04-26T11:58:22Z</time>
</trkpt>
<trkpt lat="35.1461556" lon="32.5355768">
<ele>98.03</ele>
<time>2015-04-26T11:58:25Z</time>
</trkpt>
<trkpt lat="35.1462085" lon="32.5355501">
<ele>97.81</ele>
<time>2015-04-26T11:58:28Z</time>
</trkpt>
<trkpt lat="35.1462615" lon="32.5355081">
<ele>98.04</ele>
<time>2015-04-26T11:58:31Z</time>
</trkpt>
<trkpt lat="35.1463103" lon="32.5354741">
<ele>97.45</ele>
<time>2015-04-26T11:58:33Z</time>
</trkpt>
<trkpt lat="35.1463662" lon="32.5354482">
<ele>97.56</ele>
<time>2015-04-26T11:58:35Z</time>
</trkpt>
<trkpt lat="35.1464198" lon="32.5354288">
<ele>97.83</ele>
<time>2015-04-26T11:58:37Z</time>
</trkpt>
<trkpt lat="35.1464748" lon="32.5354174">
<ele>97.65</ele>
<time>2015-04-26T11:58:39Z</time>
</trkpt>
<trkpt lat="35.1465293" lon="32.5353986">
<ele>98.36</ele>
<time>2015-04-26T11:58:41Z</time>
</trkpt>
<trkpt lat="35.1465810" lon="32.5353854">
<ele>98.28</ele>
<time>2015-04-26T11:58:43Z</time>
</trkpt>
<trkpt lat="35.1466312" lon="32.5353940">
<ele>99.26</ele>
<time>2015-04-26T11:58:45Z</time>
</trkpt>
<trkpt lat="35.1466692" lon="32.5354298">
<ele>99.51</ele>
<time>2015-04-26T11:58:47Z</time>
</trkpt>
<trkpt lat="35.1466892" lon="32.5354834">
<ele>99.82</ele>
<time>2015-04-26T11:58:49Z</time>
</trkpt>
<trkpt lat="35.1467004" lon="32.5355411">
<ele>99.90</ele>
<time>2015-04-26T11:58:51Z</time>
</trkpt>
<trkpt lat="35.1467033" lon="32.5355990">
<ele>100.67</ele>
<time>2015-04-26T11:58:53Z</time>
</trkpt>
<trkpt lat="35.1467014" lon="32.5356557">
<ele>100.36</ele>
<time>2015-04-26T11:58:55Z</time>
</trkpt>
<trkpt lat="35.1467047" lon="32.5357132">
<ele>100.03</ele>
<time>2015-04-26T11:58:57Z</time>
</trkpt>
<trkpt lat="35.1467047" lon="32.5357740">
<ele>99.95</ele>
<time>2015-04-26T11:58:59Z</time>
</trkpt>
<trkpt lat="35.1467138" lon="32.5358466">
<ele>100.43</ele>
<time>2015-04-26T11:59:01Z</time>
</trkpt>
<trkpt lat="35.1467250" lon="32.5359230">
<ele>100.05</ele>
<time>2015-04-26T11:59:03Z</time>
</trkpt>
<trkpt lat="35.1467367" lon="32.5359997">
<ele>100.21</ele>
<time>2015-04-26T11:59:05Z</time>
</trkpt>
<trkpt lat="35.1467459" lon="32.5360733">
<ele>99.25</ele>
<time>2015-04-26T11:59:07Z</time>
</trkpt>
<trkpt lat="35.1467435" lon="32.5361349">
<ele>98.51</ele>
<time>2015-04-26T11:59:09Z</time>
</trkpt>
<trkpt lat="35.1467263" lon="32.5361887">
<ele>98.07</ele>
<time>2015-04-26T11:59:11Z</time>
</trkpt>
<trkpt lat="35.1467024" lon="32.5362404">
<ele>97.46</ele>
<time>2015-04-26T11:59:13Z</time>
</trkpt>
<trkpt lat="35.1466791" lon="32.5362887">
<ele>97.06</ele>
<time>2015-04-26T11:59:15Z</time>
</trkpt>
<trkpt lat="35.1466460" lon="32.5363595">
<ele>96.44</ele>
<time>2015-04-26T11:59:18Z</time>
</trkpt>
<trkpt lat="35.1466226" lon="32.5364086">
<ele>96.05</ele>
<time>2015-04-26T11:59:20Z</time>
</trkpt>
<trkpt lat="35.1466039" lon="32.5364658">
<ele>94.71</ele>
<time>2015-04-26T11:59:22Z</time>
</trkpt>
<trkpt lat="35.1466173" lon="32.5365643">
<ele>95.37</ele>
<time>2015-04-26T11:59:24Z</time>
</trkpt>
<trkpt lat="35.1466910" lon="32.5366215">
<ele>95.29</ele>
<time>2015-04-26T11:59:26Z</time>
</trkpt>
<trkpt lat="35.1467372" lon="32.5366190">
<ele>95.61</ele>
<time>2015-04-26T11:59:27Z</time>
</trkpt>
<trkpt lat="35.1467811" lon="32.5366029">
<ele>95.77</ele>
<time>2015-04-26T11:59:28Z</time>
</trkpt>
<trkpt lat="35.1468632" lon="32.5365613">
<ele>95.89</ele>
<time>2015-04-26T11:59:30Z</time>
</trkpt>
<trkpt lat="35.1469480" lon="32.5365256">
<ele>95.92</ele>
<time>2015-04-26T11:59:32Z</time>
</trkpt>
<trkpt lat="35.1470307" lon="32.5365037">
<ele>95.92</ele>
<time>2015-04-26T11:59:34Z</time>
</trkpt>
<trkpt lat="35.1471082" lon="32.5364969">
<ele>95.42</ele>
<time>2015-04-26T11:59:36Z</time>
</trkpt>
<trkpt lat="35.1471746" lon="32.5364852">
<ele>95.55</ele>
<time>2015-04-26T11:59:38Z</time>
</trkpt>
<trkpt lat="35.1472531" lon="32.5364689">
<ele>95.08</ele>
<time>2015-04-26T11:59:40Z</time>
</trkpt>
<trkpt lat="35.1473335" lon="32.5364511">
<ele>95.46</ele>
<time>2015-04-26T11:59:42Z</time>
</trkpt>
<trkpt lat="35.1474096" lon="32.5364353">
<ele>95.81</ele>
<time>2015-04-26T11:59:44Z</time>
</trkpt>
<trkpt lat="35.1474702" lon="32.5364498">
<ele>95.91</ele>
<time>2015-04-26T11:59:47Z</time>
</trkpt>
<trkpt lat="35.1475042" lon="32.5365152">
<ele>96.80</ele>
<time>2015-04-26T11:59:50Z</time>
</trkpt>
<trkpt lat="35.1475178" lon="32.5365866">
<ele>97.89</ele>
<time>2015-04-26T11:59:52Z</time>
</trkpt>
<trkpt lat="35.1475308" lon="32.5366702">
<ele>98.67</ele>
<time>2015-04-26T11:59:54Z</time>
</trkpt>
<trkpt lat="35.1475420" lon="32.5367598">
<ele>99.11</ele>
<time>2015-04-26T11:59:56Z</time>
</trkpt>
<trkpt lat="35.1475552" lon="32.5368471">
<ele>99.22</ele>
<time>2015-04-26T11:59:58Z</time>
</trkpt>
<trkpt lat="35.1475718" lon="32.5369322">
<ele>99.00</ele>
<time>2015-04-26T12:00:00Z</time>
</trkpt>
<trkpt lat="35.1475872" lon="32.5370176">
<ele>98.94</ele>
<time>2015-04-26T12:00:02Z</time>
</trkpt>
<trkpt lat="35.1476028" lon="32.5371015">
<ele>99.43</ele>
<time>2015-04-26T12:00:04Z</time>
</trkpt>
<trkpt lat="35.1476187" lon="32.5371811">
<ele>99.80</ele>
<time>2015-04-26T12:00:06Z</time>
</trkpt>
<trkpt lat="35.1476345" lon="32.5372506">
<ele>99.89</ele>
<time>2015-04-26T12:00:08Z</time>
</trkpt>
<trkpt lat="35.1476510" lon="32.5373195">
<ele>99.92</ele>
<time>2015-04-26T12:00:10Z</time>
</trkpt>
<trkpt lat="35.1476651" lon="32.5373933">
<ele>100.67</ele>
<time>2015-04-26T12:00:12Z</time>
</trkpt>
<trkpt lat="35.1476756" lon="32.5374682">
<ele>100.86</ele>
<time>2015-04-26T12:00:14Z</time>
</trkpt>
<trkpt lat="35.1476840" lon="32.5375410">
<ele>100.16</ele>
<time>2015-04-26T12:00:16Z</time>
</trkpt>
<trkpt lat="35.1476922" lon="32.5376115">
<ele>99.98</ele>
<time>2015-04-26T12:00:18Z</time>
</trkpt>
<trkpt lat="35.1477020" lon="32.5376801">
<ele>99.44</ele>
<time>2015-04-26T12:00:20Z</time>
</trkpt>
<trkpt lat="35.1477119" lon="32.5377481">
<ele>99.05</ele>
<time>2015-04-26T12:00:22Z</time>
</trkpt>
<trkpt lat="35.1477232" lon="32.5378130">
<ele>98.96</ele>
<time>2015-04-26T12:00:24Z</time>
</trkpt>
<trkpt lat="35.1477332" lon="32.5378856">
<ele>98.05</ele>
<time>2015-04-26T12:00:27Z</time>
</trkpt>
<trkpt lat="35.1477316" lon="32.5379497">
<ele>97.44</ele>
<time>2015-04-26T12:00:30Z</time>
</trkpt>
<trkpt lat="35.1477276" lon="32.5380266">
<ele>97.86</ele>
<time>2015-04-26T12:00:33Z</time>
</trkpt>
<trkpt lat="35.1477328" lon="32.5380947">
<ele>98.41</ele>
<time>2015-04-26T12:00:35Z</time>
</trkpt>
<trkpt lat="35.1477444" lon="32.5381611">
<ele>98.55</ele>
<time>2015-04-26T12:00:37Z</time>
</trkpt>
<trkpt lat="35.1477589" lon="32.5382280">
<ele>98.83</ele>
<time>2015-04-26T12:00:39Z</time>
</trkpt>
<trkpt lat="35.1477848" lon="32.5382900">
<ele>98.90</ele>
<time>2015-04-26T12:00:41Z</time>
</trkpt>
<trkpt lat="35.1478164" lon="32.5383487">
<ele>98.92</ele>
<time>2015-04-26T12:00:43Z</time>
</trkpt>
<trkpt lat="35.1478474" lon="32.5384129">
<ele>99.17</ele>
<time>2015-04-26T12:00:45Z</time>
</trkpt>
<trkpt lat="35.1478766" lon="32.5385120">
<ele>98.99</ele>
<time>2015-04-26T12:00:47Z</time>
</trkpt>
<trkpt lat="35.1479082" lon="32.5386112">
<ele>98.94</ele>
<time>2015-04-26T12:00:49Z</time>
</trkpt>
<trkpt lat="35.1479331" lon="32.5386729">
<ele>98.93</ele>
<time>2015-04-26T12:00:50Z</time>
</trkpt>
<trkpt lat="35.1479577" lon="32.5387205">
<ele>98.93</ele>
<time>2015-04-26T12:00:51Z</time>
</trkpt>
<trkpt lat="35.1480126" lon="32.5387943">
<ele>100.18</ele>
<time>2015-04-26T12:00:53Z</time>
</trkpt>
<trkpt lat="35.1480509" lon="32.5388533">
<ele>100.99</ele>
<time>2015-04-26T12:00:55Z</time>
</trkpt>
<trkpt lat="35.1480892" lon="32.5389139">
<ele>101.69</ele>
<time>2015-04-26T12:00:57Z</time>
</trkpt>
<trkpt lat="35.1481298" lon="32.5389878">
<ele>102.62</ele>
<time>2015-04-26T12:00:59Z</time>
</trkpt>
<trkpt lat="35.1481721" lon="32.5390691">
<ele>103.35</ele>
<time>2015-04-26T12:01:01Z</time>
</trkpt>
<trkpt lat="35.1482085" lon="32.5391520">
<ele>104.28</ele>
<time>2015-04-26T12:01:03Z</time>
</trkpt>
<trkpt lat="35.1482461" lon="32.5392415">
<ele>104.76</ele>
<time>2015-04-26T12:01:05Z</time>
</trkpt>
<trkpt lat="35.1482822" lon="32.5393311">
<ele>105.63</ele>
<time>2015-04-26T12:01:07Z</time>
</trkpt>
<trkpt lat="35.1483032" lon="32.5394204">
<ele>105.60</ele>
<time>2015-04-26T12:01:09Z</time>
</trkpt>
<trkpt lat="35.1482994" lon="32.5394966">
<ele>105.34</ele>
<time>2015-04-26T12:01:11Z</time>
</trkpt>
<trkpt lat="35.1482880" lon="32.5395783">
<ele>104.53</ele>
<time>2015-04-26T12:01:13Z</time>
</trkpt>
<trkpt lat="35.1482771" lon="32.5396604">
<ele>103.33</ele>
<time>2015-04-26T12:01:15Z</time>
</trkpt>
<trkpt lat="35.1482762" lon="32.5397513">
<ele>103.03</ele>
<time>2015-04-26T12:01:17Z</time>
</trkpt>
<trkpt lat="35.1482990" lon="32.5398529">
<ele>102.95</ele>
<time>2015-04-26T12:01:19Z</time>
</trkpt>
<trkpt lat="35.1483481" lon="32.5399370">
<ele>102.93</ele>
<time>2015-04-26T12:01:21Z</time>
</trkpt>
<trkpt lat="35.1484232" lon="32.5399878">
<ele>103.68</ele>
<time>2015-04-26T12:01:23Z</time>
</trkpt>
<trkpt lat="35.1485032" lon="32.5400222">
<ele>104.11</ele>
<time>2015-04-26T12:01:25Z</time>
</trkpt>
<trkpt lat="35.1485835" lon="32.5400540">
<ele>105.22</ele>
<time>2015-04-26T12:01:27Z</time>
</trkpt>
<trkpt lat="35.1486595" lon="32.5400830">
<ele>105.75</ele>
<time>2015-04-26T12:01:29Z</time>
</trkpt>
<trkpt lat="35.1487252" lon="32.5401381">
<ele>106.38</ele>
<time>2015-04-26T12:01:31Z</time>
</trkpt>
<trkpt lat="35.1487518" lon="32.5402023">
<ele>106.65</ele>
<time>2015-04-26T12:01:32Z</time>
</trkpt>
<trkpt lat="35.1487785" lon="32.5402469">
<ele>107.29</ele>
<time>2015-04-26T12:01:33Z</time>
</trkpt>
<trkpt lat="35.1488084" lon="32.5402954">
<ele>107.61</ele>
<time>2015-04-26T12:01:34Z</time>
</trkpt>
<trkpt lat="35.1488382" lon="32.5403380">
<ele>108.27</ele>
<time>2015-04-26T12:01:35Z</time>
</trkpt>
<trkpt lat="35.1488778" lon="32.5404288">
<ele>108.26</ele>
<time>2015-04-26T12:01:37Z</time>
</trkpt>
<trkpt lat="35.1488987" lon="32.5405128">
<ele>108.76</ele>
<time>2015-04-26T12:01:39Z</time>
</trkpt>
<trkpt lat="35.1489218" lon="32.5406133">
<ele>107.88</ele>
<time>2015-04-26T12:01:41Z</time>
</trkpt>
<trkpt lat="35.1489397" lon="32.5407108">
<ele>107.16</ele>
<time>2015-04-26T12:01:43Z</time>
</trkpt>
<trkpt lat="35.1489441" lon="32.5408033">
<ele>105.73</ele>
<time>2015-04-26T12:01:45Z</time>
</trkpt>
<trkpt lat="35.1489183" lon="32.5408870">
<ele>105.13</ele>
<time>2015-04-26T12:01:47Z</time>
</trkpt>
<trkpt lat="35.1488795" lon="32.5409700">
<ele>104.73</ele>
<time>2015-04-26T12:01:49Z</time>
</trkpt>
<trkpt lat="35.1488412" lon="32.5410712">
<ele>104.88</ele>
<time>2015-04-26T12:01:51Z</time>
</trkpt>
<trkpt lat="35.1488421" lon="32.5411300">
<ele>104.40</ele>
<time>2015-04-26T12:01:52Z</time>
</trkpt>
<trkpt lat="35.1488869" lon="32.5412190">
<ele>104.29</ele>
<time>2015-04-26T12:01:54Z</time>
</trkpt>
<trkpt lat="35.1489197" lon="32.5412606">
<ele>103.61</ele>
<time>2015-04-26T12:01:55Z</time>
</trkpt>
<trkpt lat="35.1489578" lon="32.5412922">
<ele>103.27</ele>
<time>2015-04-26T12:01:56Z</time>
</trkpt>
<trkpt lat="35.1490004" lon="32.5413122">
<ele>103.10</ele>
<time>2015-04-26T12:01:57Z</time>
</trkpt>
<trkpt lat="35.1490501" lon="32.5413261">
<ele>103.51</ele>
<time>2015-04-26T12:01:58Z</time>
</trkpt>
<trkpt lat="35.1490952" lon="32.5413270">
<ele>103.22</ele>
<time>2015-04-26T12:01:59Z</time>
</trkpt>
<trkpt lat="35.1491427" lon="32.5413240">
<ele>103.07</ele>
<time>2015-04-26T12:02:00Z</time>
</trkpt>
<trkpt lat="35.1491893" lon="32.5413194">
<ele>103.00</ele>
<time>2015-04-26T12:02:01Z</time>
</trkpt>
<trkpt lat="35.1492682" lon="32.5413277">
<ele>102.19</ele>
<time>2015-04-26T12:02:03Z</time>
</trkpt>
<trkpt lat="35.1493450" lon="32.5413514">
<ele>102.24</ele>
<time>2015-04-26T12:02:05Z</time>
</trkpt>
<trkpt lat="35.1493966" lon="32.5414042">
<ele>102.25</ele>
<time>2015-04-26T12:02:07Z</time>
</trkpt>
<trkpt lat="35.1494196" lon="32.5414855">
<ele>102.01</ele>
<time>2015-04-26T12:02:09Z</time>
</trkpt>
<trkpt lat="35.1494188" lon="32.5415797">
<ele>101.20</ele>
<time>2015-04-26T12:02:11Z</time>
</trkpt>
<trkpt lat="35.1494102" lon="32.5416793">
<ele>99.74</ele>
<time>2015-04-26T12:02:13Z</time>
</trkpt>
<trkpt lat="35.1494029" lon="32.5417339">
<ele>99.33</ele>
<time>2015-04-26T12:02:14Z</time>
</trkpt>
<trkpt lat="35.1493995" lon="32.5417900">
<ele>99.63</ele>
<time>2015-04-26T12:02:15Z</time>
</trkpt>
<trkpt lat="35.1494127" lon="32.5418508">
<ele>99.78</ele>
<time>2015-04-26T12:02:16Z</time>
</trkpt>
<trkpt lat="35.1494694" lon="32.5419228">
<ele>99.89</ele>
<time>2015-04-26T12:02:18Z</time>
</trkpt>
<trkpt lat="35.1495473" lon="32.5419357">
<ele>99.67</ele>
<time>2015-04-26T12:02:20Z</time>
</trkpt>
<trkpt lat="35.1495925" lon="32.5419300">
<ele>100.30</ele>
<time>2015-04-26T12:02:21Z</time>
</trkpt>
<trkpt lat="35.1496760" lon="32.5419042">
<ele>100.77</ele>
<time>2015-04-26T12:02:23Z</time>
</trkpt>
<trkpt lat="35.1497463" lon="32.5418899">
<ele>100.89</ele>
<time>2015-04-26T12:02:25Z</time>
</trkpt>
<trkpt lat="35.1498297" lon="32.5418766">
<ele>100.17</ele>
<time>2015-04-26T12:02:27Z</time>
</trkpt>
<trkpt lat="35.1499070" lon="32.5418771">
<ele>99.99</ele>
<time>2015-04-26T12:02:29Z</time>
</trkpt>
<trkpt lat="35.1499609" lon="32.5419106">
<ele>99.94</ele>
<time>2015-04-26T12:02:31Z</time>
</trkpt>
<trkpt lat="35.1499844" lon="32.5419712">
<ele>99.93</ele>
<time>2015-04-26T12:02:34Z</time>
</trkpt>
<trkpt lat="35.1499692" lon="32.5420234">
<ele>99.43</ele>
<time>2015-04-26T12:02:37Z</time>
</trkpt>
<trkpt lat="35.1499283" lon="32.5420616">
<ele>99.05</ele>
<time>2015-04-26T12:02:39Z</time>
</trkpt>
<trkpt lat="35.1498820" lon="32.5420992">
<ele>98.96</ele>
<time>2015-04-26T12:02:41Z</time>
</trkpt>
<trkpt lat="35.1498362" lon="32.5421340">
<ele>99.18</ele>
<time>2015-04-26T12:02:43Z</time>
</trkpt>
<trkpt lat="35.1497951" lon="32.5421727">
<ele>99.49</ele>
<time>2015-04-26T12:02:45Z</time>
</trkpt>
<trkpt lat="35.1497586" lon="32.5422078">
<ele>99.82</ele>
<time>2015-04-26T12:02:47Z</time>
</trkpt>
<trkpt lat="35.1497104" lon="32.5422680">
<ele>99.54</ele>
<time>2015-04-26T12:02:50Z</time>
</trkpt>
<trkpt lat="35.1496706" lon="32.5423160">
<ele>98.58</ele>
<time>2015-04-26T12:02:52Z</time>
</trkpt>
<trkpt lat="35.1496268" lon="32.5423685">
<ele>97.84</ele>
<time>2015-04-26T12:02:54Z</time>
</trkpt>
<trkpt lat="35.1495813" lon="32.5424244">
<ele>97.15</ele>
<time>2015-04-26T12:02:56Z</time>
</trkpt>
<trkpt lat="35.1495263" lon="32.5424897">
<ele>96.98</ele>
<time>2015-04-26T12:02:58Z</time>
</trkpt>
<trkpt lat="35.1494693" lon="32.5425551">
<ele>96.19</ele>
<time>2015-04-26T12:03:00Z</time>
</trkpt>
<trkpt lat="35.1494374" lon="32.5425966">
<ele>96.06</ele>
<time>2015-04-26T12:03:01Z</time>
</trkpt>
<trkpt lat="35.1494070" lon="32.5426466">
<ele>95.99</ele>
<time>2015-04-26T12:03:02Z</time>
</trkpt>
<trkpt lat="35.1494006" lon="32.5427150">
<ele>95.96</ele>
<time>2015-04-26T12:03:03Z</time>
</trkpt>
<trkpt lat="35.1493979" lon="32.5427884">
<ele>95.93</ele>
<time>2015-04-26T12:03:05Z</time>
</trkpt>
<trkpt lat="35.1494006" lon="32.5428509">
<ele>96.18</ele>
<time>2015-04-26T12:03:07Z</time>
</trkpt>
<trkpt lat="35.1494105" lon="32.5429267">
<ele>96.49</ele>
<time>2015-04-26T12:03:09Z</time>
</trkpt>
<trkpt lat="35.1494474" lon="32.5430066">
<ele>96.32</ele>
<time>2015-04-26T12:03:11Z</time>
</trkpt>
<trkpt lat="35.1495041" lon="32.5430643">
<ele>95.52</ele>
<time>2015-04-26T12:03:13Z</time>
</trkpt>
<trkpt lat="35.1495656" lon="32.5430865">
<ele>95.82</ele>
<time>2015-04-26T12:03:15Z</time>
</trkpt>
<trkpt lat="35.1496269" lon="32.5430855">
<ele>95.90</ele>
<time>2015-04-26T12:03:17Z</time>
</trkpt>
<trkpt lat="35.1496779" lon="32.5430564">
<ele>96.67</ele>
<time>2015-04-26T12:03:19Z</time>
</trkpt>
<trkpt lat="35.1497207" lon="32.5430170">
<ele>97.36</ele>
<time>2015-04-26T12:03:21Z</time>
</trkpt>
<trkpt lat="35.1497592" lon="32.5429767">
<ele>97.78</ele>
<time>2015-04-26T12:03:23Z</time>
</trkpt>
<trkpt lat="35.1497993" lon="32.5429340">
<ele>98.64</ele>
<time>2015-04-26T12:03:25Z</time>
</trkpt>
<trkpt lat="35.1498434" lon="32.5428939">
<ele>98.85</ele>
<time>2015-04-26T12:03:27Z</time>
</trkpt>
<trkpt lat="35.1498956" lon="32.5428666">
<ele>98.91</ele>
<time>2015-04-26T12:03:29Z</time>
</trkpt>
<trkpt lat="35.1499755" lon="32.5428465">
<ele>98.92</ele>
<time>2015-04-26T12:03:31Z</time>
</trkpt>
<trkpt lat="35.1500614" lon="32.5428317">
<ele>99.67</ele>
<time>2015-04-26T12:03:33Z</time>
</trkpt>
<trkpt lat="35.1501431" lon="32.5428108">
<ele>100.36</ele>
<time>2015-04-26T12:03:35Z</time>
</trkpt>
<trkpt lat="35.1502158" lon="32.5427939">
<ele>100.78</ele>
<time>2015-04-26T12:03:37Z</time>
</trkpt>
<trkpt lat="35.1502786" lon="32.5427819">
<ele>101.39</ele>
<time>2015-04-26T12:03:39Z</time>
</trkpt>
<trkpt lat="35.1503369" lon="32.5427868">
<ele>101.79</ele>
<time>2015-04-26T12:03:41Z</time>
</trkpt>
<trkpt lat="35.1503874" lon="32.5428217">
<ele>102.64</ele>
<time>2015-04-26T12:03:43Z</time>
</trkpt>
<trkpt lat="35.1504322" lon="32.5428676">
<ele>103.35</ele>
<time>2015-04-26T12:03:45Z</time>
</trkpt>
<trkpt lat="35.1504679" lon="32.5429165">
<ele>103.78</ele>
<time>2015-04-26T12:03:47Z</time>
</trkpt>
<trkpt lat="35.1504922" lon="32.5429630">
<ele>103.89</ele>
<time>2015-04-26T12:03:49Z</time>
</trkpt>
<trkpt lat="35.1505254" lon="32.5430190">
<ele>103.92</ele>
<time>2015-04-26T12:03:52Z</time>
</trkpt>
<trkpt lat="35.1505711" lon="32.5430972">
<ele>103.92</ele>
<time>2015-04-26T12:03:55Z</time>
</trkpt>
<trkpt lat="35.1506124" lon="32.5431708">
<ele>103.42</ele>
<time>2015-04-26T12:03:57Z</time>
</trkpt>
<trkpt lat="35.1506447" lon="32.5432498">
<ele>103.05</ele>
<time>2015-04-26T12:03:59Z</time>
</trkpt>
<trkpt lat="35.1506561" lon="32.5433341">
<ele>102.96</ele>
<time>2015-04-26T12:04:01Z</time>
</trkpt>
<trkpt lat="35.1506415" lon="32.5434106">
<ele>102.93</ele>
<time>2015-04-26T12:04:03Z</time>
</trkpt>
<trkpt lat="35.1506073" lon="32.5434834">
<ele>101.68</ele>
<time>2015-04-26T12:04:05Z</time>
</trkpt>
<trkpt lat="35.1505614" lon="32.5435541">
<ele>101.11</ele>
<time>2015-04-26T12:04:07Z</time>
</trkpt>
<trkpt lat="35.1505248" lon="32.5436324">
<ele>100.97</ele>
<time>2015-04-26T12:04:09Z</time>
</trkpt>
<trkpt lat="35.1505095" lon="32.5437153">
<ele>100.19</ele>
<time>2015-04-26T12:04:11Z</time>
</trkpt>
<trkpt lat="35.1505204" lon="32.5437998">
<ele>99.99</ele>
<time>2015-04-26T12:04:13Z</time>
</trkpt>
<trkpt lat="35.1505548" lon="32.5438760">
<ele>100.69</ele>
<time>2015-04-26T12:04:15Z</time>
</trkpt>
<trkpt lat="35.1505938" lon="32.5439411">
<ele>101.12</ele>
<time>2015-04-26T12:04:17Z</time>
</trkpt>
<trkpt lat="35.1506319" lon="32.5439968">
<ele>100.82</ele>
<time>2015-04-26T12:04:20Z</time>
</trkpt>
<trkpt lat="35.1506659" lon="32.5440544">
<ele>100.04</ele>
<time>2015-04-26T12:04:23Z</time>
</trkpt>
<trkpt lat="35.1507142" lon="32.5441101">
<ele>100.44</ele>
<time>2015-04-26T12:04:26Z</time>
</trkpt>
<trkpt lat="35.1507583" lon="32.5441301">
<ele>100.80</ele>
<time>2015-04-26T12:04:28Z</time>
</trkpt>
<trkpt lat="35.1508055" lon="32.5441422">
<ele>100.89</ele>
<time>2015-04-26T12:04:30Z</time>
</trkpt>
<trkpt lat="35.1508557" lon="32.5441547">
<ele>101.42</ele>
<time>2015-04-26T12:04:32Z</time>
</trkpt>
<trkpt lat="35.1509079" lon="32.5441903">
<ele>101.80</ele>
<time>2015-04-26T12:04:34Z</time>
</trkpt>
<trkpt lat="35.1509488" lon="32.5442365">
<ele>101.89</ele>
<time>2015-04-26T12:04:36Z</time>
</trkpt>
<trkpt lat="35.1509641" lon="32.5442967">
<ele>102.67</ele>
<time>2015-04-26T12:04:38Z</time>
</trkpt>
<trkpt lat="35.1509586" lon="32.5443629">
<ele>102.36</ele>
<time>2015-04-26T12:04:40Z</time>
</trkpt>
<trkpt lat="35.1509526" lon="32.5444444">
<ele>101.28</ele>
<time>2015-04-26T12:04:42Z</time>
</trkpt>
<trkpt lat="35.1509697" lon="32.5445356">
<ele>101.01</ele>
<time>2015-04-26T12:04:44Z</time>
</trkpt>
<trkpt lat="35.1510172" lon="32.5446140">
<ele>100.70</ele>
<time>2015-04-26T12:04:46Z</time>
</trkpt>
<trkpt lat="35.1510812" lon="32.5446666">
<ele>100.87</ele>
<time>2015-04-26T12:04:48Z</time>
</trkpt>
<trkpt lat="35.1511406" lon="32.5447098">
<ele>100.91</ele>
<time>2015-04-26T12:04:50Z</time>
</trkpt>
<trkpt lat="35.1511976" lon="32.5447671">
<ele>101.67</ele>
<time>2015-04-26T12:04:52Z</time>
</trkpt>
<trkpt lat="35.1512554" lon="32.5448280">
<ele>101.86</ele>
<time>2015-04-26T12:04:54Z</time>
</trkpt>
<trkpt lat="35.1513165" lon="32.5448786">
<ele>102.66</ele>
<time>2015-04-26T12:04:56Z</time>
</trkpt>
<trkpt lat="35.1513821" lon="32.5449164">
<ele>102.86</ele>
<time>2015-04-26T12:04:58Z</time>
</trkpt>
<trkpt lat="35.1514512" lon="32.5449490">
<ele>103.41</ele>
<time>2015-04-26T12:05:00Z</time>
</trkpt>
<trkpt lat="35.1515193" lon="32.5449778">
<ele>103.55</ele>
<time>2015-04-26T12:05:02Z</time>
</trkpt>
<trkpt lat="35.1515845" lon="32.5450077">
<ele>103.83</ele>
<time>2015-04-26T12:05:04Z</time>
</trkpt>
<trkpt lat="35.1516504" lon="32.5450354">
<ele>104.65</ele>
<time>2015-04-26T12:05:06Z</time>
</trkpt>
<trkpt lat="35.1517147" lon="32.5450675">
<ele>104.86</ele>
<time>2015-04-26T12:05:08Z</time>
</trkpt>
<trkpt lat="35.1517847" lon="32.5450850">
<ele>104.91</ele>
<time>2015-04-26T12:05:10Z</time>
</trkpt>
<trkpt lat="35.1518626" lon="32.5450749">
<ele>105.42</ele>
<time>2015-04-26T12:05:12Z</time>
</trkpt>
<trkpt lat="35.1519384" lon="32.5450466">
<ele>105.30</ele>
<time>2015-04-26T12:05:14Z</time>
</trkpt>
<trkpt lat="35.1520135" lon="32.5450211">
<ele>105.77</ele>
<time>2015-04-26T12:05:16Z</time>
</trkpt>
<trkpt lat="35.1520906" lon="32.5450088">
<ele>105.89</ele>
<time>2015-04-26T12:05:18Z</time>
</trkpt>
<trkpt lat="35.1521630" lon="32.5450022">
<ele>105.92</ele>
<time>2015-04-26T12:05:20Z</time>
</trkpt>
<trkpt lat="35.1522182" lon="32.5449978">
<ele>105.42</ele>
<time>2015-04-26T12:05:22Z</time>
</trkpt>
<trkpt lat="35.1522642" lon="32.5449877">
<ele>106.42</ele>
<time>2015-04-26T12:05:37Z</time>
</trkpt>
<trkpt lat="35.1523196" lon="32.5449814">
<ele>109.18</ele>
<time>2015-04-26T12:07:31Z</time>
</trkpt>
<trkpt lat="35.1523644" lon="32.5449718">
<ele>107.50</ele>
<time>2015-04-26T12:07:35Z</time>
</trkpt>
<trkpt lat="35.1524290" lon="32.5449618">
<ele>106.75</ele>
<time>2015-04-26T12:07:38Z</time>
</trkpt>
<trkpt lat="35.1524751" lon="32.5449658">
<ele>106.13</ele>
<time>2015-04-26T12:07:40Z</time>
</trkpt>
<trkpt lat="35.1525175" lon="32.5449869">
<ele>106.73</ele>
<time>2015-04-26T12:07:42Z</time>
</trkpt>
<trkpt lat="35.1525607" lon="32.5450452">
<ele>106.03</ele>
<time>2015-04-26T12:07:45Z</time>
</trkpt>
<trkpt lat="35.1525736" lon="32.5451243">
<ele>105.19</ele>
<time>2015-04-26T12:07:48Z</time>
</trkpt>
<trkpt lat="35.1525579" lon="32.5452019">
<ele>104.08</ele>
<time>2015-04-26T12:07:51Z</time>
</trkpt>
<trkpt lat="35.1525242" lon="32.5452610">
<ele>103.07</ele>
<time>2015-04-26T12:07:54Z</time>
</trkpt>
<trkpt lat="35.1524832" lon="32.5453031">
<ele>102.19</ele>
<time>2015-04-26T12:07:57Z</time>
</trkpt>
<trkpt lat="35.1524324" lon="32.5453362">
<ele>101.44</ele>
<time>2015-04-26T12:08:01Z</time>
</trkpt>
<trkpt lat="35.1523713" lon="32.5453843">
<ele>100.74</ele>
<time>2015-04-26T12:08:04Z</time>
</trkpt>
<trkpt lat="35.1523116" lon="32.5454405">
<ele>99.63</ele>
<time>2015-04-26T12:08:06Z</time>
</trkpt>
<trkpt lat="35.1522508" lon="32.5454922">
<ele>99.10</ele>
<time>2015-04-26T12:08:08Z</time>
</trkpt>
<trkpt lat="35.1521874" lon="32.5455467">
<ele>99.47</ele>
<time>2015-04-26T12:08:10Z</time>
</trkpt>
<trkpt lat="35.1521104" lon="32.5456210">
<ele>99.81</ele>
<time>2015-04-26T12:08:12Z</time>
</trkpt>
<trkpt lat="35.1520407" lon="32.5456805">
<ele>99.40</ele>
<time>2015-04-26T12:08:14Z</time>
</trkpt>
<trkpt lat="35.1519860" lon="32.5457472">
<ele>99.04</ele>
<time>2015-04-26T12:08:16Z</time>
</trkpt>
<trkpt lat="35.1519323" lon="32.5458172">
<ele>98.95</ele>
<time>2015-04-26T12:08:18Z</time>
</trkpt>
<trkpt lat="35.1518918" lon="32.5459024">
<ele>98.93</ele>
<time>2015-04-26T12:08:20Z</time>
</trkpt>
<trkpt lat="35.1518774" lon="32.5459642">
<ele>98.93</ele>
<time>2015-04-26T12:08:21Z</time>
</trkpt>
<trkpt lat="35.1519191" lon="32.5460401">
<ele>98.43</ele>
<time>2015-04-26T12:08:23Z</time>
</trkpt>
<trkpt lat="35.1519636" lon="32.5460503">
<ele>99.68</ele>
<time>2015-04-26T12:08:24Z</time>
</trkpt>
<trkpt lat="35.1520244" lon="32.5460396">
<ele>99.86</ele>
<time>2015-04-26T12:08:26Z</time>
</trkpt>
<trkpt lat="35.1520917" lon="32.5460258">
<ele>99.91</ele>
<time>2015-04-26T12:08:28Z</time>
</trkpt>
<trkpt lat="35.1521402" lon="32.5460045">
<ele>100.67</ele>
<time>2015-04-26T12:08:30Z</time>
</trkpt>
<trkpt lat="35.1522093" lon="32.5459919">
<ele>100.86</ele>
<time>2015-04-26T12:08:32Z</time>
</trkpt>
<trkpt lat="35.1522747" lon="32.5459816">
<ele>100.16</ele>
<time>2015-04-26T12:08:34Z</time>
</trkpt>
<trkpt lat="35.1523406" lon="32.5459798">
<ele>100.23</ele>
<time>2015-04-26T12:08:36Z</time>
</trkpt>
<trkpt lat="35.1524050" lon="32.5459843">
<ele>100.75</ele>
<time>2015-04-26T12:08:38Z</time>
</trkpt>
<trkpt lat="35.1524654" lon="32.5459929">
<ele>100.88</ele>
<time>2015-04-26T12:08:40Z</time>
</trkpt>
<trkpt lat="35.1525298" lon="32.5459974">
<ele>101.41</ele>
<time>2015-04-26T12:08:42Z</time>
</trkpt>
<trkpt lat="35.1526091" lon="32.5460014">
<ele>101.30</ele>
<time>2015-04-26T12:08:44Z</time>
</trkpt>
<trkpt lat="35.1526947" lon="32.5460035">
<ele>101.77</ele>
<time>2015-04-26T12:08:46Z</time>
</trkpt>
<trkpt lat="35.1527800" lon="32.5460085">
<ele>101.89</ele>
<time>2015-04-26T12:08:48Z</time>
</trkpt>
<trkpt lat="35.1528606" lon="32.5460133">
<ele>101.92</ele>
<time>2015-04-26T12:08:50Z</time>
</trkpt>
<trkpt lat="35.1529252" lon="32.5460444">
<ele>102.67</ele>
<time>2015-04-26T12:08:52Z</time>
</trkpt>
<trkpt lat="35.1529605" lon="32.5461152">
<ele>102.86</ele>
<time>2015-04-26T12:08:54Z</time>
</trkpt>
<trkpt lat="35.1529777" lon="32.5462002">
<ele>102.91</ele>
<time>2015-04-26T12:08:56Z</time>
</trkpt>
<trkpt lat="35.1529925" lon="32.5462827">
<ele>103.42</ele>
<time>2015-04-26T12:08:58Z</time>
</trkpt>
<trkpt lat="35.1529999" lon="32.5463704">
<ele>103.80</ele>
<time>2015-04-26T12:09:00Z</time>
</trkpt>
<trkpt lat="35.1529986" lon="32.5464750">
<ele>103.89</ele>
<time>2015-04-26T12:09:02Z</time>
</trkpt>
<trkpt lat="35.1530031" lon="32.5465308">
<ele>103.91</ele>
<time>2015-04-26T12:09:03Z</time>
</trkpt>
<trkpt lat="35.1530317" lon="32.5466294">
<ele>103.17</ele>
<time>2015-04-26T12:09:05Z</time>
</trkpt>
<trkpt lat="35.1530910" lon="32.5467000">
<ele>102.99</ele>
<time>2015-04-26T12:09:07Z</time>
</trkpt>
<trkpt lat="35.1531580" lon="32.5467559">
<ele>103.44</ele>
<time>2015-04-26T12:09:09Z</time>
</trkpt>
<trkpt lat="35.1532008" lon="32.5468274">
<ele>103.80</ele>
<time>2015-04-26T12:09:11Z</time>
</trkpt>
<trkpt lat="35.1532022" lon="32.5469134">
<ele>103.89</ele>
<time>2015-04-26T12:09:13Z</time>
</trkpt>
<trkpt lat="35.1531938" lon="32.5469983">
<ele>104.42</ele>
<time>2015-04-26T12:09:15Z</time>
</trkpt>
<trkpt lat="35.1531937" lon="32.5470857">
<ele>104.05</ele>
<time>2015-04-26T12:09:17Z</time>
</trkpt>
<trkpt lat="35.1532205" lon="32.5471678">
<ele>103.96</ele>
<time>2015-04-26T12:09:19Z</time>
</trkpt>
<trkpt lat="35.1532798" lon="32.5472370">
<ele>103.93</ele>
<time>2015-04-26T12:09:21Z</time>
</trkpt>
<trkpt lat="35.1533555" lon="32.5472840">
<ele>104.68</ele>
<time>2015-04-26T12:09:23Z</time>
</trkpt>
<trkpt lat="35.1534290" lon="32.5473298">
<ele>104.86</ele>
<time>2015-04-26T12:09:25Z</time>
</trkpt>
<trkpt lat="35.1534734" lon="32.5474074">
<ele>104.91</ele>
<time>2015-04-26T12:09:27Z</time>
</trkpt>
<trkpt lat="35.1534880" lon="32.5475043">
<ele>105.17</ele>
<time>2015-04-26T12:09:29Z</time>
</trkpt>
<trkpt lat="35.1534954" lon="32.5476045">
<ele>105.74</ele>
<time>2015-04-26T12:09:31Z</time>
</trkpt>
<trkpt lat="35.1535066" lon="32.5477067">
<ele>105.38</ele>
<time>2015-04-26T12:09:33Z</time>
</trkpt>
<trkpt lat="35.1535332" lon="32.5477645">
<ele>105.65</ele>
<time>2015-04-26T12:09:34Z</time>
</trkpt>
<trkpt lat="35.1535802" lon="32.5478425">
<ele>105.36</ele>
<time>2015-04-26T12:09:36Z</time>
</trkpt>
<trkpt lat="35.1536268" lon="32.5479094">
<ele>105.28</ele>
<time>2015-04-26T12:09:38Z</time>
</trkpt>
<trkpt lat="35.1536906" lon="32.5479761">
<ele>105.01</ele>
<time>2015-04-26T12:09:40Z</time>
</trkpt>
<trkpt lat="35.1537725" lon="32.5479986">
<ele>104.95</ele>
<time>2015-04-26T12:09:42Z</time>
</trkpt>
<trkpt lat="35.1538581" lon="32.5479790">
<ele>105.68</ele>
<time>2015-04-26T12:09:44Z</time>
</trkpt>
<trkpt lat="35.1539264" lon="32.5479376">
<ele>105.86</ele>
<time>2015-04-26T12:09:46Z</time>
</trkpt>
<trkpt lat="35.1539844" lon="32.5479091">
<ele>106.66</ele>
<time>2015-04-26T12:09:48Z</time>
</trkpt>
<trkpt lat="35.1540405" lon="32.5479062">
<ele>106.86</ele>
<time>2015-04-26T12:09:50Z</time>
</trkpt>
<trkpt lat="35.1540983" lon="32.5479426">
<ele>106.91</ele>
<time>2015-04-26T12:09:52Z</time>
</trkpt>
<trkpt lat="35.1541615" lon="32.5480072">
<ele>106.92</ele>
<time>2015-04-26T12:09:54Z</time>
</trkpt>
<trkpt lat="35.1541931" lon="32.5480471">
<ele>106.92</ele>
<time>2015-04-26T12:09:55Z</time>
</trkpt>
<trkpt lat="35.1542218" lon="32.5480901">
<ele>106.92</ele>
<time>2015-04-26T12:09:56Z</time>
</trkpt>
<trkpt lat="35.1542716" lon="32.5481791">
<ele>106.92</ele>
<time>2015-04-26T12:09:58Z</time>
</trkpt>
<trkpt lat="35.1543086" lon="32.5482633">
<ele>107.67</ele>
<time>2015-04-26T12:10:00Z</time>
</trkpt>
<trkpt lat="35.1543276" lon="32.5483494">
<ele>107.11</ele>
<time>2015-04-26T12:10:02Z</time>
</trkpt>
<trkpt lat="35.1543358" lon="32.5484417">
<ele>106.97</ele>
<time>2015-04-26T12:10:04Z</time>
</trkpt>
<trkpt lat="35.1543463" lon="32.5485491">
<ele>106.94</ele>
<time>2015-04-26T12:10:06Z</time>
</trkpt>
<trkpt lat="35.1543555" lon="32.5486056">
<ele>106.93</ele>
<time>2015-04-26T12:10:07Z</time>
</trkpt>
<trkpt lat="35.1543610" lon="32.5486692">
<ele>106.93</ele>
<time>2015-04-26T12:10:08Z</time>
</trkpt>
<trkpt lat="35.1543790" lon="32.5487608">
<ele>106.93</ele>
<time>2015-04-26T12:10:10Z</time>
</trkpt>
<trkpt lat="35.1543918" lon="32.5488484">
<ele>106.93</ele>
<time>2015-04-26T12:10:12Z</time>
</trkpt>
<trkpt lat="35.1543872" lon="32.5489345">
<ele>106.93</ele>
<time>2015-04-26T12:10:14Z</time>
</trkpt>
<trkpt lat="35.1543906" lon="32.5490308">
<ele>106.93</ele>
<time>2015-04-26T12:10:16Z</time>
</trkpt>
<trkpt lat="35.1544121" lon="32.5491217">
<ele>106.18</ele>
<time>2015-04-26T12:10:18Z</time>
</trkpt>
<trkpt lat="35.1544420" lon="32.5492033">
<ele>105.99</ele>
<time>2015-04-26T12:10:20Z</time>
</trkpt>
<trkpt lat="35.1544825" lon="32.5492721">
<ele>105.44</ele>
<time>2015-04-26T12:10:22Z</time>
</trkpt>
<trkpt lat="35.1545407" lon="32.5492813">
<ele>105.05</ele>
<time>2015-04-26T12:10:24Z</time>
</trkpt>
<trkpt lat="35.1545826" lon="32.5492299">
<ele>104.71</ele>
<time>2015-04-26T12:10:26Z</time>
</trkpt>
<trkpt lat="35.1546147" lon="32.5491688">
<ele>104.87</ele>
<time>2015-04-26T12:10:28Z</time>
</trkpt>
<trkpt lat="35.1546472" lon="32.5491133">
<ele>104.91</ele>
<time>2015-04-26T12:10:30Z</time>
</trkpt>
<trkpt lat="35.1546804" lon="32.5490654">
<ele>104.92</ele>
<time>2015-04-26T12:10:32Z</time>
</trkpt>
<trkpt lat="35.1547136" lon="32.5490218">
<ele>104.92</ele>
<time>2015-04-26T12:10:34Z</time>
</trkpt>
<trkpt lat="35.1547462" lon="32.5489733">
<ele>104.92</ele>
<time>2015-04-26T12:10:36Z</time>
</trkpt>
<trkpt lat="35.1547886" lon="32.5489169">
<ele>104.92</ele>
<time>2015-04-26T12:10:38Z</time>
</trkpt>
<trkpt lat="35.1548529" lon="32.5488823">
<ele>104.92</ele>
<time>2015-04-26T12:10:40Z</time>
</trkpt>
<trkpt lat="35.1549226" lon="32.5488511">
<ele>105.17</ele>
<time>2015-04-26T12:10:42Z</time>
</trkpt>
<trkpt lat="35.1549944" lon="32.5488014">
<ele>105.74</ele>
<time>2015-04-26T12:10:44Z</time>
</trkpt>
<trkpt lat="35.1550511" lon="32.5487237">
<ele>106.38</ele>
<time>2015-04-26T12:10:46Z</time>
</trkpt>
<trkpt lat="35.1550851" lon="32.5486293">
<ele>106.79</ele>
<time>2015-04-26T12:10:48Z</time>
</trkpt>
<trkpt lat="35.1551188" lon="32.5485366">
<ele>106.14</ele>
<time>2015-04-26T12:10:50Z</time>
</trkpt>
<trkpt lat="35.1551524" lon="32.5484431">
<ele>105.98</ele>
<time>2015-04-26T12:10:52Z</time>
</trkpt>
<trkpt lat="35.1551930" lon="32.5483631">
<ele>105.94</ele>
<time>2015-04-26T12:10:54Z</time>
</trkpt>
<trkpt lat="35.1552476" lon="32.5483292">
<ele>105.93</ele>
<time>2015-04-26T12:10:56Z</time>
</trkpt>
<trkpt lat="35.1553064" lon="32.5483113">
<ele>106.68</ele>
<time>2015-04-26T12:10:58Z</time>
</trkpt>
<trkpt lat="35.1553640" lon="32.5483027">
<ele>106.39</ele>
<time>2015-04-26T12:11:01Z</time>
</trkpt>
<trkpt lat="35.1554122" lon="32.5483101">
<ele>105.98</ele>
<time>2015-04-26T12:11:04Z</time>
</trkpt>
<trkpt lat="35.1554573" lon="32.5483205">
<ele>105.93</ele>
<time>2015-04-26T12:11:07Z</time>
</trkpt>
<trkpt lat="35.1555359" lon="32.5483397">
<ele>105.43</ele>
<time>2015-04-26T12:11:10Z</time>
</trkpt>
<trkpt lat="35.1555833" lon="32.5483566">
<ele>104.68</ele>
<time>2015-04-26T12:11:11Z</time>
</trkpt>
<trkpt lat="35.1556438" lon="32.5483867">
<ele>103.80</ele>
<time>2015-04-26T12:11:12Z</time>
</trkpt>
<trkpt lat="35.1557000" lon="32.5484089">
<ele>103.36</ele>
<time>2015-04-26T12:11:13Z</time>
</trkpt>
<trkpt lat="35.1557616" lon="32.5484340">
<ele>102.64</ele>
<time>2015-04-26T12:11:14Z</time>
</trkpt>
<trkpt lat="35.1558248" lon="32.5484586">
<ele>101.78</ele>
<time>2015-04-26T12:11:15Z</time>
</trkpt>
<trkpt lat="35.1558879" lon="32.5484845">
<ele>100.85</ele>
<time>2015-04-26T12:11:16Z</time>
</trkpt>
<trkpt lat="35.1559500" lon="32.5485124">
<ele>99.89</ele>
<time>2015-04-26T12:11:17Z</time>
</trkpt>
<trkpt lat="35.1560143" lon="32.5485388">
<ele>98.91</ele>
<time>2015-04-26T12:11:18Z</time>
</trkpt>
<trkpt lat="35.1560801" lon="32.5485572">
<ele>97.92</ele>
<time>2015-04-26T12:11:19Z</time>
</trkpt>
<trkpt lat="35.1561555" lon="32.5485716">
<ele>97.42</ele>
<time>2015-04-26T12:11:20Z</time>
</trkpt>
<trkpt lat="35.1562304" lon="32.5485750">
<ele>96.67</ele>
<time>2015-04-26T12:11:21Z</time>
</trkpt>
<trkpt lat="35.1563056" lon="32.5485804">
<ele>95.80</ele>
<time>2015-04-26T12:11:22Z</time>
</trkpt>
<trkpt lat="35.1563850" lon="32.5485807">
<ele>94.86</ele>
<time>2015-04-26T12:11:23Z</time>
</trkpt>
<trkpt lat="35.1564725" lon="32.5485774">
<ele>93.89</ele>
<time>2015-04-26T12:11:24Z</time>
</trkpt>
<trkpt lat="35.1565693" lon="32.5485674">
<ele>92.91</ele>
<time>2015-04-26T12:11:25Z</time>
</trkpt>
<trkpt lat="35.1566694" lon="32.5485507">
<ele>91.92</ele>
<time>2015-04-26T12:11:26Z</time>
</trkpt>
<trkpt lat="35.1567689" lon="32.5485358">
<ele>90.92</ele>
<time>2015-04-26T12:11:27Z</time>
</trkpt>
<trkpt lat="35.1568779" lon="32.5485167">
<ele>90.42</ele>
<time>2015-04-26T12:11:28Z</time>
</trkpt>
<trkpt lat="35.1569831" lon="32.5484973">
<ele>89.67</ele>
<time>2015-04-26T12:11:29Z</time>
</trkpt>
<trkpt lat="35.1570958" lon="32.5484764">
<ele>88.80</ele>
<time>2015-04-26T12:11:30Z</time>
</trkpt>
<trkpt lat="35.1572086" lon="32.5484561">
<ele>87.86</ele>
<time>2015-04-26T12:11:31Z</time>
</trkpt>
<trkpt lat="35.1573193" lon="32.5484305">
<ele>86.89</ele>
<time>2015-04-26T12:11:32Z</time>
</trkpt>
<trkpt lat="35.1574229" lon="32.5484064">
<ele>85.91</ele>
<time>2015-04-26T12:11:33Z</time>
</trkpt>
<trkpt lat="35.1575245" lon="32.5483814">
<ele>84.42</ele>
<time>2015-04-26T12:11:34Z</time>
</trkpt>
<trkpt lat="35.1576309" lon="32.5483521">
<ele>83.67</ele>
<time>2015-04-26T12:11:35Z</time>
</trkpt>
<trkpt lat="35.1577251" lon="32.5483267">
<ele>83.30</ele>
<time>2015-04-26T12:11:36Z</time>
</trkpt>
<trkpt lat="35.1578188" lon="32.5483014">
<ele>82.61</ele>
<time>2015-04-26T12:11:37Z</time>
</trkpt>
<trkpt lat="35.1579039" lon="32.5482765">
<ele>81.77</ele>
<time>2015-04-26T12:11:38Z</time>
</trkpt>
<trkpt lat="35.1579817" lon="32.5482525">
<ele>80.85</ele>
<time>2015-04-26T12:11:39Z</time>
</trkpt>
<trkpt lat="35.1580427" lon="32.5482288">
<ele>79.89</ele>
<time>2015-04-26T12:11:40Z</time>
</trkpt>
<trkpt lat="35.1580903" lon="32.5482096">
<ele>78.91</ele>
<time>2015-04-26T12:11:41Z</time>
</trkpt>
<trkpt lat="35.1581689" lon="32.5481953">
<ele>77.67</ele>
<time>2015-04-26T12:11:43Z</time>
</trkpt>
<trkpt lat="35.1582341" lon="32.5481869">
<ele>75.86</ele>
<time>2015-04-26T12:11:45Z</time>
</trkpt>
<trkpt lat="35.1583071" lon="32.5481820">
<ele>74.66</ele>
<time>2015-04-26T12:11:47Z</time>
</trkpt>
<trkpt lat="35.1583572" lon="32.5481811">
<ele>73.79</ele>
<time>2015-04-26T12:11:48Z</time>
</trkpt>
<trkpt lat="35.1584108" lon="32.5481826">
<ele>72.86</ele>
<time>2015-04-26T12:11:49Z</time>
</trkpt>
<trkpt lat="35.1584657" lon="32.5481916">
<ele>71.89</ele>
<time>2015-04-26T12:11:50Z</time>
</trkpt>
<trkpt lat="35.1585335" lon="32.5481861">
<ele>70.91</ele>
<time>2015-04-26T12:11:51Z</time>
</trkpt>
<trkpt lat="35.1585946" lon="32.5481808">
<ele>69.92</ele>
<time>2015-04-26T12:11:52Z</time>
</trkpt>
<trkpt lat="35.1586544" lon="32.5481740">
<ele>68.92</ele>
<time>2015-04-26T12:11:53Z</time>
</trkpt>
<trkpt lat="35.1587060" lon="32.5481695">
<ele>68.42</ele>
<time>2015-04-26T12:11:54Z</time>
</trkpt>
<trkpt lat="35.1587868" lon="32.5481624">
<ele>67.30</ele>
<time>2015-04-26T12:11:56Z</time>
</trkpt>
<trkpt lat="35.1588538" lon="32.5481572">
<ele>66.27</ele>
<time>2015-04-26T12:11:58Z</time>
</trkpt>
<trkpt lat="35.1589255" lon="32.5481504">
<ele>65.51</ele>
<time>2015-04-26T12:12:00Z</time>
</trkpt>
<trkpt lat="35.1589970" lon="32.5481223">
<ele>64.32</ele>
<time>2015-04-26T12:12:02Z</time>
</trkpt>
<trkpt lat="35.1590761" lon="32.5480901">
<ele>62.77</ele>
<time>2015-04-26T12:12:04Z</time>
</trkpt>
<trkpt lat="35.1591579" lon="32.5480603">
<ele>60.39</ele>
<time>2015-04-26T12:12:06Z</time>
</trkpt>
<trkpt lat="35.1592520" lon="32.5480409">
<ele>58.04</ele>
<time>2015-04-26T12:12:08Z</time>
</trkpt>
<trkpt lat="35.1593035" lon="32.5480411">
<ele>56.98</ele>
<time>2015-04-26T12:12:09Z</time>
</trkpt>
<trkpt lat="35.1593518" lon="32.5480396">
<ele>55.95</ele>
<time>2015-04-26T12:12:10Z</time>
</trkpt>
<trkpt lat="35.1593984" lon="32.5480343">
<ele>54.94</ele>
<time>2015-04-26T12:12:11Z</time>
</trkpt>
<trkpt lat="35.1594602" lon="32.5480296">
<ele>52.93</ele>
<time>2015-04-26T12:12:13Z</time>
</trkpt>
<trkpt lat="35.1595168" lon="32.5480273">
<ele>52.18</ele>
<time>2015-04-26T12:12:15Z</time>
</trkpt>
<trkpt lat="35.1595614" lon="32.5480346">
<ele>50.74</ele>
<time>2015-04-26T12:12:17Z</time>
</trkpt>
<trkpt lat="35.1596038" lon="32.5480656">
<ele>46.92</ele>
<time>2015-04-26T12:13:51Z</time>
</trkpt>
<trkpt lat="35.1595789" lon="32.5481129">
<ele>47.42</ele>
<time>2015-04-26T12:13:54Z</time>
</trkpt>
<trkpt lat="35.1595385" lon="32.5481623">
<ele>46.99</ele>
<time>2015-04-26T12:13:57Z</time>
</trkpt>
<trkpt lat="35.1594893" lon="32.5482082">
<ele>45.31</ele>
<time>2015-04-26T12:14:00Z</time>
</trkpt>
<trkpt lat="35.1594515" lon="32.5482448">
<ele>44.47</ele>
<time>2015-04-26T12:14:03Z</time>
</trkpt>
<trkpt lat="35.1594067" lon="32.5482792">
<ele>43.52</ele>
<time>2015-04-26T12:14:07Z</time>
</trkpt>
<trkpt lat="35.1593654" lon="32.5483257">
<ele>44.65</ele>
<time>2015-04-26T12:14:11Z</time>
</trkpt>
<trkpt lat="35.1593222" lon="32.5483592">
<ele>45.52</ele>
<time>2015-04-26T12:14:14Z</time>
</trkpt>
<trkpt lat="35.1592736" lon="32.5484136">
<ele>47.12</ele>
<time>2015-04-26T12:14:17Z</time>
</trkpt>
<trkpt lat="35.1592322" lon="32.5484629">
<ele>46.97</ele>
<time>2015-04-26T12:14:19Z</time>
</trkpt>
<trkpt lat="35.1592105" lon="32.5485148">
<ele>46.44</ele>
<time>2015-04-26T12:14:21Z</time>
</trkpt>
<trkpt lat="35.1592203" lon="32.5485687">
<ele>45.24</ele>
<time>2015-04-26T12:14:24Z</time>
</trkpt>
<trkpt lat="35.1592554" lon="32.5486095">
<ele>44.46</ele>
<time>2015-04-26T12:14:27Z</time>
</trkpt>
<trkpt lat="35.1592879" lon="32.5486543">
<ele>44.06</ele>
<time>2015-04-26T12:14:29Z</time>
</trkpt>
<trkpt lat="35.1593211" lon="32.5487095">
<ele>43.96</ele>
<time>2015-04-26T12:14:31Z</time>
</trkpt>
<trkpt lat="35.1593449" lon="32.5487590">
<ele>43.44</ele>
<time>2015-04-26T12:14:32Z</time>
</trkpt>
<trkpt lat="35.1593637" lon="32.5488135">
<ele>43.18</ele>
<time>2015-04-26T12:14:33Z</time>
</trkpt>
<trkpt lat="35.1593642" lon="32.5488846">
<ele>42.55</ele>
<time>2015-04-26T12:14:34Z</time>
</trkpt>
<trkpt lat="35.1593586" lon="32.5489514">
<ele>42.24</ele>
<time>2015-04-26T12:14:35Z</time>
</trkpt>
<trkpt lat="35.1593723" lon="32.5490172">
<ele>42.08</ele>
<time>2015-04-26T12:14:36Z</time>
</trkpt>
<trkpt lat="35.1593942" lon="32.5490831">
<ele>42.00</ele>
<time>2015-04-26T12:14:37Z</time>
</trkpt>
<trkpt lat="35.1594223" lon="32.5491477">
<ele>41.96</ele>
<time>2015-04-26T12:14:38Z</time>
</trkpt>
<trkpt lat="35.1594459" lon="32.5492087">
<ele>41.94</ele>
<time>2015-04-26T12:14:39Z</time>
</trkpt>
<trkpt lat="35.1594702" lon="32.5492648">
<ele>41.93</ele>
<time>2015-04-26T12:14:40Z</time>
</trkpt>
<trkpt lat="35.1595008" lon="32.5493107">
<ele>41.93</ele>
<time>2015-04-26T12:14:41Z</time>
</trkpt>
<trkpt lat="35.1595344" lon="32.5493524">
<ele>41.93</ele>
<time>2015-04-26T12:14:42Z</time>
</trkpt>
<trkpt lat="35.1595626" lon="32.5493981">
<ele>41.93</ele>
<time>2015-04-26T12:14:43Z</time>
</trkpt>
<trkpt lat="35.1596182" lon="32.5494736">
<ele>41.93</ele>
<time>2015-04-26T12:14:45Z</time>
</trkpt>
<trkpt lat="35.1596449" lon="32.5495204">
<ele>41.43</ele>
<time>2015-04-26T12:14:46Z</time>
</trkpt>
<trkpt lat="35.1596901" lon="32.5496103">
<ele>41.05</ele>
<time>2015-04-26T12:14:48Z</time>
</trkpt>
<trkpt lat="35.1597154" lon="32.5496577">
<ele>40.99</ele>
<time>2015-04-26T12:14:49Z</time>
</trkpt>
<trkpt lat="35.1597411" lon="32.5497504">
<ele>40.94</ele>
<time>2015-04-26T12:14:51Z</time>
</trkpt>
<trkpt lat="35.1597626" lon="32.5498519">
<ele>39.68</ele>
<time>2015-04-26T12:14:53Z</time>
</trkpt>
<trkpt lat="35.1597776" lon="32.5499240">
<ele>38.80</ele>
<time>2015-04-26T12:14:54Z</time>
</trkpt>
<trkpt lat="35.1597856" lon="32.5499961">
<ele>38.36</ele>
<time>2015-04-26T12:14:55Z</time>
</trkpt>
<trkpt lat="35.1597852" lon="32.5500734">
<ele>38.14</ele>
<time>2015-04-26T12:14:56Z</time>
</trkpt>
<trkpt lat="35.1597927" lon="32.5501460">
<ele>37.53</ele>
<time>2015-04-26T12:14:57Z</time>
</trkpt>
<trkpt lat="35.1597994" lon="32.5502016">
<ele>37.23</ele>
<time>2015-04-26T12:14:58Z</time>
</trkpt>
<trkpt lat="35.1598457" lon="32.5502859">
<ele>36.50</ele>
<time>2015-04-26T12:15:00Z</time>
</trkpt>
<trkpt lat="35.1599000" lon="32.5503354">
<ele>36.07</ele>
<time>2015-04-26T12:15:02Z</time>
</trkpt>
<trkpt lat="35.1599497" lon="32.5503979">
<ele>35.21</ele>
<time>2015-04-26T12:15:04Z</time>
</trkpt>
<trkpt lat="35.1599831" lon="32.5504841">
<ele>35.00</ele>
<time>2015-04-26T12:15:06Z</time>
</trkpt>
<trkpt lat="35.1600016" lon="32.5505732">
<ele>34.94</ele>
<time>2015-04-26T12:15:08Z</time>
</trkpt>
<trkpt lat="35.1600231" lon="32.5506542">
<ele>34.93</ele>
<time>2015-04-26T12:15:10Z</time>
</trkpt>
<trkpt lat="35.1600451" lon="32.5507295">
<ele>34.93</ele>
<time>2015-04-26T12:15:12Z</time>
</trkpt>
<trkpt lat="35.1600600" lon="32.5508164">
<ele>35.68</ele>
<time>2015-04-26T12:15:14Z</time>
</trkpt>
<trkpt lat="35.1600554" lon="32.5509530">
<ele>34.36</ele>
<time>2015-04-26T12:15:16Z</time>
</trkpt>
<trkpt lat="35.1600520" lon="32.5510191">
<ele>34.14</ele>
<time>2015-04-26T12:15:17Z</time>
</trkpt>
<trkpt lat="35.1600555" lon="32.5510798">
<ele>34.53</ele>
<time>2015-04-26T12:15:18Z</time>
</trkpt>
<trkpt lat="35.1600641" lon="32.5511450">
<ele>35.23</ele>
<time>2015-04-26T12:15:19Z</time>
</trkpt>
<trkpt lat="35.1600750" lon="32.5512017">
<ele>36.08</ele>
<time>2015-04-26T12:15:20Z</time>
</trkpt>
<trkpt lat="35.1600812" lon="32.5512671">
<ele>37.00</ele>
<time>2015-04-26T12:15:21Z</time>
</trkpt>
<trkpt lat="35.1601076" lon="32.5513293">
<ele>37.96</ele>
<time>2015-04-26T12:15:22Z</time>
</trkpt>
<trkpt lat="35.1601258" lon="32.5513873">
<ele>38.44</ele>
<time>2015-04-26T12:15:23Z</time>
</trkpt>
<trkpt lat="35.1601445" lon="32.5514544">
<ele>38.68</ele>
<time>2015-04-26T12:15:24Z</time>
</trkpt>
<trkpt lat="35.1601652" lon="32.5515084">
<ele>39.30</ele>
<time>2015-04-26T12:15:25Z</time>
</trkpt>
<trkpt lat="35.1601810" lon="32.5515612">
<ele>39.11</ele>
<time>2015-04-26T12:15:26Z</time>
</trkpt>
<trkpt lat="35.1602087" lon="32.5516494">
<ele>37.47</ele>
<time>2015-04-26T12:15:28Z</time>
</trkpt>
<trkpt lat="35.1602293" lon="32.5517335">
<ele>35.56</ele>
<time>2015-04-26T12:15:30Z</time>
</trkpt>
<trkpt lat="35.1602452" lon="32.5517963">
<ele>34.33</ele>
<time>2015-04-26T12:15:32Z</time>
</trkpt>
<trkpt lat="35.1602745" lon="32.5518399">
<ele>33.23</ele>
<time>2015-04-26T12:15:35Z</time>
</trkpt>
<trkpt lat="35.1603232" lon="32.5518216">
<ele>33.43</ele>
<time>2015-04-26T12:15:40Z</time>
</trkpt>
<trkpt lat="35.1603257" lon="32.5517580">
<ele>33.91</ele>
<time>2015-04-26T12:15:45Z</time>
</trkpt>
<trkpt lat="35.1603331" lon="32.5517003">
<ele>33.92</ele>
<time>2015-04-26T12:15:50Z</time>
</trkpt>
<trkpt lat="35.1603166" lon="32.5517624">
<ele>33.93</ele>
<time>2015-04-26T12:16:01Z</time>
</trkpt>
<trkpt lat="35.1603143" lon="32.5518278">
<ele>33.18</ele>
<time>2015-04-26T12:16:04Z</time>
</trkpt>
<trkpt lat="35.1603056" lon="32.5518825">
<ele>32.99</ele>
<time>2015-04-26T12:16:06Z</time>
</trkpt>
<trkpt lat="35.1603036" lon="32.5519385">
<ele>33.44</ele>
<time>2015-04-26T12:16:08Z</time>
</trkpt>
<trkpt lat="35.1603127" lon="32.5519997">
<ele>33.86</ele>
<time>2015-04-26T12:16:11Z</time>
</trkpt>
<trkpt lat="35.1603504" lon="32.5520493">
<ele>33.92</ele>
<time>2015-04-26T12:16:15Z</time>
</trkpt>
<trkpt lat="35.1603945" lon="32.5521009">
<ele>33.42</ele>
<time>2015-04-26T12:16:18Z</time>
</trkpt>
<trkpt lat="35.1604572" lon="32.5521682">
<ele>31.55</ele>
<time>2015-04-26T12:16:20Z</time>
</trkpt>
<trkpt lat="35.1605314" lon="32.5522006">
<ele>31.08</ele>
<time>2015-04-26T12:16:22Z</time>
</trkpt>
<trkpt lat="35.1606143" lon="32.5521861">
<ele>30.46</ele>
<time>2015-04-26T12:16:24Z</time>
</trkpt>
<trkpt lat="35.1606634" lon="32.5521622">
<ele>30.19</ele>
<time>2015-04-26T12:16:25Z</time>
</trkpt>
<trkpt lat="35.1607212" lon="32.5521065">
<ele>29.56</ele>
<time>2015-04-26T12:16:26Z</time>
</trkpt>
<trkpt lat="35.1607669" lon="32.5520714">
<ele>29.24</ele>
<time>2015-04-26T12:16:27Z</time>
</trkpt>
<trkpt lat="35.1608096" lon="32.5520356">
<ele>28.58</ele>
<time>2015-04-26T12:16:28Z</time>
</trkpt>
<trkpt lat="35.1608529" lon="32.5519990">
<ele>28.25</ele>
<time>2015-04-26T12:16:29Z</time>
</trkpt>
<trkpt lat="35.1608910" lon="32.5519646">
<ele>28.09</ele>
<time>2015-04-26T12:16:30Z</time>
</trkpt>
<trkpt lat="35.1609357" lon="32.5519306">
<ele>27.51</ele>
<time>2015-04-26T12:16:31Z</time>
</trkpt>
<trkpt lat="35.1609783" lon="32.5518929">
<ele>27.22</ele>
<time>2015-04-26T12:16:32Z</time>
</trkpt>
<trkpt lat="35.1610156" lon="32.5518516">
<ele>27.07</ele>
<time>2015-04-26T12:16:33Z</time>
</trkpt>
<trkpt lat="35.1610577" lon="32.5518148">
<ele>27.00</ele>
<time>2015-04-26T12:16:34Z</time>
</trkpt>
<trkpt lat="35.1610981" lon="32.5517733">
<ele>26.96</ele>
<time>2015-04-26T12:16:35Z</time>
</trkpt>
<trkpt lat="35.1611316" lon="32.5517266">
<ele>26.94</ele>
<time>2015-04-26T12:16:36Z</time>
</trkpt>
<trkpt lat="35.1611678" lon="32.5516785">
<ele>26.93</ele>
<time>2015-04-26T12:16:37Z</time>
</trkpt>
<trkpt lat="35.1612006" lon="32.5516367">
<ele>26.93</ele>
<time>2015-04-26T12:16:38Z</time>
</trkpt>
<trkpt lat="35.1612402" lon="32.5515950">
<ele>26.93</ele>
<time>2015-04-26T12:16:39Z</time>
</trkpt>
<trkpt lat="35.1612858" lon="32.5515497">
<ele>26.93</ele>
<time>2015-04-26T12:16:40Z</time>
</trkpt>
<trkpt lat="35.1613298" lon="32.5515168">
<ele>27.43</ele>
<time>2015-04-26T12:16:41Z</time>
</trkpt>
<trkpt lat="35.1613781" lon="32.5514793">
<ele>27.68</ele>
<time>2015-04-26T12:16:42Z</time>
</trkpt>
<trkpt lat="35.1614237" lon="32.5514429">
<ele>27.80</ele>
<time>2015-04-26T12:16:43Z</time>
</trkpt>
<trkpt lat="35.1614764" lon="32.5514128">
<ele>28.86</ele>
<time>2015-04-26T12:16:44Z</time>
</trkpt>
<trkpt lat="35.1615255" lon="32.5513809">
<ele>29.89</ele>
<time>2015-04-26T12:16:45Z</time>
</trkpt>
<trkpt lat="35.1615657" lon="32.5513464">
<ele>30.41</ele>
<time>2015-04-26T12:16:46Z</time>
</trkpt>
<trkpt lat="35.1616093" lon="32.5513154">
<ele>30.67</ele>
<time>2015-04-26T12:16:47Z</time>
</trkpt>
<trkpt lat="35.1616543" lon="32.5512870">
<ele>30.30</ele>
<time>2015-04-26T12:16:48Z</time>
</trkpt>
<trkpt lat="35.1616999" lon="32.5512484">
<ele>30.11</ele>
<time>2015-04-26T12:16:49Z</time>
</trkpt>
<trkpt lat="35.1617398" lon="32.5512094">
<ele>30.02</ele>
<time>2015-04-26T12:16:50Z</time>
</trkpt>
<trkpt lat="35.1617796" lon="32.5511712">
<ele>29.97</ele>
<time>2015-04-26T12:16:51Z</time>
</trkpt>
<trkpt lat="35.1618158" lon="32.5511329">
<ele>29.45</ele>
<time>2015-04-26T12:16:52Z</time>
</trkpt>
<trkpt lat="35.1618540" lon="32.5510891">
<ele>29.69</ele>
<time>2015-04-26T12:16:53Z</time>
</trkpt>
<trkpt lat="35.1618899" lon="32.5510496">
<ele>29.31</ele>
<time>2015-04-26T12:16:54Z</time>
</trkpt>
<trkpt lat="35.1619340" lon="32.5510065">
<ele>28.62</ele>
<time>2015-04-26T12:16:55Z</time>
</trkpt>
<trkpt lat="35.1619722" lon="32.5509609">
<ele>27.77</ele>
<time>2015-04-26T12:16:56Z</time>
</trkpt>
<trkpt lat="35.1620135" lon="32.5509362">
<ele>27.85</ele>
<time>2015-04-26T12:16:57Z</time>
</trkpt>
<trkpt lat="35.1620786" lon="32.5508621">
<ele>27.16</ele>
<time>2015-04-26T12:16:59Z</time>
</trkpt>
<trkpt lat="35.1621386" lon="32.5508412">
<ele>27.48</ele>
<time>2015-04-26T12:17:01Z</time>
</trkpt>
<trkpt lat="35.1621935" lon="32.5508419">
<ele>27.37</ele>
<time>2015-04-26T12:17:04Z</time>
</trkpt>
<trkpt lat="35.1622391" lon="32.5508222">
<ele>28.54</ele>
<time>2015-04-26T12:17:06Z</time>
</trkpt>
<trkpt lat="35.1622740" lon="32.5507830">
<ele>29.58</ele>
<time>2015-04-26T12:17:08Z</time>
</trkpt>
<trkpt lat="35.1623046" lon="32.5507349">
<ele>29.84</ele>
<time>2015-04-26T12:17:10Z</time>
</trkpt>
<trkpt lat="35.1623411" lon="32.5506882">
<ele>30.40</ele>
<time>2015-04-26T12:17:12Z</time>
</trkpt>
<trkpt lat="35.1623776" lon="32.5506341">
<ele>30.29</ele>
<time>2015-04-26T12:17:14Z</time>
</trkpt>
<trkpt lat="35.1624185" lon="32.5505690">
<ele>30.02</ele>
<time>2015-04-26T12:17:16Z</time>
</trkpt>
<trkpt lat="35.1624720" lon="32.5504936">
<ele>29.95</ele>
<time>2015-04-26T12:17:18Z</time>
</trkpt>
<trkpt lat="35.1625116" lon="32.5504125">
<ele>29.44</ele>
<time>2015-04-26T12:17:19Z</time>
</trkpt>
<trkpt lat="35.1625368" lon="32.5503640">
<ele>29.18</ele>
<time>2015-04-26T12:17:20Z</time>
</trkpt>
<trkpt lat="35.1625620" lon="32.5503176">
<ele>29.05</ele>
<time>2015-04-26T12:17:21Z</time>
</trkpt>
<trkpt lat="35.1625869" lon="32.5502620">
<ele>28.99</ele>
<time>2015-04-26T12:17:22Z</time>
</trkpt>
<trkpt lat="35.1626105" lon="32.5502110">
<ele>28.96</ele>
<time>2015-04-26T12:17:23Z</time>
</trkpt>
<trkpt lat="35.1626370" lon="32.5501639">
<ele>29.44</ele>
<time>2015-04-26T12:17:24Z</time>
</trkpt>
<trkpt lat="35.1626619" lon="32.5501069">
<ele>29.68</ele>
<time>2015-04-26T12:17:25Z</time>
</trkpt>
<trkpt lat="35.1626847" lon="32.5500556">
<ele>29.80</ele>
<time>2015-04-26T12:17:26Z</time>
</trkpt>
<trkpt lat="35.1627097" lon="32.5500020">
<ele>29.86</ele>
<time>2015-04-26T12:17:27Z</time>
</trkpt>
<trkpt lat="35.1627489" lon="32.5499065">
<ele>29.41</ele>
<time>2015-04-26T12:17:29Z</time>
</trkpt>
<trkpt lat="35.1627886" lon="32.5498221">
<ele>29.05</ele>
<time>2015-04-26T12:17:31Z</time>
</trkpt>
<trkpt lat="35.1628412" lon="32.5497539">
<ele>29.46</ele>
<time>2015-04-26T12:17:33Z</time>
</trkpt>
<trkpt lat="35.1629055" lon="32.5496987">
<ele>29.81</ele>
<time>2015-04-26T12:17:35Z</time>
</trkpt>
<trkpt lat="35.1629552" lon="32.5496634">
<ele>29.90</ele>
<time>2015-04-26T12:17:37Z</time>
</trkpt>
<trkpt lat="35.1630160" lon="32.5496208">
<ele>30.42</ele>
<time>2015-04-26T12:17:39Z</time>
</trkpt>
<trkpt lat="35.1630613" lon="32.5495505">
<ele>32.05</ele>
<time>2015-04-26T12:17:41Z</time>
</trkpt>
<trkpt lat="35.1631056" lon="32.5494774">
<ele>34.21</ele>
<time>2015-04-26T12:17:43Z</time>
</trkpt>
<trkpt lat="35.1631437" lon="32.5494057">
<ele>34.25</ele>
<time>2015-04-26T12:17:45Z</time>
</trkpt>
<trkpt lat="35.1631760" lon="32.5493442">
<ele>34.01</ele>
<time>2015-04-26T12:17:47Z</time>
</trkpt>
<trkpt lat="35.1632071" lon="32.5492876">
<ele>33.70</ele>
<time>2015-04-26T12:17:49Z</time>
</trkpt>
<trkpt lat="35.1632388" lon="32.5492303">
<ele>33.37</ele>
<time>2015-04-26T12:17:51Z</time>
</trkpt>
<trkpt lat="35.1632694" lon="32.5491731">
<ele>33.04</ele>
<time>2015-04-26T12:17:53Z</time>
</trkpt>
<trkpt lat="35.1633031" lon="32.5491136">
<ele>32.95</ele>
<time>2015-04-26T12:17:55Z</time>
</trkpt>
<trkpt lat="35.1633223" lon="32.5490463">
<ele>33.43</ele>
<time>2015-04-26T12:17:57Z</time>
</trkpt>
<trkpt lat="35.1633466" lon="32.5489806">
<ele>33.80</ele>
<time>2015-04-26T12:17:59Z</time>
</trkpt>
<trkpt lat="35.1633730" lon="32.5489202">
<ele>33.39</ele>
<time>2015-04-26T12:18:01Z</time>
</trkpt>
<trkpt lat="35.1633942" lon="32.5488574">
<ele>32.54</ele>
<time>2015-04-26T12:18:03Z</time>
</trkpt>
<trkpt lat="35.1633861" lon="32.5487836">
<ele>31.58</ele>
<time>2015-04-26T12:18:05Z</time>
</trkpt>
<trkpt lat="35.1633571" lon="32.5487080">
<ele>31.09</ele>
<time>2015-04-26T12:18:07Z</time>
</trkpt>
<trkpt lat="35.1633042" lon="32.5486142">
<ele>30.51</ele>
<time>2015-04-26T12:18:08Z</time>
</trkpt>
<trkpt lat="35.1632947" lon="32.5485517">
<ele>30.22</ele>
<time>2015-04-26T12:18:09Z</time>
</trkpt>
<trkpt lat="35.1632900" lon="32.5484927">
<ele>30.07</ele>
<time>2015-04-26T12:18:10Z</time>
</trkpt>
<trkpt lat="35.1632878" lon="32.5484363">
<ele>30.00</ele>
<time>2015-04-26T12:18:11Z</time>
</trkpt>
<trkpt lat="35.1632978" lon="32.5483393">
<ele>30.69</ele>
<time>2015-04-26T12:18:13Z</time>
</trkpt>
<trkpt lat="35.1633114" lon="32.5482840">
<ele>30.40</ele>
<time>2015-04-26T12:18:16Z</time>
</trkpt>
<trkpt lat="35.1633693" lon="32.5482959">
<ele>32.27</ele>
<time>2015-04-26T12:18:20Z</time>
</trkpt>
<trkpt lat="35.1634198" lon="32.5483034">
<ele>32.09</ele>
<time>2015-04-26T12:18:23Z</time>
</trkpt>
<trkpt lat="35.1634703" lon="32.5483083">
<ele>32.70</ele>
<time>2015-04-26T12:18:26Z</time>
</trkpt>
<trkpt lat="35.1635169" lon="32.5483105">
<ele>34.65</ele>
<time>2015-04-26T12:18:29Z</time>
</trkpt>
<trkpt lat="35.1635689" lon="32.5483107">
<ele>35.85</ele>
<time>2015-04-26T12:18:33Z</time>
</trkpt>
<trkpt lat="35.1636199" lon="32.5483098">
<ele>36.23</ele>
<time>2015-04-26T12:18:37Z</time>
</trkpt>
<trkpt lat="35.1636803" lon="32.5482976">
<ele>36.19</ele>
<time>2015-04-26T12:18:41Z</time>
</trkpt>
<trkpt lat="35.1637269" lon="32.5482933">
<ele>35.96</ele>
<time>2015-04-26T12:18:44Z</time>
</trkpt>
<trkpt lat="35.1637736" lon="32.5482802">
<ele>35.18</ele>
<time>2015-04-26T12:18:47Z</time>
</trkpt>
<trkpt lat="35.1638246" lon="32.5482623">
<ele>34.96</ele>
<time>2015-04-26T12:18:50Z</time>
</trkpt>
<trkpt lat="35.1638885" lon="32.5482442">
<ele>34.93</ele>
<time>2015-04-26T12:18:53Z</time>
</trkpt>
<trkpt lat="35.1639449" lon="32.5482303">
<ele>34.93</ele>
<time>2015-04-26T12:18:55Z</time>
</trkpt>
<trkpt lat="35.1640057" lon="32.5482165">
<ele>35.68</ele>
<time>2015-04-26T12:18:57Z</time>
</trkpt>
<trkpt lat="35.1640636" lon="32.5482042">
<ele>36.36</ele>
<time>2015-04-26T12:18:59Z</time>
</trkpt>
<trkpt lat="35.1641174" lon="32.5481948">
<ele>36.03</ele>
<time>2015-04-26T12:19:01Z</time>
</trkpt>
<trkpt lat="35.1641751" lon="32.5481874">
<ele>36.45</ele>
<time>2015-04-26T12:19:03Z</time>
</trkpt>
<trkpt lat="35.1642325" lon="32.5481800">
<ele>36.31</ele>
<time>2015-04-26T12:19:05Z</time>
</trkpt>
<trkpt lat="35.1642938" lon="32.5481718">
<ele>36.02</ele>
<time>2015-04-26T12:19:07Z</time>
</trkpt>
<trkpt lat="35.1643559" lon="32.5481679">
<ele>35.45</ele>
<time>2015-04-26T12:19:09Z</time>
</trkpt>
<trkpt lat="35.1644143" lon="32.5481696">
<ele>36.31</ele>
<time>2015-04-26T12:19:11Z</time>
</trkpt>
<trkpt lat="35.1644789" lon="32.5481740">
<ele>35.52</ele>
<time>2015-04-26T12:19:13Z</time>
</trkpt>
<trkpt lat="35.1645344" lon="32.5481655">
<ele>35.82</ele>
<time>2015-04-26T12:19:15Z</time>
</trkpt>
<trkpt lat="35.1645880" lon="32.5481560">
<ele>36.40</ele>
<time>2015-04-26T12:19:17Z</time>
</trkpt>
<trkpt lat="35.1646460" lon="32.5481589">
<ele>38.04</ele>
<time>2015-04-26T12:19:19Z</time>
</trkpt>
<trkpt lat="35.1647168" lon="32.5481680">
<ele>38.20</ele>
<time>2015-04-26T12:19:21Z</time>
</trkpt>
<trkpt lat="35.1647957" lon="32.5481788">
<ele>38.49</ele>
<time>2015-04-26T12:19:23Z</time>
</trkpt>
<trkpt lat="35.1648533" lon="32.5481766">
<ele>38.71</ele>
<time>2015-04-26T12:19:24Z</time>
</trkpt>
<trkpt lat="35.1649079" lon="32.5481763">
<ele>38.82</ele>
<time>2015-04-26T12:19:25Z</time>
</trkpt>
<trkpt lat="35.1649620" lon="32.5481732">
<ele>38.87</ele>
<time>2015-04-26T12:19:26Z</time>
</trkpt>
<trkpt lat="35.1650425" lon="32.5481774">
<ele>39.41</ele>
<time>2015-04-26T12:19:28Z</time>
</trkpt>
<trkpt lat="35.1651263" lon="32.5481763">
<ele>40.05</ele>
<time>2015-04-26T12:19:30Z</time>
</trkpt>
<trkpt lat="35.1652143" lon="32.5481858">
<ele>39.96</ele>
<time>2015-04-26T12:19:32Z</time>
</trkpt>
<trkpt lat="35.1652835" lon="32.5481784">
<ele>40.18</ele>
<time>2015-04-26T12:19:34Z</time>
</trkpt>
<trkpt lat="35.1653510" lon="32.5481745">
<ele>38.49</ele>
<time>2015-04-26T12:19:36Z</time>
</trkpt>
<trkpt lat="35.1654243" lon="32.5481602">
<ele>37.32</ele>
<time>2015-04-26T12:19:38Z</time>
</trkpt>
<trkpt lat="35.1654964" lon="32.5481524">
<ele>36.52</ele>
<time>2015-04-26T12:19:40Z</time>
</trkpt>
<trkpt lat="35.1655698" lon="32.5481550">
<ele>36.32</ele>
<time>2015-04-26T12:19:42Z</time>
</trkpt>
<trkpt lat="35.1656413" lon="32.5481573">
<ele>36.52</ele>
<time>2015-04-26T12:19:44Z</time>
</trkpt>
<trkpt lat="35.1657144" lon="32.5481543">
<ele>37.57</ele>
<time>2015-04-26T12:19:46Z</time>
</trkpt>
<trkpt lat="35.1657869" lon="32.5481618">
<ele>37.34</ele>
<time>2015-04-26T12:19:48Z</time>
</trkpt>
<trkpt lat="35.1658545" lon="32.5481657">
<ele>37.03</ele>
<time>2015-04-26T12:19:50Z</time>
</trkpt>
<trkpt lat="35.1659177" lon="32.5481701">
<ele>36.70</ele>
<time>2015-04-26T12:19:52Z</time>
</trkpt>
<trkpt lat="35.1659788" lon="32.5481745">
<ele>36.37</ele>
<time>2015-04-26T12:19:54Z</time>
</trkpt>
<trkpt lat="35.1660408" lon="32.5481813">
<ele>36.79</ele>
<time>2015-04-26T12:19:56Z</time>
</trkpt>
<trkpt lat="35.1661058" lon="32.5481844">
<ele>36.89</ele>
<time>2015-04-26T12:19:58Z</time>
</trkpt>
<trkpt lat="35.1661738" lon="32.5481796">
<ele>36.92</ele>
<time>2015-04-26T12:20:00Z</time>
</trkpt>
<trkpt lat="35.1662405" lon="32.5481783">
<ele>37.17</ele>
<time>2015-04-26T12:20:02Z</time>
</trkpt>
<trkpt lat="35.1663080" lon="32.5481751">
<ele>37.49</ele>
<time>2015-04-26T12:20:04Z</time>
</trkpt>
<trkpt lat="35.1663743" lon="32.5481678">
<ele>37.07</ele>
<time>2015-04-26T12:20:06Z</time>
</trkpt>
<trkpt lat="35.1664405" lon="32.5481591">
<ele>37.71</ele>
<time>2015-04-26T12:20:08Z</time>
</trkpt>
<trkpt lat="35.1665108" lon="32.5481553">
<ele>37.12</ele>
<time>2015-04-26T12:20:10Z</time>
</trkpt>
<trkpt lat="35.1665828" lon="32.5481560">
<ele>36.47</ele>
<time>2015-04-26T12:20:12Z</time>
</trkpt>
<trkpt lat="35.1666626" lon="32.5481596">
<ele>36.06</ele>
<time>2015-04-26T12:20:14Z</time>
</trkpt>
<trkpt lat="35.1667415" lon="32.5481557">
<ele>35.96</ele>
<time>2015-04-26T12:20:16Z</time>
</trkpt>
<trkpt lat="35.1668185" lon="32.5481613">
<ele>35.43</ele>
<time>2015-04-26T12:20:18Z</time>
</trkpt>
<trkpt lat="35.1668941" lon="32.5481782">
<ele>35.55</ele>
<time>2015-04-26T12:20:20Z</time>
</trkpt>
<trkpt lat="35.1669712" lon="32.5481895">
<ele>36.08</ele>
<time>2015-04-26T12:20:22Z</time>
</trkpt>
<trkpt lat="35.1670527" lon="32.5481993">
<ele>36.71</ele>
<time>2015-04-26T12:20:24Z</time>
</trkpt>
<trkpt lat="35.1671299" lon="32.5482144">
<ele>36.87</ele>
<time>2015-04-26T12:20:26Z</time>
</trkpt>
<trkpt lat="35.1672048" lon="32.5482352">
<ele>37.91</ele>
<time>2015-04-26T12:20:28Z</time>
</trkpt>
<trkpt lat="35.1672762" lon="32.5482481">
<ele>37.17</ele>
<time>2015-04-26T12:20:30Z</time>
</trkpt>
<trkpt lat="35.1673467" lon="32.5482434">
<ele>36.24</ele>
<time>2015-04-26T12:20:32Z</time>
</trkpt>
<trkpt lat="35.1674158" lon="32.5482346">
<ele>36.75</ele>
<time>2015-04-26T12:20:34Z</time>
</trkpt>
<trkpt lat="35.1674703" lon="32.5482704">
<ele>36.90</ele>
<time>2015-04-26T12:20:37Z</time>
</trkpt>
<trkpt lat="35.1675175" lon="32.5483072">
<ele>36.92</ele>
<time>2015-04-26T12:20:40Z</time>
</trkpt>
<trkpt lat="35.1675723" lon="32.5483490">
<ele>36.17</ele>
<time>2015-04-26T12:20:43Z</time>
</trkpt>
<trkpt lat="35.1676108" lon="32.5483816">
<ele>36.24</ele>
<time>2015-04-26T12:20:45Z</time>
</trkpt>
<trkpt lat="35.1676536" lon="32.5484097">
<ele>36.71</ele>
<time>2015-04-26T12:20:48Z</time>
</trkpt>
<trkpt lat="35.1676965" lon="32.5484380">
<ele>36.15</ele>
<time>2015-04-26T12:20:51Z</time>
</trkpt>
<trkpt lat="35.1677464" lon="32.5484586">
<ele>35.98</ele>
<time>2015-04-26T12:20:53Z</time>
</trkpt>
<trkpt lat="35.1678105" lon="32.5484931">
<ele>35.94</ele>
<time>2015-04-26T12:20:55Z</time>
</trkpt>
<trkpt lat="35.1678691" lon="32.5485295">
<ele>35.18</ele>
<time>2015-04-26T12:20:57Z</time>
</trkpt>
<trkpt lat="35.1679165" lon="32.5485634">
<ele>34.99</ele>
<time>2015-04-26T12:20:59Z</time>
</trkpt>
<trkpt lat="35.1679620" lon="32.5485943">
<ele>34.69</ele>
<time>2015-04-26T12:21:01Z</time>
</trkpt>
<trkpt lat="35.1680102" lon="32.5486207">
<ele>34.12</ele>
<time>2015-04-26T12:21:03Z</time>
</trkpt>
<trkpt lat="35.1680625" lon="32.5486475">
<ele>33.97</ele>
<time>2015-04-26T12:21:05Z</time>
</trkpt>
<trkpt lat="35.1681160" lon="32.5486699">
<ele>33.94</ele>
<time>2015-04-26T12:21:07Z</time>
</trkpt>
<trkpt lat="35.1681717" lon="32.5486927">
<ele>33.93</ele>
<time>2015-04-26T12:21:09Z</time>
</trkpt>
<trkpt lat="35.1682348" lon="32.5487138">
<ele>33.93</ele>
<time>2015-04-26T12:21:11Z</time>
</trkpt>
<trkpt lat="35.1683103" lon="32.5487331">
<ele>33.43</ele>
<time>2015-04-26T12:21:13Z</time>
</trkpt>
<trkpt lat="35.1683861" lon="32.5487556">
<ele>33.80</ele>
<time>2015-04-26T12:21:15Z</time>
</trkpt>
<trkpt lat="35.1684559" lon="32.5487796">
<ele>33.89</ele>
<time>2015-04-26T12:21:17Z</time>
</trkpt>
<trkpt lat="35.1685262" lon="32.5488003">
<ele>33.92</ele>
<time>2015-04-26T12:21:19Z</time>
</trkpt>
<trkpt lat="35.1686014" lon="32.5488179">
<ele>34.67</ele>
<time>2015-04-26T12:21:21Z</time>
</trkpt>
<trkpt lat="35.1686824" lon="32.5488302">
<ele>34.86</ele>
<time>2015-04-26T12:21:23Z</time>
</trkpt>
<trkpt lat="35.1687684" lon="32.5488415">
<ele>34.91</ele>
<time>2015-04-26T12:21:25Z</time>
</trkpt>
<trkpt lat="35.1688516" lon="32.5488530">
<ele>34.92</ele>
<time>2015-04-26T12:21:27Z</time>
</trkpt>
<trkpt lat="35.1689305" lon="32.5488631">
<ele>35.67</ele>
<time>2015-04-26T12:21:29Z</time>
</trkpt>
<trkpt lat="35.1690031" lon="32.5488806">
<ele>36.61</ele>
<time>2015-04-26T12:21:31Z</time>
</trkpt>
<trkpt lat="35.1690716" lon="32.5489028">
<ele>37.10</ele>
<time>2015-04-26T12:21:33Z</time>
</trkpt>
<trkpt lat="35.1691448" lon="32.5489184">
<ele>37.97</ele>
<time>2015-04-26T12:21:35Z</time>
</trkpt>
<trkpt lat="35.1692160" lon="32.5489356">
<ele>38.69</ele>
<time>2015-04-26T12:21:37Z</time>
</trkpt>
<trkpt lat="35.1692817" lon="32.5489572">
<ele>39.37</ele>
<time>2015-04-26T12:21:39Z</time>
</trkpt>
<trkpt lat="35.1693415" lon="32.5489764">
<ele>39.79</ele>
<time>2015-04-26T12:21:41Z</time>
</trkpt>
<trkpt lat="35.1693903" lon="32.5489886">
<ele>39.14</ele>
<time>2015-04-26T12:21:43Z</time>
</trkpt>
<trkpt lat="35.1694333" lon="32.5490061">
<ele>39.23</ele>
<time>2015-04-26T12:21:45Z</time>
</trkpt>
<trkpt lat="35.1694856" lon="32.5490210">
<ele>40.00</ele>
<time>2015-04-26T12:21:47Z</time>
</trkpt>
<trkpt lat="35.1695462" lon="32.5490457">
<ele>39.44</ele>
<time>2015-04-26T12:21:49Z</time>
</trkpt>
<trkpt lat="35.1696130" lon="32.5490788">
<ele>38.55</ele>
<time>2015-04-26T12:21:51Z</time>
</trkpt>
<trkpt lat="35.1696883" lon="32.5491104">
<ele>38.08</ele>
<time>2015-04-26T12:21:53Z</time>
</trkpt>
<trkpt lat="35.1698187" lon="32.5491502">
<ele>37.96</ele>
<time>2015-04-26T12:21:55Z</time>
</trkpt>
<trkpt lat="35.1698696" lon="32.5491733">
<ele>37.94</ele>
<time>2015-04-26T12:21:56Z</time>
</trkpt>
<trkpt lat="35.1699137" lon="32.5492054">
<ele>37.43</ele>
<time>2015-04-26T12:21:57Z</time>
</trkpt>
<trkpt lat="35.1699698" lon="32.5492308">
<ele>37.18</ele>
<time>2015-04-26T12:21:58Z</time>
</trkpt>
<trkpt lat="35.1700183" lon="32.5492620">
<ele>37.05</ele>
<time>2015-04-26T12:21:59Z</time>
</trkpt>
<trkpt lat="35.1700666" lon="32.5492790">
<ele>36.99</ele>
<time>2015-04-26T12:22:00Z</time>
</trkpt>
<trkpt lat="35.1701120" lon="32.5492996">
<ele>36.96</ele>
<time>2015-04-26T12:22:01Z</time>
</trkpt>
<trkpt lat="35.1701564" lon="32.5493229">
<ele>36.44</ele>
<time>2015-04-26T12:22:02Z</time>
</trkpt>
<trkpt lat="35.1702024" lon="32.5493455">
<ele>36.18</ele>
<time>2015-04-26T12:22:03Z</time>
</trkpt>
<trkpt lat="35.1702409" lon="32.5493744">
<ele>36.05</ele>
<time>2015-04-26T12:22:04Z</time>
</trkpt>
<trkpt lat="35.1702895" lon="32.5493936">
<ele>35.99</ele>
<time>2015-04-26T12:22:05Z</time>
</trkpt>
<trkpt lat="35.1703391" lon="32.5494158">
<ele>35.96</ele>
<time>2015-04-26T12:22:06Z</time>
</trkpt>
<trkpt lat="35.1703940" lon="32.5494348">
<ele>35.94</ele>
<time>2015-04-26T12:22:07Z</time>
</trkpt>
<trkpt lat="35.1704513" lon="32.5494681">
<ele>35.93</ele>
<time>2015-04-26T12:22:08Z</time>
</trkpt>
<trkpt lat="35.1704954" lon="32.5494949">
<ele>35.93</ele>
<time>2015-04-26T12:22:09Z</time>
</trkpt>
<trkpt lat="35.1705378" lon="32.5495222">
<ele>35.93</ele>
<time>2015-04-26T12:22:10Z</time>
</trkpt>
<trkpt lat="35.1705936" lon="32.5495417">
<ele>35.93</ele>
<time>2015-04-26T12:22:11Z</time>
</trkpt>
<trkpt lat="35.1706408" lon="32.5495707">
<ele>36.43</ele>
<time>2015-04-26T12:22:12Z</time>
</trkpt>
<trkpt lat="35.1706863" lon="32.5496004">
<ele>36.68</ele>
<time>2015-04-26T12:22:13Z</time>
</trkpt>
<trkpt lat="35.1707363" lon="32.5496390">
<ele>37.30</ele>
<time>2015-04-26T12:22:14Z</time>
</trkpt>
<trkpt lat="35.1707777" lon="32.5496749">
<ele>37.61</ele>
<time>2015-04-26T12:22:15Z</time>
</trkpt>
<trkpt lat="35.1708234" lon="32.5497102">
<ele>37.77</ele>
<time>2015-04-26T12:22:16Z</time>
</trkpt>
<trkpt lat="35.1708698" lon="32.5497455">
<ele>37.85</ele>
<time>2015-04-26T12:22:17Z</time>
</trkpt>
<trkpt lat="35.1709148" lon="32.5497828">
<ele>37.89</ele>
<time>2015-04-26T12:22:18Z</time>
</trkpt>
<trkpt lat="35.1709558" lon="32.5498165">
<ele>37.41</ele>
<time>2015-04-26T12:22:19Z</time>
</trkpt>
<trkpt lat="35.1709883" lon="32.5498549">
<ele>36.67</ele>
<time>2015-04-26T12:22:20Z</time>
</trkpt>
<trkpt lat="35.1710253" lon="32.5498911">
<ele>35.80</ele>
<time>2015-04-26T12:22:21Z</time>
</trkpt>
<trkpt lat="35.1710687" lon="32.5499324">
<ele>34.86</ele>
<time>2015-04-26T12:22:22Z</time>
</trkpt>
<trkpt lat="35.1711168" lon="32.5499696">
<ele>34.39</ele>
<time>2015-04-26T12:22:23Z</time>
</trkpt>
<trkpt lat="35.1711545" lon="32.5500103">
<ele>34.16</ele>
<time>2015-04-26T12:22:24Z</time>
</trkpt>
<trkpt lat="35.1712005" lon="32.5500600">
<ele>34.04</ele>
<time>2015-04-26T12:22:25Z</time>
</trkpt>
<trkpt lat="35.1712365" lon="32.5501038">
<ele>33.48</ele>
<time>2015-04-26T12:22:26Z</time>
</trkpt>
<trkpt lat="35.1712902" lon="32.5501625">
<ele>34.20</ele>
<time>2015-04-26T12:22:27Z</time>
</trkpt>
<trkpt lat="35.1713369" lon="32.5502267">
<ele>34.06</ele>
<time>2015-04-26T12:22:28Z</time>
</trkpt>
<trkpt lat="35.1713913" lon="32.5502736">
<ele>34.49</ele>
<time>2015-04-26T12:22:29Z</time>
</trkpt>
<trkpt lat="35.1714294" lon="32.5503245">
<ele>35.21</ele>
<time>2015-04-26T12:22:30Z</time>
</trkpt>
<trkpt lat="35.1714718" lon="32.5503671">
<ele>36.07</ele>
<time>2015-04-26T12:22:31Z</time>
</trkpt>
<trkpt lat="35.1715147" lon="32.5504170">
<ele>36.00</ele>
<time>2015-04-26T12:22:32Z</time>
</trkpt>
<trkpt lat="35.1715607" lon="32.5504614">
<ele>36.96</ele>
<time>2015-04-26T12:22:33Z</time>
</trkpt>
<trkpt lat="35.1716253" lon="32.5505590">
<ele>35.68</ele>
<time>2015-04-26T12:22:35Z</time>
</trkpt>
<trkpt lat="35.1716569" lon="32.5506167">
<ele>35.30</ele>
<time>2015-04-26T12:22:36Z</time>
</trkpt>
<trkpt lat="35.1717051" lon="32.5506788">
<ele>35.11</ele>
<time>2015-04-26T12:22:37Z</time>
</trkpt>
<trkpt lat="35.1717337" lon="32.5507536">
<ele>34.52</ele>
<time>2015-04-26T12:22:38Z</time>
</trkpt>
<trkpt lat="35.1717700" lon="32.5508122">
<ele>34.22</ele>
<time>2015-04-26T12:22:39Z</time>
</trkpt>
<trkpt lat="35.1718135" lon="32.5508810">
<ele>35.07</ele>
<time>2015-04-26T12:22:40Z</time>
</trkpt>
<trkpt lat="35.1718403" lon="32.5509414">
<ele>35.00</ele>
<time>2015-04-26T12:22:41Z</time>
</trkpt>
<trkpt lat="35.1718744" lon="32.5510078">
<ele>35.46</ele>
<time>2015-04-26T12:22:42Z</time>
</trkpt>
<trkpt lat="35.1719081" lon="32.5510695">
<ele>35.19</ele>
<time>2015-04-26T12:22:43Z</time>
</trkpt>
<trkpt lat="35.1719337" lon="32.5511258">
<ele>34.56</ele>
<time>2015-04-26T12:22:44Z</time>
</trkpt>
<trkpt lat="35.1719656" lon="32.5511907">
<ele>34.74</ele>
<time>2015-04-26T12:22:45Z</time>
</trkpt>
<trkpt lat="35.1719872" lon="32.5512609">
<ele>34.33</ele>
<time>2015-04-26T12:22:46Z</time>
</trkpt>
<trkpt lat="35.1720104" lon="32.5513319">
<ele>34.13</ele>
<time>2015-04-26T12:22:47Z</time>
</trkpt>
<trkpt lat="35.1720381" lon="32.5514151">
<ele>34.03</ele>
<time>2015-04-26T12:22:48Z</time>
</trkpt>
<trkpt lat="35.1720626" lon="32.5514872">
<ele>33.98</ele>
<time>2015-04-26T12:22:49Z</time>
</trkpt>
<trkpt lat="35.1720771" lon="32.5515571">
<ele>33.45</ele>
<time>2015-04-26T12:22:50Z</time>
</trkpt>
<trkpt lat="35.1720961" lon="32.5516254">
<ele>33.19</ele>
<time>2015-04-26T12:22:51Z</time>
</trkpt>
<trkpt lat="35.1721220" lon="32.5516887">
<ele>33.56</ele>
<time>2015-04-26T12:22:52Z</time>
</trkpt>
<trkpt lat="35.1721379" lon="32.5517552">
<ele>33.24</ele>
<time>2015-04-26T12:22:53Z</time>
</trkpt>
<trkpt lat="35.1721553" lon="32.5518245">
<ele>33.08</ele>
<time>2015-04-26T12:22:54Z</time>
</trkpt>
<trkpt lat="35.1721800" lon="32.5518885">
<ele>33.00</ele>
<time>2015-04-26T12:22:55Z</time>
</trkpt>
<trkpt lat="35.1721921" lon="32.5519597">
<ele>32.96</ele>
<time>2015-04-26T12:22:56Z</time>
</trkpt>
<trkpt lat="35.1722056" lon="32.5520343">
<ele>32.94</ele>
<time>2015-04-26T12:22:57Z</time>
</trkpt>
<trkpt lat="35.1722223" lon="32.5521122">
<ele>32.93</ele>
<time>2015-04-26T12:22:58Z</time>
</trkpt>
<trkpt lat="35.1722383" lon="32.5521917">
<ele>32.93</ele>
<time>2015-04-26T12:22:59Z</time>
</trkpt>
<trkpt lat="35.1722568" lon="32.5522637">
<ele>32.93</ele>
<time>2015-04-26T12:23:00Z</time>
</trkpt>
<trkpt lat="35.1722684" lon="32.5523348">
<ele>32.93</ele>
<time>2015-04-26T12:23:01Z</time>
</trkpt>
<trkpt lat="35.1722849" lon="32.5524065">
<ele>33.43</ele>
<time>2015-04-26T12:23:02Z</time>
</trkpt>
<trkpt lat="35.1722941" lon="32.5524885">
<ele>33.18</ele>
<time>2015-04-26T12:23:03Z</time>
</trkpt>
<trkpt lat="35.1723036" lon="32.5525670">
<ele>32.55</ele>
<time>2015-04-26T12:23:04Z</time>
</trkpt>
<trkpt lat="35.1723164" lon="32.5526316">
<ele>32.74</ele>
<time>2015-04-26T12:23:05Z</time>
</trkpt>
<trkpt lat="35.1723259" lon="32.5527051">
<ele>32.33</ele>
<time>2015-04-26T12:23:06Z</time>
</trkpt>
<trkpt lat="35.1723328" lon="32.5527861">
<ele>33.13</ele>
<time>2015-04-26T12:23:07Z</time>
</trkpt>
<trkpt lat="35.1723400" lon="32.5528600">
<ele>33.53</ele>
<time>2015-04-26T12:23:08Z</time>
</trkpt>
<trkpt lat="35.1723420" lon="32.5529332">
<ele>33.23</ele>
<time>2015-04-26T12:23:09Z</time>
</trkpt>
<trkpt lat="35.1723424" lon="32.5530103">
<ele>32.58</ele>
<time>2015-04-26T12:23:10Z</time>
</trkpt>
<trkpt lat="35.1723485" lon="32.5530784">
<ele>32.75</ele>
<time>2015-04-26T12:23:11Z</time>
</trkpt>
<trkpt lat="35.1723634" lon="32.5531585">
<ele>33.34</ele>
<time>2015-04-26T12:23:12Z</time>
</trkpt>
<trkpt lat="35.1723676" lon="32.5532313">
<ele>33.63</ele>
<time>2015-04-26T12:23:13Z</time>
</trkpt>
<trkpt lat="35.1723722" lon="32.5533056">
<ele>33.78</ele>
<time>2015-04-26T12:23:14Z</time>
</trkpt>
<trkpt lat="35.1723742" lon="32.5533812">
<ele>33.85</ele>
<time>2015-04-26T12:23:15Z</time>
</trkpt>
<trkpt lat="35.1723718" lon="32.5534538">
<ele>33.39</ele>
<time>2015-04-26T12:23:16Z</time>
</trkpt>
<trkpt lat="35.1723723" lon="32.5535203">
<ele>33.16</ele>
<time>2015-04-26T12:23:17Z</time>
</trkpt>
<trkpt lat="35.1723756" lon="32.5535807">
<ele>33.54</ele>
<time>2015-04-26T12:23:18Z</time>
</trkpt>
<trkpt lat="35.1723722" lon="32.5536648">
<ele>33.58</ele>
<time>2015-04-26T12:23:20Z</time>
</trkpt>
<trkpt lat="35.1723380" lon="32.5537323">
<ele>33.34</ele>
<time>2015-04-26T12:23:22Z</time>
</trkpt>
<trkpt lat="35.1723278" lon="32.5538027">
<ele>33.28</ele>
<time>2015-04-26T12:23:24Z</time>
</trkpt>
<trkpt lat="35.1723445" lon="32.5538875">
<ele>33.01</ele>
<time>2015-04-26T12:23:26Z</time>
</trkpt>
<trkpt lat="35.1723431" lon="32.5539849">
<ele>32.70</ele>
<time>2015-04-26T12:23:28Z</time>
</trkpt>
<trkpt lat="35.1723428" lon="32.5540906">
<ele>32.12</ele>
<time>2015-04-26T12:23:30Z</time>
</trkpt>
<trkpt lat="35.1723453" lon="32.5542207">
<ele>30.47</ele>
<time>2015-04-26T12:23:32Z</time>
</trkpt>
<trkpt lat="35.1723374" lon="32.5542862">
<ele>30.20</ele>
<time>2015-04-26T12:23:33Z</time>
</trkpt>
<trkpt lat="35.1723187" lon="32.5543901">
<ele>30.74</ele>
<time>2015-04-26T12:23:35Z</time>
</trkpt>
<trkpt lat="35.1723089" lon="32.5544448">
<ele>30.33</ele>
<time>2015-04-26T12:23:36Z</time>
</trkpt>
<trkpt lat="35.1723053" lon="32.5545310">
<ele>30.78</ele>
<time>2015-04-26T12:23:38Z</time>
</trkpt>
<trkpt lat="35.1722877" lon="32.5546275">
<ele>30.89</ele>
<time>2015-04-26T12:23:40Z</time>
</trkpt>
<trkpt lat="35.1722622" lon="32.5547343">
<ele>30.67</ele>
<time>2015-04-26T12:23:42Z</time>
</trkpt>
<trkpt lat="35.1722458" lon="32.5547891">
<ele>30.30</ele>
<time>2015-04-26T12:23:43Z</time>
</trkpt>
<trkpt lat="35.1722299" lon="32.5548437">
<ele>30.11</ele>
<time>2015-04-26T12:23:44Z</time>
</trkpt>
<trkpt lat="35.1722207" lon="32.5549299">
<ele>29.97</ele>
<time>2015-04-26T12:23:46Z</time>
</trkpt>
<trkpt lat="35.1722015" lon="32.5550068">
<ele>30.19</ele>
<time>2015-04-26T12:23:48Z</time>
</trkpt>
<trkpt lat="35.1721791" lon="32.5550974">
<ele>30.74</ele>
<time>2015-04-26T12:23:50Z</time>
</trkpt>
<trkpt lat="35.1721683" lon="32.5551767">
<ele>31.38</ele>
<time>2015-04-26T12:23:52Z</time>
</trkpt>
<trkpt lat="35.1721483" lon="32.5552393">
<ele>31.04</ele>
<time>2015-04-26T12:23:54Z</time>
</trkpt>
<trkpt lat="35.1721247" lon="32.5552987">
<ele>31.45</ele>
<time>2015-04-26T12:23:56Z</time>
</trkpt>
<trkpt lat="35.1720995" lon="32.5553527">
<ele>31.81</ele>
<time>2015-04-26T12:23:58Z</time>
</trkpt>
<trkpt lat="35.1720687" lon="32.5554231">
<ele>31.91</ele>
<time>2015-04-26T12:24:01Z</time>
</trkpt>
<trkpt lat="35.1720493" lon="32.5554782">
<ele>31.67</ele>
<time>2015-04-26T12:24:03Z</time>
</trkpt>
<trkpt lat="35.1720242" lon="32.5555393">
<ele>32.61</ele>
<time>2015-04-26T12:24:05Z</time>
</trkpt>
<trkpt lat="35.1719924" lon="32.5556048">
<ele>34.10</ele>
<time>2015-04-26T12:24:07Z</time>
</trkpt>
<trkpt lat="35.1719461" lon="32.5556955">
<ele>34.72</ele>
<time>2015-04-26T12:24:09Z</time>
</trkpt>
<trkpt lat="35.1719039" lon="32.5557716">
<ele>34.82</ele>
<time>2015-04-26T12:24:10Z</time>
</trkpt>
<trkpt lat="35.1718781" lon="32.5558169">
<ele>34.87</ele>
<time>2015-04-26T12:24:11Z</time>
</trkpt>
<trkpt lat="35.1718340" lon="32.5559024">
<ele>34.91</ele>
<time>2015-04-26T12:24:13Z</time>
</trkpt>
<trkpt lat="35.1718078" lon="32.5559866">
<ele>35.67</ele>
<time>2015-04-26T12:24:15Z</time>
</trkpt>
<trkpt lat="35.1717802" lon="32.5560301">
<ele>35.80</ele>
<time>2015-04-26T12:24:16Z</time>
</trkpt>
<trkpt lat="35.1717405" lon="32.5560888">
<ele>35.86</ele>
<time>2015-04-26T12:24:17Z</time>
</trkpt>
<trkpt lat="35.1717107" lon="32.5561315">
<ele>35.89</ele>
<time>2015-04-26T12:24:18Z</time>
</trkpt>
<trkpt lat="35.1716741" lon="32.5561886">
<ele>36.41</ele>
<time>2015-04-26T12:24:19Z</time>
</trkpt>
<trkpt lat="35.1716402" lon="32.5562386">
<ele>36.67</ele>
<time>2015-04-26T12:24:20Z</time>
</trkpt>
<trkpt lat="35.1716097" lon="32.5562906">
<ele>36.80</ele>
<time>2015-04-26T12:24:21Z</time>
</trkpt>
<trkpt lat="35.1715766" lon="32.5563432">
<ele>36.86</ele>
<time>2015-04-26T12:24:22Z</time>
</trkpt>
<trkpt lat="35.1715488" lon="32.5563903">
<ele>36.89</ele>
<time>2015-04-26T12:24:23Z</time>
</trkpt>
<trkpt lat="35.1715261" lon="32.5564379">
<ele>36.91</ele>
<time>2015-04-26T12:24:24Z</time>
</trkpt>
<trkpt lat="35.1714985" lon="32.5564860">
<ele>36.92</ele>
<time>2015-04-26T12:24:25Z</time>
</trkpt>
<trkpt lat="35.1714713" lon="32.5565445">
<ele>36.92</ele>
<time>2015-04-26T12:24:26Z</time>
</trkpt>
<trkpt lat="35.1714339" lon="32.5566011">
<ele>37.42</ele>
<time>2015-04-26T12:24:27Z</time>
</trkpt>
<trkpt lat="35.1713987" lon="32.5566460">
<ele>37.17</ele>
<time>2015-04-26T12:24:28Z</time>
</trkpt>
<trkpt lat="35.1713587" lon="32.5567054">
<ele>37.55</ele>
<time>2015-04-26T12:24:29Z</time>
</trkpt>
<trkpt lat="35.1713157" lon="32.5567636">
<ele>37.74</ele>
<time>2015-04-26T12:24:30Z</time>
</trkpt>
<trkpt lat="35.1712753" lon="32.5568240">
<ele>37.83</ele>
<time>2015-04-26T12:24:31Z</time>
</trkpt>
<trkpt lat="35.1712384" lon="32.5568778">
<ele>38.38</ele>
<time>2015-04-26T12:24:32Z</time>
</trkpt>
<trkpt lat="35.1712039" lon="32.5569267">
<ele>38.15</ele>
<time>2015-04-26T12:24:33Z</time>
</trkpt>
<trkpt lat="35.1711644" lon="32.5569750">
<ele>38.04</ele>
<time>2015-04-26T12:24:34Z</time>
</trkpt>
<trkpt lat="35.1711317" lon="32.5570169">
<ele>37.98</ele>
<time>2015-04-26T12:24:35Z</time>
</trkpt>
<trkpt lat="35.1710927" lon="32.5570727">
<ele>37.45</ele>
<time>2015-04-26T12:24:36Z</time>
</trkpt>
<trkpt lat="35.1710483" lon="32.5571174">
<ele>37.69</ele>
<time>2015-04-26T12:24:37Z</time>
</trkpt>
<trkpt lat="35.1710105" lon="32.5571638">
<ele>37.81</ele>
<time>2015-04-26T12:24:38Z</time>
</trkpt>
<trkpt lat="35.1709691" lon="32.5572154">
<ele>37.37</ele>
<time>2015-04-26T12:24:39Z</time>
</trkpt>
<trkpt lat="35.1709202" lon="32.5572668">
<ele>37.15</ele>
<time>2015-04-26T12:24:40Z</time>
</trkpt>
<trkpt lat="35.1708774" lon="32.5573174">
<ele>37.04</ele>
<time>2015-04-26T12:24:41Z</time>
</trkpt>
<trkpt lat="35.1708354" lon="32.5573734">
<ele>36.98</ele>
<time>2015-04-26T12:24:42Z</time>
</trkpt>
<trkpt lat="35.1707940" lon="32.5574174">
<ele>36.45</ele>
<time>2015-04-26T12:24:43Z</time>
</trkpt>
<trkpt lat="35.1707458" lon="32.5574638">
<ele>35.19</ele>
<time>2015-04-26T12:24:44Z</time>
</trkpt>
<trkpt lat="35.1707088" lon="32.5575053">
<ele>34.56</ele>
<time>2015-04-26T12:24:45Z</time>
</trkpt>
<trkpt lat="35.1706649" lon="32.5575510">
<ele>34.24</ele>
<time>2015-04-26T12:24:46Z</time>
</trkpt>
<trkpt lat="35.1706312" lon="32.5576002">
<ele>34.08</ele>
<time>2015-04-26T12:24:47Z</time>
</trkpt>
<trkpt lat="35.1705959" lon="32.5576426">
<ele>33.50</ele>
<time>2015-04-26T12:24:48Z</time>
</trkpt>
<trkpt lat="35.1705577" lon="32.5577009">
<ele>33.21</ele>
<time>2015-04-26T12:24:49Z</time>
</trkpt>
<trkpt lat="35.1705232" lon="32.5577644">
<ele>32.57</ele>
<time>2015-04-26T12:24:50Z</time>
</trkpt>
<trkpt lat="35.1704951" lon="32.5578098">
<ele>32.25</ele>
<time>2015-04-26T12:24:51Z</time>
</trkpt>
<trkpt lat="35.1704453" lon="32.5579021">
<ele>31.76</ele>
<time>2015-04-26T12:24:53Z</time>
</trkpt>
<trkpt lat="35.1704134" lon="32.5579568">
<ele>31.84</ele>
<time>2015-04-26T12:24:54Z</time>
</trkpt>
<trkpt lat="35.1703926" lon="32.5580059">
<ele>32.38</ele>
<time>2015-04-26T12:24:55Z</time>
</trkpt>
<trkpt lat="35.1703709" lon="32.5580565">
<ele>32.65</ele>
<time>2015-04-26T12:24:56Z</time>
</trkpt>
<trkpt lat="35.1703434" lon="32.5581205">
<ele>32.29</ele>
<time>2015-04-26T12:24:57Z</time>
</trkpt>
<trkpt lat="35.1703225" lon="32.5581789">
<ele>32.11</ele>
<time>2015-04-26T12:24:58Z</time>
</trkpt>
<trkpt lat="35.1703029" lon="32.5582402">
<ele>32.52</ele>
<time>2015-04-26T12:24:59Z</time>
</trkpt>
<trkpt lat="35.1702787" lon="32.5582982">
<ele>32.72</ele>
<time>2015-04-26T12:25:00Z</time>
</trkpt>
<trkpt lat="35.1702515" lon="32.5583530">
<ele>32.82</ele>
<time>2015-04-26T12:25:01Z</time>
</trkpt>
<trkpt lat="35.1702254" lon="32.5584431">
<ele>32.15</ele>
<time>2015-04-26T12:25:03Z</time>
</trkpt>
<trkpt lat="35.1702052" lon="32.5585007">
<ele>32.04</ele>
<time>2015-04-26T12:25:04Z</time>
</trkpt>
<trkpt lat="35.1701716" lon="32.5586054">
<ele>31.95</ele>
<time>2015-04-26T12:25:06Z</time>
</trkpt>
<trkpt lat="35.1701514" lon="32.5587076">
<ele>31.18</ele>
<time>2015-04-26T12:25:08Z</time>
</trkpt>
<trkpt lat="35.1701335" lon="32.5587661">
<ele>31.05</ele>
<time>2015-04-26T12:25:09Z</time>
</trkpt>
<trkpt lat="35.1701115" lon="32.5588255">
<ele>31.49</ele>
<time>2015-04-26T12:25:10Z</time>
</trkpt>
<trkpt lat="35.1700963" lon="32.5588840">
<ele>32.21</ele>
<time>2015-04-26T12:25:11Z</time>
</trkpt>
<trkpt lat="35.1700775" lon="32.5589363">
<ele>32.07</ele>
<time>2015-04-26T12:25:12Z</time>
</trkpt>
<trkpt lat="35.1700442" lon="32.5590223">
<ele>32.71</ele>
<time>2015-04-26T12:25:14Z</time>
</trkpt>
<trkpt lat="35.1700240" lon="32.5590818">
<ele>32.32</ele>
<time>2015-04-26T12:25:15Z</time>
</trkpt>
<trkpt lat="35.1700102" lon="32.5591424">
<ele>32.12</ele>
<time>2015-04-26T12:25:16Z</time>
</trkpt>
<trkpt lat="35.1699919" lon="32.5591983">
<ele>32.02</ele>
<time>2015-04-26T12:25:17Z</time>
</trkpt>
<trkpt lat="35.1699762" lon="32.5592548">
<ele>31.97</ele>
<time>2015-04-26T12:25:18Z</time>
</trkpt>
<trkpt lat="35.1699564" lon="32.5593181">
<ele>31.95</ele>
<time>2015-04-26T12:25:19Z</time>
</trkpt>
<trkpt lat="35.1699371" lon="32.5593942">
<ele>32.44</ele>
<time>2015-04-26T12:25:20Z</time>
</trkpt>
<trkpt lat="35.1699210" lon="32.5594603">
<ele>33.18</ele>
<time>2015-04-26T12:25:21Z</time>
</trkpt>
<trkpt lat="35.1698828" lon="32.5595109">
<ele>33.05</ele>
<time>2015-04-26T12:25:22Z</time>
</trkpt>
<trkpt lat="35.1698511" lon="32.5596133">
<ele>31.71</ele>
<time>2015-04-26T12:25:24Z</time>
</trkpt>
<trkpt lat="35.1698258" lon="32.5596680">
<ele>31.32</ele>
<time>2015-04-26T12:25:25Z</time>
</trkpt>
<trkpt lat="35.1698149" lon="32.5597333">
<ele>31.12</ele>
<time>2015-04-26T12:25:26Z</time>
</trkpt>
<trkpt lat="35.1697906" lon="32.5597942">
<ele>31.02</ele>
<time>2015-04-26T12:25:27Z</time>
</trkpt>
<trkpt lat="35.1697651" lon="32.5598470">
<ele>31.47</ele>
<time>2015-04-26T12:25:28Z</time>
</trkpt>
<trkpt lat="35.1697242" lon="32.5599367">
<ele>30.56</ele>
<time>2015-04-26T12:25:30Z</time>
</trkpt>
<trkpt lat="35.1697002" lon="32.5599905">
<ele>30.74</ele>
<time>2015-04-26T12:25:31Z</time>
</trkpt>
<trkpt lat="35.1696804" lon="32.5600410">
<ele>30.83</ele>
<time>2015-04-26T12:25:32Z</time>
</trkpt>
<trkpt lat="35.1696530" lon="32.5601064">
<ele>31.38</ele>
<time>2015-04-26T12:25:33Z</time>
</trkpt>
<trkpt lat="35.1696307" lon="32.5601646">
<ele>31.65</ele>
<time>2015-04-26T12:25:34Z</time>
</trkpt>
<trkpt lat="35.1696000" lon="32.5602332">
<ele>32.29</ele>
<time>2015-04-26T12:25:35Z</time>
</trkpt>
<trkpt lat="35.1695717" lon="32.5602954">
<ele>33.11</ele>
<time>2015-04-26T12:25:36Z</time>
</trkpt>
<trkpt lat="35.1695538" lon="32.5603507">
<ele>33.52</ele>
<time>2015-04-26T12:25:37Z</time>
</trkpt>
<trkpt lat="35.1695345" lon="32.5604067">
<ele>34.22</ele>
<time>2015-04-26T12:25:38Z</time>
</trkpt>
<trkpt lat="35.1695103" lon="32.5604633">
<ele>34.07</ele>
<time>2015-04-26T12:25:39Z</time>
</trkpt>
<trkpt lat="35.1694857" lon="32.5605290">
<ele>34.50</ele>
<time>2015-04-26T12:25:40Z</time>
</trkpt>
<trkpt lat="35.1694503" lon="32.5606170">
<ele>33.32</ele>
<time>2015-04-26T12:25:42Z</time>
</trkpt>
<trkpt lat="35.1694273" lon="32.5606816">
<ele>33.62</ele>
<time>2015-04-26T12:25:43Z</time>
</trkpt>
<trkpt lat="35.1694047" lon="32.5607375">
<ele>34.27</ele>
<time>2015-04-26T12:25:44Z</time>
</trkpt>
<trkpt lat="35.1693848" lon="32.5607942">
<ele>34.60</ele>
<time>2015-04-26T12:25:45Z</time>
</trkpt>
<trkpt lat="35.1693674" lon="32.5608591">
<ele>35.76</ele>
<time>2015-04-26T12:25:46Z</time>
</trkpt>
<trkpt lat="35.1693454" lon="32.5609182">
<ele>36.84</ele>
<time>2015-04-26T12:25:47Z</time>
</trkpt>
<trkpt lat="35.1693235" lon="32.5609845">
<ele>37.38</ele>
<time>2015-04-26T12:25:48Z</time>
</trkpt>
<trkpt lat="35.1692952" lon="32.5610435">
<ele>37.65</ele>
<time>2015-04-26T12:25:49Z</time>
</trkpt>
<trkpt lat="35.1692688" lon="32.5610977">
<ele>37.79</ele>
<time>2015-04-26T12:25:50Z</time>
</trkpt>
<trkpt lat="35.1692448" lon="32.5611554">
<ele>37.86</ele>
<time>2015-04-26T12:25:51Z</time>
</trkpt>
<trkpt lat="35.1692001" lon="32.5612369">
<ele>36.41</ele>
<time>2015-04-26T12:25:53Z</time>
</trkpt>
<trkpt lat="35.1691870" lon="32.5612938">
<ele>35.67</ele>
<time>2015-04-26T12:25:54Z</time>
</trkpt>
<trkpt lat="35.1691617" lon="32.5613844">
<ele>34.86</ele>
<time>2015-04-26T12:25:56Z</time>
</trkpt>
<trkpt lat="35.1691140" lon="32.5614863">
<ele>35.41</ele>
<time>2015-04-26T12:25:58Z</time>
</trkpt>
<trkpt lat="35.1690931" lon="32.5615472">
<ele>36.17</ele>
<time>2015-04-26T12:25:59Z</time>
</trkpt>
<trkpt lat="35.1690685" lon="32.5616097">
<ele>37.05</ele>
<time>2015-04-26T12:26:00Z</time>
</trkpt>
<trkpt lat="35.1690510" lon="32.5616795">
<ele>38.99</ele>
<time>2015-04-26T12:26:01Z</time>
</trkpt>
<trkpt lat="35.1690217" lon="32.5617356">
<ele>39.96</ele>
<time>2015-04-26T12:26:02Z</time>
</trkpt>
<trkpt lat="35.1689929" lon="32.5617874">
<ele>40.44</ele>
<time>2015-04-26T12:26:03Z</time>
</trkpt>
<trkpt lat="35.1689750" lon="32.5618395">
<ele>40.68</ele>
<time>2015-04-26T12:26:04Z</time>
</trkpt>
<trkpt lat="35.1689499" lon="32.5618984">
<ele>41.30</ele>
<time>2015-04-26T12:26:05Z</time>
</trkpt>
<trkpt lat="35.1689340" lon="32.5619651">
<ele>42.61</ele>
<time>2015-04-26T12:26:06Z</time>
</trkpt>
<trkpt lat="35.1689066" lon="32.5620215">
<ele>43.27</ele>
<time>2015-04-26T12:26:07Z</time>
</trkpt>
<trkpt lat="35.1688794" lon="32.5620748">
<ele>43.60</ele>
<time>2015-04-26T12:26:08Z</time>
</trkpt>
<trkpt lat="35.1688410" lon="32.5621683">
<ele>44.09</ele>
<time>2015-04-26T12:26:10Z</time>
</trkpt>
<trkpt lat="35.1688190" lon="32.5622228">
<ele>45.01</ele>
<time>2015-04-26T12:26:11Z</time>
</trkpt>
<trkpt lat="35.1687707" lon="32.5623254">
<ele>46.20</ele>
<time>2015-04-26T12:26:13Z</time>
</trkpt>
<trkpt lat="35.1687196" lon="32.5624192">
<ele>47.49</ele>
<time>2015-04-26T12:26:15Z</time>
</trkpt>
<trkpt lat="35.1686955" lon="32.5624876">
<ele>46.32</ele>
<time>2015-04-26T12:26:17Z</time>
</trkpt>
<trkpt lat="35.1686660" lon="32.5625778">
<ele>45.52</ele>
<time>2015-04-26T12:26:19Z</time>
</trkpt>
<trkpt lat="35.1686197" lon="32.5626687">
<ele>45.57</ele>
<time>2015-04-26T12:26:21Z</time>
</trkpt>
<trkpt lat="35.1685913" lon="32.5627445">
<ele>45.34</ele>
<time>2015-04-26T12:26:23Z</time>
</trkpt>
<trkpt lat="35.1685617" lon="32.5628282">
<ele>45.28</ele>
<time>2015-04-26T12:26:25Z</time>
</trkpt>
<trkpt lat="35.1685307" lon="32.5629074">
<ele>45.76</ele>
<time>2015-04-26T12:26:27Z</time>
</trkpt>
<trkpt lat="35.1684992" lon="32.5629822">
<ele>44.88</ele>
<time>2015-04-26T12:26:29Z</time>
</trkpt>
<trkpt lat="35.1684717" lon="32.5630609">
<ele>45.66</ele>
<time>2015-04-26T12:26:31Z</time>
</trkpt>
<trkpt lat="35.1684412" lon="32.5631468">
<ele>46.36</ele>
<time>2015-04-26T12:26:33Z</time>
</trkpt>
<trkpt lat="35.1684082" lon="32.5632343">
<ele>47.53</ele>
<time>2015-04-26T12:26:35Z</time>
</trkpt>
<trkpt lat="35.1683849" lon="32.5633290">
<ele>47.08</ele>
<time>2015-04-26T12:26:37Z</time>
</trkpt>
<trkpt lat="35.1683620" lon="32.5634201">
<ele>47.21</ele>
<time>2015-04-26T12:26:39Z</time>
</trkpt>
<trkpt lat="35.1683370" lon="32.5635102">
<ele>47.75</ele>
<time>2015-04-26T12:26:41Z</time>
</trkpt>
<trkpt lat="35.1683153" lon="32.5636002">
<ele>48.38</ele>
<time>2015-04-26T12:26:43Z</time>
</trkpt>
<trkpt lat="35.1682961" lon="32.5636913">
<ele>48.79</ele>
<time>2015-04-26T12:26:45Z</time>
</trkpt>
<trkpt lat="35.1682798" lon="32.5637886">
<ele>49.39</ele>
<time>2015-04-26T12:26:47Z</time>
</trkpt>
<trkpt lat="35.1682699" lon="32.5638893">
<ele>49.79</ele>
<time>2015-04-26T12:26:49Z</time>
</trkpt>
<trkpt lat="35.1682668" lon="32.5639616">
<ele>49.86</ele>
<time>2015-04-26T12:26:50Z</time>
</trkpt>
<trkpt lat="35.1682554" lon="32.5640202">
<ele>49.89</ele>
<time>2015-04-26T12:26:51Z</time>
</trkpt>
<trkpt lat="35.1682437" lon="32.5640806">
<ele>49.91</ele>
<time>2015-04-26T12:26:52Z</time>
</trkpt>
<trkpt lat="35.1682363" lon="32.5641368">
<ele>50.42</ele>
<time>2015-04-26T12:26:53Z</time>
</trkpt>
<trkpt lat="35.1682254" lon="32.5642351">
<ele>50.80</ele>
<time>2015-04-26T12:26:55Z</time>
</trkpt>
<trkpt lat="35.1682114" lon="32.5643457">
<ele>50.89</ele>
<time>2015-04-26T12:26:57Z</time>
</trkpt>
<trkpt lat="35.1682020" lon="32.5644068">
<ele>50.41</ele>
<time>2015-04-26T12:26:58Z</time>
</trkpt>
<trkpt lat="35.1681925" lon="32.5644672">
<ele>50.17</ele>
<time>2015-04-26T12:26:59Z</time>
</trkpt>
<trkpt lat="35.1681958" lon="32.5645808">
<ele>49.24</ele>
<time>2015-04-26T12:27:01Z</time>
</trkpt>
<trkpt lat="35.1681963" lon="32.5646875">
<ele>49.75</ele>
<time>2015-04-26T12:27:03Z</time>
</trkpt>
<trkpt lat="35.1682115" lon="32.5648102">
<ele>49.88</ele>
<time>2015-04-26T12:27:05Z</time>
</trkpt>
<trkpt lat="35.1682175" lon="32.5648778">
<ele>49.90</ele>
<time>2015-04-26T12:27:06Z</time>
</trkpt>
<trkpt lat="35.1682280" lon="32.5649410">
<ele>49.91</ele>
<time>2015-04-26T12:27:07Z</time>
</trkpt>
<trkpt lat="35.1682352" lon="32.5650114">
<ele>50.42</ele>
<time>2015-04-26T12:27:08Z</time>
</trkpt>
<trkpt lat="35.1682370" lon="32.5650990">
<ele>50.17</ele>
<time>2015-04-26T12:27:09Z</time>
</trkpt>
<trkpt lat="35.1682492" lon="32.5651805">
<ele>50.55</ele>
<time>2015-04-26T12:27:10Z</time>
</trkpt>
<trkpt lat="35.1682553" lon="32.5652592">
<ele>50.74</ele>
<time>2015-04-26T12:27:11Z</time>
</trkpt>
<trkpt lat="35.1682611" lon="32.5653313">
<ele>50.83</ele>
<time>2015-04-26T12:27:12Z</time>
</trkpt>
<trkpt lat="35.1682686" lon="32.5653952">
<ele>50.38</ele>
<time>2015-04-26T12:27:13Z</time>
</trkpt>
<trkpt lat="35.1682788" lon="32.5654647">
<ele>50.15</ele>
<time>2015-04-26T12:27:14Z</time>
</trkpt>
<trkpt lat="35.1682951" lon="32.5655335">
<ele>50.04</ele>
<time>2015-04-26T12:27:15Z</time>
</trkpt>
<trkpt lat="35.1683124" lon="32.5656034">
<ele>49.98</ele>
<time>2015-04-26T12:27:16Z</time>
</trkpt>
<trkpt lat="35.1683249" lon="32.5656792">
<ele>49.45</ele>
<time>2015-04-26T12:27:17Z</time>
</trkpt>
<trkpt lat="35.1683449" lon="32.5657568">
<ele>49.19</ele>
<time>2015-04-26T12:27:18Z</time>
</trkpt>
<trkpt lat="35.1683733" lon="32.5658374">
<ele>49.06</ele>
<time>2015-04-26T12:27:19Z</time>
</trkpt>
<trkpt lat="35.1684020" lon="32.5659040">
<ele>48.49</ele>
<time>2015-04-26T12:27:20Z</time>
</trkpt>
<trkpt lat="35.1684317" lon="32.5659676">
<ele>49.21</ele>
<time>2015-04-26T12:27:21Z</time>
</trkpt>
<trkpt lat="35.1684450" lon="32.5660359">
<ele>49.07</ele>
<time>2015-04-26T12:27:22Z</time>
</trkpt>
<trkpt lat="35.1684751" lon="32.5661142">
<ele>48.50</ele>
<time>2015-04-26T12:27:23Z</time>
</trkpt>
<trkpt lat="35.1685116" lon="32.5661822">
<ele>50.21</ele>
<time>2015-04-26T12:27:24Z</time>
</trkpt>
<trkpt lat="35.1685414" lon="32.5662574">
<ele>51.07</ele>
<time>2015-04-26T12:27:25Z</time>
</trkpt>
<trkpt lat="35.1685719" lon="32.5663371">
<ele>52.00</ele>
<time>2015-04-26T12:27:26Z</time>
</trkpt>
<trkpt lat="35.1686040" lon="32.5664079">
<ele>52.96</ele>
<time>2015-04-26T12:27:27Z</time>
</trkpt>
<trkpt lat="35.1686371" lon="32.5664897">
<ele>53.44</ele>
<time>2015-04-26T12:27:28Z</time>
</trkpt>
<trkpt lat="35.1686719" lon="32.5665666">
<ele>54.18</ele>
<time>2015-04-26T12:27:29Z</time>
</trkpt>
<trkpt lat="35.1686959" lon="32.5666520">
<ele>53.05</ele>
<time>2015-04-26T12:27:30Z</time>
</trkpt>
<trkpt lat="35.1687287" lon="32.5667220">
<ele>53.49</ele>
<time>2015-04-26T12:27:31Z</time>
</trkpt>
<trkpt lat="35.1687482" lon="32.5667933">
<ele>54.21</ele>
<time>2015-04-26T12:27:32Z</time>
</trkpt>
<trkpt lat="35.1687820" lon="32.5668676">
<ele>54.57</ele>
<time>2015-04-26T12:27:33Z</time>
</trkpt>
<trkpt lat="35.1688112" lon="32.5669392">
<ele>54.75</ele>
<time>2015-04-26T12:27:34Z</time>
</trkpt>
<trkpt lat="35.1688228" lon="32.5670297">
<ele>53.34</ele>
<time>2015-04-26T12:27:35Z</time>
</trkpt>
<trkpt lat="35.1688578" lon="32.5671129">
<ele>51.13</ele>
<time>2015-04-26T12:27:36Z</time>
</trkpt>
<trkpt lat="35.1688828" lon="32.5671859">
<ele>50.03</ele>
<time>2015-04-26T12:27:37Z</time>
</trkpt>
<trkpt lat="35.1689016" lon="32.5672708">
<ele>49.98</ele>
<time>2015-04-26T12:27:38Z</time>
</trkpt>
<trkpt lat="35.1689126" lon="32.5673527">
<ele>49.45</ele>
<time>2015-04-26T12:27:39Z</time>
</trkpt>
<trkpt lat="35.1689321" lon="32.5674272">
<ele>49.19</ele>
<time>2015-04-26T12:27:40Z</time>
</trkpt>
<trkpt lat="35.1689583" lon="32.5675226">
<ele>48.56</ele>
<time>2015-04-26T12:27:41Z</time>
</trkpt>
<trkpt lat="35.1689800" lon="32.5676054">
<ele>47.74</ele>
<time>2015-04-26T12:27:42Z</time>
</trkpt>
<trkpt lat="35.1690114" lon="32.5676807">
<ele>47.33</ele>
<time>2015-04-26T12:27:43Z</time>
</trkpt>
<trkpt lat="35.1690403" lon="32.5677603">
<ele>46.63</ele>
<time>2015-04-26T12:27:44Z</time>
</trkpt>
<trkpt lat="35.1690662" lon="32.5678479">
<ele>45.78</ele>
<time>2015-04-26T12:27:45Z</time>
</trkpt>
<trkpt lat="35.1690804" lon="32.5679354">
<ele>44.35</ele>
<time>2015-04-26T12:27:46Z</time>
</trkpt>
<trkpt lat="35.1691154" lon="32.5680133">
<ele>43.64</ele>
<time>2015-04-26T12:27:47Z</time>
</trkpt>
<trkpt lat="35.1691325" lon="32.5681045">
<ele>42.78</ele>
<time>2015-04-26T12:27:48Z</time>
</trkpt>
<trkpt lat="35.1691519" lon="32.5682022">
<ele>41.85</ele>
<time>2015-04-26T12:27:49Z</time>
</trkpt>
<trkpt lat="35.1691720" lon="32.5682826">
<ele>40.89</ele>
<time>2015-04-26T12:27:50Z</time>
</trkpt>
<trkpt lat="35.1691999" lon="32.5683686">
<ele>40.41</ele>
<time>2015-04-26T12:27:51Z</time>
</trkpt>
<trkpt lat="35.1692284" lon="32.5684498">
<ele>40.67</ele>
<time>2015-04-26T12:27:52Z</time>
</trkpt>
<trkpt lat="35.1692562" lon="32.5685390">
<ele>40.80</ele>
<time>2015-04-26T12:27:53Z</time>
</trkpt>
<trkpt lat="35.1692750" lon="32.5686333">
<ele>40.36</ele>
<time>2015-04-26T12:27:54Z</time>
</trkpt>
<trkpt lat="35.1692988" lon="32.5687119">
<ele>40.64</ele>
<time>2015-04-26T12:27:55Z</time>
</trkpt>
<trkpt lat="35.1693197" lon="32.5687967">
<ele>40.78</ele>
<time>2015-04-26T12:27:56Z</time>
</trkpt>
<trkpt lat="35.1693374" lon="32.5688786">
<ele>40.85</ele>
<time>2015-04-26T12:27:57Z</time>
</trkpt>
<trkpt lat="35.1693579" lon="32.5689541">
<ele>41.39</ele>
<time>2015-04-26T12:27:58Z</time>
</trkpt>
<trkpt lat="35.1693752" lon="32.5690190">
<ele>41.16</ele>
<time>2015-04-26T12:27:59Z</time>
</trkpt>
<trkpt lat="35.1693857" lon="32.5690881">
<ele>41.54</ele>
<time>2015-04-26T12:28:00Z</time>
</trkpt>
<trkpt lat="35.1693948" lon="32.5691519">
<ele>41.23</ele>
<time>2015-04-26T12:28:01Z</time>
</trkpt>
<trkpt lat="35.1694118" lon="32.5692203">
<ele>41.08</ele>
<time>2015-04-26T12:28:02Z</time>
</trkpt>
<trkpt lat="35.1694196" lon="32.5692833">
<ele>41.00</ele>
<time>2015-04-26T12:28:03Z</time>
</trkpt>
<trkpt lat="35.1694254" lon="32.5693554">
<ele>40.96</ele>
<time>2015-04-26T12:28:04Z</time>
</trkpt>
<trkpt lat="35.1694405" lon="32.5694256">
<ele>40.94</ele>
<time>2015-04-26T12:28:05Z</time>
</trkpt>
<trkpt lat="35.1694439" lon="32.5695032">
<ele>40.93</ele>
<time>2015-04-26T12:28:06Z</time>
</trkpt>
<trkpt lat="35.1694421" lon="32.5695790">
<ele>41.43</ele>
<time>2015-04-26T12:28:07Z</time>
</trkpt>
<trkpt lat="35.1694439" lon="32.5696509">
<ele>41.68</ele>
<time>2015-04-26T12:28:08Z</time>
</trkpt>
<trkpt lat="35.1694430" lon="32.5697336">
<ele>41.80</ele>
<time>2015-04-26T12:28:09Z</time>
</trkpt>
<trkpt lat="35.1694445" lon="32.5698115">
<ele>42.36</ele>
<time>2015-04-26T12:28:10Z</time>
</trkpt>
<trkpt lat="35.1694436" lon="32.5699041">
<ele>43.14</ele>
<time>2015-04-26T12:28:11Z</time>
</trkpt>
<trkpt lat="35.1694419" lon="32.5699690">
<ele>44.03</ele>
<time>2015-04-26T12:28:12Z</time>
</trkpt>
<trkpt lat="35.1694351" lon="32.5700376">
<ele>44.48</ele>
<time>2015-04-26T12:28:13Z</time>
</trkpt>
<trkpt lat="35.1694261" lon="32.5701034">
<ele>45.20</ele>
<time>2015-04-26T12:28:14Z</time>
</trkpt>
<trkpt lat="35.1694208" lon="32.5701660">
<ele>45.56</ele>
<time>2015-04-26T12:28:15Z</time>
</trkpt>
<trkpt lat="35.1694137" lon="32.5702220">
<ele>45.74</ele>
<time>2015-04-26T12:28:16Z</time>
</trkpt>
<trkpt lat="35.1694055" lon="32.5703126">
<ele>45.88</ele>
<time>2015-04-26T12:28:18Z</time>
</trkpt>
<trkpt lat="35.1693894" lon="32.5704068">
<ele>45.91</ele>
<time>2015-04-26T12:28:20Z</time>
</trkpt>
<trkpt lat="35.1693819" lon="32.5704863">
<ele>46.92</ele>
<time>2015-04-26T12:28:22Z</time>
</trkpt>
<trkpt lat="35.1693663" lon="32.5705421">
<ele>46.92</ele>
<time>2015-04-26T12:28:24Z</time>
</trkpt>
<trkpt lat="35.1693734" lon="32.5706199">
<ele>46.05</ele>
<time>2015-04-26T12:28:27Z</time>
</trkpt>
<trkpt lat="35.1693614" lon="32.5706947">
<ele>46.69</ele>
<time>2015-04-26T12:28:30Z</time>
</trkpt>
<trkpt lat="35.1693536" lon="32.5707751">
<ele>45.27</ele>
<time>2015-04-26T12:28:33Z</time>
</trkpt>
<trkpt lat="35.1693449" lon="32.5708322">
<ele>45.01</ele>
<time>2015-04-26T12:28:35Z</time>
</trkpt>
<trkpt lat="35.1693248" lon="32.5708892">
<ele>45.70</ele>
<time>2015-04-26T12:28:37Z</time>
</trkpt>
<trkpt lat="35.1693148" lon="32.5709506">
<ele>46.62</ele>
<time>2015-04-26T12:28:39Z</time>
</trkpt>
<trkpt lat="35.1693076" lon="32.5710220">
<ele>47.10</ele>
<time>2015-04-26T12:28:41Z</time>
</trkpt>
<trkpt lat="35.1693022" lon="32.5711050">
<ele>47.47</ele>
<time>2015-04-26T12:28:43Z</time>
</trkpt>
<trkpt lat="35.1692975" lon="32.5712060">
<ele>47.06</ele>
<time>2015-04-26T12:28:45Z</time>
</trkpt>
<trkpt lat="35.1693162" lon="32.5713394">
<ele>47.46</ele>
<time>2015-04-26T12:28:47Z</time>
</trkpt>
<trkpt lat="35.1693229" lon="32.5713963">
<ele>47.69</ele>
<time>2015-04-26T12:28:48Z</time>
</trkpt>
<trkpt lat="35.1693312" lon="32.5715104">
<ele>49.12</ele>
<time>2015-04-26T12:28:50Z</time>
</trkpt>
<trkpt lat="35.1693344" lon="32.5715708">
<ele>49.52</ele>
<time>2015-04-26T12:28:51Z</time>
</trkpt>
<trkpt lat="35.1693406" lon="32.5716308">
<ele>50.22</ele>
<time>2015-04-26T12:28:52Z</time>
</trkpt>
<trkpt lat="35.1693532" lon="32.5716852">
<ele>50.57</ele>
<time>2015-04-26T12:28:53Z</time>
</trkpt>
<trkpt lat="35.1693580" lon="32.5717424">
<ele>50.25</ele>
<time>2015-04-26T12:28:54Z</time>
</trkpt>
<trkpt lat="35.1693794" lon="32.5718021">
<ele>50.09</ele>
<time>2015-04-26T12:28:55Z</time>
</trkpt>
<trkpt lat="35.1693983" lon="32.5718614">
<ele>50.51</ele>
<time>2015-04-26T12:28:56Z</time>
</trkpt>
<trkpt lat="35.1694135" lon="32.5719187">
<ele>50.72</ele>
<time>2015-04-26T12:28:57Z</time>
</trkpt>
<trkpt lat="35.1694509" lon="32.5720158">
<ele>52.12</ele>
<time>2015-04-26T12:28:59Z</time>
</trkpt>
<trkpt lat="35.1694702" lon="32.5720659">
<ele>52.52</ele>
<time>2015-04-26T12:29:00Z</time>
</trkpt>
<trkpt lat="35.1694751" lon="32.5721224">
<ele>52.72</ele>
<time>2015-04-26T12:29:01Z</time>
</trkpt>
<trkpt lat="35.1694934" lon="32.5722233">
<ele>52.87</ele>
<time>2015-04-26T12:29:03Z</time>
</trkpt>
<trkpt lat="35.1695109" lon="32.5722877">
<ele>52.90</ele>
<time>2015-04-26T12:29:04Z</time>
</trkpt>
<trkpt lat="35.1695248" lon="32.5723422">
<ele>52.91</ele>
<time>2015-04-26T12:29:05Z</time>
</trkpt>
<trkpt lat="35.1695273" lon="32.5724043">
<ele>52.92</ele>
<time>2015-04-26T12:29:06Z</time>
</trkpt>
<trkpt lat="35.1695356" lon="32.5724708">
<ele>52.92</ele>
<time>2015-04-26T12:29:07Z</time>
</trkpt>
<trkpt lat="35.1695503" lon="32.5725278">
<ele>52.92</ele>
<time>2015-04-26T12:29:08Z</time>
</trkpt>
<trkpt lat="35.1695615" lon="32.5725889">
<ele>53.42</ele>
<time>2015-04-26T12:29:09Z</time>
</trkpt>
<trkpt lat="35.1695650" lon="32.5726478">
<ele>53.67</ele>
<time>2015-04-26T12:29:10Z</time>
</trkpt>
<trkpt lat="35.1695740" lon="32.5727187">
<ele>53.80</ele>
<time>2015-04-26T12:29:11Z</time>
</trkpt>
<trkpt lat="35.1695823" lon="32.5727821">
<ele>54.36</ele>
<time>2015-04-26T12:29:12Z</time>
</trkpt>
<trkpt lat="35.1695907" lon="32.5728477">
<ele>54.64</ele>
<time>2015-04-26T12:29:13Z</time>
</trkpt>
<trkpt lat="35.1695973" lon="32.5729079">
<ele>54.78</ele>
<time>2015-04-26T12:29:14Z</time>
</trkpt>
<trkpt lat="35.1696052" lon="32.5729778">
<ele>54.85</ele>
<time>2015-04-26T12:29:15Z</time>
</trkpt>
<trkpt lat="35.1696172" lon="32.5730311">
<ele>54.39</ele>
<time>2015-04-26T12:29:16Z</time>
</trkpt>
<trkpt lat="35.1696275" lon="32.5730987">
<ele>54.16</ele>
<time>2015-04-26T12:29:17Z</time>
</trkpt>
<trkpt lat="35.1696377" lon="32.5731602">
<ele>54.04</ele>
<time>2015-04-26T12:29:18Z</time>
</trkpt>
<trkpt lat="35.1696455" lon="32.5732278">
<ele>53.48</ele>
<time>2015-04-26T12:29:19Z</time>
</trkpt>
<trkpt lat="35.1696626" lon="32.5732888">
<ele>53.20</ele>
<time>2015-04-26T12:29:20Z</time>
</trkpt>
<trkpt lat="35.1696773" lon="32.5733666">
<ele>53.56</ele>
<time>2015-04-26T12:29:21Z</time>
</trkpt>
<trkpt lat="35.1696823" lon="32.5734262">
<ele>53.24</ele>
<time>2015-04-26T12:29:22Z</time>
</trkpt>
<trkpt lat="35.1696870" lon="32.5734889">
<ele>52.58</ele>
<time>2015-04-26T12:29:23Z</time>
</trkpt>
<trkpt lat="35.1696926" lon="32.5735520">
<ele>52.25</ele>
<time>2015-04-26T12:29:24Z</time>
</trkpt>
<trkpt lat="35.1696962" lon="32.5736202">
<ele>52.09</ele>
<time>2015-04-26T12:29:25Z</time>
</trkpt>
<trkpt lat="35.1697014" lon="32.5736772">
<ele>51.51</ele>
<time>2015-04-26T12:29:26Z</time>
</trkpt>
<trkpt lat="35.1697074" lon="32.5737517">
<ele>52.22</ele>
<time>2015-04-26T12:29:27Z</time>
</trkpt>
<trkpt lat="35.1697106" lon="32.5738122">
<ele>52.57</ele>
<time>2015-04-26T12:29:28Z</time>
</trkpt>
<trkpt lat="35.1697217" lon="32.5738661">
<ele>52.25</ele>
<time>2015-04-26T12:29:29Z</time>
</trkpt>
<trkpt lat="35.1697182" lon="32.5739313">
<ele>52.09</ele>
<time>2015-04-26T12:29:30Z</time>
</trkpt>
<trkpt lat="35.1697320" lon="32.5739857">
<ele>51.51</ele>
<time>2015-04-26T12:29:31Z</time>
</trkpt>
<trkpt lat="35.1697330" lon="32.5740586">
<ele>51.22</ele>
<time>2015-04-26T12:29:32Z</time>
</trkpt>
<trkpt lat="35.1697426" lon="32.5741214">
<ele>51.07</ele>
<time>2015-04-26T12:29:33Z</time>
</trkpt>
<trkpt lat="35.1697392" lon="32.5741974">
<ele>50.50</ele>
<time>2015-04-26T12:29:34Z</time>
</trkpt>
<trkpt lat="35.1697415" lon="32.5742747">
<ele>50.21</ele>
<time>2015-04-26T12:29:35Z</time>
</trkpt>
<trkpt lat="35.1697448" lon="32.5743573">
<ele>50.57</ele>
<time>2015-04-26T12:29:36Z</time>
</trkpt>
<trkpt lat="35.1697396" lon="32.5744340">
<ele>50.75</ele>
<time>2015-04-26T12:29:37Z</time>
</trkpt>
<trkpt lat="35.1697445" lon="32.5745079">
<ele>50.84</ele>
<time>2015-04-26T12:29:38Z</time>
</trkpt>
<trkpt lat="35.1697398" lon="32.5745807">
<ele>50.88</ele>
<time>2015-04-26T12:29:39Z</time>
</trkpt>
<trkpt lat="35.1697444" lon="32.5746554">
<ele>50.40</ele>
<time>2015-04-26T12:29:40Z</time>
</trkpt>
<trkpt lat="35.1697452" lon="32.5747224">
<ele>49.66</ele>
<time>2015-04-26T12:29:41Z</time>
</trkpt>
<trkpt lat="35.1697489" lon="32.5747924">
<ele>49.29</ele>
<time>2015-04-26T12:29:42Z</time>
</trkpt>
<trkpt lat="35.1697628" lon="32.5748713">
<ele>49.11</ele>
<time>2015-04-26T12:29:43Z</time>
</trkpt>
<trkpt lat="35.1697680" lon="32.5749490">
<ele>49.52</ele>
<time>2015-04-26T12:29:44Z</time>
</trkpt>
<trkpt lat="35.1697751" lon="32.5750255">
<ele>49.72</ele>
<time>2015-04-26T12:29:45Z</time>
</trkpt>
<trkpt lat="35.1697869" lon="32.5750992">
<ele>49.82</ele>
<time>2015-04-26T12:29:46Z</time>
</trkpt>
<trkpt lat="35.1698005" lon="32.5751808">
<ele>49.87</ele>
<time>2015-04-26T12:29:47Z</time>
</trkpt>
<trkpt lat="35.1698156" lon="32.5752457">
<ele>49.90</ele>
<time>2015-04-26T12:29:48Z</time>
</trkpt>
<trkpt lat="35.1698231" lon="32.5753162">
<ele>49.91</ele>
<time>2015-04-26T12:29:49Z</time>
</trkpt>
<trkpt lat="35.1698309" lon="32.5754009">
<ele>49.92</ele>
<time>2015-04-26T12:29:50Z</time>
</trkpt>
<trkpt lat="35.1698304" lon="32.5754747">
<ele>49.92</ele>
<time>2015-04-26T12:29:51Z</time>
</trkpt>
<trkpt lat="35.1698491" lon="32.5755487">
<ele>50.42</ele>
<time>2015-04-26T12:29:52Z</time>
</trkpt>
<trkpt lat="35.1698580" lon="32.5756223">
<ele>50.67</ele>
<time>2015-04-26T12:29:53Z</time>
</trkpt>
<trkpt lat="35.1698619" lon="32.5756985">
<ele>50.30</ele>
<time>2015-04-26T12:29:54Z</time>
</trkpt>
<trkpt lat="35.1698642" lon="32.5757765">
<ele>50.11</ele>
<time>2015-04-26T12:29:55Z</time>
</trkpt>
<trkpt lat="35.1698741" lon="32.5758604">
<ele>50.02</ele>
<time>2015-04-26T12:29:56Z</time>
</trkpt>
<trkpt lat="35.1698779" lon="32.5759365">
<ele>49.97</ele>
<time>2015-04-26T12:29:57Z</time>
</trkpt>
<trkpt lat="35.1698728" lon="32.5760126">
<ele>49.45</ele>
<time>2015-04-26T12:29:58Z</time>
</trkpt>
<trkpt lat="35.1698819" lon="32.5760977">
<ele>48.69</ele>
<time>2015-04-26T12:29:59Z</time>
</trkpt>
<trkpt lat="35.1698899" lon="32.5761703">
<ele>47.81</ele>
<time>2015-04-26T12:30:00Z</time>
</trkpt>
<trkpt lat="35.1698949" lon="32.5762423">
<ele>46.37</ele>
<time>2015-04-26T12:30:01Z</time>
</trkpt>
<trkpt lat="35.1699235" lon="32.5763246">
<ele>46.65</ele>
<time>2015-04-26T12:30:02Z</time>
</trkpt>
<trkpt lat="35.1699378" lon="32.5764020">
<ele>46.29</ele>
<time>2015-04-26T12:30:03Z</time>
</trkpt>
<trkpt lat="35.1699518" lon="32.5764780">
<ele>45.61</ele>
<time>2015-04-26T12:30:04Z</time>
</trkpt>
<trkpt lat="35.1699755" lon="32.5765594">
<ele>45.27</ele>
<time>2015-04-26T12:30:05Z</time>
</trkpt>
<trkpt lat="35.1699964" lon="32.5766399">
<ele>45.10</ele>
<time>2015-04-26T12:30:06Z</time>
</trkpt>
<trkpt lat="35.1700188" lon="32.5767208">
<ele>45.01</ele>
<time>2015-04-26T12:30:07Z</time>
</trkpt>
<trkpt lat="35.1700499" lon="32.5767989">
<ele>44.47</ele>
<time>2015-04-26T12:30:08Z</time>
</trkpt>
<trkpt lat="35.1700818" lon="32.5768768">
<ele>43.70</ele>
<time>2015-04-26T12:30:09Z</time>
</trkpt>
<trkpt lat="35.1701149" lon="32.5769556">
<ele>43.31</ele>
<time>2015-04-26T12:30:10Z</time>
</trkpt>
<trkpt lat="35.1701579" lon="32.5770324">
<ele>43.12</ele>
<time>2015-04-26T12:30:11Z</time>
</trkpt>
<trkpt lat="35.1702024" lon="32.5771109">
<ele>43.02</ele>
<time>2015-04-26T12:30:12Z</time>
</trkpt>
<trkpt lat="35.1702563" lon="32.5771729">
<ele>42.97</ele>
<time>2015-04-26T12:30:13Z</time>
</trkpt>
<trkpt lat="35.1703094" lon="32.5772304">
<ele>43.45</ele>
<time>2015-04-26T12:30:14Z</time>
</trkpt>
<trkpt lat="35.1703698" lon="32.5772892">
<ele>43.19</ele>
<time>2015-04-26T12:30:15Z</time>
</trkpt>
<trkpt lat="35.1704329" lon="32.5773488">
<ele>44.56</ele>
<time>2015-04-26T12:30:16Z</time>
</trkpt>
<trkpt lat="35.1704804" lon="32.5774039">
<ele>45.74</ele>
<time>2015-04-26T12:30:17Z</time>
</trkpt>
<trkpt lat="35.1705299" lon="32.5774382">
<ele>45.83</ele>
<time>2015-04-26T12:30:18Z</time>
</trkpt>
<trkpt lat="35.1705854" lon="32.5774865">
<ele>46.38</ele>
<time>2015-04-26T12:30:19Z</time>
</trkpt>
<trkpt lat="35.1706458" lon="32.5775236">
<ele>48.15</ele>
<time>2015-04-26T12:30:20Z</time>
</trkpt>
<trkpt lat="35.1706985" lon="32.5775692">
<ele>49.54</ele>
<time>2015-04-26T12:30:21Z</time>
</trkpt>
<trkpt lat="35.1707425" lon="32.5776078">
<ele>49.73</ele>
<time>2015-04-26T12:30:22Z</time>
</trkpt>
<trkpt lat="35.1707801" lon="32.5776382">
<ele>49.33</ele>
<time>2015-04-26T12:30:23Z</time>
</trkpt>
<trkpt lat="35.1708293" lon="32.5776762">
<ele>48.63</ele>
<time>2015-04-26T12:30:24Z</time>
</trkpt>
<trkpt lat="35.1708707" lon="32.5777124">
<ele>49.28</ele>
<time>2015-04-26T12:30:25Z</time>
</trkpt>
<trkpt lat="35.1709090" lon="32.5777600">
<ele>49.60</ele>
<time>2015-04-26T12:30:26Z</time>
</trkpt>
<trkpt lat="35.1709453" lon="32.5778091">
<ele>49.26</ele>
<time>2015-04-26T12:30:27Z</time>
</trkpt>
<trkpt lat="35.1709870" lon="32.5778491">
<ele>50.09</ele>
<time>2015-04-26T12:30:28Z</time>
</trkpt>
<trkpt lat="35.1710157" lon="32.5778968">
<ele>51.01</ele>
<time>2015-04-26T12:30:29Z</time>
</trkpt>
<trkpt lat="35.1710662" lon="32.5779738">
<ele>52.20</ele>
<time>2015-04-26T12:30:31Z</time>
</trkpt>
<trkpt lat="35.1711076" lon="32.5780675">
<ele>51.74</ele>
<time>2015-04-26T12:30:33Z</time>
</trkpt>
<trkpt lat="35.1711208" lon="32.5781229">
<ele>51.83</ele>
<time>2015-04-26T12:30:34Z</time>
</trkpt>
<trkpt lat="35.1711385" lon="32.5781858">
<ele>51.38</ele>
<time>2015-04-26T12:30:35Z</time>
</trkpt>
<trkpt lat="35.1711499" lon="32.5782468">
<ele>51.15</ele>
<time>2015-04-26T12:30:36Z</time>
</trkpt>
<trkpt lat="35.1711738" lon="32.5783500">
<ele>51.23</ele>
<time>2015-04-26T12:30:38Z</time>
</trkpt>
<trkpt lat="35.1711886" lon="32.5784453">
<ele>51.00</ele>
<time>2015-04-26T12:30:40Z</time>
</trkpt>
<trkpt lat="35.1711941" lon="32.5785272">
<ele>50.44</ele>
<time>2015-04-26T12:30:42Z</time>
</trkpt>
<trkpt lat="35.1712066" lon="32.5786034">
<ele>49.80</ele>
<time>2015-04-26T12:30:44Z</time>
</trkpt>
<trkpt lat="35.1712221" lon="32.5786924">
<ele>49.14</ele>
<time>2015-04-26T12:30:46Z</time>
</trkpt>
<trkpt lat="35.1712280" lon="32.5787719">
<ele>48.23</ele>
<time>2015-04-26T12:30:48Z</time>
</trkpt>
<trkpt lat="35.1712340" lon="32.5788601">
<ele>48.00</ele>
<time>2015-04-26T12:30:50Z</time>
</trkpt>
<trkpt lat="35.1712236" lon="32.5789443">
<ele>48.44</ele>
<time>2015-04-26T12:30:52Z</time>
</trkpt>
<trkpt lat="35.1712147" lon="32.5790252">
<ele>49.05</ele>
<time>2015-04-26T12:30:54Z</time>
</trkpt>
<trkpt lat="35.1712099" lon="32.5790970">
<ele>48.46</ele>
<time>2015-04-26T12:30:56Z</time>
</trkpt>
<trkpt lat="35.1712049" lon="32.5791625">
<ele>48.56</ele>
<time>2015-04-26T12:30:58Z</time>
</trkpt>
<trkpt lat="35.1711999" lon="32.5792295">
<ele>48.08</ele>
<time>2015-04-26T12:31:00Z</time>
</trkpt>
<trkpt lat="35.1711952" lon="32.5793028">
<ele>47.96</ele>
<time>2015-04-26T12:31:02Z</time>
</trkpt>
<trkpt lat="35.1711885" lon="32.5793856">
<ele>48.43</ele>
<time>2015-04-26T12:31:04Z</time>
</trkpt>
<trkpt lat="35.1711868" lon="32.5794718">
<ele>48.55</ele>
<time>2015-04-26T12:31:06Z</time>
</trkpt>
<trkpt lat="35.1711847" lon="32.5795572">
<ele>48.83</ele>
<time>2015-04-26T12:31:08Z</time>
</trkpt>
<trkpt lat="35.1711803" lon="32.5796386">
<ele>49.65</ele>
<time>2015-04-26T12:31:10Z</time>
</trkpt>
<trkpt lat="35.1711796" lon="32.5797125">
<ele>49.86</ele>
<time>2015-04-26T12:31:12Z</time>
</trkpt>
<trkpt lat="35.1711799" lon="32.5797776">
<ele>49.91</ele>
<time>2015-04-26T12:31:14Z</time>
</trkpt>
<trkpt lat="35.1711705" lon="32.5798549">
<ele>51.05</ele>
<time>2015-04-26T12:31:17Z</time>
</trkpt>
<trkpt lat="35.1711507" lon="32.5799201">
<ele>51.07</ele>
<time>2015-04-26T12:31:20Z</time>
</trkpt>
<trkpt lat="35.1712090" lon="32.5799061">
<ele>51.65</ele>
<time>2015-04-26T12:31:25Z</time>
</trkpt>
<trkpt lat="35.1712174" lon="32.5798510">
<ele>51.17</ele>
<time>2015-04-26T12:32:22Z</time>
</trkpt>
<trkpt lat="35.1711726" lon="32.5798856">
<ele>45.93</ele>
<time>2015-04-26T12:33:44Z</time>
</trkpt>
<trkpt lat="35.1711590" lon="32.5799467">
<ele>46.43</ele>
<time>2015-04-26T12:33:47Z</time>
</trkpt>
<trkpt lat="35.1711669" lon="32.5800157">
<ele>46.86</ele>
<time>2015-04-26T12:33:50Z</time>
</trkpt>
<trkpt lat="35.1711695" lon="32.5800888">
<ele>46.92</ele>
<time>2015-04-26T12:33:53Z</time>
</trkpt>
<trkpt lat="35.1711649" lon="32.5801658">
<ele>49.30</ele>
<time>2015-04-26T12:33:56Z</time>
</trkpt>
<trkpt lat="35.1711628" lon="32.5802226">
<ele>49.77</ele>
<time>2015-04-26T12:33:58Z</time>
</trkpt>
<trkpt lat="35.1711557" lon="32.5803035">
<ele>50.41</ele>
<time>2015-04-26T12:34:01Z</time>
</trkpt>
<trkpt lat="35.1711506" lon="32.5803603">
<ele>50.05</ele>
<time>2015-04-26T12:34:03Z</time>
</trkpt>
<trkpt lat="35.1711501" lon="32.5804201">
<ele>50.71</ele>
<time>2015-04-26T12:34:05Z</time>
</trkpt>
<trkpt lat="35.1711480" lon="32.5804784">
<ele>50.12</ele>
<time>2015-04-26T12:34:07Z</time>
</trkpt>
<trkpt lat="35.1711472" lon="32.5805358">
<ele>50.47</ele>
<time>2015-04-26T12:34:09Z</time>
</trkpt>
<trkpt lat="35.1711504" lon="32.5805914">
<ele>50.81</ele>
<time>2015-04-26T12:34:11Z</time>
</trkpt>
<trkpt lat="35.1711572" lon="32.5806616">
<ele>50.91</ele>
<time>2015-04-26T12:34:14Z</time>
</trkpt>
<trkpt lat="35.1711588" lon="32.5807199">
<ele>50.05</ele>
<time>2015-04-26T12:34:17Z</time>
</trkpt>
<trkpt lat="35.1711674" lon="32.5807741">
<ele>50.07</ele>
<time>2015-04-26T12:34:20Z</time>
</trkpt>
<trkpt lat="35.1711724" lon="32.5808325">
<ele>49.94</ele>
<time>2015-04-26T12:34:23Z</time>
</trkpt>
<trkpt lat="35.1711892" lon="32.5808969">
<ele>49.93</ele>
<time>2015-04-26T12:34:26Z</time>
</trkpt>
<trkpt lat="35.1712047" lon="32.5809646">
<ele>49.18</ele>
<time>2015-04-26T12:34:29Z</time>
</trkpt>
<trkpt lat="35.1712214" lon="32.5810419">
<ele>47.71</ele>
<time>2015-04-26T12:34:32Z</time>
</trkpt>
<trkpt lat="35.1712379" lon="32.5811094">
<ele>47.12</ele>
<time>2015-04-26T12:34:34Z</time>
</trkpt>
<trkpt lat="35.1712570" lon="32.5811890">
<ele>45.47</ele>
<time>2015-04-26T12:34:36Z</time>
</trkpt>
<trkpt lat="35.1712798" lon="32.5812691">
<ele>45.81</ele>
<time>2015-04-26T12:34:38Z</time>
</trkpt>
<trkpt lat="35.1713029" lon="32.5813480">
<ele>45.90</ele>
<time>2015-04-26T12:34:40Z</time>
</trkpt>
<trkpt lat="35.1713247" lon="32.5814269">
<ele>45.42</ele>
<time>2015-04-26T12:34:42Z</time>
</trkpt>
<trkpt lat="35.1713428" lon="32.5815012">
<ele>45.30</ele>
<time>2015-04-26T12:34:44Z</time>
</trkpt>
<trkpt lat="35.1713616" lon="32.5815767">
<ele>46.27</ele>
<time>2015-04-26T12:34:46Z</time>
</trkpt>
<trkpt lat="35.1713754" lon="32.5816570">
<ele>46.76</ele>
<time>2015-04-26T12:34:48Z</time>
</trkpt>
<trkpt lat="35.1713846" lon="32.5817394">
<ele>46.88</ele>
<time>2015-04-26T12:34:50Z</time>
</trkpt>
<trkpt lat="35.1713982" lon="32.5818310">
<ele>46.91</ele>
<time>2015-04-26T12:34:52Z</time>
</trkpt>
<trkpt lat="35.1714105" lon="32.5819256">
<ele>47.67</ele>
<time>2015-04-26T12:34:54Z</time>
</trkpt>
<trkpt lat="35.1714152" lon="32.5820217">
<ele>49.11</ele>
<time>2015-04-26T12:34:56Z</time>
</trkpt>
<trkpt lat="35.1714094" lon="32.5821105">
<ele>49.72</ele>
<time>2015-04-26T12:34:58Z</time>
</trkpt>
<trkpt lat="35.1713983" lon="32.5821936">
<ele>50.12</ele>
<time>2015-04-26T12:35:00Z</time>
</trkpt>
<trkpt lat="35.1713896" lon="32.5822707">
<ele>50.72</ele>
<time>2015-04-26T12:35:02Z</time>
</trkpt>
<trkpt lat="35.1713742" lon="32.5823457">
<ele>50.87</ele>
<time>2015-04-26T12:35:04Z</time>
</trkpt>
<trkpt lat="35.1713522" lon="32.5824234">
<ele>51.16</ele>
<time>2015-04-26T12:35:06Z</time>
</trkpt>
<trkpt lat="35.1713348" lon="32.5825089">
<ele>50.98</ele>
<time>2015-04-26T12:35:08Z</time>
</trkpt>
<trkpt lat="35.1713146" lon="32.5825917">
<ele>50.94</ele>
<time>2015-04-26T12:35:10Z</time>
</trkpt>
<trkpt lat="35.1712850" lon="32.5826808">
<ele>51.68</ele>
<time>2015-04-26T12:35:12Z</time>
</trkpt>
<trkpt lat="35.1712614" lon="32.5827680">
<ele>51.61</ele>
<time>2015-04-26T12:35:14Z</time>
</trkpt>
<trkpt lat="35.1712401" lon="32.5828540">
<ele>52.35</ele>
<time>2015-04-26T12:35:16Z</time>
</trkpt>
<trkpt lat="35.1712215" lon="32.5829380">
<ele>52.03</ele>
<time>2015-04-26T12:35:18Z</time>
</trkpt>
<trkpt lat="35.1712006" lon="32.5830193">
<ele>52.45</ele>
<time>2015-04-26T12:35:20Z</time>
</trkpt>
<trkpt lat="35.1711776" lon="32.5830976">
<ele>53.31</ele>
<time>2015-04-26T12:35:22Z</time>
</trkpt>
<trkpt lat="35.1711601" lon="32.5831818">
<ele>53.27</ele>
<time>2015-04-26T12:35:24Z</time>
</trkpt>
<trkpt lat="35.1711406" lon="32.5832682">
<ele>52.26</ele>
<time>2015-04-26T12:35:26Z</time>
</trkpt>
<trkpt lat="35.1711223" lon="32.5833532">
<ele>52.01</ele>
<time>2015-04-26T12:35:28Z</time>
</trkpt>
<trkpt lat="35.1711156" lon="32.5834426">
<ele>51.95</ele>
<time>2015-04-26T12:35:30Z</time>
</trkpt>
<trkpt lat="35.1711096" lon="32.5835333">
<ele>52.43</ele>
<time>2015-04-26T12:35:32Z</time>
</trkpt>
<trkpt lat="35.1711074" lon="32.5836268">
<ele>52.80</ele>
<time>2015-04-26T12:35:34Z</time>
</trkpt>
<trkpt lat="35.1711062" lon="32.5837170">
<ele>54.14</ele>
<time>2015-04-26T12:35:36Z</time>
</trkpt>
<trkpt lat="35.1711013" lon="32.5837975">
<ele>54.73</ele>
<time>2015-04-26T12:35:38Z</time>
</trkpt>
<trkpt lat="35.1711016" lon="32.5838615">
<ele>54.88</ele>
<time>2015-04-26T12:35:40Z</time>
</trkpt>
<trkpt lat="35.1711224" lon="32.5839282">
<ele>54.92</ele>
<time>2015-04-26T12:35:43Z</time>
</trkpt>
<trkpt lat="35.1711350" lon="32.5840037">
<ele>54.92</ele>
<time>2015-04-26T12:35:46Z</time>
</trkpt>
<trkpt lat="35.1711078" lon="32.5840536">
<ele>54.92</ele>
<time>2015-04-26T12:35:48Z</time>
</trkpt>
<trkpt lat="35.1710817" lon="32.5841083">
<ele>55.42</ele>
<time>2015-04-26T12:35:50Z</time>
</trkpt>
<trkpt lat="35.1710690" lon="32.5841671">
<ele>55.05</ele>
<time>2015-04-26T12:35:52Z</time>
</trkpt>
<trkpt lat="35.1710550" lon="32.5842243">
<ele>55.46</ele>
<time>2015-04-26T12:35:54Z</time>
</trkpt>
<trkpt lat="35.1710460" lon="32.5842787">
<ele>55.06</ele>
<time>2015-04-26T12:35:56Z</time>
</trkpt>
<trkpt lat="35.1710327" lon="32.5843562">
<ele>56.44</ele>
<time>2015-04-26T12:35:59Z</time>
</trkpt>
<trkpt lat="35.1710019" lon="32.5844301">
<ele>57.49</ele>
<time>2015-04-26T12:36:02Z</time>
</trkpt>
<trkpt lat="35.1709711" lon="32.5844992">
<ele>57.87</ele>
<time>2015-04-26T12:36:05Z</time>
</trkpt>
<trkpt lat="35.1709474" lon="32.5845680">
<ele>58.79</ele>
<time>2015-04-26T12:36:08Z</time>
</trkpt>
<trkpt lat="35.1709133" lon="32.5846217">
<ele>57.78</ele>
<time>2015-04-26T12:36:11Z</time>
</trkpt>
<trkpt lat="35.1708913" lon="32.5846723">
<ele>59.78</ele>
<time>2015-04-26T12:36:14Z</time>
</trkpt>
<trkpt lat="35.1708662" lon="32.5847477">
<ele>61.53</ele>
<time>2015-04-26T12:36:17Z</time>
</trkpt>
<trkpt lat="35.1708480" lon="32.5848025">
<ele>61.83</ele>
<time>2015-04-26T12:36:19Z</time>
</trkpt>
<trkpt lat="35.1708318" lon="32.5848599">
<ele>62.65</ele>
<time>2015-04-26T12:36:21Z</time>
</trkpt>
<trkpt lat="35.1708292" lon="32.5849221">
<ele>63.36</ele>
<time>2015-04-26T12:36:23Z</time>
</trkpt>
<trkpt lat="35.1708399" lon="32.5849800">
<ele>62.78</ele>
<time>2015-04-26T12:36:25Z</time>
</trkpt>
<trkpt lat="35.1708522" lon="32.5850330">
<ele>63.14</ele>
<time>2015-04-26T12:36:27Z</time>
</trkpt>
<trkpt lat="35.1708764" lon="32.5850850">
<ele>66.73</ele>
<time>2015-04-26T12:36:29Z</time>
</trkpt>
<trkpt lat="35.1708973" lon="32.5851572">
<ele>69.28</ele>
<time>2015-04-26T12:36:32Z</time>
</trkpt>
<trkpt lat="35.1709048" lon="32.5852250">
<ele>70.59</ele>
<time>2015-04-26T12:36:35Z</time>
</trkpt>
<trkpt lat="35.1709184" lon="32.5852893">
<ele>73.51</ele>
<time>2015-04-26T12:36:38Z</time>
</trkpt>
<trkpt lat="35.1709163" lon="32.5853464">
<ele>74.84</ele>
<time>2015-04-26T12:36:42Z</time>
</trkpt>
<trkpt lat="35.1709102" lon="32.5854137">
<ele>76.67</ele>
<time>2015-04-26T12:36:47Z</time>
</trkpt>
<trkpt lat="35.1709008" lon="32.5854764">
<ele>75.47</ele>
<time>2015-04-26T12:36:51Z</time>
</trkpt>
<trkpt lat="35.1709140" lon="32.5855334">
<ele>75.44</ele>
<time>2015-04-26T12:36:56Z</time>
</trkpt>
<trkpt lat="35.1709505" lon="32.5855782">
<ele>75.90</ele>
<time>2015-04-26T12:37:03Z</time>
</trkpt>
<trkpt lat="35.1709903" lon="32.5856313">
<ele>74.80</ele>
<time>2015-04-26T12:37:08Z</time>
</trkpt>
<trkpt lat="35.1709798" lon="32.5856950">
<ele>74.16</ele>
<time>2015-04-26T12:37:11Z</time>
</trkpt>
<trkpt lat="35.1709546" lon="32.5857496">
<ele>73.95</ele>
<time>2015-04-26T12:37:14Z</time>
</trkpt>
<trkpt lat="35.1709069" lon="32.5857725">
<ele>74.24</ele>
<time>2015-04-26T12:37:18Z</time>
</trkpt>
<trkpt lat="35.1708857" lon="32.5858419">
<ele>73.44</ele>
<time>2015-04-26T12:37:22Z</time>
</trkpt>
<trkpt lat="35.1708830" lon="32.5858999">
<ele>72.24</ele>
<time>2015-04-26T12:37:25Z</time>
</trkpt>
<trkpt lat="35.1708882" lon="32.5859571">
<ele>72.84</ele>
<time>2015-04-26T12:37:28Z</time>
</trkpt>
<trkpt lat="35.1708979" lon="32.5860290">
<ele>72.16</ele>
<time>2015-04-26T12:37:31Z</time>
</trkpt>
<trkpt lat="35.1709037" lon="32.5860996">
<ele>71.08</ele>
<time>2015-04-26T12:37:34Z</time>
</trkpt>
<trkpt lat="35.1709073" lon="32.5861681">
<ele>70.44</ele>
<time>2015-04-26T12:37:37Z</time>
</trkpt>
<trkpt lat="35.1709096" lon="32.5862338">
<ele>70.05</ele>
<time>2015-04-26T12:37:39Z</time>
</trkpt>
<trkpt lat="35.1709042" lon="32.5863006">
<ele>69.21</ele>
<time>2015-04-26T12:37:41Z</time>
</trkpt>
<trkpt lat="35.1708960" lon="32.5863654">
<ele>69.25</ele>
<time>2015-04-26T12:37:43Z</time>
</trkpt>
<trkpt lat="35.1708815" lon="32.5864269">
<ele>69.01</ele>
<time>2015-04-26T12:37:45Z</time>
</trkpt>
<trkpt lat="35.1708622" lon="32.5864805">
<ele>68.45</ele>
<time>2015-04-26T12:37:47Z</time>
</trkpt>
<trkpt lat="35.1708144" lon="32.5865323">
<ele>63.55</ele>
<time>2015-04-26T12:40:43Z</time>
</trkpt>
<trkpt lat="35.1707504" lon="32.5865506">
<ele>62.58</ele>
<time>2015-04-26T12:40:45Z</time>
</trkpt>
<trkpt lat="35.1706837" lon="32.5865581">
<ele>62.84</ele>
<time>2015-04-26T12:40:47Z</time>
</trkpt>
<trkpt lat="35.1706235" lon="32.5865517">
<ele>62.65</ele>
<time>2015-04-26T12:40:49Z</time>
</trkpt>
<trkpt lat="35.1705780" lon="32.5865288">
<ele>61.64</ele>
<time>2015-04-26T12:40:52Z</time>
</trkpt>
<trkpt lat="35.1705307" lon="32.5865062">
<ele>60.51</ele>
<time>2015-04-26T12:40:55Z</time>
</trkpt>
<trkpt lat="35.1704775" lon="32.5864778">
<ele>60.87</ele>
<time>2015-04-26T12:40:58Z</time>
</trkpt>
<trkpt lat="35.1704246" lon="32.5864537">
<ele>60.92</ele>
<time>2015-04-26T12:41:01Z</time>
</trkpt>
<trkpt lat="35.1703796" lon="32.5864373">
<ele>60.17</ele>
<time>2015-04-26T12:41:04Z</time>
</trkpt>
<trkpt lat="35.1703307" lon="32.5864121">
<ele>61.13</ele>
<time>2015-04-26T12:41:08Z</time>
</trkpt>
<trkpt lat="35.1702820" lon="32.5863895">
<ele>61.45</ele>
<time>2015-04-26T12:41:11Z</time>
</trkpt>
<trkpt lat="35.1702276" lon="32.5863644">
<ele>61.62</ele>
<time>2015-04-26T12:41:14Z</time>
</trkpt>
<trkpt lat="35.1701762" lon="32.5863374">
<ele>60.51</ele>
<time>2015-04-26T12:41:17Z</time>
</trkpt>
<trkpt lat="35.1701368" lon="32.5863078">
<ele>60.75</ele>
<time>2015-04-26T12:41:20Z</time>
</trkpt>
<trkpt lat="35.1700869" lon="32.5862745">
<ele>60.04</ele>
<time>2015-04-26T12:41:24Z</time>
</trkpt>
<trkpt lat="35.1700402" lon="32.5862533">
<ele>60.06</ele>
<time>2015-04-26T12:41:27Z</time>
</trkpt>
<trkpt lat="35.1699938" lon="32.5862351">
<ele>62.19</ele>
<time>2015-04-26T12:41:30Z</time>
</trkpt>
<trkpt lat="35.1699465" lon="32.5862126">
<ele>61.96</ele>
<time>2015-04-26T12:41:33Z</time>
</trkpt>
<trkpt lat="35.1699001" lon="32.5861890">
<ele>61.93</ele>
<time>2015-04-26T12:41:36Z</time>
</trkpt>
<trkpt lat="35.1698552" lon="32.5861689">
<ele>61.93</ele>
<time>2015-04-26T12:41:40Z</time>
</trkpt>
<trkpt lat="35.1698003" lon="32.5861459">
<ele>62.86</ele>
<time>2015-04-26T12:41:44Z</time>
</trkpt>
<trkpt lat="35.1697414" lon="32.5861248">
<ele>63.79</ele>
<time>2015-04-26T12:41:47Z</time>
</trkpt>
<trkpt lat="35.1696874" lon="32.5861028">
<ele>62.66</ele>
<time>2015-04-26T12:41:50Z</time>
</trkpt>
<trkpt lat="35.1696379" lon="32.5860807">
<ele>62.52</ele>
<time>2015-04-26T12:41:53Z</time>
</trkpt>
<trkpt lat="35.1695881" lon="32.5860609">
<ele>63.75</ele>
<time>2015-04-26T12:41:56Z</time>
</trkpt>
<trkpt lat="35.1695451" lon="32.5860300">
<ele>64.65</ele>
<time>2015-04-26T12:41:59Z</time>
</trkpt>
<trkpt lat="35.1694977" lon="32.5860086">
<ele>65.14</ele>
<time>2015-04-26T12:42:02Z</time>
</trkpt>
<trkpt lat="35.1694462" lon="32.5859844">
<ele>64.95</ele>
<time>2015-04-26T12:42:05Z</time>
</trkpt>
<trkpt lat="35.1693977" lon="32.5859587">
<ele>65.43</ele>
<time>2015-04-26T12:42:08Z</time>
</trkpt>
<trkpt lat="35.1693505" lon="32.5859294">
<ele>65.99</ele>
<time>2015-04-26T12:42:11Z</time>
</trkpt>
<trkpt lat="35.1692990" lon="32.5859031">
<ele>66.68</ele>
<time>2015-04-26T12:42:14Z</time>
</trkpt>
<trkpt lat="35.1692473" lon="32.5858864">
<ele>66.89</ele>
<time>2015-04-26T12:42:17Z</time>
</trkpt>
<trkpt lat="35.1691952" lon="32.5858746">
<ele>66.92</ele>
<time>2015-04-26T12:42:20Z</time>
</trkpt>
<trkpt lat="35.1691404" lon="32.5858708">
<ele>67.17</ele>
<time>2015-04-26T12:42:23Z</time>
</trkpt>
<trkpt lat="35.1690858" lon="32.5858695">
<ele>67.83</ele>
<time>2015-04-26T12:42:26Z</time>
</trkpt>
<trkpt lat="35.1690269" lon="32.5858794">
<ele>68.66</ele>
<time>2015-04-26T12:42:29Z</time>
</trkpt>
<trkpt lat="35.1689682" lon="32.5858965">
<ele>69.64</ele>
<time>2015-04-26T12:42:32Z</time>
</trkpt>
<trkpt lat="35.1689153" lon="32.5859195">
<ele>69.89</ele>
<time>2015-04-26T12:42:35Z</time>
</trkpt>
<trkpt lat="35.1688670" lon="32.5859487">
<ele>70.67</ele>
<time>2015-04-26T12:42:38Z</time>
</trkpt>
<trkpt lat="35.1688195" lon="32.5859721">
<ele>71.27</ele>
<time>2015-04-26T12:42:41Z</time>
</trkpt>
<trkpt lat="35.1687754" lon="32.5859962">
<ele>72.72</ele>
<time>2015-04-26T12:42:44Z</time>
</trkpt>
<trkpt lat="35.1687263" lon="32.5860137">
<ele>73.77</ele>
<time>2015-04-26T12:42:47Z</time>
</trkpt>
<trkpt lat="35.1686684" lon="32.5860064">
<ele>73.91</ele>
<time>2015-04-26T12:42:50Z</time>
</trkpt>
<trkpt lat="35.1686100" lon="32.5859852">
<ele>73.92</ele>
<time>2015-04-26T12:42:53Z</time>
</trkpt>
<trkpt lat="35.1685528" lon="32.5859566">
<ele>73.67</ele>
<time>2015-04-26T12:42:56Z</time>
</trkpt>
<trkpt lat="35.1684945" lon="32.5859260">
<ele>73.52</ele>
<time>2015-04-26T12:42:59Z</time>
</trkpt>
<trkpt lat="35.1684347" lon="32.5858958">
<ele>73.12</ele>
<time>2015-04-26T12:43:02Z</time>
</trkpt>
<trkpt lat="35.1683726" lon="32.5858829">
<ele>73.45</ele>
<time>2015-04-26T12:43:05Z</time>
</trkpt>
<trkpt lat="35.1683136" lon="32.5858722">
<ele>73.87</ele>
<time>2015-04-26T12:43:08Z</time>
</trkpt>
<trkpt lat="35.1682718" lon="32.5858469">
<ele>74.54</ele>
<time>2015-04-26T12:43:11Z</time>
</trkpt>
<trkpt lat="35.1682249" lon="32.5858257">
<ele>74.00</ele>
<time>2015-04-26T12:43:14Z</time>
</trkpt>
<trkpt lat="35.1681658" lon="32.5858290">
<ele>74.43</ele>
<time>2015-04-26T12:43:17Z</time>
</trkpt>
<trkpt lat="35.1681017" lon="32.5858315">
<ele>74.86</ele>
<time>2015-04-26T12:43:20Z</time>
</trkpt>
<trkpt lat="35.1680456" lon="32.5858357">
<ele>75.67</ele>
<time>2015-04-26T12:43:23Z</time>
</trkpt>
<trkpt lat="35.1679922" lon="32.5858470">
<ele>76.78</ele>
<time>2015-04-26T12:43:27Z</time>
</trkpt>
<trkpt lat="35.1679398" lon="32.5858545">
<ele>77.41</ele>
<time>2015-04-26T12:43:30Z</time>
</trkpt>
<trkpt lat="35.1678848" lon="32.5858635">
<ele>78.61</ele>
<time>2015-04-26T12:43:33Z</time>
</trkpt>
<trkpt lat="35.1678267" lon="32.5858758">
<ele>79.64</ele>
<time>2015-04-26T12:43:36Z</time>
</trkpt>
<trkpt lat="35.1677683" lon="32.5858679">
<ele>80.39</ele>
<time>2015-04-26T12:43:39Z</time>
</trkpt>
<trkpt lat="35.1677155" lon="32.5858510">
<ele>81.36</ele>
<time>2015-04-26T12:43:42Z</time>
</trkpt>
<trkpt lat="35.1676724" lon="32.5858215">
<ele>82.10</ele>
<time>2015-04-26T12:43:45Z</time>
</trkpt>
<trkpt lat="35.1676442" lon="32.5857742">
<ele>82.82</ele>
<time>2015-04-26T12:43:48Z</time>
</trkpt>
<trkpt lat="35.1676133" lon="32.5857188">
<ele>82.23</ele>
<time>2015-04-26T12:43:52Z</time>
</trkpt>
<trkpt lat="35.1675670" lon="32.5856928">
<ele>81.44</ele>
<time>2015-04-26T12:43:56Z</time>
</trkpt>
<trkpt lat="35.1675246" lon="32.5856570">
<ele>81.71</ele>
<time>2015-04-26T12:44:00Z</time>
</trkpt>
<trkpt lat="35.1674889" lon="32.5856119">
<ele>82.10</ele>
<time>2015-04-26T12:44:04Z</time>
</trkpt>
<trkpt lat="35.1674475" lon="32.5855793">
<ele>82.69</ele>
<time>2015-04-26T12:44:08Z</time>
</trkpt>
<trkpt lat="35.1673958" lon="32.5855519">
<ele>81.97</ele>
<time>2015-04-26T12:44:12Z</time>
</trkpt>
<trkpt lat="35.1673619" lon="32.5855136">
<ele>82.68</ele>
<time>2015-04-26T12:44:15Z</time>
</trkpt>
<trkpt lat="35.1673279" lon="32.5854743">
<ele>83.39</ele>
<time>2015-04-26T12:44:18Z</time>
</trkpt>
<trkpt lat="35.1673027" lon="32.5854282">
<ele>85.48</ele>
<time>2015-04-26T12:44:21Z</time>
</trkpt>
<trkpt lat="35.1672833" lon="32.5853760">
<ele>86.83</ele>
<time>2015-04-26T12:44:25Z</time>
</trkpt>
<trkpt lat="35.1672654" lon="32.5853110">
<ele>87.70</ele>
<time>2015-04-26T12:44:30Z</time>
</trkpt>
<trkpt lat="35.1672508" lon="32.5852554">
<ele>87.35</ele>
<time>2015-04-26T12:44:34Z</time>
</trkpt>
<trkpt lat="35.1672340" lon="32.5851996">
<ele>86.70</ele>
<time>2015-04-26T12:44:38Z</time>
</trkpt>
<trkpt lat="35.1672098" lon="32.5851494">
<ele>88.29</ele>
<time>2015-04-26T12:44:42Z</time>
</trkpt>
<trkpt lat="35.1671911" lon="32.5850922">
<ele>89.76</ele>
<time>2015-04-26T12:44:46Z</time>
</trkpt>
<trkpt lat="35.1671662" lon="32.5850399">
<ele>91.29</ele>
<time>2015-04-26T12:44:50Z</time>
</trkpt>
<trkpt lat="35.1671418" lon="32.5849907">
<ele>92.01</ele>
<time>2015-04-26T12:44:54Z</time>
</trkpt>
<trkpt lat="35.1671582" lon="32.5849346">
<ele>93.56</ele>
<time>2015-04-26T12:44:58Z</time>
</trkpt>
<trkpt lat="35.1672126" lon="32.5849110">
<ele>94.15</ele>
<time>2015-04-26T12:45:02Z</time>
</trkpt>
<trkpt lat="35.1672646" lon="32.5849407">
<ele>95.06</ele>
<time>2015-04-26T12:45:06Z</time>
</trkpt>
<trkpt lat="35.1673013" lon="32.5849733">
<ele>96.32</ele>
<time>2015-04-26T12:45:09Z</time>
</trkpt>
<trkpt lat="35.1673407" lon="32.5850029">
<ele>96.85</ele>
<time>2015-04-26T12:45:12Z</time>
</trkpt>
<trkpt lat="35.1673796" lon="32.5850352">
<ele>97.79</ele>
<time>2015-04-26T12:45:15Z</time>
</trkpt>
<trkpt lat="35.1674197" lon="32.5850834">
<ele>98.66</ele>
<time>2015-04-26T12:45:18Z</time>
</trkpt>
<trkpt lat="35.1674607" lon="32.5851312">
<ele>98.89</ele>
<time>2015-04-26T12:45:21Z</time>
</trkpt>
<trkpt lat="35.1674864" lon="32.5851859">
<ele>98.92</ele>
<time>2015-04-26T12:45:24Z</time>
</trkpt>
<trkpt lat="35.1675174" lon="32.5852438">
<ele>98.92</ele>
<time>2015-04-26T12:45:28Z</time>
</trkpt>
<trkpt lat="35.1675616" lon="32.5852938">
<ele>98.92</ele>
<time>2015-04-26T12:45:32Z</time>
</trkpt>
<trkpt lat="35.1676100" lon="32.5853440">
<ele>98.42</ele>
<time>2015-04-26T12:45:35Z</time>
</trkpt>
<trkpt lat="35.1676612" lon="32.5853879">
<ele>97.99</ele>
<time>2015-04-26T12:45:38Z</time>
</trkpt>
<trkpt lat="35.1677141" lon="32.5854296">
<ele>97.93</ele>
<time>2015-04-26T12:45:41Z</time>
</trkpt>
<trkpt lat="35.1677723" lon="32.5854430">
<ele>100.30</ele>
<time>2015-04-26T12:45:44Z</time>
</trkpt>
<trkpt lat="35.1678337" lon="32.5854164">
<ele>100.85</ele>
<time>2015-04-26T12:45:47Z</time>
</trkpt>
<trkpt lat="35.1678797" lon="32.5853764">
<ele>100.91</ele>
<time>2015-04-26T12:45:49Z</time>
</trkpt>
<trkpt lat="35.1679204" lon="32.5853304">
<ele>100.92</ele>
<time>2015-04-26T12:45:51Z</time>
</trkpt>
<trkpt lat="35.1679519" lon="32.5852893">
<ele>100.92</ele>
<time>2015-04-26T12:45:53Z</time>
</trkpt>
<trkpt lat="35.1679863" lon="32.5852443">
<ele>101.67</ele>
<time>2015-04-26T12:45:56Z</time>
</trkpt>
<trkpt lat="35.1680257" lon="32.5852081">
<ele>103.52</ele>
<time>2015-04-26T12:45:59Z</time>
</trkpt>
<trkpt lat="35.1680612" lon="32.5851632">
<ele>103.87</ele>
<time>2015-04-26T12:46:02Z</time>
</trkpt>
<trkpt lat="35.1681002" lon="32.5851234">
<ele>103.92</ele>
<time>2015-04-26T12:46:05Z</time>
</trkpt>
<trkpt lat="35.1681591" lon="32.5850948">
<ele>104.55</ele>
<time>2015-04-26T12:46:08Z</time>
</trkpt>
<trkpt lat="35.1682112" lon="32.5850840">
<ele>104.08</ele>
<time>2015-04-26T12:46:10Z</time>
</trkpt>
<trkpt lat="35.1682667" lon="32.5850808">
<ele>103.96</ele>
<time>2015-04-26T12:46:12Z</time>
</trkpt>
<trkpt lat="35.1683221" lon="32.5850799">
<ele>104.68</ele>
<time>2015-04-26T12:46:14Z</time>
</trkpt>
<trkpt lat="35.1683762" lon="32.5850811">
<ele>105.61</ele>
<time>2015-04-26T12:46:16Z</time>
</trkpt>
<trkpt lat="35.1684274" lon="32.5850831">
<ele>106.35</ele>
<time>2015-04-26T12:46:18Z</time>
</trkpt>
<trkpt lat="35.1684802" lon="32.5850842">
<ele>107.35</ele>
<time>2015-04-26T12:46:21Z</time>
</trkpt>
<trkpt lat="35.1685326" lon="32.5850960">
<ele>108.85</ele>
<time>2015-04-26T12:46:24Z</time>
</trkpt>
<trkpt lat="35.1685867" lon="32.5850885">
<ele>110.29</ele>
<time>2015-04-26T12:46:27Z</time>
</trkpt>
<trkpt lat="35.1686345" lon="32.5850711">
<ele>110.35</ele>
<time>2015-04-26T12:46:30Z</time>
</trkpt>
<trkpt lat="35.1686776" lon="32.5850389">
<ele>109.98</ele>
<time>2015-04-26T12:46:33Z</time>
</trkpt>
<trkpt lat="35.1687276" lon="32.5850018">
<ele>109.18</ele>
<time>2015-04-26T12:46:37Z</time>
</trkpt>
<trkpt lat="35.1687633" lon="32.5849657">
<ele>108.71</ele>
<time>2015-04-26T12:46:40Z</time>
</trkpt>
<trkpt lat="35.1687820" lon="32.5849083">
<ele>108.15</ele>
<time>2015-04-26T12:46:43Z</time>
</trkpt>
<trkpt lat="35.1687863" lon="32.5848499">
<ele>107.58</ele>
<time>2015-04-26T12:46:46Z</time>
</trkpt>
<trkpt lat="35.1687814" lon="32.5847729">
<ele>107.88</ele>
<time>2015-04-26T12:46:49Z</time>
</trkpt>
<trkpt lat="35.1687776" lon="32.5847110">
<ele>108.41</ele>
<time>2015-04-26T12:46:51Z</time>
</trkpt>
<trkpt lat="35.1687818" lon="32.5846489">
<ele>108.80</ele>
<time>2015-04-26T12:46:53Z</time>
</trkpt>
<trkpt lat="35.1687919" lon="32.5845910">
<ele>109.39</ele>
<time>2015-04-26T12:46:55Z</time>
</trkpt>
<trkpt lat="35.1688089" lon="32.5845350">
<ele>109.29</ele>
<time>2015-04-26T12:46:57Z</time>
</trkpt>
<trkpt lat="35.1688373" lon="32.5844889">
<ele>109.02</ele>
<time>2015-04-26T12:46:59Z</time>
</trkpt>
<trkpt lat="35.1688832" lon="32.5844602">
<ele>108.95</ele>
<time>2015-04-26T12:47:01Z</time>
</trkpt>
<trkpt lat="35.1689352" lon="32.5844355">
<ele>108.18</ele>
<time>2015-04-26T12:47:03Z</time>
</trkpt>
<trkpt lat="35.1689831" lon="32.5844103">
<ele>107.99</ele>
<time>2015-04-26T12:47:05Z</time>
</trkpt>
<trkpt lat="35.1690344" lon="32.5843912">
<ele>107.56</ele>
<time>2015-04-26T12:47:08Z</time>
</trkpt>
<trkpt lat="35.1690876" lon="32.5843680">
<ele>106.25</ele>
<time>2015-04-26T12:47:11Z</time>
</trkpt>
<trkpt lat="35.1691359" lon="32.5843350">
<ele>106.01</ele>
<time>2015-04-26T12:47:13Z</time>
</trkpt>
<trkpt lat="35.1691918" lon="32.5842983">
<ele>105.45</ele>
<time>2015-04-26T12:47:15Z</time>
</trkpt>
<trkpt lat="35.1692440" lon="32.5842613">
<ele>103.81</ele>
<time>2015-04-26T12:47:17Z</time>
</trkpt>
<trkpt lat="35.1692936" lon="32.5842273">
<ele>103.66</ele>
<time>2015-04-26T12:47:20Z</time>
</trkpt>
<trkpt lat="35.1693326" lon="32.5841988">
<ele>103.92</ele>
<time>2015-04-26T12:47:25Z</time>
</trkpt>
<trkpt lat="35.1693853" lon="32.5841716">
<ele>108.11</ele>
<time>2015-04-26T12:49:30Z</time>
</trkpt>
<trkpt lat="35.1694358" lon="32.5841384">
<ele>107.07</ele>
<time>2015-04-26T12:49:33Z</time>
</trkpt>
<trkpt lat="35.1694795" lon="32.5841199">
<ele>105.96</ele>
<time>2015-04-26T12:49:35Z</time>
</trkpt>
<trkpt lat="35.1695259" lon="32.5841065">
<ele>105.18</ele>
<time>2015-04-26T12:49:37Z</time>
</trkpt>
<trkpt lat="35.1695750" lon="32.5840963">
<ele>104.24</ele>
<time>2015-04-26T12:49:39Z</time>
</trkpt>
<trkpt lat="35.1696278" lon="32.5840882">
<ele>102.75</ele>
<time>2015-04-26T12:49:41Z</time>
</trkpt>
<trkpt lat="35.1696781" lon="32.5840790">
<ele>101.63</ele>
<time>2015-04-26T12:49:43Z</time>
</trkpt>
<trkpt lat="35.1697406" lon="32.5840544">
<ele>101.01</ele>
<time>2015-04-26T12:49:46Z</time>
</trkpt>
<trkpt lat="35.1697894" lon="32.5840276">
<ele>98.95</ele>
<time>2015-04-26T12:49:48Z</time>
</trkpt>
<trkpt lat="35.1699017" lon="32.5839674">
<ele>97.18</ele>
<time>2015-04-26T12:49:50Z</time>
</trkpt>
<trkpt lat="35.1699500" lon="32.5839507">
<ele>97.05</ele>
<time>2015-04-26T12:49:51Z</time>
</trkpt>
<trkpt lat="35.1699982" lon="32.5839469">
<ele>96.49</ele>
<time>2015-04-26T12:49:52Z</time>
</trkpt>
<trkpt lat="35.1700455" lon="32.5839522">
<ele>96.21</ele>
<time>2015-04-26T12:49:53Z</time>
</trkpt>
<trkpt lat="35.1701230" lon="32.5839393">
<ele>95.25</ele>
<time>2015-04-26T12:49:55Z</time>
</trkpt>
<trkpt lat="35.1701788" lon="32.5838737">
<ele>95.01</ele>
<time>2015-04-26T12:49:57Z</time>
</trkpt>
<trkpt lat="35.1702132" lon="32.5838250">
<ele>94.20</ele>
<time>2015-04-26T12:49:59Z</time>
</trkpt>
<trkpt lat="35.1702404" lon="32.5837551">
<ele>93.08</ele>
<time>2015-04-26T12:50:02Z</time>
</trkpt>
<trkpt lat="35.1702500" lon="32.5836922">
<ele>92.21</ele>
<time>2015-04-26T12:50:04Z</time>
</trkpt>
<trkpt lat="35.1702563" lon="32.5836208">
<ele>92.00</ele>
<time>2015-04-26T12:50:06Z</time>
</trkpt>
<trkpt lat="35.1702476" lon="32.5835374">
<ele>91.94</ele>
<time>2015-04-26T12:50:08Z</time>
</trkpt>
<trkpt lat="35.1702255" lon="32.5834492">
<ele>92.68</ele>
<time>2015-04-26T12:50:10Z</time>
</trkpt>
<trkpt lat="35.1702026" lon="32.5833638">
<ele>92.86</ele>
<time>2015-04-26T12:50:12Z</time>
</trkpt>
<trkpt lat="35.1701803" lon="32.5832782">
<ele>92.16</ele>
<time>2015-04-26T12:50:14Z</time>
</trkpt>
<trkpt lat="35.1701601" lon="32.5831975">
<ele>93.23</ele>
<time>2015-04-26T12:50:16Z</time>
</trkpt>
<trkpt lat="35.1701502" lon="32.5831151">
<ele>93.25</ele>
<time>2015-04-26T12:50:18Z</time>
</trkpt>
<trkpt lat="35.1701499" lon="32.5830305">
<ele>93.76</ele>
<time>2015-04-26T12:50:20Z</time>
</trkpt>
<trkpt lat="35.1701669" lon="32.5829526">
<ele>93.88</ele>
<time>2015-04-26T12:50:22Z</time>
</trkpt>
<trkpt lat="35.1701934" lon="32.5828785">
<ele>93.91</ele>
<time>2015-04-26T12:50:24Z</time>
</trkpt>
<trkpt lat="35.1702213" lon="32.5828072">
<ele>91.92</ele>
<time>2015-04-26T12:50:26Z</time>
</trkpt>
<trkpt lat="35.1702554" lon="32.5827298">
<ele>88.67</ele>
<time>2015-04-26T12:50:28Z</time>
</trkpt>
<trkpt lat="35.1702795" lon="32.5826440">
<ele>87.61</ele>
<time>2015-04-26T12:50:30Z</time>
</trkpt>
<trkpt lat="35.1702822" lon="32.5825528">
<ele>87.10</ele>
<time>2015-04-26T12:50:32Z</time>
</trkpt>
<trkpt lat="35.1702624" lon="32.5824684">
<ele>85.47</ele>
<time>2015-04-26T12:50:34Z</time>
</trkpt>
<trkpt lat="35.1702419" lon="32.5823846">
<ele>84.81</ele>
<time>2015-04-26T12:50:36Z</time>
</trkpt>
<trkpt lat="35.1702291" lon="32.5822895">
<ele>84.65</ele>
<time>2015-04-26T12:50:38Z</time>
</trkpt>
<trkpt lat="35.1702176" lon="32.5821977">
<ele>84.36</ele>
<time>2015-04-26T12:50:40Z</time>
</trkpt>
<trkpt lat="35.1701906" lon="32.5821164">
<ele>84.03</ele>
<time>2015-04-26T12:50:42Z</time>
</trkpt>
<trkpt lat="35.1701368" lon="32.5820568">
<ele>83.95</ele>
<time>2015-04-26T12:50:44Z</time>
</trkpt>
<trkpt lat="35.1700963" lon="32.5820128">
<ele>82.81</ele>
<time>2015-04-26T12:51:05Z</time>
</trkpt>
<trkpt lat="35.1700384" lon="32.5819720">
<ele>82.90</ele>
<time>2015-04-26T12:51:07Z</time>
</trkpt>
<trkpt lat="35.1699800" lon="32.5819342">
<ele>83.42</ele>
<time>2015-04-26T12:51:09Z</time>
</trkpt>
<trkpt lat="35.1699260" lon="32.5819018">
<ele>83.05</ele>
<time>2015-04-26T12:51:11Z</time>
</trkpt>
<trkpt lat="35.1698729" lon="32.5818680">
<ele>83.82</ele>
<time>2015-04-26T12:51:14Z</time>
</trkpt>
<trkpt lat="35.1698222" lon="32.5818378">
<ele>85.29</ele>
<time>2015-04-26T12:51:17Z</time>
</trkpt>
<trkpt lat="35.1697748" lon="32.5818240">
<ele>85.51</ele>
<time>2015-04-26T12:51:21Z</time>
</trkpt>
<trkpt lat="35.1697221" lon="32.5818067">
<ele>85.90</ele>
<time>2015-04-26T12:51:25Z</time>
</trkpt>
<trkpt lat="35.1696688" lon="32.5817864">
<ele>87.24</ele>
<time>2015-04-26T12:51:29Z</time>
</trkpt>
<trkpt lat="35.1696248" lon="32.5817606">
<ele>87.92</ele>
<time>2015-04-26T12:51:39Z</time>
</trkpt>
<trkpt lat="35.1695816" lon="32.5817404">
<ele>89.77</ele>
<time>2015-04-26T12:51:46Z</time>
</trkpt>
<trkpt lat="35.1695369" lon="32.5817225">
<ele>90.85</ele>
<time>2015-04-26T12:51:55Z</time>
</trkpt>
<trkpt lat="35.1694926" lon="32.5816975">
<ele>91.91</ele>
<time>2015-04-26T12:52:01Z</time>
</trkpt>
<trkpt lat="35.1694488" lon="32.5816642">
<ele>92.42</ele>
<time>2015-04-26T12:52:08Z</time>
</trkpt>
<trkpt lat="35.1694076" lon="32.5816339">
<ele>92.95</ele>
<time>2015-04-26T12:52:14Z</time>
</trkpt>
<trkpt lat="35.1693689" lon="32.5816023">
<ele>93.83</ele>
<time>2015-04-26T12:52:20Z</time>
</trkpt>
<trkpt lat="35.1693239" lon="32.5815733">
<ele>94.17</ele>
<time>2015-04-26T12:52:26Z</time>
</trkpt>
<trkpt lat="35.1692784" lon="32.5815560">
<ele>94.15</ele>
<time>2015-04-26T12:52:31Z</time>
</trkpt>
<trkpt lat="35.1692296" lon="32.5815446">
<ele>92.96</ele>
<time>2015-04-26T12:52:36Z</time>
</trkpt>
<trkpt lat="35.1691801" lon="32.5815356">
<ele>94.39</ele>
<time>2015-04-26T12:52:41Z</time>
</trkpt>
<trkpt lat="35.1691313" lon="32.5815265">
<ele>96.60</ele>
<time>2015-04-26T12:52:47Z</time>
</trkpt>
<trkpt lat="35.1690850" lon="32.5815161">
<ele>98.48</ele>
<time>2015-04-26T12:52:54Z</time>
</trkpt>
<trkpt lat="35.1690387" lon="32.5814999">
<ele>98.68</ele>
<time>2015-04-26T12:53:02Z</time>
</trkpt>
<trkpt lat="35.1689942" lon="32.5815156">
<ele>99.92</ele>
<time>2015-04-26T12:53:12Z</time>
</trkpt>
<trkpt lat="35.1689453" lon="32.5815256">
<ele>100.49</ele>
<time>2015-04-26T12:53:22Z</time>
</trkpt>
<trkpt lat="35.1689005" lon="32.5815393">
<ele>100.92</ele>
<time>2015-04-26T12:53:34Z</time>
</trkpt>
<trkpt lat="35.1688530" lon="32.5815428">
<ele>100.36</ele>
<time>2015-04-26T12:53:41Z</time>
</trkpt>
<trkpt lat="35.1688039" lon="32.5815300">
<ele>101.60</ele>
<time>2015-04-26T12:53:47Z</time>
</trkpt>
<trkpt lat="35.1687669" lon="32.5814910">
<ele>98.93</ele>
<time>2015-04-26T12:54:54Z</time>
</trkpt>
<trkpt lat="35.1687448" lon="32.5814412">
<ele>103.09</ele>
<time>2015-04-26T12:55:08Z</time>
</trkpt>
<trkpt lat="35.1687469" lon="32.5813804">
<ele>105.20</ele>
<time>2015-04-26T12:55:18Z</time>
</trkpt>
<trkpt lat="35.1687699" lon="32.5813268">
<ele>107.38</ele>
<time>2015-04-26T12:55:24Z</time>
</trkpt>
<trkpt lat="35.1688107" lon="32.5812978">
<ele>107.72</ele>
<time>2015-04-26T12:55:29Z</time>
</trkpt>
<trkpt lat="35.1688594" lon="32.5812747">
<ele>108.73</ele>
<time>2015-04-26T12:55:34Z</time>
</trkpt>
<trkpt lat="35.1688998" lon="32.5812504">
<ele>109.85</ele>
<time>2015-04-26T12:55:38Z</time>
</trkpt>
<trkpt lat="35.1689440" lon="32.5812310">
<ele>110.80</ele>
<time>2015-04-26T12:55:42Z</time>
</trkpt>
<trkpt lat="35.1689790" lon="32.5811898">
<ele>109.93</ele>
<time>2015-04-26T12:55:53Z</time>
</trkpt>
<trkpt lat="35.1690227" lon="32.5811630">
<ele>110.68</ele>
<time>2015-04-26T12:55:57Z</time>
</trkpt>
<trkpt lat="35.1690665" lon="32.5811323">
<ele>110.89</ele>
<time>2015-04-26T12:56:00Z</time>
</trkpt>
<trkpt lat="35.1691044" lon="32.5811018">
<ele>110.92</ele>
<time>2015-04-26T12:56:03Z</time>
</trkpt>
<trkpt lat="35.1691518" lon="32.5810619">
<ele>111.42</ele>
<time>2015-04-26T12:56:07Z</time>
</trkpt>
<trkpt lat="35.1691963" lon="32.5810202">
<ele>111.89</ele>
<time>2015-04-26T12:56:11Z</time>
</trkpt>
<trkpt lat="35.1692382" lon="32.5809848">
<ele>112.42</ele>
<time>2015-04-26T12:56:14Z</time>
</trkpt>
<trkpt lat="35.1692793" lon="32.5809514">
<ele>112.86</ele>
<time>2015-04-26T12:56:17Z</time>
</trkpt>
<trkpt lat="35.1693252" lon="32.5809237">
<ele>113.42</ele>
<time>2015-04-26T12:56:20Z</time>
</trkpt>
<trkpt lat="35.1693756" lon="32.5808932">
<ele>113.86</ele>
<time>2015-04-26T12:56:23Z</time>
</trkpt>
<trkpt lat="35.1694216" lon="32.5808658">
<ele>113.92</ele>
<time>2015-04-26T12:56:26Z</time>
</trkpt>
<trkpt lat="35.1694719" lon="32.5808405">
<ele>113.67</ele>
<time>2015-04-26T12:56:29Z</time>
</trkpt>
<trkpt lat="35.1695162" lon="32.5808182">
<ele>113.89</ele>
<time>2015-04-26T12:56:32Z</time>
</trkpt>
<trkpt lat="35.1695733" lon="32.5807922">
<ele>114.67</ele>
<time>2015-04-26T12:56:36Z</time>
</trkpt>
<trkpt lat="35.1696253" lon="32.5807574">
<ele>113.64</ele>
<time>2015-04-26T12:56:39Z</time>
</trkpt>
<trkpt lat="35.1696743" lon="32.5807165">
<ele>113.60</ele>
<time>2015-04-26T12:56:41Z</time>
</trkpt>
<trkpt lat="35.1697111" lon="32.5806664">
<ele>113.84</ele>
<time>2015-04-26T12:56:43Z</time>
</trkpt>
<trkpt lat="35.1697358" lon="32.5806137">
<ele>114.65</ele>
<time>2015-04-26T12:56:45Z</time>
</trkpt>
<trkpt lat="35.1697553" lon="32.5805613">
<ele>114.86</ele>
<time>2015-04-26T12:56:47Z</time>
</trkpt>
<trkpt lat="35.1697700" lon="32.5805072">
<ele>115.41</ele>
<time>2015-04-26T12:56:49Z</time>
</trkpt>
<trkpt lat="35.1697823" lon="32.5804528">
<ele>117.05</ele>
<time>2015-04-26T12:56:51Z</time>
</trkpt>
<trkpt lat="35.1697888" lon="32.5803982">
<ele>117.71</ele>
<time>2015-04-26T12:56:53Z</time>
</trkpt>
<trkpt lat="35.1697932" lon="32.5803426">
<ele>117.62</ele>
<time>2015-04-26T12:56:55Z</time>
</trkpt>
<trkpt lat="35.1697974" lon="32.5802828">
<ele>117.60</ele>
<time>2015-04-26T12:56:57Z</time>
</trkpt>
<trkpt lat="35.1697978" lon="32.5802257">
<ele>117.84</ele>
<time>2015-04-26T12:56:59Z</time>
</trkpt>
<trkpt lat="35.1697930" lon="32.5801463">
<ele>117.91</ele>
<time>2015-04-26T12:57:02Z</time>
</trkpt>
<trkpt lat="35.1697856" lon="32.5800662">
<ele>117.92</ele>
<time>2015-04-26T12:57:05Z</time>
</trkpt>
<trkpt lat="35.1697694" lon="32.5799918">
<ele>117.92</ele>
<time>2015-04-26T12:57:08Z</time>
</trkpt>
<trkpt lat="35.1697478" lon="32.5799187">
<ele>118.80</ele>
<time>2015-04-26T12:57:11Z</time>
</trkpt>
<trkpt lat="35.1697267" lon="32.5798699">
<ele>118.89</ele>
<time>2015-04-26T12:57:13Z</time>
</trkpt>
<trkpt lat="35.1696933" lon="32.5798116">
<ele>118.05</ele>
<time>2015-04-26T12:57:16Z</time>
</trkpt>
<trkpt lat="35.1696638" lon="32.5797498">
<ele>118.93</ele>
<time>2015-04-26T12:58:30Z</time>
</trkpt>
<trkpt lat="35.1696294" lon="32.5797129">
<ele>118.05</ele>
<time>2015-04-26T12:58:33Z</time>
</trkpt>
<trkpt lat="35.1695828" lon="32.5796649">
<ele>118.07</ele>
<time>2015-04-26T12:58:36Z</time>
</trkpt>
<trkpt lat="35.1695289" lon="32.5796165">
<ele>118.82</ele>
<time>2015-04-26T12:58:39Z</time>
</trkpt>
<trkpt lat="35.1694854" lon="32.5795797">
<ele>118.90</ele>
<time>2015-04-26T12:58:41Z</time>
</trkpt>
<trkpt lat="35.1694413" lon="32.5795432">
<ele>119.67</ele>
<time>2015-04-26T12:58:43Z</time>
</trkpt>
<trkpt lat="35.1694031" lon="32.5795118">
<ele>119.86</ele>
<time>2015-04-26T12:58:45Z</time>
</trkpt>
<trkpt lat="35.1693518" lon="32.5794638">
<ele>119.92</ele>
<time>2015-04-26T12:58:48Z</time>
</trkpt>
<trkpt lat="35.1693151" lon="32.5794288">
<ele>119.92</ele>
<time>2015-04-26T12:58:50Z</time>
</trkpt>
<trkpt lat="35.1692768" lon="32.5793933">
<ele>119.42</ele>
<time>2015-04-26T12:58:52Z</time>
</trkpt>
<trkpt lat="35.1692388" lon="32.5793601">
<ele>119.05</ele>
<time>2015-04-26T12:58:54Z</time>
</trkpt>
<trkpt lat="35.1691877" lon="32.5793157">
<ele>118.32</ele>
<time>2015-04-26T12:58:57Z</time>
</trkpt>
<trkpt lat="35.1691332" lon="32.5792757">
<ele>118.85</ele>
<time>2015-04-26T12:59:00Z</time>
</trkpt>
<trkpt lat="35.1690733" lon="32.5792402">
<ele>118.54</ele>
<time>2015-04-26T12:59:03Z</time>
</trkpt>
<trkpt lat="35.1690210" lon="32.5792193">
<ele>118.83</ele>
<time>2015-04-26T12:59:05Z</time>
</trkpt>
<trkpt lat="35.1689667" lon="32.5792053">
<ele>119.15</ele>
<time>2015-04-26T12:59:07Z</time>
</trkpt>
<trkpt lat="35.1689153" lon="32.5791856">
<ele>119.73</ele>
<time>2015-04-26T12:59:09Z</time>
</trkpt>
<trkpt lat="35.1688680" lon="32.5791471">
<ele>120.63</ele>
<time>2015-04-26T12:59:11Z</time>
</trkpt>
<trkpt lat="35.1688371" lon="32.5790969">
<ele>122.10</ele>
<time>2015-04-26T12:59:13Z</time>
</trkpt>
<trkpt lat="35.1688252" lon="32.5790396">
<ele>122.82</ele>
<time>2015-04-26T12:59:16Z</time>
</trkpt>
<trkpt lat="35.1688184" lon="32.5789847">
<ele>123.79</ele>
<time>2015-04-26T12:59:19Z</time>
</trkpt>
<trkpt lat="35.1688052" lon="32.5789136">
<ele>124.42</ele>
<time>2015-04-26T12:59:23Z</time>
</trkpt>
<trkpt lat="35.1687784" lon="32.5788501">
<ele>125.64</ele>
<time>2015-04-26T12:59:27Z</time>
</trkpt>
<trkpt lat="35.1687365" lon="32.5788035">
<ele>126.78</ele>
<time>2015-04-26T12:59:31Z</time>
</trkpt>
<trkpt lat="35.1686967" lon="32.5787627">
<ele>128.66</ele>
<time>2015-04-26T12:59:42Z</time>
</trkpt>
<trkpt lat="35.1686668" lon="32.5787208">
<ele>129.91</ele>
<time>2015-04-26T12:59:48Z</time>
</trkpt>
<trkpt lat="35.1686240" lon="32.5786975">
<ele>129.64</ele>
<time>2015-04-26T12:59:55Z</time>
</trkpt>
<trkpt lat="35.1685915" lon="32.5786579">
<ele>130.91</ele>
<time>2015-04-26T13:00:02Z</time>
</trkpt>
<trkpt lat="35.1685595" lon="32.5786118">
<ele>131.68</ele>
<time>2015-04-26T13:00:14Z</time>
</trkpt>
<trkpt lat="35.1685256" lon="32.5785747">
<ele>131.92</ele>
<time>2015-04-26T13:00:19Z</time>
</trkpt>
<trkpt lat="35.1684893" lon="32.5785358">
<ele>133.14</ele>
<time>2015-04-26T13:00:24Z</time>
</trkpt>
<trkpt lat="35.1684576" lon="32.5784963">
<ele>134.53</ele>
<time>2015-04-26T13:00:29Z</time>
</trkpt>
<trkpt lat="35.1684221" lon="32.5784534">
<ele>135.85</ele>
<time>2015-04-26T13:00:34Z</time>
</trkpt>
<trkpt lat="35.1683835" lon="32.5784172">
<ele>136.67</ele>
<time>2015-04-26T13:00:39Z</time>
</trkpt>
<trkpt lat="35.1683465" lon="32.5783821">
<ele>136.92</ele>
<time>2015-04-26T13:00:45Z</time>
</trkpt>
<trkpt lat="35.1683248" lon="32.5783294">
<ele>137.80</ele>
<time>2015-04-26T13:00:52Z</time>
</trkpt>
<trkpt lat="35.1683080" lon="32.5782716">
<ele>138.17</ele>
<time>2015-04-26T13:00:58Z</time>
</trkpt>
<trkpt lat="35.1683032" lon="32.5782156">
<ele>137.93</ele>
<time>2015-04-26T13:01:03Z</time>
</trkpt>
<trkpt lat="35.1683060" lon="32.5781600">
<ele>137.93</ele>
<time>2015-04-26T13:01:08Z</time>
</trkpt>
<trkpt lat="35.1683173" lon="32.5780993">
<ele>137.93</ele>
<time>2015-04-26T13:01:13Z</time>
</trkpt>
<trkpt lat="35.1683147" lon="32.5780347">
<ele>137.99</ele>
<time>2015-04-26T13:01:18Z</time>
</trkpt>
<trkpt lat="35.1682997" lon="32.5779690">
<ele>138.74</ele>
<time>2015-04-26T13:01:23Z</time>
</trkpt>
<trkpt lat="35.1682668" lon="32.5779182">
<ele>139.64</ele>
<time>2015-04-26T13:01:28Z</time>
</trkpt>
<trkpt lat="35.1682330" lon="32.5778727">
<ele>139.42</ele>
<time>2015-04-26T13:01:33Z</time>
</trkpt>
<trkpt lat="35.1681900" lon="32.5778333">
<ele>138.93</ele>
<time>2015-04-26T13:01:40Z</time>
</trkpt>
<trkpt lat="35.1681447" lon="32.5777934">
<ele>139.86</ele>
<time>2015-04-26T13:01:44Z</time>
</trkpt>
<trkpt lat="35.1680870" lon="32.5777800">
<ele>139.92</ele>
<time>2015-04-26T13:01:48Z</time>
</trkpt>
<trkpt lat="35.1680359" lon="32.5777638">
<ele>140.80</ele>
<time>2015-04-26T13:01:52Z</time>
</trkpt>
<trkpt lat="35.1679876" lon="32.5777525">
<ele>141.85</ele>
<time>2015-04-26T13:01:56Z</time>
</trkpt>
<trkpt lat="35.1679424" lon="32.5777393">
<ele>143.36</ele>
<time>2015-04-26T13:02:00Z</time>
</trkpt>
<trkpt lat="35.1678936" lon="32.5777077">
<ele>144.01</ele>
<time>2015-04-26T13:02:04Z</time>
</trkpt>
<trkpt lat="35.1678449" lon="32.5776872">
<ele>144.87</ele>
<time>2015-04-26T13:02:08Z</time>
</trkpt>
<trkpt lat="35.1677908" lon="32.5776691">
<ele>145.80</ele>
<time>2015-04-26T13:02:12Z</time>
</trkpt>
<trkpt lat="35.1677430" lon="32.5776369">
<ele>146.79</ele>
<time>2015-04-26T13:02:16Z</time>
</trkpt>
<trkpt lat="35.1677013" lon="32.5775906">
<ele>147.42</ele>
<time>2015-04-26T13:02:20Z</time>
</trkpt>
<trkpt lat="35.1676727" lon="32.5775478">
<ele>149.91</ele>
<time>2015-04-26T13:02:40Z</time>
</trkpt>
<trkpt lat="35.1676909" lon="32.5774943">
<ele>151.68</ele>
<time>2015-04-26T13:02:56Z</time>
</trkpt>
<trkpt lat="35.1677177" lon="32.5774489">
<ele>152.83</ele>
<time>2015-04-26T13:03:04Z</time>
</trkpt>
<trkpt lat="35.1677454" lon="32.5774038">
<ele>152.92</ele>
<time>2015-04-26T13:03:13Z</time>
</trkpt>
<trkpt lat="35.1677745" lon="32.5773591">
<ele>153.97</ele>
<time>2015-04-26T13:03:23Z</time>
</trkpt>
<trkpt lat="35.1678207" lon="32.5773285">
<ele>156.61</ele>
<time>2015-04-26T13:03:30Z</time>
</trkpt>
<trkpt lat="35.1678552" lon="32.5772902">
<ele>158.88</ele>
<time>2015-04-26T13:03:37Z</time>
</trkpt>
<trkpt lat="35.1678987" lon="32.5772609">
<ele>162.71</ele>
<time>2015-04-26T13:03:45Z</time>
</trkpt>
<trkpt lat="35.1679323" lon="32.5772162">
<ele>162.74</ele>
<time>2015-04-26T13:03:54Z</time>
</trkpt>
<trkpt lat="35.1679645" lon="32.5771643">
<ele>162.91</ele>
<time>2015-04-26T13:04:02Z</time>
</trkpt>
<trkpt lat="35.1680005" lon="32.5771215">
<ele>163.24</ele>
<time>2015-04-26T13:04:08Z</time>
</trkpt>
<trkpt lat="35.1680397" lon="32.5770818">
<ele>163.88</ele>
<time>2015-04-26T13:04:14Z</time>
</trkpt>
<trkpt lat="35.1680715" lon="32.5770413">
<ele>161.31</ele>
<time>2015-04-26T13:04:20Z</time>
</trkpt>
<trkpt lat="35.1681058" lon="32.5770007">
<ele>160.90</ele>
<time>2015-04-26T13:04:26Z</time>
</trkpt>
<trkpt lat="35.1681420" lon="32.5769628">
<ele>161.74</ele>
<time>2015-04-26T13:04:32Z</time>
</trkpt>
<trkpt lat="35.1681768" lon="32.5769168">
<ele>161.92</ele>
<time>2015-04-26T13:04:39Z</time>
</trkpt>
<trkpt lat="35.1682063" lon="32.5768710">
<ele>162.89</ele>
<time>2015-04-26T13:04:45Z</time>
</trkpt>
<trkpt lat="35.1682064" lon="32.5768070">
<ele>163.52</ele>
<time>2015-04-26T13:04:51Z</time>
</trkpt>
<trkpt lat="35.1682087" lon="32.5767462">
<ele>165.17</ele>
<time>2015-04-26T13:14:06Z</time>
</trkpt>
<trkpt lat="35.1681933" lon="32.5766931">
<ele>164.71</ele>
<time>2015-04-26T13:14:11Z</time>
</trkpt>
<trkpt lat="35.1681756" lon="32.5766254">
<ele>164.29</ele>
<time>2015-04-26T13:14:16Z</time>
</trkpt>
<trkpt lat="35.1681553" lon="32.5765693">
<ele>163.26</ele>
<time>2015-04-26T13:14:20Z</time>
</trkpt>
<trkpt lat="35.1681391" lon="32.5765130">
<ele>163.88</ele>
<time>2015-04-26T13:14:24Z</time>
</trkpt>
<trkpt lat="35.1681178" lon="32.5764509">
<ele>164.29</ele>
<time>2015-04-26T13:14:27Z</time>
</trkpt>
<trkpt lat="35.1680813" lon="32.5763862">
<ele>162.77</ele>
<time>2015-04-26T13:14:29Z</time>
</trkpt>
<trkpt lat="35.1680329" lon="32.5763025">
<ele>162.14</ele>
<time>2015-04-26T13:14:31Z</time>
</trkpt>
<trkpt lat="35.1679832" lon="32.5762173">
<ele>161.48</ele>
<time>2015-04-26T13:14:33Z</time>
</trkpt>
<trkpt lat="35.1679423" lon="32.5761329">
<ele>161.06</ele>
<time>2015-04-26T13:14:35Z</time>
</trkpt>
<trkpt lat="35.1679147" lon="32.5760468">
<ele>161.46</ele>
<time>2015-04-26T13:14:37Z</time>
</trkpt>
<trkpt lat="35.1678862" lon="32.5759668">
<ele>161.31</ele>
<time>2015-04-26T13:14:39Z</time>
</trkpt>
<trkpt lat="35.1678568" lon="32.5758886">
<ele>160.52</ele>
<time>2015-04-26T13:14:41Z</time>
</trkpt>
<trkpt lat="35.1678213" lon="32.5758093">
<ele>159.82</ele>
<time>2015-04-26T13:14:43Z</time>
</trkpt>
<trkpt lat="35.1677804" lon="32.5757254">
<ele>159.90</ele>
<time>2015-04-26T13:14:45Z</time>
</trkpt>
<trkpt lat="35.1677655" lon="32.5756461">
<ele>159.91</ele>
<time>2015-04-26T13:14:46Z</time>
</trkpt>
<trkpt lat="35.1677587" lon="32.5755877">
<ele>159.92</ele>
<time>2015-04-26T13:14:47Z</time>
</trkpt>
<trkpt lat="35.1677702" lon="32.5755289">
<ele>160.42</ele>
<time>2015-04-26T13:14:48Z</time>
</trkpt>
<trkpt lat="35.1677970" lon="32.5754314">
<ele>159.55</ele>
<time>2015-04-26T13:14:50Z</time>
</trkpt>
<trkpt lat="35.1678263" lon="32.5753452">
<ele>159.08</ele>
<time>2015-04-26T13:14:52Z</time>
</trkpt>
<trkpt lat="35.1678558" lon="32.5752698">
<ele>158.46</ele>
<time>2015-04-26T13:14:54Z</time>
</trkpt>
<trkpt lat="35.1678830" lon="32.5751846">
<ele>157.56</ele>
<time>2015-04-26T13:14:56Z</time>
</trkpt>
<trkpt lat="35.1678977" lon="32.5751112">
<ele>156.08</ele>
<time>2015-04-26T13:14:58Z</time>
</trkpt>
<trkpt lat="35.1678965" lon="32.5750367">
<ele>155.21</ele>
<time>2015-04-26T13:15:00Z</time>
</trkpt>
<trkpt lat="35.1678832" lon="32.5749599">
<ele>154.50</ele>
<time>2015-04-26T13:15:02Z</time>
</trkpt>
<trkpt lat="35.1678610" lon="32.5748839">
<ele>154.07</ele>
<time>2015-04-26T13:15:04Z</time>
</trkpt>
<trkpt lat="35.1678419" lon="32.5747934">
<ele>152.46</ele>
<time>2015-04-26T13:15:06Z</time>
</trkpt>
<trkpt lat="35.1678586" lon="32.5747073">
<ele>151.31</ele>
<time>2015-04-26T13:15:08Z</time>
</trkpt>
<trkpt lat="35.1679032" lon="32.5746278">
<ele>149.02</ele>
<time>2015-04-26T13:15:10Z</time>
</trkpt>
<trkpt lat="35.1679488" lon="32.5745558">
<ele>146.95</ele>
<time>2015-04-26T13:15:12Z</time>
</trkpt>
<trkpt lat="35.1679853" lon="32.5744624">
<ele>144.93</ele>
<time>2015-04-26T13:15:14Z</time>
</trkpt>
<trkpt lat="35.1679902" lon="32.5742939">
<ele>143.43</ele>
<time>2015-04-26T13:15:16Z</time>
</trkpt>
<trkpt lat="35.1679753" lon="32.5742338">
<ele>142.68</ele>
<time>2015-04-26T13:15:17Z</time>
</trkpt>
<trkpt lat="35.1679607" lon="32.5741713">
<ele>142.80</ele>
<time>2015-04-26T13:15:18Z</time>
</trkpt>
<trkpt lat="35.1679571" lon="32.5741163">
<ele>142.36</ele>
<time>2015-04-26T13:15:19Z</time>
</trkpt>
<trkpt lat="35.1679347" lon="32.5740136">
<ele>143.28</ele>
<time>2015-04-26T13:15:21Z</time>
</trkpt>
<trkpt lat="35.1679335" lon="32.5738988">
<ele>143.76</ele>
<time>2015-04-26T13:15:23Z</time>
</trkpt>
<trkpt lat="35.1679145" lon="32.5737914">
<ele>143.88</ele>
<time>2015-04-26T13:15:25Z</time>
</trkpt>
<trkpt lat="35.1678924" lon="32.5737368">
<ele>143.40</ele>
<time>2015-04-26T13:15:26Z</time>
</trkpt>
<trkpt lat="35.1678816" lon="32.5736816">
<ele>142.66</ele>
<time>2015-04-26T13:15:27Z</time>
</trkpt>
<trkpt lat="35.1678623" lon="32.5736257">
<ele>142.29</ele>
<time>2015-04-26T13:15:28Z</time>
</trkpt>
<trkpt lat="35.1678324" lon="32.5735692">
<ele>142.11</ele>
<time>2015-04-26T13:15:29Z</time>
</trkpt>
<trkpt lat="35.1678028" lon="32.5735074">
<ele>142.02</ele>
<time>2015-04-26T13:15:30Z</time>
</trkpt>
<trkpt lat="35.1677741" lon="32.5734427">
<ele>141.97</ele>
<time>2015-04-26T13:15:31Z</time>
</trkpt>
<trkpt lat="35.1677485" lon="32.5733732">
<ele>141.95</ele>
<time>2015-04-26T13:15:32Z</time>
</trkpt>
<trkpt lat="35.1677154" lon="32.5733116">
<ele>141.94</ele>
<time>2015-04-26T13:15:33Z</time>
</trkpt>
<trkpt lat="35.1676856" lon="32.5732603">
<ele>141.93</ele>
<time>2015-04-26T13:15:34Z</time>
</trkpt>
<trkpt lat="35.1676667" lon="32.5731993">
<ele>141.43</ele>
<time>2015-04-26T13:15:35Z</time>
</trkpt>
<trkpt lat="35.1676548" lon="32.5731372">
<ele>141.18</ele>
<time>2015-04-26T13:15:36Z</time>
</trkpt>
<trkpt lat="35.1676453" lon="32.5730797">
<ele>141.55</ele>
<time>2015-04-26T13:15:37Z</time>
</trkpt>
<trkpt lat="35.1676500" lon="32.5730212">
<ele>141.74</ele>
<time>2015-04-26T13:15:38Z</time>
</trkpt>
<trkpt lat="35.1676462" lon="32.5729648">
<ele>141.33</ele>
<time>2015-04-26T13:15:39Z</time>
</trkpt>
<trkpt lat="35.1676340" lon="32.5729074">
<ele>141.13</ele>
<time>2015-04-26T13:15:40Z</time>
</trkpt>
<trkpt lat="35.1676013" lon="32.5728089">
<ele>141.48</ele>
<time>2015-04-26T13:15:42Z</time>
</trkpt>
<trkpt lat="35.1675768" lon="32.5727137">
<ele>141.81</ele>
<time>2015-04-26T13:15:44Z</time>
</trkpt>
<trkpt lat="35.1675652" lon="32.5726509">
<ele>140.65</ele>
<time>2015-04-26T13:15:46Z</time>
</trkpt>
<trkpt lat="35.1675610" lon="32.5725718">
<ele>140.02</ele>
<time>2015-04-26T13:15:49Z</time>
</trkpt>
<trkpt lat="35.1675692" lon="32.5725065">
<ele>137.56</ele>
<time>2015-04-26T13:15:52Z</time>
</trkpt>
<trkpt lat="35.1675670" lon="32.5724471">
<ele>137.50</ele>
<time>2015-04-26T13:15:55Z</time>
</trkpt>
<trkpt lat="35.1675591" lon="32.5723884">
<ele>137.07</ele>
<time>2015-04-26T13:15:57Z</time>
</trkpt>
<trkpt lat="35.1675447" lon="32.5723200">
<ele>136.96</ele>
<time>2015-04-26T13:15:59Z</time>
</trkpt>
<trkpt lat="35.1675275" lon="32.5722536">
<ele>136.93</ele>
<time>2015-04-26T13:16:01Z</time>
</trkpt>
<trkpt lat="35.1675144" lon="32.5721861">
<ele>136.18</ele>
<time>2015-04-26T13:16:03Z</time>
</trkpt>
<trkpt lat="35.1674982" lon="32.5721174">
<ele>135.99</ele>
<time>2015-04-26T13:16:05Z</time>
</trkpt>
<trkpt lat="35.1674781" lon="32.5720414">
<ele>135.94</ele>
<time>2015-04-26T13:16:07Z</time>
</trkpt>
<trkpt lat="35.1674610" lon="32.5719594">
<ele>135.18</ele>
<time>2015-04-26T13:16:09Z</time>
</trkpt>
<trkpt lat="35.1674451" lon="32.5718719">
<ele>134.99</ele>
<time>2015-04-26T13:16:11Z</time>
</trkpt>
<trkpt lat="35.1674356" lon="32.5718177">
<ele>134.96</ele>
<time>2015-04-26T13:16:12Z</time>
</trkpt>
<trkpt lat="35.1674262" lon="32.5717637">
<ele>134.44</ele>
<time>2015-04-26T13:16:13Z</time>
</trkpt>
<trkpt lat="35.1674179" lon="32.5717094">
<ele>134.18</ele>
<time>2015-04-26T13:16:14Z</time>
</trkpt>
<trkpt lat="35.1674020" lon="32.5716078">
<ele>134.49</ele>
<time>2015-04-26T13:16:16Z</time>
</trkpt>
<trkpt lat="35.1673859" lon="32.5715134">
<ele>134.07</ele>
<time>2015-04-26T13:16:18Z</time>
</trkpt>
<trkpt lat="35.1673687" lon="32.5714170">
<ele>133.96</ele>
<time>2015-04-26T13:16:20Z</time>
</trkpt>
<trkpt lat="35.1673605" lon="32.5713506">
<ele>133.94</ele>
<time>2015-04-26T13:16:21Z</time>
</trkpt>
<trkpt lat="35.1673502" lon="32.5712860">
<ele>133.43</ele>
<time>2015-04-26T13:16:22Z</time>
</trkpt>
<trkpt lat="35.1673395" lon="32.5712203">
<ele>132.68</ele>
<time>2015-04-26T13:16:23Z</time>
</trkpt>
<trkpt lat="35.1673304" lon="32.5711589">
<ele>132.30</ele>
<time>2015-04-26T13:16:24Z</time>
</trkpt>
<trkpt lat="35.1673182" lon="32.5710967">
<ele>132.11</ele>
<time>2015-04-26T13:16:25Z</time>
</trkpt>
<trkpt lat="35.1673037" lon="32.5710354">
<ele>132.02</ele>
<time>2015-04-26T13:16:26Z</time>
</trkpt>
<trkpt lat="35.1672947" lon="32.5709714">
<ele>131.47</ele>
<time>2015-04-26T13:16:27Z</time>
</trkpt>
<trkpt lat="35.1672872" lon="32.5709140">
<ele>131.20</ele>
<time>2015-04-26T13:16:28Z</time>
</trkpt>
<trkpt lat="35.1672767" lon="32.5708459">
<ele>130.56</ele>
<time>2015-04-26T13:16:29Z</time>
</trkpt>
<trkpt lat="35.1672573" lon="32.5707754">
<ele>129.74</ele>
<time>2015-04-26T13:16:30Z</time>
</trkpt>
<trkpt lat="35.1672318" lon="32.5707170">
<ele>128.83</ele>
<time>2015-04-26T13:16:31Z</time>
</trkpt>
<trkpt lat="35.1672027" lon="32.5706549">
<ele>127.88</ele>
<time>2015-04-26T13:16:32Z</time>
</trkpt>
<trkpt lat="35.1671842" lon="32.5705943">
<ele>127.90</ele>
<time>2015-04-26T13:16:33Z</time>
</trkpt>
<trkpt lat="35.1671737" lon="32.5705337">
<ele>127.41</ele>
<time>2015-04-26T13:16:34Z</time>
</trkpt>
<trkpt lat="35.1671629" lon="32.5704644">
<ele>126.67</ele>
<time>2015-04-26T13:16:35Z</time>
</trkpt>
<trkpt lat="35.1671479" lon="32.5703934">
<ele>125.80</ele>
<time>2015-04-26T13:16:36Z</time>
</trkpt>
<trkpt lat="35.1671349" lon="32.5703230">
<ele>124.86</ele>
<time>2015-04-26T13:16:37Z</time>
</trkpt>
<trkpt lat="35.1671165" lon="32.5702601">
<ele>124.39</ele>
<time>2015-04-26T13:16:38Z</time>
</trkpt>
<trkpt lat="35.1671043" lon="32.5702037">
<ele>123.66</ele>
<time>2015-04-26T13:16:39Z</time>
</trkpt>
<trkpt lat="35.1670964" lon="32.5701359">
<ele>122.79</ele>
<time>2015-04-26T13:16:40Z</time>
</trkpt>
<trkpt lat="35.1670840" lon="32.5700738">
<ele>122.36</ele>
<time>2015-04-26T13:16:41Z</time>
</trkpt>
<trkpt lat="35.1670788" lon="32.5700051">
<ele>121.64</ele>
<time>2015-04-26T13:16:42Z</time>
</trkpt>
<trkpt lat="35.1670736" lon="32.5699335">
<ele>120.78</ele>
<time>2015-04-26T13:16:43Z</time>
</trkpt>
<trkpt lat="35.1670644" lon="32.5698588">
<ele>119.85</ele>
<time>2015-04-26T13:16:44Z</time>
</trkpt>
<trkpt lat="35.1670526" lon="32.5697706">
<ele>118.89</ele>
<time>2015-04-26T13:16:45Z</time>
</trkpt>
<trkpt lat="35.1670377" lon="32.5696787">
<ele>117.91</ele>
<time>2015-04-26T13:16:46Z</time>
</trkpt>
<trkpt lat="35.1670159" lon="32.5695819">
<ele>116.92</ele>
<time>2015-04-26T13:16:47Z</time>
</trkpt>
<trkpt lat="35.1669949" lon="32.5694948">
<ele>116.42</ele>
<time>2015-04-26T13:16:48Z</time>
</trkpt>
<trkpt lat="35.1669743" lon="32.5694018">
<ele>115.67</ele>
<time>2015-04-26T13:16:49Z</time>
</trkpt>
<trkpt lat="35.1669569" lon="32.5693208">
<ele>115.30</ele>
<time>2015-04-26T13:16:50Z</time>
</trkpt>
<trkpt lat="35.1669385" lon="32.5692353">
<ele>114.61</ele>
<time>2015-04-26T13:16:51Z</time>
</trkpt>
<trkpt lat="35.1669220" lon="32.5691593">
<ele>114.27</ele>
<time>2015-04-26T13:16:52Z</time>
</trkpt>
<trkpt lat="35.1669122" lon="32.5690852">
<ele>113.60</ele>
<time>2015-04-26T13:16:53Z</time>
</trkpt>
<trkpt lat="35.1668974" lon="32.5690176">
<ele>112.76</ele>
<time>2015-04-26T13:16:54Z</time>
</trkpt>
<trkpt lat="35.1668855" lon="32.5689504">
<ele>111.84</ele>
<time>2015-04-26T13:16:55Z</time>
</trkpt>
<trkpt lat="35.1668702" lon="32.5688934">
<ele>111.38</ele>
<time>2015-04-26T13:16:56Z</time>
</trkpt>
<trkpt lat="35.1668511" lon="32.5687986">
<ele>110.29</ele>
<time>2015-04-26T13:16:58Z</time>
</trkpt>
<trkpt lat="35.1668424" lon="32.5687268">
<ele>109.52</ele>
<time>2015-04-26T13:17:00Z</time>
</trkpt>
<trkpt lat="35.1668416" lon="32.5686709">
<ele>109.07</ele>
<time>2015-04-26T13:17:02Z</time>
</trkpt>
<trkpt lat="35.1668430" lon="32.5686113">
<ele>108.21</ele>
<time>2015-04-26T13:17:04Z</time>
</trkpt>
<trkpt lat="35.1668480" lon="32.5685516">
<ele>107.25</ele>
<time>2015-04-26T13:17:06Z</time>
</trkpt>
<trkpt lat="35.1668555" lon="32.5684740">
<ele>106.26</ele>
<time>2015-04-26T13:17:08Z</time>
</trkpt>
<trkpt lat="35.1668467" lon="32.5683685">
<ele>105.26</ele>
<time>2015-04-26T13:17:10Z</time>
</trkpt>
<trkpt lat="35.1668265" lon="32.5683001">
<ele>104.59</ele>
<time>2015-04-26T13:17:11Z</time>
</trkpt>
<trkpt lat="35.1668076" lon="32.5682442">
<ele>104.26</ele>
<time>2015-04-26T13:17:12Z</time>
</trkpt>
<trkpt lat="35.1667941" lon="32.5681871">
<ele>104.09</ele>
<time>2015-04-26T13:17:13Z</time>
</trkpt>
<trkpt lat="35.1667790" lon="32.5681279">
<ele>103.51</ele>
<time>2015-04-26T13:17:14Z</time>
</trkpt>
<trkpt lat="35.1667484" lon="32.5680362">
<ele>103.57</ele>
<time>2015-04-26T13:17:16Z</time>
</trkpt>
<trkpt lat="35.1667148" lon="32.5679508">
<ele>103.84</ele>
<time>2015-04-26T13:17:18Z</time>
</trkpt>
<trkpt lat="35.1666918" lon="32.5678687">
<ele>103.65</ele>
<time>2015-04-26T13:17:20Z</time>
</trkpt>
<trkpt lat="35.1666695" lon="32.5677984">
<ele>103.86</ele>
<time>2015-04-26T13:17:22Z</time>
</trkpt>
<trkpt lat="35.1666659" lon="32.5677250">
<ele>104.41</ele>
<time>2015-04-26T13:17:24Z</time>
</trkpt>
<trkpt lat="35.1666682" lon="32.5676536">
<ele>104.05</ele>
<time>2015-04-26T13:17:26Z</time>
</trkpt>
<trkpt lat="35.1666716" lon="32.5675763">
<ele>103.46</ele>
<time>2015-04-26T13:17:28Z</time>
</trkpt>
<trkpt lat="35.1666670" lon="32.5675000">
<ele>103.81</ele>
<time>2015-04-26T13:17:30Z</time>
</trkpt>
<trkpt lat="35.1666512" lon="32.5674288">
<ele>103.90</ele>
<time>2015-04-26T13:17:32Z</time>
</trkpt>
<trkpt lat="35.1666320" lon="32.5673518">
<ele>104.42</ele>
<time>2015-04-26T13:17:34Z</time>
</trkpt>
<trkpt lat="35.1666084" lon="32.5672535">
<ele>104.80</ele>
<time>2015-04-26T13:17:36Z</time>
</trkpt>
<trkpt lat="35.1665884" lon="32.5671545">
<ele>104.14</ele>
<time>2015-04-26T13:17:38Z</time>
</trkpt>
<trkpt lat="35.1665632" lon="32.5670564">
<ele>103.98</ele>
<time>2015-04-26T13:17:40Z</time>
</trkpt>
<trkpt lat="35.1665340" lon="32.5669642">
<ele>103.44</ele>
<time>2015-04-26T13:17:42Z</time>
</trkpt>
<trkpt lat="35.1665076" lon="32.5668921">
<ele>103.05</ele>
<time>2015-04-26T13:17:44Z</time>
</trkpt>
<trkpt lat="35.1664827" lon="32.5668381">
<ele>103.46</ele>
<time>2015-04-26T13:17:46Z</time>
</trkpt>
<trkpt lat="35.1664495" lon="32.5667950">
<ele>103.31</ele>
<time>2015-04-26T13:17:48Z</time>
</trkpt>
<trkpt lat="35.1664174" lon="32.5667526">
<ele>103.02</ele>
<time>2015-04-26T13:17:50Z</time>
</trkpt>
<trkpt lat="35.1663676" lon="32.5666976">
<ele>103.69</ele>
<time>2015-04-26T13:17:53Z</time>
</trkpt>
<trkpt lat="35.1663218" lon="32.5666529">
<ele>103.87</ele>
<time>2015-04-26T13:17:55Z</time>
</trkpt>
<trkpt lat="35.1662717" lon="32.5665830">
<ele>103.91</ele>
<time>2015-04-26T13:17:57Z</time>
</trkpt>
<trkpt lat="35.1662216" lon="32.5665077">
<ele>103.92</ele>
<time>2015-04-26T13:17:59Z</time>
</trkpt>
<trkpt lat="35.1661819" lon="32.5664274">
<ele>103.17</ele>
<time>2015-04-26T13:18:01Z</time>
</trkpt>
<trkpt lat="35.1661605" lon="32.5663388">
<ele>103.74</ele>
<time>2015-04-26T13:18:03Z</time>
</trkpt>
<trkpt lat="35.1661510" lon="32.5662475">
<ele>103.38</ele>
<time>2015-04-26T13:18:05Z</time>
</trkpt>
<trkpt lat="35.1661403" lon="32.5661561">
<ele>103.04</ele>
<time>2015-04-26T13:18:07Z</time>
</trkpt>
<trkpt lat="35.1661236" lon="32.5660631">
<ele>102.95</ele>
<time>2015-04-26T13:18:09Z</time>
</trkpt>
<trkpt lat="35.1661032" lon="32.5659683">
<ele>102.43</ele>
<time>2015-04-26T13:18:11Z</time>
</trkpt>
<trkpt lat="35.1660812" lon="32.5658747">
<ele>102.05</ele>
<time>2015-04-26T13:18:13Z</time>
</trkpt>
<trkpt lat="35.1660636" lon="32.5657822">
<ele>101.96</ele>
<time>2015-04-26T13:18:15Z</time>
</trkpt>
<trkpt lat="35.1660560" lon="32.5656905">
<ele>101.93</ele>
<time>2015-04-26T13:18:17Z</time>
</trkpt>
<trkpt lat="35.1660529" lon="32.5656158">
<ele>101.93</ele>
<time>2015-04-26T13:18:19Z</time>
</trkpt>
<trkpt lat="35.1660538" lon="32.5655464">
<ele>101.93</ele>
<time>2015-04-26T13:18:21Z</time>
</trkpt>
<trkpt lat="35.1660588" lon="32.5654888">
<ele>101.93</ele>
<time>2015-04-26T13:18:23Z</time>
</trkpt>
<trkpt lat="35.1660652" lon="32.5654084">
<ele>101.43</ele>
<time>2015-04-26T13:18:26Z</time>
</trkpt>
<trkpt lat="35.1660721" lon="32.5653505">
<ele>100.55</ele>
<time>2015-04-26T13:18:28Z</time>
</trkpt>
<trkpt lat="35.1660758" lon="32.5652915">
<ele>100.08</ele>
<time>2015-04-26T13:18:30Z</time>
</trkpt>
<trkpt lat="35.1660767" lon="32.5652113">
<ele>100.57</ele>
<time>2015-04-26T13:18:33Z</time>
</trkpt>
<trkpt lat="35.1660666" lon="32.5651497">
<ele>101.72</ele>
<time>2015-04-26T13:18:37Z</time>
</trkpt>
<trkpt lat="35.1660403" lon="32.5650841">
<ele>101.90</ele>
<time>2015-04-26T13:18:40Z</time>
</trkpt>
<trkpt lat="35.1660143" lon="32.5650253">
<ele>102.42</ele>
<time>2015-04-26T13:18:43Z</time>
</trkpt>
<trkpt lat="35.1659780" lon="32.5649791">
<ele>102.86</ele>
<time>2015-04-26T13:18:46Z</time>
</trkpt>
<trkpt lat="35.1659381" lon="32.5649394">
<ele>102.92</ele>
<time>2015-04-26T13:18:49Z</time>
</trkpt>
<trkpt lat="35.1658893" lon="32.5649033">
<ele>102.05</ele>
<time>2015-04-26T13:18:52Z</time>
</trkpt>
<trkpt lat="35.1658326" lon="32.5648788">
<ele>101.21</ele>
<time>2015-04-26T13:18:54Z</time>
</trkpt>
<trkpt lat="35.1657649" lon="32.5648602">
<ele>101.75</ele>
<time>2015-04-26T13:18:56Z</time>
</trkpt>
<trkpt lat="35.1657011" lon="32.5648475">
<ele>101.88</ele>
<time>2015-04-26T13:18:58Z</time>
</trkpt>
<trkpt lat="35.1656416" lon="32.5648329">
<ele>101.66</ele>
<time>2015-04-26T13:19:00Z</time>
</trkpt>
<trkpt lat="35.1655855" lon="32.5648120">
<ele>101.36</ele>
<time>2015-04-26T13:19:02Z</time>
</trkpt>
<trkpt lat="35.1655294" lon="32.5647838">
<ele>101.78</ele>
<time>2015-04-26T13:19:04Z</time>
</trkpt>
<trkpt lat="35.1654779" lon="32.5647456">
<ele>101.89</ele>
<time>2015-04-26T13:19:06Z</time>
</trkpt>
<trkpt lat="35.1654469" lon="32.5646845">
<ele>101.42</ele>
<time>2015-04-26T13:19:08Z</time>
</trkpt>
<trkpt lat="35.1654374" lon="32.5646128">
<ele>102.30</ele>
<time>2015-04-26T13:19:10Z</time>
</trkpt>
<trkpt lat="35.1654326" lon="32.5645408">
<ele>102.77</ele>
<time>2015-04-26T13:19:12Z</time>
</trkpt>
<trkpt lat="35.1654174" lon="32.5644716">
<ele>103.64</ele>
<time>2015-04-26T13:19:14Z</time>
</trkpt>
<trkpt lat="35.1653930" lon="32.5644129">
<ele>103.35</ele>
<time>2015-04-26T13:19:16Z</time>
</trkpt>
<trkpt lat="35.1653544" lon="32.5643685">
<ele>103.53</ele>
<time>2015-04-26T13:19:18Z</time>
</trkpt>
<trkpt lat="35.1653165" lon="32.5643216">
<ele>103.83</ele>
<time>2015-04-26T13:19:20Z</time>
</trkpt>
<trkpt lat="35.1652922" lon="32.5642632">
<ele>103.90</ele>
<time>2015-04-26T13:19:22Z</time>
</trkpt>
<trkpt lat="35.1652811" lon="32.5641935">
<ele>103.17</ele>
<time>2015-04-26T13:19:24Z</time>
</trkpt>
<trkpt lat="35.1652998" lon="32.5641120">
<ele>103.49</ele>
<time>2015-04-26T13:19:26Z</time>
</trkpt>
<trkpt lat="35.1653520" lon="32.5640507">
<ele>103.57</ele>
<time>2015-04-26T13:19:28Z</time>
</trkpt>
<trkpt lat="35.1654167" lon="32.5640140">
<ele>103.09</ele>
<time>2015-04-26T13:19:30Z</time>
</trkpt>
<trkpt lat="35.1654815" lon="32.5639743">
<ele>102.97</ele>
<time>2015-04-26T13:19:32Z</time>
</trkpt>
<trkpt lat="35.1655516" lon="32.5639228">
<ele>102.94</ele>
<time>2015-04-26T13:19:34Z</time>
</trkpt>
<trkpt lat="35.1656153" lon="32.5638712">
<ele>102.93</ele>
<time>2015-04-26T13:19:36Z</time>
</trkpt>
<trkpt lat="35.1656698" lon="32.5638173">
<ele>103.18</ele>
<time>2015-04-26T13:19:38Z</time>
</trkpt>
<trkpt lat="35.1657183" lon="32.5637545">
<ele>103.24</ele>
<time>2015-04-26T13:19:40Z</time>
</trkpt>
<trkpt lat="35.1657655" lon="32.5636862">
<ele>102.75</ele>
<time>2015-04-26T13:19:42Z</time>
</trkpt>
<trkpt lat="35.1658092" lon="32.5636118">
<ele>102.63</ele>
<time>2015-04-26T13:19:44Z</time>
</trkpt>
<trkpt lat="35.1658484" lon="32.5635318">
<ele>102.85</ele>
<time>2015-04-26T13:19:46Z</time>
</trkpt>
<trkpt lat="35.1658719" lon="32.5634400">
<ele>102.66</ele>
<time>2015-04-26T13:19:48Z</time>
</trkpt>
<trkpt lat="35.1658694" lon="32.5633431">
<ele>102.86</ele>
<time>2015-04-26T13:19:50Z</time>
</trkpt>
<trkpt lat="35.1658489" lon="32.5632495">
<ele>102.66</ele>
<time>2015-04-26T13:19:52Z</time>
</trkpt>
<trkpt lat="35.1658096" lon="32.5631647">
<ele>103.36</ele>
<time>2015-04-26T13:19:54Z</time>
</trkpt>
<trkpt lat="35.1657669" lon="32.5630804">
<ele>104.78</ele>
<time>2015-04-26T13:19:56Z</time>
</trkpt>
<trkpt lat="35.1657170" lon="32.5630032">
<ele>106.39</ele>
<time>2015-04-26T13:19:58Z</time>
</trkpt>
<trkpt lat="35.1656581" lon="32.5629329">
<ele>107.29</ele>
<time>2015-04-26T13:20:00Z</time>
</trkpt>
<trkpt lat="35.1656011" lon="32.5628618">
<ele>107.27</ele>
<time>2015-04-26T13:20:02Z</time>
</trkpt>
<trkpt lat="35.1655581" lon="32.5627828">
<ele>106.76</ele>
<time>2015-04-26T13:20:04Z</time>
</trkpt>
<trkpt lat="35.1655220" lon="32.5627008">
<ele>107.13</ele>
<time>2015-04-26T13:20:06Z</time>
</trkpt>
<trkpt lat="35.1654897" lon="32.5626142">
<ele>107.23</ele>
<time>2015-04-26T13:20:08Z</time>
</trkpt>
<trkpt lat="35.1654843" lon="32.5625167">
<ele>107.25</ele>
<time>2015-04-26T13:20:10Z</time>
</trkpt>
<trkpt lat="35.1655318" lon="32.5624334">
<ele>106.26</ele>
<time>2015-04-26T13:20:12Z</time>
</trkpt>
<trkpt lat="35.1656150" lon="32.5623970">
<ele>106.01</ele>
<time>2015-04-26T13:20:14Z</time>
</trkpt>
<trkpt lat="35.1656603" lon="32.5623954">
<ele>105.97</ele>
<time>2015-04-26T13:20:15Z</time>
</trkpt>
<trkpt lat="35.1657485" lon="32.5624077">
<ele>106.44</ele>
<time>2015-04-26T13:20:17Z</time>
</trkpt>
<trkpt lat="35.1658315" lon="32.5624269">
<ele>106.05</ele>
<time>2015-04-26T13:20:19Z</time>
</trkpt>
<trkpt lat="35.1659103" lon="32.5624418">
<ele>105.21</ele>
<time>2015-04-26T13:20:21Z</time>
</trkpt>
<trkpt lat="35.1659894" lon="32.5624394">
<ele>105.00</ele>
<time>2015-04-26T13:20:23Z</time>
</trkpt>
<trkpt lat="35.1660713" lon="32.5623992">
<ele>104.94</ele>
<time>2015-04-26T13:20:25Z</time>
</trkpt>
<trkpt lat="35.1661090" lon="32.5623475">
<ele>104.93</ele>
<time>2015-04-26T13:20:26Z</time>
</trkpt>
<trkpt lat="35.1661804" lon="32.5622872">
<ele>104.68</ele>
<time>2015-04-26T13:20:28Z</time>
</trkpt>
<trkpt lat="35.1662489" lon="32.5622224">
<ele>104.36</ele>
<time>2015-04-26T13:20:30Z</time>
</trkpt>
<trkpt lat="35.1663149" lon="32.5621488">
<ele>104.03</ele>
<time>2015-04-26T13:20:32Z</time>
</trkpt>
<trkpt lat="35.1663477" lon="32.5621040">
<ele>103.98</ele>
<time>2015-04-26T13:20:33Z</time>
</trkpt>
<trkpt lat="35.1663760" lon="32.5620602">
<ele>103.45</ele>
<time>2015-04-26T13:20:34Z</time>
</trkpt>
<trkpt lat="35.1664058" lon="32.5620156">
<ele>102.69</ele>
<time>2015-04-26T13:20:35Z</time>
</trkpt>
<trkpt lat="35.1664473" lon="32.5619227">
<ele>102.12</ele>
<time>2015-04-26T13:20:37Z</time>
</trkpt>
<trkpt lat="35.1664876" lon="32.5618327">
<ele>101.22</ele>
<time>2015-04-26T13:20:39Z</time>
</trkpt>
<trkpt lat="35.1665294" lon="32.5617489">
<ele>101.00</ele>
<time>2015-04-26T13:20:41Z</time>
</trkpt>
<trkpt lat="35.1665553" lon="32.5616552">
<ele>101.44</ele>
<time>2015-04-26T13:20:43Z</time>
</trkpt>
<trkpt lat="35.1665893" lon="32.5615713">
<ele>101.30</ele>
<time>2015-04-26T13:20:45Z</time>
</trkpt>
<trkpt lat="35.1666026" lon="32.5614890">
<ele>101.77</ele>
<time>2015-04-26T13:20:47Z</time>
</trkpt>
<trkpt lat="35.1666185" lon="32.5614079">
<ele>101.14</ele>
<time>2015-04-26T13:20:49Z</time>
</trkpt>
<trkpt lat="35.1666208" lon="32.5613218">
<ele>100.48</ele>
<time>2015-04-26T13:20:51Z</time>
</trkpt>
<trkpt lat="35.1665933" lon="32.5612405">
<ele>100.56</ele>
<time>2015-04-26T13:20:53Z</time>
</trkpt>
<trkpt lat="35.1665312" lon="32.5611843">
<ele>100.83</ele>
<time>2015-04-26T13:20:55Z</time>
</trkpt>
<trkpt lat="35.1664494" lon="32.5611508">
<ele>100.40</ele>
<time>2015-04-26T13:20:57Z</time>
</trkpt>
<trkpt lat="35.1663839" lon="32.5611312">
<ele>100.16</ele>
<time>2015-04-26T13:20:58Z</time>
</trkpt>
<trkpt lat="35.1663273" lon="32.5610606">
<ele>99.48</ele>
<time>2015-04-26T13:21:00Z</time>
</trkpt>
<trkpt lat="35.1662816" lon="32.5609717">
<ele>99.56</ele>
<time>2015-04-26T13:21:02Z</time>
</trkpt>
<trkpt lat="35.1662725" lon="32.5609175">
<ele>99.74</ele>
<time>2015-04-26T13:21:03Z</time>
</trkpt>
<trkpt lat="35.1662897" lon="32.5608108">
<ele>99.88</ele>
<time>2015-04-26T13:21:05Z</time>
</trkpt>
<trkpt lat="35.1663305" lon="32.5607186">
<ele>99.91</ele>
<time>2015-04-26T13:21:07Z</time>
</trkpt>
<trkpt lat="35.1663564" lon="32.5606691">
<ele>99.92</ele>
<time>2015-04-26T13:21:08Z</time>
</trkpt>
<trkpt lat="35.1663782" lon="32.5606205">
<ele>99.92</ele>
<time>2015-04-26T13:21:09Z</time>
</trkpt>
<trkpt lat="35.1664256" lon="32.5605212">
<ele>100.17</ele>
<time>2015-04-26T13:21:11Z</time>
</trkpt>
<trkpt lat="35.1664413" lon="32.5604126">
<ele>101.99</ele>
<time>2015-04-26T13:21:13Z</time>
</trkpt>
<trkpt lat="35.1664288" lon="32.5602960">
<ele>103.19</ele>
<time>2015-04-26T13:21:15Z</time>
</trkpt>
<trkpt lat="35.1663901" lon="32.5602096">
<ele>103.24</ele>
<time>2015-04-26T13:21:17Z</time>
</trkpt>
<trkpt lat="35.1663650" lon="32.5601247">
<ele>102.50</ele>
<time>2015-04-26T13:21:19Z</time>
</trkpt>
<trkpt lat="35.1663325" lon="32.5600509">
<ele>101.57</ele>
<time>2015-04-26T13:21:21Z</time>
</trkpt>
<trkpt lat="35.1663098" lon="32.5599933">
<ele>102.59</ele>
<time>2015-04-26T13:21:23Z</time>
</trkpt>
<trkpt lat="35.1662826" lon="32.5599061">
<ele>102.34</ele>
<time>2015-04-26T13:21:25Z</time>
</trkpt>
<trkpt lat="35.1662900" lon="32.5598108">
<ele>102.28</ele>
<time>2015-04-26T13:21:27Z</time>
</trkpt>
<trkpt lat="35.1698595" lon="32.5554749">
<ele>107.04</ele>
<time>2015-04-26T13:26:29Z</time>
</trkpt>
<trkpt lat="35.1699168" lon="32.5554418">
<ele>107.44</ele>
<time>2015-04-26T13:26:32Z</time>
</trkpt>
<trkpt lat="35.1699616" lon="32.5554220">
<ele>108.30</ele>
<time>2015-04-26T13:26:34Z</time>
</trkpt>
<trkpt lat="35.1700191" lon="32.5553813">
<ele>109.27</ele>
<time>2015-04-26T13:26:36Z</time>
</trkpt>
<trkpt lat="35.1700807" lon="32.5553166">
<ele>109.01</ele>
<time>2015-04-26T13:26:38Z</time>
</trkpt>
<trkpt lat="35.1701308" lon="32.5552347">
<ele>108.95</ele>
<time>2015-04-26T13:26:40Z</time>
</trkpt>
<trkpt lat="35.1701738" lon="32.5551522">
<ele>108.18</ele>
<time>2015-04-26T13:26:42Z</time>
</trkpt>
<trkpt lat="35.1702154" lon="32.5550778">
<ele>107.99</ele>
<time>2015-04-26T13:26:44Z</time>
</trkpt>
<trkpt lat="35.1702474" lon="32.5550281">
<ele>107.94</ele>
<time>2015-04-26T13:26:46Z</time>
</trkpt>
<trkpt lat="35.1702790" lon="32.5549837">
<ele>107.93</ele>
<time>2015-04-26T13:26:48Z</time>
</trkpt>
<trkpt lat="35.1703057" lon="32.5549264">
<ele>105.43</ele>
<time>2015-04-26T13:27:57Z</time>
</trkpt>
<trkpt lat="35.1703296" lon="32.5548726">
<ele>104.99</ele>
<time>2015-04-26T13:28:00Z</time>
</trkpt>
<trkpt lat="35.1703567" lon="32.5548069">
<ele>104.93</ele>
<time>2015-04-26T13:28:03Z</time>
</trkpt>
<trkpt lat="35.1703822" lon="32.5547364">
<ele>104.93</ele>
<time>2015-04-26T13:28:05Z</time>
</trkpt>
<trkpt lat="35.1703999" lon="32.5546727">
<ele>105.68</ele>
<time>2015-04-26T13:28:07Z</time>
</trkpt>
<trkpt lat="35.1704140" lon="32.5546181">
<ele>105.11</ele>
<time>2015-04-26T13:28:09Z</time>
</trkpt>
<trkpt lat="35.1704284" lon="32.5545508">
<ele>104.97</ele>
<time>2015-04-26T13:28:11Z</time>
</trkpt>
<trkpt lat="35.1704408" lon="32.5544700">
<ele>104.94</ele>
<time>2015-04-26T13:28:13Z</time>
</trkpt>
<trkpt lat="35.1704493" lon="32.5543941">
<ele>105.68</ele>
<time>2015-04-26T13:28:15Z</time>
</trkpt>
<trkpt lat="35.1704534" lon="32.5543241">
<ele>105.86</ele>
<time>2015-04-26T13:28:17Z</time>
</trkpt>
<trkpt lat="35.1704455" lon="32.5542585">
<ele>105.17</ele>
<time>2015-04-26T13:28:20Z</time>
</trkpt>
<trkpt lat="35.1704356" lon="32.5541924">
<ele>104.08</ele>
<time>2015-04-26T13:28:23Z</time>
</trkpt>
<trkpt lat="35.1704149" lon="32.5541215">
<ele>104.69</ele>
<time>2015-04-26T13:28:26Z</time>
</trkpt>
<trkpt lat="35.1703745" lon="32.5540611">
<ele>104.90</ele>
<time>2015-04-26T13:28:29Z</time>
</trkpt>
<trkpt lat="35.1703276" lon="32.5540417">
<ele>104.17</ele>
<time>2015-04-26T13:28:31Z</time>
</trkpt>
<trkpt lat="35.1702662" lon="32.5540309">
<ele>103.99</ele>
<time>2015-04-26T13:28:33Z</time>
</trkpt>
<trkpt lat="35.1702034" lon="32.5540347">
<ele>103.94</ele>
<time>2015-04-26T13:28:35Z</time>
</trkpt>
<trkpt lat="35.1701404" lon="32.5540396">
<ele>103.43</ele>
<time>2015-04-26T13:28:37Z</time>
</trkpt>
<trkpt lat="35.1700813" lon="32.5540465">
<ele>103.05</ele>
<time>2015-04-26T13:28:39Z</time>
</trkpt>
<trkpt lat="35.1700281" lon="32.5540556">
<ele>102.96</ele>
<time>2015-04-26T13:28:41Z</time>
</trkpt>
<trkpt lat="35.1699772" lon="32.5540780">
<ele>102.18</ele>
<time>2015-04-26T13:28:43Z</time>
</trkpt>
<trkpt lat="35.1699267" lon="32.5540968">
<ele>101.99</ele>
<time>2015-04-26T13:28:45Z</time>
</trkpt>
<trkpt lat="35.1698806" lon="32.5541060">
<ele>101.44</ele>
<time>2015-04-26T13:28:47Z</time>
</trkpt>
<trkpt lat="35.1698347" lon="32.5541231">
<ele>101.05</ele>
<time>2015-04-26T13:28:49Z</time>
</trkpt>
<trkpt lat="35.1697657" lon="32.5541457">
<ele>101.46</ele>
<time>2015-04-26T13:28:51Z</time>
</trkpt>
<trkpt lat="35.1696965" lon="32.5541412">
<ele>102.31</ele>
<time>2015-04-26T13:28:53Z</time>
</trkpt>
<trkpt lat="35.1696482" lon="32.5540957">
<ele>103.60</ele>
<time>2015-04-26T13:28:56Z</time>
</trkpt>
<trkpt lat="35.1696242" lon="32.5540478">
<ele>104.59</ele>
<time>2015-04-26T13:28:58Z</time>
</trkpt>
<trkpt lat="35.1695988" lon="32.5539944">
<ele>105.34</ele>
<time>2015-04-26T13:29:00Z</time>
</trkpt>
<trkpt lat="35.1695544" lon="32.5539741">
<ele>105.39</ele>
<time>2015-04-26T13:29:04Z</time>
</trkpt>
<trkpt lat="35.1695106" lon="32.5539352">
<ele>105.73</ele>
<time>2015-04-26T13:29:07Z</time>
</trkpt>
<trkpt lat="35.1694654" lon="32.5538827">
<ele>106.65</ele>
<time>2015-04-26T13:29:10Z</time>
</trkpt>
<trkpt lat="35.1694234" lon="32.5538363">
<ele>106.89</ele>
<time>2015-04-26T13:29:13Z</time>
</trkpt>
<trkpt lat="35.1693824" lon="32.5537789">
<ele>106.92</ele>
<time>2015-04-26T13:29:16Z</time>
</trkpt>
<trkpt lat="35.1693430" lon="32.5537241">
<ele>107.80</ele>
<time>2015-04-26T13:29:19Z</time>
</trkpt>
<trkpt lat="35.1692970" lon="32.5536759">
<ele>107.91</ele>
<time>2015-04-26T13:29:22Z</time>
</trkpt>
<trkpt lat="35.1692542" lon="32.5536413">
<ele>107.92</ele>
<time>2015-04-26T13:29:24Z</time>
</trkpt>
<trkpt lat="35.1692113" lon="32.5536113">
<ele>107.92</ele>
<time>2015-04-26T13:29:26Z</time>
</trkpt>
<trkpt lat="35.1691662" lon="32.5535842">
<ele>107.92</ele>
<time>2015-04-26T13:29:28Z</time>
</trkpt>
<trkpt lat="35.1691236" lon="32.5535573">
<ele>107.17</ele>
<time>2015-04-26T13:29:30Z</time>
</trkpt>
<trkpt lat="35.1690808" lon="32.5535358">
<ele>107.74</ele>
<time>2015-04-26T13:29:32Z</time>
</trkpt>
<trkpt lat="35.1690389" lon="32.5535133">
<ele>107.88</ele>
<time>2015-04-26T13:29:34Z</time>
</trkpt>
<trkpt lat="35.1689797" lon="32.5534772">
<ele>107.92</ele>
<time>2015-04-26T13:29:37Z</time>
</trkpt>
<trkpt lat="35.1689371" lon="32.5534565">
<ele>107.92</ele>
<time>2015-04-26T13:29:39Z</time>
</trkpt>
<trkpt lat="35.1688916" lon="32.5534358">
<ele>107.17</ele>
<time>2015-04-26T13:29:41Z</time>
</trkpt>
<trkpt lat="35.1688427" lon="32.5534192">
<ele>106.49</ele>
<time>2015-04-26T13:29:43Z</time>
</trkpt>
<trkpt lat="35.1687926" lon="32.5534038">
<ele>106.57</ele>
<time>2015-04-26T13:29:45Z</time>
</trkpt>
<trkpt lat="35.1687426" lon="32.5533906">
<ele>106.84</ele>
<time>2015-04-26T13:29:47Z</time>
</trkpt>
<trkpt lat="35.1686920" lon="32.5533780">
<ele>106.90</ele>
<time>2015-04-26T13:29:49Z</time>
</trkpt>
<trkpt lat="35.1686333" lon="32.5533603">
<ele>106.17</ele>
<time>2015-04-26T13:29:51Z</time>
</trkpt>
<trkpt lat="35.1685736" lon="32.5533419">
<ele>105.99</ele>
<time>2015-04-26T13:29:53Z</time>
</trkpt>
<trkpt lat="35.1685168" lon="32.5533254">
<ele>105.94</ele>
<time>2015-04-26T13:29:55Z</time>
</trkpt>
<trkpt lat="35.1684592" lon="32.5533109">
<ele>106.43</ele>
<time>2015-04-26T13:29:57Z</time>
</trkpt>
<trkpt lat="35.1683991" lon="32.5532992">
<ele>106.55</ele>
<time>2015-04-26T13:29:59Z</time>
</trkpt>
<trkpt lat="35.1683402" lon="32.5532960">
<ele>106.08</ele>
<time>2015-04-26T13:30:01Z</time>
</trkpt>
<trkpt lat="35.1682826" lon="32.5532996">
<ele>105.21</ele>
<time>2015-04-26T13:30:03Z</time>
</trkpt>
<trkpt lat="35.1682279" lon="32.5533076">
<ele>105.50</ele>
<time>2015-04-26T13:30:05Z</time>
</trkpt>
<trkpt lat="35.1681770" lon="32.5533175">
<ele>105.82</ele>
<time>2015-04-26T13:30:07Z</time>
</trkpt>
<trkpt lat="35.1681165" lon="32.5533326">
<ele>105.91</ele>
<time>2015-04-26T13:30:10Z</time>
</trkpt>
<trkpt lat="35.1680703" lon="32.5533436">
<ele>105.92</ele>
<time>2015-04-26T13:30:12Z</time>
</trkpt>
<trkpt lat="35.1680215" lon="32.5533505">
<ele>105.92</ele>
<time>2015-04-26T13:30:14Z</time>
</trkpt>
<trkpt lat="35.1679727" lon="32.5533525">
<ele>105.17</ele>
<time>2015-04-26T13:30:16Z</time>
</trkpt>
<trkpt lat="35.1679220" lon="32.5533616">
<ele>105.49</ele>
<time>2015-04-26T13:30:18Z</time>
</trkpt>
<trkpt lat="35.1678695" lon="32.5533749">
<ele>105.82</ele>
<time>2015-04-26T13:30:20Z</time>
</trkpt>
<trkpt lat="35.1678192" lon="32.5533940">
<ele>105.90</ele>
<time>2015-04-26T13:30:22Z</time>
</trkpt>
<trkpt lat="35.1677731" lon="32.5534177">
<ele>105.92</ele>
<time>2015-04-26T13:30:24Z</time>
</trkpt>
<trkpt lat="35.1677293" lon="32.5534460">
<ele>105.92</ele>
<time>2015-04-26T13:30:26Z</time>
</trkpt>
<trkpt lat="35.1676861" lon="32.5534759">
<ele>105.92</ele>
<time>2015-04-26T13:30:28Z</time>
</trkpt>
<trkpt lat="35.1676443" lon="32.5535094">
<ele>106.42</ele>
<time>2015-04-26T13:30:30Z</time>
</trkpt>
<trkpt lat="35.1676008" lon="32.5535459">
<ele>106.80</ele>
<time>2015-04-26T13:30:32Z</time>
</trkpt>
<trkpt lat="35.1675573" lon="32.5535825">
<ele>106.89</ele>
<time>2015-04-26T13:30:34Z</time>
</trkpt>
<trkpt lat="35.1675145" lon="32.5536195">
<ele>106.92</ele>
<time>2015-04-26T13:30:36Z</time>
</trkpt>
<trkpt lat="35.1674722" lon="32.5536521">
<ele>106.17</ele>
<time>2015-04-26T13:30:38Z</time>
</trkpt>
<trkpt lat="35.1674329" lon="32.5536850">
<ele>105.99</ele>
<time>2015-04-26T13:30:40Z</time>
</trkpt>
<trkpt lat="35.1673844" lon="32.5537389">
<ele>105.93</ele>
<time>2015-04-26T13:30:43Z</time>
</trkpt>
<trkpt lat="35.1673548" lon="32.5537845">
<ele>105.93</ele>
<time>2015-04-26T13:30:45Z</time>
</trkpt>
<trkpt lat="35.1673298" lon="32.5538329">
<ele>106.43</ele>
<time>2015-04-26T13:30:47Z</time>
</trkpt>
<trkpt lat="35.1673065" lon="32.5538854">
<ele>106.80</ele>
<time>2015-04-26T13:30:49Z</time>
</trkpt>
<trkpt lat="35.1672917" lon="32.5539458">
<ele>107.64</ele>
<time>2015-04-26T13:30:51Z</time>
</trkpt>
<trkpt lat="35.1672897" lon="32.5540148">
<ele>107.35</ele>
<time>2015-04-26T13:30:53Z</time>
</trkpt>
<trkpt lat="35.1673002" lon="32.5541016">
<ele>107.03</ele>
<time>2015-04-26T13:30:55Z</time>
</trkpt>
<trkpt lat="35.1673017" lon="32.5541824">
<ele>106.95</ele>
<time>2015-04-26T13:30:57Z</time>
</trkpt>
<trkpt lat="35.1672635" lon="32.5542414">
<ele>107.18</ele>
<time>2015-04-26T13:30:59Z</time>
</trkpt>
<trkpt lat="35.1672011" lon="32.5542535">
<ele>106.99</ele>
<time>2015-04-26T13:31:01Z</time>
</trkpt>
<trkpt lat="35.1671352" lon="32.5542325">
<ele>106.94</ele>
<time>2015-04-26T13:31:03Z</time>
</trkpt>
<trkpt lat="35.1670736" lon="32.5542021">
<ele>107.43</ele>
<time>2015-04-26T13:31:05Z</time>
</trkpt>
<trkpt lat="35.1670134" lon="32.5541805">
<ele>107.80</ele>
<time>2015-04-26T13:31:07Z</time>
</trkpt>
<trkpt lat="35.1669540" lon="32.5541680">
<ele>107.89</ele>
<time>2015-04-26T13:31:09Z</time>
</trkpt>
<trkpt lat="35.1669054" lon="32.5541665">
<ele>107.92</ele>
<time>2015-04-26T13:31:11Z</time>
</trkpt>
<trkpt lat="35.1668409" lon="32.5541712">
<ele>107.92</ele>
<time>2015-04-26T13:31:14Z</time>
</trkpt>
<trkpt lat="35.1667932" lon="32.5541766">
<ele>107.92</ele>
<time>2015-04-26T13:31:16Z</time>
</trkpt>
<trkpt lat="35.1667435" lon="32.5541842">
<ele>107.92</ele>
<time>2015-04-26T13:31:18Z</time>
</trkpt>
<trkpt lat="35.1666917" lon="32.5541948">
<ele>107.17</ele>
<time>2015-04-26T13:31:20Z</time>
</trkpt>
<trkpt lat="35.1666390" lon="32.5542032">
<ele>106.99</ele>
<time>2015-04-26T13:31:22Z</time>
</trkpt>
<trkpt lat="35.1665881" lon="32.5542111">
<ele>106.44</ele>
<time>2015-04-26T13:31:24Z</time>
</trkpt>
<trkpt lat="35.1665381" lon="32.5542218">
<ele>106.05</ele>
<time>2015-04-26T13:31:26Z</time>
</trkpt>
<trkpt lat="35.1664894" lon="32.5542437">
<ele>105.96</ele>
<time>2015-04-26T13:31:28Z</time>
</trkpt>
<trkpt lat="35.1664453" lon="32.5542643">
<ele>106.68</ele>
<time>2015-04-26T13:31:30Z</time>
</trkpt>
<trkpt lat="35.1663907" lon="32.5542958">
<ele>106.39</ele>
<time>2015-04-26T13:31:33Z</time>
</trkpt>
<trkpt lat="35.1663411" lon="32.5543258">
<ele>106.04</ele>
<time>2015-04-26T13:31:35Z</time>
</trkpt>
<trkpt lat="35.1662916" lon="32.5543582">
<ele>106.20</ele>
<time>2015-04-26T13:31:37Z</time>
</trkpt>
<trkpt lat="35.1662435" lon="32.5543897">
<ele>106.49</ele>
<time>2015-04-26T13:31:39Z</time>
</trkpt>
<trkpt lat="35.1661999" lon="32.5544286">
<ele>107.32</ele>
<time>2015-04-26T13:31:41Z</time>
</trkpt>
<trkpt lat="35.1661652" lon="32.5544865">
<ele>107.77</ele>
<time>2015-04-26T13:31:43Z</time>
</trkpt>
<trkpt lat="35.1661366" lon="32.5545573">
<ele>108.64</ele>
<time>2015-04-26T13:31:45Z</time>
</trkpt>
<trkpt lat="35.1661169" lon="32.5546180">
<ele>108.85</ele>
<time>2015-04-26T13:31:47Z</time>
</trkpt>
<trkpt lat="35.1660960" lon="32.5546794">
<ele>108.91</ele>
<time>2015-04-26T13:31:49Z</time>
</trkpt>
<trkpt lat="35.1660732" lon="32.5547443">
<ele>108.67</ele>
<time>2015-04-26T13:31:51Z</time>
</trkpt>
<trkpt lat="35.1660480" lon="32.5548098">
<ele>108.86</ele>
<time>2015-04-26T13:31:53Z</time>
</trkpt>
<trkpt lat="35.1660187" lon="32.5548698">
<ele>108.41</ele>
<time>2015-04-26T13:31:55Z</time>
</trkpt>
<trkpt lat="35.1659755" lon="32.5549150">
<ele>108.05</ele>
<time>2015-04-26T13:31:57Z</time>
</trkpt>
<trkpt lat="35.1659072" lon="32.5549135">
<ele>108.46</ele>
<time>2015-04-26T13:31:59Z</time>
</trkpt>
<trkpt lat="35.1658488" lon="32.5548547">
<ele>109.06</ele>
<time>2015-04-26T13:32:01Z</time>
</trkpt>
<trkpt lat="35.1658177" lon="32.5547733">
<ele>108.96</ele>
<time>2015-04-26T13:32:03Z</time>
</trkpt>
<trkpt lat="35.1658061" lon="32.5546984">
<ele>108.93</ele>
<time>2015-04-26T13:32:05Z</time>
</trkpt>
<trkpt lat="35.1657968" lon="32.5546349">
<ele>108.93</ele>
<time>2015-04-26T13:32:07Z</time>
</trkpt>
<trkpt lat="35.1657709" lon="32.5545752">
<ele>108.18</ele>
<time>2015-04-26T13:32:09Z</time>
</trkpt>
<trkpt lat="35.1657120" lon="32.5545220">
<ele>108.49</ele>
<time>2015-04-26T13:32:11Z</time>
</trkpt>
<trkpt lat="35.1656473" lon="32.5544975">
<ele>109.32</ele>
<time>2015-04-26T13:32:13Z</time>
</trkpt>
<trkpt lat="35.1655954" lon="32.5544988">
<ele>110.02</ele>
<time>2015-04-26T13:32:15Z</time>
</trkpt>
<trkpt lat="35.1655346" lon="32.5545071">
<ele>109.19</ele>
<time>2015-04-26T13:32:18Z</time>
</trkpt>
<trkpt lat="35.1654808" lon="32.5545436">
<ele>108.96</ele>
<time>2015-04-26T13:32:21Z</time>
</trkpt>
<trkpt lat="35.1654241" lon="32.5545870">
<ele>108.93</ele>
<time>2015-04-26T13:32:24Z</time>
</trkpt>
<trkpt lat="35.1653800" lon="32.5546075">
<ele>108.93</ele>
<time>2015-04-26T13:32:25Z</time>
</trkpt>
<trkpt lat="35.1653103" lon="32.5546064">
<ele>108.93</ele>
<time>2015-04-26T13:32:27Z</time>
</trkpt>
<trkpt lat="35.1652501" lon="32.5545862">
<ele>109.43</ele>
<time>2015-04-26T13:32:29Z</time>
</trkpt>
<trkpt lat="35.1651857" lon="32.5545611">
<ele>109.11</ele>
<time>2015-04-26T13:32:32Z</time>
</trkpt>
<trkpt lat="35.1651354" lon="32.5545520">
<ele>109.45</ele>
<time>2015-04-26T13:32:35Z</time>
</trkpt>
<trkpt lat="35.1650808" lon="32.5545537">
<ele>109.87</ele>
<time>2015-04-26T13:32:38Z</time>
</trkpt>
<trkpt lat="35.1650299" lon="32.5545581">
<ele>109.92</ele>
<time>2015-04-26T13:32:41Z</time>
</trkpt>
<trkpt lat="35.1649782" lon="32.5545599">
<ele>109.92</ele>
<time>2015-04-26T13:32:44Z</time>
</trkpt>
<trkpt lat="35.1649176" lon="32.5545790">
<ele>110.30</ele>
<time>2015-04-26T13:32:47Z</time>
</trkpt>
<trkpt lat="35.1648593" lon="32.5545972">
<ele>109.47</ele>
<time>2015-04-26T13:32:50Z</time>
</trkpt>
<trkpt lat="35.1648089" lon="32.5545362">
<ele>112.05</ele>
<time>2015-04-26T13:40:04Z</time>
</trkpt>
<trkpt lat="35.1647684" lon="32.5544356">
<ele>110.21</ele>
<time>2015-04-26T13:40:06Z</time>
</trkpt>
<trkpt lat="35.1647559" lon="32.5543534">
<ele>109.07</ele>
<time>2015-04-26T13:40:07Z</time>
</trkpt>
<trkpt lat="35.1647408" lon="32.5542891">
<ele>108.00</ele>
<time>2015-04-26T13:40:08Z</time>
</trkpt>
<trkpt lat="35.1647237" lon="32.5542116">
<ele>106.46</ele>
<time>2015-04-26T13:40:09Z</time>
</trkpt>
<trkpt lat="35.1647028" lon="32.5541242">
<ele>105.19</ele>
<time>2015-04-26T13:40:10Z</time>
</trkpt>
<trkpt lat="35.1646818" lon="32.5540379">
<ele>104.06</ele>
<time>2015-04-26T13:40:11Z</time>
</trkpt>
<trkpt lat="35.1646516" lon="32.5539368">
<ele>101.99</ele>
<time>2015-04-26T13:40:12Z</time>
</trkpt>
<trkpt lat="35.1646171" lon="32.5538456">
<ele>99.96</ele>
<time>2015-04-26T13:40:13Z</time>
</trkpt>
<trkpt lat="35.1645769" lon="32.5537661">
<ele>98.44</ele>
<time>2015-04-26T13:40:14Z</time>
</trkpt>
<trkpt lat="35.1645242" lon="32.5536800">
<ele>97.18</ele>
<time>2015-04-26T13:40:15Z</time>
</trkpt>
<trkpt lat="35.1644774" lon="32.5535958">
<ele>96.05</ele>
<time>2015-04-26T13:40:16Z</time>
</trkpt>
<trkpt lat="35.1644241" lon="32.5535154">
<ele>94.49</ele>
<time>2015-04-26T13:40:17Z</time>
</trkpt>
<trkpt lat="35.1643726" lon="32.5534212">
<ele>92.71</ele>
<time>2015-04-26T13:40:18Z</time>
</trkpt>
<trkpt lat="35.1643251" lon="32.5533318">
<ele>91.32</ele>
<time>2015-04-26T13:40:19Z</time>
</trkpt>
<trkpt lat="35.1642787" lon="32.5532292">
<ele>90.12</ele>
<time>2015-04-26T13:40:20Z</time>
</trkpt>
<trkpt lat="35.1642345" lon="32.5531287">
<ele>88.52</ele>
<time>2015-04-26T13:40:21Z</time>
</trkpt>
<trkpt lat="35.1641985" lon="32.5530400">
<ele>87.22</ele>
<time>2015-04-26T13:40:22Z</time>
</trkpt>
<trkpt lat="35.1641592" lon="32.5529724">
<ele>86.07</ele>
<time>2015-04-26T13:40:23Z</time>
</trkpt>
<trkpt lat="35.1641195" lon="32.5529297">
<ele>85.00</ele>
<time>2015-04-26T13:40:24Z</time>
</trkpt>
<trkpt lat="35.1640756" lon="32.5529024">
<ele>83.96</ele>
<time>2015-04-26T13:40:25Z</time>
</trkpt>
<trkpt lat="35.1640256" lon="32.5528979">
<ele>82.94</ele>
<time>2015-04-26T13:40:26Z</time>
</trkpt>
<trkpt lat="35.1639713" lon="32.5529024">
<ele>82.43</ele>
<time>2015-04-26T13:40:27Z</time>
</trkpt>
<trkpt lat="35.1639233" lon="32.5529086">
<ele>81.68</ele>
<time>2015-04-26T13:40:28Z</time>
</trkpt>
<trkpt lat="35.1638711" lon="32.5529110">
<ele>81.30</ele>
<time>2015-04-26T13:40:29Z</time>
</trkpt>
<trkpt lat="35.1638272" lon="32.5529244">
<ele>81.11</ele>
<time>2015-04-26T13:40:30Z</time>
</trkpt>
<trkpt lat="35.1637482" lon="32.5529309">
<ele>80.97</ele>
<time>2015-04-26T13:40:32Z</time>
</trkpt>
<trkpt lat="35.1636850" lon="32.5529423">
<ele>80.94</ele>
<time>2015-04-26T13:40:34Z</time>
</trkpt>
<trkpt lat="35.1636350" lon="32.5529506">
<ele>79.68</ele>
<time>2015-04-26T13:40:36Z</time>
</trkpt>
<trkpt lat="35.1635654" lon="32.5529680">
<ele>79.11</ele>
<time>2015-04-26T13:40:38Z</time>
</trkpt>
<trkpt lat="35.1634908" lon="32.5529868">
<ele>78.72</ele>
<time>2015-04-26T13:40:40Z</time>
</trkpt>
<trkpt lat="35.1634157" lon="32.5530012">
<ele>78.12</ele>
<time>2015-04-26T13:40:42Z</time>
</trkpt>
<trkpt lat="35.1633365" lon="32.5530032">
<ele>77.47</ele>
<time>2015-04-26T13:40:44Z</time>
</trkpt>
<trkpt lat="35.1632472" lon="32.5529997">
<ele>76.81</ele>
<time>2015-04-26T13:40:46Z</time>
</trkpt>
<trkpt lat="35.1632018" lon="32.5529984">
<ele>76.37</ele>
<time>2015-04-26T13:40:47Z</time>
</trkpt>
<trkpt lat="35.1631354" lon="32.5529945">
<ele>76.15</ele>
<time>2015-04-26T13:40:48Z</time>
</trkpt>
<trkpt lat="35.1630743" lon="32.5529920">
<ele>76.04</ele>
<time>2015-04-26T13:40:49Z</time>
</trkpt>
<trkpt lat="35.1630219" lon="32.5529934">
<ele>75.98</ele>
<time>2015-04-26T13:40:50Z</time>
</trkpt>
<trkpt lat="35.1629402" lon="32.5529996">
<ele>75.94</ele>
<time>2015-04-26T13:40:52Z</time>
</trkpt>
<trkpt lat="35.1628656" lon="32.5529656">
<ele>75.43</ele>
<time>2015-04-26T13:40:54Z</time>
</trkpt>
<trkpt lat="35.1628146" lon="32.5528832">
<ele>74.55</ele>
<time>2015-04-26T13:40:56Z</time>
</trkpt>
<trkpt lat="35.1628005" lon="32.5528256">
<ele>73.74</ele>
<time>2015-04-26T13:40:57Z</time>
</trkpt>
<trkpt lat="35.1627992" lon="32.5527605">
<ele>73.33</ele>
<time>2015-04-26T13:40:58Z</time>
</trkpt>
<trkpt lat="35.1627968" lon="32.5526879">
<ele>72.63</ele>
<time>2015-04-26T13:40:59Z</time>
</trkpt>
<trkpt lat="35.1627973" lon="32.5526132">
<ele>72.28</ele>
<time>2015-04-26T13:41:00Z</time>
</trkpt>
<trkpt lat="35.1627978" lon="32.5525417">
<ele>71.60</ele>
<time>2015-04-26T13:41:01Z</time>
</trkpt>
<trkpt lat="35.1627970" lon="32.5524618">
<ele>71.26</ele>
<time>2015-04-26T13:41:02Z</time>
</trkpt>
<trkpt lat="35.1627906" lon="32.5523917">
<ele>70.59</ele>
<time>2015-04-26T13:41:03Z</time>
</trkpt>
<trkpt lat="35.1627799" lon="32.5523227">
<ele>69.76</ele>
<time>2015-04-26T13:41:04Z</time>
</trkpt>
<trkpt lat="35.1627769" lon="32.5522541">
<ele>68.84</ele>
<time>2015-04-26T13:41:05Z</time>
</trkpt>
<trkpt lat="35.1627888" lon="32.5521928">
<ele>68.38</ele>
<time>2015-04-26T13:41:06Z</time>
</trkpt>
<trkpt lat="35.1628163" lon="32.5521362">
<ele>68.15</ele>
<time>2015-04-26T13:41:07Z</time>
</trkpt>
<trkpt lat="35.1628582" lon="32.5520974">
<ele>68.04</ele>
<time>2015-04-26T13:41:08Z</time>
</trkpt>
<trkpt lat="35.1628976" lon="32.5520552">
<ele>67.98</ele>
<time>2015-04-26T13:41:09Z</time>
</trkpt>
<trkpt lat="35.1629456" lon="32.5520305">
<ele>67.95</ele>
<time>2015-04-26T13:41:10Z</time>
</trkpt>
<trkpt lat="35.1629793" lon="32.5519907">
<ele>67.94</ele>
<time>2015-04-26T13:41:11Z</time>
</trkpt>
<trkpt lat="35.1630055" lon="32.5519331">
<ele>67.93</ele>
<time>2015-04-26T13:41:12Z</time>
</trkpt>
<trkpt lat="35.1630269" lon="32.5518704">
<ele>67.43</ele>
<time>2015-04-26T13:41:13Z</time>
</trkpt>
<trkpt lat="35.1630303" lon="32.5518001">
<ele>66.68</ele>
<time>2015-04-26T13:41:14Z</time>
</trkpt>
<trkpt lat="35.1630378" lon="32.5517280">
<ele>65.80</ele>
<time>2015-04-26T13:41:15Z</time>
</trkpt>
<trkpt lat="35.1630627" lon="32.5516552">
<ele>65.36</ele>
<time>2015-04-26T13:41:16Z</time>
</trkpt>
<trkpt lat="35.1630921" lon="32.5515946">
<ele>65.14</ele>
<time>2015-04-26T13:41:17Z</time>
</trkpt>
<trkpt lat="35.1631712" lon="32.5515730">
<ele>64.98</ele>
<time>2015-04-26T13:41:19Z</time>
</trkpt>
<trkpt lat="35.1632175" lon="32.5515794">
<ele>64.95</ele>
<time>2015-04-26T13:41:20Z</time>
</trkpt>
<trkpt lat="35.1632621" lon="32.5515872">
<ele>64.94</ele>
<time>2015-04-26T13:41:21Z</time>
</trkpt>
<trkpt lat="35.1633478" lon="32.5515933">
<ele>64.93</ele>
<time>2015-04-26T13:41:23Z</time>
</trkpt>
<trkpt lat="35.1634230" lon="32.5515766">
<ele>64.43</ele>
<time>2015-04-26T13:41:25Z</time>
</trkpt>
<trkpt lat="35.1634596" lon="32.5514802">
<ele>63.55</ele>
<time>2015-04-26T13:41:27Z</time>
</trkpt>
<trkpt lat="35.1634762" lon="32.5514195">
<ele>63.24</ele>
<time>2015-04-26T13:41:28Z</time>
</trkpt>
<trkpt lat="35.1634917" lon="32.5513445">
<ele>62.58</ele>
<time>2015-04-26T13:41:29Z</time>
</trkpt>
<trkpt lat="35.1635056" lon="32.5512542">
<ele>61.75</ele>
<time>2015-04-26T13:41:30Z</time>
</trkpt>
<trkpt lat="35.1635133" lon="32.5511620">
<ele>60.84</ele>
<time>2015-04-26T13:41:31Z</time>
</trkpt>
<trkpt lat="35.1635280" lon="32.5510684">
<ele>59.88</ele>
<time>2015-04-26T13:41:32Z</time>
</trkpt>
<trkpt lat="35.1635431" lon="32.5509803">
<ele>58.90</ele>
<time>2015-04-26T13:41:33Z</time>
</trkpt>
<trkpt lat="35.1635568" lon="32.5508817">
<ele>57.41</ele>
<time>2015-04-26T13:41:34Z</time>
</trkpt>
<trkpt lat="35.1635695" lon="32.5507883">
<ele>56.17</ele>
<time>2015-04-26T13:41:35Z</time>
</trkpt>
<trkpt lat="35.1635798" lon="32.5507033">
<ele>55.05</ele>
<time>2015-04-26T13:41:36Z</time>
</trkpt>
<trkpt lat="35.1635921" lon="32.5506163">
<ele>53.99</ele>
<time>2015-04-26T13:41:37Z</time>
</trkpt>
<trkpt lat="35.1636014" lon="32.5505524">
<ele>52.96</ele>
<time>2015-04-26T13:41:38Z</time>
</trkpt>
<trkpt lat="35.1636110" lon="32.5504938">
<ele>52.44</ele>
<time>2015-04-26T13:41:39Z</time>
</trkpt>
<trkpt lat="35.1636204" lon="32.5504304">
<ele>51.68</ele>
<time>2015-04-26T13:41:40Z</time>
</trkpt>
<trkpt lat="35.1636301" lon="32.5503613">
<ele>51.30</ele>
<time>2015-04-26T13:41:41Z</time>
</trkpt>
<trkpt lat="35.1636356" lon="32.5502706">
<ele>50.11</ele>
<time>2015-04-26T13:41:42Z</time>
</trkpt>
<trkpt lat="35.1636417" lon="32.5501924">
<ele>49.52</ele>
<time>2015-04-26T13:41:43Z</time>
</trkpt>
<trkpt lat="35.1636316" lon="32.5500965">
<ele>49.22</ele>
<time>2015-04-26T13:41:44Z</time>
</trkpt>
<trkpt lat="35.1636259" lon="32.5500053">
<ele>48.57</ele>
<time>2015-04-26T13:41:45Z</time>
</trkpt>
<trkpt lat="35.1636027" lon="32.5498757">
<ele>46.25</ele>
<time>2015-04-26T13:41:46Z</time>
</trkpt>
<trkpt lat="35.1635761" lon="32.5497559">
<ele>44.09</ele>
<time>2015-04-26T13:41:47Z</time>
</trkpt>
<trkpt lat="35.1635453" lon="32.5496267">
<ele>42.01</ele>
<time>2015-04-26T13:41:48Z</time>
</trkpt>
<trkpt lat="35.1635066" lon="32.5494918">
<ele>40.47</ele>
<time>2015-04-26T13:41:49Z</time>
</trkpt>
<trkpt lat="35.1634709" lon="32.5493606">
<ele>38.70</ele>
<time>2015-04-26T13:41:50Z</time>
</trkpt>
<trkpt lat="35.1634375" lon="32.5492307">
<ele>36.81</ele>
<time>2015-04-26T13:41:51Z</time>
</trkpt>
<trkpt lat="35.1634179" lon="32.5491427">
<ele>35.37</ele>
<time>2015-04-26T13:41:52Z</time>
</trkpt>
<trkpt lat="35.1634046" lon="32.5490548">
<ele>34.15</ele>
<time>2015-04-26T13:41:53Z</time>
</trkpt>
<trkpt lat="35.1633998" lon="32.5489787">
<ele>33.04</ele>
<time>2015-04-26T13:41:54Z</time>
</trkpt>
<trkpt lat="35.1633871" lon="32.5489035">
<ele>32.48</ele>
<time>2015-04-26T13:41:55Z</time>
</trkpt>
<trkpt lat="35.1633663" lon="32.5488279">
<ele>31.70</ele>
<time>2015-04-26T13:41:56Z</time>
</trkpt>
<trkpt lat="35.1633347" lon="32.5487461">
<ele>31.31</ele>
<time>2015-04-26T13:41:57Z</time>
</trkpt>
<trkpt lat="35.1633072" lon="32.5486645">
<ele>30.12</ele>
<time>2015-04-26T13:41:58Z</time>
</trkpt>
<trkpt lat="35.1632828" lon="32.5485827">
<ele>30.02</ele>
<time>2015-04-26T13:41:59Z</time>
</trkpt>
<trkpt lat="35.1632770" lon="32.5485047">
<ele>29.97</ele>
<time>2015-04-26T13:42:00Z</time>
</trkpt>
<trkpt lat="35.1632800" lon="32.5484271">
<ele>29.95</ele>
<time>2015-04-26T13:42:01Z</time>
</trkpt>
<trkpt lat="35.1632781" lon="32.5483611">
<ele>30.94</ele>
<time>2015-04-26T13:42:02Z</time>
</trkpt>
<trkpt lat="35.1632786" lon="32.5483023">
<ele>31.43</ele>
<time>2015-04-26T13:42:03Z</time>
</trkpt>
<trkpt lat="35.1632745" lon="32.5482424">
<ele>31.18</ele>
<time>2015-04-26T13:42:04Z</time>
</trkpt>
<trkpt lat="35.1632690" lon="32.5481830">
<ele>31.05</ele>
<time>2015-04-26T13:42:05Z</time>
</trkpt>
<trkpt lat="35.1632715" lon="32.5481177">
<ele>30.99</ele>
<time>2015-04-26T13:42:06Z</time>
</trkpt>
<trkpt lat="35.1632827" lon="32.5480598">
<ele>30.96</ele>
<time>2015-04-26T13:42:07Z</time>
</trkpt>
<trkpt lat="35.1633078" lon="32.5480100">
<ele>30.94</ele>
<time>2015-04-26T13:42:08Z</time>
</trkpt>
<trkpt lat="35.1633766" lon="32.5479414">
<ele>30.43</ele>
<time>2015-04-26T13:42:10Z</time>
</trkpt>
<trkpt lat="35.1634150" lon="32.5479116">
<ele>30.18</ele>
<time>2015-04-26T13:42:11Z</time>
</trkpt>
<trkpt lat="35.1634817" lon="32.5478610">
<ele>29.24</ele>
<time>2015-04-26T13:42:13Z</time>
</trkpt>
<trkpt lat="35.1635294" lon="32.5478369">
<ele>29.08</ele>
<time>2015-04-26T13:42:14Z</time>
</trkpt>
<trkpt lat="35.1635786" lon="32.5478121">
<ele>28.50</ele>
<time>2015-04-26T13:42:15Z</time>
</trkpt>
<trkpt lat="35.1636298" lon="32.5477817">
<ele>28.21</ele>
<time>2015-04-26T13:42:16Z</time>
</trkpt>
<trkpt lat="35.1636798" lon="32.5477478">
<ele>28.07</ele>
<time>2015-04-26T13:42:17Z</time>
</trkpt>
<trkpt lat="35.1637355" lon="32.5477254">
<ele>28.50</ele>
<time>2015-04-26T13:42:18Z</time>
</trkpt>
<trkpt lat="35.1637880" lon="32.5476978">
<ele>28.71</ele>
<time>2015-04-26T13:42:19Z</time>
</trkpt>
<trkpt lat="35.1638395" lon="32.5476621">
<ele>28.82</ele>
<time>2015-04-26T13:42:20Z</time>
</trkpt>
<trkpt lat="35.1638908" lon="32.5476282">
<ele>28.87</ele>
<time>2015-04-26T13:42:21Z</time>
</trkpt>
<trkpt lat="35.1639459" lon="32.5475859">
<ele>28.40</ele>
<time>2015-04-26T13:42:22Z</time>
</trkpt>
<trkpt lat="35.1639938" lon="32.5475600">
<ele>28.16</ele>
<time>2015-04-26T13:42:23Z</time>
</trkpt>
<trkpt lat="35.1640399" lon="32.5475267">
<ele>28.04</ele>
<time>2015-04-26T13:42:24Z</time>
</trkpt>
<trkpt lat="35.1640888" lon="32.5474884">
<ele>27.48</ele>
<time>2015-04-26T13:42:25Z</time>
</trkpt>
<trkpt lat="35.1641452" lon="32.5474437">
<ele>26.70</ele>
<time>2015-04-26T13:42:26Z</time>
</trkpt>
<trkpt lat="35.1642072" lon="32.5474050">
<ele>26.81</ele>
<time>2015-04-26T13:42:27Z</time>
</trkpt>
<trkpt lat="35.1642692" lon="32.5473561">
<ele>25.87</ele>
<time>2015-04-26T13:42:28Z</time>
</trkpt>
<trkpt lat="35.1643291" lon="32.5473079">
<ele>25.40</ele>
<time>2015-04-26T13:42:29Z</time>
</trkpt>
<trkpt lat="35.1643871" lon="32.5472557">
<ele>25.16</ele>
<time>2015-04-26T13:42:30Z</time>
</trkpt>
<trkpt lat="35.1644426" lon="32.5472017">
<ele>25.04</ele>
<time>2015-04-26T13:42:31Z</time>
</trkpt>
<trkpt lat="35.1644937" lon="32.5471440">
<ele>25.48</ele>
<time>2015-04-26T13:42:32Z</time>
</trkpt>
<trkpt lat="35.1645265" lon="32.5470912">
<ele>25.70</ele>
<time>2015-04-26T13:42:33Z</time>
</trkpt>
<trkpt lat="35.1645627" lon="32.5470405">
<ele>25.31</ele>
<time>2015-04-26T13:42:34Z</time>
</trkpt>
<trkpt lat="35.1645581" lon="32.5469768">
<ele>24.52</ele>
<time>2015-04-26T13:42:36Z</time>
</trkpt>
<trkpt lat="35.1645491" lon="32.5469058">
<ele>24.07</ele>
<time>2015-04-26T13:42:38Z</time>
</trkpt>
<trkpt lat="35.1644939" lon="32.5468796">
<ele>23.94</ele>
<time>2015-04-26T13:42:41Z</time>
</trkpt>
<trkpt lat="35.1644264" lon="32.5468752">
<ele>23.05</ele>
<time>2015-04-26T13:42:44Z</time>
</trkpt>
<trkpt lat="35.1643778" lon="32.5468639">
<ele>23.46</ele>
<time>2015-04-26T13:42:46Z</time>
</trkpt>
<trkpt lat="35.1643272" lon="32.5468585">
<ele>23.06</ele>
<time>2015-04-26T13:42:48Z</time>
</trkpt>
<trkpt lat="35.1642610" lon="32.5468708">
<ele>22.96</ele>
<time>2015-04-26T13:42:50Z</time>
</trkpt>
<trkpt lat="35.1641919" lon="32.5468710">
<ele>22.68</ele>
<time>2015-04-26T13:42:52Z</time>
</trkpt>
<trkpt lat="35.1641201" lon="32.5468732">
<ele>22.86</ele>
<time>2015-04-26T13:42:54Z</time>
</trkpt>
<trkpt lat="35.1640494" lon="32.5468707">
<ele>22.91</ele>
<time>2015-04-26T13:42:56Z</time>
</trkpt>
<trkpt lat="35.1639756" lon="32.5468698">
<ele>22.92</ele>
<time>2015-04-26T13:42:58Z</time>
</trkpt>
<trkpt lat="35.1639025" lon="32.5468666">
<ele>22.92</ele>
<time>2015-04-26T13:43:00Z</time>
</trkpt>
<trkpt lat="35.1638295" lon="32.5468627">
<ele>23.42</ele>
<time>2015-04-26T13:43:02Z</time>
</trkpt>
<trkpt lat="35.1637582" lon="32.5468570">
<ele>23.80</ele>
<time>2015-04-26T13:43:04Z</time>
</trkpt>
<trkpt lat="35.1636893" lon="32.5468513">
<ele>23.89</ele>
<time>2015-04-26T13:43:06Z</time>
</trkpt>
<trkpt lat="35.1636329" lon="32.5468484">
<ele>23.92</ele>
<time>2015-04-26T13:43:08Z</time>
</trkpt>
<trkpt lat="35.1635768" lon="32.5468472">
<ele>24.67</ele>
<time>2015-04-26T13:43:10Z</time>
</trkpt>
<trkpt lat="35.1635241" lon="32.5468464">
<ele>24.86</ele>
<time>2015-04-26T13:43:12Z</time>
</trkpt>
<trkpt lat="35.1634601" lon="32.5468444">
<ele>24.92</ele>
<time>2015-04-26T13:43:15Z</time>
</trkpt>
<trkpt lat="35.1633971" lon="32.5468403">
<ele>24.92</ele>
<time>2015-04-26T13:43:18Z</time>
</trkpt>
<trkpt lat="35.1633335" lon="32.5468456">
<ele>25.67</ele>
<time>2015-04-26T13:43:21Z</time>
</trkpt>
<trkpt lat="35.1632878" lon="32.5468383">
<ele>25.86</ele>
<time>2015-04-26T13:43:23Z</time>
</trkpt>
<trkpt lat="35.1632329" lon="32.5468365">
<ele>25.16</ele>
<time>2015-04-26T13:43:25Z</time>
</trkpt>
<trkpt lat="35.1631691" lon="32.5468395">
<ele>24.23</ele>
<time>2015-04-26T13:43:27Z</time>
</trkpt>
<trkpt lat="35.1631051" lon="32.5468392">
<ele>24.00</ele>
<time>2015-04-26T13:43:29Z</time>
</trkpt>
<trkpt lat="35.1630449" lon="32.5468370">
<ele>24.19</ele>
<time>2015-04-26T13:43:31Z</time>
</trkpt>
<trkpt lat="35.1629940" lon="32.5468332">
<ele>24.49</ele>
<time>2015-04-26T13:43:33Z</time>
</trkpt>
<trkpt lat="35.1629289" lon="32.5468292">
<ele>24.87</ele>
<time>2015-04-26T13:43:36Z</time>
</trkpt>
<trkpt lat="35.1628675" lon="32.5468242">
<ele>24.04</ele>
<time>2015-04-26T13:43:39Z</time>
</trkpt>
<trkpt lat="35.1628104" lon="32.5468174">
<ele>23.94</ele>
<time>2015-04-26T13:43:42Z</time>
</trkpt>
<trkpt lat="35.1627466" lon="32.5468170">
<ele>24.80</ele>
<time>2015-04-26T13:43:45Z</time>
</trkpt>
<trkpt lat="35.1626890" lon="32.5468120">
<ele>24.39</ele>
<time>2015-04-26T13:43:47Z</time>
</trkpt>
<trkpt lat="35.1626332" lon="32.5468105">
<ele>24.54</ele>
<time>2015-04-26T13:43:49Z</time>
</trkpt>
<trkpt lat="35.1625815" lon="32.5468162">
<ele>24.83</ele>
<time>2015-04-26T13:43:51Z</time>
</trkpt>
<trkpt lat="35.1625353" lon="32.5468319">
<ele>24.90</ele>
<time>2015-04-26T13:43:53Z</time>
</trkpt>
<trkpt lat="35.1624863" lon="32.5468297">
<ele>25.30</ele>
<time>2015-04-26T13:43:56Z</time>
</trkpt>
<trkpt lat="35.1624260" lon="32.5468267">
<ele>25.60</ele>
<time>2015-04-26T13:43:59Z</time>
</trkpt>
<trkpt lat="35.1623677" lon="32.5468362">
<ele>25.84</ele>
<time>2015-04-26T13:44:01Z</time>
</trkpt>
<trkpt lat="35.1623059" lon="32.5468231">
<ele>25.90</ele>
<time>2015-04-26T13:44:03Z</time>
</trkpt>
<trkpt lat="35.1622463" lon="32.5468099">
<ele>25.92</ele>
<time>2015-04-26T13:44:05Z</time>
</trkpt>
<trkpt lat="35.1621908" lon="32.5468065">
<ele>25.92</ele>
<time>2015-04-26T13:44:07Z</time>
</trkpt>
<trkpt lat="35.1621321" lon="32.5467958">
<ele>25.92</ele>
<time>2015-04-26T13:44:10Z</time>
</trkpt>
<trkpt lat="35.1620778" lon="32.5467766">
<ele>25.42</ele>
<time>2015-04-26T13:44:13Z</time>
</trkpt>
<trkpt lat="35.1620177" lon="32.5467585">
<ele>25.74</ele>
<time>2015-04-26T13:44:16Z</time>
</trkpt>
<trkpt lat="35.1619723" lon="32.5467380">
<ele>25.13</ele>
<time>2015-04-26T13:44:18Z</time>
</trkpt>
<trkpt lat="35.1619275" lon="32.5467223">
<ele>24.98</ele>
<time>2015-04-26T13:44:20Z</time>
</trkpt>
<trkpt lat="35.1618635" lon="32.5466926">
<ele>24.18</ele>
<time>2015-04-26T13:44:23Z</time>
</trkpt>
<trkpt lat="35.1618132" lon="32.5466638">
<ele>24.49</ele>
<time>2015-04-26T13:44:25Z</time>
</trkpt>
<trkpt lat="35.1617596" lon="32.5466370">
<ele>26.07</ele>
<time>2015-04-26T13:44:27Z</time>
</trkpt>
<trkpt lat="35.1617108" lon="32.5466078">
<ele>26.21</ele>
<time>2015-04-26T13:44:29Z</time>
</trkpt>
<trkpt lat="35.1616630" lon="32.5465843">
<ele>26.75</ele>
<time>2015-04-26T13:44:31Z</time>
</trkpt>
<trkpt lat="35.1616230" lon="32.5465528">
<ele>26.88</ele>
<time>2015-04-26T13:44:33Z</time>
</trkpt>
<trkpt lat="35.1615869" lon="32.5465178">
<ele>27.41</ele>
<time>2015-04-26T13:44:35Z</time>
</trkpt>
<trkpt lat="35.1615465" lon="32.5464832">
<ele>27.80</ele>
<time>2015-04-26T13:44:37Z</time>
</trkpt>
<trkpt lat="35.1614959" lon="32.5464377">
<ele>28.39</ele>
<time>2015-04-26T13:44:39Z</time>
</trkpt>
<trkpt lat="35.1614431" lon="32.5463880">
<ele>29.29</ele>
<time>2015-04-26T13:44:41Z</time>
</trkpt>
<trkpt lat="35.1613998" lon="32.5463408">
<ele>29.77</ele>
<time>2015-04-26T13:44:43Z</time>
</trkpt>
<trkpt lat="35.1613621" lon="32.5462920">
<ele>29.89</ele>
<time>2015-04-26T13:44:45Z</time>
</trkpt>
<trkpt lat="35.1613305" lon="32.5462365">
<ele>29.92</ele>
<time>2015-04-26T13:44:47Z</time>
</trkpt>
<trkpt lat="35.1613100" lon="32.5461776">
<ele>29.17</ele>
<time>2015-04-26T13:44:49Z</time>
</trkpt>
<trkpt lat="35.1612788" lon="32.5461264">
<ele>28.00</ele>
<time>2015-04-26T13:44:54Z</time>
</trkpt>
<trkpt lat="35.1612367" lon="32.5460869">
<ele>27.94</ele>
<time>2015-04-26T13:44:56Z</time>
</trkpt>
<trkpt lat="35.1612046" lon="32.5460252">
<ele>28.43</ele>
<time>2015-04-26T13:44:58Z</time>
</trkpt>
<trkpt lat="35.1612030" lon="32.5459682">
<ele>28.80</ele>
<time>2015-04-26T13:45:00Z</time>
</trkpt>
<trkpt lat="35.1612324" lon="32.5459263">
<ele>29.39</ele>
<time>2015-04-26T13:45:02Z</time>
</trkpt>
<trkpt lat="35.1612598" lon="32.5458577">
<ele>29.86</ele>
<time>2015-04-26T13:45:05Z</time>
</trkpt>
<trkpt lat="35.1612473" lon="32.5458042">
<ele>29.66</ele>
<time>2015-04-26T13:45:07Z</time>
</trkpt>
<trkpt lat="35.1612310" lon="32.5457292">
<ele>29.64</ele>
<time>2015-04-26T13:45:10Z</time>
</trkpt>
<trkpt lat="35.1612106" lon="32.5456564">
<ele>29.39</ele>
<time>2015-04-26T13:45:13Z</time>
</trkpt>
<trkpt lat="35.1611867" lon="32.5455794">
<ele>29.36</ele>
<time>2015-04-26T13:45:16Z</time>
</trkpt>
<trkpt lat="35.1611624" lon="32.5455032">
<ele>29.85</ele>
<time>2015-04-26T13:45:19Z</time>
</trkpt>
<trkpt lat="35.1611315" lon="32.5454383">
<ele>29.79</ele>
<time>2015-04-26T13:45:22Z</time>
</trkpt>
<trkpt lat="35.1611066" lon="32.5453874">
<ele>30.66</ele>
<time>2015-04-26T13:45:25Z</time>
</trkpt>
<trkpt lat="35.1610725" lon="32.5453299">
<ele>30.89</ele>
<time>2015-04-26T13:45:28Z</time>
</trkpt>
<trkpt lat="35.1610312" lon="32.5452746">
<ele>32.55</ele>
<time>2015-04-26T13:45:31Z</time>
</trkpt>
<trkpt lat="35.1609872" lon="32.5452388">
<ele>32.40</ele>
<time>2015-04-26T13:45:35Z</time>
</trkpt>
<trkpt lat="35.1609431" lon="32.5452039">
<ele>32.48</ele>
<time>2015-04-26T13:45:38Z</time>
</trkpt>
<trkpt lat="35.1608953" lon="32.5451670">
<ele>32.24</ele>
<time>2015-04-26T13:45:41Z</time>
</trkpt>
<trkpt lat="35.1608377" lon="32.5451385">
<ele>32.71</ele>
<time>2015-04-26T13:45:44Z</time>
</trkpt>
<trkpt lat="35.1607948" lon="32.5451219">
<ele>32.87</ele>
<time>2015-04-26T13:45:46Z</time>
</trkpt>
<trkpt lat="35.1607324" lon="32.5450996">
<ele>32.92</ele>
<time>2015-04-26T13:45:49Z</time>
</trkpt>
<trkpt lat="35.1606892" lon="32.5450801">
<ele>33.42</ele>
<time>2015-04-26T13:45:51Z</time>
</trkpt>
<trkpt lat="35.1606448" lon="32.5450627">
<ele>33.67</ele>
<time>2015-04-26T13:45:53Z</time>
</trkpt>
<trkpt lat="35.1605832" lon="32.5450350">
<ele>33.89</ele>
<time>2015-04-26T13:45:56Z</time>
</trkpt>
<trkpt lat="35.1605265" lon="32.5450118">
<ele>33.92</ele>
<time>2015-04-26T13:45:59Z</time>
</trkpt>
<trkpt lat="35.1604854" lon="32.5449860">
<ele>33.67</ele>
<time>2015-04-26T13:46:01Z</time>
</trkpt>
<trkpt lat="35.1604389" lon="32.5449678">
<ele>33.36</ele>
<time>2015-04-26T13:46:03Z</time>
</trkpt>
<trkpt lat="35.1603909" lon="32.5449532">
<ele>32.53</ele>
<time>2015-04-26T13:46:05Z</time>
</trkpt>
<trkpt lat="35.1603461" lon="32.5449281">
<ele>31.58</ele>
<time>2015-04-26T13:46:07Z</time>
</trkpt>
<trkpt lat="35.1603009" lon="32.5449046">
<ele>31.09</ele>
<time>2015-04-26T13:46:09Z</time>
</trkpt>
<trkpt lat="35.1602530" lon="32.5448855">
<ele>30.97</ele>
<time>2015-04-26T13:46:11Z</time>
</trkpt>
<trkpt lat="35.1602067" lon="32.5448657">
<ele>30.94</ele>
<time>2015-04-26T13:46:13Z</time>
</trkpt>
<trkpt lat="35.1601655" lon="32.5448406">
<ele>31.68</ele>
<time>2015-04-26T13:46:15Z</time>
</trkpt>
<trkpt lat="35.1601509" lon="32.5448933">
<ele>29.93</ele>
<time>2015-04-26T13:46:28Z</time>
</trkpt>
<trkpt lat="35.1601430" lon="32.5449659">
<ele>29.92</ele>
<time>2015-04-26T13:46:43Z</time>
</trkpt>
<trkpt lat="35.1601732" lon="32.5450293">
<ele>31.17</ele>
<time>2015-04-26T13:46:45Z</time>
</trkpt>
<trkpt lat="35.1601870" lon="32.5450865">
<ele>31.99</ele>
<time>2015-04-26T13:46:47Z</time>
</trkpt>
<trkpt lat="35.1602042" lon="32.5451373">
<ele>32.96</ele>
<time>2015-04-26T13:46:49Z</time>
</trkpt>
<trkpt lat="35.1602260" lon="32.5451879">
<ele>33.94</ele>
<time>2015-04-26T13:46:51Z</time>
</trkpt>
<trkpt lat="35.1602441" lon="32.5452478">
<ele>34.93</ele>
<time>2015-04-26T13:46:53Z</time>
</trkpt>
<trkpt lat="35.1602641" lon="32.5453110">
<ele>34.93</ele>
<time>2015-04-26T13:46:55Z</time>
</trkpt>
<trkpt lat="35.1602835" lon="32.5453723">
<ele>35.43</ele>
<time>2015-04-26T13:46:57Z</time>
</trkpt>
<trkpt lat="35.1603003" lon="32.5454324">
<ele>35.30</ele>
<time>2015-04-26T13:46:59Z</time>
</trkpt>
<trkpt lat="35.1603158" lon="32.5454927">
<ele>35.77</ele>
<time>2015-04-26T13:47:01Z</time>
</trkpt>
<trkpt lat="35.1603313" lon="32.5455535">
<ele>35.89</ele>
<time>2015-04-26T13:47:03Z</time>
</trkpt>
<trkpt lat="35.1603488" lon="32.5456127">
<ele>35.92</ele>
<time>2015-04-26T13:47:05Z</time>
</trkpt>
<trkpt lat="35.1603684" lon="32.5456722">
<ele>35.17</ele>
<time>2015-04-26T13:47:09Z</time>
</trkpt>
<trkpt lat="35.1603914" lon="32.5457290">
<ele>34.93</ele>
<time>2015-04-26T13:47:15Z</time>
</trkpt>
<trkpt lat="35.1604134" lon="32.5457825">
<ele>35.80</ele>
<time>2015-04-26T13:47:20Z</time>
</trkpt>
<trkpt lat="35.1604672" lon="32.5457641">
<ele>35.41</ele>
<time>2015-04-26T13:47:23Z</time>
</trkpt>
<trkpt lat="35.1605172" lon="32.5457387">
<ele>35.55</ele>
<time>2015-04-26T13:47:25Z</time>
</trkpt>
<trkpt lat="35.1605655" lon="32.5457118">
<ele>36.83</ele>
<time>2015-04-26T13:47:27Z</time>
</trkpt>
<trkpt lat="35.1606168" lon="32.5456905">
<ele>37.41</ele>
<time>2015-04-26T13:47:30Z</time>
</trkpt>
<trkpt lat="35.1606599" lon="32.5457094">
<ele>36.74</ele>
<time>2015-04-26T13:47:33Z</time>
</trkpt>
<trkpt lat="35.1606954" lon="32.5456648">
<ele>34.35</ele>
<time>2015-04-26T13:47:37Z</time>
</trkpt>
<trkpt lat="35.1606536" lon="32.5456913">
<ele>35.40</ele>
<time>2015-04-26T13:47:46Z</time>
</trkpt>
<trkpt lat="35.1605894" lon="32.5457018">
<ele>35.77</ele>
<time>2015-04-26T13:47:50Z</time>
</trkpt>
<trkpt lat="35.1605462" lon="32.5457223">
<ele>35.14</ele>
<time>2015-04-26T13:47:52Z</time>
</trkpt>
<trkpt lat="35.1604871" lon="32.5457316">
<ele>34.08</ele>
<time>2015-04-26T13:47:55Z</time>
</trkpt>
<trkpt lat="35.1604250" lon="32.5457376">
<ele>32.82</ele>
<time>2015-04-26T13:47:58Z</time>
</trkpt>
<trkpt lat="35.1603779" lon="32.5457247">
<ele>32.66</ele>
<time>2015-04-26T13:48:01Z</time>
</trkpt>
<trkpt lat="35.1603567" lon="32.5456499">
<ele>33.14</ele>
<time>2015-04-26T13:48:04Z</time>
</trkpt>
<trkpt lat="35.1603475" lon="32.5455784">
<ele>31.73</ele>
<time>2015-04-26T13:48:06Z</time>
</trkpt>
<trkpt lat="35.1603341" lon="32.5455031">
<ele>29.38</ele>
<time>2015-04-26T13:48:08Z</time>
</trkpt>
<trkpt lat="35.1603161" lon="32.5454246">
<ele>27.29</ele>
<time>2015-04-26T13:48:10Z</time>
</trkpt>
<trkpt lat="35.1602967" lon="32.5453430">
<ele>27.02</ele>
<time>2015-04-26T13:48:12Z</time>
</trkpt>
<trkpt lat="35.1602687" lon="32.5452624">
<ele>27.20</ele>
<time>2015-04-26T13:48:14Z</time>
</trkpt>
<trkpt lat="35.1602383" lon="32.5451807">
<ele>27.49</ele>
<time>2015-04-26T13:48:16Z</time>
</trkpt>
<trkpt lat="35.1602018" lon="32.5450954">
<ele>28.57</ele>
<time>2015-04-26T13:48:18Z</time>
</trkpt>
<trkpt lat="35.1601441" lon="32.5449769">
<ele>30.84</ele>
<time>2015-04-26T13:48:20Z</time>
</trkpt>
<trkpt lat="35.1601153" lon="32.5448986">
<ele>31.15</ele>
<time>2015-04-26T13:48:22Z</time>
</trkpt>
<trkpt lat="35.1601071" lon="32.5448373">
<ele>30.73</ele>
<time>2015-04-26T13:48:24Z</time>
</trkpt>
<trkpt lat="35.1600671" lon="32.5447720">
<ele>30.13</ele>
<time>2015-04-26T13:48:26Z</time>
</trkpt>
<trkpt lat="35.1600240" lon="32.5447302">
<ele>28.23</ele>
<time>2015-04-26T13:48:28Z</time>
</trkpt>
<trkpt lat="35.1599640" lon="32.5446970">
<ele>26.50</ele>
<time>2015-04-26T13:48:30Z</time>
</trkpt>
<trkpt lat="35.1599196" lon="32.5446842">
<ele>27.21</ele>
<time>2015-04-26T13:48:31Z</time>
</trkpt>
<trkpt lat="35.1598427" lon="32.5446385">
<ele>28.50</ele>
<time>2015-04-26T13:48:33Z</time>
</trkpt>
<trkpt lat="35.1597998" lon="32.5446113">
<ele>29.21</ele>
<time>2015-04-26T13:48:34Z</time>
</trkpt>
<trkpt lat="35.1597633" lon="32.5445757">
<ele>29.57</ele>
<time>2015-04-26T13:48:35Z</time>
</trkpt>
<trkpt lat="35.1596895" lon="32.5445170">
<ele>30.84</ele>
<time>2015-04-26T13:48:37Z</time>
</trkpt>
<trkpt lat="35.1596268" lon="32.5444666">
<ele>31.65</ele>
<time>2015-04-26T13:48:39Z</time>
</trkpt>
<trkpt lat="35.1595572" lon="32.5444174">
<ele>31.61</ele>
<time>2015-04-26T13:48:41Z</time>
</trkpt>
<trkpt lat="35.1595230" lon="32.5443810">
<ele>30.77</ele>
<time>2015-04-26T13:48:42Z</time>
</trkpt>
<trkpt lat="35.1594658" lon="32.5443240">
<ele>30.14</ele>
<time>2015-04-26T13:48:44Z</time>
</trkpt>
<trkpt lat="35.1594187" lon="32.5442724">
<ele>30.23</ele>
<time>2015-04-26T13:48:46Z</time>
</trkpt>
<trkpt lat="35.1593786" lon="32.5442282">
<ele>29.25</ele>
<time>2015-04-26T13:48:48Z</time>
</trkpt>
<trkpt lat="35.1593361" lon="32.5441935">
<ele>29.76</ele>
<time>2015-04-26T13:48:50Z</time>
</trkpt>
<trkpt lat="35.1592906" lon="32.5441614">
<ele>29.88</ele>
<time>2015-04-26T13:48:52Z</time>
</trkpt>
<trkpt lat="35.1592413" lon="32.5441253">
<ele>29.91</ele>
<time>2015-04-26T13:48:54Z</time>
</trkpt>
<trkpt lat="35.1591920" lon="32.5440785">
<ele>30.67</ele>
<time>2015-04-26T13:48:56Z</time>
</trkpt>
<trkpt lat="35.1591447" lon="32.5440288">
<ele>30.36</ele>
<time>2015-04-26T13:48:58Z</time>
</trkpt>
<trkpt lat="35.1590922" lon="32.5439769">
<ele>31.28</ele>
<time>2015-04-26T13:49:00Z</time>
</trkpt>
<trkpt lat="35.1590315" lon="32.5439306">
<ele>32.26</ele>
<time>2015-04-26T13:49:02Z</time>
</trkpt>
<trkpt lat="35.1589742" lon="32.5438793">
<ele>32.76</ele>
<time>2015-04-26T13:49:04Z</time>
</trkpt>
<trkpt lat="35.1589248" lon="32.5438232">
<ele>32.13</ele>
<time>2015-04-26T13:49:06Z</time>
</trkpt>
<trkpt lat="35.1588792" lon="32.5437667">
<ele>31.48</ele>
<time>2015-04-26T13:49:08Z</time>
</trkpt>
<trkpt lat="35.1588289" lon="32.5437093">
<ele>32.56</ele>
<time>2015-04-26T13:49:10Z</time>
</trkpt>
<trkpt lat="35.1587767" lon="32.5436456">
<ele>33.33</ele>
<time>2015-04-26T13:49:12Z</time>
</trkpt>
<trkpt lat="35.1587295" lon="32.5435790">
<ele>33.78</ele>
<time>2015-04-26T13:49:14Z</time>
</trkpt>
<trkpt lat="35.1586865" lon="32.5435106">
<ele>33.39</ele>
<time>2015-04-26T13:49:16Z</time>
</trkpt>
<trkpt lat="35.1586474" lon="32.5434433">
<ele>32.29</ele>
<time>2015-04-26T13:49:18Z</time>
</trkpt>
<trkpt lat="35.1586050" lon="32.5433769">
<ele>30.77</ele>
<time>2015-04-26T13:49:20Z</time>
</trkpt>
<trkpt lat="35.1585632" lon="32.5433145">
<ele>30.14</ele>
<time>2015-04-26T13:49:22Z</time>
</trkpt>
<trkpt lat="35.1585225" lon="32.5432577">
<ele>29.48</ele>
<time>2015-04-26T13:49:24Z</time>
</trkpt>
<trkpt lat="35.1584841" lon="32.5432037">
<ele>30.56</ele>
<time>2015-04-26T13:49:26Z</time>
</trkpt>
<trkpt lat="35.1584501" lon="32.5431557">
<ele>30.33</ele>
<time>2015-04-26T13:49:28Z</time>
</trkpt>
<trkpt lat="35.1584090" lon="32.5431074">
<ele>30.03</ele>
<time>2015-04-26T13:49:30Z</time>
</trkpt>
<trkpt lat="35.1583754" lon="32.5430624">
<ele>30.45</ele>
<time>2015-04-26T13:49:32Z</time>
</trkpt>
<trkpt lat="35.1583359" lon="32.5430219">
<ele>30.81</ele>
<time>2015-04-26T13:49:34Z</time>
</trkpt>
<trkpt lat="35.1582858" lon="32.5429733">
<ele>31.41</ele>
<time>2015-04-26T13:49:37Z</time>
</trkpt>
<trkpt lat="35.1582452" lon="32.5429386">
<ele>31.80</ele>
<time>2015-04-26T13:49:39Z</time>
</trkpt>
<trkpt lat="35.1582006" lon="32.5429023">
<ele>31.64</ele>
<time>2015-04-26T13:49:41Z</time>
</trkpt>
<trkpt lat="35.1581509" lon="32.5428704">
<ele>32.35</ele>
<time>2015-04-26T13:49:43Z</time>
</trkpt>
<trkpt lat="35.1580969" lon="32.5428407">
<ele>33.28</ele>
<time>2015-04-26T13:49:45Z</time>
</trkpt>
<trkpt lat="35.1580422" lon="32.5428169">
<ele>35.26</ele>
<time>2015-04-26T13:49:47Z</time>
</trkpt>
<trkpt lat="35.1579918" lon="32.5428012">
<ele>35.26</ele>
<time>2015-04-26T13:49:49Z</time>
</trkpt>
<trkpt lat="35.1579425" lon="32.5428056">
<ele>36.26</ele>
<time>2015-04-26T13:49:51Z</time>
</trkpt>
<trkpt lat="35.1578964" lon="32.5428144">
<ele>36.01</ele>
<time>2015-04-26T13:49:53Z</time>
</trkpt>
<trkpt lat="35.1578477" lon="32.5428235">
<ele>36.20</ele>
<time>2015-04-26T13:49:55Z</time>
</trkpt>
<trkpt lat="35.1577979" lon="32.5428353">
<ele>36.49</ele>
<time>2015-04-26T13:49:57Z</time>
</trkpt>
<trkpt lat="35.1577450" lon="32.5428426">
<ele>36.32</ele>
<time>2015-04-26T13:49:59Z</time>
</trkpt>
<trkpt lat="35.1576899" lon="32.5428521">
<ele>35.27</ele>
<time>2015-04-26T13:50:01Z</time>
</trkpt>
<trkpt lat="35.1576316" lon="32.5428640">
<ele>35.01</ele>
<time>2015-04-26T13:50:03Z</time>
</trkpt>
<trkpt lat="35.1575703" lon="32.5428788">
<ele>34.45</ele>
<time>2015-04-26T13:50:05Z</time>
</trkpt>
<trkpt lat="35.1575051" lon="32.5428967">
<ele>34.56</ele>
<time>2015-04-26T13:50:07Z</time>
</trkpt>
<trkpt lat="35.1574368" lon="32.5429133">
<ele>35.58</ele>
<time>2015-04-26T13:50:09Z</time>
</trkpt>
<trkpt lat="35.1573610" lon="32.5429216">
<ele>35.59</ele>
<time>2015-04-26T13:50:11Z</time>
</trkpt>
<trkpt lat="35.1572745" lon="32.5429293">
<ele>35.84</ele>
<time>2015-04-26T13:50:13Z</time>
</trkpt>
<trkpt lat="35.1572292" lon="32.5429365">
<ele>36.38</ele>
<time>2015-04-26T13:50:14Z</time>
</trkpt>
<trkpt lat="35.1571520" lon="32.5429523">
<ele>36.65</ele>
<time>2015-04-26T13:50:15Z</time>
</trkpt>
<trkpt lat="35.1570970" lon="32.5429545">
<ele>37.29</ele>
<time>2015-04-26T13:50:16Z</time>
</trkpt>
<trkpt lat="35.1570459" lon="32.5429582">
<ele>37.61</ele>
<time>2015-04-26T13:50:17Z</time>
</trkpt>
<trkpt lat="35.1569909" lon="32.5429598">
<ele>37.77</ele>
<time>2015-04-26T13:50:18Z</time>
</trkpt>
<trkpt lat="35.1569323" lon="32.5429640">
<ele>36.85</ele>
<time>2015-04-26T13:50:19Z</time>
</trkpt>
<trkpt lat="35.1568769" lon="32.5429685">
<ele>36.39</ele>
<time>2015-04-26T13:50:20Z</time>
</trkpt>
<trkpt lat="35.1568232" lon="32.5429698">
<ele>36.16</ele>
<time>2015-04-26T13:50:21Z</time>
</trkpt>
<trkpt lat="35.1567678" lon="32.5429581">
<ele>36.54</ele>
<time>2015-04-26T13:50:22Z</time>
</trkpt>
<trkpt lat="35.1567081" lon="32.5429417">
<ele>36.73</ele>
<time>2015-04-26T13:50:23Z</time>
</trkpt>
<trkpt lat="35.1566500" lon="32.5429170">
<ele>36.83</ele>
<time>2015-04-26T13:50:24Z</time>
</trkpt>
<trkpt lat="35.1565950" lon="32.5428914">
<ele>36.88</ele>
<time>2015-04-26T13:50:25Z</time>
</trkpt>
<trkpt lat="35.1565399" lon="32.5428624">
<ele>36.90</ele>
<time>2015-04-26T13:50:26Z</time>
</trkpt>
<trkpt lat="35.1564848" lon="32.5428236">
<ele>36.41</ele>
<time>2015-04-26T13:50:27Z</time>
</trkpt>
<trkpt lat="35.1564354" lon="32.5427842">
<ele>36.17</ele>
<time>2015-04-26T13:50:28Z</time>
</trkpt>
<trkpt lat="35.1563781" lon="32.5427546">
<ele>36.05</ele>
<time>2015-04-26T13:50:29Z</time>
</trkpt>
<trkpt lat="35.1563224" lon="32.5427178">
<ele>35.49</ele>
<time>2015-04-26T13:50:30Z</time>
</trkpt>
<trkpt lat="35.1562741" lon="32.5426582">
<ele>34.71</ele>
<time>2015-04-26T13:50:31Z</time>
</trkpt>
<trkpt lat="35.1562174" lon="32.5425946">
<ele>33.82</ele>
<time>2015-04-26T13:50:32Z</time>
</trkpt>
<trkpt lat="35.1561628" lon="32.5425568">
<ele>33.37</ele>
<time>2015-04-26T13:50:33Z</time>
</trkpt>
<trkpt lat="35.1560999" lon="32.5424985">
<ele>33.65</ele>
<time>2015-04-26T13:50:34Z</time>
</trkpt>
<trkpt lat="35.1560384" lon="32.5424510">
<ele>33.79</ele>
<time>2015-04-26T13:50:35Z</time>
</trkpt>
<trkpt lat="35.1559812" lon="32.5423918">
<ele>33.86</ele>
<time>2015-04-26T13:50:36Z</time>
</trkpt>
<trkpt lat="35.1559160" lon="32.5423399">
<ele>34.39</ele>
<time>2015-04-26T13:50:37Z</time>
</trkpt>
<trkpt lat="35.1558518" lon="32.5422869">
<ele>34.66</ele>
<time>2015-04-26T13:50:38Z</time>
</trkpt>
<trkpt lat="35.1557831" lon="32.5422421">
<ele>34.79</ele>
<time>2015-04-26T13:50:39Z</time>
</trkpt>
<trkpt lat="35.1557217" lon="32.5421822">
<ele>34.86</ele>
<time>2015-04-26T13:50:40Z</time>
</trkpt>
<trkpt lat="35.1556606" lon="32.5421262">
<ele>34.39</ele>
<time>2015-04-26T13:50:41Z</time>
</trkpt>
<trkpt lat="35.1555956" lon="32.5420752">
<ele>33.66</ele>
<time>2015-04-26T13:50:42Z</time>
</trkpt>
<trkpt lat="35.1555295" lon="32.5420247">
<ele>33.29</ele>
<time>2015-04-26T13:50:43Z</time>
</trkpt>
<trkpt lat="35.1554619" lon="32.5419727">
<ele>32.61</ele>
<time>2015-04-26T13:50:44Z</time>
</trkpt>
<trkpt lat="35.1553919" lon="32.5419143">
<ele>32.77</ele>
<time>2015-04-26T13:50:45Z</time>
</trkpt>
<trkpt lat="35.1553190" lon="32.5418678">
<ele>33.35</ele>
<time>2015-04-26T13:50:46Z</time>
</trkpt>
<trkpt lat="35.1552502" lon="32.5418263">
<ele>33.14</ele>
<time>2015-04-26T13:50:47Z</time>
</trkpt>
<trkpt lat="35.1551778" lon="32.5417936">
<ele>33.03</ele>
<time>2015-04-26T13:50:48Z</time>
</trkpt>
<trkpt lat="35.1551155" lon="32.5417553">
<ele>32.48</ele>
<time>2015-04-26T13:50:49Z</time>
</trkpt>
<trkpt lat="35.1550494" lon="32.5417137">
<ele>32.20</ele>
<time>2015-04-26T13:50:50Z</time>
</trkpt>
<trkpt lat="35.1549896" lon="32.5416833">
<ele>31.56</ele>
<time>2015-04-26T13:50:51Z</time>
</trkpt>
<trkpt lat="35.1549244" lon="32.5416547">
<ele>31.74</ele>
<time>2015-04-26T13:50:52Z</time>
</trkpt>
<trkpt lat="35.1548636" lon="32.5416224">
<ele>31.83</ele>
<time>2015-04-26T13:50:53Z</time>
</trkpt>
<trkpt lat="35.1548029" lon="32.5416077">
<ele>32.38</ele>
<time>2015-04-26T13:50:54Z</time>
</trkpt>
<trkpt lat="35.1547457" lon="32.5415763">
<ele>32.65</ele>
<time>2015-04-26T13:50:55Z</time>
</trkpt>
<trkpt lat="35.1546907" lon="32.5415550">
<ele>32.29</ele>
<time>2015-04-26T13:50:56Z</time>
</trkpt>
<trkpt lat="35.1546422" lon="32.5415249">
<ele>32.11</ele>
<time>2015-04-26T13:50:57Z</time>
</trkpt>
<trkpt lat="35.1545888" lon="32.5414984">
<ele>32.52</ele>
<time>2015-04-26T13:50:58Z</time>
</trkpt>
<trkpt lat="35.1545396" lon="32.5414728">
<ele>33.22</ele>
<time>2015-04-26T13:50:59Z</time>
</trkpt>
<trkpt lat="35.1544884" lon="32.5414517">
<ele>33.57</ele>
<time>2015-04-26T13:51:00Z</time>
</trkpt>
<trkpt lat="35.1544394" lon="32.5414236">
<ele>33.75</ele>
<time>2015-04-26T13:51:01Z</time>
</trkpt>
<trkpt lat="35.1543884" lon="32.5414026">
<ele>34.34</ele>
<time>2015-04-26T13:51:02Z</time>
</trkpt>
<trkpt lat="35.1543394" lon="32.5413750">
<ele>35.13</ele>
<time>2015-04-26T13:51:03Z</time>
</trkpt>
<trkpt lat="35.1542562" lon="32.5413374">
<ele>35.73</ele>
<time>2015-04-26T13:51:05Z</time>
</trkpt>
<trkpt lat="35.1541938" lon="32.5413030">
<ele>34.63</ele>
<time>2015-04-26T13:51:07Z</time>
</trkpt>
<trkpt lat="35.1541193" lon="32.5412685">
<ele>35.35</ele>
<time>2015-04-26T13:51:09Z</time>
</trkpt>
<trkpt lat="35.1540675" lon="32.5412231">
<ele>35.78</ele>
<time>2015-04-26T13:51:11Z</time>
</trkpt>
<trkpt lat="35.1540128" lon="32.5412004">
<ele>36.64</ele>
<time>2015-04-26T13:51:13Z</time>
</trkpt>
<trkpt lat="35.1539578" lon="32.5411681">
<ele>37.85</ele>
<time>2015-04-26T13:51:15Z</time>
</trkpt>
<trkpt lat="35.1539096" lon="32.5411363">
<ele>37.91</ele>
<time>2015-04-26T13:51:17Z</time>
</trkpt>
<trkpt lat="35.1538636" lon="32.5411046">
<ele>37.67</ele>
<time>2015-04-26T13:51:19Z</time>
</trkpt>
<trkpt lat="35.1538167" lon="32.5410748">
<ele>38.11</ele>
<time>2015-04-26T13:51:21Z</time>
</trkpt>
<trkpt lat="35.1537669" lon="32.5410429">
<ele>39.47</ele>
<time>2015-04-26T13:51:23Z</time>
</trkpt>
<trkpt lat="35.1537170" lon="32.5410150">
<ele>41.06</ele>
<time>2015-04-26T13:51:25Z</time>
</trkpt>
<trkpt lat="35.1536672" lon="32.5409867">
<ele>42.21</ele>
<time>2015-04-26T13:51:27Z</time>
</trkpt>
<trkpt lat="35.1536149" lon="32.5409596">
<ele>43.75</ele>
<time>2015-04-26T13:51:29Z</time>
</trkpt>
<trkpt lat="35.1535616" lon="32.5409320">
<ele>42.63</ele>
<time>2015-04-26T13:51:31Z</time>
</trkpt>
<trkpt lat="35.1535139" lon="32.5409065">
<ele>42.60</ele>
<time>2015-04-26T13:51:33Z</time>
</trkpt>
<trkpt lat="35.1534694" lon="32.5408851">
<ele>43.34</ele>
<time>2015-04-26T13:51:35Z</time>
</trkpt>
<trkpt lat="35.1534065" lon="32.5408646">
<ele>44.35</ele>
<time>2015-04-26T13:51:38Z</time>
</trkpt>
<trkpt lat="35.1533408" lon="32.5408565">
<ele>46.10</ele>
<time>2015-04-26T13:51:41Z</time>
</trkpt>
<trkpt lat="35.1532960" lon="32.5408510">
<ele>47.72</ele>
<time>2015-04-26T13:51:43Z</time>
</trkpt>
<trkpt lat="35.1532289" lon="32.5408517">
<ele>51.15</ele>
<time>2015-04-26T13:51:46Z</time>
</trkpt>
<trkpt lat="35.1531610" lon="32.5408524">
<ele>52.33</ele>
<time>2015-04-26T13:51:49Z</time>
</trkpt>
<trkpt lat="35.1530942" lon="32.5408597">
<ele>51.73</ele>
<time>2015-04-26T13:51:52Z</time>
</trkpt>
<trkpt lat="35.1530493" lon="32.5408643">
<ele>51.88</ele>
<time>2015-04-26T13:51:54Z</time>
</trkpt>
<trkpt lat="35.1529840" lon="32.5408696">
<ele>51.92</ele>
<time>2015-04-26T13:51:57Z</time>
</trkpt>
<trkpt lat="35.1529205" lon="32.5408709">
<ele>52.17</ele>
<time>2015-04-26T13:52:00Z</time>
</trkpt>
<trkpt lat="35.1528576" lon="32.5408658">
<ele>51.96</ele>
<time>2015-04-26T13:52:03Z</time>
</trkpt>
<trkpt lat="35.1527959" lon="32.5408673">
<ele>51.93</ele>
<time>2015-04-26T13:52:06Z</time>
</trkpt>
<trkpt lat="35.1527374" lon="32.5408631">
<ele>51.93</ele>
<time>2015-04-26T13:52:09Z</time>
</trkpt>
<trkpt lat="35.1526784" lon="32.5408471">
<ele>51.43</ele>
<time>2015-04-26T13:52:12Z</time>
</trkpt>
<trkpt lat="35.1526197" lon="32.5408217">
<ele>51.74</ele>
<time>2015-04-26T13:52:15Z</time>
</trkpt>
<trkpt lat="35.1525590" lon="32.5407924">
<ele>52.53</ele>
<time>2015-04-26T13:52:18Z</time>
</trkpt>
<trkpt lat="35.1525029" lon="32.5407622">
<ele>54.13</ele>
<time>2015-04-26T13:52:21Z</time>
</trkpt>
<trkpt lat="35.1524522" lon="32.5407189">
<ele>54.45</ele>
<time>2015-04-26T13:52:24Z</time>
</trkpt>
<trkpt lat="35.1524110" lon="32.5406668">
<ele>54.49</ele>
<time>2015-04-26T13:52:27Z</time>
</trkpt>
<trkpt lat="35.1523698" lon="32.5406141">
<ele>55.62</ele>
<time>2015-04-26T13:52:30Z</time>
</trkpt>
<trkpt lat="35.1523302" lon="32.5405617">
<ele>55.89</ele>
<time>2015-04-26T13:52:33Z</time>
</trkpt>
<trkpt lat="35.1522986" lon="32.5405027">
<ele>56.30</ele>
<time>2015-04-26T13:52:36Z</time>
</trkpt>
<trkpt lat="35.1522729" lon="32.5404502">
<ele>55.47</ele>
<time>2015-04-26T13:52:39Z</time>
</trkpt>
<trkpt lat="35.1522447" lon="32.5403850">
<ele>56.12</ele>
<time>2015-04-26T13:52:42Z</time>
</trkpt>
<trkpt lat="35.1522230" lon="32.5403349">
<ele>55.97</ele>
<time>2015-04-26T13:52:44Z</time>
</trkpt>
<trkpt lat="35.1522044" lon="32.5402801">
<ele>55.44</ele>
<time>2015-04-26T13:52:46Z</time>
</trkpt>
<trkpt lat="35.1521838" lon="32.5402228">
<ele>54.30</ele>
<time>2015-04-26T13:52:48Z</time>
</trkpt>
<trkpt lat="35.1521625" lon="32.5401674">
<ele>54.02</ele>
<time>2015-04-26T13:52:50Z</time>
</trkpt>
<trkpt lat="35.1521385" lon="32.5401010">
<ele>53.20</ele>
<time>2015-04-26T13:52:52Z</time>
</trkpt>
<trkpt lat="35.1521152" lon="32.5400367">
<ele>52.83</ele>
<time>2015-04-26T13:52:55Z</time>
</trkpt>
<trkpt lat="35.1520956" lon="32.5399844">
<ele>52.41</ele>
<time>2015-04-26T13:52:58Z</time>
</trkpt>
<trkpt lat="35.1520705" lon="32.5399201">
<ele>52.80</ele>
<time>2015-04-26T13:53:00Z</time>
</trkpt>
<trkpt lat="35.1520426" lon="32.5398400">
<ele>52.89</ele>
<time>2015-04-26T13:53:02Z</time>
</trkpt>
<trkpt lat="35.1520115" lon="32.5397576">
<ele>52.42</ele>
<time>2015-04-26T13:53:04Z</time>
</trkpt>
<trkpt lat="35.1519826" lon="32.5396784">
<ele>52.80</ele>
<time>2015-04-26T13:53:06Z</time>
</trkpt>
<trkpt lat="35.1519536" lon="32.5396000">
<ele>53.39</ele>
<time>2015-04-26T13:53:08Z</time>
</trkpt>
<trkpt lat="35.1519164" lon="32.5395099">
<ele>53.29</ele>
<time>2015-04-26T13:53:10Z</time>
</trkpt>
<trkpt lat="35.1518755" lon="32.5394205">
<ele>52.52</ele>
<time>2015-04-26T13:53:12Z</time>
</trkpt>
<trkpt lat="35.1518280" lon="32.5393467">
<ele>52.57</ele>
<time>2015-04-26T13:53:14Z</time>
</trkpt>
<trkpt lat="35.1517784" lon="32.5392872">
<ele>52.34</ele>
<time>2015-04-26T13:53:16Z</time>
</trkpt>
<trkpt lat="35.1517282" lon="32.5392312">
<ele>52.03</ele>
<time>2015-04-26T13:53:18Z</time>
</trkpt>
<trkpt lat="35.1516765" lon="32.5391784">
<ele>51.95</ele>
<time>2015-04-26T13:53:20Z</time>
</trkpt>
<trkpt lat="35.1516226" lon="32.5391290">
<ele>51.93</ele>
<time>2015-04-26T13:53:22Z</time>
</trkpt>
<trkpt lat="35.1515640" lon="32.5390820">
<ele>52.43</ele>
<time>2015-04-26T13:53:24Z</time>
</trkpt>
<trkpt lat="35.1514971" lon="32.5390364">
<ele>52.30</ele>
<time>2015-04-26T13:53:26Z</time>
</trkpt>
<trkpt lat="35.1514288" lon="32.5389839">
<ele>51.52</ele>
<time>2015-04-26T13:53:28Z</time>
</trkpt>
<trkpt lat="35.1513562" lon="32.5389318">
<ele>51.57</ele>
<time>2015-04-26T13:53:30Z</time>
</trkpt>
<trkpt lat="35.1512654" lon="32.5388816">
<ele>50.84</ele>
<time>2015-04-26T13:53:32Z</time>
</trkpt>
<trkpt lat="35.1512170" lon="32.5388537">
<ele>50.38</ele>
<time>2015-04-26T13:53:33Z</time>
</trkpt>
<trkpt lat="35.1511648" lon="32.5388289">
<ele>49.65</ele>
<time>2015-04-26T13:53:34Z</time>
</trkpt>
<trkpt lat="35.1511152" lon="32.5387940">
<ele>48.79</ele>
<time>2015-04-26T13:53:35Z</time>
</trkpt>
<trkpt lat="35.1510604" lon="32.5387699">
<ele>48.36</ele>
<time>2015-04-26T13:53:36Z</time>
</trkpt>
<trkpt lat="35.1510041" lon="32.5387448">
<ele>48.14</ele>
<time>2015-04-26T13:53:37Z</time>
</trkpt>
<trkpt lat="35.1509461" lon="32.5387107">
<ele>48.03</ele>
<time>2015-04-26T13:53:38Z</time>
</trkpt>
<trkpt lat="35.1508897" lon="32.5386785">
<ele>47.98</ele>
<time>2015-04-26T13:53:39Z</time>
</trkpt>
<trkpt lat="35.1508309" lon="32.5386406">
<ele>47.95</ele>
<time>2015-04-26T13:53:40Z</time>
</trkpt>
<trkpt lat="35.1507720" lon="32.5386070">
<ele>47.44</ele>
<time>2015-04-26T13:53:41Z</time>
</trkpt>
<trkpt lat="35.1507108" lon="32.5385758">
<ele>47.18</ele>
<time>2015-04-26T13:53:42Z</time>
</trkpt>
<trkpt lat="35.1506443" lon="32.5385448">
<ele>47.05</ele>
<time>2015-04-26T13:53:43Z</time>
</trkpt>
<trkpt lat="35.1505813" lon="32.5385080">
<ele>47.49</ele>
<time>2015-04-26T13:53:44Z</time>
</trkpt>
<trkpt lat="35.1505140" lon="32.5384707">
<ele>47.71</ele>
<time>2015-04-26T13:53:45Z</time>
</trkpt>
<trkpt lat="35.1504476" lon="32.5384396">
<ele>48.32</ele>
<time>2015-04-26T13:53:46Z</time>
</trkpt>
<trkpt lat="35.1503834" lon="32.5384129">
<ele>49.12</ele>
<time>2015-04-26T13:53:47Z</time>
</trkpt>
<trkpt lat="35.1503300" lon="32.5383795">
<ele>49.02</ele>
<time>2015-04-26T13:53:48Z</time>
</trkpt>
<trkpt lat="35.1502736" lon="32.5383480">
<ele>48.97</ele>
<time>2015-04-26T13:53:49Z</time>
</trkpt>
<trkpt lat="35.1502172" lon="32.5383073">
<ele>48.95</ele>
<time>2015-04-26T13:53:50Z</time>
</trkpt>
<trkpt lat="35.1501630" lon="32.5382770">
<ele>48.94</ele>
<time>2015-04-26T13:53:51Z</time>
</trkpt>
<trkpt lat="35.1501048" lon="32.5382482">
<ele>49.43</ele>
<time>2015-04-26T13:53:52Z</time>
</trkpt>
<trkpt lat="35.1500549" lon="32.5382106">
<ele>49.18</ele>
<time>2015-04-26T13:53:53Z</time>
</trkpt>
<trkpt lat="35.1500028" lon="32.5381707">
<ele>49.05</ele>
<time>2015-04-26T13:53:54Z</time>
</trkpt>
<trkpt lat="35.1499499" lon="32.5381224">
<ele>48.99</ele>
<time>2015-04-26T13:53:55Z</time>
</trkpt>
<trkpt lat="35.1498912" lon="32.5380798">
<ele>49.46</ele>
<time>2015-04-26T13:53:56Z</time>
</trkpt>
<trkpt lat="35.1498319" lon="32.5380385">
<ele>49.69</ele>
<time>2015-04-26T13:53:57Z</time>
</trkpt>
<trkpt lat="35.1497705" lon="32.5379927">
<ele>49.81</ele>
<time>2015-04-26T13:53:58Z</time>
</trkpt>
<trkpt lat="35.1497070" lon="32.5379452">
<ele>49.87</ele>
<time>2015-04-26T13:53:59Z</time>
</trkpt>
<trkpt lat="35.1496467" lon="32.5378987">
<ele>50.40</ele>
<time>2015-04-26T13:54:00Z</time>
</trkpt>
<trkpt lat="35.1495920" lon="32.5378438">
<ele>50.66</ele>
<time>2015-04-26T13:54:01Z</time>
</trkpt>
<trkpt lat="35.1495346" lon="32.5377950">
<ele>50.79</ele>
<time>2015-04-26T13:54:02Z</time>
</trkpt>
<trkpt lat="35.1494771" lon="32.5377512">
<ele>51.36</ele>
<time>2015-04-26T13:54:03Z</time>
</trkpt>
<trkpt lat="35.1494274" lon="32.5377025">
<ele>51.64</ele>
<time>2015-04-26T13:54:04Z</time>
</trkpt>
<trkpt lat="35.1493806" lon="32.5376607">
<ele>51.78</ele>
<time>2015-04-26T13:54:05Z</time>
</trkpt>
<trkpt lat="35.1493390" lon="32.5376185">
<ele>51.85</ele>
<time>2015-04-26T13:54:06Z</time>
</trkpt>
<trkpt lat="35.1492980" lon="32.5375766">
<ele>51.89</ele>
<time>2015-04-26T13:54:07Z</time>
</trkpt>
<trkpt lat="35.1492570" lon="32.5375328">
<ele>51.91</ele>
<time>2015-04-26T13:54:08Z</time>
</trkpt>
<trkpt lat="35.1492178" lon="32.5374821">
<ele>51.42</ele>
<time>2015-04-26T13:54:09Z</time>
</trkpt>
<trkpt lat="35.1491786" lon="32.5374328">
<ele>51.17</ele>
<time>2015-04-26T13:54:10Z</time>
</trkpt>
<trkpt lat="35.1491353" lon="32.5373863">
<ele>51.05</ele>
<time>2015-04-26T13:54:11Z</time>
</trkpt>
<trkpt lat="35.1490991" lon="32.5373330">
<ele>50.99</ele>
<time>2015-04-26T13:54:12Z</time>
</trkpt>
<trkpt lat="35.1490540" lon="32.5372845">
<ele>50.96</ele>
<time>2015-04-26T13:54:13Z</time>
</trkpt>
<trkpt lat="35.1490123" lon="32.5372332">
<ele>50.94</ele>
<time>2015-04-26T13:54:14Z</time>
</trkpt>
<trkpt lat="35.1489804" lon="32.5371883">
<ele>50.93</ele>
<time>2015-04-26T13:54:15Z</time>
</trkpt>
<trkpt lat="35.1489502" lon="32.5371390">
<ele>50.93</ele>
<time>2015-04-26T13:54:16Z</time>
</trkpt>
<trkpt lat="35.1488940" lon="32.5370594">
<ele>50.43</ele>
<time>2015-04-26T13:54:18Z</time>
</trkpt>
<trkpt lat="35.1488652" lon="32.5370115">
<ele>50.18</ele>
<time>2015-04-26T13:54:19Z</time>
</trkpt>
<trkpt lat="35.1488388" lon="32.5369544">
<ele>50.05</ele>
<time>2015-04-26T13:54:20Z</time>
</trkpt>
<trkpt lat="35.1488098" lon="32.5368994">
<ele>49.99</ele>
<time>2015-04-26T13:54:21Z</time>
</trkpt>
<trkpt lat="35.1487819" lon="32.5368440">
<ele>49.96</ele>
<time>2015-04-26T13:54:22Z</time>
</trkpt>
<trkpt lat="35.1487521" lon="32.5367875">
<ele>49.94</ele>
<time>2015-04-26T13:54:23Z</time>
</trkpt>
<trkpt lat="35.1487318" lon="32.5367330">
<ele>49.93</ele>
<time>2015-04-26T13:54:24Z</time>
</trkpt>
<trkpt lat="35.1487154" lon="32.5366738">
<ele>49.93</ele>
<time>2015-04-26T13:54:25Z</time>
</trkpt>
<trkpt lat="35.1487034" lon="32.5366176">
<ele>49.93</ele>
<time>2015-04-26T13:54:26Z</time>
</trkpt>
<trkpt lat="35.1486829" lon="32.5365145">
<ele>50.68</ele>
<time>2015-04-26T13:54:28Z</time>
</trkpt>
<trkpt lat="35.1486730" lon="32.5364111">
<ele>50.86</ele>
<time>2015-04-26T13:54:30Z</time>
</trkpt>
<trkpt lat="35.1486748" lon="32.5363006">
<ele>50.91</ele>
<time>2015-04-26T13:54:32Z</time>
</trkpt>
<trkpt lat="35.1486742" lon="32.5362451">
<ele>51.42</ele>
<time>2015-04-26T13:54:33Z</time>
</trkpt>
<trkpt lat="35.1486815" lon="32.5361885">
<ele>52.17</ele>
<time>2015-04-26T13:54:34Z</time>
</trkpt>
<trkpt lat="35.1486948" lon="32.5361318">
<ele>52.05</ele>
<time>2015-04-26T13:54:35Z</time>
</trkpt>
<trkpt lat="35.1487177" lon="32.5360333">
<ele>51.96</ele>
<time>2015-04-26T13:54:37Z</time>
</trkpt>
<trkpt lat="35.1487272" lon="32.5359755">
<ele>51.44</ele>
<time>2015-04-26T13:54:38Z</time>
</trkpt>
<trkpt lat="35.1487355" lon="32.5359197">
<ele>51.68</ele>
<time>2015-04-26T13:54:39Z</time>
</trkpt>
<trkpt lat="35.1487446" lon="32.5358615">
<ele>51.80</ele>
<time>2015-04-26T13:54:40Z</time>
</trkpt>
<trkpt lat="35.1487608" lon="32.5358025">
<ele>51.86</ele>
<time>2015-04-26T13:54:41Z</time>
</trkpt>
<trkpt lat="35.1487735" lon="32.5357438">
<ele>51.89</ele>
<time>2015-04-26T13:54:42Z</time>
</trkpt>
<trkpt lat="35.1487875" lon="32.5356805">
<ele>52.41</ele>
<time>2015-04-26T13:54:43Z</time>
</trkpt>
<trkpt lat="35.1488047" lon="32.5356153">
<ele>52.17</ele>
<time>2015-04-26T13:54:44Z</time>
</trkpt>
<trkpt lat="35.1488131" lon="32.5355471">
<ele>52.05</ele>
<time>2015-04-26T13:54:45Z</time>
</trkpt>
<trkpt lat="35.1488219" lon="32.5354817">
<ele>51.99</ele>
<time>2015-04-26T13:54:46Z</time>
</trkpt>
<trkpt lat="35.1488376" lon="32.5354199">
<ele>52.46</ele>
<time>2015-04-26T13:54:47Z</time>
</trkpt>
<trkpt lat="35.1488509" lon="32.5353518">
<ele>52.19</ele>
<time>2015-04-26T13:54:48Z</time>
</trkpt>
<trkpt lat="35.1488670" lon="32.5352922">
<ele>52.06</ele>
<time>2015-04-26T13:54:49Z</time>
</trkpt>
<trkpt lat="35.1488806" lon="32.5352315">
<ele>51.99</ele>
<time>2015-04-26T13:54:50Z</time>
</trkpt>
<trkpt lat="35.1488946" lon="32.5351738">
<ele>51.96</ele>
<time>2015-04-26T13:54:51Z</time>
</trkpt>
<trkpt lat="35.1489134" lon="32.5351216">
<ele>52.44</ele>
<time>2015-04-26T13:54:52Z</time>
</trkpt>
<trkpt lat="35.1489339" lon="32.5350226">
<ele>52.80</ele>
<time>2015-04-26T13:54:54Z</time>
</trkpt>
<trkpt lat="35.1489384" lon="32.5349299">
<ele>52.89</ele>
<time>2015-04-26T13:54:56Z</time>
</trkpt>
<trkpt lat="35.1489660" lon="32.5348307">
<ele>52.92</ele>
<time>2015-04-26T13:54:58Z</time>
</trkpt>
<trkpt lat="35.1489645" lon="32.5347734">
<ele>53.42</ele>
<time>2015-04-26T13:54:59Z</time>
</trkpt>
<trkpt lat="35.1489640" lon="32.5347111">
<ele>53.17</ele>
<time>2015-04-26T13:55:00Z</time>
</trkpt>
<trkpt lat="35.1489567" lon="32.5346512">
<ele>53.05</ele>
<time>2015-04-26T13:55:01Z</time>
</trkpt>
<trkpt lat="35.1489467" lon="32.5345874">
<ele>52.99</ele>
<time>2015-04-26T13:55:02Z</time>
</trkpt>
<trkpt lat="35.1489247" lon="32.5345218">
<ele>52.96</ele>
<time>2015-04-26T13:55:03Z</time>
</trkpt>
<trkpt lat="35.1488919" lon="32.5344626">
<ele>52.44</ele>
<time>2015-04-26T13:55:04Z</time>
</trkpt>
<trkpt lat="35.1488567" lon="32.5344037">
<ele>52.18</ele>
<time>2015-04-26T13:55:05Z</time>
</trkpt>
<trkpt lat="35.1488238" lon="32.5343466">
<ele>51.55</ele>
<time>2015-04-26T13:55:06Z</time>
</trkpt>
<trkpt lat="35.1487783" lon="32.5343134">
<ele>52.24</ele>
<time>2015-04-26T13:55:07Z</time>
</trkpt>
<trkpt lat="35.1487347" lon="32.5342838">
<ele>52.58</ele>
<time>2015-04-26T13:55:08Z</time>
</trkpt>
<trkpt lat="35.1486867" lon="32.5342702">
<ele>53.25</ele>
<time>2015-04-26T13:55:09Z</time>
</trkpt>
<trkpt lat="35.1486356" lon="32.5342613">
<ele>53.59</ele>
<time>2015-04-26T13:55:10Z</time>
</trkpt>
<trkpt lat="35.1485811" lon="32.5342584">
<ele>53.76</ele>
<time>2015-04-26T13:55:11Z</time>
</trkpt>
<trkpt lat="35.1485207" lon="32.5342504">
<ele>53.84</ele>
<time>2015-04-26T13:55:12Z</time>
</trkpt>
<trkpt lat="35.1484593" lon="32.5342440">
<ele>53.88</ele>
<time>2015-04-26T13:55:13Z</time>
</trkpt>
<trkpt lat="35.1483967" lon="32.5342391">
<ele>53.40</ele>
<time>2015-04-26T13:55:14Z</time>
</trkpt>
<trkpt lat="35.1483346" lon="32.5342305">
<ele>53.16</ele>
<time>2015-04-26T13:55:15Z</time>
</trkpt>
<trkpt lat="35.1482683" lon="32.5342258">
<ele>53.04</ele>
<time>2015-04-26T13:55:16Z</time>
</trkpt>
<trkpt lat="35.1482044" lon="32.5342118">
<ele>52.98</ele>
<time>2015-04-26T13:55:17Z</time>
</trkpt>
<trkpt lat="35.1481376" lon="32.5341888">
<ele>52.95</ele>
<time>2015-04-26T13:55:18Z</time>
</trkpt>
<trkpt lat="35.1480716" lon="32.5341593">
<ele>52.94</ele>
<time>2015-04-26T13:55:19Z</time>
</trkpt>
<trkpt lat="35.1480111" lon="32.5341187">
<ele>52.43</ele>
<time>2015-04-26T13:55:20Z</time>
</trkpt>
<trkpt lat="35.1479581" lon="32.5340597">
<ele>52.18</ele>
<time>2015-04-26T13:55:21Z</time>
</trkpt>
<trkpt lat="35.1479095" lon="32.5339965">
<ele>52.05</ele>
<time>2015-04-26T13:55:22Z</time>
</trkpt>
<trkpt lat="35.1478631" lon="32.5339234">
<ele>51.49</ele>
<time>2015-04-26T13:55:23Z</time>
</trkpt>
<trkpt lat="35.1478249" lon="32.5338405">
<ele>51.71</ele>
<time>2015-04-26T13:55:24Z</time>
</trkpt>
<trkpt lat="35.1478087" lon="32.5337442">
<ele>51.32</ele>
<time>2015-04-26T13:55:25Z</time>
</trkpt>
<trkpt lat="35.1478023" lon="32.5336488">
<ele>51.12</ele>
<time>2015-04-26T13:55:26Z</time>
</trkpt>
<trkpt lat="35.1478012" lon="32.5335586">
<ele>51.52</ele>
<time>2015-04-26T13:55:27Z</time>
</trkpt>
<trkpt lat="35.1478096" lon="32.5334730">
<ele>51.22</ele>
<time>2015-04-26T13:55:28Z</time>
</trkpt>
<trkpt lat="35.1478244" lon="32.5333870">
<ele>51.57</ele>
<time>2015-04-26T13:55:29Z</time>
</trkpt>
<trkpt lat="35.1478350" lon="32.5332973">
<ele>51.75</ele>
<time>2015-04-26T13:55:30Z</time>
</trkpt>
<trkpt lat="35.1478411" lon="32.5332044">
<ele>51.84</ele>
<time>2015-04-26T13:55:31Z</time>
</trkpt>
<trkpt lat="35.1478455" lon="32.5331136">
<ele>51.38</ele>
<time>2015-04-26T13:55:32Z</time>
</trkpt>
<trkpt lat="35.1478303" lon="32.5330250">
<ele>51.15</ele>
<time>2015-04-26T13:55:33Z</time>
</trkpt>
<trkpt lat="35.1478039" lon="32.5329510">
<ele>51.04</ele>
<time>2015-04-26T13:55:34Z</time>
</trkpt>
<trkpt lat="35.1477635" lon="32.5328869">
<ele>50.98</ele>
<time>2015-04-26T13:55:35Z</time>
</trkpt>
<trkpt lat="35.1477152" lon="32.5328248">
<ele>50.95</ele>
<time>2015-04-26T13:55:36Z</time>
</trkpt>
<trkpt lat="35.1476596" lon="32.5327723">
<ele>50.44</ele>
<time>2015-04-26T13:55:37Z</time>
</trkpt>
<trkpt lat="35.1475920" lon="32.5327328">
<ele>50.68</ele>
<time>2015-04-26T13:55:38Z</time>
</trkpt>
<trkpt lat="35.1475151" lon="32.5327138">
<ele>50.80</ele>
<time>2015-04-26T13:55:39Z</time>
</trkpt>
<trkpt lat="35.1474326" lon="32.5327064">
<ele>50.86</ele>
<time>2015-04-26T13:55:40Z</time>
</trkpt>
<trkpt lat="35.1473475" lon="32.5327080">
<ele>50.89</ele>
<time>2015-04-26T13:55:41Z</time>
</trkpt>
<trkpt lat="35.1472674" lon="32.5327097">
<ele>50.91</ele>
<time>2015-04-26T13:55:42Z</time>
</trkpt>
<trkpt lat="35.1471874" lon="32.5327136">
<ele>50.42</ele>
<time>2015-04-26T13:55:43Z</time>
</trkpt>
<trkpt lat="35.1471063" lon="32.5327202">
<ele>50.67</ele>
<time>2015-04-26T13:55:44Z</time>
</trkpt>
<trkpt lat="35.1470313" lon="32.5327283">
<ele>50.80</ele>
<time>2015-04-26T13:55:45Z</time>
</trkpt>
<trkpt lat="35.1469563" lon="32.5327329">
<ele>50.36</ele>
<time>2015-04-26T13:55:46Z</time>
</trkpt>
<trkpt lat="35.1468819" lon="32.5327390">
<ele>50.14</ele>
<time>2015-04-26T13:55:47Z</time>
</trkpt>
<trkpt lat="35.1468117" lon="32.5327427">
<ele>50.03</ele>
<time>2015-04-26T13:55:48Z</time>
</trkpt>
<trkpt lat="35.1467427" lon="32.5327440">
<ele>49.48</ele>
<time>2015-04-26T13:55:49Z</time>
</trkpt>
<trkpt lat="35.1466784" lon="32.5327485">
<ele>49.20</ele>
<time>2015-04-26T13:55:50Z</time>
</trkpt>
<trkpt lat="35.1466149" lon="32.5327523">
<ele>49.06</ele>
<time>2015-04-26T13:55:51Z</time>
</trkpt>
<trkpt lat="35.1465576" lon="32.5327632">
<ele>48.99</ele>
<time>2015-04-26T13:55:52Z</time>
</trkpt>
<trkpt lat="35.1464967" lon="32.5327688">
<ele>49.46</ele>
<time>2015-04-26T13:55:53Z</time>
</trkpt>
<trkpt lat="35.1464382" lon="32.5327744">
<ele>49.69</ele>
<time>2015-04-26T13:55:54Z</time>
</trkpt>
<trkpt lat="35.1463802" lon="32.5327802">
<ele>49.81</ele>
<time>2015-04-26T13:55:55Z</time>
</trkpt>
<trkpt lat="35.1463210" lon="32.5327844">
<ele>49.87</ele>
<time>2015-04-26T13:55:56Z</time>
</trkpt>
<trkpt lat="35.1462650" lon="32.5327883">
<ele>49.90</ele>
<time>2015-04-26T13:55:57Z</time>
</trkpt>
<trkpt lat="35.1462127" lon="32.5327883">
<ele>49.91</ele>
<time>2015-04-26T13:55:58Z</time>
</trkpt>
<trkpt lat="35.1461582" lon="32.5327846">
<ele>49.92</ele>
<time>2015-04-26T13:55:59Z</time>
</trkpt>
<trkpt lat="35.1461067" lon="32.5327901">
<ele>49.92</ele>
<time>2015-04-26T13:56:00Z</time>
</trkpt>
<trkpt lat="35.1460560" lon="32.5327953">
<ele>49.92</ele>
<time>2015-04-26T13:56:01Z</time>
</trkpt>
<trkpt lat="35.1460046" lon="32.5328010">
<ele>49.92</ele>
<time>2015-04-26T13:56:02Z</time>
</trkpt>
<trkpt lat="35.1459590" lon="32.5328099">
<ele>49.92</ele>
<time>2015-04-26T13:56:03Z</time>
</trkpt>
<trkpt lat="35.1458709" lon="32.5328157">
<ele>49.42</ele>
<time>2015-04-26T13:56:05Z</time>
</trkpt>
<trkpt lat="35.1457869" lon="32.5328169">
<ele>49.30</ele>
<time>2015-04-26T13:56:07Z</time>
</trkpt>
<trkpt lat="35.1457088" lon="32.5328064">
<ele>49.02</ele>
<time>2015-04-26T13:56:09Z</time>
</trkpt>
<trkpt lat="35.1456480" lon="32.5327826">
<ele>50.20</ele>
<time>2015-04-26T13:56:11Z</time>
</trkpt>
<trkpt lat="35.1455936" lon="32.5327470">
<ele>50.74</ele>
<time>2015-04-26T13:56:13Z</time>
</trkpt>
<trkpt lat="35.1455387" lon="32.5327067">
<ele>50.88</ele>
<time>2015-04-26T13:56:15Z</time>
</trkpt>
<trkpt lat="35.1454929" lon="32.5326541">
<ele>50.91</ele>
<time>2015-04-26T13:56:17Z</time>
</trkpt>
<trkpt lat="35.1454536" lon="32.5325945">
<ele>50.92</ele>
<time>2015-04-26T13:56:19Z</time>
</trkpt>
<trkpt lat="35.1454178" lon="32.5325288">
<ele>51.17</ele>
<time>2015-04-26T13:56:21Z</time>
</trkpt>
<trkpt lat="35.1453930" lon="32.5324580">
<ele>50.99</ele>
<time>2015-04-26T13:56:23Z</time>
</trkpt>
<trkpt lat="35.1453824" lon="32.5323860">
<ele>51.44</ele>
<time>2015-04-26T13:56:25Z</time>
</trkpt>
<trkpt lat="35.1453793" lon="32.5323107">
<ele>51.80</ele>
<time>2015-04-26T13:56:27Z</time>
</trkpt>
<trkpt lat="35.1453911" lon="32.5322299">
<ele>52.64</ele>
<time>2015-04-26T13:56:29Z</time>
</trkpt>
<trkpt lat="35.1454157" lon="32.5321504">
<ele>53.60</ele>
<time>2015-04-26T13:56:31Z</time>
</trkpt>
<trkpt lat="35.1454519" lon="32.5320819">
<ele>56.34</ele>
<time>2015-04-26T13:56:33Z</time>
</trkpt>
<trkpt lat="35.1454944" lon="32.5320200">
<ele>56.78</ele>
<time>2015-04-26T13:56:35Z</time>
</trkpt>
<trkpt lat="35.1455428" lon="32.5319646">
<ele>57.39</ele>
<time>2015-04-26T13:56:37Z</time>
</trkpt>
<trkpt lat="35.1455949" lon="32.5319193">
<ele>57.79</ele>
<time>2015-04-26T13:56:39Z</time>
</trkpt>
<trkpt lat="35.1456384" lon="32.5318879">
<ele>57.89</ele>
<time>2015-04-26T13:56:41Z</time>
</trkpt>
<trkpt lat="35.1456780" lon="32.5318527">
<ele>57.92</ele>
<time>2015-04-26T13:56:45Z</time>
</trkpt>
<trkpt lat="35.1457384" lon="32.5318044">
<ele>58.67</ele>
<time>2015-04-26T13:56:48Z</time>
</trkpt>
<trkpt lat="35.1457946" lon="32.5317598">
<ele>58.86</ele>
<time>2015-04-26T13:56:50Z</time>
</trkpt>
<trkpt lat="35.1458485" lon="32.5317180">
<ele>59.66</ele>
<time>2015-04-26T13:56:52Z</time>
</trkpt>
<trkpt lat="35.1458893" lon="32.5316861">
<ele>59.86</ele>
<time>2015-04-26T13:56:54Z</time>
</trkpt>
<trkpt lat="35.1459431" lon="32.5316393">
<ele>59.79</ele>
<time>2015-04-26T13:56:57Z</time>
</trkpt>
<trkpt lat="35.1459918" lon="32.5315991">
<ele>59.89</ele>
<time>2015-04-26T13:56:59Z</time>
</trkpt>
<trkpt lat="35.1460443" lon="32.5315590">
<ele>59.92</ele>
<time>2015-04-26T13:57:01Z</time>
</trkpt>
<trkpt lat="35.1460960" lon="32.5315172">
<ele>59.92</ele>
<time>2015-04-26T13:57:03Z</time>
</trkpt>
<trkpt lat="35.1461528" lon="32.5314810">
<ele>59.92</ele>
<time>2015-04-26T13:57:05Z</time>
</trkpt>
<trkpt lat="35.1462063" lon="32.5314426">
<ele>59.92</ele>
<time>2015-04-26T13:57:07Z</time>
</trkpt>
<trkpt lat="35.1462549" lon="32.5314113">
<ele>60.42</ele>
<time>2015-04-26T13:57:09Z</time>
</trkpt>
<trkpt lat="35.1463061" lon="32.5313709">
<ele>61.64</ele>
<time>2015-04-26T13:57:13Z</time>
</trkpt>
<trkpt lat="35.1463536" lon="32.5313439">
<ele>63.35</ele>
<time>2015-04-26T13:57:15Z</time>
</trkpt>
<trkpt lat="35.1464088" lon="32.5313159">
<ele>63.78</ele>
<time>2015-04-26T13:57:17Z</time>
</trkpt>
<trkpt lat="35.1464694" lon="32.5312882">
<ele>63.14</ele>
<time>2015-04-26T13:57:19Z</time>
</trkpt>
<trkpt lat="35.1465272" lon="32.5312570">
<ele>62.98</ele>
<time>2015-04-26T13:57:21Z</time>
</trkpt>
<trkpt lat="35.1465826" lon="32.5312242">
<ele>62.44</ele>
<time>2015-04-26T13:57:23Z</time>
</trkpt>
<trkpt lat="35.1466342" lon="32.5311847">
<ele>63.30</ele>
<time>2015-04-26T13:57:25Z</time>
</trkpt>
<trkpt lat="35.1466775" lon="32.5311307">
<ele>63.77</ele>
<time>2015-04-26T13:57:27Z</time>
</trkpt>
<trkpt lat="35.1467132" lon="32.5310645">
<ele>63.39</ele>
<time>2015-04-26T13:57:29Z</time>
</trkpt>
<trkpt lat="35.1467387" lon="32.5309974">
<ele>63.04</ele>
<time>2015-04-26T13:57:31Z</time>
</trkpt>
<trkpt lat="35.1467476" lon="32.5309206">
<ele>62.94</ele>
<time>2015-04-26T13:57:34Z</time>
</trkpt>
<trkpt lat="35.1467436" lon="32.5308574">
<ele>63.43</ele>
<time>2015-04-26T13:57:36Z</time>
</trkpt>
<trkpt lat="35.1467302" lon="32.5307858">
<ele>63.80</ele>
<time>2015-04-26T13:57:38Z</time>
</trkpt>
<trkpt lat="35.1467049" lon="32.5307147">
<ele>63.14</ele>
<time>2015-04-26T13:57:40Z</time>
</trkpt>
<trkpt lat="35.1466684" lon="32.5306394">
<ele>63.48</ele>
<time>2015-04-26T13:57:42Z</time>
</trkpt>
<trkpt lat="35.1466306" lon="32.5305715">
<ele>63.81</ele>
<time>2015-04-26T13:57:44Z</time>
</trkpt>
<trkpt lat="35.1465910" lon="32.5305171">
<ele>63.90</ele>
<time>2015-04-26T13:57:46Z</time>
</trkpt>
<trkpt lat="35.1465489" lon="32.5304654">
<ele>63.42</ele>
<time>2015-04-26T13:57:48Z</time>
</trkpt>
<trkpt lat="35.1464990" lon="32.5304152">
<ele>63.80</ele>
<time>2015-04-26T13:57:50Z</time>
</trkpt>
<trkpt lat="35.1464477" lon="32.5303679">
<ele>63.39</ele>
<time>2015-04-26T13:57:52Z</time>
</trkpt>
<trkpt lat="35.1464019" lon="32.5303225">
<ele>63.04</ele>
<time>2015-04-26T13:57:54Z</time>
</trkpt>
<trkpt lat="35.1463642" lon="32.5302906">
<ele>62.95</ele>
<time>2015-04-26T13:57:56Z</time>
</trkpt>
<trkpt lat="35.1463179" lon="32.5302475">
<ele>62.93</ele>
<time>2015-04-26T13:57:58Z</time>
</trkpt>
<trkpt lat="35.1462563" lon="32.5301913">
<ele>62.93</ele>
<time>2015-04-26T13:58:00Z</time>
</trkpt>
<trkpt lat="35.1461995" lon="32.5301396">
<ele>63.68</ele>
<time>2015-04-26T13:58:02Z</time>
</trkpt>
<trkpt lat="35.1461482" lon="32.5300910">
<ele>63.86</ele>
<time>2015-04-26T13:58:04Z</time>
</trkpt>
<trkpt lat="35.1461097" lon="32.5300515">
<ele>64.16</ele>
<time>2015-04-26T13:58:06Z</time>
</trkpt>
<trkpt lat="35.1460711" lon="32.5300170">
<ele>64.73</ele>
<time>2015-04-26T13:58:08Z</time>
</trkpt>
<trkpt lat="35.1460196" lon="32.5299714">
<ele>64.78</ele>
<time>2015-04-26T13:58:11Z</time>
</trkpt>
<trkpt lat="35.1459692" lon="32.5299273">
<ele>65.41</ele>
<time>2015-04-26T13:58:14Z</time>
</trkpt>
<trkpt lat="35.1459314" lon="32.5298892">
<ele>65.80</ele>
<time>2015-04-26T13:58:16Z</time>
</trkpt>
<trkpt lat="35.1458729" lon="32.5298359">
<ele>66.39</ele>
<time>2015-04-26T13:58:18Z</time>
</trkpt>
<trkpt lat="35.1458117" lon="32.5297848">
<ele>66.79</ele>
<time>2015-04-26T13:58:20Z</time>
</trkpt>
<trkpt lat="35.1457558" lon="32.5297281">
<ele>66.39</ele>
<time>2015-04-26T13:58:22Z</time>
</trkpt>
<trkpt lat="35.1457140" lon="32.5296644">
<ele>66.29</ele>
<time>2015-04-26T13:58:24Z</time>
</trkpt>
<trkpt lat="35.1456856" lon="32.5295946">
<ele>66.52</ele>
<time>2015-04-26T13:58:26Z</time>
</trkpt>
<trkpt lat="35.1456618" lon="32.5295208">
<ele>65.57</ele>
<time>2015-04-26T13:58:28Z</time>
</trkpt>
<trkpt lat="35.1456495" lon="32.5294416">
<ele>65.09</ele>
<time>2015-04-26T13:58:30Z</time>
</trkpt>
<trkpt lat="35.1456272" lon="32.5293742">
<ele>64.97</ele>
<time>2015-04-26T13:58:32Z</time>
</trkpt>
<trkpt lat="35.1456480" lon="32.5294286">
<ele>65.93</ele>
<time>2015-04-26T14:02:41Z</time>
</trkpt>
<trkpt lat="35.1456775" lon="32.5294781">
<ele>65.93</ele>
<time>2015-04-26T14:02:45Z</time>
</trkpt>
<trkpt lat="35.1456813" lon="32.5295364">
<ele>65.43</ele>
<time>2015-04-26T14:02:48Z</time>
</trkpt>
<trkpt lat="35.1456445" lon="32.5295680">
<ele>64.99</ele>
<time>2015-04-26T14:02:51Z</time>
</trkpt>
<trkpt lat="35.1455886" lon="32.5295484">
<ele>64.93</ele>
<time>2015-04-26T14:02:54Z</time>
</trkpt>
<trkpt lat="35.1455425" lon="32.5295136">
<ele>64.43</ele>
<time>2015-04-26T14:02:56Z</time>
</trkpt>
<trkpt lat="35.1454921" lon="32.5294771">
<ele>64.05</ele>
<time>2015-04-26T14:02:58Z</time>
</trkpt>
<trkpt lat="35.1454328" lon="32.5294465">
<ele>63.71</ele>
<time>2015-04-26T14:03:00Z</time>
</trkpt>
<trkpt lat="35.1453684" lon="32.5294103">
<ele>63.12</ele>
<time>2015-04-26T14:03:02Z</time>
</trkpt>
<trkpt lat="35.1452955" lon="32.5293644">
<ele>62.97</ele>
<time>2015-04-26T14:03:04Z</time>
</trkpt>
<trkpt lat="35.1451846" lon="32.5293018">
<ele>63.69</ele>
<time>2015-04-26T14:03:06Z</time>
</trkpt>
<trkpt lat="35.1451317" lon="32.5292736">
<ele>63.81</ele>
<time>2015-04-26T14:03:07Z</time>
</trkpt>
<trkpt lat="35.1450848" lon="32.5292501">
<ele>63.87</ele>
<time>2015-04-26T14:03:08Z</time>
</trkpt>
<trkpt lat="35.1450333" lon="32.5292244">
<ele>63.90</ele>
<time>2015-04-26T14:03:09Z</time>
</trkpt>
<trkpt lat="35.1449918" lon="32.5291836">
<ele>63.41</ele>
<time>2015-04-26T14:03:10Z</time>
</trkpt>
<trkpt lat="35.1449400" lon="32.5291524">
<ele>62.67</ele>
<time>2015-04-26T14:03:11Z</time>
</trkpt>
<trkpt lat="35.1448802" lon="32.5291281">
<ele>62.30</ele>
<time>2015-04-26T14:03:12Z</time>
</trkpt>
<trkpt lat="35.1448204" lon="32.5290982">
<ele>62.11</ele>
<time>2015-04-26T14:03:13Z</time>
</trkpt>
<trkpt lat="35.1447553" lon="32.5290698">
<ele>62.02</ele>
<time>2015-04-26T14:03:14Z</time>
</trkpt>
<trkpt lat="35.1446881" lon="32.5290411">
<ele>61.97</ele>
<time>2015-04-26T14:03:15Z</time>
</trkpt>
<trkpt lat="35.1446199" lon="32.5290197">
<ele>61.45</ele>
<time>2015-04-26T14:03:16Z</time>
</trkpt>
<trkpt lat="35.1445557" lon="32.5289992">
<ele>61.19</ele>
<time>2015-04-26T14:03:17Z</time>
</trkpt>
<trkpt lat="35.1444779" lon="32.5289618">
<ele>60.56</ele>
<time>2015-04-26T14:03:18Z</time>
</trkpt>
<trkpt lat="35.1444092" lon="32.5289303">
<ele>60.24</ele>
<time>2015-04-26T14:03:19Z</time>
</trkpt>
<trkpt lat="35.1443320" lon="32.5289038">
<ele>60.58</ele>
<time>2015-04-26T14:03:20Z</time>
</trkpt>
<trkpt lat="35.1442516" lon="32.5288825">
<ele>60.75</ele>
<time>2015-04-26T14:03:21Z</time>
</trkpt>
<trkpt lat="35.1441718" lon="32.5288503">
<ele>60.84</ele>
<time>2015-04-26T14:03:22Z</time>
</trkpt>
<trkpt lat="35.1440899" lon="32.5288139">
<ele>61.38</ele>
<time>2015-04-26T14:03:23Z</time>
</trkpt>
<trkpt lat="35.1440151" lon="32.5287577">
<ele>61.65</ele>
<time>2015-04-26T14:03:24Z</time>
</trkpt>
<trkpt lat="35.1439347" lon="32.5287180">
<ele>61.79</ele>
<time>2015-04-26T14:03:25Z</time>
</trkpt>
<trkpt lat="35.1438540" lon="32.5286630">
<ele>61.86</ele>
<time>2015-04-26T14:03:26Z</time>
</trkpt>
<trkpt lat="35.1437794" lon="32.5285984">
<ele>61.39</ele>
<time>2015-04-26T14:03:27Z</time>
</trkpt>
<trkpt lat="35.1437045" lon="32.5285322">
<ele>61.66</ele>
<time>2015-04-26T14:03:28Z</time>
</trkpt>
<trkpt lat="35.1436381" lon="32.5284565">
<ele>61.29</ele>
<time>2015-04-26T14:03:29Z</time>
</trkpt>
<trkpt lat="35.1435819" lon="32.5283702">
<ele>61.11</ele>
<time>2015-04-26T14:03:30Z</time>
</trkpt>
<trkpt lat="35.1435250" lon="32.5282774">
<ele>60.52</ele>
<time>2015-04-26T14:03:31Z</time>
</trkpt>
<trkpt lat="35.1434684" lon="32.5281817">
<ele>60.72</ele>
<time>2015-04-26T14:03:32Z</time>
</trkpt>
<trkpt lat="35.1434159" lon="32.5280953">
<ele>60.32</ele>
<time>2015-04-26T14:03:33Z</time>
</trkpt>
<trkpt lat="35.1433716" lon="32.5279894">
<ele>60.12</ele>
<time>2015-04-26T14:03:34Z</time>
</trkpt>
<trkpt lat="35.1433307" lon="32.5278936">
<ele>60.02</ele>
<time>2015-04-26T14:03:35Z</time>
</trkpt>
<trkpt lat="35.1432838" lon="32.5277789">
<ele>59.47</ele>
<time>2015-04-26T14:03:36Z</time>
</trkpt>
<trkpt lat="35.1432437" lon="32.5276752">
<ele>59.20</ele>
<time>2015-04-26T14:03:37Z</time>
</trkpt>
<trkpt lat="35.1432220" lon="32.5275467">
<ele>59.06</ele>
<time>2015-04-26T14:03:38Z</time>
</trkpt>
<trkpt lat="35.1431992" lon="32.5274297">
<ele>58.49</ele>
<time>2015-04-26T14:03:39Z</time>
</trkpt>
<trkpt lat="35.1431700" lon="32.5273094">
<ele>57.71</ele>
<time>2015-04-26T14:03:40Z</time>
</trkpt>
<trkpt lat="35.1431440" lon="32.5271909">
<ele>56.82</ele>
<time>2015-04-26T14:03:41Z</time>
</trkpt>
<trkpt lat="35.1431094" lon="32.5270744">
<ele>56.37</ele>
<time>2015-04-26T14:03:42Z</time>
</trkpt>
<trkpt lat="35.1430664" lon="32.5269668">
<ele>56.15</ele>
<time>2015-04-26T14:03:43Z</time>
</trkpt>
<trkpt lat="35.1430168" lon="32.5268609">
<ele>56.04</ele>
<time>2015-04-26T14:03:44Z</time>
</trkpt>
<trkpt lat="35.1429591" lon="32.5267646">
<ele>55.48</ele>
<time>2015-04-26T14:03:45Z</time>
</trkpt>
<trkpt lat="35.1428880" lon="32.5266712">
<ele>55.20</ele>
<time>2015-04-26T14:03:46Z</time>
</trkpt>
<trkpt lat="35.1428164" lon="32.5265808">
<ele>54.56</ele>
<time>2015-04-26T14:03:47Z</time>
</trkpt>
<trkpt lat="35.1427404" lon="32.5264980">
<ele>53.74</ele>
<time>2015-04-26T14:03:48Z</time>
</trkpt>
<trkpt lat="35.1426671" lon="32.5264013">
<ele>53.33</ele>
<time>2015-04-26T14:03:49Z</time>
</trkpt>
<trkpt lat="35.1426017" lon="32.5262954">
<ele>53.63</ele>
<time>2015-04-26T14:03:50Z</time>
</trkpt>
<trkpt lat="35.1425450" lon="32.5261814">
<ele>53.28</ele>
<time>2015-04-26T14:03:51Z</time>
</trkpt>
<trkpt lat="35.1424861" lon="32.5260699">
<ele>52.60</ele>
<time>2015-04-26T14:03:52Z</time>
</trkpt>
<trkpt lat="35.1424300" lon="32.5259510">
<ele>51.76</ele>
<time>2015-04-26T14:03:53Z</time>
</trkpt>
<trkpt lat="35.1423832" lon="32.5258337">
<ele>50.84</ele>
<time>2015-04-26T14:03:54Z</time>
</trkpt>
<trkpt lat="35.1423330" lon="32.5257109">
<ele>50.38</ele>
<time>2015-04-26T14:03:55Z</time>
</trkpt>
<trkpt lat="35.1422984" lon="32.5255867">
<ele>49.15</ele>
<time>2015-04-26T14:03:56Z</time>
</trkpt>
<trkpt lat="35.1422758" lon="32.5254634">
<ele>47.54</ele>
<time>2015-04-26T14:03:57Z</time>
</trkpt>
<trkpt lat="35.1422605" lon="32.5253405">
<ele>47.73</ele>
<time>2015-04-26T14:03:58Z</time>
</trkpt>
<trkpt lat="35.1422389" lon="32.5252291">
<ele>46.83</ele>
<time>2015-04-26T14:03:59Z</time>
</trkpt>
<trkpt lat="35.1422113" lon="32.5251288">
<ele>45.38</ele>
<time>2015-04-26T14:04:00Z</time>
</trkpt>
<trkpt lat="35.1421857" lon="32.5250385">
<ele>45.15</ele>
<time>2015-04-26T14:04:01Z</time>
</trkpt>
<trkpt lat="35.1421533" lon="32.5249363">
<ele>45.04</ele>
<time>2015-04-26T14:04:02Z</time>
</trkpt>
<trkpt lat="35.1421156" lon="32.5248471">
<ele>44.48</ele>
<time>2015-04-26T14:04:03Z</time>
</trkpt>
<trkpt lat="35.1420819" lon="32.5247552">
<ele>43.70</ele>
<time>2015-04-26T14:04:04Z</time>
</trkpt>
<trkpt lat="35.1420535" lon="32.5246732">
<ele>43.31</ele>
<time>2015-04-26T14:04:05Z</time>
</trkpt>
<trkpt lat="35.1420138" lon="32.5245904">
<ele>43.62</ele>
<time>2015-04-26T14:04:06Z</time>
</trkpt>
<trkpt lat="35.1419836" lon="32.5245012">
<ele>43.77</ele>
<time>2015-04-26T14:04:07Z</time>
</trkpt>
<trkpt lat="35.1419480" lon="32.5244145">
<ele>43.85</ele>
<time>2015-04-26T14:04:08Z</time>
</trkpt>
<trkpt lat="35.1419038" lon="32.5243297">
<ele>42.89</ele>
<time>2015-04-26T14:04:09Z</time>
</trkpt>
<trkpt lat="35.1418640" lon="32.5242413">
<ele>41.91</ele>
<time>2015-04-26T14:04:10Z</time>
</trkpt>
<trkpt lat="35.1418138" lon="32.5241554">
<ele>40.92</ele>
<time>2015-04-26T14:04:11Z</time>
</trkpt>
<trkpt lat="35.1417618" lon="32.5240713">
<ele>40.42</ele>
<time>2015-04-26T14:04:12Z</time>
</trkpt>
<trkpt lat="35.1417015" lon="32.5239904">
<ele>41.17</ele>
<time>2015-04-26T14:04:13Z</time>
</trkpt>
<trkpt lat="35.1416380" lon="32.5239118">
<ele>41.55</ele>
<time>2015-04-26T14:04:14Z</time>
</trkpt>
<trkpt lat="35.1415784" lon="32.5238317">
<ele>41.74</ele>
<time>2015-04-26T14:04:15Z</time>
</trkpt>
<trkpt lat="35.1415208" lon="32.5237560">
<ele>41.83</ele>
<time>2015-04-26T14:04:16Z</time>
</trkpt>
<trkpt lat="35.1414495" lon="32.5236805">
<ele>41.88</ele>
<time>2015-04-26T14:04:17Z</time>
</trkpt>
<trkpt lat="35.1413794" lon="32.5236140">
<ele>41.40</ele>
<time>2015-04-26T14:04:18Z</time>
</trkpt>
<trkpt lat="35.1413079" lon="32.5235543">
<ele>42.16</ele>
<time>2015-04-26T14:04:19Z</time>
</trkpt>
<trkpt lat="35.1412307" lon="32.5234820">
<ele>44.04</ele>
<time>2015-04-26T14:04:20Z</time>
</trkpt>
<trkpt lat="35.1411595" lon="32.5234276">
<ele>45.48</ele>
<time>2015-04-26T14:04:21Z</time>
</trkpt>
<trkpt lat="35.1410868" lon="32.5233772">
<ele>45.70</ele>
<time>2015-04-26T14:04:22Z</time>
</trkpt>
<trkpt lat="35.1410091" lon="32.5233221">
<ele>47.31</ele>
<time>2015-04-26T14:04:23Z</time>
</trkpt>
<trkpt lat="35.1409452" lon="32.5232806">
<ele>47.12</ele>
<time>2015-04-26T14:04:24Z</time>
</trkpt>
<trkpt lat="35.1408710" lon="32.5232456">
<ele>47.52</ele>
<time>2015-04-26T14:04:25Z</time>
</trkpt>
<trkpt lat="35.1408012" lon="32.5232128">
<ele>47.22</ele>
<time>2015-04-26T14:04:26Z</time>
</trkpt>
<trkpt lat="35.1407400" lon="32.5231821">
<ele>46.57</ele>
<time>2015-04-26T14:04:27Z</time>
</trkpt>
<trkpt lat="35.1406807" lon="32.5231573">
<ele>45.25</ele>
<time>2015-04-26T14:04:28Z</time>
</trkpt>
<trkpt lat="35.1406187" lon="32.5231389">
<ele>44.59</ele>
<time>2015-04-26T14:04:29Z</time>
</trkpt>
<trkpt lat="35.1405538" lon="32.5231206">
<ele>43.26</ele>
<time>2015-04-26T14:04:30Z</time>
</trkpt>
<trkpt lat="35.1404892" lon="32.5231055">
<ele>42.59</ele>
<time>2015-04-26T14:04:31Z</time>
</trkpt>
<trkpt lat="35.1404326" lon="32.5230924">
<ele>42.26</ele>
<time>2015-04-26T14:04:32Z</time>
</trkpt>
<trkpt lat="35.1403696" lon="32.5230719">
<ele>39.59</ele>
<time>2015-04-26T14:04:33Z</time>
</trkpt>
<trkpt lat="35.1403126" lon="32.5230583">
<ele>36.26</ele>
<time>2015-04-26T14:04:34Z</time>
</trkpt>
<trkpt lat="35.1402507" lon="32.5230422">
<ele>34.09</ele>
<time>2015-04-26T14:04:35Z</time>
</trkpt>
<trkpt lat="35.1401906" lon="32.5230288">
<ele>33.01</ele>
<time>2015-04-26T14:04:36Z</time>
</trkpt>
<trkpt lat="35.1401281" lon="32.5230187">
<ele>32.47</ele>
<time>2015-04-26T14:04:37Z</time>
</trkpt>
<trkpt lat="35.1400717" lon="32.5230155">
<ele>32.20</ele>
<time>2015-04-26T14:04:38Z</time>
</trkpt>
<trkpt lat="35.1400150" lon="32.5230112">
<ele>32.06</ele>
<time>2015-04-26T14:04:39Z</time>
</trkpt>
<trkpt lat="35.1399654" lon="32.5230030">
<ele>32.49</ele>
<time>2015-04-26T14:04:40Z</time>
</trkpt>
<trkpt lat="35.1399154" lon="32.5229922">
<ele>32.71</ele>
<time>2015-04-26T14:04:41Z</time>
</trkpt>
<trkpt lat="35.1398703" lon="32.5229892">
<ele>33.32</ele>
<time>2015-04-26T14:04:42Z</time>
</trkpt>
<trkpt lat="35.1398233" lon="32.5229882">
<ele>33.62</ele>
<time>2015-04-26T14:04:43Z</time>
</trkpt>
<trkpt lat="35.1397745" lon="32.5229815">
<ele>33.77</ele>
<time>2015-04-26T14:04:44Z</time>
</trkpt>
<trkpt lat="35.1397183" lon="32.5229756">
<ele>33.85</ele>
<time>2015-04-26T14:04:45Z</time>
</trkpt>
<trkpt lat="35.1396698" lon="32.5229609">
<ele>33.89</ele>
<time>2015-04-26T14:04:46Z</time>
</trkpt>
<trkpt lat="35.1396204" lon="32.5229424">
<ele>34.41</ele>
<time>2015-04-26T14:04:47Z</time>
</trkpt>
<trkpt lat="35.1395713" lon="32.5229299">
<ele>34.67</ele>
<time>2015-04-26T14:04:48Z</time>
</trkpt>
<trkpt lat="35.1395247" lon="32.5229080">
<ele>34.80</ele>
<time>2015-04-26T14:04:49Z</time>
</trkpt>
<trkpt lat="35.1394524" lon="32.5228678">
<ele>34.39</ele>
<time>2015-04-26T14:04:51Z</time>
</trkpt>
<trkpt lat="35.1393837" lon="32.5228149">
<ele>34.04</ele>
<time>2015-04-26T14:04:53Z</time>
</trkpt>
<trkpt lat="35.1393046" lon="32.5227666">
<ele>33.95</ele>
<time>2015-04-26T14:04:55Z</time>
</trkpt>
<trkpt lat="35.1392554" lon="32.5227439">
<ele>33.44</ele>
<time>2015-04-26T14:04:56Z</time>
</trkpt>
<trkpt lat="35.1392138" lon="32.5227115">
<ele>33.18</ele>
<time>2015-04-26T14:04:57Z</time>
</trkpt>
<trkpt lat="35.1391354" lon="32.5226482">
<ele>31.74</ele>
<time>2015-04-26T14:04:59Z</time>
</trkpt>
<trkpt lat="35.1390946" lon="32.5226211">
<ele>31.33</ele>
<time>2015-04-26T14:05:00Z</time>
</trkpt>
<trkpt lat="35.1390231" lon="32.5225740">
<ele>29.28</ele>
<time>2015-04-26T14:05:02Z</time>
</trkpt>
<trkpt lat="35.1389551" lon="32.5225378">
<ele>28.76</ele>
<time>2015-04-26T14:05:04Z</time>
</trkpt>
<trkpt lat="35.1388998" lon="32.5225124">
<ele>29.38</ele>
<time>2015-04-26T14:05:06Z</time>
</trkpt>
<trkpt lat="35.1388312" lon="32.5225012">
<ele>31.11</ele>
<time>2015-04-26T14:05:09Z</time>
</trkpt>
<trkpt lat="35.1387779" lon="32.5224903">
<ele>30.95</ele>
<time>2015-04-26T14:05:12Z</time>
</trkpt>
<trkpt lat="35.1387311" lon="32.5224684">
<ele>31.43</ele>
<time>2015-04-26T14:05:15Z</time>
</trkpt>
<trkpt lat="35.1386839" lon="32.5224350">
<ele>32.39</ele>
<time>2015-04-26T14:05:19Z</time>
</trkpt>
<trkpt lat="35.1386418" lon="32.5224127">
<ele>33.56</ele>
<time>2015-04-26T14:05:24Z</time>
</trkpt>
<trkpt lat="35.1385867" lon="32.5224061">
<ele>33.82</ele>
<time>2015-04-26T14:05:29Z</time>
</trkpt>
<trkpt lat="35.1385335" lon="32.5223975">
<ele>38.36</ele>
<time>2015-04-26T14:10:50Z</time>
</trkpt>
<trkpt lat="35.1384713" lon="32.5223654">
<ele>37.73</ele>
<time>2015-04-26T14:10:53Z</time>
</trkpt>
<trkpt lat="35.1384109" lon="32.5223475">
<ele>37.13</ele>
<time>2015-04-26T14:10:55Z</time>
</trkpt>
<trkpt lat="35.1383437" lon="32.5223239">
<ele>38.23</ele>
<time>2015-04-26T14:10:57Z</time>
</trkpt>
<trkpt lat="35.1382689" lon="32.5222952">
<ele>38.00</ele>
<time>2015-04-26T14:10:59Z</time>
</trkpt>
<trkpt lat="35.1381987" lon="32.5222681">
<ele>37.19</ele>
<time>2015-04-26T14:11:01Z</time>
</trkpt>
<trkpt lat="35.1381232" lon="32.5222448">
<ele>36.99</ele>
<time>2015-04-26T14:11:03Z</time>
</trkpt>
<trkpt lat="35.1380497" lon="32.5222208">
<ele>36.94</ele>
<time>2015-04-26T14:11:05Z</time>
</trkpt>
<trkpt lat="35.1379811" lon="32.5221918">
<ele>36.93</ele>
<time>2015-04-26T14:11:07Z</time>
</trkpt>
<trkpt lat="35.1379228" lon="32.5221756">
<ele>36.93</ele>
<time>2015-04-26T14:11:09Z</time>
</trkpt>
<trkpt lat="35.1378564" lon="32.5221595">
<ele>36.68</ele>
<time>2015-04-26T14:11:12Z</time>
</trkpt>
<trkpt lat="35.1378051" lon="32.5221421">
<ele>36.86</ele>
<time>2015-04-26T14:11:14Z</time>
</trkpt>
<trkpt lat="35.1377447" lon="32.5221170">
<ele>36.41</ele>
<time>2015-04-26T14:11:16Z</time>
</trkpt>
<trkpt lat="35.1376799" lon="32.5220874">
<ele>36.05</ele>
<time>2015-04-26T14:11:18Z</time>
</trkpt>
<trkpt lat="35.1376135" lon="32.5220436">
<ele>36.71</ele>
<time>2015-04-26T14:11:20Z</time>
</trkpt>
<trkpt lat="35.1375387" lon="32.5220017">
<ele>36.87</ele>
<time>2015-04-26T14:11:22Z</time>
</trkpt>
<trkpt lat="35.1374723" lon="32.5219577">
<ele>37.66</ele>
<time>2015-04-26T14:11:24Z</time>
</trkpt>
<trkpt lat="35.1374079" lon="32.5219040">
<ele>37.86</ele>
<time>2015-04-26T14:11:26Z</time>
</trkpt>
<trkpt lat="35.1373411" lon="32.5218460">
<ele>37.91</ele>
<time>2015-04-26T14:11:28Z</time>
</trkpt>
<trkpt lat="35.1372783" lon="32.5217825">
<ele>37.92</ele>
<time>2015-04-26T14:11:30Z</time>
</trkpt>
<trkpt lat="35.1372134" lon="32.5217214">
<ele>37.67</ele>
<time>2015-04-26T14:11:32Z</time>
</trkpt>
<trkpt lat="35.1371652" lon="32.5216858">
<ele>37.80</ele>
<time>2015-04-26T14:11:33Z</time>
</trkpt>
<trkpt lat="35.1370994" lon="32.5216292">
<ele>37.89</ele>
<time>2015-04-26T14:11:35Z</time>
</trkpt>
<trkpt lat="35.1370206" lon="32.5215852">
<ele>37.92</ele>
<time>2015-04-26T14:11:37Z</time>
</trkpt>
<trkpt lat="35.1369800" lon="32.5215590">
<ele>37.92</ele>
<time>2015-04-26T14:11:38Z</time>
</trkpt>
<trkpt lat="35.1369366" lon="32.5215316">
<ele>37.92</ele>
<time>2015-04-26T14:11:39Z</time>
</trkpt>
<trkpt lat="35.1368649" lon="32.5214892">
<ele>38.67</ele>
<time>2015-04-26T14:11:41Z</time>
</trkpt>
<trkpt lat="35.1367943" lon="32.5214533">
<ele>38.86</ele>
<time>2015-04-26T14:11:43Z</time>
</trkpt>
<trkpt lat="35.1367173" lon="32.5214142">
<ele>39.66</ele>
<time>2015-04-26T14:11:45Z</time>
</trkpt>
<trkpt lat="35.1366454" lon="32.5213800">
<ele>39.86</ele>
<time>2015-04-26T14:11:47Z</time>
</trkpt>
<trkpt lat="35.1365941" lon="32.5213542">
<ele>40.66</ele>
<time>2015-04-26T14:11:49Z</time>
</trkpt>
<trkpt lat="35.1365469" lon="32.5213209">
<ele>40.86</ele>
<time>2015-04-26T14:11:51Z</time>
</trkpt>
<trkpt lat="35.1364844" lon="32.5212873">
<ele>40.91</ele>
<time>2015-04-26T14:11:53Z</time>
</trkpt>
<trkpt lat="35.1364182" lon="32.5212540">
<ele>40.92</ele>
<time>2015-04-26T14:11:55Z</time>
</trkpt>
<trkpt lat="35.1363541" lon="32.5212138">
<ele>41.42</ele>
<time>2015-04-26T14:11:57Z</time>
</trkpt>
<trkpt lat="35.1362950" lon="32.5211744">
<ele>41.80</ele>
<time>2015-04-26T14:11:59Z</time>
</trkpt>
<trkpt lat="35.1362381" lon="32.5211322">
<ele>41.89</ele>
<time>2015-04-26T14:12:01Z</time>
</trkpt>
<trkpt lat="35.1361751" lon="32.5210977">
<ele>41.92</ele>
<time>2015-04-26T14:12:03Z</time>
</trkpt>
<trkpt lat="35.1361052" lon="32.5210606">
<ele>41.92</ele>
<time>2015-04-26T14:12:05Z</time>
</trkpt>
<trkpt lat="35.1360333" lon="32.5210222">
<ele>41.92</ele>
<time>2015-04-26T14:12:07Z</time>
</trkpt>
<trkpt lat="35.1359599" lon="32.5209873">
<ele>41.92</ele>
<time>2015-04-26T14:12:09Z</time>
</trkpt>
<trkpt lat="35.1358839" lon="32.5209527">
<ele>41.92</ele>
<time>2015-04-26T14:12:11Z</time>
</trkpt>
<trkpt lat="35.1358110" lon="32.5209136">
<ele>41.92</ele>
<time>2015-04-26T14:12:13Z</time>
</trkpt>
<trkpt lat="35.1357393" lon="32.5208750">
<ele>41.42</ele>
<time>2015-04-26T14:12:15Z</time>
</trkpt>
<trkpt lat="35.1356660" lon="32.5208457">
<ele>41.05</ele>
<time>2015-04-26T14:12:17Z</time>
</trkpt>
<trkpt lat="35.1355924" lon="32.5208143">
<ele>41.21</ele>
<time>2015-04-26T14:12:19Z</time>
</trkpt>
<trkpt lat="35.1355188" lon="32.5207792">
<ele>41.25</ele>
<time>2015-04-26T14:12:21Z</time>
</trkpt>
<trkpt lat="35.1354444" lon="32.5207417">
<ele>41.01</ele>
<time>2015-04-26T14:12:23Z</time>
</trkpt>
<trkpt lat="35.1353675" lon="32.5207106">
<ele>40.95</ele>
<time>2015-04-26T14:12:25Z</time>
</trkpt>
<trkpt lat="35.1352701" lon="32.5206699">
<ele>40.93</ele>
<time>2015-04-26T14:12:27Z</time>
</trkpt>
<trkpt lat="35.1352282" lon="32.5206439">
<ele>40.93</ele>
<time>2015-04-26T14:12:28Z</time>
</trkpt>
<trkpt lat="35.1351762" lon="32.5206303">
<ele>40.93</ele>
<time>2015-04-26T14:12:29Z</time>
</trkpt>
<trkpt lat="35.1351262" lon="32.5206180">
<ele>40.93</ele>
<time>2015-04-26T14:12:30Z</time>
</trkpt>
<trkpt lat="35.1350747" lon="32.5205912">
<ele>39.93</ele>
<time>2015-04-26T14:12:31Z</time>
</trkpt>
<trkpt lat="35.1350222" lon="32.5205685">
<ele>39.43</ele>
<time>2015-04-26T14:12:32Z</time>
</trkpt>
<trkpt lat="35.1349670" lon="32.5205392">
<ele>38.68</ele>
<time>2015-04-26T14:12:33Z</time>
</trkpt>
<trkpt lat="35.1349079" lon="32.5205172">
<ele>37.80</ele>
<time>2015-04-26T14:12:34Z</time>
</trkpt>
<trkpt lat="35.1348513" lon="32.5204916">
<ele>37.36</ele>
<time>2015-04-26T14:12:35Z</time>
</trkpt>
<trkpt lat="35.1347844" lon="32.5204710">
<ele>37.14</ele>
<time>2015-04-26T14:12:36Z</time>
</trkpt>
<trkpt lat="35.1347062" lon="32.5204453">
<ele>37.03</ele>
<time>2015-04-26T14:12:37Z</time>
</trkpt>
<trkpt lat="35.1346378" lon="32.5204255">
<ele>37.48</ele>
<time>2015-04-26T14:12:38Z</time>
</trkpt>
<trkpt lat="35.1345679" lon="32.5204102">
<ele>37.20</ele>
<time>2015-04-26T14:12:39Z</time>
</trkpt>
<trkpt lat="35.1344971" lon="32.5203832">
<ele>37.06</ele>
<time>2015-04-26T14:12:40Z</time>
</trkpt>
<trkpt lat="35.1344366" lon="32.5203708">
<ele>35.99</ele>
<time>2015-04-26T14:12:41Z</time>
</trkpt>
<trkpt lat="35.1343592" lon="32.5203596">
<ele>35.46</ele>
<time>2015-04-26T14:12:42Z</time>
</trkpt>
<trkpt lat="35.1342861" lon="32.5203497">
<ele>34.69</ele>
<time>2015-04-26T14:12:43Z</time>
</trkpt>
<trkpt lat="35.1342016" lon="32.5203412">
<ele>34.31</ele>
<time>2015-04-26T14:12:44Z</time>
</trkpt>
<trkpt lat="35.1341184" lon="32.5203351">
<ele>34.12</ele>
<time>2015-04-26T14:12:45Z</time>
</trkpt>
<trkpt lat="35.1340368" lon="32.5203206">
<ele>33.52</ele>
<time>2015-04-26T14:12:46Z</time>
</trkpt>
<trkpt lat="35.1339451" lon="32.5203040">
<ele>33.22</ele>
<time>2015-04-26T14:12:47Z</time>
</trkpt>
<trkpt lat="35.1338573" lon="32.5202809">
<ele>33.07</ele>
<time>2015-04-26T14:12:48Z</time>
</trkpt>
<trkpt lat="35.1337759" lon="32.5202653">
<ele>32.50</ele>
<time>2015-04-26T14:12:49Z</time>
</trkpt>
<trkpt lat="35.1336800" lon="32.5202427">
<ele>31.71</ele>
<time>2015-04-26T14:12:50Z</time>
</trkpt>
<trkpt lat="35.1335837" lon="32.5202133">
<ele>31.82</ele>
<time>2015-04-26T14:12:51Z</time>
</trkpt>
<trkpt lat="35.1334878" lon="32.5201829">
<ele>31.87</ele>
<time>2015-04-26T14:12:52Z</time>
</trkpt>
<trkpt lat="35.1333932" lon="32.5201452">
<ele>31.90</ele>
<time>2015-04-26T14:12:53Z</time>
</trkpt>
<trkpt lat="35.1332968" lon="32.5201011">
<ele>31.91</ele>
<time>2015-04-26T14:12:54Z</time>
</trkpt>
<trkpt lat="35.1332003" lon="32.5200540">
<ele>31.92</ele>
<time>2015-04-26T14:12:55Z</time>
</trkpt>
<trkpt lat="35.1331103" lon="32.5199996">
<ele>31.42</ele>
<time>2015-04-26T14:12:56Z</time>
</trkpt>
<trkpt lat="35.1330298" lon="32.5199500">
<ele>31.17</ele>
<time>2015-04-26T14:12:57Z</time>
</trkpt>
<trkpt lat="35.1329386" lon="32.5198928">
<ele>30.55</ele>
<time>2015-04-26T14:12:58Z</time>
</trkpt>
<trkpt lat="35.1328588" lon="32.5198250">
<ele>30.74</ele>
<time>2015-04-26T14:12:59Z</time>
</trkpt>
<trkpt lat="35.1327763" lon="32.5197512">
<ele>30.33</ele>
<time>2015-04-26T14:13:00Z</time>
</trkpt>
<trkpt lat="35.1326989" lon="32.5196799">
<ele>30.13</ele>
<time>2015-04-26T14:13:01Z</time>
</trkpt>
<trkpt lat="35.1326297" lon="32.5196008">
<ele>29.53</ele>
<time>2015-04-26T14:13:02Z</time>
</trkpt>
<trkpt lat="35.1325560" lon="32.5195245">
<ele>29.73</ele>
<time>2015-04-26T14:13:03Z</time>
</trkpt>
<trkpt lat="35.1324829" lon="32.5194484">
<ele>29.83</ele>
<time>2015-04-26T14:13:04Z</time>
</trkpt>
<trkpt lat="35.1324306" lon="32.5193745">
<ele>29.38</ele>
<time>2015-04-26T14:13:05Z</time>
</trkpt>
<trkpt lat="35.1323728" lon="32.5193042">
<ele>28.15</ele>
<time>2015-04-26T14:13:06Z</time>
</trkpt>
<trkpt lat="35.1323025" lon="32.5192318">
<ele>27.54</ele>
<time>2015-04-26T14:13:07Z</time>
</trkpt>
<trkpt lat="35.1322404" lon="32.5191523">
<ele>27.23</ele>
<time>2015-04-26T14:13:08Z</time>
</trkpt>
<trkpt lat="35.1321787" lon="32.5190730">
<ele>26.58</ele>
<time>2015-04-26T14:13:09Z</time>
</trkpt>
<trkpt lat="35.1321176" lon="32.5190104">
<ele>25.75</ele>
<time>2015-04-26T14:13:10Z</time>
</trkpt>
<trkpt lat="35.1320492" lon="32.5189427">
<ele>25.34</ele>
<time>2015-04-26T14:13:11Z</time>
</trkpt>
<trkpt lat="35.1319908" lon="32.5188794">
<ele>24.63</ele>
<time>2015-04-26T14:13:12Z</time>
</trkpt>
<trkpt lat="35.1319226" lon="32.5188204">
<ele>23.78</ele>
<time>2015-04-26T14:13:13Z</time>
</trkpt>
<trkpt lat="35.1318539" lon="32.5187673">
<ele>23.35</ele>
<time>2015-04-26T14:13:14Z</time>
</trkpt>
<trkpt lat="35.1317878" lon="32.5187161">
<ele>23.14</ele>
<time>2015-04-26T14:13:15Z</time>
</trkpt>
<trkpt lat="35.1317143" lon="32.5186658">
<ele>23.03</ele>
<time>2015-04-26T14:13:16Z</time>
</trkpt>
<trkpt lat="35.1316492" lon="32.5186166">
<ele>22.98</ele>
<time>2015-04-26T14:13:17Z</time>
</trkpt>
<trkpt lat="35.1315824" lon="32.5185677">
<ele>23.45</ele>
<time>2015-04-26T14:13:18Z</time>
</trkpt>
<trkpt lat="35.1315160" lon="32.5185330">
<ele>23.69</ele>
<time>2015-04-26T14:13:19Z</time>
</trkpt>
<trkpt lat="35.1314468" lon="32.5185057">
<ele>23.81</ele>
<time>2015-04-26T14:13:20Z</time>
</trkpt>
<trkpt lat="35.1313792" lon="32.5184652">
<ele>23.87</ele>
<time>2015-04-26T14:13:21Z</time>
</trkpt>
<trkpt lat="35.1313035" lon="32.5184469">
<ele>24.40</ele>
<time>2015-04-26T14:13:22Z</time>
</trkpt>
<trkpt lat="35.1312382" lon="32.5184132">
<ele>24.66</ele>
<time>2015-04-26T14:13:23Z</time>
</trkpt>
<trkpt lat="35.1311733" lon="32.5183904">
<ele>24.29</ele>
<time>2015-04-26T14:13:24Z</time>
</trkpt>
<trkpt lat="35.1311087" lon="32.5183621">
<ele>24.11</ele>
<time>2015-04-26T14:13:25Z</time>
</trkpt>
<trkpt lat="35.1310536" lon="32.5183430">
<ele>23.02</ele>
<time>2015-04-26T14:13:26Z</time>
</trkpt>
<trkpt lat="35.1309894" lon="32.5183206">
<ele>21.97</ele>
<time>2015-04-26T14:13:27Z</time>
</trkpt>
<trkpt lat="35.1309280" lon="32.5182912">
<ele>20.95</ele>
<time>2015-04-26T14:13:28Z</time>
</trkpt>
<trkpt lat="35.1308846" lon="32.5182561">
<ele>19.44</ele>
<time>2015-04-26T14:13:29Z</time>
</trkpt>
<trkpt lat="35.1308164" lon="32.5182377">
<ele>19.18</ele>
<time>2015-04-26T14:13:30Z</time>
</trkpt>
<trkpt lat="35.1307548" lon="32.5182157">
<ele>20.05</ele>
<time>2015-04-26T14:13:31Z</time>
</trkpt>
<trkpt lat="35.1306895" lon="32.5181918">
<ele>20.49</ele>
<time>2015-04-26T14:13:32Z</time>
</trkpt>
<trkpt lat="35.1306277" lon="32.5181713">
<ele>21.21</ele>
<time>2015-04-26T14:13:33Z</time>
</trkpt>
<trkpt lat="35.1305665" lon="32.5181332">
<ele>22.07</ele>
<time>2015-04-26T14:13:34Z</time>
</trkpt>
<trkpt lat="35.1305112" lon="32.5181109">
<ele>22.50</ele>
<time>2015-04-26T14:13:35Z</time>
</trkpt>
<trkpt lat="35.1304584" lon="32.5180830">
<ele>23.21</ele>
<time>2015-04-26T14:13:36Z</time>
</trkpt>
<trkpt lat="35.1304018" lon="32.5180547">
<ele>23.57</ele>
<time>2015-04-26T14:13:37Z</time>
</trkpt>
<trkpt lat="35.1303470" lon="32.5180277">
<ele>23.75</ele>
<time>2015-04-26T14:13:38Z</time>
</trkpt>
<trkpt lat="35.1302954" lon="32.5179980">
<ele>23.84</ele>
<time>2015-04-26T14:13:39Z</time>
</trkpt>
<trkpt lat="35.1302123" lon="32.5179439">
<ele>22.65</ele>
<time>2015-04-26T14:13:41Z</time>
</trkpt>
<trkpt lat="35.1301617" lon="32.5179090">
<ele>22.29</ele>
<time>2015-04-26T14:13:42Z</time>
</trkpt>
<trkpt lat="35.1301115" lon="32.5178835">
<ele>21.61</ele>
<time>2015-04-26T14:13:43Z</time>
</trkpt>
<trkpt lat="35.1300684" lon="32.5178498">
<ele>20.77</ele>
<time>2015-04-26T14:13:44Z</time>
</trkpt>
<trkpt lat="35.1300107" lon="32.5178243">
<ele>20.35</ele>
<time>2015-04-26T14:13:45Z</time>
</trkpt>
<trkpt lat="35.1299604" lon="32.5177833">
<ele>20.14</ele>
<time>2015-04-26T14:13:46Z</time>
</trkpt>
<trkpt lat="35.1299040" lon="32.5177556">
<ele>20.53</ele>
<time>2015-04-26T14:13:47Z</time>
</trkpt>
<trkpt lat="35.1298626" lon="32.5177196">
<ele>20.73</ele>
<time>2015-04-26T14:13:48Z</time>
</trkpt>
<trkpt lat="35.1298145" lon="32.5176866">
<ele>20.83</ele>
<time>2015-04-26T14:13:49Z</time>
</trkpt>
<trkpt lat="35.1297626" lon="32.5176532">
<ele>20.88</ele>
<time>2015-04-26T14:13:50Z</time>
</trkpt>
<trkpt lat="35.1297109" lon="32.5176158">
<ele>20.90</ele>
<time>2015-04-26T14:13:51Z</time>
</trkpt>
<trkpt lat="35.1296658" lon="32.5175786">
<ele>21.41</ele>
<time>2015-04-26T14:13:52Z</time>
</trkpt>
<trkpt lat="35.1296215" lon="32.5175451">
<ele>21.17</ele>
<time>2015-04-26T14:13:53Z</time>
</trkpt>
<trkpt lat="35.1295856" lon="32.5175049">
<ele>20.55</ele>
<time>2015-04-26T14:13:54Z</time>
</trkpt>
<trkpt lat="35.1295344" lon="32.5174641">
<ele>19.74</ele>
<time>2015-04-26T14:13:55Z</time>
</trkpt>
<trkpt lat="35.1294914" lon="32.5174240">
<ele>19.33</ele>
<time>2015-04-26T14:13:56Z</time>
</trkpt>
<trkpt lat="35.1294480" lon="32.5173917">
<ele>18.63</ele>
<time>2015-04-26T14:13:57Z</time>
</trkpt>
<trkpt lat="35.1294067" lon="32.5173586">
<ele>18.28</ele>
<time>2015-04-26T14:13:58Z</time>
</trkpt>
<trkpt lat="35.1293609" lon="32.5173206">
<ele>18.10</ele>
<time>2015-04-26T14:13:59Z</time>
</trkpt>
<trkpt lat="35.1293121" lon="32.5172916">
<ele>18.01</ele>
<time>2015-04-26T14:14:00Z</time>
</trkpt>
<trkpt lat="35.1292694" lon="32.5172583">
<ele>17.97</ele>
<time>2015-04-26T14:14:01Z</time>
</trkpt>
<trkpt lat="35.1292282" lon="32.5172237">
<ele>17.45</ele>
<time>2015-04-26T14:14:02Z</time>
</trkpt>
<trkpt lat="35.1291864" lon="32.5171928">
<ele>16.69</ele>
<time>2015-04-26T14:14:03Z</time>
</trkpt>
<trkpt lat="35.1291456" lon="32.5171598">
<ele>16.81</ele>
<time>2015-04-26T14:14:04Z</time>
</trkpt>
<trkpt lat="35.1291014" lon="32.5171309">
<ele>17.37</ele>
<time>2015-04-26T14:14:05Z</time>
</trkpt>
<trkpt lat="35.1290574" lon="32.5171000">
<ele>17.65</ele>
<time>2015-04-26T14:14:06Z</time>
</trkpt>
<trkpt lat="35.1290068" lon="32.5170640">
<ele>17.79</ele>
<time>2015-04-26T14:14:07Z</time>
</trkpt>
<trkpt lat="35.1289564" lon="32.5170286">
<ele>17.86</ele>
<time>2015-04-26T14:14:08Z</time>
</trkpt>
<trkpt lat="35.1289103" lon="32.5170021">
<ele>17.89</ele>
<time>2015-04-26T14:14:09Z</time>
</trkpt>
<trkpt lat="35.1288617" lon="32.5169799">
<ele>17.91</ele>
<time>2015-04-26T14:14:10Z</time>
</trkpt>
<trkpt lat="35.1288061" lon="32.5169548">
<ele>17.92</ele>
<time>2015-04-26T14:14:11Z</time>
</trkpt>
<trkpt lat="35.1287586" lon="32.5169299">
<ele>18.42</ele>
<time>2015-04-26T14:14:12Z</time>
</trkpt>
<trkpt lat="35.1287140" lon="32.5168977">
<ele>18.67</ele>
<time>2015-04-26T14:14:13Z</time>
</trkpt>
<trkpt lat="35.1286705" lon="32.5168751">
<ele>19.30</ele>
<time>2015-04-26T14:14:14Z</time>
</trkpt>
<trkpt lat="35.1286280" lon="32.5168477">
<ele>19.11</ele>
<time>2015-04-26T14:14:15Z</time>
</trkpt>
<trkpt lat="35.1285830" lon="32.5168238">
<ele>19.02</ele>
<time>2015-04-26T14:14:16Z</time>
</trkpt>
<trkpt lat="35.1285378" lon="32.5168135">
<ele>18.97</ele>
<time>2015-04-26T14:14:17Z</time>
</trkpt>
<trkpt lat="35.1284963" lon="32.5167915">
<ele>19.95</ele>
<time>2015-04-26T14:14:18Z</time>
</trkpt>
<trkpt lat="35.1284335" lon="32.5167506">
<ele>19.93</ele>
<time>2015-04-26T14:14:20Z</time>
</trkpt>
<trkpt lat="35.1283884" lon="32.5167417">
<ele>19.93</ele>
<time>2015-04-26T14:14:21Z</time>
</trkpt>
<trkpt lat="35.1283413" lon="32.5167195">
<ele>19.93</ele>
<time>2015-04-26T14:14:22Z</time>
</trkpt>
<trkpt lat="35.1282578" lon="32.5166858">
<ele>19.93</ele>
<time>2015-04-26T14:14:24Z</time>
</trkpt>
<trkpt lat="35.1281711" lon="32.5166544">
<ele>20.18</ele>
<time>2015-04-26T14:14:26Z</time>
</trkpt>
<trkpt lat="35.1281285" lon="32.5166266">
<ele>20.55</ele>
<time>2015-04-26T14:14:27Z</time>
</trkpt>
<trkpt lat="35.1280804" lon="32.5165939">
<ele>20.24</ele>
<time>2015-04-26T14:14:28Z</time>
</trkpt>
<trkpt lat="35.1280299" lon="32.5165751">
<ele>20.08</ele>
<time>2015-04-26T14:14:29Z</time>
</trkpt>
<trkpt lat="35.1279719" lon="32.5165543">
<ele>20.00</ele>
<time>2015-04-26T14:14:30Z</time>
</trkpt>
<trkpt lat="35.1279245" lon="32.5165371">
<ele>20.46</ele>
<time>2015-04-26T14:14:31Z</time>
</trkpt>
<trkpt lat="35.1278555" lon="32.5164785">
<ele>20.31</ele>
<time>2015-04-26T14:14:33Z</time>
</trkpt>
<trkpt lat="35.1277932" lon="32.5164331">
<ele>20.27</ele>
<time>2015-04-26T14:14:35Z</time>
</trkpt>
<trkpt lat="35.1277146" lon="32.5164036">
<ele>19.26</ele>
<time>2015-04-26T14:14:37Z</time>
</trkpt>
<trkpt lat="35.1276260" lon="32.5163546">
<ele>18.76</ele>
<time>2015-04-26T14:14:39Z</time>
</trkpt>
<trkpt lat="35.1275806" lon="32.5163362">
<ele>18.84</ele>
<time>2015-04-26T14:14:40Z</time>
</trkpt>
<trkpt lat="35.1275326" lon="32.5163194">
<ele>18.88</ele>
<time>2015-04-26T14:14:41Z</time>
</trkpt>
<trkpt lat="35.1274886" lon="32.5162920">
<ele>18.90</ele>
<time>2015-04-26T14:14:42Z</time>
</trkpt>
<trkpt lat="35.1274436" lon="32.5162770">
<ele>19.41</ele>
<time>2015-04-26T14:14:43Z</time>
</trkpt>
<trkpt lat="35.1273611" lon="32.5162261">
<ele>19.80</ele>
<time>2015-04-26T14:14:45Z</time>
</trkpt>
<trkpt lat="35.1273174" lon="32.5162092">
<ele>20.36</ele>
<time>2015-04-26T14:14:46Z</time>
</trkpt>
<trkpt lat="35.1272639" lon="32.5161882">
<ele>20.64</ele>
<time>2015-04-26T14:14:47Z</time>
</trkpt>
<trkpt lat="35.1272150" lon="32.5161710">
<ele>20.78</ele>
<time>2015-04-26T14:14:48Z</time>
</trkpt>
<trkpt lat="35.1271394" lon="32.5161353">
<ele>20.89</ele>
<time>2015-04-26T14:14:50Z</time>
</trkpt>
<trkpt lat="35.1270856" lon="32.5160839">
<ele>19.17</ele>
<time>2015-04-26T14:14:52Z</time>
</trkpt>
<trkpt lat="35.1270187" lon="32.5160505">
<ele>17.21</ele>
<time>2015-04-26T14:14:55Z</time>
</trkpt>
<trkpt lat="35.1269672" lon="32.5160234">
<ele>17.00</ele>
<time>2015-04-26T14:14:57Z</time>
</trkpt>
<trkpt lat="35.1269209" lon="32.5159845">
<ele>17.19</ele>
<time>2015-04-26T14:14:59Z</time>
</trkpt>
<trkpt lat="35.1268689" lon="32.5159534">
<ele>16.99</ele>
<time>2015-04-26T14:15:01Z</time>
</trkpt>
<trkpt lat="35.1268164" lon="32.5159246">
<ele>17.44</ele>
<time>2015-04-26T14:15:03Z</time>
</trkpt>
<trkpt lat="35.1267675" lon="32.5159023">
<ele>17.80</ele>
<time>2015-04-26T14:15:05Z</time>
</trkpt>
<trkpt lat="35.1267221" lon="32.5158740">
<ele>17.89</ele>
<time>2015-04-26T14:15:07Z</time>
</trkpt>
<trkpt lat="35.1266749" lon="32.5158427">
<ele>19.17</ele>
<time>2015-04-26T14:15:09Z</time>
</trkpt>
<trkpt lat="35.1266159" lon="32.5158158">
<ele>20.24</ele>
<time>2015-04-26T14:15:11Z</time>
</trkpt>
<trkpt lat="35.1265410" lon="32.5157879">
<ele>20.00</ele>
<time>2015-04-26T14:15:13Z</time>
</trkpt>
<trkpt lat="35.1264593" lon="32.5157619">
<ele>20.19</ele>
<time>2015-04-26T14:15:15Z</time>
</trkpt>
<trkpt lat="35.1263807" lon="32.5157345">
<ele>18.74</ele>
<time>2015-04-26T14:15:17Z</time>
</trkpt>
<trkpt lat="35.1263036" lon="32.5157162">
<ele>18.13</ele>
<time>2015-04-26T14:15:19Z</time>
</trkpt>
<trkpt lat="35.1262194" lon="32.5157184">
<ele>17.98</ele>
<time>2015-04-26T14:15:21Z</time>
</trkpt>
<trkpt lat="35.1261330" lon="32.5157265">
<ele>18.69</ele>
<time>2015-04-26T14:15:23Z</time>
</trkpt>
<trkpt lat="35.1260477" lon="32.5157460">
<ele>19.37</ele>
<time>2015-04-26T14:15:25Z</time>
</trkpt>
<trkpt lat="35.1259642" lon="32.5157711">
<ele>19.79</ele>
<time>2015-04-26T14:15:27Z</time>
</trkpt>
<trkpt lat="35.1258866" lon="32.5158003">
<ele>19.89</ele>
<time>2015-04-26T14:15:29Z</time>
</trkpt>
<trkpt lat="35.1258124" lon="32.5158284">
<ele>20.42</ele>
<time>2015-04-26T14:15:31Z</time>
</trkpt>
<trkpt lat="35.1257353" lon="32.5158551">
<ele>20.80</ele>
<time>2015-04-26T14:15:33Z</time>
</trkpt>
<trkpt lat="35.1256595" lon="32.5158774">
<ele>22.14</ele>
<time>2015-04-26T14:15:35Z</time>
</trkpt>
<trkpt lat="35.1256152" lon="32.5158908">
<ele>22.03</ele>
<time>2015-04-26T14:15:36Z</time>
</trkpt>
<trkpt lat="35.1255341" lon="32.5159205">
<ele>21.45</ele>
<time>2015-04-26T14:15:38Z</time>
</trkpt>
<trkpt lat="35.1254675" lon="32.5159471">
<ele>21.56</ele>
<time>2015-04-26T14:15:40Z</time>
</trkpt>
<trkpt lat="35.1253913" lon="32.5159829">
<ele>21.83</ele>
<time>2015-04-26T14:15:42Z</time>
</trkpt>
<trkpt lat="35.1253170" lon="32.5160010">
<ele>20.90</ele>
<time>2015-04-26T14:15:44Z</time>
</trkpt>
<trkpt lat="35.1252599" lon="32.5160101">
<ele>20.92</ele>
<time>2015-04-26T14:15:46Z</time>
</trkpt>
<trkpt lat="35.1252033" lon="32.5160302">
<ele>21.67</ele>
<time>2015-04-26T14:15:48Z</time>
</trkpt>
<trkpt lat="35.1251521" lon="32.5160468">
<ele>21.86</ele>
<time>2015-04-26T14:15:50Z</time>
</trkpt>
<trkpt lat="35.1251060" lon="32.5160564">
<ele>21.91</ele>
<time>2015-04-26T14:15:52Z</time>
</trkpt>
<trkpt lat="35.1250557" lon="32.5160698">
<ele>23.17</ele>
<time>2015-04-26T14:15:54Z</time>
</trkpt>
<trkpt lat="35.1249975" lon="32.5160934">
<ele>23.24</ele>
<time>2015-04-26T14:15:56Z</time>
</trkpt>
<trkpt lat="35.1249308" lon="32.5161197">
<ele>23.00</ele>
<time>2015-04-26T14:15:58Z</time>
</trkpt>
<trkpt lat="35.1248582" lon="32.5161451">
<ele>22.44</ele>
<time>2015-04-26T14:16:00Z</time>
</trkpt>
<trkpt lat="35.1247856" lon="32.5161646">
<ele>22.55</ele>
<time>2015-04-26T14:16:02Z</time>
</trkpt>
<trkpt lat="35.1247119" lon="32.5161832">
<ele>23.33</ele>
<time>2015-04-26T14:16:04Z</time>
</trkpt>
<trkpt lat="35.1246380" lon="32.5162074">
<ele>23.78</ele>
<time>2015-04-26T14:16:06Z</time>
</trkpt>
<trkpt lat="35.1245623" lon="32.5162283">
<ele>23.14</ele>
<time>2015-04-26T14:16:08Z</time>
</trkpt>
<trkpt lat="35.1244870" lon="32.5162537">
<ele>22.98</ele>
<time>2015-04-26T14:16:10Z</time>
</trkpt>
<trkpt lat="35.1244113" lon="32.5162796">
<ele>22.19</ele>
<time>2015-04-26T14:16:12Z</time>
</trkpt>
<trkpt lat="35.1243492" lon="32.5162932">
<ele>22.06</ele>
<time>2015-04-26T14:16:13Z</time>
</trkpt>
<trkpt lat="35.1242710" lon="32.5163063">
<ele>21.21</ele>
<time>2015-04-26T14:16:15Z</time>
</trkpt>
<trkpt lat="35.1242258" lon="32.5163168">
<ele>21.07</ele>
<time>2015-04-26T14:16:16Z</time>
</trkpt>
<trkpt lat="35.1241439" lon="32.5163163">
<ele>21.71</ele>
<time>2015-04-26T14:16:18Z</time>
</trkpt>
<trkpt lat="35.1240701" lon="32.5162920">
<ele>21.37</ele>
<time>2015-04-26T14:16:20Z</time>
</trkpt>
<trkpt lat="35.1239997" lon="32.5162618">
<ele>21.04</ele>
<time>2015-04-26T14:16:22Z</time>
</trkpt>
<trkpt lat="35.1239404" lon="32.5162422">
<ele>20.95</ele>
<time>2015-04-26T14:16:24Z</time>
</trkpt>
<trkpt lat="35.1238841" lon="32.5162137">
<ele>20.43</ele>
<time>2015-04-26T14:16:26Z</time>
</trkpt>
<trkpt lat="35.1238300" lon="32.5161818">
<ele>20.80</ele>
<time>2015-04-26T14:16:28Z</time>
</trkpt>
<trkpt lat="35.1237766" lon="32.5161464">
<ele>20.89</ele>
<time>2015-04-26T14:16:30Z</time>
</trkpt>
<trkpt lat="35.1237250" lon="32.5161005">
<ele>20.17</ele>
<time>2015-04-26T14:16:32Z</time>
</trkpt>
<trkpt lat="35.1236698" lon="32.5160498">
<ele>20.49</ele>
<time>2015-04-26T14:16:34Z</time>
</trkpt>
<trkpt lat="35.1236084" lon="32.5159973">
<ele>20.82</ele>
<time>2015-04-26T14:16:36Z</time>
</trkpt>
<trkpt lat="35.1235469" lon="32.5159402">
<ele>21.65</ele>
<time>2015-04-26T14:16:38Z</time>
</trkpt>
<trkpt lat="35.1234815" lon="32.5158806">
<ele>21.86</ele>
<time>2015-04-26T14:16:40Z</time>
</trkpt>
<trkpt lat="35.1234160" lon="32.5158152">
<ele>21.41</ele>
<time>2015-04-26T14:16:42Z</time>
</trkpt>
<trkpt lat="35.1233482" lon="32.5157600">
<ele>21.17</ele>
<time>2015-04-26T14:16:43Z</time>
</trkpt>
<trkpt lat="35.1233112" lon="32.5157241">
<ele>20.55</ele>
<time>2015-04-26T14:16:44Z</time>
</trkpt>
<trkpt lat="35.1232743" lon="32.5156850">
<ele>20.24</ele>
<time>2015-04-26T14:16:45Z</time>
</trkpt>
<trkpt lat="35.1232445" lon="32.5156342">
<ele>20.08</ele>
<time>2015-04-26T14:16:46Z</time>
</trkpt>
<trkpt lat="35.1232035" lon="32.5155964">
<ele>20.00</ele>
<time>2015-04-26T14:16:47Z</time>
</trkpt>
<trkpt lat="35.1231572" lon="32.5155481">
<ele>19.46</ele>
<time>2015-04-26T14:16:48Z</time>
</trkpt>
<trkpt lat="35.1231239" lon="32.5155052">
<ele>19.19</ele>
<time>2015-04-26T14:16:49Z</time>
</trkpt>
<trkpt lat="35.1230884" lon="32.5154618">
<ele>19.06</ele>
<time>2015-04-26T14:16:50Z</time>
</trkpt>
<trkpt lat="35.1230470" lon="32.5154298">
<ele>18.99</ele>
<time>2015-04-26T14:16:51Z</time>
</trkpt>
<trkpt lat="35.1230040" lon="32.5153949">
<ele>18.96</ele>
<time>2015-04-26T14:16:52Z</time>
</trkpt>
<trkpt lat="35.1229641" lon="32.5153550">
<ele>18.94</ele>
<time>2015-04-26T14:16:53Z</time>
</trkpt>
<trkpt lat="35.1229232" lon="32.5153147">
<ele>18.93</ele>
<time>2015-04-26T14:16:54Z</time>
</trkpt>
<trkpt lat="35.1228872" lon="32.5152763">
<ele>18.43</ele>
<time>2015-04-26T14:16:55Z</time>
</trkpt>
<trkpt lat="35.1228303" lon="32.5152329">
<ele>18.18</ele>
<time>2015-04-26T14:16:56Z</time>
</trkpt>
<trkpt lat="35.1227876" lon="32.5152066">
<ele>18.05</ele>
<time>2015-04-26T14:16:57Z</time>
</trkpt>
<trkpt lat="35.1227458" lon="32.5151786">
<ele>18.49</ele>
<time>2015-04-26T14:16:58Z</time>
</trkpt>
<trkpt lat="35.1226797" lon="32.5151249">
<ele>18.82</ele>
<time>2015-04-26T14:17:00Z</time>
</trkpt>
<trkpt lat="35.1226307" lon="32.5150858">
<ele>18.90</ele>
<time>2015-04-26T14:17:02Z</time>
</trkpt>
<trkpt lat="35.1225818" lon="32.5150458">
<ele>18.92</ele>
<time>2015-04-26T14:17:06Z</time>
</trkpt>
<trkpt lat="35.1225489" lon="32.5149942">
<ele>19.80</ele>
<time>2015-04-26T14:17:09Z</time>
</trkpt>
<trkpt lat="35.1225386" lon="32.5149370">
<ele>19.91</ele>
<time>2015-04-26T14:17:12Z</time>
</trkpt>
<trkpt lat="35.1225839" lon="32.5148970">
<ele>19.17</ele>
<time>2015-04-26T14:17:15Z</time>
</trkpt>
<trkpt lat="35.1225430" lon="32.5149221">
<ele>22.14</ele>
<time>2015-04-26T14:19:43Z</time>
</trkpt>
<trkpt lat="35.1224878" lon="32.5149336">
<ele>24.41</ele>
<time>2015-04-26T14:20:00Z</time>
</trkpt>
<trkpt lat="35.1224198" lon="32.5149212">
<ele>22.36</ele>
<time>2015-04-26T14:20:03Z</time>
</trkpt>
<trkpt lat="35.1223682" lon="32.5148840">
<ele>21.78</ele>
<time>2015-04-26T14:20:05Z</time>
</trkpt>
<trkpt lat="35.1223271" lon="32.5148356">
<ele>21.89</ele>
<time>2015-04-26T14:20:07Z</time>
</trkpt>
<trkpt lat="35.1222873" lon="32.5147878">
<ele>21.92</ele>
<time>2015-04-26T14:20:09Z</time>
</trkpt>
<trkpt lat="35.1222436" lon="32.5147467">
<ele>21.92</ele>
<time>2015-04-26T14:20:11Z</time>
</trkpt>
<trkpt lat="35.1221994" lon="32.5147074">
<ele>21.42</ele>
<time>2015-04-26T14:20:13Z</time>
</trkpt>
<trkpt lat="35.1221472" lon="32.5146656">
<ele>21.05</ele>
<time>2015-04-26T14:20:15Z</time>
</trkpt>
<trkpt lat="35.1220781" lon="32.5146095">
<ele>20.46</ele>
<time>2015-04-26T14:20:17Z</time>
</trkpt>
<trkpt lat="35.1220114" lon="32.5145589">
<ele>19.31</ele>
<time>2015-04-26T14:20:19Z</time>
</trkpt>
<trkpt lat="35.1219460" lon="32.5145166">
<ele>18.27</ele>
<time>2015-04-26T14:20:21Z</time>
</trkpt>
<trkpt lat="35.1218815" lon="32.5144757">
<ele>18.76</ele>
<time>2015-04-26T14:20:23Z</time>
</trkpt>
<trkpt lat="35.1218148" lon="32.5144419">
<ele>18.13</ele>
<time>2015-04-26T14:20:25Z</time>
</trkpt>
<trkpt lat="35.1217443" lon="32.5144098">
<ele>18.48</ele>
<time>2015-04-26T14:20:27Z</time>
</trkpt>
<trkpt lat="35.1216753" lon="32.5143796">
<ele>18.81</ele>
<time>2015-04-26T14:20:29Z</time>
</trkpt>
<trkpt lat="35.1216088" lon="32.5143477">
<ele>18.90</ele>
<time>2015-04-26T14:20:31Z</time>
</trkpt>
<trkpt lat="35.1215475" lon="32.5143068">
<ele>18.92</ele>
<time>2015-04-26T14:20:33Z</time>
</trkpt>
<trkpt lat="35.1214910" lon="32.5142786">
<ele>19.42</ele>
<time>2015-04-26T14:20:35Z</time>
</trkpt>
<trkpt lat="35.1214402" lon="32.5142548">
<ele>19.80</ele>
<time>2015-04-26T14:20:37Z</time>
</trkpt>
<trkpt lat="35.1213930" lon="32.5142297">
<ele>19.89</ele>
<time>2015-04-26T14:20:39Z</time>
</trkpt>
<trkpt lat="35.1213462" lon="32.5142034">
<ele>19.92</ele>
<time>2015-04-26T14:20:41Z</time>
</trkpt>
<trkpt lat="35.1212999" lon="32.5141722">
<ele>19.17</ele>
<time>2015-04-26T14:20:43Z</time>
</trkpt>
<trkpt lat="35.1212458" lon="32.5141435">
<ele>19.74</ele>
<time>2015-04-26T14:20:45Z</time>
</trkpt>
<trkpt lat="35.1211873" lon="32.5141137">
<ele>19.88</ele>
<time>2015-04-26T14:20:47Z</time>
</trkpt>
<trkpt lat="35.1211293" lon="32.5140847">
<ele>20.41</ele>
<time>2015-04-26T14:20:49Z</time>
</trkpt>
<trkpt lat="35.1210692" lon="32.5140563">
<ele>20.30</ele>
<time>2015-04-26T14:20:51Z</time>
</trkpt>
<trkpt lat="35.1209994" lon="32.5140243">
<ele>20.02</ele>
<time>2015-04-26T14:20:53Z</time>
</trkpt>
<trkpt lat="35.1209343" lon="32.5139894">
<ele>19.95</ele>
<time>2015-04-26T14:20:55Z</time>
</trkpt>
<trkpt lat="35.1208720" lon="32.5139566">
<ele>19.93</ele>
<time>2015-04-26T14:20:57Z</time>
</trkpt>
<trkpt lat="35.1208118" lon="32.5139257">
<ele>19.93</ele>
<time>2015-04-26T14:20:59Z</time>
</trkpt>
<trkpt lat="35.1207546" lon="32.5138878">
<ele>19.93</ele>
<time>2015-04-26T14:21:01Z</time>
</trkpt>
<trkpt lat="35.1206948" lon="32.5138543">
<ele>19.93</ele>
<time>2015-04-26T14:21:03Z</time>
</trkpt>
<trkpt lat="35.1206346" lon="32.5138240">
<ele>19.68</ele>
<time>2015-04-26T14:21:05Z</time>
</trkpt>
<trkpt lat="35.1205700" lon="32.5137922">
<ele>19.61</ele>
<time>2015-04-26T14:21:07Z</time>
</trkpt>
<trkpt lat="35.1204930" lon="32.5137509">
<ele>19.85</ele>
<time>2015-04-26T14:21:09Z</time>
</trkpt>
<trkpt lat="35.1204172" lon="32.5137078">
<ele>19.91</ele>
<time>2015-04-26T14:21:11Z</time>
</trkpt>
<trkpt lat="35.1203377" lon="32.5136692">
<ele>20.17</ele>
<time>2015-04-26T14:21:13Z</time>
</trkpt>
<trkpt lat="35.1202585" lon="32.5136251">
<ele>19.99</ele>
<time>2015-04-26T14:21:15Z</time>
</trkpt>
<trkpt lat="35.1201874" lon="32.5135823">
<ele>19.19</ele>
<time>2015-04-26T14:21:17Z</time>
</trkpt>
<trkpt lat="35.1201302" lon="32.5135418">
<ele>18.96</ele>
<time>2015-04-26T14:21:20Z</time>
</trkpt>
<trkpt lat="35.1200704" lon="32.5135131">
<ele>19.68</ele>
<time>2015-04-26T14:21:23Z</time>
</trkpt>
<trkpt lat="35.1200217" lon="32.5134890">
<ele>20.61</ele>
<time>2015-04-26T14:21:25Z</time>
</trkpt>
<trkpt lat="35.1199635" lon="32.5134552">
<ele>20.85</ele>
<time>2015-04-26T14:21:27Z</time>
</trkpt>
<trkpt lat="35.1198956" lon="32.5134174">
<ele>20.91</ele>
<time>2015-04-26T14:21:29Z</time>
</trkpt>
<trkpt lat="35.1198279" lon="32.5133748">
<ele>20.42</ele>
<time>2015-04-26T14:21:31Z</time>
</trkpt>
<trkpt lat="35.1197632" lon="32.5133296">
<ele>20.05</ele>
<time>2015-04-26T14:21:33Z</time>
</trkpt>
<trkpt lat="35.1196985" lon="32.5132869">
<ele>20.71</ele>
<time>2015-04-26T14:21:35Z</time>
</trkpt>
<trkpt lat="35.1196358" lon="32.5132468">
<ele>21.12</ele>
<time>2015-04-26T14:21:37Z</time>
</trkpt>
<trkpt lat="35.1195764" lon="32.5132021">
<ele>20.97</ele>
<time>2015-04-26T14:21:39Z</time>
</trkpt>
<trkpt lat="35.1195208" lon="32.5131519">
<ele>20.94</ele>
<time>2015-04-26T14:21:41Z</time>
</trkpt>
<trkpt lat="35.1194608" lon="32.5131118">
<ele>20.43</ele>
<time>2015-04-26T14:21:43Z</time>
</trkpt>
<trkpt lat="35.1194035" lon="32.5130720">
<ele>20.80</ele>
<time>2015-04-26T14:21:45Z</time>
</trkpt>
<trkpt lat="35.1193446" lon="32.5130316">
<ele>20.89</ele>
<time>2015-04-26T14:21:47Z</time>
</trkpt>
<trkpt lat="35.1192870" lon="32.5129849">
<ele>20.92</ele>
<time>2015-04-26T14:21:49Z</time>
</trkpt>
<trkpt lat="35.1192292" lon="32.5129354">
<ele>21.42</ele>
<time>2015-04-26T14:21:51Z</time>
</trkpt>
<trkpt lat="35.1191703" lon="32.5128928">
<ele>21.30</ele>
<time>2015-04-26T14:21:53Z</time>
</trkpt>
<trkpt lat="35.1191158" lon="32.5128458">
<ele>20.52</ele>
<time>2015-04-26T14:21:55Z</time>
</trkpt>
<trkpt lat="35.1190598" lon="32.5128016">
<ele>20.32</ele>
<time>2015-04-26T14:21:57Z</time>
</trkpt>
<trkpt lat="35.1190034" lon="32.5127568">
<ele>20.27</ele>
<time>2015-04-26T14:21:59Z</time>
</trkpt>
<trkpt lat="35.1189477" lon="32.5127098">
<ele>20.01</ele>
<time>2015-04-26T14:22:01Z</time>
</trkpt>
<trkpt lat="35.1188952" lon="32.5126641">
<ele>19.95</ele>
<time>2015-04-26T14:22:03Z</time>
</trkpt>
<trkpt lat="35.1188455" lon="32.5126141">
<ele>19.93</ele>
<time>2015-04-26T14:22:05Z</time>
</trkpt>
<trkpt lat="35.1187923" lon="32.5125574">
<ele>19.93</ele>
<time>2015-04-26T14:22:07Z</time>
</trkpt>
<trkpt lat="35.1187342" lon="32.5125019">
<ele>19.93</ele>
<time>2015-04-26T14:22:09Z</time>
</trkpt>
<trkpt lat="35.1186726" lon="32.5124515">
<ele>19.93</ele>
<time>2015-04-26T14:22:11Z</time>
</trkpt>
<trkpt lat="35.1186160" lon="32.5123992">
<ele>19.93</ele>
<time>2015-04-26T14:22:13Z</time>
</trkpt>
<trkpt lat="35.1185586" lon="32.5123492">
<ele>20.43</ele>
<time>2015-04-26T14:22:15Z</time>
</trkpt>
<trkpt lat="35.1185008" lon="32.5123052">
<ele>20.05</ele>
<time>2015-04-26T14:22:17Z</time>
</trkpt>
<trkpt lat="35.1184434" lon="32.5122640">
<ele>19.96</ele>
<time>2015-04-26T14:22:19Z</time>
</trkpt>
<trkpt lat="35.1183911" lon="32.5122204">
<ele>19.93</ele>
<time>2015-04-26T14:22:21Z</time>
</trkpt>
<trkpt lat="35.1183377" lon="32.5121813">
<ele>19.93</ele>
<time>2015-04-26T14:22:23Z</time>
</trkpt>
<trkpt lat="35.1182792" lon="32.5121443">
<ele>19.93</ele>
<time>2015-04-26T14:22:25Z</time>
</trkpt>
<trkpt lat="35.1182211" lon="32.5120961">
<ele>19.93</ele>
<time>2015-04-26T14:22:27Z</time>
</trkpt>
<trkpt lat="35.1181596" lon="32.5120499">
<ele>19.18</ele>
<time>2015-04-26T14:22:29Z</time>
</trkpt>
<trkpt lat="35.1181000" lon="32.5120044">
<ele>18.99</ele>
<time>2015-04-26T14:22:31Z</time>
</trkpt>
<trkpt lat="35.1180466" lon="32.5119519">
<ele>18.94</ele>
<time>2015-04-26T14:22:33Z</time>
</trkpt>
<trkpt lat="35.1179899" lon="32.5119000">
<ele>18.93</ele>
<time>2015-04-26T14:22:35Z</time>
</trkpt>
<trkpt lat="35.1179296" lon="32.5118548">
<ele>18.93</ele>
<time>2015-04-26T14:22:37Z</time>
</trkpt>
<trkpt lat="35.1178735" lon="32.5118076">
<ele>18.93</ele>
<time>2015-04-26T14:22:39Z</time>
</trkpt>
<trkpt lat="35.1178190" lon="32.5117625">
<ele>18.93</ele>
<time>2015-04-26T14:22:41Z</time>
</trkpt>
<trkpt lat="35.1177661" lon="32.5117185">
<ele>18.93</ele>
<time>2015-04-26T14:22:43Z</time>
</trkpt>
<trkpt lat="35.1177172" lon="32.5116745">
<ele>18.43</ele>
<time>2015-04-26T14:22:45Z</time>
</trkpt>
<trkpt lat="35.1176709" lon="32.5116316">
<ele>17.55</ele>
<time>2015-04-26T14:22:47Z</time>
</trkpt>
<trkpt lat="35.1176270" lon="32.5115889">
<ele>17.83</ele>
<time>2015-04-26T14:22:49Z</time>
</trkpt>
<trkpt lat="35.1175805" lon="32.5115506">
<ele>17.40</ele>
<time>2015-04-26T14:22:51Z</time>
</trkpt>
<trkpt lat="35.1175320" lon="32.5115175">
<ele>17.54</ele>
<time>2015-04-26T14:22:53Z</time>
</trkpt>
<trkpt lat="35.1174805" lon="32.5114741">
<ele>17.83</ele>
<time>2015-04-26T14:22:55Z</time>
</trkpt>
<trkpt lat="35.1174239" lon="32.5114293">
<ele>17.90</ele>
<time>2015-04-26T14:22:57Z</time>
</trkpt>
<trkpt lat="35.1173657" lon="32.5113833">
<ele>18.67</ele>
<time>2015-04-26T14:22:59Z</time>
</trkpt>
<trkpt lat="35.1173098" lon="32.5113349">
<ele>18.86</ele>
<time>2015-04-26T14:23:01Z</time>
</trkpt>
<trkpt lat="35.1172533" lon="32.5112910">
<ele>18.91</ele>
<time>2015-04-26T14:23:03Z</time>
</trkpt>
<trkpt lat="35.1172010" lon="32.5112426">
<ele>18.92</ele>
<time>2015-04-26T14:23:05Z</time>
</trkpt>
<trkpt lat="35.1171496" lon="32.5111964">
<ele>19.42</ele>
<time>2015-04-26T14:23:07Z</time>
</trkpt>
<trkpt lat="35.1171023" lon="32.5111538">
<ele>19.05</ele>
<time>2015-04-26T14:23:09Z</time>
</trkpt>
<trkpt lat="35.1170541" lon="32.5111142">
<ele>18.96</ele>
<time>2015-04-26T14:23:11Z</time>
</trkpt>
<trkpt lat="35.1170029" lon="32.5110798">
<ele>18.93</ele>
<time>2015-04-26T14:23:13Z</time>
</trkpt>
<trkpt lat="35.1169585" lon="32.5110473">
<ele>18.93</ele>
<time>2015-04-26T14:23:15Z</time>
</trkpt>
<trkpt lat="35.1169012" lon="32.5110153">
<ele>18.93</ele>
<time>2015-04-26T14:23:18Z</time>
</trkpt>
<trkpt lat="35.1168476" lon="32.5109839">
<ele>18.43</ele>
<time>2015-04-26T14:23:21Z</time>
</trkpt>
<trkpt lat="35.1168022" lon="32.5109551">
<ele>18.49</ele>
<time>2015-04-26T14:23:24Z</time>
</trkpt>
<trkpt lat="35.1167392" lon="32.5109166">
<ele>19.83</ele>
<time>2015-04-26T14:24:21Z</time>
</trkpt>
<trkpt lat="35.1166802" lon="32.5108828">
<ele>19.90</ele>
<time>2015-04-26T14:24:23Z</time>
</trkpt>
<trkpt lat="35.1166176" lon="32.5108431">
<ele>20.42</ele>
<time>2015-04-26T14:24:25Z</time>
</trkpt>
<trkpt lat="35.1165577" lon="32.5107917">
<ele>21.30</ele>
<time>2015-04-26T14:24:27Z</time>
</trkpt>
<trkpt lat="35.1165017" lon="32.5107444">
<ele>22.52</ele>
<time>2015-04-26T14:24:29Z</time>
</trkpt>
<trkpt lat="35.1164466" lon="32.5107021">
<ele>24.07</ele>
<time>2015-04-26T14:24:31Z</time>
</trkpt>
<trkpt lat="35.1163983" lon="32.5106619">
<ele>24.21</ele>
<time>2015-04-26T14:24:33Z</time>
</trkpt>
<trkpt lat="35.1163666" lon="32.5106228">
<ele>23.25</ele>
<time>2015-04-26T14:24:35Z</time>
</trkpt>
<trkpt lat="35.1163301" lon="32.5105695">
<ele>21.72</ele>
<time>2015-04-26T14:24:38Z</time>
</trkpt>
<trkpt lat="35.1162901" lon="32.5105306">
<ele>21.02</ele>
<time>2015-04-26T14:24:41Z</time>
</trkpt>
<trkpt lat="35.1162466" lon="32.5104900">
<ele>21.31</ele>
<time>2015-04-26T14:24:44Z</time>
</trkpt>
<trkpt lat="35.1161898" lon="32.5104523">
<ele>20.22</ele>
<time>2015-04-26T14:24:47Z</time>
</trkpt>
<trkpt lat="35.1161284" lon="32.5104173">
<ele>18.96</ele>
<time>2015-04-26T14:24:50Z</time>
</trkpt>
<trkpt lat="35.1160809" lon="32.5103909">
<ele>18.93</ele>
<time>2015-04-26T14:24:52Z</time>
</trkpt>
<trkpt lat="35.1160374" lon="32.5103653">
<ele>17.93</ele>
<time>2015-04-26T14:24:54Z</time>
</trkpt>
<trkpt lat="35.1159967" lon="32.5103396">
<ele>17.18</ele>
<time>2015-04-26T14:24:56Z</time>
</trkpt>
<trkpt lat="35.1159510" lon="32.5102929">
<ele>17.83</ele>
<time>2015-04-26T14:24:59Z</time>
</trkpt>
<trkpt lat="35.1159156" lon="32.5102513">
<ele>18.79</ele>
<time>2015-04-26T14:25:02Z</time>
</trkpt>
<trkpt lat="35.1158726" lon="32.5102129">
<ele>18.17</ele>
<time>2015-04-26T14:25:06Z</time>
</trkpt>
<trkpt lat="35.1158899" lon="32.5101619">
<ele>20.64</ele>
<time>2015-04-26T14:25:16Z</time>
</trkpt>
<trkpt lat="35.1158866" lon="32.5102192">
<ele>21.80</ele>
<time>2015-04-26T14:25:25Z</time>
</trkpt>
<trkpt lat="35.1158300" lon="32.5102384">
<ele>22.28</ele>
<time>2015-04-26T14:25:28Z</time>
</trkpt>
<trkpt lat="35.1157529" lon="32.5102151">
<ele>21.01</ele>
<time>2015-04-26T14:25:30Z</time>
</trkpt>
<trkpt lat="35.1156788" lon="32.5101661">
<ele>20.20</ele>
<time>2015-04-26T14:25:32Z</time>
</trkpt>
<trkpt lat="35.1156073" lon="32.5101245">
<ele>19.24</ele>
<time>2015-04-26T14:25:34Z</time>
</trkpt>
<trkpt lat="35.1155365" lon="32.5100895">
<ele>19.00</ele>
<time>2015-04-26T14:25:36Z</time>
</trkpt>
<trkpt lat="35.1154686" lon="32.5100553">
<ele>18.44</ele>
<time>2015-04-26T14:25:38Z</time>
</trkpt>
<trkpt lat="35.1154001" lon="32.5100202">
<ele>18.05</ele>
<time>2015-04-26T14:25:40Z</time>
</trkpt>
<trkpt lat="35.1153226" lon="32.5099841">
<ele>17.96</ele>
<time>2015-04-26T14:25:42Z</time>
</trkpt>
<trkpt lat="35.1152451" lon="32.5099500">
<ele>17.43</ele>
<time>2015-04-26T14:25:44Z</time>
</trkpt>
<trkpt lat="35.1151698" lon="32.5099238">
<ele>17.05</ele>
<time>2015-04-26T14:25:46Z</time>
</trkpt>
<trkpt lat="35.1151061" lon="32.5098932">
<ele>17.21</ele>
<time>2015-04-26T14:25:48Z</time>
</trkpt>
<trkpt lat="35.1150474" lon="32.5098723">
<ele>17.00</ele>
<time>2015-04-26T14:25:50Z</time>
</trkpt>
<trkpt lat="35.1149887" lon="32.5098538">
<ele>17.44</ele>
<time>2015-04-26T14:25:52Z</time>
</trkpt>
<trkpt lat="35.1149309" lon="32.5098308">
<ele>17.80</ele>
<time>2015-04-26T14:25:54Z</time>
</trkpt>
<trkpt lat="35.1148705" lon="32.5098058">
<ele>18.64</ele>
<time>2015-04-26T14:25:56Z</time>
</trkpt>
<trkpt lat="35.1148089" lon="32.5097812">
<ele>18.10</ele>
<time>2015-04-26T14:25:58Z</time>
</trkpt>
<trkpt lat="35.1147511" lon="32.5097530">
<ele>17.97</ele>
<time>2015-04-26T14:26:00Z</time>
</trkpt>
<trkpt lat="35.1146970" lon="32.5097200">
<ele>18.69</ele>
<time>2015-04-26T14:26:02Z</time>
</trkpt>
<trkpt lat="35.1146381" lon="32.5096888">
<ele>18.87</ele>
<time>2015-04-26T14:26:04Z</time>
</trkpt>
<trkpt lat="35.1145723" lon="32.5096646">
<ele>18.91</ele>
<time>2015-04-26T14:26:06Z</time>
</trkpt>
<trkpt lat="35.1145068" lon="32.5096403">
<ele>19.42</ele>
<time>2015-04-26T14:26:08Z</time>
</trkpt>
<trkpt lat="35.1144431" lon="32.5096166">
<ele>19.30</ele>
<time>2015-04-26T14:26:10Z</time>
</trkpt>
<trkpt lat="35.1143799" lon="32.5095932">
<ele>19.02</ele>
<time>2015-04-26T14:26:12Z</time>
</trkpt>
<trkpt lat="35.1143164" lon="32.5095686">
<ele>18.95</ele>
<time>2015-04-26T14:26:14Z</time>
</trkpt>
<trkpt lat="35.1142525" lon="32.5095443">
<ele>19.68</ele>
<time>2015-04-26T14:26:16Z</time>
</trkpt>
<trkpt lat="35.1141916" lon="32.5095213">
<ele>19.86</ele>
<time>2015-04-26T14:26:18Z</time>
</trkpt>
<trkpt lat="35.1141321" lon="32.5094991">
<ele>20.41</ele>
<time>2015-04-26T14:26:20Z</time>
</trkpt>
<trkpt lat="35.1140727" lon="32.5094784">
<ele>20.80</ele>
<time>2015-04-26T14:26:22Z</time>
</trkpt>
<trkpt lat="35.1140144" lon="32.5094554">
<ele>21.64</ele>
<time>2015-04-26T14:26:24Z</time>
</trkpt>
<trkpt lat="35.1139558" lon="32.5094400">
<ele>21.10</ele>
<time>2015-04-26T14:26:26Z</time>
</trkpt>
<trkpt lat="35.1138962" lon="32.5094162">
<ele>20.97</ele>
<time>2015-04-26T14:26:28Z</time>
</trkpt>
<trkpt lat="35.1138361" lon="32.5093904">
<ele>20.94</ele>
<time>2015-04-26T14:26:30Z</time>
</trkpt>
<trkpt lat="35.1137763" lon="32.5093642">
<ele>20.43</ele>
<time>2015-04-26T14:26:32Z</time>
</trkpt>
<trkpt lat="35.1137152" lon="32.5093401">
<ele>19.55</ele>
<time>2015-04-26T14:26:34Z</time>
</trkpt>
<trkpt lat="35.1136488" lon="32.5093129">
<ele>19.08</ele>
<time>2015-04-26T14:26:36Z</time>
</trkpt>
<trkpt lat="35.1135833" lon="32.5092781">
<ele>19.71</ele>
<time>2015-04-26T14:26:38Z</time>
</trkpt>
<trkpt lat="35.1135173" lon="32.5092435">
<ele>19.87</ele>
<time>2015-04-26T14:26:40Z</time>
</trkpt>
<trkpt lat="35.1134521" lon="32.5092128">
<ele>20.41</ele>
<time>2015-04-26T14:26:42Z</time>
</trkpt>
<trkpt lat="35.1133854" lon="32.5091805">
<ele>20.80</ele>
<time>2015-04-26T14:26:44Z</time>
</trkpt>
<trkpt lat="35.1133162" lon="32.5091461">
<ele>20.89</ele>
<time>2015-04-26T14:26:46Z</time>
</trkpt>
<trkpt lat="35.1132490" lon="32.5091073">
<ele>20.42</ele>
<time>2015-04-26T14:26:48Z</time>
</trkpt>
<trkpt lat="35.1131774" lon="32.5090660">
<ele>20.05</ele>
<time>2015-04-26T14:26:50Z</time>
</trkpt>
<trkpt lat="35.1131049" lon="32.5090241">
<ele>19.96</ele>
<time>2015-04-26T14:26:52Z</time>
</trkpt>
<trkpt lat="35.1130320" lon="32.5089868">
<ele>19.93</ele>
<time>2015-04-26T14:26:54Z</time>
</trkpt>
<trkpt lat="35.1129587" lon="32.5089492">
<ele>19.93</ele>
<time>2015-04-26T14:26:56Z</time>
</trkpt>
<trkpt lat="35.1128879" lon="32.5089130">
<ele>19.93</ele>
<time>2015-04-26T14:26:58Z</time>
</trkpt>
<trkpt lat="35.1128223" lon="32.5088748">
<ele>19.93</ele>
<time>2015-04-26T14:27:00Z</time>
</trkpt>
<trkpt lat="35.1127611" lon="32.5088344">
<ele>19.93</ele>
<time>2015-04-26T14:27:02Z</time>
</trkpt>
<trkpt lat="35.1127045" lon="32.5087983">
<ele>20.68</ele>
<time>2015-04-26T14:27:04Z</time>
</trkpt>
<trkpt lat="35.1126434" lon="32.5087672">
<ele>21.36</ele>
<time>2015-04-26T14:27:06Z</time>
</trkpt>
<trkpt lat="35.1125795" lon="32.5087373">
<ele>21.78</ele>
<time>2015-04-26T14:27:08Z</time>
</trkpt>
<trkpt lat="35.1125158" lon="32.5087078">
<ele>21.89</ele>
<time>2015-04-26T14:27:10Z</time>
</trkpt>
<trkpt lat="35.1124524" lon="32.5086791">
<ele>21.17</ele>
<time>2015-04-26T14:27:12Z</time>
</trkpt>
<trkpt lat="35.1123884" lon="32.5086506">
<ele>20.49</ele>
<time>2015-04-26T14:27:14Z</time>
</trkpt>
<trkpt lat="35.1123216" lon="32.5086160">
<ele>20.07</ele>
<time>2015-04-26T14:27:16Z</time>
</trkpt>
<trkpt lat="35.1122524" lon="32.5085745">
<ele>19.96</ele>
<time>2015-04-26T14:27:18Z</time>
</trkpt>
<trkpt lat="35.1121837" lon="32.5085338">
<ele>19.18</ele>
<time>2015-04-26T14:27:20Z</time>
</trkpt>
<trkpt lat="35.1121134" lon="32.5084950">
<ele>19.49</ele>
<time>2015-04-26T14:27:22Z</time>
</trkpt>
<trkpt lat="35.1120458" lon="32.5084595">
<ele>19.32</ele>
<time>2015-04-26T14:27:24Z</time>
</trkpt>
<trkpt lat="35.1119826" lon="32.5084224">
<ele>19.02</ele>
<time>2015-04-26T14:27:26Z</time>
</trkpt>
<trkpt lat="35.1119235" lon="32.5083812">
<ele>19.45</ele>
<time>2015-04-26T14:27:28Z</time>
</trkpt>
<trkpt lat="35.1118598" lon="32.5083368">
<ele>19.81</ele>
<time>2015-04-26T14:27:30Z</time>
</trkpt>
<trkpt lat="35.1117911" lon="32.5082915">
<ele>20.40</ele>
<time>2015-04-26T14:27:32Z</time>
</trkpt>
<trkpt lat="35.1117189" lon="32.5082517">
<ele>20.54</ele>
<time>2015-04-26T14:27:34Z</time>
</trkpt>
<trkpt lat="35.1116437" lon="32.5082115">
<ele>20.83</ele>
<time>2015-04-26T14:27:36Z</time>
</trkpt>
<trkpt lat="35.1115730" lon="32.5081738">
<ele>20.90</ele>
<time>2015-04-26T14:27:38Z</time>
</trkpt>
<trkpt lat="35.1115058" lon="32.5081347">
<ele>21.67</ele>
<time>2015-04-26T14:27:40Z</time>
</trkpt>
<trkpt lat="35.1114366" lon="32.5080916">
<ele>21.61</ele>
<time>2015-04-26T14:27:42Z</time>
</trkpt>
<trkpt lat="35.1113660" lon="32.5080490">
<ele>21.85</ele>
<time>2015-04-26T14:27:44Z</time>
</trkpt>
<trkpt lat="35.1113011" lon="32.5080047">
<ele>21.91</ele>
<time>2015-04-26T14:27:46Z</time>
</trkpt>
<trkpt lat="35.1112330" lon="32.5079526">
<ele>22.67</ele>
<time>2015-04-26T14:27:48Z</time>
</trkpt>
<trkpt lat="35.1111713" lon="32.5079078">
<ele>22.36</ele>
<time>2015-04-26T14:27:50Z</time>
</trkpt>
<trkpt lat="35.1111209" lon="32.5078811">
<ele>20.28</ele>
<time>2015-04-26T14:27:52Z</time>
</trkpt>
<trkpt lat="35.1110752" lon="32.5078586">
<ele>20.01</ele>
<time>2015-04-26T14:27:54Z</time>
</trkpt>
<trkpt lat="35.1110315" lon="32.5078388">
<ele>19.95</ele>
<time>2015-04-26T14:27:56Z</time>
</trkpt>
<trkpt lat="35.1109880" lon="32.5078188">
<ele>20.68</ele>
<time>2015-04-26T14:27:58Z</time>
</trkpt>
<trkpt lat="35.1109347" lon="32.5077788">
<ele>20.14</ele>
<time>2015-04-26T14:28:01Z</time>
</trkpt>
<trkpt lat="35.1108908" lon="32.5077422">
<ele>20.70</ele>
<time>2015-04-26T14:28:04Z</time>
</trkpt>
<trkpt lat="35.1108480" lon="32.5077176">
<ele>20.41</ele>
<time>2015-04-26T14:28:08Z</time>
</trkpt>
<trkpt lat="35.1108562" lon="32.5076604">
<ele>20.92</ele>
<time>2015-04-26T14:28:34Z</time>
</trkpt>
<trkpt lat="35.1108035" lon="32.5076304">
<ele>20.50</ele>
<time>2015-04-26T14:28:43Z</time>
</trkpt>
<trkpt lat="35.1107604" lon="32.5076117">
<ele>20.82</ele>
<time>2015-04-26T14:28:45Z</time>
</trkpt>
<trkpt lat="35.1107120" lon="32.5075951">
<ele>20.15</ele>
<time>2015-04-26T14:28:47Z</time>
</trkpt>
<trkpt lat="35.1106638" lon="32.5075707">
<ele>19.23</ele>
<time>2015-04-26T14:28:49Z</time>
</trkpt>
<trkpt lat="35.1106059" lon="32.5075314">
<ele>19.00</ele>
<time>2015-04-26T14:28:51Z</time>
</trkpt>
<trkpt lat="35.1105357" lon="32.5074845">
<ele>18.94</ele>
<time>2015-04-26T14:28:53Z</time>
</trkpt>
<trkpt lat="35.1104660" lon="32.5074463">
<ele>18.93</ele>
<time>2015-04-26T14:28:55Z</time>
</trkpt>
<trkpt lat="35.1104016" lon="32.5074064">
<ele>17.68</ele>
<time>2015-04-26T14:28:57Z</time>
</trkpt>
<trkpt lat="35.1103403" lon="32.5073576">
<ele>17.86</ele>
<time>2015-04-26T14:28:59Z</time>
</trkpt>
<trkpt lat="35.1102767" lon="32.5073119">
<ele>17.91</ele>
<time>2015-04-26T14:29:01Z</time>
</trkpt>
<trkpt lat="35.1102085" lon="32.5072672">
<ele>17.92</ele>
<time>2015-04-26T14:29:03Z</time>
</trkpt>
<trkpt lat="35.1101379" lon="32.5072185">
<ele>17.92</ele>
<time>2015-04-26T14:29:05Z</time>
</trkpt>
<trkpt lat="35.1100658" lon="32.5071686">
<ele>17.92</ele>
<time>2015-04-26T14:29:07Z</time>
</trkpt>
<trkpt lat="35.1099926" lon="32.5071221">
<ele>17.92</ele>
<time>2015-04-26T14:29:09Z</time>
</trkpt>
<trkpt lat="35.1099154" lon="32.5070780">
<ele>17.92</ele>
<time>2015-04-26T14:29:11Z</time>
</trkpt>
<trkpt lat="35.1098542" lon="32.5070482">
<ele>17.42</ele>
<time>2015-04-26T14:29:12Z</time>
</trkpt>
<trkpt lat="35.1098144" lon="32.5070189">
<ele>17.17</ele>
<time>2015-04-26T14:29:13Z</time>
</trkpt>
<trkpt lat="35.1097703" lon="32.5069895">
<ele>17.05</ele>
<time>2015-04-26T14:29:14Z</time>
</trkpt>
<trkpt lat="35.1097291" lon="32.5069602">
<ele>17.49</ele>
<time>2015-04-26T14:29:15Z</time>
</trkpt>
<trkpt lat="35.1096528" lon="32.5068950">
<ele>18.57</ele>
<time>2015-04-26T14:29:17Z</time>
</trkpt>
<trkpt lat="35.1095653" lon="32.5068513">
<ele>18.84</ele>
<time>2015-04-26T14:29:19Z</time>
</trkpt>
<trkpt lat="35.1095204" lon="32.5068240">
<ele>18.88</ele>
<time>2015-04-26T14:29:20Z</time>
</trkpt>
<trkpt lat="35.1094459" lon="32.5067631">
<ele>18.91</ele>
<time>2015-04-26T14:29:22Z</time>
</trkpt>
<trkpt lat="35.1093694" lon="32.5067119">
<ele>18.92</ele>
<time>2015-04-26T14:29:24Z</time>
</trkpt>
<trkpt lat="35.1092886" lon="32.5066621">
<ele>18.92</ele>
<time>2015-04-26T14:29:26Z</time>
</trkpt>
<trkpt lat="35.1092434" lon="32.5066383">
<ele>19.42</ele>
<time>2015-04-26T14:29:27Z</time>
</trkpt>
<trkpt lat="35.1092009" lon="32.5066114">
<ele>19.17</ele>
<time>2015-04-26T14:29:28Z</time>
</trkpt>
<trkpt lat="35.1091542" lon="32.5065799">
<ele>19.55</ele>
<time>2015-04-26T14:29:29Z</time>
</trkpt>
<trkpt lat="35.1091161" lon="32.5065474">
<ele>19.74</ele>
<time>2015-04-26T14:29:30Z</time>
</trkpt>
<trkpt lat="35.1090696" lon="32.5065195">
<ele>19.83</ele>
<time>2015-04-26T14:29:31Z</time>
</trkpt>
<trkpt lat="35.1090272" lon="32.5064734">
<ele>19.38</ele>
<time>2015-04-26T14:29:32Z</time>
</trkpt>
<trkpt lat="35.1089865" lon="32.5064342">
<ele>19.15</ele>
<time>2015-04-26T14:29:33Z</time>
</trkpt>
<trkpt lat="35.1089055" lon="32.5063761">
<ele>18.23</ele>
<time>2015-04-26T14:29:35Z</time>
</trkpt>
<trkpt lat="35.1088656" lon="32.5063376">
<ele>17.58</ele>
<time>2015-04-26T14:29:36Z</time>
</trkpt>
<trkpt lat="35.1088218" lon="32.5063080">
<ele>17.75</ele>
<time>2015-04-26T14:29:37Z</time>
</trkpt>
<trkpt lat="35.1087815" lon="32.5062809">
<ele>17.34</ele>
<time>2015-04-26T14:29:38Z</time>
</trkpt>
<trkpt lat="35.1087386" lon="32.5062590">
<ele>17.13</ele>
<time>2015-04-26T14:29:39Z</time>
</trkpt>
<trkpt lat="35.1086969" lon="32.5062303">
<ele>17.03</ele>
<time>2015-04-26T14:29:40Z</time>
</trkpt>
<trkpt lat="35.1086214" lon="32.5061715">
<ele>16.45</ele>
<time>2015-04-26T14:29:42Z</time>
</trkpt>
<trkpt lat="35.1085786" lon="32.5061513">
<ele>16.19</ele>
<time>2015-04-26T14:29:43Z</time>
</trkpt>
<trkpt lat="35.1085376" lon="32.5061228">
<ele>16.56</ele>
<time>2015-04-26T14:29:44Z</time>
</trkpt>
<trkpt lat="35.1084928" lon="32.5060987">
<ele>16.74</ele>
<time>2015-04-26T14:29:45Z</time>
</trkpt>
<trkpt lat="35.1084040" lon="32.5060526">
<ele>16.88</ele>
<time>2015-04-26T14:29:47Z</time>
</trkpt>
<trkpt lat="35.1083572" lon="32.5060251">
<ele>16.90</ele>
<time>2015-04-26T14:29:48Z</time>
</trkpt>
<trkpt lat="35.1083120" lon="32.5059932">
<ele>16.91</ele>
<time>2015-04-26T14:29:49Z</time>
</trkpt>
<trkpt lat="35.1082683" lon="32.5059613">
<ele>17.42</ele>
<time>2015-04-26T14:29:50Z</time>
</trkpt>
<trkpt lat="35.1082278" lon="32.5059349">
<ele>17.67</ele>
<time>2015-04-26T14:29:51Z</time>
</trkpt>
<trkpt lat="35.1081848" lon="32.5058983">
<ele>17.80</ele>
<time>2015-04-26T14:29:52Z</time>
</trkpt>
<trkpt lat="35.1081434" lon="32.5058714">
<ele>17.86</ele>
<time>2015-04-26T14:29:53Z</time>
</trkpt>
<trkpt lat="35.1080975" lon="32.5058364">
<ele>17.89</ele>
<time>2015-04-26T14:29:54Z</time>
</trkpt>
<trkpt lat="35.1080569" lon="32.5058004">
<ele>17.91</ele>
<time>2015-04-26T14:29:55Z</time>
</trkpt>
<trkpt lat="35.1080013" lon="32.5057615">
<ele>17.92</ele>
<time>2015-04-26T14:29:56Z</time>
</trkpt>
<trkpt lat="35.1079608" lon="32.5057297">
<ele>17.92</ele>
<time>2015-04-26T14:29:57Z</time>
</trkpt>
<trkpt lat="35.1079084" lon="32.5056980">
<ele>17.92</ele>
<time>2015-04-26T14:29:58Z</time>
</trkpt>
<trkpt lat="35.1078633" lon="32.5056695">
<ele>17.92</ele>
<time>2015-04-26T14:29:59Z</time>
</trkpt>
<trkpt lat="35.1078190" lon="32.5056456">
<ele>17.92</ele>
<time>2015-04-26T14:30:00Z</time>
</trkpt>
<trkpt lat="35.1077779" lon="32.5056207">
<ele>18.42</ele>
<time>2015-04-26T14:30:01Z</time>
</trkpt>
<trkpt lat="35.1077029" lon="32.5055737">
<ele>19.55</ele>
<time>2015-04-26T14:30:03Z</time>
</trkpt>
<trkpt lat="35.1076259" lon="32.5055236">
<ele>20.08</ele>
<time>2015-04-26T14:30:05Z</time>
</trkpt>
<trkpt lat="35.1075802" lon="32.5054970">
<ele>20.50</ele>
<time>2015-04-26T14:30:06Z</time>
</trkpt>
<trkpt lat="35.1075466" lon="32.5054597">
<ele>20.21</ele>
<time>2015-04-26T14:30:07Z</time>
</trkpt>
<trkpt lat="35.1075023" lon="32.5054308">
<ele>20.07</ele>
<time>2015-04-26T14:30:08Z</time>
</trkpt>
<trkpt lat="35.1074671" lon="32.5053931">
<ele>20.00</ele>
<time>2015-04-26T14:30:09Z</time>
</trkpt>
<trkpt lat="35.1073971" lon="32.5053341">
<ele>19.44</ele>
<time>2015-04-26T14:30:11Z</time>
</trkpt>
<trkpt lat="35.1073176" lon="32.5052844">
<ele>18.55</ele>
<time>2015-04-26T14:30:13Z</time>
</trkpt>
<trkpt lat="35.1072701" lon="32.5052585">
<ele>18.24</ele>
<time>2015-04-26T14:30:14Z</time>
</trkpt>
<trkpt lat="35.1072224" lon="32.5052336">
<ele>18.58</ele>
<time>2015-04-26T14:30:15Z</time>
</trkpt>
<trkpt lat="35.1071802" lon="32.5051949">
<ele>18.25</ele>
<time>2015-04-26T14:30:16Z</time>
</trkpt>
<trkpt lat="35.1071374" lon="32.5051614">
<ele>18.09</ele>
<time>2015-04-26T14:30:17Z</time>
</trkpt>
<trkpt lat="35.1070897" lon="32.5051255">
<ele>18.01</ele>
<time>2015-04-26T14:30:18Z</time>
</trkpt>
<trkpt lat="35.1070428" lon="32.5051020">
<ele>17.97</ele>
<time>2015-04-26T14:30:19Z</time>
</trkpt>
<trkpt lat="35.1069953" lon="32.5050722">
<ele>17.95</ele>
<time>2015-04-26T14:30:20Z</time>
</trkpt>
<trkpt lat="35.1069485" lon="32.5050456">
<ele>17.94</ele>
<time>2015-04-26T14:30:21Z</time>
</trkpt>
<trkpt lat="35.1068972" lon="32.5050200">
<ele>17.93</ele>
<time>2015-04-26T14:30:22Z</time>
</trkpt>
<trkpt lat="35.1068476" lon="32.5049871">
<ele>18.43</ele>
<time>2015-04-26T14:30:23Z</time>
</trkpt>
<trkpt lat="35.1068040" lon="32.5049540">
<ele>19.18</ele>
<time>2015-04-26T14:30:24Z</time>
</trkpt>
<trkpt lat="35.1067634" lon="32.5049089">
<ele>19.55</ele>
<time>2015-04-26T14:30:25Z</time>
</trkpt>
<trkpt lat="35.1067151" lon="32.5048891">
<ele>19.74</ele>
<time>2015-04-26T14:30:26Z</time>
</trkpt>
<trkpt lat="35.1066617" lon="32.5048630">
<ele>19.83</ele>
<time>2015-04-26T14:30:27Z</time>
</trkpt>
<trkpt lat="35.1066069" lon="32.5048307">
<ele>20.38</ele>
<time>2015-04-26T14:30:28Z</time>
</trkpt>
<trkpt lat="35.1065560" lon="32.5047987">
<ele>20.65</ele>
<time>2015-04-26T14:30:29Z</time>
</trkpt>
<trkpt lat="35.1065098" lon="32.5047598">
<ele>20.79</ele>
<time>2015-04-26T14:30:30Z</time>
</trkpt>
<trkpt lat="35.1064524" lon="32.5047226">
<ele>20.86</ele>
<time>2015-04-26T14:30:31Z</time>
</trkpt>
<trkpt lat="35.1063996" lon="32.5046833">
<ele>20.89</ele>
<time>2015-04-26T14:30:32Z</time>
</trkpt>
<trkpt lat="35.1063490" lon="32.5046410">
<ele>20.41</ele>
<time>2015-04-26T14:30:33Z</time>
</trkpt>
<trkpt lat="35.1063013" lon="32.5046075">
<ele>20.17</ele>
<time>2015-04-26T14:30:34Z</time>
</trkpt>
<trkpt lat="35.1062532" lon="32.5045718">
<ele>20.05</ele>
<time>2015-04-26T14:30:35Z</time>
</trkpt>
<trkpt lat="35.1062073" lon="32.5045410">
<ele>19.49</ele>
<time>2015-04-26T14:30:36Z</time>
</trkpt>
<trkpt lat="35.1061586" lon="32.5045091">
<ele>19.21</ele>
<time>2015-04-26T14:30:37Z</time>
</trkpt>
<trkpt lat="35.1061029" lon="32.5044789">
<ele>19.07</ele>
<time>2015-04-26T14:30:38Z</time>
</trkpt>
<trkpt lat="35.1060466" lon="32.5044456">
<ele>19.50</ele>
<time>2015-04-26T14:30:39Z</time>
</trkpt>
<trkpt lat="35.1060028" lon="32.5044045">
<ele>20.21</ele>
<time>2015-04-26T14:30:40Z</time>
</trkpt>
<trkpt lat="35.1059464" lon="32.5043720">
<ele>20.07</ele>
<time>2015-04-26T14:30:41Z</time>
</trkpt>
<trkpt lat="35.1058883" lon="32.5043407">
<ele>20.50</ele>
<time>2015-04-26T14:30:42Z</time>
</trkpt>
<trkpt lat="35.1058341" lon="32.5043084">
<ele>20.71</ele>
<time>2015-04-26T14:30:43Z</time>
</trkpt>
<trkpt lat="35.1057908" lon="32.5042777">
<ele>20.82</ele>
<time>2015-04-26T14:30:44Z</time>
</trkpt>
<trkpt lat="35.1057403" lon="32.5042510">
<ele>20.37</ele>
<time>2015-04-26T14:30:45Z</time>
</trkpt>
<trkpt lat="35.1056957" lon="32.5042301">
<ele>20.15</ele>
<time>2015-04-26T14:30:46Z</time>
</trkpt>
<trkpt lat="35.1056384" lon="32.5042189">
<ele>20.54</ele>
<time>2015-04-26T14:30:47Z</time>
</trkpt>
<trkpt lat="35.1055880" lon="32.5042082">
<ele>21.23</ele>
<time>2015-04-26T14:30:48Z</time>
</trkpt>
<trkpt lat="35.1055356" lon="32.5041901">
<ele>21.08</ele>
<time>2015-04-26T14:30:49Z</time>
</trkpt>
<trkpt lat="35.1054784" lon="32.5041814">
<ele>21.00</ele>
<time>2015-04-26T14:30:50Z</time>
</trkpt>
<trkpt lat="35.1054302" lon="32.5041544">
<ele>20.96</ele>
<time>2015-04-26T14:30:51Z</time>
</trkpt>
<trkpt lat="35.1053702" lon="32.5041380">
<ele>21.44</ele>
<time>2015-04-26T14:30:52Z</time>
</trkpt>
<trkpt lat="35.1053241" lon="32.5041220">
<ele>21.68</ele>
<time>2015-04-26T14:30:53Z</time>
</trkpt>
<trkpt lat="35.1052685" lon="32.5041026">
<ele>21.30</ele>
<time>2015-04-26T14:30:54Z</time>
</trkpt>
<trkpt lat="35.1052120" lon="32.5040738">
<ele>21.11</ele>
<time>2015-04-26T14:30:55Z</time>
</trkpt>
<trkpt lat="35.1051598" lon="32.5040559">
<ele>21.02</ele>
<time>2015-04-26T14:30:56Z</time>
</trkpt>
<trkpt lat="35.1051045" lon="32.5040552">
<ele>20.97</ele>
<time>2015-04-26T14:30:57Z</time>
</trkpt>
<trkpt lat="35.1050535" lon="32.5040537">
<ele>20.95</ele>
<time>2015-04-26T14:30:58Z</time>
</trkpt>
<trkpt lat="35.1049983" lon="32.5040378">
<ele>20.94</ele>
<time>2015-04-26T14:30:59Z</time>
</trkpt>
<trkpt lat="35.1049016" lon="32.5040094">
<ele>19.68</ele>
<time>2015-04-26T14:31:01Z</time>
</trkpt>
<trkpt lat="35.1048537" lon="32.5040022">
<ele>18.80</ele>
<time>2015-04-26T14:31:02Z</time>
</trkpt>
<trkpt lat="35.1048023" lon="32.5039956">
<ele>17.86</ele>
<time>2015-04-26T14:31:03Z</time>
</trkpt>
<trkpt lat="35.1047480" lon="32.5039858">
<ele>17.39</ele>
<time>2015-04-26T14:31:04Z</time>
</trkpt>
<trkpt lat="35.1046519" lon="32.5039559">
<ele>17.04</ele>
<time>2015-04-26T14:31:06Z</time>
</trkpt>
<trkpt lat="35.1046049" lon="32.5039380">
<ele>17.48</ele>
<time>2015-04-26T14:31:07Z</time>
</trkpt>
<trkpt lat="35.1045575" lon="32.5039246">
<ele>17.20</ele>
<time>2015-04-26T14:31:08Z</time>
</trkpt>
<trkpt lat="35.1045033" lon="32.5039129">
<ele>17.56</ele>
<time>2015-04-26T14:31:09Z</time>
</trkpt>
<trkpt lat="35.1044572" lon="32.5038990">
<ele>17.74</ele>
<time>2015-04-26T14:31:10Z</time>
</trkpt>
<trkpt lat="35.1044082" lon="32.5038836">
<ele>17.83</ele>
<time>2015-04-26T14:31:11Z</time>
</trkpt>
<trkpt lat="35.1043583" lon="32.5038759">
<ele>17.88</ele>
<time>2015-04-26T14:31:12Z</time>
</trkpt>
<trkpt lat="35.1043145" lon="32.5038515">
<ele>17.90</ele>
<time>2015-04-26T14:31:13Z</time>
</trkpt>
<trkpt lat="35.1042610" lon="32.5038345">
<ele>18.41</ele>
<time>2015-04-26T14:31:14Z</time>
</trkpt>
<trkpt lat="35.1042086" lon="32.5038150">
<ele>18.17</ele>
<time>2015-04-26T14:31:15Z</time>
</trkpt>
<trkpt lat="35.1041541" lon="32.5037908">
<ele>18.05</ele>
<time>2015-04-26T14:31:16Z</time>
</trkpt>
<trkpt lat="35.1041070" lon="32.5037574">
<ele>17.99</ele>
<time>2015-04-26T14:31:17Z</time>
</trkpt>
<trkpt lat="35.1040507" lon="32.5037362">
<ele>18.46</ele>
<time>2015-04-26T14:31:18Z</time>
</trkpt>
<trkpt lat="35.1039999" lon="32.5037194">
<ele>18.19</ele>
<time>2015-04-26T14:31:19Z</time>
</trkpt>
<trkpt lat="35.1039548" lon="32.5036935">
<ele>18.06</ele>
<time>2015-04-26T14:31:20Z</time>
</trkpt>
<trkpt lat="35.1039025" lon="32.5036527">
<ele>17.99</ele>
<time>2015-04-26T14:31:21Z</time>
</trkpt>
<trkpt lat="35.1038573" lon="32.5036167">
<ele>17.96</ele>
<time>2015-04-26T14:31:22Z</time>
</trkpt>
<trkpt lat="35.1038084" lon="32.5035890">
<ele>17.44</ele>
<time>2015-04-26T14:31:23Z</time>
</trkpt>
<trkpt lat="35.1037694" lon="32.5035471">
<ele>17.68</ele>
<time>2015-04-26T14:31:24Z</time>
</trkpt>
<trkpt lat="35.1036848" lon="32.5034952">
<ele>17.86</ele>
<time>2015-04-26T14:31:26Z</time>
</trkpt>
<trkpt lat="35.1036361" lon="32.5034711">
<ele>17.89</ele>
<time>2015-04-26T14:31:27Z</time>
</trkpt>
<trkpt lat="35.1035870" lon="32.5034411">
<ele>17.91</ele>
<time>2015-04-26T14:31:28Z</time>
</trkpt>
<trkpt lat="35.1035411" lon="32.5034043">
<ele>17.92</ele>
<time>2015-04-26T14:31:29Z</time>
</trkpt>
<trkpt lat="35.1034898" lon="32.5033609">
<ele>17.92</ele>
<time>2015-04-26T14:31:30Z</time>
</trkpt>
<trkpt lat="35.1034449" lon="32.5033249">
<ele>18.42</ele>
<time>2015-04-26T14:31:31Z</time>
</trkpt>
<trkpt lat="35.1034000" lon="32.5032906">
<ele>18.17</ele>
<time>2015-04-26T14:31:32Z</time>
</trkpt>
<trkpt lat="35.1033551" lon="32.5032566">
<ele>18.05</ele>
<time>2015-04-26T14:31:33Z</time>
</trkpt>
<trkpt lat="35.1033088" lon="32.5032228">
<ele>18.49</ele>
<time>2015-04-26T14:31:34Z</time>
</trkpt>
<trkpt lat="35.1032606" lon="32.5031950">
<ele>18.71</ele>
<time>2015-04-26T14:31:35Z</time>
</trkpt>
<trkpt lat="35.1032121" lon="32.5031636">
<ele>18.82</ele>
<time>2015-04-26T14:31:36Z</time>
</trkpt>
<trkpt lat="35.1031662" lon="32.5031304">
<ele>18.87</ele>
<time>2015-04-26T14:31:37Z</time>
</trkpt>
<trkpt lat="35.1031192" lon="32.5030929">
<ele>18.90</ele>
<time>2015-04-26T14:31:38Z</time>
</trkpt>
<trkpt lat="35.1030777" lon="32.5030562">
<ele>18.91</ele>
<time>2015-04-26T14:31:39Z</time>
</trkpt>
<trkpt lat="35.1030302" lon="32.5030170">
<ele>18.92</ele>
<time>2015-04-26T14:31:40Z</time>
</trkpt>
<trkpt lat="35.1029570" lon="32.5029646">
<ele>16.92</ele>
<time>2015-04-26T14:31:42Z</time>
</trkpt>
<trkpt lat="35.1028867" lon="32.5029062">
<ele>16.17</ele>
<time>2015-04-26T14:31:44Z</time>
</trkpt>
<trkpt lat="35.1028139" lon="32.5028715">
<ele>15.99</ele>
<time>2015-04-26T14:31:46Z</time>
</trkpt>
<trkpt lat="35.1027540" lon="32.5028235">
<ele>15.19</ele>
<time>2015-04-26T14:31:48Z</time>
</trkpt>
<trkpt lat="35.1026819" lon="32.5027900">
<ele>14.74</ele>
<time>2015-04-26T14:31:50Z</time>
</trkpt>
<trkpt lat="35.1026295" lon="32.5027572">
<ele>15.38</ele>
<time>2015-04-26T14:31:52Z</time>
</trkpt>
<trkpt lat="35.1025734" lon="32.5027232">
<ele>15.54</ele>
<time>2015-04-26T14:31:54Z</time>
</trkpt>
<trkpt lat="35.1025159" lon="32.5026885">
<ele>15.83</ele>
<time>2015-04-26T14:31:56Z</time>
</trkpt>
<trkpt lat="35.1024568" lon="32.5026577">
<ele>15.90</ele>
<time>2015-04-26T14:31:58Z</time>
</trkpt>
<trkpt lat="35.1024045" lon="32.5026281">
<ele>16.67</ele>
<time>2015-04-26T14:32:00Z</time>
</trkpt>
<trkpt lat="35.1023564" lon="32.5025949">
<ele>17.36</ele>
<time>2015-04-26T14:32:02Z</time>
</trkpt>
<trkpt lat="35.1023067" lon="32.5025667">
<ele>17.03</ele>
<time>2015-04-26T14:32:04Z</time>
</trkpt>
<trkpt lat="35.1022522" lon="32.5025400">
<ele>16.95</ele>
<time>2015-04-26T14:32:06Z</time>
</trkpt>
<trkpt lat="35.1021980" lon="32.5025186">
<ele>16.93</ele>
<time>2015-04-26T14:32:08Z</time>
</trkpt>
<trkpt lat="35.1021396" lon="32.5024910">
<ele>17.43</ele>
<time>2015-04-26T14:32:10Z</time>
</trkpt>
<trkpt lat="35.1020531" lon="32.5024363">
<ele>17.80</ele>
<time>2015-04-26T14:32:12Z</time>
</trkpt>
<trkpt lat="35.1020090" lon="32.5024137">
<ele>17.86</ele>
<time>2015-04-26T14:32:13Z</time>
</trkpt>
<trkpt lat="35.1019610" lon="32.5023865">
<ele>17.89</ele>
<time>2015-04-26T14:32:14Z</time>
</trkpt>
<trkpt lat="35.1019143" lon="32.5023586">
<ele>17.91</ele>
<time>2015-04-26T14:32:15Z</time>
</trkpt>
<trkpt lat="35.1018428" lon="32.5023052">
<ele>18.67</ele>
<time>2015-04-26T14:32:17Z</time>
</trkpt>
<trkpt lat="35.1017985" lon="32.5022795">
<ele>18.80</ele>
<time>2015-04-26T14:32:18Z</time>
</trkpt>
<trkpt lat="35.1017576" lon="32.5022538">
<ele>18.86</ele>
<time>2015-04-26T14:32:19Z</time>
</trkpt>
<trkpt lat="35.1017133" lon="32.5022291">
<ele>18.89</ele>
<time>2015-04-26T14:32:20Z</time>
</trkpt>
<trkpt lat="35.1016740" lon="32.5021995">
<ele>18.91</ele>
<time>2015-04-26T14:32:21Z</time>
</trkpt>
<trkpt lat="35.1016301" lon="32.5021739">
<ele>18.92</ele>
<time>2015-04-26T14:32:22Z</time>
</trkpt>
<trkpt lat="35.1015557" lon="32.5021262">
<ele>18.92</ele>
<time>2015-04-26T14:32:24Z</time>
</trkpt>
<trkpt lat="35.1014883" lon="32.5020671">
<ele>17.67</ele>
<time>2015-04-26T14:32:26Z</time>
</trkpt>
<trkpt lat="35.1014444" lon="32.5020399">
<ele>17.30</ele>
<time>2015-04-26T14:32:27Z</time>
</trkpt>
<trkpt lat="35.1014037" lon="32.5020153">
<ele>17.11</ele>
<time>2015-04-26T14:32:28Z</time>
</trkpt>
<trkpt lat="35.1013256" lon="32.5019672">
<ele>16.72</ele>
<time>2015-04-26T14:32:30Z</time>
</trkpt>
<trkpt lat="35.1012856" lon="32.5019364">
<ele>16.32</ele>
<time>2015-04-26T14:32:31Z</time>
</trkpt>
<trkpt lat="35.1012339" lon="32.5019109">
<ele>15.62</ele>
<time>2015-04-26T14:32:32Z</time>
</trkpt>
<trkpt lat="35.1011906" lon="32.5018840">
<ele>15.27</ele>
<time>2015-04-26T14:32:33Z</time>
</trkpt>
<trkpt lat="35.1011372" lon="32.5018614">
<ele>15.60</ele>
<time>2015-04-26T14:32:34Z</time>
</trkpt>
<trkpt lat="35.1010957" lon="32.5018311">
<ele>15.76</ele>
<time>2015-04-26T14:32:35Z</time>
</trkpt>
<trkpt lat="35.1010471" lon="32.5018048">
<ele>15.84</ele>
<time>2015-04-26T14:32:36Z</time>
</trkpt>
<trkpt lat="35.1009709" lon="32.5017604">
<ele>15.15</ele>
<time>2015-04-26T14:32:38Z</time>
</trkpt>
<trkpt lat="35.1009254" lon="32.5017248">
<ele>15.54</ele>
<time>2015-04-26T14:32:39Z</time>
</trkpt>
<trkpt lat="35.1008824" lon="32.5016972">
<ele>15.73</ele>
<time>2015-04-26T14:32:40Z</time>
</trkpt>
<trkpt lat="35.1007968" lon="32.5016356">
<ele>15.88</ele>
<time>2015-04-26T14:32:42Z</time>
</trkpt>
<trkpt lat="35.1007097" lon="32.5015778">
<ele>16.66</ele>
<time>2015-04-26T14:32:44Z</time>
</trkpt>
<trkpt lat="35.1006618" lon="32.5015455">
<ele>16.79</ele>
<time>2015-04-26T14:32:45Z</time>
</trkpt>
<trkpt lat="35.1006165" lon="32.5015170">
<ele>16.86</ele>
<time>2015-04-26T14:32:46Z</time>
</trkpt>
<trkpt lat="35.1005801" lon="32.5014832">
<ele>16.89</ele>
<time>2015-04-26T14:32:47Z</time>
</trkpt>
<trkpt lat="35.1005361" lon="32.5014461">
<ele>16.91</ele>
<time>2015-04-26T14:32:48Z</time>
</trkpt>
<trkpt lat="35.1004894" lon="32.5014135">
<ele>16.92</ele>
<time>2015-04-26T14:32:49Z</time>
</trkpt>
<trkpt lat="35.1004450" lon="32.5013823">
<ele>16.92</ele>
<time>2015-04-26T14:32:50Z</time>
</trkpt>
<trkpt lat="35.1003885" lon="32.5013516">
<ele>16.92</ele>
<time>2015-04-26T14:32:51Z</time>
</trkpt>
<trkpt lat="35.1003396" lon="32.5013158">
<ele>16.92</ele>
<time>2015-04-26T14:32:52Z</time>
</trkpt>
<trkpt lat="35.1002875" lon="32.5012698">
<ele>16.42</ele>
<time>2015-04-26T14:32:53Z</time>
</trkpt>
<trkpt lat="35.1002426" lon="32.5012455">
<ele>16.17</ele>
<time>2015-04-26T14:32:54Z</time>
</trkpt>
<trkpt lat="35.1002089" lon="32.5012063">
<ele>16.55</ele>
<time>2015-04-26T14:32:55Z</time>
</trkpt>
<trkpt lat="35.1001402" lon="32.5011538">
<ele>16.33</ele>
<time>2015-04-26T14:32:57Z</time>
</trkpt>
<trkpt lat="35.1000952" lon="32.5011216">
<ele>16.63</ele>
<time>2015-04-26T14:32:58Z</time>
</trkpt>
<trkpt lat="35.1000521" lon="32.5010965">
<ele>16.28</ele>
<time>2015-04-26T14:32:59Z</time>
</trkpt>
<trkpt lat="35.1000058" lon="32.5010643">
<ele>16.60</ele>
<time>2015-04-26T14:33:00Z</time>
</trkpt>
<trkpt lat="35.0999617" lon="32.5010396">
<ele>17.26</ele>
<time>2015-04-26T14:33:01Z</time>
</trkpt>
<trkpt lat="35.0999265" lon="32.5010012">
<ele>17.09</ele>
<time>2015-04-26T14:33:02Z</time>
</trkpt>
<trkpt lat="35.0998746" lon="32.5009704">
<ele>17.01</ele>
<time>2015-04-26T14:33:03Z</time>
</trkpt>
<trkpt lat="35.0998327" lon="32.5009372">
<ele>16.97</ele>
<time>2015-04-26T14:33:04Z</time>
</trkpt>
<trkpt lat="35.0997500" lon="32.5008839">
<ele>16.94</ele>
<time>2015-04-26T14:33:06Z</time>
</trkpt>
<trkpt lat="35.0996763" lon="32.5008167">
<ele>16.93</ele>
<time>2015-04-26T14:33:08Z</time>
</trkpt>
<trkpt lat="35.0996263" lon="32.5007840">
<ele>16.93</ele>
<time>2015-04-26T14:33:09Z</time>
</trkpt>
<trkpt lat="35.0995853" lon="32.5007604">
<ele>16.93</ele>
<time>2015-04-26T14:33:10Z</time>
</trkpt>
<trkpt lat="35.0995383" lon="32.5007274">
<ele>17.43</ele>
<time>2015-04-26T14:33:11Z</time>
</trkpt>
<trkpt lat="35.0994913" lon="32.5006988">
<ele>17.68</ele>
<time>2015-04-26T14:33:12Z</time>
</trkpt>
<trkpt lat="35.0994430" lon="32.5006733">
<ele>17.80</ele>
<time>2015-04-26T14:33:13Z</time>
</trkpt>
<trkpt lat="35.0993654" lon="32.5006114">
<ele>18.64</ele>
<time>2015-04-26T14:33:15Z</time>
</trkpt>
<trkpt lat="35.0993272" lon="32.5005790">
<ele>19.28</ele>
<time>2015-04-26T14:33:16Z</time>
</trkpt>
<trkpt lat="35.0992809" lon="32.5005514">
<ele>19.60</ele>
<time>2015-04-26T14:33:17Z</time>
</trkpt>
<trkpt lat="35.0992361" lon="32.5005270">
<ele>20.26</ele>
<time>2015-04-26T14:33:18Z</time>
</trkpt>
<trkpt lat="35.0991928" lon="32.5004952">
<ele>20.59</ele>
<time>2015-04-26T14:33:19Z</time>
</trkpt>
<trkpt lat="35.0991458" lon="32.5004520">
<ele>20.26</ele>
<time>2015-04-26T14:33:20Z</time>
</trkpt>
<trkpt lat="35.0990966" lon="32.5004250">
<ele>20.09</ele>
<time>2015-04-26T14:33:21Z</time>
</trkpt>
<trkpt lat="35.0990494" lon="32.5003884">
<ele>20.01</ele>
<time>2015-04-26T14:33:22Z</time>
</trkpt>
<trkpt lat="35.0990076" lon="32.5003555">
<ele>20.47</ele>
<time>2015-04-26T14:33:23Z</time>
</trkpt>
<trkpt lat="35.0989660" lon="32.5003180">
<ele>20.70</ele>
<time>2015-04-26T14:33:24Z</time>
</trkpt>
<trkpt lat="35.0988811" lon="32.5002701">
<ele>20.87</ele>
<time>2015-04-26T14:33:26Z</time>
</trkpt>
<trkpt lat="35.0988033" lon="32.5002004">
<ele>20.91</ele>
<time>2015-04-26T14:33:28Z</time>
</trkpt>
<trkpt lat="35.0987610" lon="32.5001693">
<ele>20.92</ele>
<time>2015-04-26T14:33:29Z</time>
</trkpt>
<trkpt lat="35.0987141" lon="32.5001428">
<ele>20.92</ele>
<time>2015-04-26T14:33:30Z</time>
</trkpt>
<trkpt lat="35.0986704" lon="32.5001152">
<ele>20.42</ele>
<time>2015-04-26T14:33:31Z</time>
</trkpt>
<trkpt lat="35.0986291" lon="32.5000910">
<ele>20.17</ele>
<time>2015-04-26T14:33:32Z</time>
</trkpt>
<trkpt lat="35.0985588" lon="32.5000482">
<ele>19.24</ele>
<time>2015-04-26T14:33:34Z</time>
</trkpt>
<trkpt lat="35.0985158" lon="32.5000066">
<ele>19.58</ele>
<time>2015-04-26T14:33:35Z</time>
</trkpt>
<trkpt lat="35.0984670" lon="32.4999829">
<ele>19.75</ele>
<time>2015-04-26T14:33:36Z</time>
</trkpt>
<trkpt lat="35.0984189" lon="32.4999561">
<ele>19.84</ele>
<time>2015-04-26T14:33:37Z</time>
</trkpt>
<trkpt lat="35.0983470" lon="32.4999100">
<ele>19.90</ele>
<time>2015-04-26T14:33:39Z</time>
</trkpt>
<trkpt lat="35.0982825" lon="32.4998488">
<ele>20.67</ele>
<time>2015-04-26T14:33:41Z</time>
</trkpt>
<trkpt lat="35.0982336" lon="32.4998342">
<ele>20.80</ele>
<time>2015-04-26T14:33:42Z</time>
</trkpt>
<trkpt lat="35.0981704" lon="32.4997852">
<ele>20.64</ele>
<time>2015-04-26T14:33:44Z</time>
</trkpt>
<trkpt lat="35.0981127" lon="32.4997388">
<ele>20.10</ele>
<time>2015-04-26T14:33:46Z</time>
</trkpt>
<trkpt lat="35.0980427" lon="32.4996966">
<ele>20.72</ele>
<time>2015-04-26T14:33:48Z</time>
</trkpt>
<trkpt lat="35.0979838" lon="32.4996657">
<ele>21.62</ele>
<time>2015-04-26T14:33:50Z</time>
</trkpt>
<trkpt lat="35.0979278" lon="32.4996319">
<ele>22.60</ele>
<time>2015-04-26T14:33:52Z</time>
</trkpt>
<trkpt lat="35.0978799" lon="32.4995913">
<ele>22.84</ele>
<time>2015-04-26T14:33:54Z</time>
</trkpt>
<trkpt lat="35.0978347" lon="32.4995513">
<ele>22.15</ele>
<time>2015-04-26T14:33:56Z</time>
</trkpt>
<trkpt lat="35.0977817" lon="32.4995192">
<ele>21.98</ele>
<time>2015-04-26T14:33:58Z</time>
</trkpt>
<trkpt lat="35.0977285" lon="32.4994824">
<ele>21.94</ele>
<time>2015-04-26T14:34:00Z</time>
</trkpt>
<trkpt lat="35.0976788" lon="32.4994413">
<ele>22.18</ele>
<time>2015-04-26T14:34:02Z</time>
</trkpt>
<trkpt lat="35.0976297" lon="32.4994033">
<ele>21.49</ele>
<time>2015-04-26T14:34:04Z</time>
</trkpt>
<trkpt lat="35.0975823" lon="32.4993631">
<ele>21.82</ele>
<time>2015-04-26T14:34:06Z</time>
</trkpt>
<trkpt lat="35.0975346" lon="32.4993206">
<ele>21.40</ele>
<time>2015-04-26T14:34:08Z</time>
</trkpt>
<trkpt lat="35.0974796" lon="32.4992814">
<ele>20.54</ele>
<time>2015-04-26T14:34:10Z</time>
</trkpt>
<trkpt lat="35.0974229" lon="32.4992388">
<ele>18.83</ele>
<time>2015-04-26T14:34:12Z</time>
</trkpt>
<trkpt lat="35.0973634" lon="32.4991916">
<ele>17.90</ele>
<time>2015-04-26T14:34:14Z</time>
</trkpt>
<trkpt lat="35.0972926" lon="32.4991351">
<ele>17.67</ele>
<time>2015-04-26T14:34:16Z</time>
</trkpt>
<trkpt lat="35.0972542" lon="32.4991062">
<ele>17.80</ele>
<time>2015-04-26T14:34:17Z</time>
</trkpt>
<trkpt lat="35.0972131" lon="32.4990789">
<ele>17.86</ele>
<time>2015-04-26T14:34:18Z</time>
</trkpt>
<trkpt lat="35.0971490" lon="32.4990462">
<ele>18.39</ele>
<time>2015-04-26T14:34:19Z</time>
</trkpt>
<trkpt lat="35.0971088" lon="32.4990205">
<ele>18.66</ele>
<time>2015-04-26T14:34:20Z</time>
</trkpt>
<trkpt lat="35.0970314" lon="32.4989768">
<ele>18.86</ele>
<time>2015-04-26T14:34:22Z</time>
</trkpt>
<trkpt lat="35.0969616" lon="32.4989214">
<ele>19.16</ele>
<time>2015-04-26T14:34:24Z</time>
</trkpt>
<trkpt lat="35.0968978" lon="32.4988764">
<ele>18.98</ele>
<time>2015-04-26T14:34:26Z</time>
</trkpt>
<trkpt lat="35.0968341" lon="32.4988244">
<ele>18.94</ele>
<time>2015-04-26T14:34:28Z</time>
</trkpt>
<trkpt lat="35.0967601" lon="32.4987748">
<ele>18.93</ele>
<time>2015-04-26T14:34:30Z</time>
</trkpt>
<trkpt lat="35.0966838" lon="32.4987274">
<ele>18.93</ele>
<time>2015-04-26T14:34:32Z</time>
</trkpt>
<trkpt lat="35.0965983" lon="32.4986678">
<ele>18.93</ele>
<time>2015-04-26T14:34:34Z</time>
</trkpt>
<trkpt lat="35.0965579" lon="32.4986301">
<ele>18.93</ele>
<time>2015-04-26T14:34:35Z</time>
</trkpt>
<trkpt lat="35.0964904" lon="32.4985707">
<ele>18.43</ele>
<time>2015-04-26T14:34:37Z</time>
</trkpt>
<trkpt lat="35.0964127" lon="32.4985280">
<ele>18.05</ele>
<time>2015-04-26T14:34:39Z</time>
</trkpt>
<trkpt lat="35.0963442" lon="32.4984695">
<ele>18.71</ele>
<time>2015-04-26T14:34:41Z</time>
</trkpt>
<trkpt lat="35.0962688" lon="32.4984252">
<ele>18.87</ele>
<time>2015-04-26T14:34:43Z</time>
</trkpt>
<trkpt lat="35.0961957" lon="32.4983815">
<ele>19.41</ele>
<time>2015-04-26T14:34:45Z</time>
</trkpt>
<trkpt lat="35.0961208" lon="32.4983275">
<ele>19.05</ele>
<time>2015-04-26T14:34:47Z</time>
</trkpt>
<trkpt lat="35.0960493" lon="32.4982841">
<ele>18.96</ele>
<time>2015-04-26T14:34:49Z</time>
</trkpt>
<trkpt lat="35.0959840" lon="32.4982428">
<ele>19.43</ele>
<time>2015-04-26T14:34:51Z</time>
</trkpt>
<trkpt lat="35.0959228" lon="32.4982114">
<ele>19.80</ele>
<time>2015-04-26T14:34:53Z</time>
</trkpt>
<trkpt lat="35.0958628" lon="32.4981757">
<ele>19.14</ele>
<time>2015-04-26T14:34:55Z</time>
</trkpt>
<trkpt lat="35.0957980" lon="32.4981412">
<ele>18.23</ele>
<time>2015-04-26T14:34:57Z</time>
</trkpt>
<trkpt lat="35.0957262" lon="32.4981045">
<ele>18.00</ele>
<time>2015-04-26T14:34:59Z</time>
</trkpt>
<trkpt lat="35.0956528" lon="32.4980652">
<ele>17.94</ele>
<time>2015-04-26T14:35:01Z</time>
</trkpt>
<trkpt lat="35.0955796" lon="32.4980269">
<ele>18.68</ele>
<time>2015-04-26T14:35:03Z</time>
</trkpt>
<trkpt lat="35.0955069" lon="32.4979839">
<ele>18.86</ele>
<time>2015-04-26T14:35:05Z</time>
</trkpt>
<trkpt lat="35.0954330" lon="32.4979333">
<ele>19.66</ele>
<time>2015-04-26T14:35:07Z</time>
</trkpt>
<trkpt lat="35.0953345" lon="32.4978705">
<ele>19.86</ele>
<time>2015-04-26T14:35:09Z</time>
</trkpt>
<trkpt lat="35.0952602" lon="32.4978241">
<ele>19.41</ele>
<time>2015-04-26T14:35:11Z</time>
</trkpt>
<trkpt lat="35.0951740" lon="32.4977817">
<ele>18.55</ele>
<time>2015-04-26T14:35:13Z</time>
</trkpt>
<trkpt lat="35.0950992" lon="32.4977398">
<ele>18.08</ele>
<time>2015-04-26T14:35:15Z</time>
</trkpt>
<trkpt lat="35.0950164" lon="32.4976912">
<ele>18.46</ele>
<time>2015-04-26T14:35:17Z</time>
</trkpt>
<trkpt lat="35.0949235" lon="32.4976469">
<ele>18.06</ele>
<time>2015-04-26T14:35:19Z</time>
</trkpt>
<trkpt lat="35.0948732" lon="32.4976221">
<ele>17.99</ele>
<time>2015-04-26T14:35:20Z</time>
</trkpt>
<trkpt lat="35.0948183" lon="32.4975943">
<ele>17.96</ele>
<time>2015-04-26T14:35:21Z</time>
</trkpt>
<trkpt lat="35.0947668" lon="32.4975727">
<ele>17.94</ele>
<time>2015-04-26T14:35:22Z</time>
</trkpt>
<trkpt lat="35.0947146" lon="32.4975399">
<ele>17.43</ele>
<time>2015-04-26T14:35:23Z</time>
</trkpt>
<trkpt lat="35.0946632" lon="32.4975012">
<ele>17.18</ele>
<time>2015-04-26T14:35:24Z</time>
</trkpt>
<trkpt lat="35.0946211" lon="32.4974749">
<ele>17.05</ele>
<time>2015-04-26T14:35:25Z</time>
</trkpt>
<trkpt lat="35.0945695" lon="32.4974530">
<ele>16.99</ele>
<time>2015-04-26T14:35:26Z</time>
</trkpt>
<trkpt lat="35.0945187" lon="32.4974211">
<ele>16.96</ele>
<time>2015-04-26T14:35:27Z</time>
</trkpt>
<trkpt lat="35.0944716" lon="32.4973966">
<ele>16.94</ele>
<time>2015-04-26T14:35:28Z</time>
</trkpt>
<trkpt lat="35.0944219" lon="32.4973714">
<ele>16.93</ele>
<time>2015-04-26T14:35:29Z</time>
</trkpt>
<trkpt lat="35.0943758" lon="32.4973413">
<ele>16.93</ele>
<time>2015-04-26T14:35:30Z</time>
</trkpt>
<trkpt lat="35.0943318" lon="32.4973185">
<ele>16.93</ele>
<time>2015-04-26T14:35:31Z</time>
</trkpt>
<trkpt lat="35.0942793" lon="32.4972912">
<ele>16.93</ele>
<time>2015-04-26T14:35:32Z</time>
</trkpt>
<trkpt lat="35.0942266" lon="32.4972625">
<ele>16.93</ele>
<time>2015-04-26T14:35:33Z</time>
</trkpt>
<trkpt lat="35.0941838" lon="32.4972354">
<ele>17.43</ele>
<time>2015-04-26T14:35:34Z</time>
</trkpt>
<trkpt lat="35.0941365" lon="32.4971905">
<ele>17.68</ele>
<time>2015-04-26T14:35:35Z</time>
</trkpt>
<trkpt lat="35.0940745" lon="32.4971630">
<ele>17.80</ele>
<time>2015-04-26T14:35:36Z</time>
</trkpt>
<trkpt lat="35.0940261" lon="32.4971276">
<ele>17.86</ele>
<time>2015-04-26T14:35:37Z</time>
</trkpt>
<trkpt lat="35.0939770" lon="32.4970891">
<ele>17.39</ele>
<time>2015-04-26T14:35:38Z</time>
</trkpt>
<trkpt lat="35.0939234" lon="32.4970560">
<ele>17.66</ele>
<time>2015-04-26T14:35:39Z</time>
</trkpt>
<trkpt lat="35.0938691" lon="32.4970243">
<ele>17.79</ele>
<time>2015-04-26T14:35:40Z</time>
</trkpt>
<trkpt lat="35.0938154" lon="32.4969880">
<ele>17.86</ele>
<time>2015-04-26T14:35:41Z</time>
</trkpt>
<trkpt lat="35.0937587" lon="32.4969497">
<ele>18.39</ele>
<time>2015-04-26T14:35:42Z</time>
</trkpt>
<trkpt lat="35.0937089" lon="32.4969112">
<ele>18.66</ele>
<time>2015-04-26T14:35:43Z</time>
</trkpt>
<trkpt lat="35.0936615" lon="32.4968820">
<ele>18.79</ele>
<time>2015-04-26T14:35:44Z</time>
</trkpt>
<trkpt lat="35.0936171" lon="32.4968471">
<ele>18.86</ele>
<time>2015-04-26T14:35:45Z</time>
</trkpt>
<trkpt lat="35.0935762" lon="32.4968046">
<ele>18.89</ele>
<time>2015-04-26T14:35:46Z</time>
</trkpt>
<trkpt lat="35.0935308" lon="32.4967575">
<ele>18.41</ele>
<time>2015-04-26T14:35:47Z</time>
</trkpt>
<trkpt lat="35.0934882" lon="32.4967185">
<ele>18.67</ele>
<time>2015-04-26T14:35:48Z</time>
</trkpt>
<trkpt lat="35.0934357" lon="32.4966821">
<ele>18.80</ele>
<time>2015-04-26T14:35:49Z</time>
</trkpt>
<trkpt lat="35.0933805" lon="32.4966388">
<ele>18.86</ele>
<time>2015-04-26T14:35:50Z</time>
</trkpt>
<trkpt lat="35.0933269" lon="32.4965951">
<ele>18.89</ele>
<time>2015-04-26T14:35:51Z</time>
</trkpt>
<trkpt lat="35.0932740" lon="32.4965448">
<ele>18.91</ele>
<time>2015-04-26T14:35:52Z</time>
</trkpt>
<trkpt lat="35.0932247" lon="32.4964996">
<ele>18.92</ele>
<time>2015-04-26T14:35:53Z</time>
</trkpt>
<trkpt lat="35.0931727" lon="32.4964527">
<ele>19.42</ele>
<time>2015-04-26T14:35:54Z</time>
</trkpt>
<trkpt lat="35.0931154" lon="32.4964137">
<ele>19.17</ele>
<time>2015-04-26T14:35:55Z</time>
</trkpt>
<trkpt lat="35.0930677" lon="32.4963829">
<ele>19.05</ele>
<time>2015-04-26T14:35:56Z</time>
</trkpt>
<trkpt lat="35.0930121" lon="32.4963321">
<ele>18.99</ele>
<time>2015-04-26T14:35:57Z</time>
</trkpt>
<trkpt lat="35.0929629" lon="32.4962921">
<ele>18.96</ele>
<time>2015-04-26T14:35:58Z</time>
</trkpt>
<trkpt lat="35.0929302" lon="32.4962425">
<ele>17.94</ele>
<time>2015-04-26T14:35:59Z</time>
</trkpt>
<trkpt lat="35.0928833" lon="32.4962029">
<ele>17.43</ele>
<time>2015-04-26T14:36:00Z</time>
</trkpt>
<trkpt lat="35.0928374" lon="32.4961653">
<ele>17.18</ele>
<time>2015-04-26T14:36:01Z</time>
</trkpt>
<trkpt lat="35.0927948" lon="32.4961244">
<ele>17.55</ele>
<time>2015-04-26T14:36:02Z</time>
</trkpt>
<trkpt lat="35.0927434" lon="32.4960882">
<ele>17.74</ele>
<time>2015-04-26T14:36:03Z</time>
</trkpt>
<trkpt lat="35.0926968" lon="32.4960548">
<ele>17.83</ele>
<time>2015-04-26T14:36:04Z</time>
</trkpt>
<trkpt lat="35.0926538" lon="32.4960230">
<ele>17.88</ele>
<time>2015-04-26T14:36:05Z</time>
</trkpt>
<trkpt lat="35.0926127" lon="32.4959953">
<ele>17.90</ele>
<time>2015-04-26T14:36:06Z</time>
</trkpt>
<trkpt lat="35.0925704" lon="32.4959618">
<ele>17.41</ele>
<time>2015-04-26T14:36:07Z</time>
</trkpt>
<trkpt lat="35.0925336" lon="32.4959222">
<ele>17.17</ele>
<time>2015-04-26T14:36:08Z</time>
</trkpt>
<trkpt lat="35.0924614" lon="32.4958544">
<ele>17.74</ele>
<time>2015-04-26T14:36:10Z</time>
</trkpt>
<trkpt lat="35.0924195" lon="32.4958248">
<ele>17.83</ele>
<time>2015-04-26T14:36:11Z</time>
</trkpt>
<trkpt lat="35.0923819" lon="32.4957941">
<ele>17.88</ele>
<time>2015-04-26T14:36:12Z</time>
</trkpt>
<trkpt lat="35.0923453" lon="32.4957566">
<ele>17.90</ele>
<time>2015-04-26T14:36:13Z</time>
</trkpt>
<trkpt lat="35.0922742" lon="32.4956911">
<ele>17.92</ele>
<time>2015-04-26T14:36:15Z</time>
</trkpt>
<trkpt lat="35.0922018" lon="32.4956336">
<ele>17.92</ele>
<time>2015-04-26T14:36:17Z</time>
</trkpt>
<trkpt lat="35.0921319" lon="32.4955863">
<ele>18.42</ele>
<time>2015-04-26T14:36:19Z</time>
</trkpt>
<trkpt lat="35.0920763" lon="32.4955351">
<ele>18.05</ele>
<time>2015-04-26T14:36:21Z</time>
</trkpt>
<trkpt lat="35.0920104" lon="32.4954902">
<ele>17.96</ele>
<time>2015-04-26T14:36:23Z</time>
</trkpt>
<trkpt lat="35.0919608" lon="32.4954331">
<ele>17.93</ele>
<time>2015-04-26T14:36:25Z</time>
</trkpt>
<trkpt lat="35.0919134" lon="32.4953781">
<ele>17.18</ele>
<time>2015-04-26T14:36:27Z</time>
</trkpt>
<trkpt lat="35.0918572" lon="32.4953329">
<ele>16.99</ele>
<time>2015-04-26T14:36:29Z</time>
</trkpt>
<trkpt lat="35.0918012" lon="32.4952905">
<ele>16.94</ele>
<time>2015-04-26T14:36:31Z</time>
</trkpt>
<trkpt lat="35.0917483" lon="32.4952451">
<ele>16.93</ele>
<time>2015-04-26T14:36:33Z</time>
</trkpt>
<trkpt lat="35.0916939" lon="32.4951930">
<ele>16.93</ele>
<time>2015-04-26T14:36:35Z</time>
</trkpt>
<trkpt lat="35.0916203" lon="32.4951253">
<ele>17.43</ele>
<time>2015-04-26T14:36:37Z</time>
</trkpt>
<trkpt lat="35.0915821" lon="32.4950916">
<ele>17.68</ele>
<time>2015-04-26T14:36:38Z</time>
</trkpt>
<trkpt lat="35.0915108" lon="32.4950305">
<ele>17.86</ele>
<time>2015-04-26T14:36:40Z</time>
</trkpt>
<trkpt lat="35.0914712" lon="32.4949974">
<ele>17.89</ele>
<time>2015-04-26T14:36:41Z</time>
</trkpt>
<trkpt lat="35.0914288" lon="32.4949720">
<ele>18.41</ele>
<time>2015-04-26T14:36:42Z</time>
</trkpt>
<trkpt lat="35.0913923" lon="32.4949354">
<ele>18.67</ele>
<time>2015-04-26T14:36:43Z</time>
</trkpt>
<trkpt lat="35.0913243" lon="32.4948705">
<ele>18.86</ele>
<time>2015-04-26T14:36:45Z</time>
</trkpt>
<trkpt lat="35.0912887" lon="32.4948355">
<ele>18.89</ele>
<time>2015-04-26T14:36:46Z</time>
</trkpt>
<trkpt lat="35.0912106" lon="32.4947835">
<ele>18.92</ele>
<time>2015-04-26T14:36:48Z</time>
</trkpt>
<trkpt lat="35.0911752" lon="32.4947473">
<ele>19.42</ele>
<time>2015-04-26T14:36:49Z</time>
</trkpt>
<trkpt lat="35.0911026" lon="32.4946802">
<ele>19.80</ele>
<time>2015-04-26T14:36:51Z</time>
</trkpt>
<trkpt lat="35.0910321" lon="32.4946168">
<ele>19.89</ele>
<time>2015-04-26T14:36:53Z</time>
</trkpt>
<trkpt lat="35.0909934" lon="32.4945814">
<ele>19.91</ele>
<time>2015-04-26T14:36:54Z</time>
</trkpt>
<trkpt lat="35.0909673" lon="32.4945313">
<ele>19.92</ele>
<time>2015-04-26T14:36:55Z</time>
</trkpt>
<trkpt lat="35.0908992" lon="32.4944714">
<ele>19.92</ele>
<time>2015-04-26T14:36:57Z</time>
</trkpt>
<trkpt lat="35.0908356" lon="32.4944156">
<ele>19.92</ele>
<time>2015-04-26T14:36:59Z</time>
</trkpt>
<trkpt lat="35.0907829" lon="32.4943559">
<ele>19.42</ele>
<time>2015-04-26T14:37:01Z</time>
</trkpt>
<trkpt lat="35.0907358" lon="32.4943054">
<ele>19.05</ele>
<time>2015-04-26T14:37:03Z</time>
</trkpt>
<trkpt lat="35.0906924" lon="32.4942727">
<ele>18.21</ele>
<time>2015-04-26T14:37:05Z</time>
</trkpt>
<trkpt lat="35.0906452" lon="32.4942382">
<ele>18.00</ele>
<time>2015-04-26T14:37:07Z</time>
</trkpt>
<trkpt lat="35.0906025" lon="32.4942107">
<ele>18.69</ele>
<time>2015-04-26T14:37:09Z</time>
</trkpt>
<trkpt lat="35.0905604" lon="32.4941798">
<ele>18.87</ele>
<time>2015-04-26T14:37:11Z</time>
</trkpt>
<trkpt lat="35.0905162" lon="32.4941333">
<ele>19.41</ele>
<time>2015-04-26T14:37:13Z</time>
</trkpt>
<trkpt lat="35.0904679" lon="32.4940791">
<ele>18.55</ele>
<time>2015-04-26T14:37:15Z</time>
</trkpt>
<trkpt lat="35.0904180" lon="32.4940239">
<ele>18.58</ele>
<time>2015-04-26T14:37:17Z</time>
</trkpt>
<trkpt lat="35.0903677" lon="32.4939765">
<ele>18.84</ele>
<time>2015-04-26T14:37:19Z</time>
</trkpt>
<trkpt lat="35.0903188" lon="32.4939387">
<ele>18.40</ele>
<time>2015-04-26T14:37:21Z</time>
</trkpt>
<trkpt lat="35.0902660" lon="32.4938991">
<ele>18.79</ele>
<time>2015-04-26T14:37:23Z</time>
</trkpt>
<trkpt lat="35.0902142" lon="32.4938480">
<ele>18.39</ele>
<time>2015-04-26T14:37:25Z</time>
</trkpt>
<trkpt lat="35.0901592" lon="32.4937937">
<ele>18.04</ele>
<time>2015-04-26T14:37:27Z</time>
</trkpt>
<trkpt lat="35.0901006" lon="32.4937375">
<ele>17.95</ele>
<time>2015-04-26T14:37:29Z</time>
</trkpt>
<trkpt lat="35.0900395" lon="32.4936802">
<ele>18.68</ele>
<time>2015-04-26T14:37:31Z</time>
</trkpt>
<trkpt lat="35.0899822" lon="32.4936219">
<ele>18.86</ele>
<time>2015-04-26T14:37:33Z</time>
</trkpt>
<trkpt lat="35.0899251" lon="32.4935636">
<ele>18.41</ele>
<time>2015-04-26T14:37:35Z</time>
</trkpt>
<trkpt lat="35.0898694" lon="32.4935066">
<ele>18.05</ele>
<time>2015-04-26T14:37:37Z</time>
</trkpt>
<trkpt lat="35.0898168" lon="32.4934539">
<ele>17.96</ele>
<time>2015-04-26T14:37:39Z</time>
</trkpt>
<trkpt lat="35.0897645" lon="32.4934057">
<ele>17.93</ele>
<time>2015-04-26T14:37:41Z</time>
</trkpt>
<trkpt lat="35.0897094" lon="32.4933623">
<ele>17.93</ele>
<time>2015-04-26T14:37:43Z</time>
</trkpt>
<trkpt lat="35.0896538" lon="32.4933143">
<ele>17.43</ele>
<time>2015-04-26T14:37:45Z</time>
</trkpt>
<trkpt lat="35.0895994" lon="32.4932608">
<ele>17.05</ele>
<time>2015-04-26T14:37:47Z</time>
</trkpt>
<trkpt lat="35.0895412" lon="32.4932015">
<ele>16.96</ele>
<time>2015-04-26T14:37:49Z</time>
</trkpt>
<trkpt lat="35.0894898" lon="32.4931459">
<ele>16.94</ele>
<time>2015-04-26T14:37:50Z</time>
</trkpt>
<trkpt lat="35.0894524" lon="32.4931094">
<ele>17.43</ele>
<time>2015-04-26T14:37:51Z</time>
</trkpt>
<trkpt lat="35.0894026" lon="32.4930725">
<ele>17.18</ele>
<time>2015-04-26T14:37:52Z</time>
</trkpt>
<trkpt lat="35.0893630" lon="32.4930440">
<ele>17.05</ele>
<time>2015-04-26T14:37:53Z</time>
</trkpt>
<trkpt lat="35.0893194" lon="32.4930121">
<ele>17.49</ele>
<time>2015-04-26T14:37:54Z</time>
</trkpt>
<trkpt lat="35.0892501" lon="32.4929438">
<ele>17.07</ele>
<time>2015-04-26T14:37:56Z</time>
</trkpt>
<trkpt lat="35.0892098" lon="32.4928986">
<ele>17.00</ele>
<time>2015-04-26T14:37:57Z</time>
</trkpt>
<trkpt lat="35.0891704" lon="32.4928572">
<ele>16.96</ele>
<time>2015-04-26T14:37:58Z</time>
</trkpt>
<trkpt lat="35.0891293" lon="32.4928186">
<ele>16.94</ele>
<time>2015-04-26T14:37:59Z</time>
</trkpt>
<trkpt lat="35.0890897" lon="32.4927897">
<ele>16.93</ele>
<time>2015-04-26T14:38:00Z</time>
</trkpt>
<trkpt lat="35.0890470" lon="32.4927536">
<ele>16.93</ele>
<time>2015-04-26T14:38:01Z</time>
</trkpt>
<trkpt lat="35.0890082" lon="32.4927201">
<ele>16.93</ele>
<time>2015-04-26T14:38:02Z</time>
</trkpt>
<trkpt lat="35.0889660" lon="32.4926862">
<ele>16.93</ele>
<time>2015-04-26T14:38:03Z</time>
</trkpt>
<trkpt lat="35.0889294" lon="32.4926468">
<ele>16.93</ele>
<time>2015-04-26T14:38:04Z</time>
</trkpt>
<trkpt lat="35.0888875" lon="32.4926096">
<ele>16.43</ele>
<time>2015-04-26T14:38:05Z</time>
</trkpt>
<trkpt lat="35.0888465" lon="32.4925684">
<ele>16.18</ele>
<time>2015-04-26T14:38:06Z</time>
</trkpt>
<trkpt lat="35.0888065" lon="32.4925354">
<ele>16.05</ele>
<time>2015-04-26T14:38:07Z</time>
</trkpt>
<trkpt lat="35.0887605" lon="32.4924878">
<ele>15.99</ele>
<time>2015-04-26T14:38:08Z</time>
</trkpt>
<trkpt lat="35.0887172" lon="32.4924448">
<ele>16.46</ele>
<time>2015-04-26T14:38:09Z</time>
</trkpt>
<trkpt lat="35.0886713" lon="32.4924003">
<ele>16.69</ele>
<time>2015-04-26T14:38:10Z</time>
</trkpt>
<trkpt lat="35.0886259" lon="32.4923705">
<ele>16.81</ele>
<time>2015-04-26T14:38:11Z</time>
</trkpt>
<trkpt lat="35.0885827" lon="32.4923341">
<ele>16.87</ele>
<time>2015-04-26T14:38:12Z</time>
</trkpt>
<trkpt lat="35.0885043" lon="32.4922770">
<ele>16.91</ele>
<time>2015-04-26T14:38:14Z</time>
</trkpt>
<trkpt lat="35.0884634" lon="32.4922382">
<ele>16.92</ele>
<time>2015-04-26T14:38:15Z</time>
</trkpt>
<trkpt lat="35.0884216" lon="32.4922111">
<ele>16.42</ele>
<time>2015-04-26T14:38:16Z</time>
</trkpt>
<trkpt lat="35.0883738" lon="32.4921722">
<ele>16.17</ele>
<time>2015-04-26T14:38:17Z</time>
</trkpt>
<trkpt lat="35.0883332" lon="32.4921326">
<ele>16.05</ele>
<time>2015-04-26T14:38:18Z</time>
</trkpt>
<trkpt lat="35.0882836" lon="32.4920997">
<ele>15.99</ele>
<time>2015-04-26T14:38:19Z</time>
</trkpt>
<trkpt lat="35.0882432" lon="32.4920593">
<ele>15.96</ele>
<time>2015-04-26T14:38:20Z</time>
</trkpt>
<trkpt lat="35.0881950" lon="32.4920286">
<ele>15.94</ele>
<time>2015-04-26T14:38:21Z</time>
</trkpt>
<trkpt lat="35.0881452" lon="32.4919931">
<ele>15.93</ele>
<time>2015-04-26T14:38:22Z</time>
</trkpt>
<trkpt lat="35.0880938" lon="32.4919612">
<ele>15.93</ele>
<time>2015-04-26T14:38:23Z</time>
</trkpt>
<trkpt lat="35.0880372" lon="32.4919293">
<ele>15.93</ele>
<time>2015-04-26T14:38:24Z</time>
</trkpt>
<trkpt lat="35.0879779" lon="32.4918868">
<ele>16.43</ele>
<time>2015-04-26T14:38:25Z</time>
</trkpt>
<trkpt lat="35.0879272" lon="32.4918553">
<ele>16.18</ele>
<time>2015-04-26T14:38:26Z</time>
</trkpt>
<trkpt lat="35.0878771" lon="32.4918155">
<ele>16.55</ele>
<time>2015-04-26T14:38:27Z</time>
</trkpt>
<trkpt lat="35.0878228" lon="32.4917785">
<ele>16.74</ele>
<time>2015-04-26T14:38:28Z</time>
</trkpt>
<trkpt lat="35.0877698" lon="32.4917395">
<ele>16.83</ele>
<time>2015-04-26T14:38:29Z</time>
</trkpt>
<trkpt lat="35.0877195" lon="32.4916958">
<ele>17.38</ele>
<time>2015-04-26T14:38:30Z</time>
</trkpt>
<trkpt lat="35.0876632" lon="32.4916607">
<ele>17.65</ele>
<time>2015-04-26T14:38:31Z</time>
</trkpt>
<trkpt lat="35.0876102" lon="32.4916236">
<ele>18.29</ele>
<time>2015-04-26T14:38:32Z</time>
</trkpt>
<trkpt lat="35.0875610" lon="32.4915890">
<ele>18.11</ele>
<time>2015-04-26T14:38:33Z</time>
</trkpt>
<trkpt lat="35.0875071" lon="32.4915454">
<ele>18.02</ele>
<time>2015-04-26T14:38:34Z</time>
</trkpt>
<trkpt lat="35.0874618" lon="32.4915120">
<ele>17.97</ele>
<time>2015-04-26T14:38:35Z</time>
</trkpt>
<trkpt lat="35.0874146" lon="32.4914722">
<ele>17.95</ele>
<time>2015-04-26T14:38:36Z</time>
</trkpt>
<trkpt lat="35.0873581" lon="32.4914329">
<ele>17.94</ele>
<time>2015-04-26T14:38:37Z</time>
</trkpt>
<trkpt lat="35.0873125" lon="32.4913956">
<ele>17.93</ele>
<time>2015-04-26T14:38:38Z</time>
</trkpt>
<trkpt lat="35.0872661" lon="32.4913593">
<ele>18.43</ele>
<time>2015-04-26T14:38:39Z</time>
</trkpt>
<trkpt lat="35.0872224" lon="32.4913295">
<ele>18.68</ele>
<time>2015-04-26T14:38:40Z</time>
</trkpt>
<trkpt lat="35.0871763" lon="32.4912910">
<ele>18.30</ele>
<time>2015-04-26T14:38:41Z</time>
</trkpt>
<trkpt lat="35.0871306" lon="32.4912596">
<ele>18.11</ele>
<time>2015-04-26T14:38:42Z</time>
</trkpt>
<trkpt lat="35.0870874" lon="32.4912271">
<ele>18.52</ele>
<time>2015-04-26T14:38:43Z</time>
</trkpt>
<trkpt lat="35.0870385" lon="32.4911893">
<ele>18.72</ele>
<time>2015-04-26T14:38:44Z</time>
</trkpt>
<trkpt lat="35.0869854" lon="32.4911541">
<ele>18.32</ele>
<time>2015-04-26T14:38:45Z</time>
</trkpt>
<trkpt lat="35.0869462" lon="32.4911107">
<ele>18.12</ele>
<time>2015-04-26T14:38:46Z</time>
</trkpt>
<trkpt lat="35.0868984" lon="32.4910850">
<ele>18.52</ele>
<time>2015-04-26T14:38:47Z</time>
</trkpt>
<trkpt lat="35.0868442" lon="32.4910468">
<ele>18.72</ele>
<time>2015-04-26T14:38:48Z</time>
</trkpt>
<trkpt lat="35.0867896" lon="32.4910081">
<ele>18.82</ele>
<time>2015-04-26T14:38:49Z</time>
</trkpt>
<trkpt lat="35.0867447" lon="32.4909675">
<ele>18.37</ele>
<time>2015-04-26T14:38:50Z</time>
</trkpt>
<trkpt lat="35.0866918" lon="32.4909315">
<ele>18.65</ele>
<time>2015-04-26T14:38:51Z</time>
</trkpt>
<trkpt lat="35.0866523" lon="32.4908900">
<ele>18.29</ele>
<time>2015-04-26T14:38:52Z</time>
</trkpt>
<trkpt lat="35.0865992" lon="32.4908592">
<ele>18.11</ele>
<time>2015-04-26T14:38:53Z</time>
</trkpt>
<trkpt lat="35.0865547" lon="32.4908310">
<ele>18.02</ele>
<time>2015-04-26T14:38:54Z</time>
</trkpt>
<trkpt lat="35.0865084" lon="32.4907934">
<ele>17.47</ele>
<time>2015-04-26T14:38:55Z</time>
</trkpt>
<trkpt lat="35.0864688" lon="32.4907639">
<ele>17.20</ele>
<time>2015-04-26T14:38:56Z</time>
</trkpt>
<trkpt lat="35.0864262" lon="32.4907221">
<ele>17.06</ele>
<time>2015-04-26T14:38:57Z</time>
</trkpt>
<trkpt lat="35.0863837" lon="32.4906823">
<ele>16.49</ele>
<time>2015-04-26T14:38:58Z</time>
</trkpt>
<trkpt lat="35.0863397" lon="32.4906463">
<ele>16.21</ele>
<time>2015-04-26T14:38:59Z</time>
</trkpt>
<trkpt lat="35.0862952" lon="32.4906003">
<ele>16.07</ele>
<time>2015-04-26T14:39:00Z</time>
</trkpt>
<trkpt lat="35.0862445" lon="32.4905589">
<ele>16.00</ele>
<time>2015-04-26T14:39:01Z</time>
</trkpt>
<trkpt lat="35.0861949" lon="32.4905173">
<ele>15.46</ele>
<time>2015-04-26T14:39:02Z</time>
</trkpt>
<trkpt lat="35.0861501" lon="32.4904859">
<ele>15.69</ele>
<time>2015-04-26T14:39:03Z</time>
</trkpt>
<trkpt lat="35.0861130" lon="32.4904398">
<ele>15.81</ele>
<time>2015-04-26T14:39:04Z</time>
</trkpt>
<trkpt lat="35.0860680" lon="32.4904011">
<ele>15.87</ele>
<time>2015-04-26T14:39:05Z</time>
</trkpt>
<trkpt lat="35.0860256" lon="32.4903507">
<ele>15.90</ele>
<time>2015-04-26T14:39:06Z</time>
</trkpt>
<trkpt lat="35.0859851" lon="32.4903132">
<ele>15.91</ele>
<time>2015-04-26T14:39:07Z</time>
</trkpt>
<trkpt lat="35.0859432" lon="32.4902779">
<ele>15.92</ele>
<time>2015-04-26T14:39:08Z</time>
</trkpt>
<trkpt lat="35.0859022" lon="32.4902404">
<ele>16.42</ele>
<time>2015-04-26T14:39:09Z</time>
</trkpt>
<trkpt lat="35.0858672" lon="32.4901920">
<ele>17.17</ele>
<time>2015-04-26T14:39:10Z</time>
</trkpt>
<trkpt lat="35.0858232" lon="32.4901526">
<ele>17.05</ele>
<time>2015-04-26T14:39:11Z</time>
</trkpt>
<trkpt lat="35.0857878" lon="32.4901165">
<ele>17.49</ele>
<time>2015-04-26T14:39:12Z</time>
</trkpt>
<trkpt lat="35.0857189" lon="32.4900647">
<ele>17.07</ele>
<time>2015-04-26T14:39:14Z</time>
</trkpt>
<trkpt lat="35.0856425" lon="32.4900000">
<ele>17.46</ele>
<time>2015-04-26T14:39:16Z</time>
</trkpt>
<trkpt lat="35.0856033" lon="32.4899700">
<ele>17.69</ele>
<time>2015-04-26T14:39:17Z</time>
</trkpt>
<trkpt lat="35.0855296" lon="32.4899092">
<ele>17.87</ele>
<time>2015-04-26T14:39:19Z</time>
</trkpt>
<trkpt lat="35.0854650" lon="32.4898379">
<ele>17.91</ele>
<time>2015-04-26T14:39:21Z</time>
</trkpt>
<trkpt lat="35.0854280" lon="32.4898014">
<ele>17.92</ele>
<time>2015-04-26T14:39:22Z</time>
</trkpt>
<trkpt lat="35.0853858" lon="32.4897687">
<ele>18.42</ele>
<time>2015-04-26T14:39:23Z</time>
</trkpt>
<trkpt lat="35.0853164" lon="32.4896977">
<ele>18.05</ele>
<time>2015-04-26T14:39:25Z</time>
</trkpt>
<trkpt lat="35.0852745" lon="32.4896535">
<ele>17.99</ele>
<time>2015-04-26T14:39:26Z</time>
</trkpt>
<trkpt lat="35.0852309" lon="32.4896213">
<ele>18.46</ele>
<time>2015-04-26T14:39:27Z</time>
</trkpt>
<trkpt lat="35.0851582" lon="32.4895550">
<ele>18.06</ele>
<time>2015-04-26T14:39:29Z</time>
</trkpt>
<trkpt lat="35.0850945" lon="32.4894742">
<ele>17.46</ele>
<time>2015-04-26T14:39:31Z</time>
</trkpt>
<trkpt lat="35.0850564" lon="32.4894345">
<ele>17.19</ele>
<time>2015-04-26T14:39:32Z</time>
</trkpt>
<trkpt lat="35.0850164" lon="32.4893938">
<ele>16.56</ele>
<time>2015-04-26T14:39:33Z</time>
</trkpt>
<trkpt lat="35.0849683" lon="32.4893542">
<ele>16.74</ele>
<time>2015-04-26T14:39:34Z</time>
</trkpt>
<trkpt lat="35.0849186" lon="32.4893134">
<ele>16.83</ele>
<time>2015-04-26T14:39:35Z</time>
</trkpt>
<trkpt lat="35.0848710" lon="32.4892747">
<ele>16.88</ele>
<time>2015-04-26T14:39:36Z</time>
</trkpt>
<trkpt lat="35.0848307" lon="32.4892381">
<ele>16.90</ele>
<time>2015-04-26T14:39:37Z</time>
</trkpt>
<trkpt lat="35.0847926" lon="32.4892060">
<ele>16.91</ele>
<time>2015-04-26T14:39:38Z</time>
</trkpt>
<trkpt lat="35.0847451" lon="32.4891779">
<ele>16.92</ele>
<time>2015-04-26T14:39:39Z</time>
</trkpt>
<trkpt lat="35.0846707" lon="32.4890984">
<ele>16.42</ele>
<time>2015-04-26T14:39:41Z</time>
</trkpt>
<trkpt lat="35.0846269" lon="32.4890635">
<ele>16.17</ele>
<time>2015-04-26T14:39:42Z</time>
</trkpt>
<trkpt lat="35.0845837" lon="32.4890320">
<ele>16.05</ele>
<time>2015-04-26T14:39:43Z</time>
</trkpt>
<trkpt lat="35.0845340" lon="32.4889940">
<ele>15.99</ele>
<time>2015-04-26T14:39:44Z</time>
</trkpt>
<trkpt lat="35.0844949" lon="32.4889521">
<ele>15.96</ele>
<time>2015-04-26T14:39:45Z</time>
</trkpt>
<trkpt lat="35.0844529" lon="32.4889145">
<ele>16.44</ele>
<time>2015-04-26T14:39:46Z</time>
</trkpt>
<trkpt lat="35.0844065" lon="32.4888816">
<ele>17.18</ele>
<time>2015-04-26T14:39:47Z</time>
</trkpt>
<trkpt lat="35.0843647" lon="32.4888468">
<ele>17.55</ele>
<time>2015-04-26T14:39:48Z</time>
</trkpt>
<trkpt lat="35.0843239" lon="32.4888199">
<ele>17.74</ele>
<time>2015-04-26T14:39:49Z</time>
</trkpt>
<trkpt lat="35.0842815" lon="32.4887879">
<ele>17.83</ele>
<time>2015-04-26T14:39:50Z</time>
</trkpt>
<trkpt lat="35.0842389" lon="32.4887439">
<ele>17.88</ele>
<time>2015-04-26T14:39:51Z</time>
</trkpt>
<trkpt lat="35.0842011" lon="32.4887052">
<ele>18.40</ele>
<time>2015-04-26T14:39:52Z</time>
</trkpt>
<trkpt lat="35.0841546" lon="32.4886711">
<ele>18.66</ele>
<time>2015-04-26T14:39:53Z</time>
</trkpt>
<trkpt lat="35.0841113" lon="32.4886383">
<ele>18.79</ele>
<time>2015-04-26T14:39:54Z</time>
</trkpt>
<trkpt lat="35.0840653" lon="32.4886052">
<ele>18.86</ele>
<time>2015-04-26T14:39:55Z</time>
</trkpt>
<trkpt lat="35.0840285" lon="32.4885676">
<ele>18.89</ele>
<time>2015-04-26T14:39:56Z</time>
</trkpt>
<trkpt lat="35.0839816" lon="32.4885401">
<ele>18.91</ele>
<time>2015-04-26T14:39:57Z</time>
</trkpt>
<trkpt lat="35.0839008" lon="32.4884720">
<ele>18.17</ele>
<time>2015-04-26T14:39:59Z</time>
</trkpt>
<trkpt lat="35.0838172" lon="32.4884052">
<ele>17.74</ele>
<time>2015-04-26T14:40:01Z</time>
</trkpt>
<trkpt lat="35.0837820" lon="32.4883623">
<ele>17.33</ele>
<time>2015-04-26T14:40:02Z</time>
</trkpt>
<trkpt lat="35.0837409" lon="32.4883292">
<ele>17.13</ele>
<time>2015-04-26T14:40:03Z</time>
</trkpt>
<trkpt lat="35.0836620" lon="32.4882718">
<ele>17.23</ele>
<time>2015-04-26T14:40:05Z</time>
</trkpt>
<trkpt lat="35.0836161" lon="32.4882383">
<ele>17.58</ele>
<time>2015-04-26T14:40:06Z</time>
</trkpt>
<trkpt lat="35.0835688" lon="32.4881989">
<ele>18.25</ele>
<time>2015-04-26T14:40:07Z</time>
</trkpt>
<trkpt lat="35.0835284" lon="32.4881584">
<ele>18.09</ele>
<time>2015-04-26T14:40:08Z</time>
</trkpt>
<trkpt lat="35.0834814" lon="32.4881281">
<ele>18.01</ele>
<time>2015-04-26T14:40:09Z</time>
</trkpt>
<trkpt lat="35.0834335" lon="32.4881044">
<ele>17.97</ele>
<time>2015-04-26T14:40:10Z</time>
</trkpt>
<trkpt lat="35.0833908" lon="32.4880709">
<ele>17.95</ele>
<time>2015-04-26T14:40:11Z</time>
</trkpt>
<trkpt lat="35.0833509" lon="32.4880357">
<ele>17.94</ele>
<time>2015-04-26T14:40:12Z</time>
</trkpt>
<trkpt lat="35.0833069" lon="32.4879926">
<ele>17.93</ele>
<time>2015-04-26T14:40:13Z</time>
</trkpt>
<trkpt lat="35.0832635" lon="32.4879530">
<ele>18.93</ele>
<time>2015-04-26T14:40:14Z</time>
</trkpt>
<trkpt lat="35.0832172" lon="32.4879225">
<ele>19.43</ele>
<time>2015-04-26T14:40:15Z</time>
</trkpt>
<trkpt lat="35.0831668" lon="32.4878848">
<ele>19.68</ele>
<time>2015-04-26T14:40:16Z</time>
</trkpt>
<trkpt lat="35.0831204" lon="32.4878542">
<ele>19.30</ele>
<time>2015-04-26T14:40:17Z</time>
</trkpt>
<trkpt lat="35.0830736" lon="32.4878202">
<ele>19.61</ele>
<time>2015-04-26T14:40:18Z</time>
</trkpt>
<trkpt lat="35.0830302" lon="32.4877856">
<ele>19.77</ele>
<time>2015-04-26T14:40:19Z</time>
</trkpt>
<trkpt lat="35.0829924" lon="32.4877518">
<ele>19.35</ele>
<time>2015-04-26T14:40:20Z</time>
</trkpt>
<trkpt lat="35.0829459" lon="32.4877125">
<ele>19.64</ele>
<time>2015-04-26T14:40:21Z</time>
</trkpt>
<trkpt lat="35.0829062" lon="32.4876728">
<ele>19.78</ele>
<time>2015-04-26T14:40:22Z</time>
</trkpt>
<trkpt lat="35.0828712" lon="32.4876355">
<ele>19.85</ele>
<time>2015-04-26T14:40:23Z</time>
</trkpt>
<trkpt lat="35.0828261" lon="32.4876026">
<ele>19.39</ele>
<time>2015-04-26T14:40:24Z</time>
</trkpt>
<trkpt lat="35.0827524" lon="32.4875442">
<ele>19.04</ele>
<time>2015-04-26T14:40:26Z</time>
</trkpt>
<trkpt lat="35.0827132" lon="32.4875155">
<ele>18.48</ele>
<time>2015-04-26T14:40:27Z</time>
</trkpt>
<trkpt lat="35.0826380" lon="32.4874493">
<ele>18.06</ele>
<time>2015-04-26T14:40:29Z</time>
</trkpt>
<trkpt lat="35.0826032" lon="32.4874145">
<ele>17.99</ele>
<time>2015-04-26T14:40:30Z</time>
</trkpt>
<trkpt lat="35.0825282" lon="32.4873459">
<ele>17.94</ele>
<time>2015-04-26T14:40:32Z</time>
</trkpt>
<trkpt lat="35.0824581" lon="32.4872821">
<ele>17.93</ele>
<time>2015-04-26T14:40:34Z</time>
</trkpt>
<trkpt lat="35.0824218" lon="32.4872454">
<ele>17.93</ele>
<time>2015-04-26T14:40:35Z</time>
</trkpt>
<trkpt lat="35.0823868" lon="32.4871998">
<ele>17.93</ele>
<time>2015-04-26T14:40:36Z</time>
</trkpt>
<trkpt lat="35.0823130" lon="32.4871318">
<ele>17.93</ele>
<time>2015-04-26T14:40:38Z</time>
</trkpt>
<trkpt lat="35.0822489" lon="32.4870755">
<ele>17.43</ele>
<time>2015-04-26T14:40:40Z</time>
</trkpt>
<trkpt lat="35.0822109" lon="32.4870457">
<ele>17.68</ele>
<time>2015-04-26T14:40:41Z</time>
</trkpt>
<trkpt lat="35.0821756" lon="32.4870023">
<ele>17.80</ele>
<time>2015-04-26T14:40:42Z</time>
</trkpt>
<trkpt lat="35.0821308" lon="32.4869716">
<ele>17.86</ele>
<time>2015-04-26T14:40:43Z</time>
</trkpt>
<trkpt lat="35.0820909" lon="32.4869424">
<ele>17.89</ele>
<time>2015-04-26T14:40:44Z</time>
</trkpt>
<trkpt lat="35.0820448" lon="32.4869082">
<ele>17.91</ele>
<time>2015-04-26T14:40:45Z</time>
</trkpt>
<trkpt lat="35.0820038" lon="32.4868701">
<ele>17.42</ele>
<time>2015-04-26T14:40:46Z</time>
</trkpt>
<trkpt lat="35.0819620" lon="32.4868364">
<ele>17.17</ele>
<time>2015-04-26T14:40:47Z</time>
</trkpt>
<trkpt lat="35.0819235" lon="32.4868053">
<ele>17.05</ele>
<time>2015-04-26T14:40:48Z</time>
</trkpt>
<trkpt lat="35.0818900" lon="32.4867662">
<ele>16.99</ele>
<time>2015-04-26T14:40:49Z</time>
</trkpt>
<trkpt lat="35.0818491" lon="32.4867337">
<ele>16.46</ele>
<time>2015-04-26T14:40:50Z</time>
</trkpt>
<trkpt lat="35.0818135" lon="32.4866959">
<ele>16.69</ele>
<time>2015-04-26T14:40:51Z</time>
</trkpt>
<trkpt lat="35.0817487" lon="32.4866321">
<ele>16.87</ele>
<time>2015-04-26T14:40:53Z</time>
</trkpt>
<trkpt lat="35.0816763" lon="32.4865722">
<ele>16.91</ele>
<time>2015-04-26T14:40:55Z</time>
</trkpt>
<trkpt lat="35.0816097" lon="32.4865104">
<ele>17.42</ele>
<time>2015-04-26T14:40:57Z</time>
</trkpt>
<trkpt lat="35.0815436" lon="32.4864544">
<ele>18.55</ele>
<time>2015-04-26T14:40:59Z</time>
</trkpt>
<trkpt lat="35.0814918" lon="32.4864015">
<ele>18.08</ele>
<time>2015-04-26T14:41:01Z</time>
</trkpt>
<trkpt lat="35.0814320" lon="32.4863540">
<ele>17.46</ele>
<time>2015-04-26T14:41:03Z</time>
</trkpt>
<trkpt lat="35.0813739" lon="32.4862949">
<ele>17.56</ele>
<time>2015-04-26T14:41:05Z</time>
</trkpt>
<trkpt lat="35.0813095" lon="32.4862323">
<ele>17.83</ele>
<time>2015-04-26T14:41:07Z</time>
</trkpt>
<trkpt lat="35.0812446" lon="32.4861692">
<ele>17.90</ele>
<time>2015-04-26T14:41:09Z</time>
</trkpt>
<trkpt lat="35.0811798" lon="32.4861120">
<ele>17.92</ele>
<time>2015-04-26T14:41:11Z</time>
</trkpt>
<trkpt lat="35.0811203" lon="32.4860533">
<ele>17.92</ele>
<time>2015-04-26T14:41:13Z</time>
</trkpt>
<trkpt lat="35.0810626" lon="32.4859973">
<ele>17.92</ele>
<time>2015-04-26T14:41:15Z</time>
</trkpt>
<trkpt lat="35.0810000" lon="32.4859471">
<ele>17.92</ele>
<time>2015-04-26T14:41:17Z</time>
</trkpt>
<trkpt lat="35.0809382" lon="32.4858932">
<ele>18.67</ele>
<time>2015-04-26T14:41:19Z</time>
</trkpt>
<trkpt lat="35.0808797" lon="32.4858392">
<ele>18.86</ele>
<time>2015-04-26T14:41:21Z</time>
</trkpt>
<trkpt lat="35.0808232" lon="32.4857815">
<ele>18.91</ele>
<time>2015-04-26T14:41:23Z</time>
</trkpt>
<trkpt lat="35.0807659" lon="32.4857226">
<ele>18.42</ele>
<time>2015-04-26T14:41:25Z</time>
</trkpt>
<trkpt lat="35.0807057" lon="32.4856648">
<ele>18.55</ele>
<time>2015-04-26T14:41:27Z</time>
</trkpt>
<trkpt lat="35.0806445" lon="32.4855990">
<ele>18.33</ele>
<time>2015-04-26T14:41:29Z</time>
</trkpt>
<trkpt lat="35.0805832" lon="32.4855330">
<ele>19.28</ele>
<time>2015-04-26T14:41:31Z</time>
</trkpt>
<trkpt lat="35.0805207" lon="32.4854725">
<ele>19.01</ele>
<time>2015-04-26T14:41:33Z</time>
</trkpt>
<trkpt lat="35.0804564" lon="32.4854118">
<ele>18.95</ele>
<time>2015-04-26T14:41:35Z</time>
</trkpt>
<trkpt lat="35.0804092" lon="32.4853748">
<ele>18.94</ele>
<time>2015-04-26T14:41:36Z</time>
</trkpt>
<trkpt lat="35.0803421" lon="32.4853235">
<ele>18.18</ele>
<time>2015-04-26T14:41:38Z</time>
</trkpt>
<trkpt lat="35.0802778" lon="32.4852653">
<ele>18.49</ele>
<time>2015-04-26T14:41:40Z</time>
</trkpt>
<trkpt lat="35.0802193" lon="32.4852185">
<ele>17.57</ele>
<time>2015-04-26T14:41:42Z</time>
</trkpt>
<trkpt lat="35.0801688" lon="32.4851560">
<ele>17.34</ele>
<time>2015-04-26T14:41:44Z</time>
</trkpt>
<trkpt lat="35.0801102" lon="32.4851057">
<ele>17.78</ele>
<time>2015-04-26T14:41:46Z</time>
</trkpt>
<trkpt lat="35.0800475" lon="32.4850565">
<ele>17.89</ele>
<time>2015-04-26T14:41:48Z</time>
</trkpt>
<trkpt lat="35.0799746" lon="32.4849918">
<ele>17.92</ele>
<time>2015-04-26T14:41:50Z</time>
</trkpt>
<trkpt lat="35.0799100" lon="32.4849328">
<ele>17.92</ele>
<time>2015-04-26T14:41:52Z</time>
</trkpt>
<trkpt lat="35.0798521" lon="32.4848747">
<ele>17.92</ele>
<time>2015-04-26T14:41:54Z</time>
</trkpt>
<trkpt lat="35.0797949" lon="32.4848158">
<ele>18.67</ele>
<time>2015-04-26T14:41:56Z</time>
</trkpt>
<trkpt lat="35.0797382" lon="32.4847572">
<ele>19.61</ele>
<time>2015-04-26T14:41:58Z</time>
</trkpt>
<trkpt lat="35.0796691" lon="32.4846942">
<ele>19.10</ele>
<time>2015-04-26T14:42:00Z</time>
</trkpt>
<trkpt lat="35.0795971" lon="32.4846309">
<ele>18.47</ele>
<time>2015-04-26T14:42:02Z</time>
</trkpt>
<trkpt lat="35.0795570" lon="32.4845889">
<ele>18.70</ele>
<time>2015-04-26T14:42:03Z</time>
</trkpt>
<trkpt lat="35.0795192" lon="32.4845528">
<ele>18.81</ele>
<time>2015-04-26T14:42:04Z</time>
</trkpt>
<trkpt lat="35.0794794" lon="32.4845105">
<ele>18.87</ele>
<time>2015-04-26T14:42:05Z</time>
</trkpt>
<trkpt lat="35.0794084" lon="32.4844418">
<ele>18.91</ele>
<time>2015-04-26T14:42:07Z</time>
</trkpt>
<trkpt lat="35.0793497" lon="32.4843694">
<ele>18.17</ele>
<time>2015-04-26T14:42:09Z</time>
</trkpt>
<trkpt lat="35.0793141" lon="32.4843337">
<ele>18.05</ele>
<time>2015-04-26T14:42:10Z</time>
</trkpt>
<trkpt lat="35.0792527" lon="32.4842580">
<ele>17.96</ele>
<time>2015-04-26T14:42:12Z</time>
</trkpt>
<trkpt lat="35.0792138" lon="32.4842181">
<ele>17.44</ele>
<time>2015-04-26T14:42:13Z</time>
</trkpt>
<trkpt lat="35.0791766" lon="32.4841831">
<ele>17.18</ele>
<time>2015-04-26T14:42:14Z</time>
</trkpt>
<trkpt lat="35.0791118" lon="32.4841214">
<ele>17.49</ele>
<time>2015-04-26T14:42:16Z</time>
</trkpt>
<trkpt lat="35.0790518" lon="32.4840581">
<ele>17.07</ele>
<time>2015-04-26T14:42:18Z</time>
</trkpt>
<trkpt lat="35.0789924" lon="32.4839885">
<ele>16.96</ele>
<time>2015-04-26T14:42:20Z</time>
</trkpt>
<trkpt lat="35.0789332" lon="32.4839146">
<ele>16.93</ele>
<time>2015-04-26T14:42:22Z</time>
</trkpt>
<trkpt lat="35.0788770" lon="32.4838515">
<ele>17.68</ele>
<time>2015-04-26T14:42:24Z</time>
</trkpt>
<trkpt lat="35.0788224" lon="32.4837905">
<ele>17.86</ele>
<time>2015-04-26T14:42:26Z</time>
</trkpt>
<trkpt lat="35.0787764" lon="32.4837322">
<ele>18.16</ele>
<time>2015-04-26T14:42:28Z</time>
</trkpt>
<trkpt lat="35.0787337" lon="32.4836782">
<ele>18.73</ele>
<time>2015-04-26T14:42:30Z</time>
</trkpt>
<trkpt lat="35.0786864" lon="32.4836222">
<ele>19.38</ele>
<time>2015-04-26T14:42:32Z</time>
</trkpt>
<trkpt lat="35.0786332" lon="32.4835597">
<ele>18.54</ele>
<time>2015-04-26T14:42:34Z</time>
</trkpt>
<trkpt lat="35.0785768" lon="32.4834972">
<ele>17.58</ele>
<time>2015-04-26T14:42:36Z</time>
</trkpt>
<trkpt lat="35.0785185" lon="32.4834251">
<ele>17.09</ele>
<time>2015-04-26T14:42:38Z</time>
</trkpt>
<trkpt lat="35.0784582" lon="32.4833483">
<ele>16.97</ele>
<time>2015-04-26T14:42:40Z</time>
</trkpt>
<trkpt lat="35.0783806" lon="32.4832444">
<ele>16.94</ele>
<time>2015-04-26T14:42:42Z</time>
</trkpt>
<trkpt lat="35.0783526" lon="32.4832011">
<ele>16.93</ele>
<time>2015-04-26T14:42:43Z</time>
</trkpt>
<trkpt lat="35.0782886" lon="32.4831346">
<ele>16.43</ele>
<time>2015-04-26T14:42:45Z</time>
</trkpt>
<trkpt lat="35.0782556" lon="32.4830950">
<ele>16.18</ele>
<time>2015-04-26T14:42:46Z</time>
</trkpt>
<trkpt lat="35.0782209" lon="32.4830526">
<ele>15.55</ele>
<time>2015-04-26T14:42:47Z</time>
</trkpt>
<trkpt lat="35.0781890" lon="32.4830093">
<ele>15.24</ele>
<time>2015-04-26T14:42:48Z</time>
</trkpt>
<trkpt lat="35.0781183" lon="32.4829343">
<ele>15.00</ele>
<time>2015-04-26T14:42:50Z</time>
</trkpt>
<trkpt lat="35.0780888" lon="32.4828895">
<ele>15.46</ele>
<time>2015-04-26T14:42:51Z</time>
</trkpt>
<trkpt lat="35.0780523" lon="32.4828458">
<ele>16.19</ele>
<time>2015-04-26T14:42:52Z</time>
</trkpt>
<trkpt lat="35.0780176" lon="32.4828033">
<ele>16.56</ele>
<time>2015-04-26T14:42:53Z</time>
</trkpt>
<trkpt lat="35.0779856" lon="32.4827594">
<ele>16.74</ele>
<time>2015-04-26T14:42:54Z</time>
</trkpt>
<trkpt lat="35.0779290" lon="32.4826889">
<ele>16.38</ele>
<time>2015-04-26T14:42:56Z</time>
</trkpt>
<trkpt lat="35.0778673" lon="32.4826233">
<ele>16.04</ele>
<time>2015-04-26T14:42:58Z</time>
</trkpt>
<trkpt lat="35.0778308" lon="32.4825885">
<ele>16.48</ele>
<time>2015-04-26T14:42:59Z</time>
</trkpt>
<trkpt lat="35.0777703" lon="32.4825273">
<ele>16.81</ele>
<time>2015-04-26T14:43:01Z</time>
</trkpt>
<trkpt lat="35.0777206" lon="32.4824496">
<ele>16.65</ele>
<time>2015-04-26T14:43:03Z</time>
</trkpt>
<trkpt lat="35.0776625" lon="32.4823926">
<ele>16.86</ele>
<time>2015-04-26T14:43:05Z</time>
</trkpt>
<trkpt lat="35.0776185" lon="32.4823443">
<ele>16.16</ele>
<time>2015-04-26T14:43:07Z</time>
</trkpt>
<trkpt lat="35.0775780" lon="32.4822952">
<ele>16.73</ele>
<time>2015-04-26T14:43:09Z</time>
</trkpt>
<trkpt lat="35.0775396" lon="32.4822475">
<ele>16.88</ele>
<time>2015-04-26T14:43:11Z</time>
</trkpt>
<trkpt lat="35.0774985" lon="32.4822061">
<ele>16.91</ele>
<time>2015-04-26T14:43:13Z</time>
</trkpt>
<trkpt lat="35.0774500" lon="32.4821696">
<ele>17.67</ele>
<time>2015-04-26T14:43:15Z</time>
</trkpt>
<trkpt lat="35.0773948" lon="32.4821314">
<ele>17.86</ele>
<time>2015-04-26T14:43:17Z</time>
</trkpt>
<trkpt lat="35.0773374" lon="32.4820867">
<ele>17.91</ele>
<time>2015-04-26T14:43:19Z</time>
</trkpt>
<trkpt lat="35.0772689" lon="32.4820507">
<ele>17.92</ele>
<time>2015-04-26T14:43:21Z</time>
</trkpt>
<trkpt lat="35.0771939" lon="32.4820242">
<ele>17.92</ele>
<time>2015-04-26T14:43:23Z</time>
</trkpt>
<trkpt lat="35.0771167" lon="32.4820014">
<ele>18.67</ele>
<time>2015-04-26T14:43:25Z</time>
</trkpt>
<trkpt lat="35.0770475" lon="32.4819745">
<ele>18.36</ele>
<time>2015-04-26T14:43:27Z</time>
</trkpt>
<trkpt lat="35.0769851" lon="32.4819432">
<ele>18.03</ele>
<time>2015-04-26T14:43:29Z</time>
</trkpt>
<trkpt lat="35.0769239" lon="32.4819149">
<ele>18.45</ele>
<time>2015-04-26T14:43:31Z</time>
</trkpt>
<trkpt lat="35.0768657" lon="32.4818852">
<ele>18.31</ele>
<time>2015-04-26T14:43:33Z</time>
</trkpt>
<trkpt lat="35.0768099" lon="32.4818479">
<ele>18.02</ele>
<time>2015-04-26T14:43:35Z</time>
</trkpt>
<trkpt lat="35.0767523" lon="32.4818158">
<ele>17.70</ele>
<time>2015-04-26T14:43:37Z</time>
</trkpt>
<trkpt lat="35.0766990" lon="32.4817814">
<ele>18.12</ele>
<time>2015-04-26T14:43:39Z</time>
</trkpt>
<trkpt lat="35.0766568" lon="32.4817346">
<ele>18.72</ele>
<time>2015-04-26T14:43:41Z</time>
</trkpt>
<trkpt lat="35.0766166" lon="32.4816912">
<ele>18.87</ele>
<time>2015-04-26T14:43:43Z</time>
</trkpt>
<trkpt lat="35.0765780" lon="32.4816515">
<ele>18.41</ele>
<time>2015-04-26T14:43:45Z</time>
</trkpt>
<trkpt lat="35.0765429" lon="32.4816118">
<ele>18.05</ele>
<time>2015-04-26T14:43:47Z</time>
</trkpt>
<trkpt lat="35.0765132" lon="32.4815701">
<ele>17.21</ele>
<time>2015-04-26T14:43:49Z</time>
</trkpt>
<trkpt lat="35.0764781" lon="32.4815190">
<ele>17.00</ele>
<time>2015-04-26T14:43:51Z</time>
</trkpt>
<trkpt lat="35.0764349" lon="32.4814576">
<ele>17.19</ele>
<time>2015-04-26T14:43:53Z</time>
</trkpt>
<trkpt lat="35.0763822" lon="32.4813849">
<ele>16.99</ele>
<time>2015-04-26T14:43:55Z</time>
</trkpt>
<trkpt lat="35.0763257" lon="32.4813078">
<ele>17.69</ele>
<time>2015-04-26T14:43:57Z</time>
</trkpt>
<trkpt lat="35.0762702" lon="32.4812340">
<ele>17.87</ele>
<time>2015-04-26T14:43:59Z</time>
</trkpt>
<trkpt lat="35.0762062" lon="32.4811808">
<ele>17.91</ele>
<time>2015-04-26T14:44:01Z</time>
</trkpt>
<trkpt lat="35.0761330" lon="32.4811617">
<ele>17.42</ele>
<time>2015-04-26T14:44:03Z</time>
</trkpt>
<trkpt lat="35.0760639" lon="32.4811477">
<ele>17.80</ele>
<time>2015-04-26T14:44:05Z</time>
</trkpt>
<trkpt lat="35.0759913" lon="32.4811355">
<ele>17.89</ele>
<time>2015-04-26T14:44:07Z</time>
</trkpt>
<trkpt lat="35.0759109" lon="32.4811338">
<ele>17.92</ele>
<time>2015-04-26T14:44:09Z</time>
</trkpt>
<trkpt lat="35.0758281" lon="32.4811333">
<ele>18.17</ele>
<time>2015-04-26T14:44:11Z</time>
</trkpt>
<trkpt lat="35.0757499" lon="32.4811284">
<ele>18.49</ele>
<time>2015-04-26T14:44:13Z</time>
</trkpt>
<trkpt lat="35.0756790" lon="32.4811326">
<ele>18.82</ele>
<time>2015-04-26T14:44:15Z</time>
</trkpt>
<trkpt lat="35.0756196" lon="32.4811430">
<ele>18.40</ele>
<time>2015-04-26T14:44:17Z</time>
</trkpt>
<trkpt lat="35.0755704" lon="32.4811733">
<ele>18.23</ele>
<time>2015-04-26T14:44:20Z</time>
</trkpt>
<trkpt lat="35.0755049" lon="32.4811807">
<ele>18.09</ele>
<time>2015-04-26T14:44:23Z</time>
</trkpt>
<trkpt lat="35.0754560" lon="32.4811866">
<ele>17.97</ele>
<time>2015-04-26T14:44:25Z</time>
</trkpt>
<trkpt lat="35.0754083" lon="32.4811951">
<ele>17.94</ele>
<time>2015-04-26T14:44:27Z</time>
</trkpt>
<trkpt lat="35.0753618" lon="32.4812048">
<ele>17.93</ele>
<time>2015-04-26T14:44:29Z</time>
</trkpt>
<trkpt lat="35.0753120" lon="32.4812143">
<ele>17.93</ele>
<time>2015-04-26T14:44:31Z</time>
</trkpt>
<trkpt lat="35.0752613" lon="32.4812418">
<ele>17.68</ele>
<time>2015-04-26T14:44:33Z</time>
</trkpt>
<trkpt lat="35.0752052" lon="32.4812662">
<ele>17.86</ele>
<time>2015-04-26T14:44:35Z</time>
</trkpt>
<trkpt lat="35.0751400" lon="32.4812793">
<ele>17.91</ele>
<time>2015-04-26T14:44:37Z</time>
</trkpt>
<trkpt lat="35.0750763" lon="32.4813013">
<ele>17.92</ele>
<time>2015-04-26T14:44:39Z</time>
</trkpt>
<trkpt lat="35.0750119" lon="32.4813256">
<ele>18.42</ele>
<time>2015-04-26T14:44:41Z</time>
</trkpt>
<trkpt lat="35.0749467" lon="32.4813444">
<ele>18.80</ele>
<time>2015-04-26T14:44:43Z</time>
</trkpt>
<trkpt lat="35.0748816" lon="32.4813649">
<ele>18.89</ele>
<time>2015-04-26T14:44:45Z</time>
</trkpt>
<trkpt lat="35.0748129" lon="32.4813853">
<ele>18.92</ele>
<time>2015-04-26T14:44:47Z</time>
</trkpt>
<trkpt lat="35.0747431" lon="32.4814034">
<ele>19.17</ele>
<time>2015-04-26T14:44:49Z</time>
</trkpt>
<trkpt lat="35.0746740" lon="32.4814161">
<ele>18.99</ele>
<time>2015-04-26T14:44:51Z</time>
</trkpt>
<trkpt lat="35.0746007" lon="32.4814253">
<ele>19.44</ele>
<time>2015-04-26T14:44:53Z</time>
</trkpt>
<trkpt lat="35.0745260" lon="32.4814347">
<ele>19.80</ele>
<time>2015-04-26T14:44:55Z</time>
</trkpt>
<trkpt lat="35.0744532" lon="32.4814423">
<ele>19.14</ele>
<time>2015-04-26T14:44:57Z</time>
</trkpt>
<trkpt lat="35.0743860" lon="32.4814569">
<ele>19.48</ele>
<time>2015-04-26T14:44:59Z</time>
</trkpt>
<trkpt lat="35.0743140" lon="32.4814640">
<ele>19.56</ele>
<time>2015-04-26T14:45:01Z</time>
</trkpt>
<trkpt lat="35.0742396" lon="32.4814633">
<ele>19.08</ele>
<time>2015-04-26T14:45:03Z</time>
</trkpt>
<trkpt lat="35.0741693" lon="32.4814650">
<ele>20.21</ele>
<time>2015-04-26T14:45:05Z</time>
</trkpt>
<trkpt lat="35.0741040" lon="32.4814540">
<ele>21.50</ele>
<time>2015-04-26T14:45:07Z</time>
</trkpt>
<trkpt lat="35.0740393" lon="32.4814353">
<ele>21.82</ele>
<time>2015-04-26T14:45:09Z</time>
</trkpt>
<trkpt lat="35.0739776" lon="32.4814004">
<ele>21.90</ele>
<time>2015-04-26T14:45:11Z</time>
</trkpt>
<trkpt lat="35.0739159" lon="32.4813708">
<ele>21.17</ele>
<time>2015-04-26T14:45:13Z</time>
</trkpt>
<trkpt lat="35.0738522" lon="32.4813404">
<ele>21.74</ele>
<time>2015-04-26T14:45:15Z</time>
</trkpt>
<trkpt lat="35.0737860" lon="32.4813166">
<ele>21.13</ele>
<time>2015-04-26T14:45:17Z</time>
</trkpt>
<trkpt lat="35.0737211" lon="32.4812982">
<ele>20.23</ele>
<time>2015-04-26T14:45:19Z</time>
</trkpt>
<trkpt lat="35.0736614" lon="32.4812819">
<ele>20.00</ele>
<time>2015-04-26T14:45:21Z</time>
</trkpt>
<trkpt lat="35.0736068" lon="32.4812689">
<ele>20.69</ele>
<time>2015-04-26T14:45:23Z</time>
</trkpt>
<trkpt lat="35.0735559" lon="32.4812596">
<ele>20.87</ele>
<time>2015-04-26T14:45:25Z</time>
</trkpt>
<trkpt lat="35.0735054" lon="32.4812518">
<ele>20.41</ele>
<time>2015-04-26T14:45:27Z</time>
</trkpt>
<trkpt lat="35.0734569" lon="32.4812337">
<ele>19.55</ele>
<time>2015-04-26T14:45:29Z</time>
</trkpt>
<trkpt lat="35.0734038" lon="32.4812355">
<ele>18.33</ele>
<time>2015-04-26T14:45:31Z</time>
</trkpt>
<trkpt lat="35.0733443" lon="32.4812431">
<ele>19.28</ele>
<time>2015-04-26T14:45:33Z</time>
</trkpt>
<trkpt lat="35.0732834" lon="32.4812556">
<ele>20.26</ele>
<time>2015-04-26T14:45:35Z</time>
</trkpt>
<trkpt lat="35.0732145" lon="32.4812561">
<ele>22.01</ele>
<time>2015-04-26T14:45:37Z</time>
</trkpt>
<trkpt lat="35.0731403" lon="32.4812484">
<ele>23.45</ele>
<time>2015-04-26T14:45:39Z</time>
</trkpt>
<trkpt lat="35.0730694" lon="32.4812485">
<ele>24.31</ele>
<time>2015-04-26T14:45:41Z</time>
</trkpt>
<trkpt lat="35.0730035" lon="32.4812502">
<ele>24.27</ele>
<time>2015-04-26T14:45:43Z</time>
</trkpt>
<trkpt lat="35.0729395" lon="32.4812528">
<ele>24.26</ele>
<time>2015-04-26T14:45:45Z</time>
</trkpt>
<trkpt lat="35.0728769" lon="32.4812660">
<ele>24.01</ele>
<time>2015-04-26T14:45:47Z</time>
</trkpt>
<trkpt lat="35.0728211" lon="32.4812816">
<ele>23.95</ele>
<time>2015-04-26T14:45:49Z</time>
</trkpt>
<trkpt lat="35.0728592" lon="32.4812400">
<ele>22.58</ele>
<time>2015-04-26T14:46:32Z</time>
</trkpt>
<trkpt lat="35.0729245" lon="32.4812314">
<ele>22.26</ele>
<time>2015-04-26T14:46:35Z</time>
</trkpt>
<trkpt lat="35.0729791" lon="32.4812286">
<ele>22.01</ele>
<time>2015-04-26T14:46:37Z</time>
</trkpt>
<trkpt lat="35.0730414" lon="32.4812266">
<ele>21.95</ele>
<time>2015-04-26T14:46:39Z</time>
</trkpt>
<trkpt lat="35.0731097" lon="32.4812255">
<ele>20.68</ele>
<time>2015-04-26T14:46:41Z</time>
</trkpt>
<trkpt lat="35.0731817" lon="32.4812284">
<ele>20.11</ele>
<time>2015-04-26T14:46:43Z</time>
</trkpt>
<trkpt lat="35.0732572" lon="32.4812293">
<ele>20.22</ele>
<time>2015-04-26T14:46:45Z</time>
</trkpt>
<trkpt lat="35.0733247" lon="32.4812322">
<ele>20.50</ele>
<time>2015-04-26T14:46:47Z</time>
</trkpt>
<trkpt lat="35.0733888" lon="32.4812392">
<ele>20.07</ele>
<time>2015-04-26T14:46:49Z</time>
</trkpt>
<trkpt lat="35.0734527" lon="32.4812521">
<ele>19.96</ele>
<time>2015-04-26T14:46:51Z</time>
</trkpt>
<trkpt lat="35.0735164" lon="32.4812707">
<ele>20.43</ele>
<time>2015-04-26T14:46:53Z</time>
</trkpt>
<trkpt lat="35.0735808" lon="32.4812901">
<ele>20.80</ele>
<time>2015-04-26T14:46:55Z</time>
</trkpt>
<trkpt lat="35.0736450" lon="32.4813143">
<ele>20.89</ele>
<time>2015-04-26T14:46:57Z</time>
</trkpt>
<trkpt lat="35.0737102" lon="32.4813423">
<ele>20.17</ele>
<time>2015-04-26T14:46:59Z</time>
</trkpt>
<trkpt lat="35.0737760" lon="32.4813621">
<ele>19.99</ele>
<time>2015-04-26T14:47:01Z</time>
</trkpt>
<trkpt lat="35.0738422" lon="32.4813854">
<ele>20.69</ele>
<time>2015-04-26T14:47:03Z</time>
</trkpt>
<trkpt lat="35.0739092" lon="32.4814071">
<ele>20.87</ele>
<time>2015-04-26T14:47:05Z</time>
</trkpt>
<trkpt lat="35.0739815" lon="32.4814199">
<ele>21.41</ele>
<time>2015-04-26T14:47:07Z</time>
</trkpt>
<trkpt lat="35.0740576" lon="32.4814355">
<ele>21.05</ele>
<time>2015-04-26T14:47:09Z</time>
</trkpt>
<trkpt lat="35.0741356" lon="32.4814431">
<ele>20.96</ele>
<time>2015-04-26T14:47:11Z</time>
</trkpt>
<trkpt lat="35.0742160" lon="32.4814374">
<ele>20.43</ele>
<time>2015-04-26T14:47:13Z</time>
</trkpt>
<trkpt lat="35.0742991" lon="32.4814256">
<ele>18.80</ele>
<time>2015-04-26T14:47:15Z</time>
</trkpt>
<trkpt lat="35.0743856" lon="32.4814157">
<ele>18.14</ele>
<time>2015-04-26T14:47:17Z</time>
</trkpt>
<trkpt lat="35.0744309" lon="32.4814106">
<ele>18.03</ele>
<time>2015-04-26T14:47:18Z</time>
</trkpt>
<trkpt lat="35.0744787" lon="32.4814055">
<ele>17.98</ele>
<time>2015-04-26T14:47:19Z</time>
</trkpt>
<trkpt lat="35.0745552" lon="32.4813864">
<ele>17.95</ele>
<time>2015-04-26T14:47:20Z</time>
</trkpt>
<trkpt lat="35.0746470" lon="32.4813655">
<ele>17.93</ele>
<time>2015-04-26T14:47:22Z</time>
</trkpt>
<trkpt lat="35.0746972" lon="32.4813526">
<ele>17.93</ele>
<time>2015-04-26T14:47:23Z</time>
</trkpt>
<trkpt lat="35.0747440" lon="32.4813405">
<ele>17.93</ele>
<time>2015-04-26T14:47:24Z</time>
</trkpt>
<trkpt lat="35.0748282" lon="32.4813164">
<ele>17.93</ele>
<time>2015-04-26T14:47:26Z</time>
</trkpt>
<trkpt lat="35.0748754" lon="32.4813071">
<ele>18.43</ele>
<time>2015-04-26T14:47:27Z</time>
</trkpt>
<trkpt lat="35.0749253" lon="32.4812902">
<ele>18.68</ele>
<time>2015-04-26T14:47:28Z</time>
</trkpt>
<trkpt lat="35.0750198" lon="32.4812709">
<ele>18.86</ele>
<time>2015-04-26T14:47:30Z</time>
</trkpt>
<trkpt lat="35.0750725" lon="32.4812564">
<ele>18.89</ele>
<time>2015-04-26T14:47:31Z</time>
</trkpt>
<trkpt lat="35.0751208" lon="32.4812464">
<ele>18.91</ele>
<time>2015-04-26T14:47:32Z</time>
</trkpt>
<trkpt lat="35.0751735" lon="32.4812436">
<ele>18.92</ele>
<time>2015-04-26T14:47:33Z</time>
</trkpt>
<trkpt lat="35.0752194" lon="32.4812322">
<ele>19.42</ele>
<time>2015-04-26T14:47:34Z</time>
</trkpt>
<trkpt lat="35.0752668" lon="32.4812159">
<ele>19.67</ele>
<time>2015-04-26T14:47:35Z</time>
</trkpt>
<trkpt lat="35.0753098" lon="32.4811973">
<ele>19.80</ele>
<time>2015-04-26T14:47:36Z</time>
</trkpt>
<trkpt lat="35.0753610" lon="32.4811850">
<ele>19.36</ele>
<time>2015-04-26T14:47:37Z</time>
</trkpt>
<trkpt lat="35.0754120" lon="32.4811766">
<ele>19.14</ele>
<time>2015-04-26T14:47:38Z</time>
</trkpt>
<trkpt lat="35.0754635" lon="32.4811732">
<ele>19.03</ele>
<time>2015-04-26T14:47:39Z</time>
</trkpt>
<trkpt lat="35.0755160" lon="32.4811714">
<ele>18.98</ele>
<time>2015-04-26T14:47:40Z</time>
</trkpt>
<trkpt lat="35.0755645" lon="32.4811571">
<ele>19.45</ele>
<time>2015-04-26T14:47:41Z</time>
</trkpt>
<trkpt lat="35.0756174" lon="32.4811468">
<ele>19.69</ele>
<time>2015-04-26T14:47:42Z</time>
</trkpt>
<trkpt lat="35.0756671" lon="32.4811382">
<ele>19.31</ele>
<time>2015-04-26T14:47:43Z</time>
</trkpt>
<trkpt lat="35.0757195" lon="32.4811381">
<ele>19.12</ele>
<time>2015-04-26T14:47:44Z</time>
</trkpt>
<trkpt lat="35.0757646" lon="32.4811253">
<ele>18.52</ele>
<time>2015-04-26T14:47:45Z</time>
</trkpt>
<trkpt lat="35.0758158" lon="32.4811254">
<ele>18.22</ele>
<time>2015-04-26T14:47:46Z</time>
</trkpt>
<trkpt lat="35.0759123" lon="32.4811261">
<ele>17.50</ele>
<time>2015-04-26T14:47:48Z</time>
</trkpt>
<trkpt lat="35.0760022" lon="32.4811358">
<ele>17.07</ele>
<time>2015-04-26T14:47:50Z</time>
</trkpt>
<trkpt lat="35.0760796" lon="32.4811340">
<ele>16.96</ele>
<time>2015-04-26T14:47:52Z</time>
</trkpt>
<trkpt lat="35.0761118" lon="32.4810795">
<ele>17.80</ele>
<time>2015-04-26T14:47:55Z</time>
</trkpt>
<trkpt lat="35.0760839" lon="32.4810152">
<ele>17.89</ele>
<time>2015-04-26T14:47:57Z</time>
</trkpt>
<trkpt lat="35.0760285" lon="32.4809551">
<ele>17.92</ele>
<time>2015-04-26T14:47:59Z</time>
</trkpt>
<trkpt lat="35.0759724" lon="32.4808856">
<ele>17.92</ele>
<time>2015-04-26T14:48:01Z</time>
</trkpt>
<trkpt lat="35.0759148" lon="32.4808213">
<ele>17.42</ele>
<time>2015-04-26T14:48:03Z</time>
</trkpt>
<trkpt lat="35.0758582" lon="32.4807582">
<ele>17.80</ele>
<time>2015-04-26T14:48:05Z</time>
</trkpt>
<trkpt lat="35.0757974" lon="32.4806949">
<ele>17.14</ele>
<time>2015-04-26T14:48:07Z</time>
</trkpt>
<trkpt lat="35.0757336" lon="32.4806291">
<ele>17.73</ele>
<time>2015-04-26T14:48:09Z</time>
</trkpt>
<trkpt lat="35.0756620" lon="32.4805421">
<ele>18.13</ele>
<time>2015-04-26T14:48:11Z</time>
</trkpt>
<trkpt lat="35.0755963" lon="32.4804698">
<ele>17.98</ele>
<time>2015-04-26T14:48:13Z</time>
</trkpt>
<trkpt lat="35.0755584" lon="32.4804343">
<ele>17.95</ele>
<time>2015-04-26T14:48:14Z</time>
</trkpt>
<trkpt lat="35.0755230" lon="32.4803984">
<ele>17.94</ele>
<time>2015-04-26T14:48:15Z</time>
</trkpt>
<trkpt lat="35.0754560" lon="32.4803194">
<ele>17.93</ele>
<time>2015-04-26T14:48:17Z</time>
</trkpt>
<trkpt lat="35.0754214" lon="32.4802750">
<ele>17.93</ele>
<time>2015-04-26T14:48:18Z</time>
</trkpt>
<trkpt lat="35.0753808" lon="32.4802354">
<ele>17.93</ele>
<time>2015-04-26T14:48:19Z</time>
</trkpt>
<trkpt lat="35.0753134" lon="32.4801578">
<ele>17.18</ele>
<time>2015-04-26T14:48:21Z</time>
</trkpt>
<trkpt lat="35.0752458" lon="32.4800816">
<ele>16.24</ele>
<time>2015-04-26T14:48:23Z</time>
</trkpt>
<trkpt lat="35.0752120" lon="32.4800343">
<ele>16.58</ele>
<time>2015-04-26T14:48:24Z</time>
</trkpt>
<trkpt lat="35.0751747" lon="32.4799754">
<ele>16.75</ele>
<time>2015-04-26T14:48:25Z</time>
</trkpt>
<trkpt lat="35.0751380" lon="32.4799376">
<ele>16.84</ele>
<time>2015-04-26T14:48:26Z</time>
</trkpt>
<trkpt lat="35.0751053" lon="32.4798918">
<ele>16.88</ele>
<time>2015-04-26T14:48:27Z</time>
</trkpt>
<trkpt lat="35.0750690" lon="32.4798526">
<ele>17.40</ele>
<time>2015-04-26T14:48:28Z</time>
</trkpt>
<trkpt lat="35.0750324" lon="32.4798103">
<ele>17.66</ele>
<time>2015-04-26T14:48:29Z</time>
</trkpt>
<trkpt lat="35.0749964" lon="32.4797624">
<ele>17.79</ele>
<time>2015-04-26T14:48:30Z</time>
</trkpt>
<trkpt lat="35.0749558" lon="32.4797133">
<ele>17.86</ele>
<time>2015-04-26T14:48:31Z</time>
</trkpt>
<trkpt lat="35.0748813" lon="32.4796396">
<ele>17.91</ele>
<time>2015-04-26T14:48:33Z</time>
</trkpt>
<trkpt lat="35.0748394" lon="32.4795897">
<ele>17.92</ele>
<time>2015-04-26T14:48:34Z</time>
</trkpt>
<trkpt lat="35.0747985" lon="32.4795441">
<ele>17.92</ele>
<time>2015-04-26T14:48:35Z</time>
</trkpt>
<trkpt lat="35.0747580" lon="32.4794957">
<ele>17.92</ele>
<time>2015-04-26T14:48:36Z</time>
</trkpt>
<trkpt lat="35.0747117" lon="32.4794522">
<ele>17.92</ele>
<time>2015-04-26T14:48:37Z</time>
</trkpt>
<trkpt lat="35.0746688" lon="32.4794108">
<ele>17.92</ele>
<time>2015-04-26T14:48:38Z</time>
</trkpt>
<trkpt lat="35.0746287" lon="32.4793666">
<ele>18.42</ele>
<time>2015-04-26T14:48:39Z</time>
</trkpt>
<trkpt lat="35.0745886" lon="32.4793168">
<ele>18.67</ele>
<time>2015-04-26T14:48:40Z</time>
</trkpt>
<trkpt lat="35.0745465" lon="32.4792767">
<ele>18.80</ele>
<time>2015-04-26T14:48:41Z</time>
</trkpt>
<trkpt lat="35.0744992" lon="32.4792282">
<ele>18.86</ele>
<time>2015-04-26T14:48:42Z</time>
</trkpt>
<trkpt lat="35.0744575" lon="32.4791850">
<ele>18.89</ele>
<time>2015-04-26T14:48:43Z</time>
</trkpt>
<trkpt lat="35.0744121" lon="32.4791447">
<ele>18.91</ele>
<time>2015-04-26T14:48:44Z</time>
</trkpt>
<trkpt lat="35.0743622" lon="32.4790927">
<ele>18.92</ele>
<time>2015-04-26T14:48:45Z</time>
</trkpt>
<trkpt lat="35.0743215" lon="32.4790437">
<ele>18.92</ele>
<time>2015-04-26T14:48:46Z</time>
</trkpt>
<trkpt lat="35.0742770" lon="32.4790034">
<ele>19.42</ele>
<time>2015-04-26T14:48:47Z</time>
</trkpt>
<trkpt lat="35.0742321" lon="32.4789571">
<ele>19.67</ele>
<time>2015-04-26T14:48:48Z</time>
</trkpt>
<trkpt lat="35.0741918" lon="32.4789181">
<ele>19.80</ele>
<time>2015-04-26T14:48:49Z</time>
</trkpt>
<trkpt lat="35.0741482" lon="32.4788796">
<ele>19.86</ele>
<time>2015-04-26T14:48:50Z</time>
</trkpt>
<trkpt lat="35.0741092" lon="32.4788207">
<ele>19.89</ele>
<time>2015-04-26T14:48:51Z</time>
</trkpt>
<trkpt lat="35.0740601" lon="32.4787686">
<ele>19.41</ele>
<time>2015-04-26T14:48:52Z</time>
</trkpt>
<trkpt lat="35.0740158" lon="32.4787242">
<ele>19.17</ele>
<time>2015-04-26T14:48:53Z</time>
</trkpt>
<trkpt lat="35.0739730" lon="32.4786702">
<ele>19.55</ele>
<time>2015-04-26T14:48:54Z</time>
</trkpt>
<trkpt lat="35.0739309" lon="32.4786201">
<ele>19.74</ele>
<time>2015-04-26T14:48:55Z</time>
</trkpt>
<trkpt lat="35.0738851" lon="32.4785774">
<ele>19.83</ele>
<time>2015-04-26T14:48:56Z</time>
</trkpt>
<trkpt lat="35.0738448" lon="32.4785344">
<ele>19.88</ele>
<time>2015-04-26T14:48:57Z</time>
</trkpt>
<trkpt lat="35.0738067" lon="32.4784947">
<ele>19.90</ele>
<time>2015-04-26T14:48:58Z</time>
</trkpt>
<trkpt lat="35.0737717" lon="32.4784459">
<ele>19.91</ele>
<time>2015-04-26T14:48:59Z</time>
</trkpt>
<trkpt lat="35.0737348" lon="32.4783958">
<ele>19.92</ele>
<time>2015-04-26T14:49:00Z</time>
</trkpt>
<trkpt lat="35.0736882" lon="32.4783570">
<ele>20.42</ele>
<time>2015-04-26T14:49:01Z</time>
</trkpt>
<trkpt lat="35.0736471" lon="32.4783056">
<ele>20.17</ele>
<time>2015-04-26T14:49:02Z</time>
</trkpt>
<trkpt lat="35.0736036" lon="32.4782496">
<ele>20.05</ele>
<time>2015-04-26T14:49:03Z</time>
</trkpt>
<trkpt lat="35.0735478" lon="32.4781962">
<ele>19.99</ele>
<time>2015-04-26T14:49:04Z</time>
</trkpt>
<trkpt lat="35.0735105" lon="32.4781463">
<ele>19.46</ele>
<time>2015-04-26T14:49:05Z</time>
</trkpt>
<trkpt lat="35.0734682" lon="32.4781026">
<ele>19.19</ele>
<time>2015-04-26T14:49:06Z</time>
</trkpt>
<trkpt lat="35.0734176" lon="32.4780544">
<ele>19.06</ele>
<time>2015-04-26T14:49:07Z</time>
</trkpt>
<trkpt lat="35.0733823" lon="32.4779980">
<ele>18.99</ele>
<time>2015-04-26T14:49:08Z</time>
</trkpt>
<trkpt lat="35.0733399" lon="32.4779530">
<ele>18.96</ele>
<time>2015-04-26T14:49:09Z</time>
</trkpt>
<trkpt lat="35.0732875" lon="32.4778965">
<ele>18.44</ele>
<time>2015-04-26T14:49:10Z</time>
</trkpt>
<trkpt lat="35.0732469" lon="32.4778500">
<ele>18.18</ele>
<time>2015-04-26T14:49:11Z</time>
</trkpt>
<trkpt lat="35.0732080" lon="32.4777937">
<ele>17.55</ele>
<time>2015-04-26T14:49:12Z</time>
</trkpt>
<trkpt lat="35.0731679" lon="32.4777406">
<ele>17.24</ele>
<time>2015-04-26T14:49:13Z</time>
</trkpt>
<trkpt lat="35.0731369" lon="32.4776999">
<ele>17.08</ele>
<time>2015-04-26T14:49:14Z</time>
</trkpt>
<trkpt lat="35.0731044" lon="32.4776512">
<ele>17.50</ele>
<time>2015-04-26T14:49:15Z</time>
</trkpt>
<trkpt lat="35.0730698" lon="32.4776095">
<ele>17.21</ele>
<time>2015-04-26T14:49:16Z</time>
</trkpt>
<trkpt lat="35.0730382" lon="32.4775661">
<ele>17.07</ele>
<time>2015-04-26T14:49:17Z</time>
</trkpt>
<trkpt lat="35.0730020" lon="32.4775260">
<ele>17.50</ele>
<time>2015-04-26T14:49:18Z</time>
</trkpt>
<trkpt lat="35.0729703" lon="32.4774769">
<ele>17.71</ele>
<time>2015-04-26T14:49:19Z</time>
</trkpt>
<trkpt lat="35.0729181" lon="32.4774102">
<ele>17.12</ele>
<time>2015-04-26T14:49:21Z</time>
</trkpt>
<trkpt lat="35.0728593" lon="32.4773438">
<ele>16.72</ele>
<time>2015-04-26T14:49:23Z</time>
</trkpt>
<trkpt lat="35.0727904" lon="32.4772620">
<ele>16.87</ele>
<time>2015-04-26T14:49:25Z</time>
</trkpt>
<trkpt lat="35.0727522" lon="32.4772117">
<ele>16.90</ele>
<time>2015-04-26T14:49:26Z</time>
</trkpt>
<trkpt lat="35.0727165" lon="32.4771729">
<ele>17.41</ele>
<time>2015-04-26T14:49:27Z</time>
</trkpt>
<trkpt lat="35.0726800" lon="32.4771338">
<ele>17.67</ele>
<time>2015-04-26T14:49:28Z</time>
</trkpt>
<trkpt lat="35.0726420" lon="32.4770902">
<ele>17.80</ele>
<time>2015-04-26T14:49:29Z</time>
</trkpt>
<trkpt lat="35.0726039" lon="32.4770451">
<ele>17.86</ele>
<time>2015-04-26T14:49:30Z</time>
</trkpt>
<trkpt lat="35.0725738" lon="32.4769998">
<ele>17.89</ele>
<time>2015-04-26T14:49:31Z</time>
</trkpt>
<trkpt lat="35.0725384" lon="32.4769613">
<ele>17.91</ele>
<time>2015-04-26T14:49:32Z</time>
</trkpt>
<trkpt lat="35.0725097" lon="32.4769167">
<ele>17.92</ele>
<time>2015-04-26T14:49:33Z</time>
</trkpt>
<trkpt lat="35.0724726" lon="32.4768795">
<ele>17.92</ele>
<time>2015-04-26T14:49:34Z</time>
</trkpt>
<trkpt lat="35.0724188" lon="32.4768028">
<ele>17.92</ele>
<time>2015-04-26T14:49:36Z</time>
</trkpt>
<trkpt lat="35.0723684" lon="32.4767295">
<ele>18.42</ele>
<time>2015-04-26T14:49:38Z</time>
</trkpt>
<trkpt lat="35.0723278" lon="32.4766679">
<ele>18.05</ele>
<time>2015-04-26T14:49:40Z</time>
</trkpt>
<trkpt lat="35.0722777" lon="32.4766036">
<ele>17.46</ele>
<time>2015-04-26T14:49:42Z</time>
</trkpt>
<trkpt lat="35.0722388" lon="32.4765324">
<ele>17.31</ele>
<time>2015-04-26T14:49:44Z</time>
</trkpt>
<trkpt lat="35.0721934" lon="32.4764756">
<ele>17.77</ele>
<time>2015-04-26T14:49:46Z</time>
</trkpt>
<trkpt lat="35.0721488" lon="32.4764207">
<ele>17.89</ele>
<time>2015-04-26T14:49:48Z</time>
</trkpt>
<trkpt lat="35.0720993" lon="32.4763626">
<ele>18.17</ele>
<time>2015-04-26T14:49:50Z</time>
</trkpt>
<trkpt lat="35.0720451" lon="32.4763024">
<ele>17.99</ele>
<time>2015-04-26T14:49:52Z</time>
</trkpt>
<trkpt lat="35.0719893" lon="32.4762380">
<ele>17.94</ele>
<time>2015-04-26T14:49:54Z</time>
</trkpt>
<trkpt lat="35.0719294" lon="32.4761684">
<ele>17.18</ele>
<time>2015-04-26T14:49:56Z</time>
</trkpt>
<trkpt lat="35.0718779" lon="32.4761204">
<ele>17.55</ele>
<time>2015-04-26T14:49:57Z</time>
</trkpt>
<trkpt lat="35.0718255" lon="32.4760513">
<ele>17.83</ele>
<time>2015-04-26T14:49:59Z</time>
</trkpt>
<trkpt lat="35.0717696" lon="32.4759830">
<ele>18.40</ele>
<time>2015-04-26T14:50:01Z</time>
</trkpt>
<trkpt lat="35.0717344" lon="32.4759454">
<ele>18.16</ele>
<time>2015-04-26T14:50:02Z</time>
</trkpt>
<trkpt lat="35.0716643" lon="32.4758726">
<ele>17.98</ele>
<time>2015-04-26T14:50:04Z</time>
</trkpt>
<trkpt lat="35.0716327" lon="32.4758290">
<ele>18.45</ele>
<time>2015-04-26T14:50:05Z</time>
</trkpt>
<trkpt lat="35.0715966" lon="32.4757764">
<ele>18.19</ele>
<time>2015-04-26T14:50:06Z</time>
</trkpt>
<trkpt lat="35.0715593" lon="32.4757358">
<ele>18.06</ele>
<time>2015-04-26T14:50:07Z</time>
</trkpt>
<trkpt lat="35.0715191" lon="32.4756952">
<ele>18.49</ele>
<time>2015-04-26T14:50:08Z</time>
</trkpt>
<trkpt lat="35.0714830" lon="32.4756563">
<ele>18.71</ele>
<time>2015-04-26T14:50:09Z</time>
</trkpt>
<trkpt lat="35.0714192" lon="32.4755811">
<ele>18.37</ele>
<time>2015-04-26T14:50:11Z</time>
</trkpt>
<trkpt lat="35.0713535" lon="32.4754992">
<ele>18.79</ele>
<time>2015-04-26T14:50:13Z</time>
</trkpt>
<trkpt lat="35.0712956" lon="32.4754293">
<ele>19.64</ele>
<time>2015-04-26T14:50:15Z</time>
</trkpt>
<trkpt lat="35.0712419" lon="32.4753542">
<ele>19.60</ele>
<time>2015-04-26T14:50:17Z</time>
</trkpt>
<trkpt lat="35.0711845" lon="32.4752806">
<ele>19.84</ele>
<time>2015-04-26T14:50:19Z</time>
</trkpt>
<trkpt lat="35.0711517" lon="32.4752363">
<ele>19.88</ele>
<time>2015-04-26T14:50:20Z</time>
</trkpt>
<trkpt lat="35.0711186" lon="32.4751975">
<ele>19.90</ele>
<time>2015-04-26T14:50:21Z</time>
</trkpt>
<trkpt lat="35.0710810" lon="32.4751539">
<ele>19.91</ele>
<time>2015-04-26T14:50:22Z</time>
</trkpt>
<trkpt lat="35.0710422" lon="32.4751116">
<ele>19.92</ele>
<time>2015-04-26T14:50:23Z</time>
</trkpt>
<trkpt lat="35.0710084" lon="32.4750733">
<ele>19.42</ele>
<time>2015-04-26T14:50:24Z</time>
</trkpt>
<trkpt lat="35.0709762" lon="32.4750306">
<ele>19.17</ele>
<time>2015-04-26T14:50:25Z</time>
</trkpt>
<trkpt lat="35.0709352" lon="32.4749871">
<ele>19.05</ele>
<time>2015-04-26T14:50:26Z</time>
</trkpt>
<trkpt lat="35.0708958" lon="32.4749529">
<ele>18.99</ele>
<time>2015-04-26T14:50:27Z</time>
</trkpt>
<trkpt lat="35.0708561" lon="32.4749102">
<ele>18.96</ele>
<time>2015-04-26T14:50:28Z</time>
</trkpt>
<trkpt lat="35.0707920" lon="32.4748448">
<ele>18.93</ele>
<time>2015-04-26T14:50:30Z</time>
</trkpt>
<trkpt lat="35.0707586" lon="32.4748051">
<ele>18.93</ele>
<time>2015-04-26T14:50:31Z</time>
</trkpt>
<trkpt lat="35.0706962" lon="32.4747346">
<ele>19.68</ele>
<time>2015-04-26T14:50:33Z</time>
</trkpt>
<trkpt lat="35.0706411" lon="32.4746552">
<ele>19.86</ele>
<time>2015-04-26T14:50:35Z</time>
</trkpt>
<trkpt lat="35.0706003" lon="32.4746108">
<ele>19.89</ele>
<time>2015-04-26T14:50:36Z</time>
</trkpt>
<trkpt lat="35.0705638" lon="32.4745684">
<ele>20.41</ele>
<time>2015-04-26T14:50:37Z</time>
</trkpt>
<trkpt lat="35.0704989" lon="32.4745015">
<ele>20.80</ele>
<time>2015-04-26T14:50:39Z</time>
</trkpt>
<trkpt lat="35.0704410" lon="32.4744306">
<ele>20.89</ele>
<time>2015-04-26T14:50:41Z</time>
</trkpt>
<trkpt lat="35.0703744" lon="32.4743684">
<ele>21.42</ele>
<time>2015-04-26T14:50:43Z</time>
</trkpt>
<trkpt lat="35.0703208" lon="32.4742932">
<ele>21.80</ele>
<time>2015-04-26T14:50:45Z</time>
</trkpt>
<trkpt lat="35.0702682" lon="32.4742362">
<ele>21.39</ele>
<time>2015-04-26T14:50:47Z</time>
</trkpt>
<trkpt lat="35.0702180" lon="32.4741770">
<ele>21.04</ele>
<time>2015-04-26T14:50:49Z</time>
</trkpt>
<trkpt lat="35.0701727" lon="32.4741158">
<ele>20.95</ele>
<time>2015-04-26T14:50:51Z</time>
</trkpt>
<trkpt lat="35.0701222" lon="32.4740568">
<ele>20.93</ele>
<time>2015-04-26T14:50:53Z</time>
</trkpt>
<trkpt lat="35.0700634" lon="32.4739947">
<ele>20.93</ele>
<time>2015-04-26T14:50:55Z</time>
</trkpt>
<trkpt lat="35.0700168" lon="32.4739456">
<ele>20.93</ele>
<time>2015-04-26T14:50:56Z</time>
</trkpt>
<trkpt lat="35.0699583" lon="32.4738632">
<ele>20.43</ele>
<time>2015-04-26T14:50:58Z</time>
</trkpt>
<trkpt lat="35.0698967" lon="32.4737903">
<ele>20.05</ele>
<time>2015-04-26T14:51:00Z</time>
</trkpt>
<trkpt lat="35.0698655" lon="32.4737476">
<ele>20.49</ele>
<time>2015-04-26T14:51:01Z</time>
</trkpt>
<trkpt lat="35.0698349" lon="32.4737005">
<ele>20.71</ele>
<time>2015-04-26T14:51:02Z</time>
</trkpt>
<trkpt lat="35.0697977" lon="32.4736567">
<ele>20.82</ele>
<time>2015-04-26T14:51:03Z</time>
</trkpt>
<trkpt lat="35.0697679" lon="32.4736105">
<ele>20.37</ele>
<time>2015-04-26T14:51:04Z</time>
</trkpt>
<trkpt lat="35.0697108" lon="32.4735375">
<ele>20.79</ele>
<time>2015-04-26T14:51:06Z</time>
</trkpt>
<trkpt lat="35.0696551" lon="32.4734559">
<ele>20.89</ele>
<time>2015-04-26T14:51:08Z</time>
</trkpt>
<trkpt lat="35.0695983" lon="32.4733837">
<ele>20.92</ele>
<time>2015-04-26T14:51:10Z</time>
</trkpt>
<trkpt lat="35.0695632" lon="32.4733471">
<ele>20.92</ele>
<time>2015-04-26T14:51:11Z</time>
</trkpt>
<trkpt lat="35.0695282" lon="32.4733087">
<ele>21.42</ele>
<time>2015-04-26T14:51:12Z</time>
</trkpt>
<trkpt lat="35.0694946" lon="32.4732640">
<ele>22.17</ele>
<time>2015-04-26T14:51:13Z</time>
</trkpt>
<trkpt lat="35.0694514" lon="32.4732160">
<ele>22.05</ele>
<time>2015-04-26T14:51:14Z</time>
</trkpt>
<trkpt lat="35.0694166" lon="32.4731710">
<ele>21.99</ele>
<time>2015-04-26T14:51:15Z</time>
</trkpt>
<trkpt lat="35.0693828" lon="32.4731219">
<ele>21.46</ele>
<time>2015-04-26T14:51:16Z</time>
</trkpt>
<trkpt lat="35.0693483" lon="32.4730766">
<ele>21.19</ele>
<time>2015-04-26T14:51:17Z</time>
</trkpt>
<trkpt lat="35.0693172" lon="32.4730345">
<ele>21.06</ele>
<time>2015-04-26T14:51:18Z</time>
</trkpt>
<trkpt lat="35.0692848" lon="32.4729957">
<ele>20.99</ele>
<time>2015-04-26T14:51:19Z</time>
</trkpt>
<trkpt lat="35.0692534" lon="32.4729552">
<ele>20.46</ele>
<time>2015-04-26T14:51:20Z</time>
</trkpt>
<trkpt lat="35.0692276" lon="32.4729078">
<ele>20.19</ele>
<time>2015-04-26T14:51:21Z</time>
</trkpt>
<trkpt lat="35.0691624" lon="32.4728193">
<ele>19.49</ele>
<time>2015-04-26T14:51:23Z</time>
</trkpt>
<trkpt lat="35.0691260" lon="32.4727800">
<ele>19.21</ele>
<time>2015-04-26T14:51:24Z</time>
</trkpt>
<trkpt lat="35.0690883" lon="32.4727347">
<ele>19.57</ele>
<time>2015-04-26T14:51:25Z</time>
</trkpt>
<trkpt lat="35.0690232" lon="32.4726599">
<ele>19.84</ele>
<time>2015-04-26T14:51:27Z</time>
</trkpt>
<trkpt lat="35.0689951" lon="32.4726125">
<ele>19.88</ele>
<time>2015-04-26T14:51:28Z</time>
</trkpt>
<trkpt lat="35.0689366" lon="32.4725232">
<ele>20.16</ele>
<time>2015-04-26T14:51:30Z</time>
</trkpt>
<trkpt lat="35.0689093" lon="32.4724676">
<ele>19.54</ele>
<time>2015-04-26T14:51:31Z</time>
</trkpt>
<trkpt lat="35.0688730" lon="32.4724181">
<ele>19.23</ele>
<time>2015-04-26T14:51:32Z</time>
</trkpt>
<trkpt lat="35.0688359" lon="32.4723748">
<ele>19.08</ele>
<time>2015-04-26T14:51:33Z</time>
</trkpt>
<trkpt lat="35.0688062" lon="32.4723284">
<ele>19.00</ele>
<time>2015-04-26T14:51:34Z</time>
</trkpt>
<trkpt lat="35.0687415" lon="32.4722489">
<ele>19.69</ele>
<time>2015-04-26T14:51:36Z</time>
</trkpt>
<trkpt lat="35.0687152" lon="32.4722000">
<ele>19.81</ele>
<time>2015-04-26T14:51:37Z</time>
</trkpt>
<trkpt lat="35.0686548" lon="32.4721174">
<ele>20.40</ele>
<time>2015-04-26T14:51:39Z</time>
</trkpt>
<trkpt lat="35.0686224" lon="32.4720752">
<ele>20.66</ele>
<time>2015-04-26T14:51:40Z</time>
</trkpt>
<trkpt lat="35.0685916" lon="32.4720338">
<ele>20.29</ele>
<time>2015-04-26T14:51:41Z</time>
</trkpt>
<trkpt lat="35.0685574" lon="32.4719930">
<ele>20.61</ele>
<time>2015-04-26T14:51:42Z</time>
</trkpt>
<trkpt lat="35.0685274" lon="32.4719360">
<ele>20.77</ele>
<time>2015-04-26T14:51:43Z</time>
</trkpt>
<trkpt lat="35.0684862" lon="32.4718907">
<ele>20.35</ele>
<time>2015-04-26T14:51:44Z</time>
</trkpt>
<trkpt lat="35.0684480" lon="32.4718467">
<ele>20.14</ele>
<time>2015-04-26T14:51:45Z</time>
</trkpt>
<trkpt lat="35.0684184" lon="32.4717984">
<ele>20.03</ele>
<time>2015-04-26T14:51:46Z</time>
</trkpt>
<trkpt lat="35.0683906" lon="32.4717326">
<ele>18.98</ele>
<time>2015-04-26T14:51:47Z</time>
</trkpt>
<trkpt lat="35.0683545" lon="32.4716949">
<ele>18.45</ele>
<time>2015-04-26T14:51:48Z</time>
</trkpt>
<trkpt lat="35.0683150" lon="32.4716554">
<ele>18.19</ele>
<time>2015-04-26T14:51:49Z</time>
</trkpt>
<trkpt lat="35.0682876" lon="32.4716012">
<ele>18.56</ele>
<time>2015-04-26T14:51:50Z</time>
</trkpt>
<trkpt lat="35.0682499" lon="32.4715589">
<ele>18.74</ele>
<time>2015-04-26T14:51:51Z</time>
</trkpt>
<trkpt lat="35.0682185" lon="32.4715121">
<ele>18.33</ele>
<time>2015-04-26T14:51:52Z</time>
</trkpt>
<trkpt lat="35.0681864" lon="32.4714663">
<ele>18.63</ele>
<time>2015-04-26T14:51:53Z</time>
</trkpt>
<trkpt lat="35.0681556" lon="32.4714182">
<ele>19.28</ele>
<time>2015-04-26T14:51:54Z</time>
</trkpt>
<trkpt lat="35.0681221" lon="32.4713536">
<ele>18.60</ele>
<time>2015-04-26T14:51:55Z</time>
</trkpt>
<trkpt lat="35.0680837" lon="32.4713090">
<ele>18.26</ele>
<time>2015-04-26T14:51:56Z</time>
</trkpt>
<trkpt lat="35.0680521" lon="32.4712669">
<ele>18.09</ele>
<time>2015-04-26T14:51:57Z</time>
</trkpt>
<trkpt lat="35.0680144" lon="32.4712345">
<ele>18.01</ele>
<time>2015-04-26T14:51:58Z</time>
</trkpt>
<trkpt lat="35.0679848" lon="32.4711893">
<ele>18.47</ele>
<time>2015-04-26T14:51:59Z</time>
</trkpt>
<trkpt lat="35.0679269" lon="32.4711071">
<ele>18.81</ele>
<time>2015-04-26T14:52:01Z</time>
</trkpt>
<trkpt lat="35.0678644" lon="32.4710358">
<ele>18.90</ele>
<time>2015-04-26T14:52:03Z</time>
</trkpt>
<trkpt lat="35.0678166" lon="32.4709681">
<ele>18.92</ele>
<time>2015-04-26T14:52:05Z</time>
</trkpt>
<trkpt lat="35.0677588" lon="32.4708926">
<ele>18.92</ele>
<time>2015-04-26T14:52:07Z</time>
</trkpt>
<trkpt lat="35.0677199" lon="32.4708537">
<ele>18.92</ele>
<time>2015-04-26T14:52:08Z</time>
</trkpt>
<trkpt lat="35.0676577" lon="32.4707775">
<ele>18.92</ele>
<time>2015-04-26T14:52:10Z</time>
</trkpt>
<trkpt lat="35.0676141" lon="32.4707102">
<ele>19.67</ele>
<time>2015-04-26T14:52:12Z</time>
</trkpt>
<trkpt lat="35.0675718" lon="32.4706474">
<ele>19.86</ele>
<time>2015-04-26T14:52:14Z</time>
</trkpt>
<trkpt lat="35.0675225" lon="32.4705856">
<ele>19.91</ele>
<time>2015-04-26T14:52:16Z</time>
</trkpt>
<trkpt lat="35.0674760" lon="32.4705214">
<ele>19.92</ele>
<time>2015-04-26T14:52:18Z</time>
</trkpt>
<trkpt lat="35.0674224" lon="32.4704537">
<ele>19.92</ele>
<time>2015-04-26T14:52:20Z</time>
</trkpt>
<trkpt lat="35.0673493" lon="32.4703749">
<ele>19.42</ele>
<time>2015-04-26T14:52:22Z</time>
</trkpt>
<trkpt lat="35.0672870" lon="32.4703034">
<ele>18.55</ele>
<time>2015-04-26T14:52:24Z</time>
</trkpt>
<trkpt lat="35.0672212" lon="32.4702303">
<ele>17.58</ele>
<time>2015-04-26T14:52:26Z</time>
</trkpt>
<trkpt lat="35.0671637" lon="32.4701615">
<ele>17.59</ele>
<time>2015-04-26T14:52:28Z</time>
</trkpt>
<trkpt lat="35.0671065" lon="32.4700918">
<ele>18.59</ele>
<time>2015-04-26T14:52:30Z</time>
</trkpt>
<trkpt lat="35.0670453" lon="32.4700156">
<ele>18.84</ele>
<time>2015-04-26T14:52:32Z</time>
</trkpt>
<trkpt lat="35.0669815" lon="32.4699498">
<ele>18.90</ele>
<time>2015-04-26T14:52:34Z</time>
</trkpt>
<trkpt lat="35.0669200" lon="32.4698834">
<ele>18.17</ele>
<time>2015-04-26T14:52:36Z</time>
</trkpt>
<trkpt lat="35.0668639" lon="32.4698218">
<ele>17.99</ele>
<time>2015-04-26T14:52:38Z</time>
</trkpt>
<trkpt lat="35.0668112" lon="32.4697640">
<ele>17.94</ele>
<time>2015-04-26T14:52:40Z</time>
</trkpt>
<trkpt lat="35.0667623" lon="32.4697058">
<ele>17.93</ele>
<time>2015-04-26T14:52:42Z</time>
</trkpt>
<trkpt lat="35.0667162" lon="32.4696502">
<ele>17.93</ele>
<time>2015-04-26T14:52:44Z</time>
</trkpt>
<trkpt lat="35.0666666" lon="32.4696000">
<ele>17.18</ele>
<time>2015-04-26T14:52:46Z</time>
</trkpt>
<trkpt lat="35.0666185" lon="32.4695490">
<ele>16.74</ele>
<time>2015-04-26T14:52:48Z</time>
</trkpt>
<trkpt lat="35.0665701" lon="32.4695018">
<ele>18.13</ele>
<time>2015-04-26T14:52:50Z</time>
</trkpt>
<trkpt lat="35.0665296" lon="32.4694691">
<ele>18.98</ele>
<time>2015-04-26T14:52:52Z</time>
</trkpt>
<trkpt lat="35.0664890" lon="32.4694437">
<ele>21.81</ele>
<time>2015-04-26T14:53:05Z</time>
</trkpt>
<trkpt lat="35.0664393" lon="32.4694044">
<ele>18.75</ele>
<time>2015-04-26T15:01:29Z</time>
</trkpt>
<trkpt lat="35.0664119" lon="32.4693572">
<ele>18.13</ele>
<time>2015-04-26T15:01:31Z</time>
</trkpt>
<trkpt lat="35.0663870" lon="32.4692810">
<ele>17.95</ele>
<time>2015-04-26T15:01:34Z</time>
</trkpt>
<trkpt lat="35.0663457" lon="32.4692277">
<ele>17.93</ele>
<time>2015-04-26T15:01:36Z</time>
</trkpt>
<trkpt lat="35.0662927" lon="32.4691588">
<ele>20.43</ele>
<time>2015-04-26T15:01:38Z</time>
</trkpt>
<trkpt lat="35.0662461" lon="32.4690906">
<ele>21.55</ele>
<time>2015-04-26T15:01:40Z</time>
</trkpt>
<trkpt lat="35.0662060" lon="32.4690190">
<ele>21.83</ele>
<time>2015-04-26T15:01:42Z</time>
</trkpt>
<trkpt lat="35.0661636" lon="32.4689440">
<ele>21.90</ele>
<time>2015-04-26T15:01:44Z</time>
</trkpt>
<trkpt lat="35.0661188" lon="32.4688704">
<ele>21.92</ele>
<time>2015-04-26T15:01:46Z</time>
</trkpt>
<trkpt lat="35.0660756" lon="32.4688012">
<ele>21.92</ele>
<time>2015-04-26T15:01:48Z</time>
</trkpt>
<trkpt lat="35.0660347" lon="32.4687356">
<ele>21.92</ele>
<time>2015-04-26T15:01:50Z</time>
</trkpt>
<trkpt lat="35.0659964" lon="32.4686638">
<ele>21.92</ele>
<time>2015-04-26T15:01:52Z</time>
</trkpt>
<trkpt lat="35.0659508" lon="32.4685770">
<ele>21.92</ele>
<time>2015-04-26T15:01:54Z</time>
</trkpt>
<trkpt lat="35.0659234" lon="32.4685311">
<ele>21.92</ele>
<time>2015-04-26T15:01:55Z</time>
</trkpt>
<trkpt lat="35.0658973" lon="32.4684854">
<ele>21.92</ele>
<time>2015-04-26T15:01:56Z</time>
</trkpt>
<trkpt lat="35.0658525" lon="32.4683912">
<ele>21.92</ele>
<time>2015-04-26T15:01:58Z</time>
</trkpt>
<trkpt lat="35.0658081" lon="32.4682993">
<ele>21.92</ele>
<time>2015-04-26T15:02:00Z</time>
</trkpt>
<trkpt lat="35.0657628" lon="32.4682097">
<ele>21.92</ele>
<time>2015-04-26T15:02:02Z</time>
</trkpt>
<trkpt lat="35.0657159" lon="32.4681228">
<ele>21.92</ele>
<time>2015-04-26T15:02:04Z</time>
</trkpt>
<trkpt lat="35.0656721" lon="32.4680358">
<ele>21.17</ele>
<time>2015-04-26T15:02:06Z</time>
</trkpt>
<trkpt lat="35.0656292" lon="32.4679535">
<ele>20.99</ele>
<time>2015-04-26T15:02:08Z</time>
</trkpt>
<trkpt lat="35.0655940" lon="32.4678860">
<ele>20.94</ele>
<time>2015-04-26T15:02:10Z</time>
</trkpt>
<trkpt lat="35.0655570" lon="32.4678169">
<ele>20.93</ele>
<time>2015-04-26T15:02:12Z</time>
</trkpt>
<trkpt lat="35.0655272" lon="32.4677427">
<ele>20.93</ele>
<time>2015-04-26T15:02:14Z</time>
</trkpt>
<trkpt lat="35.0655214" lon="32.4676603">
<ele>20.93</ele>
<time>2015-04-26T15:02:16Z</time>
</trkpt>
<trkpt lat="35.0655412" lon="32.4675776">
<ele>20.93</ele>
<time>2015-04-26T15:02:18Z</time>
</trkpt>
<trkpt lat="35.0655492" lon="32.4674947">
<ele>20.93</ele>
<time>2015-04-26T15:02:20Z</time>
</trkpt>
<trkpt lat="35.0655442" lon="32.4674144">
<ele>20.93</ele>
<time>2015-04-26T15:02:22Z</time>
</trkpt>
<trkpt lat="35.0655228" lon="32.4673546">
<ele>20.93</ele>
<time>2015-04-26T15:02:24Z</time>
</trkpt>
<trkpt lat="35.0654836" lon="32.4673078">
<ele>20.92</ele>
<time>2015-04-26T15:02:27Z</time>
</trkpt>
<trkpt lat="35.0654373" lon="32.4673379">
<ele>19.33</ele>
<time>2015-04-26T15:12:34Z</time>
</trkpt>
<trkpt lat="35.0653738" lon="32.4673493">
<ele>18.98</ele>
<time>2015-04-26T15:12:37Z</time>
</trkpt>
<trkpt lat="35.0653232" lon="32.4673365">
<ele>18.94</ele>
<time>2015-04-26T15:12:39Z</time>
</trkpt>
<trkpt lat="35.0652746" lon="32.4672951">
<ele>18.68</ele>
<time>2015-04-26T15:12:41Z</time>
</trkpt>
<trkpt lat="35.0652359" lon="32.4672247">
<ele>18.86</ele>
<time>2015-04-26T15:12:43Z</time>
</trkpt>
<trkpt lat="35.0652129" lon="32.4671746">
<ele>18.39</ele>
<time>2015-04-26T15:12:44Z</time>
</trkpt>
<trkpt lat="35.0651686" lon="32.4670854">
<ele>17.29</ele>
<time>2015-04-26T15:12:46Z</time>
</trkpt>
<trkpt lat="35.0651246" lon="32.4669954">
<ele>17.02</ele>
<time>2015-04-26T15:12:48Z</time>
</trkpt>
<trkpt lat="35.0650800" lon="32.4669136">
<ele>16.45</ele>
<time>2015-04-26T15:12:50Z</time>
</trkpt>
<trkpt lat="35.0650431" lon="32.4668493">
<ele>16.06</ele>
<time>2015-04-26T15:12:52Z</time>
</trkpt>
<trkpt lat="35.0650022" lon="32.4667775">
<ele>15.96</ele>
<time>2015-04-26T15:12:54Z</time>
</trkpt>
<trkpt lat="35.0649600" lon="32.4667082">
<ele>15.93</ele>
<time>2015-04-26T15:12:56Z</time>
</trkpt>
<trkpt lat="35.0649217" lon="32.4666403">
<ele>15.93</ele>
<time>2015-04-26T15:12:58Z</time>
</trkpt>
<trkpt lat="35.0648817" lon="32.4665722">
<ele>15.43</ele>
<time>2015-04-26T15:13:00Z</time>
</trkpt>
<trkpt lat="35.0648346" lon="32.4665020">
<ele>15.05</ele>
<time>2015-04-26T15:13:02Z</time>
</trkpt>
<trkpt lat="35.0647884" lon="32.4664269">
<ele>14.46</ele>
<time>2015-04-26T15:13:04Z</time>
</trkpt>
<trkpt lat="35.0647403" lon="32.4663516">
<ele>13.56</ele>
<time>2015-04-26T15:13:06Z</time>
</trkpt>
<trkpt lat="35.0647113" lon="32.4663080">
<ele>13.24</ele>
<time>2015-04-26T15:13:07Z</time>
</trkpt>
<trkpt lat="35.0646820" lon="32.4662648">
<ele>13.08</ele>
<time>2015-04-26T15:13:08Z</time>
</trkpt>
<trkpt lat="35.0646450" lon="32.4662201">
<ele>12.50</ele>
<time>2015-04-26T15:13:09Z</time>
</trkpt>
<trkpt lat="35.0646140" lon="32.4661799">
<ele>12.21</ele>
<time>2015-04-26T15:13:10Z</time>
</trkpt>
<trkpt lat="35.0645806" lon="32.4661394">
<ele>12.07</ele>
<time>2015-04-26T15:13:11Z</time>
</trkpt>
<trkpt lat="35.0645425" lon="32.4661060">
<ele>12.00</ele>
<time>2015-04-26T15:13:12Z</time>
</trkpt>
<trkpt lat="35.0644857" lon="32.4660329">
<ele>11.19</ele>
<time>2015-04-26T15:13:14Z</time>
</trkpt>
<trkpt lat="35.0644250" lon="32.4659697">
<ele>10.99</ele>
<time>2015-04-26T15:13:16Z</time>
</trkpt>
<trkpt lat="35.0643747" lon="32.4659104">
<ele>11.69</ele>
<time>2015-04-26T15:13:18Z</time>
</trkpt>
<trkpt lat="35.0643231" lon="32.4658576">
<ele>11.87</ele>
<time>2015-04-26T15:13:20Z</time>
</trkpt>
<trkpt lat="35.0642764" lon="32.4658017">
<ele>11.91</ele>
<time>2015-04-26T15:13:22Z</time>
</trkpt>
<trkpt lat="35.0642299" lon="32.4657521">
<ele>12.42</ele>
<time>2015-04-26T15:13:24Z</time>
</trkpt>
<trkpt lat="35.0641858" lon="32.4657035">
<ele>12.80</ele>
<time>2015-04-26T15:13:26Z</time>
</trkpt>
<trkpt lat="35.0641443" lon="32.4656555">
<ele>12.14</ele>
<time>2015-04-26T15:13:28Z</time>
</trkpt>
<trkpt lat="35.0641025" lon="32.4656112">
<ele>11.98</ele>
<time>2015-04-26T15:13:30Z</time>
</trkpt>
<trkpt lat="35.0640709" lon="32.4655716">
<ele>12.19</ele>
<time>2015-04-26T15:13:32Z</time>
</trkpt>
<trkpt lat="35.0640378" lon="32.4655287">
<ele>12.49</ele>
<time>2015-04-26T15:13:34Z</time>
</trkpt>
<trkpt lat="35.0640004" lon="32.4654887">
<ele>12.57</ele>
<time>2015-04-26T15:13:36Z</time>
</trkpt>
<trkpt lat="35.0639610" lon="32.4654448">
<ele>12.84</ele>
<time>2015-04-26T15:13:38Z</time>
</trkpt>
<trkpt lat="35.0639104" lon="32.4653818">
<ele>12.90</ele>
<time>2015-04-26T15:13:40Z</time>
</trkpt>
<trkpt lat="35.0638499" lon="32.4653115">
<ele>12.92</ele>
<time>2015-04-26T15:13:42Z</time>
</trkpt>
<trkpt lat="35.0637918" lon="32.4652442">
<ele>13.42</ele>
<time>2015-04-26T15:13:44Z</time>
</trkpt>
<trkpt lat="35.0637417" lon="32.4651746">
<ele>13.80</ele>
<time>2015-04-26T15:13:46Z</time>
</trkpt>
<trkpt lat="35.0636997" lon="32.4651167">
<ele>13.89</ele>
<time>2015-04-26T15:13:48Z</time>
</trkpt>
<trkpt lat="35.0636654" lon="32.4650769">
<ele>13.17</ele>
<time>2015-04-26T15:13:50Z</time>
</trkpt>
<trkpt lat="35.0636152" lon="32.4650256">
<ele>12.71</ele>
<time>2015-04-26T15:13:53Z</time>
</trkpt>
<trkpt lat="35.0635740" lon="32.4649987">
<ele>12.37</ele>
<time>2015-04-26T15:13:55Z</time>
</trkpt>
<trkpt lat="35.0635362" lon="32.4649585">
<ele>12.04</ele>
<time>2015-04-26T15:13:57Z</time>
</trkpt>
<trkpt lat="35.0634834" lon="32.4648909">
<ele>11.95</ele>
<time>2015-04-26T15:13:59Z</time>
</trkpt>
<trkpt lat="35.0634486" lon="32.4648527">
<ele>11.94</ele>
<time>2015-04-26T15:14:00Z</time>
</trkpt>
<trkpt lat="35.0634104" lon="32.4648104">
<ele>11.43</ele>
<time>2015-04-26T15:14:01Z</time>
</trkpt>
<trkpt lat="35.0633756" lon="32.4647661">
<ele>11.18</ele>
<time>2015-04-26T15:14:02Z</time>
</trkpt>
<trkpt lat="35.0633372" lon="32.4647277">
<ele>11.05</ele>
<time>2015-04-26T15:14:03Z</time>
</trkpt>
<trkpt lat="35.0633061" lon="32.4646859">
<ele>10.99</ele>
<time>2015-04-26T15:14:04Z</time>
</trkpt>
<trkpt lat="35.0632490" lon="32.4646077">
<ele>10.94</ele>
<time>2015-04-26T15:14:06Z</time>
</trkpt>
<trkpt lat="35.0632185" lon="32.4645667">
<ele>10.93</ele>
<time>2015-04-26T15:14:07Z</time>
</trkpt>
<trkpt lat="35.0631726" lon="32.4644952">
<ele>10.93</ele>
<time>2015-04-26T15:14:09Z</time>
</trkpt>
<trkpt lat="35.0631251" lon="32.4644313">
<ele>10.93</ele>
<time>2015-04-26T15:14:11Z</time>
</trkpt>
<trkpt lat="35.0630772" lon="32.4643692">
<ele>10.93</ele>
<time>2015-04-26T15:14:13Z</time>
</trkpt>
<trkpt lat="35.0630271" lon="32.4643112">
<ele>10.93</ele>
<time>2015-04-26T15:14:15Z</time>
</trkpt>
<trkpt lat="35.0629800" lon="32.4642466">
<ele>10.18</ele>
<time>2015-04-26T15:14:17Z</time>
</trkpt>
<trkpt lat="35.0629315" lon="32.4641797">
<ele>9.99</ele>
<time>2015-04-26T15:14:19Z</time>
</trkpt>
<trkpt lat="35.0628861" lon="32.4641135">
<ele>9.94</ele>
<time>2015-04-26T15:14:21Z</time>
</trkpt>
<trkpt lat="35.0628401" lon="32.4640497">
<ele>9.93</ele>
<time>2015-04-26T15:14:23Z</time>
</trkpt>
<trkpt lat="35.0627881" lon="32.4639814">
<ele>9.18</ele>
<time>2015-04-26T15:14:25Z</time>
</trkpt>
<trkpt lat="35.0627509" lon="32.4639231">
<ele>9.05</ele>
<time>2015-04-26T15:14:26Z</time>
</trkpt>
<trkpt lat="35.0626934" lon="32.4638396">
<ele>8.96</ele>
<time>2015-04-26T15:14:28Z</time>
</trkpt>
<trkpt lat="35.0626324" lon="32.4637675">
<ele>9.68</ele>
<time>2015-04-26T15:14:30Z</time>
</trkpt>
<trkpt lat="35.0625792" lon="32.4637056">
<ele>9.86</ele>
<time>2015-04-26T15:14:32Z</time>
</trkpt>
<trkpt lat="35.0625403" lon="32.4636394">
<ele>9.91</ele>
<time>2015-04-26T15:14:34Z</time>
</trkpt>
<trkpt lat="35.0624986" lon="32.4635752">
<ele>9.92</ele>
<time>2015-04-26T15:14:36Z</time>
</trkpt>
<trkpt lat="35.0624601" lon="32.4635148">
<ele>10.67</ele>
<time>2015-04-26T15:14:38Z</time>
</trkpt>
<trkpt lat="35.0624197" lon="32.4634558">
<ele>10.86</ele>
<time>2015-04-26T15:14:40Z</time>
</trkpt>
<trkpt lat="35.0623770" lon="32.4633987">
<ele>11.66</ele>
<time>2015-04-26T15:14:42Z</time>
</trkpt>
<trkpt lat="35.0623343" lon="32.4633355">
<ele>11.86</ele>
<time>2015-04-26T15:14:44Z</time>
</trkpt>
<trkpt lat="35.0622899" lon="32.4632709">
<ele>11.91</ele>
<time>2015-04-26T15:14:46Z</time>
</trkpt>
<trkpt lat="35.0622454" lon="32.4632072">
<ele>11.92</ele>
<time>2015-04-26T15:14:48Z</time>
</trkpt>
<trkpt lat="35.0621997" lon="32.4631425">
<ele>11.92</ele>
<time>2015-04-26T15:14:50Z</time>
</trkpt>
<trkpt lat="35.0621546" lon="32.4630765">
<ele>11.92</ele>
<time>2015-04-26T15:14:52Z</time>
</trkpt>
<trkpt lat="35.0621048" lon="32.4630060">
<ele>11.17</ele>
<time>2015-04-26T15:14:54Z</time>
</trkpt>
<trkpt lat="35.0620544" lon="32.4629358">
<ele>10.49</ele>
<time>2015-04-26T15:14:56Z</time>
</trkpt>
<trkpt lat="35.0620063" lon="32.4628697">
<ele>10.07</ele>
<time>2015-04-26T15:14:58Z</time>
</trkpt>
<trkpt lat="35.0619616" lon="32.4628117">
<ele>9.96</ele>
<time>2015-04-26T15:15:00Z</time>
</trkpt>
<trkpt lat="35.0619186" lon="32.4627533">
<ele>10.68</ele>
<time>2015-04-26T15:15:02Z</time>
</trkpt>
<trkpt lat="35.0618814" lon="32.4626946">
<ele>10.61</ele>
<time>2015-04-26T15:15:04Z</time>
</trkpt>
<trkpt lat="35.0618407" lon="32.4626452">
<ele>10.35</ele>
<time>2015-04-26T15:15:06Z</time>
</trkpt>
<trkpt lat="35.0618082" lon="32.4626015">
<ele>10.03</ele>
<time>2015-04-26T15:15:08Z</time>
</trkpt>
<trkpt lat="35.0617745" lon="32.4625417">
<ele>9.69</ele>
<time>2015-04-26T15:15:11Z</time>
</trkpt>
<trkpt lat="35.0617448" lon="32.4624967">
<ele>9.87</ele>
<time>2015-04-26T15:15:13Z</time>
</trkpt>
<trkpt lat="35.0616909" lon="32.4624068">
<ele>10.66</ele>
<time>2015-04-26T15:15:15Z</time>
</trkpt>
<trkpt lat="35.0616582" lon="32.4623630">
<ele>10.79</ele>
<time>2015-04-26T15:15:16Z</time>
</trkpt>
<trkpt lat="35.0616103" lon="32.4623096">
<ele>10.86</ele>
<time>2015-04-26T15:15:17Z</time>
</trkpt>
<trkpt lat="35.0615782" lon="32.4622676">
<ele>11.39</ele>
<time>2015-04-26T15:15:18Z</time>
</trkpt>
<trkpt lat="35.0615519" lon="32.4622204">
<ele>11.16</ele>
<time>2015-04-26T15:15:19Z</time>
</trkpt>
<trkpt lat="35.0615207" lon="32.4621799">
<ele>11.04</ele>
<time>2015-04-26T15:15:20Z</time>
</trkpt>
<trkpt lat="35.0614640" lon="32.4621050">
<ele>11.70</ele>
<time>2015-04-26T15:15:22Z</time>
</trkpt>
<trkpt lat="35.0614049" lon="32.4620404">
<ele>11.37</ele>
<time>2015-04-26T15:15:24Z</time>
</trkpt>
<trkpt lat="35.0613496" lon="32.4619628">
<ele>11.29</ele>
<time>2015-04-26T15:15:26Z</time>
</trkpt>
<trkpt lat="35.0612926" lon="32.4618800">
<ele>10.52</ele>
<time>2015-04-26T15:15:28Z</time>
</trkpt>
<trkpt lat="35.0612621" lon="32.4618361">
<ele>10.72</ele>
<time>2015-04-26T15:15:29Z</time>
</trkpt>
<trkpt lat="35.0612076" lon="32.4617646">
<ele>10.12</ele>
<time>2015-04-26T15:15:31Z</time>
</trkpt>
<trkpt lat="35.0611602" lon="32.4616962">
<ele>9.97</ele>
<time>2015-04-26T15:15:33Z</time>
</trkpt>
<trkpt lat="35.0611153" lon="32.4616283">
<ele>9.19</ele>
<time>2015-04-26T15:15:35Z</time>
</trkpt>
<trkpt lat="35.0610752" lon="32.4615680">
<ele>9.74</ele>
<time>2015-04-26T15:15:37Z</time>
</trkpt>
<trkpt lat="35.0610350" lon="32.4615127">
<ele>9.88</ele>
<time>2015-04-26T15:15:39Z</time>
</trkpt>
<trkpt lat="35.0609894" lon="32.4614520">
<ele>9.91</ele>
<time>2015-04-26T15:15:41Z</time>
</trkpt>
<trkpt lat="35.0609318" lon="32.4613766">
<ele>10.17</ele>
<time>2015-04-26T15:15:43Z</time>
</trkpt>
<trkpt lat="35.0608765" lon="32.4612978">
<ele>10.74</ele>
<time>2015-04-26T15:15:45Z</time>
</trkpt>
<trkpt lat="35.0608215" lon="32.4612202">
<ele>10.88</ele>
<time>2015-04-26T15:15:47Z</time>
</trkpt>
<trkpt lat="35.0607705" lon="32.4611417">
<ele>10.91</ele>
<time>2015-04-26T15:15:49Z</time>
</trkpt>
<trkpt lat="35.0607162" lon="32.4610626">
<ele>10.42</ele>
<time>2015-04-26T15:15:51Z</time>
</trkpt>
<trkpt lat="35.0606588" lon="32.4609690">
<ele>10.05</ele>
<time>2015-04-26T15:15:53Z</time>
</trkpt>
<trkpt lat="35.0606289" lon="32.4609184">
<ele>10.49</ele>
<time>2015-04-26T15:15:54Z</time>
</trkpt>
<trkpt lat="35.0606015" lon="32.4608727">
<ele>10.71</ele>
<time>2015-04-26T15:15:55Z</time>
</trkpt>
<trkpt lat="35.0605512" lon="32.4607839">
<ele>10.87</ele>
<time>2015-04-26T15:15:57Z</time>
</trkpt>
<trkpt lat="35.0605211" lon="32.4607348">
<ele>10.90</ele>
<time>2015-04-26T15:15:58Z</time>
</trkpt>
<trkpt lat="35.0604726" lon="32.4606417">
<ele>10.92</ele>
<time>2015-04-26T15:16:00Z</time>
</trkpt>
<trkpt lat="35.0604504" lon="32.4605932">
<ele>10.92</ele>
<time>2015-04-26T15:16:01Z</time>
</trkpt>
<trkpt lat="35.0604279" lon="32.4605439">
<ele>10.92</ele>
<time>2015-04-26T15:16:02Z</time>
</trkpt>
<trkpt lat="35.0604058" lon="32.4604942">
<ele>10.42</ele>
<time>2015-04-26T15:16:03Z</time>
</trkpt>
<trkpt lat="35.0603822" lon="32.4604410">
<ele>10.17</ele>
<time>2015-04-26T15:16:04Z</time>
</trkpt>
<trkpt lat="35.0603549" lon="32.4603851">
<ele>10.05</ele>
<time>2015-04-26T15:16:05Z</time>
</trkpt>
<trkpt lat="35.0603333" lon="32.4603316">
<ele>9.99</ele>
<time>2015-04-26T15:16:06Z</time>
</trkpt>
<trkpt lat="35.0603146" lon="32.4602755">
<ele>9.96</ele>
<time>2015-04-26T15:16:07Z</time>
</trkpt>
<trkpt lat="35.0602962" lon="32.4602219">
<ele>9.94</ele>
<time>2015-04-26T15:16:08Z</time>
</trkpt>
<trkpt lat="35.0602734" lon="32.4601647">
<ele>9.93</ele>
<time>2015-04-26T15:16:09Z</time>
</trkpt>
<trkpt lat="35.0602501" lon="32.4601070">
<ele>10.43</ele>
<time>2015-04-26T15:16:10Z</time>
</trkpt>
<trkpt lat="35.0602298" lon="32.4600515">
<ele>10.68</ele>
<time>2015-04-26T15:16:11Z</time>
</trkpt>
<trkpt lat="35.0602046" lon="32.4599864">
<ele>11.30</ele>
<time>2015-04-26T15:16:12Z</time>
</trkpt>
<trkpt lat="35.0601889" lon="32.4599292">
<ele>11.11</ele>
<time>2015-04-26T15:16:13Z</time>
</trkpt>
<trkpt lat="35.0601736" lon="32.4598727">
<ele>11.02</ele>
<time>2015-04-26T15:16:14Z</time>
</trkpt>
<trkpt lat="35.0601619" lon="32.4598169">
<ele>11.47</ele>
<time>2015-04-26T15:16:15Z</time>
</trkpt>
<trkpt lat="35.0601174" lon="32.4597214">
<ele>11.31</ele>
<time>2015-04-26T15:16:17Z</time>
</trkpt>
<trkpt lat="35.0600944" lon="32.4596727">
<ele>11.12</ele>
<time>2015-04-26T15:16:18Z</time>
</trkpt>
<trkpt lat="35.0600854" lon="32.4596138">
<ele>11.02</ele>
<time>2015-04-26T15:16:19Z</time>
</trkpt>
<trkpt lat="35.0600513" lon="32.4595102">
<ele>10.45</ele>
<time>2015-04-26T15:16:21Z</time>
</trkpt>
<trkpt lat="35.0600292" lon="32.4594576">
<ele>10.69</ele>
<time>2015-04-26T15:16:22Z</time>
</trkpt>
<trkpt lat="35.0600032" lon="32.4594030">
<ele>10.81</ele>
<time>2015-04-26T15:16:23Z</time>
</trkpt>
<trkpt lat="35.0599777" lon="32.4593427">
<ele>11.87</ele>
<time>2015-04-26T15:16:24Z</time>
</trkpt>
<trkpt lat="35.0599604" lon="32.4592831">
<ele>11.90</ele>
<time>2015-04-26T15:16:25Z</time>
</trkpt>
<trkpt lat="35.0599353" lon="32.4592258">
<ele>11.91</ele>
<time>2015-04-26T15:16:26Z</time>
</trkpt>
<trkpt lat="35.0599040" lon="32.4591717">
<ele>11.92</ele>
<time>2015-04-26T15:16:27Z</time>
</trkpt>
<trkpt lat="35.0598718" lon="32.4591161">
<ele>11.92</ele>
<time>2015-04-26T15:16:28Z</time>
</trkpt>
<trkpt lat="35.0598474" lon="32.4590535">
<ele>11.92</ele>
<time>2015-04-26T15:16:29Z</time>
</trkpt>
<trkpt lat="35.0598198" lon="32.4590050">
<ele>11.92</ele>
<time>2015-04-26T15:16:30Z</time>
</trkpt>
<trkpt lat="35.0597894" lon="32.4589527">
<ele>11.92</ele>
<time>2015-04-26T15:16:31Z</time>
</trkpt>
<trkpt lat="35.0597528" lon="32.4589086">
<ele>11.92</ele>
<time>2015-04-26T15:16:32Z</time>
</trkpt>
<trkpt lat="35.0597190" lon="32.4588626">
<ele>11.92</ele>
<time>2015-04-26T15:16:33Z</time>
</trkpt>
<trkpt lat="35.0596848" lon="32.4588218">
<ele>11.92</ele>
<time>2015-04-26T15:16:34Z</time>
</trkpt>
<trkpt lat="35.0596274" lon="32.4587277">
<ele>12.67</ele>
<time>2015-04-26T15:16:36Z</time>
</trkpt>
<trkpt lat="35.0595866" lon="32.4586822">
<ele>12.80</ele>
<time>2015-04-26T15:16:37Z</time>
</trkpt>
<trkpt lat="35.0595488" lon="32.4586406">
<ele>12.86</ele>
<time>2015-04-26T15:16:38Z</time>
</trkpt>
<trkpt lat="35.0595171" lon="32.4585967">
<ele>13.39</ele>
<time>2015-04-26T15:16:39Z</time>
</trkpt>
<trkpt lat="35.0594858" lon="32.4585564">
<ele>13.66</ele>
<time>2015-04-26T15:16:40Z</time>
</trkpt>
<trkpt lat="35.0594519" lon="32.4585195">
<ele>13.79</ele>
<time>2015-04-26T15:16:41Z</time>
</trkpt>
<trkpt lat="35.0593864" lon="32.4584440">
<ele>13.89</ele>
<time>2015-04-26T15:16:43Z</time>
</trkpt>
<trkpt lat="35.0593167" lon="32.4583620">
<ele>13.17</ele>
<time>2015-04-26T15:16:45Z</time>
</trkpt>
<trkpt lat="35.0592786" lon="32.4583205">
<ele>13.05</ele>
<time>2015-04-26T15:16:46Z</time>
</trkpt>
<trkpt lat="35.0592374" lon="32.4582804">
<ele>12.99</ele>
<time>2015-04-26T15:16:47Z</time>
</trkpt>
<trkpt lat="35.0591982" lon="32.4582330">
<ele>12.96</ele>
<time>2015-04-26T15:16:48Z</time>
</trkpt>
<trkpt lat="35.0591569" lon="32.4581847">
<ele>12.94</ele>
<time>2015-04-26T15:16:49Z</time>
</trkpt>
<trkpt lat="35.0591134" lon="32.4581360">
<ele>12.93</ele>
<time>2015-04-26T15:16:50Z</time>
</trkpt>
<trkpt lat="35.0590696" lon="32.4580867">
<ele>12.93</ele>
<time>2015-04-26T15:16:51Z</time>
</trkpt>
<trkpt lat="35.0590275" lon="32.4580284">
<ele>12.93</ele>
<time>2015-04-26T15:16:52Z</time>
</trkpt>
<trkpt lat="35.0589811" lon="32.4579690">
<ele>12.93</ele>
<time>2015-04-26T15:16:53Z</time>
</trkpt>
<trkpt lat="35.0589371" lon="32.4579121">
<ele>12.93</ele>
<time>2015-04-26T15:16:54Z</time>
</trkpt>
<trkpt lat="35.0588931" lon="32.4578559">
<ele>13.43</ele>
<time>2015-04-26T15:16:55Z</time>
</trkpt>
<trkpt lat="35.0588488" lon="32.4577951">
<ele>13.68</ele>
<time>2015-04-26T15:16:56Z</time>
</trkpt>
<trkpt lat="35.0588071" lon="32.4577270">
<ele>13.80</ele>
<time>2015-04-26T15:16:57Z</time>
</trkpt>
<trkpt lat="35.0587649" lon="32.4576608">
<ele>13.86</ele>
<time>2015-04-26T15:16:58Z</time>
</trkpt>
<trkpt lat="35.0587215" lon="32.4575972">
<ele>13.89</ele>
<time>2015-04-26T15:16:59Z</time>
</trkpt>
<trkpt lat="35.0586788" lon="32.4575316">
<ele>13.91</ele>
<time>2015-04-26T15:17:00Z</time>
</trkpt>
<trkpt lat="35.0586433" lon="32.4574642">
<ele>13.42</ele>
<time>2015-04-26T15:17:01Z</time>
</trkpt>
<trkpt lat="35.0586106" lon="32.4573898">
<ele>13.17</ele>
<time>2015-04-26T15:17:02Z</time>
</trkpt>
<trkpt lat="35.0585733" lon="32.4573248">
<ele>12.55</ele>
<time>2015-04-26T15:17:03Z</time>
</trkpt>
<trkpt lat="35.0585348" lon="32.4572570">
<ele>12.24</ele>
<time>2015-04-26T15:17:04Z</time>
</trkpt>
<trkpt lat="35.0584971" lon="32.4571838">
<ele>12.08</ele>
<time>2015-04-26T15:17:05Z</time>
</trkpt>
<trkpt lat="35.0584579" lon="32.4571177">
<ele>12.00</ele>
<time>2015-04-26T15:17:06Z</time>
</trkpt>
<trkpt lat="35.0584180" lon="32.4570573">
<ele>12.46</ele>
<time>2015-04-26T15:17:07Z</time>
</trkpt>
<trkpt lat="35.0583859" lon="32.4569874">
<ele>12.19</ele>
<time>2015-04-26T15:17:08Z</time>
</trkpt>
<trkpt lat="35.0583535" lon="32.4569224">
<ele>12.06</ele>
<time>2015-04-26T15:17:09Z</time>
</trkpt>
<trkpt lat="35.0583189" lon="32.4568595">
<ele>12.49</ele>
<time>2015-04-26T15:17:10Z</time>
</trkpt>
<trkpt lat="35.0582848" lon="32.4567993">
<ele>12.21</ele>
<time>2015-04-26T15:17:11Z</time>
</trkpt>
<trkpt lat="35.0582487" lon="32.4567327">
<ele>12.07</ele>
<time>2015-04-26T15:17:12Z</time>
</trkpt>
<trkpt lat="35.0582171" lon="32.4566681">
<ele>11.50</ele>
<time>2015-04-26T15:17:13Z</time>
</trkpt>
<trkpt lat="35.0581838" lon="32.4566014">
<ele>11.21</ele>
<time>2015-04-26T15:17:14Z</time>
</trkpt>
<trkpt lat="35.0581508" lon="32.4565378">
<ele>11.07</ele>
<time>2015-04-26T15:17:15Z</time>
</trkpt>
<trkpt lat="35.0581209" lon="32.4564840">
<ele>11.00</ele>
<time>2015-04-26T15:17:16Z</time>
</trkpt>
<trkpt lat="35.0580862" lon="32.4564242">
<ele>10.96</ele>
<time>2015-04-26T15:17:17Z</time>
</trkpt>
<trkpt lat="35.0580505" lon="32.4563601">
<ele>10.94</ele>
<time>2015-04-26T15:17:18Z</time>
</trkpt>
<trkpt lat="35.0580204" lon="32.4562984">
<ele>10.93</ele>
<time>2015-04-26T15:17:19Z</time>
</trkpt>
<trkpt lat="35.0579961" lon="32.4562386">
<ele>10.93</ele>
<time>2015-04-26T15:17:20Z</time>
</trkpt>
<trkpt lat="35.0579605" lon="32.4561826">
<ele>10.93</ele>
<time>2015-04-26T15:17:21Z</time>
</trkpt>
<trkpt lat="35.0579289" lon="32.4561253">
<ele>11.43</ele>
<time>2015-04-26T15:17:22Z</time>
</trkpt>
<trkpt lat="35.0578901" lon="32.4560629">
<ele>11.18</ele>
<time>2015-04-26T15:17:23Z</time>
</trkpt>
<trkpt lat="35.0578568" lon="32.4560008">
<ele>11.05</ele>
<time>2015-04-26T15:17:24Z</time>
</trkpt>
<trkpt lat="35.0578220" lon="32.4559403">
<ele>10.99</ele>
<time>2015-04-26T15:17:25Z</time>
</trkpt>
<trkpt lat="35.0577908" lon="32.4558830">
<ele>10.46</ele>
<time>2015-04-26T15:17:26Z</time>
</trkpt>
<trkpt lat="35.0577556" lon="32.4558266">
<ele>10.19</ele>
<time>2015-04-26T15:17:27Z</time>
</trkpt>
<trkpt lat="35.0577230" lon="32.4557712">
<ele>10.56</ele>
<time>2015-04-26T15:17:28Z</time>
</trkpt>
<trkpt lat="35.0576867" lon="32.4557142">
<ele>10.24</ele>
<time>2015-04-26T15:17:29Z</time>
</trkpt>
<trkpt lat="35.0576537" lon="32.4556543">
<ele>10.58</ele>
<time>2015-04-26T15:17:30Z</time>
</trkpt>
<trkpt lat="35.0576214" lon="32.4555970">
<ele>10.25</ele>
<time>2015-04-26T15:17:31Z</time>
</trkpt>
<trkpt lat="35.0575864" lon="32.4555349">
<ele>10.09</ele>
<time>2015-04-26T15:17:32Z</time>
</trkpt>
<trkpt lat="35.0575552" lon="32.4554818">
<ele>10.01</ele>
<time>2015-04-26T15:17:33Z</time>
</trkpt>
<trkpt lat="35.0575217" lon="32.4554218">
<ele>10.47</ele>
<time>2015-04-26T15:17:34Z</time>
</trkpt>
<trkpt lat="35.0574859" lon="32.4553699">
<ele>10.70</ele>
<time>2015-04-26T15:17:35Z</time>
</trkpt>
<trkpt lat="35.0574476" lon="32.4553205">
<ele>10.81</ele>
<time>2015-04-26T15:17:36Z</time>
</trkpt>
<trkpt lat="35.0574083" lon="32.4552766">
<ele>10.87</ele>
<time>2015-04-26T15:17:37Z</time>
</trkpt>
<trkpt lat="35.0573749" lon="32.4552338">
<ele>10.40</ele>
<time>2015-04-26T15:17:38Z</time>
</trkpt>
<trkpt lat="35.0573348" lon="32.4551864">
<ele>10.16</ele>
<time>2015-04-26T15:17:39Z</time>
</trkpt>
<trkpt lat="35.0572945" lon="32.4551387">
<ele>10.04</ele>
<time>2015-04-26T15:17:40Z</time>
</trkpt>
<trkpt lat="35.0572434" lon="32.4551058">
<ele>9.98</ele>
<time>2015-04-26T15:17:41Z</time>
</trkpt>
<trkpt lat="35.0571945" lon="32.4550710">
<ele>9.95</ele>
<time>2015-04-26T15:17:42Z</time>
</trkpt>
<trkpt lat="35.0571401" lon="32.4550430">
<ele>9.94</ele>
<time>2015-04-26T15:17:43Z</time>
</trkpt>
<trkpt lat="35.0570838" lon="32.4550162">
<ele>9.93</ele>
<time>2015-04-26T15:17:44Z</time>
</trkpt>
<trkpt lat="35.0570230" lon="32.4549936">
<ele>9.93</ele>
<time>2015-04-26T15:17:45Z</time>
</trkpt>
<trkpt lat="35.0569638" lon="32.4549740">
<ele>9.93</ele>
<time>2015-04-26T15:17:46Z</time>
</trkpt>
<trkpt lat="35.0569036" lon="32.4549591">
<ele>9.93</ele>
<time>2015-04-26T15:17:47Z</time>
</trkpt>
<trkpt lat="35.0568419" lon="32.4549503">
<ele>9.93</ele>
<time>2015-04-26T15:17:48Z</time>
</trkpt>
<trkpt lat="35.0567829" lon="32.4549422">
<ele>9.93</ele>
<time>2015-04-26T15:17:49Z</time>
</trkpt>
<trkpt lat="35.0567249" lon="32.4549380">
<ele>9.43</ele>
<time>2015-04-26T15:17:50Z</time>
</trkpt>
<trkpt lat="35.0566687" lon="32.4549291">
<ele>9.18</ele>
<time>2015-04-26T15:17:51Z</time>
</trkpt>
<trkpt lat="35.0566137" lon="32.4549222">
<ele>9.55</ele>
<time>2015-04-26T15:17:52Z</time>
</trkpt>
<trkpt lat="35.0565595" lon="32.4549149">
<ele>9.74</ele>
<time>2015-04-26T15:17:53Z</time>
</trkpt>
<trkpt lat="35.0565034" lon="32.4549085">
<ele>9.83</ele>
<time>2015-04-26T15:17:54Z</time>
</trkpt>
<trkpt lat="35.0564470" lon="32.4549018">
<ele>10.38</ele>
<time>2015-04-26T15:17:55Z</time>
</trkpt>
<trkpt lat="35.0563907" lon="32.4548916">
<ele>10.65</ele>
<time>2015-04-26T15:17:56Z</time>
</trkpt>
<trkpt lat="35.0563322" lon="32.4548881">
<ele>11.29</ele>
<time>2015-04-26T15:17:57Z</time>
</trkpt>
<trkpt lat="35.0562755" lon="32.4548776">
<ele>11.61</ele>
<time>2015-04-26T15:17:58Z</time>
</trkpt>
<trkpt lat="35.0562167" lon="32.4548695">
<ele>11.77</ele>
<time>2015-04-26T15:17:59Z</time>
</trkpt>
<trkpt lat="35.0561574" lon="32.4548662">
<ele>11.85</ele>
<time>2015-04-26T15:18:00Z</time>
</trkpt>
<trkpt lat="35.0560992" lon="32.4548608">
<ele>11.89</ele>
<time>2015-04-26T15:18:01Z</time>
</trkpt>
<trkpt lat="35.0560478" lon="32.4548604">
<ele>11.91</ele>
<time>2015-04-26T15:18:02Z</time>
</trkpt>
<trkpt lat="35.0559962" lon="32.4548561">
<ele>11.92</ele>
<time>2015-04-26T15:18:03Z</time>
</trkpt>
<trkpt lat="35.0559469" lon="32.4548510">
<ele>11.92</ele>
<time>2015-04-26T15:18:04Z</time>
</trkpt>
<trkpt lat="35.0558575" lon="32.4548414">
<ele>11.92</ele>
<time>2015-04-26T15:18:06Z</time>
</trkpt>
<trkpt lat="35.0558127" lon="32.4548324">
<ele>11.92</ele>
<time>2015-04-26T15:18:07Z</time>
</trkpt>
<trkpt lat="35.0557676" lon="32.4548272">
<ele>11.92</ele>
<time>2015-04-26T15:18:08Z</time>
</trkpt>
<trkpt lat="35.0557214" lon="32.4548287">
<ele>11.92</ele>
<time>2015-04-26T15:18:09Z</time>
</trkpt>
<trkpt lat="35.0556400" lon="32.4548074">
<ele>12.67</ele>
<time>2015-04-26T15:18:11Z</time>
</trkpt>
<trkpt lat="35.0555934" lon="32.4547987">
<ele>13.30</ele>
<time>2015-04-26T15:18:12Z</time>
</trkpt>
<trkpt lat="35.0555422" lon="32.4547875">
<ele>13.61</ele>
<time>2015-04-26T15:18:13Z</time>
</trkpt>
<trkpt lat="35.0554884" lon="32.4547774">
<ele>14.27</ele>
<time>2015-04-26T15:18:14Z</time>
</trkpt>
<trkpt lat="35.0554340" lon="32.4547766">
<ele>15.10</ele>
<time>2015-04-26T15:18:15Z</time>
</trkpt>
<trkpt lat="35.0553846" lon="32.4547713">
<ele>15.51</ele>
<time>2015-04-26T15:18:16Z</time>
</trkpt>
<trkpt lat="35.0553289" lon="32.4547624">
<ele>16.22</ele>
<time>2015-04-26T15:18:17Z</time>
</trkpt>
<trkpt lat="35.0552765" lon="32.4547541">
<ele>17.07</ele>
<time>2015-04-26T15:18:18Z</time>
</trkpt>
<trkpt lat="35.0552262" lon="32.4547587">
<ele>17.00</ele>
<time>2015-04-26T15:18:19Z</time>
</trkpt>
<trkpt lat="35.0551728" lon="32.4547433">
<ele>17.46</ele>
<time>2015-04-26T15:18:20Z</time>
</trkpt>
<trkpt lat="35.0551108" lon="32.4547308">
<ele>17.69</ele>
<time>2015-04-26T15:18:21Z</time>
</trkpt>
<trkpt lat="35.0550586" lon="32.4547246">
<ele>17.81</ele>
<time>2015-04-26T15:18:22Z</time>
</trkpt>
<trkpt lat="35.0550109" lon="32.4547202">
<ele>17.87</ele>
<time>2015-04-26T15:18:23Z</time>
</trkpt>
<trkpt lat="35.0549363" lon="32.4547061">
<ele>17.41</ele>
<time>2015-04-26T15:18:25Z</time>
</trkpt>
<trkpt lat="35.0548713" lon="32.4546817">
<ele>17.05</ele>
<time>2015-04-26T15:18:27Z</time>
</trkpt>
<trkpt lat="35.0548019" lon="32.4546579">
<ele>16.96</ele>
<time>2015-04-26T15:18:29Z</time>
</trkpt>
<trkpt lat="35.0547274" lon="32.4546221">
<ele>17.43</ele>
<time>2015-04-26T15:18:31Z</time>
</trkpt>
<trkpt lat="35.0546549" lon="32.4545820">
<ele>17.55</ele>
<time>2015-04-26T15:18:33Z</time>
</trkpt>
<trkpt lat="35.0545880" lon="32.4545230">
<ele>18.33</ele>
<time>2015-04-26T15:18:35Z</time>
</trkpt>
<trkpt lat="35.0545214" lon="32.4544709">
<ele>18.03</ele>
<time>2015-04-26T15:18:37Z</time>
</trkpt>
<trkpt lat="35.0544505" lon="32.4544147">
<ele>17.95</ele>
<time>2015-04-26T15:18:39Z</time>
</trkpt>
<trkpt lat="35.0543823" lon="32.4543535">
<ele>17.43</ele>
<time>2015-04-26T15:18:41Z</time>
</trkpt>
<trkpt lat="35.0543193" lon="32.4542856">
<ele>16.55</ele>
<time>2015-04-26T15:18:43Z</time>
</trkpt>
<trkpt lat="35.0542588" lon="32.4542133">
<ele>16.58</ele>
<time>2015-04-26T15:18:45Z</time>
</trkpt>
<trkpt lat="35.0542050" lon="32.4541329">
<ele>16.09</ele>
<time>2015-04-26T15:18:47Z</time>
</trkpt>
<trkpt lat="35.0541447" lon="32.4540315">
<ele>15.47</ele>
<time>2015-04-26T15:18:49Z</time>
</trkpt>
<trkpt lat="35.0541169" lon="32.4539883">
<ele>15.20</ele>
<time>2015-04-26T15:18:50Z</time>
</trkpt>
<trkpt lat="35.0540917" lon="32.4539343">
<ele>15.56</ele>
<time>2015-04-26T15:18:51Z</time>
</trkpt>
<trkpt lat="35.0540654" lon="32.4538830">
<ele>15.74</ele>
<time>2015-04-26T15:18:52Z</time>
</trkpt>
<trkpt lat="35.0540378" lon="32.4538330">
<ele>15.33</ele>
<time>2015-04-26T15:18:53Z</time>
</trkpt>
<trkpt lat="35.0540055" lon="32.4537812">
<ele>15.63</ele>
<time>2015-04-26T15:18:54Z</time>
</trkpt>
<trkpt lat="35.0539774" lon="32.4537222">
<ele>15.78</ele>
<time>2015-04-26T15:18:55Z</time>
</trkpt>
<trkpt lat="35.0539429" lon="32.4536674">
<ele>16.35</ele>
<time>2015-04-26T15:18:56Z</time>
</trkpt>
<trkpt lat="35.0539116" lon="32.4536086">
<ele>16.64</ele>
<time>2015-04-26T15:18:57Z</time>
</trkpt>
<trkpt lat="35.0538770" lon="32.4535524">
<ele>16.78</ele>
<time>2015-04-26T15:18:58Z</time>
</trkpt>
<trkpt lat="35.0538458" lon="32.4535004">
<ele>17.35</ele>
<time>2015-04-26T15:18:59Z</time>
</trkpt>
<trkpt lat="35.0538140" lon="32.4534395">
<ele>17.64</ele>
<time>2015-04-26T15:19:00Z</time>
</trkpt>
<trkpt lat="35.0537812" lon="32.4533823">
<ele>17.28</ele>
<time>2015-04-26T15:19:01Z</time>
</trkpt>
<trkpt lat="35.0537560" lon="32.4533230">
<ele>16.60</ele>
<time>2015-04-26T15:19:02Z</time>
</trkpt>
<trkpt lat="35.0537262" lon="32.4532710">
<ele>16.26</ele>
<time>2015-04-26T15:19:03Z</time>
</trkpt>
<trkpt lat="35.0536985" lon="32.4532155">
<ele>15.59</ele>
<time>2015-04-26T15:19:04Z</time>
</trkpt>
<trkpt lat="35.0536755" lon="32.4531612">
<ele>15.26</ele>
<time>2015-04-26T15:19:05Z</time>
</trkpt>
<trkpt lat="35.0536472" lon="32.4531063">
<ele>15.09</ele>
<time>2015-04-26T15:19:06Z</time>
</trkpt>
<trkpt lat="35.0536149" lon="32.4530548">
<ele>15.01</ele>
<time>2015-04-26T15:19:07Z</time>
</trkpt>
<trkpt lat="35.0535824" lon="32.4529899">
<ele>14.97</ele>
<time>2015-04-26T15:19:08Z</time>
</trkpt>
<trkpt lat="35.0535534" lon="32.4529375">
<ele>13.95</ele>
<time>2015-04-26T15:19:09Z</time>
</trkpt>
<trkpt lat="35.0535171" lon="32.4528778">
<ele>13.44</ele>
<time>2015-04-26T15:19:10Z</time>
</trkpt>
<trkpt lat="35.0534870" lon="32.4528206">
<ele>13.18</ele>
<time>2015-04-26T15:19:11Z</time>
</trkpt>
<trkpt lat="35.0534592" lon="32.4527535">
<ele>12.55</ele>
<time>2015-04-26T15:19:12Z</time>
</trkpt>
<trkpt lat="35.0534236" lon="32.4526913">
<ele>12.24</ele>
<time>2015-04-26T15:19:13Z</time>
</trkpt>
<trkpt lat="35.0533947" lon="32.4526337">
<ele>11.58</ele>
<time>2015-04-26T15:19:14Z</time>
</trkpt>
<trkpt lat="35.0533647" lon="32.4525719">
<ele>11.75</ele>
<time>2015-04-26T15:19:15Z</time>
</trkpt>
<trkpt lat="35.0533307" lon="32.4525114">
<ele>11.34</ele>
<time>2015-04-26T15:19:16Z</time>
</trkpt>
<trkpt lat="35.0532804" lon="32.4524120">
<ele>10.28</ele>
<time>2015-04-26T15:19:18Z</time>
</trkpt>
<trkpt lat="35.0532512" lon="32.4523513">
<ele>11.10</ele>
<time>2015-04-26T15:19:19Z</time>
</trkpt>
<trkpt lat="35.0532268" lon="32.4522988">
<ele>11.01</ele>
<time>2015-04-26T15:19:20Z</time>
</trkpt>
<trkpt lat="35.0531998" lon="32.4522449">
<ele>10.47</ele>
<time>2015-04-26T15:19:21Z</time>
</trkpt>
<trkpt lat="35.0531815" lon="32.4521919">
<ele>10.20</ele>
<time>2015-04-26T15:19:22Z</time>
</trkpt>
<trkpt lat="35.0531464" lon="32.4521560">
<ele>10.06</ele>
<time>2015-04-26T15:19:23Z</time>
</trkpt>
<trkpt lat="35.0530974" lon="32.4520648">
<ele>10.71</ele>
<time>2015-04-26T15:19:25Z</time>
</trkpt>
<trkpt lat="35.0530527" lon="32.4519756">
<ele>11.37</ele>
<time>2015-04-26T15:19:27Z</time>
</trkpt>
<trkpt lat="35.0530138" lon="32.4519093">
<ele>11.79</ele>
<time>2015-04-26T15:19:29Z</time>
</trkpt>
<trkpt lat="35.0529754" lon="32.4518242">
<ele>12.64</ele>
<time>2015-04-26T15:19:31Z</time>
</trkpt>
<trkpt lat="35.0529426" lon="32.4517806">
<ele>12.78</ele>
<time>2015-04-26T15:19:32Z</time>
</trkpt>
<trkpt lat="35.0529018" lon="32.4516898">
<ele>12.14</ele>
<time>2015-04-26T15:19:34Z</time>
</trkpt>
<trkpt lat="35.0528407" lon="32.4516131">
<ele>12.48</ele>
<time>2015-04-26T15:19:36Z</time>
</trkpt>
<trkpt lat="35.0528026" lon="32.4515318">
<ele>13.31</ele>
<time>2015-04-26T15:19:38Z</time>
</trkpt>
<trkpt lat="35.0527696" lon="32.4514469">
<ele>13.02</ele>
<time>2015-04-26T15:19:40Z</time>
</trkpt>
<trkpt lat="35.0527309" lon="32.4513573">
<ele>12.95</ele>
<time>2015-04-26T15:19:42Z</time>
</trkpt>
<trkpt lat="35.0526894" lon="32.4512609">
<ele>12.93</ele>
<time>2015-04-26T15:19:44Z</time>
</trkpt>
<trkpt lat="35.0526436" lon="32.4511679">
<ele>12.18</ele>
<time>2015-04-26T15:19:46Z</time>
</trkpt>
<trkpt lat="35.0526179" lon="32.4511149">
<ele>12.55</ele>
<time>2015-04-26T15:19:47Z</time>
</trkpt>
<trkpt lat="35.0525944" lon="32.4510618">
<ele>13.24</ele>
<time>2015-04-26T15:19:48Z</time>
</trkpt>
<trkpt lat="35.0525736" lon="32.4510012">
<ele>13.58</ele>
<time>2015-04-26T15:19:49Z</time>
</trkpt>
<trkpt lat="35.0525576" lon="32.4509402">
<ele>13.75</ele>
<time>2015-04-26T15:19:50Z</time>
</trkpt>
<trkpt lat="35.0525337" lon="32.4508923">
<ele>13.84</ele>
<time>2015-04-26T15:19:51Z</time>
</trkpt>
<trkpt lat="35.0525056" lon="32.4508411">
<ele>14.38</ele>
<time>2015-04-26T15:19:52Z</time>
</trkpt>
<trkpt lat="35.0524823" lon="32.4507821">
<ele>14.65</ele>
<time>2015-04-26T15:19:53Z</time>
</trkpt>
<trkpt lat="35.0524595" lon="32.4507327">
<ele>14.29</ele>
<time>2015-04-26T15:19:54Z</time>
</trkpt>
<trkpt lat="35.0524392" lon="32.4506758">
<ele>14.11</ele>
<time>2015-04-26T15:19:55Z</time>
</trkpt>
<trkpt lat="35.0523872" lon="32.4505808">
<ele>13.47</ele>
<time>2015-04-26T15:19:57Z</time>
</trkpt>
<trkpt lat="35.0523585" lon="32.4505271">
<ele>13.70</ele>
<time>2015-04-26T15:19:58Z</time>
</trkpt>
<trkpt lat="35.0523302" lon="32.4504760">
<ele>13.31</ele>
<time>2015-04-26T15:19:59Z</time>
</trkpt>
<trkpt lat="35.0522804" lon="32.4503948">
<ele>11.77</ele>
<time>2015-04-26T15:20:01Z</time>
</trkpt>
<trkpt lat="35.0522595" lon="32.4503336">
<ele>11.85</ele>
<time>2015-04-26T15:20:02Z</time>
</trkpt>
<trkpt lat="35.0522326" lon="32.4502873">
<ele>11.89</ele>
<time>2015-04-26T15:20:03Z</time>
</trkpt>
<trkpt lat="35.0522024" lon="32.4502354">
<ele>11.91</ele>
<time>2015-04-26T15:20:04Z</time>
</trkpt>
<trkpt lat="35.0521829" lon="32.4501818">
<ele>12.42</ele>
<time>2015-04-26T15:20:05Z</time>
</trkpt>
<trkpt lat="35.0521562" lon="32.4501349">
<ele>13.17</ele>
<time>2015-04-26T15:20:06Z</time>
</trkpt>
<trkpt lat="35.0521268" lon="32.4500836">
<ele>13.55</ele>
<time>2015-04-26T15:20:07Z</time>
</trkpt>
<trkpt lat="35.0520970" lon="32.4500345">
<ele>13.74</ele>
<time>2015-04-26T15:20:08Z</time>
</trkpt>
<trkpt lat="35.0520716" lon="32.4499847">
<ele>13.33</ele>
<time>2015-04-26T15:20:09Z</time>
</trkpt>
<trkpt lat="35.0520277" lon="32.4498891">
<ele>13.78</ele>
<time>2015-04-26T15:20:11Z</time>
</trkpt>
<trkpt lat="35.0519919" lon="32.4498297">
<ele>13.85</ele>
<time>2015-04-26T15:20:12Z</time>
</trkpt>
<trkpt lat="35.0519673" lon="32.4497792">
<ele>14.39</ele>
<time>2015-04-26T15:20:13Z</time>
</trkpt>
<trkpt lat="35.0519418" lon="32.4497230">
<ele>15.16</ele>
<time>2015-04-26T15:20:14Z</time>
</trkpt>
<trkpt lat="35.0519108" lon="32.4496575">
<ele>16.04</ele>
<time>2015-04-26T15:20:15Z</time>
</trkpt>
<trkpt lat="35.0518814" lon="32.4496016">
<ele>16.98</ele>
<time>2015-04-26T15:20:16Z</time>
</trkpt>
<trkpt lat="35.0518415" lon="32.4495049">
<ele>16.94</ele>
<time>2015-04-26T15:20:18Z</time>
</trkpt>
<trkpt lat="35.0518079" lon="32.4494259">
<ele>16.43</ele>
<time>2015-04-26T15:20:20Z</time>
</trkpt>
<trkpt lat="35.0517813" lon="32.4493801">
<ele>16.18</ele>
<time>2015-04-26T15:20:21Z</time>
</trkpt>
<trkpt lat="35.0517580" lon="32.4493231">
<ele>16.05</ele>
<time>2015-04-26T15:20:22Z</time>
</trkpt>
<trkpt lat="35.0517353" lon="32.4492680">
<ele>15.49</ele>
<time>2015-04-26T15:20:23Z</time>
</trkpt>
<trkpt lat="35.0516949" lon="32.4491949">
<ele>16.21</ele>
<time>2015-04-26T15:20:24Z</time>
</trkpt>
<trkpt lat="35.0516701" lon="32.4491346">
<ele>16.57</ele>
<time>2015-04-26T15:20:25Z</time>
</trkpt>
<trkpt lat="35.0516378" lon="32.4490587">
<ele>16.75</ele>
<time>2015-04-26T15:20:26Z</time>
</trkpt>
<trkpt lat="35.0516035" lon="32.4489885">
<ele>17.84</ele>
<time>2015-04-26T15:20:27Z</time>
</trkpt>
<trkpt lat="35.0515771" lon="32.4489356">
<ele>17.88</ele>
<time>2015-04-26T15:20:28Z</time>
</trkpt>
<trkpt lat="35.0515468" lon="32.4488735">
<ele>17.90</ele>
<time>2015-04-26T15:20:29Z</time>
</trkpt>
<trkpt lat="35.0515193" lon="32.4488265">
<ele>17.91</ele>
<time>2015-04-26T15:20:30Z</time>
</trkpt>
<trkpt lat="35.0514892" lon="32.4487642">
<ele>17.92</ele>
<time>2015-04-26T15:20:31Z</time>
</trkpt>
<trkpt lat="35.0514600" lon="32.4487076">
<ele>18.42</ele>
<time>2015-04-26T15:20:32Z</time>
</trkpt>
<trkpt lat="35.0514266" lon="32.4486527">
<ele>19.17</ele>
<time>2015-04-26T15:20:33Z</time>
</trkpt>
<trkpt lat="35.0513922" lon="32.4485992">
<ele>20.05</ele>
<time>2015-04-26T15:20:34Z</time>
</trkpt>
<trkpt lat="35.0513645" lon="32.4485340">
<ele>19.99</ele>
<time>2015-04-26T15:20:35Z</time>
</trkpt>
<trkpt lat="35.0513423" lon="32.4484669">
<ele>19.46</ele>
<time>2015-04-26T15:20:36Z</time>
</trkpt>
<trkpt lat="35.0513094" lon="32.4484051">
<ele>19.69</ele>
<time>2015-04-26T15:20:37Z</time>
</trkpt>
<trkpt lat="35.0512753" lon="32.4483298">
<ele>20.31</ele>
<time>2015-04-26T15:20:38Z</time>
</trkpt>
<trkpt lat="35.0512481" lon="32.4482685">
<ele>20.12</ele>
<time>2015-04-26T15:20:39Z</time>
</trkpt>
<trkpt lat="35.0512170" lon="32.4482081">
<ele>20.02</ele>
<time>2015-04-26T15:20:40Z</time>
</trkpt>
<trkpt lat="35.0511876" lon="32.4481493">
<ele>19.97</ele>
<time>2015-04-26T15:20:41Z</time>
</trkpt>
<trkpt lat="35.0511554" lon="32.4480914">
<ele>19.95</ele>
<time>2015-04-26T15:20:42Z</time>
</trkpt>
<trkpt lat="35.0511233" lon="32.4480261">
<ele>20.94</ele>
<time>2015-04-26T15:20:43Z</time>
</trkpt>
<trkpt lat="35.0510960" lon="32.4479637">
<ele>21.43</ele>
<time>2015-04-26T15:20:44Z</time>
</trkpt>
<trkpt lat="35.0510690" lon="32.4479048">
<ele>21.68</ele>
<time>2015-04-26T15:20:45Z</time>
</trkpt>
<trkpt lat="35.0510328" lon="32.4478503">
<ele>22.30</ele>
<time>2015-04-26T15:20:46Z</time>
</trkpt>
<trkpt lat="35.0510070" lon="32.4477889">
<ele>22.61</ele>
<time>2015-04-26T15:20:47Z</time>
</trkpt>
<trkpt lat="35.0509875" lon="32.4477214">
<ele>23.77</ele>
<time>2015-04-26T15:20:48Z</time>
</trkpt>
<trkpt lat="35.0509567" lon="32.4476706">
<ele>24.35</ele>
<time>2015-04-26T15:20:49Z</time>
</trkpt>
<trkpt lat="35.0509432" lon="32.4476058">
<ele>24.64</ele>
<time>2015-04-26T15:20:50Z</time>
</trkpt>
<trkpt lat="35.0509207" lon="32.4475360">
<ele>25.28</ele>
<time>2015-04-26T15:20:51Z</time>
</trkpt>
<trkpt lat="35.0508914" lon="32.4474762">
<ele>25.60</ele>
<time>2015-04-26T15:20:52Z</time>
</trkpt>
<trkpt lat="35.0508391" lon="32.4473908">
<ele>23.34</ele>
<time>2015-04-26T15:20:54Z</time>
</trkpt>
<trkpt lat="35.0508034" lon="32.4473318">
<ele>22.63</ele>
<time>2015-04-26T15:20:55Z</time>
</trkpt>
<trkpt lat="35.0507722" lon="32.4472658">
<ele>22.28</ele>
<time>2015-04-26T15:20:56Z</time>
</trkpt>
<trkpt lat="35.0507312" lon="32.4472071">
<ele>22.10</ele>
<time>2015-04-26T15:20:57Z</time>
</trkpt>
<trkpt lat="35.0507047" lon="32.4471331">
<ele>21.51</ele>
<time>2015-04-26T15:20:58Z</time>
</trkpt>
<trkpt lat="35.0506686" lon="32.4470706">
<ele>21.22</ele>
<time>2015-04-26T15:20:59Z</time>
</trkpt>
<trkpt lat="35.0506349" lon="32.4470120">
<ele>21.07</ele>
<time>2015-04-26T15:21:00Z</time>
</trkpt>
<trkpt lat="35.0506026" lon="32.4469468">
<ele>21.00</ele>
<time>2015-04-26T15:21:01Z</time>
</trkpt>
<trkpt lat="35.0505654" lon="32.4468874">
<ele>20.96</ele>
<time>2015-04-26T15:21:02Z</time>
</trkpt>
<trkpt lat="35.0505317" lon="32.4468105">
<ele>21.44</ele>
<time>2015-04-26T15:21:03Z</time>
</trkpt>
<trkpt lat="35.0504940" lon="32.4467449">
<ele>21.18</ele>
<time>2015-04-26T15:21:04Z</time>
</trkpt>
<trkpt lat="35.0504526" lon="32.4466914">
<ele>20.55</ele>
<time>2015-04-26T15:21:05Z</time>
</trkpt>
<trkpt lat="35.0504124" lon="32.4466318">
<ele>20.24</ele>
<time>2015-04-26T15:21:06Z</time>
</trkpt>
<trkpt lat="35.0503713" lon="32.4465712">
<ele>20.58</ele>
<time>2015-04-26T15:21:07Z</time>
</trkpt>
<trkpt lat="35.0503294" lon="32.4465081">
<ele>20.75</ele>
<time>2015-04-26T15:21:08Z</time>
</trkpt>
<trkpt lat="35.0502895" lon="32.4464362">
<ele>20.84</ele>
<time>2015-04-26T15:21:09Z</time>
</trkpt>
<trkpt lat="35.0502514" lon="32.4463817">
<ele>20.38</ele>
<time>2015-04-26T15:21:10Z</time>
</trkpt>
<trkpt lat="35.0502099" lon="32.4463242">
<ele>19.15</ele>
<time>2015-04-26T15:21:11Z</time>
</trkpt>
<trkpt lat="35.0501726" lon="32.4462535">
<ele>18.54</ele>
<time>2015-04-26T15:21:12Z</time>
</trkpt>
<trkpt lat="35.0501269" lon="32.4461872">
<ele>18.23</ele>
<time>2015-04-26T15:21:13Z</time>
</trkpt>
<trkpt lat="35.0500853" lon="32.4461246">
<ele>18.08</ele>
<time>2015-04-26T15:21:14Z</time>
</trkpt>
<trkpt lat="35.0500443" lon="32.4460596">
<ele>18.00</ele>
<time>2015-04-26T15:21:15Z</time>
</trkpt>
<trkpt lat="35.0500087" lon="32.4459997">
<ele>17.96</ele>
<time>2015-04-26T15:21:16Z</time>
</trkpt>
<trkpt lat="35.0499716" lon="32.4459343">
<ele>17.94</ele>
<time>2015-04-26T15:21:17Z</time>
</trkpt>
<trkpt lat="35.0499311" lon="32.4458638">
<ele>18.43</ele>
<time>2015-04-26T15:21:18Z</time>
</trkpt>
<trkpt lat="35.0498953" lon="32.4457933">
<ele>18.68</ele>
<time>2015-04-26T15:21:19Z</time>
</trkpt>
<trkpt lat="35.0498514" lon="32.4457259">
<ele>18.80</ele>
<time>2015-04-26T15:21:20Z</time>
</trkpt>
<trkpt lat="35.0498192" lon="32.4456701">
<ele>18.36</ele>
<time>2015-04-26T15:21:21Z</time>
</trkpt>
<trkpt lat="35.0497842" lon="32.4456191">
<ele>17.64</ele>
<time>2015-04-26T15:21:22Z</time>
</trkpt>
<trkpt lat="35.0497445" lon="32.4455572">
<ele>16.78</ele>
<time>2015-04-26T15:21:23Z</time>
</trkpt>
<trkpt lat="35.0497115" lon="32.4454941">
<ele>16.85</ele>
<time>2015-04-26T15:21:24Z</time>
</trkpt>
<trkpt lat="35.0496753" lon="32.4454357">
<ele>17.39</ele>
<time>2015-04-26T15:21:25Z</time>
</trkpt>
<trkpt lat="35.0496414" lon="32.4453742">
<ele>17.16</ele>
<time>2015-04-26T15:21:26Z</time>
</trkpt>
<trkpt lat="35.0496011" lon="32.4453088">
<ele>17.54</ele>
<time>2015-04-26T15:21:27Z</time>
</trkpt>
<trkpt lat="35.0495675" lon="32.4452442">
<ele>17.23</ele>
<time>2015-04-26T15:21:28Z</time>
</trkpt>
<trkpt lat="35.0495252" lon="32.4451874">
<ele>17.08</ele>
<time>2015-04-26T15:21:29Z</time>
</trkpt>
<trkpt lat="35.0494962" lon="32.4451427">
<ele>16.00</ele>
<time>2015-04-26T15:21:30Z</time>
</trkpt>
<trkpt lat="35.0494617" lon="32.4450845">
<ele>15.46</ele>
<time>2015-04-26T15:21:31Z</time>
</trkpt>
<trkpt lat="35.0494162" lon="32.4450256">
<ele>16.19</ele>
<time>2015-04-26T15:21:32Z</time>
</trkpt>
<trkpt lat="35.0493755" lon="32.4449654">
<ele>16.56</ele>
<time>2015-04-26T15:21:33Z</time>
</trkpt>
<trkpt lat="35.0493394" lon="32.4449067">
<ele>16.74</ele>
<time>2015-04-26T15:21:34Z</time>
</trkpt>
<trkpt lat="35.0493078" lon="32.4448415">
<ele>16.33</ele>
<time>2015-04-26T15:21:35Z</time>
</trkpt>
<trkpt lat="35.0492735" lon="32.4447752">
<ele>16.13</ele>
<time>2015-04-26T15:21:36Z</time>
</trkpt>
<trkpt lat="35.0492388" lon="32.4447058">
<ele>16.03</ele>
<time>2015-04-26T15:21:37Z</time>
</trkpt>
<trkpt lat="35.0492015" lon="32.4446440">
<ele>15.48</ele>
<time>2015-04-26T15:21:38Z</time>
</trkpt>
<trkpt lat="35.0491618" lon="32.4445882">
<ele>15.20</ele>
<time>2015-04-26T15:21:39Z</time>
</trkpt>
<trkpt lat="35.0491268" lon="32.4445365">
<ele>14.56</ele>
<time>2015-04-26T15:21:40Z</time>
</trkpt>
<trkpt lat="35.0490867" lon="32.4444745">
<ele>15.24</ele>
<time>2015-04-26T15:21:41Z</time>
</trkpt>
<trkpt lat="35.0490546" lon="32.4444198">
<ele>15.58</ele>
<time>2015-04-26T15:21:42Z</time>
</trkpt>
<trkpt lat="35.0490192" lon="32.4443647">
<ele>15.75</ele>
<time>2015-04-26T15:21:43Z</time>
</trkpt>
<trkpt lat="35.0489874" lon="32.4443128">
<ele>15.34</ele>
<time>2015-04-26T15:21:44Z</time>
</trkpt>
<trkpt lat="35.0489526" lon="32.4442634">
<ele>14.63</ele>
<time>2015-04-26T15:21:45Z</time>
</trkpt>
<trkpt lat="35.0488967" lon="32.4441673">
<ele>13.60</ele>
<time>2015-04-26T15:21:47Z</time>
</trkpt>
<trkpt lat="35.0488598" lon="32.4441085">
<ele>14.26</ele>
<time>2015-04-26T15:21:48Z</time>
</trkpt>
<trkpt lat="35.0488237" lon="32.4440503">
<ele>15.09</ele>
<time>2015-04-26T15:21:49Z</time>
</trkpt>
<trkpt lat="35.0487835" lon="32.4439990">
<ele>15.51</ele>
<time>2015-04-26T15:21:50Z</time>
</trkpt>
<trkpt lat="35.0487399" lon="32.4439403">
<ele>15.22</ele>
<time>2015-04-26T15:21:51Z</time>
</trkpt>
<trkpt lat="35.0486981" lon="32.4438963">
<ele>15.07</ele>
<time>2015-04-26T15:21:52Z</time>
</trkpt>
<trkpt lat="35.0486609" lon="32.4438445">
<ele>14.50</ele>
<time>2015-04-26T15:21:53Z</time>
</trkpt>
<trkpt lat="35.0486298" lon="32.4437908">
<ele>13.71</ele>
<time>2015-04-26T15:21:54Z</time>
</trkpt>
<trkpt lat="35.0485948" lon="32.4437328">
<ele>13.32</ele>
<time>2015-04-26T15:21:55Z</time>
</trkpt>
<trkpt lat="35.0485632" lon="32.4436764">
<ele>13.62</ele>
<time>2015-04-26T15:21:56Z</time>
</trkpt>
<trkpt lat="35.0485308" lon="32.4436289">
<ele>13.77</ele>
<time>2015-04-26T15:21:57Z</time>
</trkpt>
<trkpt lat="35.0484904" lon="32.4435765">
<ele>14.35</ele>
<time>2015-04-26T15:21:58Z</time>
</trkpt>
<trkpt lat="35.0484555" lon="32.4435227">
<ele>14.64</ele>
<time>2015-04-26T15:21:59Z</time>
</trkpt>
<trkpt lat="35.0484233" lon="32.4434630">
<ele>15.28</ele>
<time>2015-04-26T15:22:00Z</time>
</trkpt>
<trkpt lat="35.0483912" lon="32.4434070">
<ele>15.60</ele>
<time>2015-04-26T15:22:01Z</time>
</trkpt>
<trkpt lat="35.0483543" lon="32.4433500">
<ele>16.76</ele>
<time>2015-04-26T15:22:02Z</time>
</trkpt>
<trkpt lat="35.0483122" lon="32.4433000">
<ele>17.34</ele>
<time>2015-04-26T15:22:03Z</time>
</trkpt>
<trkpt lat="35.0482810" lon="32.4432409">
<ele>17.63</ele>
<time>2015-04-26T15:22:04Z</time>
</trkpt>
<trkpt lat="35.0482512" lon="32.4431966">
<ele>17.28</ele>
<time>2015-04-26T15:22:05Z</time>
</trkpt>
<trkpt lat="35.0482151" lon="32.4431448">
<ele>17.60</ele>
<time>2015-04-26T15:22:06Z</time>
</trkpt>
<trkpt lat="35.0481823" lon="32.4430935">
<ele>17.26</ele>
<time>2015-04-26T15:22:07Z</time>
</trkpt>
<trkpt lat="35.0481515" lon="32.4430430">
<ele>17.09</ele>
<time>2015-04-26T15:22:08Z</time>
</trkpt>
<trkpt lat="35.0481284" lon="32.4429949">
<ele>17.01</ele>
<time>2015-04-26T15:22:09Z</time>
</trkpt>
<trkpt lat="35.0480939" lon="32.4429514">
<ele>16.97</ele>
<time>2015-04-26T15:22:10Z</time>
</trkpt>
<trkpt lat="35.0480653" lon="32.4429051">
<ele>17.45</ele>
<time>2015-04-26T15:22:11Z</time>
</trkpt>
<trkpt lat="35.0480364" lon="32.4428561">
<ele>18.19</ele>
<time>2015-04-26T15:22:12Z</time>
</trkpt>
<trkpt lat="35.0480020" lon="32.4428075">
<ele>18.56</ele>
<time>2015-04-26T15:22:13Z</time>
</trkpt>
<trkpt lat="35.0479671" lon="32.4427566">
<ele>18.74</ele>
<time>2015-04-26T15:22:14Z</time>
</trkpt>
<trkpt lat="35.0479351" lon="32.4427020">
<ele>18.83</ele>
<time>2015-04-26T15:22:15Z</time>
</trkpt>
<trkpt lat="35.0478983" lon="32.4426493">
<ele>19.88</ele>
<time>2015-04-26T15:22:16Z</time>
</trkpt>
<trkpt lat="35.0478639" lon="32.4425907">
<ele>20.90</ele>
<time>2015-04-26T15:22:17Z</time>
</trkpt>
<trkpt lat="35.0478218" lon="32.4425360">
<ele>21.41</ele>
<time>2015-04-26T15:22:18Z</time>
</trkpt>
<trkpt lat="35.0477913" lon="32.4424802">
<ele>21.67</ele>
<time>2015-04-26T15:22:19Z</time>
</trkpt>
<trkpt lat="35.0477557" lon="32.4424290">
<ele>21.80</ele>
<time>2015-04-26T15:22:20Z</time>
</trkpt>
<trkpt lat="35.0476982" lon="32.4423418">
<ele>20.64</ele>
<time>2015-04-26T15:22:22Z</time>
</trkpt>
<trkpt lat="35.0476642" lon="32.4422971">
<ele>20.78</ele>
<time>2015-04-26T15:22:23Z</time>
</trkpt>
<trkpt lat="35.0476334" lon="32.4422543">
<ele>21.35</ele>
<time>2015-04-26T15:22:24Z</time>
</trkpt>
<trkpt lat="35.0475940" lon="32.4422060">
<ele>21.64</ele>
<time>2015-04-26T15:22:25Z</time>
</trkpt>
<trkpt lat="35.0475637" lon="32.4421535">
<ele>21.28</ele>
<time>2015-04-26T15:22:26Z</time>
</trkpt>
<trkpt lat="35.0475248" lon="32.4421065">
<ele>21.60</ele>
<time>2015-04-26T15:22:27Z</time>
</trkpt>
<trkpt lat="35.0474859" lon="32.4420504">
<ele>21.76</ele>
<time>2015-04-26T15:22:28Z</time>
</trkpt>
<trkpt lat="35.0474450" lon="32.4419966">
<ele>21.84</ele>
<time>2015-04-26T15:22:29Z</time>
</trkpt>
<trkpt lat="35.0474065" lon="32.4419613">
<ele>21.38</ele>
<time>2015-04-26T15:22:30Z</time>
</trkpt>
<trkpt lat="35.0473695" lon="32.4419169">
<ele>21.15</ele>
<time>2015-04-26T15:22:31Z</time>
</trkpt>
<trkpt lat="35.0473360" lon="32.4418726">
<ele>21.04</ele>
<time>2015-04-26T15:22:32Z</time>
</trkpt>
<trkpt lat="35.0472990" lon="32.4418272">
<ele>21.48</ele>
<time>2015-04-26T15:22:33Z</time>
</trkpt>
<trkpt lat="35.0472578" lon="32.4417789">
<ele>21.70</ele>
<time>2015-04-26T15:22:34Z</time>
</trkpt>
<trkpt lat="35.0472077" lon="32.4417302">
<ele>22.31</ele>
<time>2015-04-26T15:22:35Z</time>
</trkpt>
<trkpt lat="35.0471667" lon="32.4416792">
<ele>22.12</ele>
<time>2015-04-26T15:22:36Z</time>
</trkpt>
<trkpt lat="35.0471210" lon="32.4416352">
<ele>22.52</ele>
<time>2015-04-26T15:22:37Z</time>
</trkpt>
<trkpt lat="35.0470754" lon="32.4416022">
<ele>22.72</ele>
<time>2015-04-26T15:22:38Z</time>
</trkpt>
<trkpt lat="35.0470261" lon="32.4415552">
<ele>22.82</ele>
<time>2015-04-26T15:22:39Z</time>
</trkpt>
<trkpt lat="35.0469796" lon="32.4415186">
<ele>22.87</ele>
<time>2015-04-26T15:22:40Z</time>
</trkpt>
<trkpt lat="35.0469328" lon="32.4414783">
<ele>22.90</ele>
<time>2015-04-26T15:22:41Z</time>
</trkpt>
<trkpt lat="35.0468827" lon="32.4414401">
<ele>22.91</ele>
<time>2015-04-26T15:22:42Z</time>
</trkpt>
<trkpt lat="35.0468370" lon="32.4414033">
<ele>22.42</ele>
<time>2015-04-26T15:22:43Z</time>
</trkpt>
<trkpt lat="35.0467909" lon="32.4413725">
<ele>22.17</ele>
<time>2015-04-26T15:22:44Z</time>
</trkpt>
<trkpt lat="35.0467437" lon="32.4413416">
<ele>22.05</ele>
<time>2015-04-26T15:22:45Z</time>
</trkpt>
<trkpt lat="35.0466686" lon="32.4412919">
<ele>22.71</ele>
<time>2015-04-26T15:22:47Z</time>
</trkpt>
<trkpt lat="35.0466196" lon="32.4412630">
<ele>22.32</ele>
<time>2015-04-26T15:22:48Z</time>
</trkpt>
<trkpt lat="35.0465376" lon="32.4412169">
<ele>22.77</ele>
<time>2015-04-26T15:22:50Z</time>
</trkpt>
<trkpt lat="35.0464934" lon="32.4411910">
<ele>22.85</ele>
<time>2015-04-26T15:22:51Z</time>
</trkpt>
<trkpt lat="35.0464463" lon="32.4411592">
<ele>22.39</ele>
<time>2015-04-26T15:22:52Z</time>
</trkpt>
<trkpt lat="35.0463938" lon="32.4411395">
<ele>22.16</ele>
<time>2015-04-26T15:22:53Z</time>
</trkpt>
<trkpt lat="35.0463438" lon="32.4411134">
<ele>22.54</ele>
<time>2015-04-26T15:22:54Z</time>
</trkpt>
<trkpt lat="35.0462845" lon="32.4410931">
<ele>22.73</ele>
<time>2015-04-26T15:22:55Z</time>
</trkpt>
<trkpt lat="35.0462272" lon="32.4410732">
<ele>22.83</ele>
<time>2015-04-26T15:22:56Z</time>
</trkpt>
<trkpt lat="35.0461740" lon="32.4410639">
<ele>22.38</ele>
<time>2015-04-26T15:22:57Z</time>
</trkpt>
<trkpt lat="35.0461258" lon="32.4410468">
<ele>22.15</ele>
<time>2015-04-26T15:22:58Z</time>
</trkpt>
<trkpt lat="35.0460670" lon="32.4410370">
<ele>22.04</ele>
<time>2015-04-26T15:22:59Z</time>
</trkpt>
<trkpt lat="35.0460025" lon="32.4410228">
<ele>21.98</ele>
<time>2015-04-26T15:23:00Z</time>
</trkpt>
<trkpt lat="35.0459402" lon="32.4410122">
<ele>22.45</ele>
<time>2015-04-26T15:23:01Z</time>
</trkpt>
<trkpt lat="35.0458761" lon="32.4410022">
<ele>22.69</ele>
<time>2015-04-26T15:23:02Z</time>
</trkpt>
<trkpt lat="35.0458029" lon="32.4409907">
<ele>22.81</ele>
<time>2015-04-26T15:23:03Z</time>
</trkpt>
<trkpt lat="35.0457423" lon="32.4409845">
<ele>22.87</ele>
<time>2015-04-26T15:23:04Z</time>
</trkpt>
<trkpt lat="35.0456782" lon="32.4409790">
<ele>22.90</ele>
<time>2015-04-26T15:23:05Z</time>
</trkpt>
<trkpt lat="35.0456227" lon="32.4409704">
<ele>23.41</ele>
<time>2015-04-26T15:23:06Z</time>
</trkpt>
<trkpt lat="35.0455624" lon="32.4409611">
<ele>24.17</ele>
<time>2015-04-26T15:23:07Z</time>
</trkpt>
<trkpt lat="35.0455082" lon="32.4409503">
<ele>24.55</ele>
<time>2015-04-26T15:23:08Z</time>
</trkpt>
<trkpt lat="35.0454522" lon="32.4409452">
<ele>24.74</ele>
<time>2015-04-26T15:23:09Z</time>
</trkpt>
<trkpt lat="35.0454043" lon="32.4409441">
<ele>25.33</ele>
<time>2015-04-26T15:23:10Z</time>
</trkpt>
<trkpt lat="35.0453593" lon="32.4409386">
<ele>25.63</ele>
<time>2015-04-26T15:23:11Z</time>
</trkpt>
<trkpt lat="35.0453072" lon="32.4409426">
<ele>25.78</ele>
<time>2015-04-26T15:23:12Z</time>
</trkpt>
<trkpt lat="35.0452600" lon="32.4409412">
<ele>25.85</ele>
<time>2015-04-26T15:23:13Z</time>
</trkpt>
<trkpt lat="35.0452040" lon="32.4409432">
<ele>25.89</ele>
<time>2015-04-26T15:23:14Z</time>
</trkpt>
<trkpt lat="35.0451432" lon="32.4409342">
<ele>25.91</ele>
<time>2015-04-26T15:23:15Z</time>
</trkpt>
<trkpt lat="35.0450847" lon="32.4409282">
<ele>25.42</ele>
<time>2015-04-26T15:23:16Z</time>
</trkpt>
<trkpt lat="35.0450372" lon="32.4408952">
<ele>25.67</ele>
<time>2015-04-26T15:23:17Z</time>
</trkpt>
<trkpt lat="35.0449819" lon="32.4408916">
<ele>26.30</ele>
<time>2015-04-26T15:23:18Z</time>
</trkpt>
<trkpt lat="35.0449327" lon="32.4408875">
<ele>26.11</ele>
<time>2015-04-26T15:23:19Z</time>
</trkpt>
<trkpt lat="35.0448757" lon="32.4408906">
<ele>25.52</ele>
<time>2015-04-26T15:23:20Z</time>
</trkpt>
<trkpt lat="35.0448212" lon="32.4408926">
<ele>25.22</ele>
<time>2015-04-26T15:23:21Z</time>
</trkpt>
<trkpt lat="35.0447640" lon="32.4408887">
<ele>25.07</ele>
<time>2015-04-26T15:23:22Z</time>
</trkpt>
<trkpt lat="35.0447135" lon="32.4408850">
<ele>25.50</ele>
<time>2015-04-26T15:23:23Z</time>
</trkpt>
<trkpt lat="35.0446262" lon="32.4408764">
<ele>24.82</ele>
<time>2015-04-26T15:23:25Z</time>
</trkpt>
<trkpt lat="35.0445234" lon="32.4408751">
<ele>23.65</ele>
<time>2015-04-26T15:23:27Z</time>
</trkpt>
<trkpt lat="35.0444453" lon="32.4408696">
<ele>23.86</ele>
<time>2015-04-26T15:23:29Z</time>
</trkpt>
<trkpt lat="35.0443975" lon="32.4408706">
<ele>24.39</ele>
<time>2015-04-26T15:23:30Z</time>
</trkpt>
<trkpt lat="35.0443494" lon="32.4408633">
<ele>24.16</ele>
<time>2015-04-26T15:23:31Z</time>
</trkpt>
<trkpt lat="35.0443010" lon="32.4408550">
<ele>24.54</ele>
<time>2015-04-26T15:23:32Z</time>
</trkpt>
<trkpt lat="35.0442078" lon="32.4408566">
<ele>25.08</ele>
<time>2015-04-26T15:23:34Z</time>
</trkpt>
<trkpt lat="35.0441581" lon="32.4408578">
<ele>25.50</ele>
<time>2015-04-26T15:23:35Z</time>
</trkpt>
<trkpt lat="35.0441122" lon="32.4408582">
<ele>25.71</ele>
<time>2015-04-26T15:23:36Z</time>
</trkpt>
<trkpt lat="35.0440211" lon="32.4408445">
<ele>25.87</ele>
<time>2015-04-26T15:23:38Z</time>
</trkpt>
<trkpt lat="35.0439363" lon="32.4408328">
<ele>27.16</ele>
<time>2015-04-26T15:23:40Z</time>
</trkpt>
<trkpt lat="35.0438406" lon="32.4408237">
<ele>27.23</ele>
<time>2015-04-26T15:23:42Z</time>
</trkpt>
<trkpt lat="35.0437908" lon="32.4408191">
<ele>27.58</ele>
<time>2015-04-26T15:23:43Z</time>
</trkpt>
<trkpt lat="35.0437406" lon="32.4408074">
<ele>28.25</ele>
<time>2015-04-26T15:23:44Z</time>
</trkpt>
<trkpt lat="35.0436836" lon="32.4408050">
<ele>29.09</ele>
<time>2015-04-26T15:23:45Z</time>
</trkpt>
<trkpt lat="35.0436261" lon="32.4408099">
<ele>29.51</ele>
<time>2015-04-26T15:23:46Z</time>
</trkpt>
<trkpt lat="35.0435441" lon="32.4408198">
<ele>30.57</ele>
<time>2015-04-26T15:23:48Z</time>
</trkpt>
<trkpt lat="35.0434935" lon="32.4408095">
<ele>30.25</ele>
<time>2015-04-26T15:23:49Z</time>
</trkpt>
<trkpt lat="35.0434276" lon="32.4408106">
<ele>30.51</ele>
<time>2015-04-26T15:23:51Z</time>
</trkpt>
<trkpt lat="35.0433493" lon="32.4407990">
<ele>30.32</ele>
<time>2015-04-26T15:23:53Z</time>
</trkpt>
<trkpt lat="35.0432730" lon="32.4407784">
<ele>29.77</ele>
<time>2015-04-26T15:23:55Z</time>
</trkpt>
<trkpt lat="35.0432235" lon="32.4407743">
<ele>29.85</ele>
<time>2015-04-26T15:23:56Z</time>
</trkpt>
<trkpt lat="35.0431368" lon="32.4407719">
<ele>29.91</ele>
<time>2015-04-26T15:23:58Z</time>
</trkpt>
<trkpt lat="35.0430647" lon="32.4407539">
<ele>29.42</ele>
<time>2015-04-26T15:24:00Z</time>
</trkpt>
<trkpt lat="35.0429888" lon="32.4407511">
<ele>29.05</ele>
<time>2015-04-26T15:24:02Z</time>
</trkpt>
<trkpt lat="35.0429020" lon="32.4407329">
<ele>27.96</ele>
<time>2015-04-26T15:24:04Z</time>
</trkpt>
<trkpt lat="35.0428250" lon="32.4407181">
<ele>28.43</ele>
<time>2015-04-26T15:24:06Z</time>
</trkpt>
<trkpt lat="35.0427364" lon="32.4407017">
<ele>28.30</ele>
<time>2015-04-26T15:24:08Z</time>
</trkpt>
<trkpt lat="35.0426907" lon="32.4406926">
<ele>28.11</ele>
<time>2015-04-26T15:24:09Z</time>
</trkpt>
<trkpt lat="35.0426343" lon="32.4406727">
<ele>28.52</ele>
<time>2015-04-26T15:24:10Z</time>
</trkpt>
<trkpt lat="35.0425793" lon="32.4406446">
<ele>28.72</ele>
<time>2015-04-26T15:24:11Z</time>
</trkpt>
<trkpt lat="35.0425054" lon="32.4406045">
<ele>28.87</ele>
<time>2015-04-26T15:24:13Z</time>
</trkpt>
<trkpt lat="35.0424239" lon="32.4405831">
<ele>28.91</ele>
<time>2015-04-26T15:24:15Z</time>
</trkpt>
<trkpt lat="35.0423800" lon="32.4405656">
<ele>29.42</ele>
<time>2015-04-26T15:24:16Z</time>
</trkpt>
<trkpt lat="35.0423334" lon="32.4405498">
<ele>29.67</ele>
<time>2015-04-26T15:24:17Z</time>
</trkpt>
<trkpt lat="35.0422654" lon="32.4405300">
<ele>29.36</ele>
<time>2015-04-26T15:24:19Z</time>
</trkpt>
<trkpt lat="35.0421857" lon="32.4404889">
<ele>29.78</ele>
<time>2015-04-26T15:24:21Z</time>
</trkpt>
<trkpt lat="35.0421425" lon="32.4404653">
<ele>29.85</ele>
<time>2015-04-26T15:24:22Z</time>
</trkpt>
<trkpt lat="35.0420960" lon="32.4404312">
<ele>29.89</ele>
<time>2015-04-26T15:24:23Z</time>
</trkpt>
<trkpt lat="35.0420191" lon="32.4403750">
<ele>29.42</ele>
<time>2015-04-26T15:24:25Z</time>
</trkpt>
<trkpt lat="35.0419518" lon="32.4403214">
<ele>29.55</ele>
<time>2015-04-26T15:24:27Z</time>
</trkpt>
<trkpt lat="35.0418824" lon="32.4402787">
<ele>29.33</ele>
<time>2015-04-26T15:24:29Z</time>
</trkpt>
<trkpt lat="35.0418254" lon="32.4402099">
<ele>29.53</ele>
<time>2015-04-26T15:24:31Z</time>
</trkpt>
<trkpt lat="35.0417885" lon="32.4401765">
<ele>30.23</ele>
<time>2015-04-26T15:24:32Z</time>
</trkpt>
<trkpt lat="35.0417179" lon="32.4401126">
<ele>32.00</ele>
<time>2015-04-26T15:24:34Z</time>
</trkpt>
<trkpt lat="35.0416530" lon="32.4400540">
<ele>32.19</ele>
<time>2015-04-26T15:24:36Z</time>
</trkpt>
<trkpt lat="35.0415971" lon="32.4400179">
<ele>31.99</ele>
<time>2015-04-26T15:24:38Z</time>
</trkpt>
<trkpt lat="35.0415542" lon="32.4399748">
<ele>32.69</ele>
<time>2015-04-26T15:24:40Z</time>
</trkpt>
<trkpt lat="35.0414866" lon="32.4399234">
<ele>31.65</ele>
<time>2015-04-26T15:24:43Z</time>
</trkpt>
<trkpt lat="35.0414265" lon="32.4398656">
<ele>31.61</ele>
<time>2015-04-26T15:24:45Z</time>
</trkpt>
<trkpt lat="35.0413547" lon="32.4397569">
<ele>30.35</ele>
<time>2015-04-26T15:24:47Z</time>
</trkpt>
<trkpt lat="35.0413223" lon="32.4397138">
<ele>30.14</ele>
<time>2015-04-26T15:24:48Z</time>
</trkpt>
<trkpt lat="35.0412753" lon="32.4396239">
<ele>30.98</ele>
<time>2015-04-26T15:24:50Z</time>
</trkpt>
<trkpt lat="35.0412191" lon="32.4395605">
<ele>31.94</ele>
<time>2015-04-26T15:24:52Z</time>
</trkpt>
<trkpt lat="35.0411604" lon="32.4394907">
<ele>31.93</ele>
<time>2015-04-26T15:24:54Z</time>
</trkpt>
<trkpt lat="35.0411212" lon="32.4394170">
<ele>32.68</ele>
<time>2015-04-26T15:24:56Z</time>
</trkpt>
<trkpt lat="35.0410822" lon="32.4393447">
<ele>31.86</ele>
<time>2015-04-26T15:24:58Z</time>
</trkpt>
<trkpt lat="35.0410343" lon="32.4392658">
<ele>32.66</ele>
<time>2015-04-26T15:25:00Z</time>
</trkpt>
<trkpt lat="35.0409863" lon="32.4391857">
<ele>32.86</ele>
<time>2015-04-26T15:25:02Z</time>
</trkpt>
<trkpt lat="35.0409432" lon="32.4391049">
<ele>32.91</ele>
<time>2015-04-26T15:25:04Z</time>
</trkpt>
<trkpt lat="35.0409011" lon="32.4390280">
<ele>33.17</ele>
<time>2015-04-26T15:25:06Z</time>
</trkpt>
<trkpt lat="35.0408534" lon="32.4389511">
<ele>32.99</ele>
<time>2015-04-26T15:25:08Z</time>
</trkpt>
<trkpt lat="35.0407994" lon="32.4388579">
<ele>32.19</ele>
<time>2015-04-26T15:25:10Z</time>
</trkpt>
<trkpt lat="35.0407525" lon="32.4387778">
<ele>31.24</ele>
<time>2015-04-26T15:25:12Z</time>
</trkpt>
<trkpt lat="35.0407036" lon="32.4387110">
<ele>31.00</ele>
<time>2015-04-26T15:25:14Z</time>
</trkpt>
<trkpt lat="35.0406539" lon="32.4386094">
<ele>30.44</ele>
<time>2015-04-26T15:25:16Z</time>
</trkpt>
<trkpt lat="35.0406316" lon="32.4385599">
<ele>30.68</ele>
<time>2015-04-26T15:25:17Z</time>
</trkpt>
<trkpt lat="35.0406171" lon="32.4385042">
<ele>30.80</ele>
<time>2015-04-26T15:25:18Z</time>
</trkpt>
<trkpt lat="35.0405945" lon="32.4384552">
<ele>31.36</ele>
<time>2015-04-26T15:25:19Z</time>
</trkpt>
<trkpt lat="35.0405536" lon="32.4383643">
<ele>31.03</ele>
<time>2015-04-26T15:25:21Z</time>
</trkpt>
<trkpt lat="35.0405298" lon="32.4383144">
<ele>30.98</ele>
<time>2015-04-26T15:25:22Z</time>
</trkpt>
<trkpt lat="35.0404802" lon="32.4382261">
<ele>32.44</ele>
<time>2015-04-26T15:25:24Z</time>
</trkpt>
<trkpt lat="35.0404321" lon="32.4381449">
<ele>33.55</ele>
<time>2015-04-26T15:25:26Z</time>
</trkpt>
<trkpt lat="35.0404044" lon="32.4381000">
<ele>34.24</ele>
<time>2015-04-26T15:25:27Z</time>
</trkpt>
<trkpt lat="35.0403827" lon="32.4380472">
<ele>34.08</ele>
<time>2015-04-26T15:25:28Z</time>
</trkpt>
<trkpt lat="35.0403586" lon="32.4379978">
<ele>34.00</ele>
<time>2015-04-26T15:25:29Z</time>
</trkpt>
<trkpt lat="35.0403345" lon="32.4379389">
<ele>34.46</ele>
<time>2015-04-26T15:25:30Z</time>
</trkpt>
<trkpt lat="35.0403071" lon="32.4378804">
<ele>35.19</ele>
<time>2015-04-26T15:25:31Z</time>
</trkpt>
<trkpt lat="35.0402860" lon="32.4378271">
<ele>35.56</ele>
<time>2015-04-26T15:25:32Z</time>
</trkpt>
<trkpt lat="35.0402657" lon="32.4377774">
<ele>35.24</ele>
<time>2015-04-26T15:25:33Z</time>
</trkpt>
<trkpt lat="35.0402150" lon="32.4376860">
<ele>35.00</ele>
<time>2015-04-26T15:25:35Z</time>
</trkpt>
<trkpt lat="35.0401970" lon="32.4376243">
<ele>34.96</ele>
<time>2015-04-26T15:25:36Z</time>
</trkpt>
<trkpt lat="35.0401500" lon="32.4375362">
<ele>34.93</ele>
<time>2015-04-26T15:25:38Z</time>
</trkpt>
<trkpt lat="35.0401004" lon="32.4374453">
<ele>34.93</ele>
<time>2015-04-26T15:25:40Z</time>
</trkpt>
<trkpt lat="35.0400454" lon="32.4373798">
<ele>34.93</ele>
<time>2015-04-26T15:25:42Z</time>
</trkpt>
<trkpt lat="35.0399860" lon="32.4373121">
<ele>35.43</ele>
<time>2015-04-26T15:25:44Z</time>
</trkpt>
<trkpt lat="35.0399303" lon="32.4372280">
<ele>35.80</ele>
<time>2015-04-26T15:25:46Z</time>
</trkpt>
<trkpt lat="35.0399090" lon="32.4371581">
<ele>36.86</ele>
<time>2015-04-26T15:25:47Z</time>
</trkpt>
<trkpt lat="35.0398839" lon="32.4371114">
<ele>37.39</ele>
<time>2015-04-26T15:25:48Z</time>
</trkpt>
<trkpt lat="35.0398516" lon="32.4370505">
<ele>37.66</ele>
<time>2015-04-26T15:25:49Z</time>
</trkpt>
<trkpt lat="35.0398037" lon="32.4369609">
<ele>38.36</ele>
<time>2015-04-26T15:25:51Z</time>
</trkpt>
<trkpt lat="35.0397717" lon="32.4368676">
<ele>38.03</ele>
<time>2015-04-26T15:25:53Z</time>
</trkpt>
<trkpt lat="35.0397375" lon="32.4367786">
<ele>37.95</ele>
<time>2015-04-26T15:25:55Z</time>
</trkpt>
<trkpt lat="35.0396918" lon="32.4366873">
<ele>37.18</ele>
<time>2015-04-26T15:25:57Z</time>
</trkpt>
<trkpt lat="35.0396329" lon="32.4366001">
<ele>37.99</ele>
<time>2015-04-26T15:25:59Z</time>
</trkpt>
<trkpt lat="35.0395752" lon="32.4365228">
<ele>37.94</ele>
<time>2015-04-26T15:26:01Z</time>
</trkpt>
<trkpt lat="35.0395443" lon="32.4364797">
<ele>38.43</ele>
<time>2015-04-26T15:26:02Z</time>
</trkpt>
<trkpt lat="35.0394701" lon="32.4363925">
<ele>39.55</ele>
<time>2015-04-26T15:26:04Z</time>
</trkpt>
<trkpt lat="35.0394346" lon="32.4363563">
<ele>40.24</ele>
<time>2015-04-26T15:26:05Z</time>
</trkpt>
<trkpt lat="35.0393964" lon="32.4363249">
<ele>40.08</ele>
<time>2015-04-26T15:26:06Z</time>
</trkpt>
<trkpt lat="35.0393198" lon="32.4362535">
<ele>39.46</ele>
<time>2015-04-26T15:26:08Z</time>
</trkpt>
<trkpt lat="35.0392867" lon="32.4362095">
<ele>39.69</ele>
<time>2015-04-26T15:26:09Z</time>
</trkpt>
<trkpt lat="35.0392504" lon="32.4361689">
<ele>40.31</ele>
<time>2015-04-26T15:26:10Z</time>
</trkpt>
<trkpt lat="35.0392160" lon="32.4361232">
<ele>41.12</ele>
<time>2015-04-26T15:26:11Z</time>
</trkpt>
<trkpt lat="35.0391845" lon="32.4360814">
<ele>41.02</ele>
<time>2015-04-26T15:26:12Z</time>
</trkpt>
<trkpt lat="35.0391494" lon="32.4360440">
<ele>40.47</ele>
<time>2015-04-26T15:26:13Z</time>
</trkpt>
<trkpt lat="35.0391252" lon="32.4359907">
<ele>40.20</ele>
<time>2015-04-26T15:26:14Z</time>
</trkpt>
<trkpt lat="35.0390628" lon="32.4359191">
<ele>39.24</ele>
<time>2015-04-26T15:26:16Z</time>
</trkpt>
<trkpt lat="35.0390263" lon="32.4358718">
<ele>39.08</ele>
<time>2015-04-26T15:26:17Z</time>
</trkpt>
<trkpt lat="35.0389976" lon="32.4358281">
<ele>39.00</ele>
<time>2015-04-26T15:26:18Z</time>
</trkpt>
<trkpt lat="35.0389749" lon="32.4357799">
<ele>38.46</ele>
<time>2015-04-26T15:26:19Z</time>
</trkpt>
<trkpt lat="35.0389431" lon="32.4357289">
<ele>37.69</ele>
<time>2015-04-26T15:26:20Z</time>
</trkpt>
<trkpt lat="35.0389182" lon="32.4356689">
<ele>37.31</ele>
<time>2015-04-26T15:26:21Z</time>
</trkpt>
<trkpt lat="35.0388874" lon="32.4355530">
<ele>37.02</ele>
<time>2015-04-26T15:26:23Z</time>
</trkpt>
<trkpt lat="35.0388744" lon="32.4354970">
<ele>35.97</ele>
<time>2015-04-26T15:26:24Z</time>
</trkpt>
<trkpt lat="35.0388547" lon="32.4354218">
<ele>35.45</ele>
<time>2015-04-26T15:26:25Z</time>
</trkpt>
<trkpt lat="35.0388345" lon="32.4353546">
<ele>35.19</ele>
<time>2015-04-26T15:26:26Z</time>
</trkpt>
<trkpt lat="35.0388126" lon="32.4352990">
<ele>35.06</ele>
<time>2015-04-26T15:26:27Z</time>
</trkpt>
<trkpt lat="35.0387935" lon="32.4352370">
<ele>34.49</ele>
<time>2015-04-26T15:26:28Z</time>
</trkpt>
<trkpt lat="35.0387769" lon="32.4351832">
<ele>34.21</ele>
<time>2015-04-26T15:26:29Z</time>
</trkpt>
<trkpt lat="35.0387605" lon="32.4351164">
<ele>34.07</ele>
<time>2015-04-26T15:26:30Z</time>
</trkpt>
<trkpt lat="35.0387443" lon="32.4350561">
<ele>33.50</ele>
<time>2015-04-26T15:26:31Z</time>
</trkpt>
<trkpt lat="35.0387313" lon="32.4350027">
<ele>33.21</ele>
<time>2015-04-26T15:26:32Z</time>
</trkpt>
<trkpt lat="35.0387162" lon="32.4349375">
<ele>33.57</ele>
<time>2015-04-26T15:26:33Z</time>
</trkpt>
<trkpt lat="35.0386977" lon="32.4348861">
<ele>33.25</ele>
<time>2015-04-26T15:26:34Z</time>
</trkpt>
<trkpt lat="35.0386833" lon="32.4348305">
<ele>33.09</ele>
<time>2015-04-26T15:26:35Z</time>
</trkpt>
<trkpt lat="35.0386504" lon="32.4347493">
<ele>31.72</ele>
<time>2015-04-26T15:26:37Z</time>
</trkpt>
<trkpt lat="35.0386102" lon="32.4346760">
<ele>31.12</ele>
<time>2015-04-26T15:26:39Z</time>
</trkpt>
<trkpt lat="35.0385815" lon="32.4345898">
<ele>31.47</ele>
<time>2015-04-26T15:26:41Z</time>
</trkpt>
<trkpt lat="35.0385368" lon="32.4345095">
<ele>32.56</ele>
<time>2015-04-26T15:26:43Z</time>
</trkpt>
<trkpt lat="35.0384810" lon="32.4344300">
<ele>32.83</ele>
<time>2015-04-26T15:26:45Z</time>
</trkpt>
<trkpt lat="35.0384288" lon="32.4343512">
<ele>31.15</ele>
<time>2015-04-26T15:26:47Z</time>
</trkpt>
<trkpt lat="35.0383747" lon="32.4342764">
<ele>30.48</ele>
<time>2015-04-26T15:26:49Z</time>
</trkpt>
<trkpt lat="35.0383228" lon="32.4342059">
<ele>30.31</ele>
<time>2015-04-26T15:26:51Z</time>
</trkpt>
<trkpt lat="35.0382704" lon="32.4341412">
<ele>30.02</ele>
<time>2015-04-26T15:26:53Z</time>
</trkpt>
<trkpt lat="35.0382200" lon="32.4340743">
<ele>28.95</ele>
<time>2015-04-26T15:26:55Z</time>
</trkpt>
<trkpt lat="35.0381662" lon="32.4340050">
<ele>28.18</ele>
<time>2015-04-26T15:26:57Z</time>
</trkpt>
<trkpt lat="35.0381231" lon="32.4339510">
<ele>28.55</ele>
<time>2015-04-26T15:26:58Z</time>
</trkpt>
<trkpt lat="35.0380633" lon="32.4338746">
<ele>28.33</ele>
<time>2015-04-26T15:27:00Z</time>
</trkpt>
<trkpt lat="35.0380312" lon="32.4338301">
<ele>28.63</ele>
<time>2015-04-26T15:27:01Z</time>
</trkpt>
<trkpt lat="35.0380064" lon="32.4337800">
<ele>29.28</ele>
<time>2015-04-26T15:27:02Z</time>
</trkpt>
<trkpt lat="35.0379776" lon="32.4337363">
<ele>30.10</ele>
<time>2015-04-26T15:27:03Z</time>
</trkpt>
<trkpt lat="35.0379207" lon="32.4336590">
<ele>29.72</ele>
<time>2015-04-26T15:27:05Z</time>
</trkpt>
<trkpt lat="35.0378658" lon="32.4335819">
<ele>29.37</ele>
<time>2015-04-26T15:27:07Z</time>
</trkpt>
<trkpt lat="35.0378202" lon="32.4335091">
<ele>28.54</ele>
<time>2015-04-26T15:27:09Z</time>
</trkpt>
<trkpt lat="35.0377696" lon="32.4334386">
<ele>28.08</ele>
<time>2015-04-26T15:27:11Z</time>
</trkpt>
<trkpt lat="35.0377202" lon="32.4333665">
<ele>27.46</ele>
<time>2015-04-26T15:27:13Z</time>
</trkpt>
<trkpt lat="35.0376764" lon="32.4332886">
<ele>27.56</ele>
<time>2015-04-26T15:27:15Z</time>
</trkpt>
<trkpt lat="35.0376359" lon="32.4332069">
<ele>28.33</ele>
<time>2015-04-26T15:27:17Z</time>
</trkpt>
<trkpt lat="35.0375949" lon="32.4331281">
<ele>28.03</ele>
<time>2015-04-26T15:27:19Z</time>
</trkpt>
<trkpt lat="35.0375484" lon="32.4330560">
<ele>27.45</ele>
<time>2015-04-26T15:27:21Z</time>
</trkpt>
<trkpt lat="35.0374936" lon="32.4329803">
<ele>27.56</ele>
<time>2015-04-26T15:27:23Z</time>
</trkpt>
<trkpt lat="35.0374412" lon="32.4328997">
<ele>27.83</ele>
<time>2015-04-26T15:27:25Z</time>
</trkpt>
<trkpt lat="35.0373696" lon="32.4327891">
<ele>27.15</ele>
<time>2015-04-26T15:27:27Z</time>
</trkpt>
<trkpt lat="35.0373474" lon="32.4327345">
<ele>27.04</ele>
<time>2015-04-26T15:27:28Z</time>
</trkpt>
<trkpt lat="35.0373010" lon="32.4326555">
<ele>27.95</ele>
<time>2015-04-26T15:27:30Z</time>
</trkpt>
<trkpt lat="35.0372721" lon="32.4325802">
<ele>30.18</ele>
<time>2015-04-26T15:27:32Z</time>
</trkpt>
<trkpt lat="35.0372545" lon="32.4325272">
<ele>30.49</ele>
<time>2015-04-26T15:27:34Z</time>
</trkpt>
<trkpt lat="35.0372094" lon="32.4325080">
<ele>28.35</ele>
<time>2015-04-26T15:27:39Z</time>
</trkpt>
<trkpt lat="35.0372097" lon="32.4324417">
<ele>32.43</ele>
<time>2015-04-26T15:29:44Z</time>
</trkpt>
<trkpt lat="35.0371856" lon="32.4323736">
<ele>31.21</ele>
<time>2015-04-26T15:29:48Z</time>
</trkpt>
<trkpt lat="35.0371675" lon="32.4323134">
<ele>30.25</ele>
<time>2015-04-26T15:29:50Z</time>
</trkpt>
<trkpt lat="35.0371536" lon="32.4322387">
<ele>30.76</ele>
<time>2015-04-26T15:29:52Z</time>
</trkpt>
<trkpt lat="35.0371386" lon="32.4321579">
<ele>30.13</ele>
<time>2015-04-26T15:29:54Z</time>
</trkpt>
<trkpt lat="35.0371191" lon="32.4320802">
<ele>31.23</ele>
<time>2015-04-26T15:29:56Z</time>
</trkpt>
<trkpt lat="35.0371007" lon="32.4320114">
<ele>32.00</ele>
<time>2015-04-26T15:29:58Z</time>
</trkpt>
<trkpt lat="35.0370868" lon="32.4319570">
<ele>30.94</ele>
<time>2015-04-26T15:30:00Z</time>
</trkpt>
<trkpt lat="35.0370664" lon="32.4318893">
<ele>26.56</ele>
<time>2015-04-26T15:30:28Z</time>
</trkpt>
<trkpt lat="35.0370449" lon="32.4318080">
<ele>27.88</ele>
<time>2015-04-26T15:30:31Z</time>
</trkpt>
<trkpt lat="35.0370275" lon="32.4317294">
<ele>27.41</ele>
<time>2015-04-26T15:30:33Z</time>
</trkpt>
<trkpt lat="35.0370033" lon="32.4316526">
<ele>27.30</ele>
<time>2015-04-26T15:30:35Z</time>
</trkpt>
<trkpt lat="35.0369801" lon="32.4315824">
<ele>26.52</ele>
<time>2015-04-26T15:30:37Z</time>
</trkpt>
<trkpt lat="35.0369476" lon="32.4314975">
<ele>26.82</ele>
<time>2015-04-26T15:30:39Z</time>
</trkpt>
<trkpt lat="35.0369143" lon="32.4314236">
<ele>26.15</ele>
<time>2015-04-26T15:30:41Z</time>
</trkpt>
<trkpt lat="35.0368800" lon="32.4313547">
<ele>26.23</ele>
<time>2015-04-26T15:30:43Z</time>
</trkpt>
<trkpt lat="35.0368463" lon="32.4312861">
<ele>25.75</ele>
<time>2015-04-26T15:30:45Z</time>
</trkpt>
<trkpt lat="35.0368155" lon="32.4312210">
<ele>25.63</ele>
<time>2015-04-26T15:30:47Z</time>
</trkpt>
<trkpt lat="35.0367842" lon="32.4311596">
<ele>26.60</ele>
<time>2015-04-26T15:30:49Z</time>
</trkpt>
<trkpt lat="35.0367508" lon="32.4311087">
<ele>26.09</ele>
<time>2015-04-26T15:30:51Z</time>
</trkpt>
<trkpt lat="35.0367290" lon="32.4310551">
<ele>28.22</ele>
<time>2015-04-26T15:30:53Z</time>
</trkpt>
<trkpt lat="35.0367046" lon="32.4310026">
<ele>30.00</ele>
<time>2015-04-26T15:30:55Z</time>
</trkpt>
<trkpt lat="35.0366742" lon="32.4309404">
<ele>30.44</ele>
<time>2015-04-26T15:30:57Z</time>
</trkpt>
<trkpt lat="35.0366486" lon="32.4308771">
<ele>31.18</ele>
<time>2015-04-26T15:30:58Z</time>
</trkpt>
<trkpt lat="35.0366078" lon="32.4307865">
<ele>31.74</ele>
<time>2015-04-26T15:31:00Z</time>
</trkpt>
<trkpt lat="35.0365673" lon="32.4307022">
<ele>31.88</ele>
<time>2015-04-26T15:31:02Z</time>
</trkpt>
<trkpt lat="35.0365247" lon="32.4306229">
<ele>31.91</ele>
<time>2015-04-26T15:31:04Z</time>
</trkpt>
<trkpt lat="35.0364836" lon="32.4305214">
<ele>31.42</ele>
<time>2015-04-26T15:31:06Z</time>
</trkpt>
<trkpt lat="35.0364700" lon="32.4304645">
<ele>31.67</ele>
<time>2015-04-26T15:31:07Z</time>
</trkpt>
<trkpt lat="35.0364502" lon="32.4304083">
<ele>32.30</ele>
<time>2015-04-26T15:31:08Z</time>
</trkpt>
<trkpt lat="35.0364254" lon="32.4303468">
<ele>33.11</ele>
<time>2015-04-26T15:31:09Z</time>
</trkpt>
<trkpt lat="35.0364079" lon="32.4302936">
<ele>33.52</ele>
<time>2015-04-26T15:31:10Z</time>
</trkpt>
<trkpt lat="35.0363693" lon="32.4302174">
<ele>32.32</ele>
<time>2015-04-26T15:31:12Z</time>
</trkpt>
<trkpt lat="35.0363408" lon="32.4301260">
<ele>32.77</ele>
<time>2015-04-26T15:31:14Z</time>
</trkpt>
<trkpt lat="35.0362933" lon="32.4300610">
<ele>32.89</ele>
<time>2015-04-26T15:31:16Z</time>
</trkpt>
<trkpt lat="35.0362609" lon="32.4299729">
<ele>33.42</ele>
<time>2015-04-26T15:31:18Z</time>
</trkpt>
<trkpt lat="35.0362234" lon="32.4298968">
<ele>31.80</ele>
<time>2015-04-26T15:31:20Z</time>
</trkpt>
<trkpt lat="35.0361908" lon="32.4298310">
<ele>32.39</ele>
<time>2015-04-26T15:31:22Z</time>
</trkpt>
<trkpt lat="35.0361673" lon="32.4297673">
<ele>36.04</ele>
<time>2015-04-26T15:31:24Z</time>
</trkpt>
<trkpt lat="35.0361454" lon="32.4297081">
<ele>36.45</ele>
<time>2015-04-26T15:31:26Z</time>
</trkpt>
<trkpt lat="35.0361144" lon="32.4296518">
<ele>34.81</ele>
<time>2015-04-26T15:31:28Z</time>
</trkpt>
<trkpt lat="35.0360814" lon="32.4295960">
<ele>34.40</ele>
<time>2015-04-26T15:31:30Z</time>
</trkpt>
<trkpt lat="35.0360479" lon="32.4295427">
<ele>35.54</ele>
<time>2015-04-26T15:31:32Z</time>
</trkpt>
<trkpt lat="35.0359894" lon="32.4295695">
<ele>34.83</ele>
<time>2015-04-26T15:31:34Z</time>
</trkpt>
<trkpt lat="35.0359342" lon="32.4296148">
<ele>34.90</ele>
<time>2015-04-26T15:31:36Z</time>
</trkpt>
<trkpt lat="35.0358763" lon="32.4296569">
<ele>35.17</ele>
<time>2015-04-26T15:31:38Z</time>
</trkpt>
<trkpt lat="35.0358180" lon="32.4296927">
<ele>35.24</ele>
<time>2015-04-26T15:31:40Z</time>
</trkpt>
<trkpt lat="35.0357649" lon="32.4297270">
<ele>34.25</ele>
<time>2015-04-26T15:31:42Z</time>
</trkpt>
<trkpt lat="35.0357067" lon="32.4297727">
<ele>29.01</ele>
<time>2015-04-26T15:31:44Z</time>
</trkpt>
<trkpt lat="35.0356485" lon="32.4298092">
<ele>24.45</ele>
<time>2015-04-26T15:31:46Z</time>
</trkpt>
<trkpt lat="35.0355915" lon="32.4298373">
<ele>21.31</ele>
<time>2015-04-26T15:31:48Z</time>
</trkpt>
<trkpt lat="35.0355379" lon="32.4298535">
<ele>19.52</ele>
<time>2015-04-26T15:31:50Z</time>
</trkpt>
<trkpt lat="35.0354885" lon="32.4298581">
<ele>15.98</ele>
<time>2015-04-26T15:31:57Z</time>
</trkpt>
<trkpt lat="35.0354433" lon="32.4298685">
<ele>14.81</ele>
<time>2015-04-26T15:32:30Z</time>
</trkpt>
<trkpt lat="35.0354620" lon="32.4299202">
<ele>17.77</ele>
<time>2015-04-26T15:32:46Z</time>
</trkpt>
<trkpt lat="35.0354857" lon="32.4299692">
<ele>19.64</ele>
<time>2015-04-26T15:32:51Z</time>
</trkpt>
<trkpt lat="35.0355094" lon="32.4300164">
<ele>21.26</ele>
<time>2015-04-26T15:32:56Z</time>
</trkpt>
<trkpt lat="35.0355172" lon="32.4300735">
<ele>21.84</ele>
<time>2015-04-26T15:33:04Z</time>
</trkpt>
<trkpt lat="35.0355314" lon="32.4301334">
<ele>22.86</ele>
<time>2015-04-26T15:33:09Z</time>
</trkpt>
<trkpt lat="35.0355501" lon="32.4301861">
<ele>22.91</ele>
<time>2015-04-26T15:33:21Z</time>
</trkpt>
<trkpt lat="35.0355620" lon="32.4302412">
<ele>26.21</ele>
<time>2015-04-26T15:33:28Z</time>
</trkpt>
<trkpt lat="35.0355508" lon="32.4302970">
<ele>27.72</ele>
<time>2015-04-26T15:33:35Z</time>
</trkpt>
<trkpt lat="35.0355719" lon="32.4303470">
<ele>28.95</ele>
<time>2015-04-26T15:33:43Z</time>
</trkpt>
<trkpt lat="35.0356139" lon="32.4303674">
<ele>28.24</ele>
<time>2015-04-26T15:33:48Z</time>
</trkpt>
<trkpt lat="35.0356659" lon="32.4303580">
<ele>28.79</ele>
<time>2015-04-26T15:33:54Z</time>
</trkpt>
<trkpt lat="35.0357105" lon="32.4303687">
<ele>30.92</ele>
<time>2015-04-26T15:49:40Z</time>
</trkpt>
<trkpt lat="35.0357015" lon="32.4304259">
<ele>26.92</ele>
<time>2015-04-26T16:09:03Z</time>
</trkpt>
<trkpt lat="35.0357149" lon="32.4304867">
<ele>26.92</ele>
<time>2015-04-26T16:09:07Z</time>
</trkpt>
<trkpt lat="35.0357122" lon="32.4305580">
<ele>26.92</ele>
<time>2015-04-26T16:09:10Z</time>
</trkpt>
<trkpt lat="35.0357334" lon="32.4306224">
<ele>27.05</ele>
<time>2015-04-26T16:09:13Z</time>
</trkpt>
<trkpt lat="35.0357897" lon="32.4306463">
<ele>27.44</ele>
<time>2015-04-26T16:09:16Z</time>
</trkpt>
<trkpt lat="35.0358243" lon="32.4305889">
<ele>27.86</ele>
<time>2015-04-26T16:09:19Z</time>
</trkpt>
<trkpt lat="35.0358250" lon="32.4305337">
<ele>28.41</ele>
<time>2015-04-26T16:09:21Z</time>
</trkpt>
<trkpt lat="35.0358142" lon="32.4304697">
<ele>28.05</ele>
<time>2015-04-26T16:09:23Z</time>
</trkpt>
<trkpt lat="35.0357906" lon="32.4304053">
<ele>28.21</ele>
<time>2015-04-26T16:09:25Z</time>
</trkpt>
<trkpt lat="35.0357819" lon="32.4303504">
<ele>28.00</ele>
<time>2015-04-26T16:09:27Z</time>
</trkpt>
<trkpt lat="35.0357619" lon="32.4302920">
<ele>28.68</ele>
<time>2015-04-26T16:09:30Z</time>
</trkpt>
<trkpt lat="35.0357425" lon="32.4302277">
<ele>29.77</ele>
<time>2015-04-26T16:09:33Z</time>
</trkpt>
<trkpt lat="35.0357365" lon="32.4301640">
<ele>30.39</ele>
<time>2015-04-26T16:09:35Z</time>
</trkpt>
<trkpt lat="35.0357266" lon="32.4301002">
<ele>30.79</ele>
<time>2015-04-26T16:09:37Z</time>
</trkpt>
<trkpt lat="35.0357039" lon="32.4300139">
<ele>30.89</ele>
<time>2015-04-26T16:09:39Z</time>
</trkpt>
<trkpt lat="35.0356826" lon="32.4299358">
<ele>30.92</ele>
<time>2015-04-26T16:09:41Z</time>
</trkpt>
<trkpt lat="35.0356694" lon="32.4298645">
<ele>30.42</ele>
<time>2015-04-26T16:09:43Z</time>
</trkpt>
<trkpt lat="35.0356821" lon="32.4298098">
<ele>30.05</ele>
<time>2015-04-26T16:09:45Z</time>
</trkpt>
<trkpt lat="35.0357292" lon="32.4297771">
<ele>30.46</ele>
<time>2015-04-26T16:09:47Z</time>
</trkpt>
<trkpt lat="35.0357828" lon="32.4297440">
<ele>30.31</ele>
<time>2015-04-26T16:09:49Z</time>
</trkpt>
<trkpt lat="35.0358378" lon="32.4297097">
<ele>30.02</ele>
<time>2015-04-26T16:09:51Z</time>
</trkpt>
<trkpt lat="35.0358949" lon="32.4296799">
<ele>29.95</ele>
<time>2015-04-26T16:09:53Z</time>
</trkpt>
<trkpt lat="35.0359500" lon="32.4296548">
<ele>29.93</ele>
<time>2015-04-26T16:09:55Z</time>
</trkpt>
<trkpt lat="35.0360049" lon="32.4296298">
<ele>30.68</ele>
<time>2015-04-26T16:09:57Z</time>
</trkpt>
<trkpt lat="35.0360536" lon="32.4296253">
<ele>32.14</ele>
<time>2015-04-26T16:10:00Z</time>
</trkpt>
<trkpt lat="35.0360926" lon="32.4295941">
<ele>33.84</ele>
<time>2015-04-26T16:10:05Z</time>
</trkpt>
<trkpt lat="35.0360749" lon="32.4295183">
<ele>33.91</ele>
<time>2015-04-26T16:10:08Z</time>
</trkpt>
<trkpt lat="35.0360529" lon="32.4294607">
<ele>34.42</ele>
<time>2015-04-26T16:10:10Z</time>
</trkpt>
<trkpt lat="35.0360223" lon="32.4293963">
<ele>34.80</ele>
<time>2015-04-26T16:10:12Z</time>
</trkpt>
<trkpt lat="35.0359951" lon="32.4293329">
<ele>34.89</ele>
<time>2015-04-26T16:10:14Z</time>
</trkpt>
<trkpt lat="35.0359708" lon="32.4292730">
<ele>34.92</ele>
<time>2015-04-26T16:10:16Z</time>
</trkpt>
<trkpt lat="35.0359471" lon="32.4292173">
<ele>34.92</ele>
<time>2015-04-26T16:10:18Z</time>
</trkpt>
<trkpt lat="35.0359299" lon="32.4291629">
<ele>34.92</ele>
<time>2015-04-26T16:10:20Z</time>
</trkpt>
<trkpt lat="35.0359127" lon="32.4290933">
<ele>34.05</ele>
<time>2015-04-26T16:10:23Z</time>
</trkpt>
<trkpt lat="35.0358982" lon="32.4290355">
<ele>33.94</ele>
<time>2015-04-26T16:10:26Z</time>
</trkpt>
<trkpt lat="35.0358800" lon="32.4289699">
<ele>33.05</ele>
<time>2015-04-26T16:10:30Z</time>
</trkpt>
<trkpt lat="35.0358661" lon="32.4288995">
<ele>32.93</ele>
<time>2015-04-26T16:10:34Z</time>
</trkpt>
<trkpt lat="35.0358512" lon="32.4288462">
<ele>32.43</ele>
<time>2015-04-26T16:10:37Z</time>
</trkpt>
<trkpt lat="35.0358356" lon="32.4287946">
<ele>31.99</ele>
<time>2015-04-26T16:10:40Z</time>
</trkpt>
<trkpt lat="35.0358081" lon="32.4287338">
<ele>33.30</ele>
<time>2015-04-26T16:10:44Z</time>
</trkpt>
<trkpt lat="35.0357826" lon="32.4286748">
<ele>35.51</ele>
<time>2015-04-26T16:10:48Z</time>
</trkpt>
<trkpt lat="35.0357596" lon="32.4286104">
<ele>36.77</ele>
<time>2015-04-26T16:10:52Z</time>
</trkpt>
<trkpt lat="35.0357330" lon="32.4285496">
<ele>38.35</ele>
<time>2015-04-26T16:10:56Z</time>
</trkpt>
<trkpt lat="35.0357070" lon="32.4284883">
<ele>39.76</ele>
<time>2015-04-26T16:11:00Z</time>
</trkpt>
<trkpt lat="35.0356926" lon="32.4284167">
<ele>39.91</ele>
<time>2015-04-26T16:11:04Z</time>
</trkpt>
<trkpt lat="35.0357036" lon="32.4283573">
<ele>39.92</ele>
<time>2015-04-26T16:11:07Z</time>
</trkpt>
<trkpt lat="35.0357298" lon="32.4282974">
<ele>40.80</ele>
<time>2015-04-26T16:11:10Z</time>
</trkpt>
<trkpt lat="35.0357506" lon="32.4282353">
<ele>40.89</ele>
<time>2015-04-26T16:11:12Z</time>
</trkpt>
<trkpt lat="35.0357737" lon="32.4281788">
<ele>40.42</ele>
<time>2015-04-26T16:11:14Z</time>
</trkpt>
<trkpt lat="35.0357831" lon="32.4281139">
<ele>40.05</ele>
<time>2015-04-26T16:11:16Z</time>
</trkpt>
<trkpt lat="35.0357818" lon="32.4280325">
<ele>39.96</ele>
<time>2015-04-26T16:11:18Z</time>
</trkpt>
<trkpt lat="35.0357758" lon="32.4279494">
<ele>39.93</ele>
<time>2015-04-26T16:11:20Z</time>
</trkpt>
<trkpt lat="35.0357742" lon="32.4278686">
<ele>39.43</ele>
<time>2015-04-26T16:11:22Z</time>
</trkpt>
<trkpt lat="35.0357791" lon="32.4277890">
<ele>39.55</ele>
<time>2015-04-26T16:11:24Z</time>
</trkpt>
<trkpt lat="35.0357910" lon="32.4277108">
<ele>39.08</ele>
<time>2015-04-26T16:11:26Z</time>
</trkpt>
<trkpt lat="35.0358004" lon="32.4276353">
<ele>38.96</ele>
<time>2015-04-26T16:11:28Z</time>
</trkpt>
<trkpt lat="35.0357950" lon="32.4275703">
<ele>38.93</ele>
<time>2015-04-26T16:11:30Z</time>
</trkpt>
<trkpt lat="35.0357868" lon="32.4275142">
<ele>38.18</ele>
<time>2015-04-26T16:11:32Z</time>
</trkpt>
<trkpt lat="35.0357894" lon="32.4274544">
<ele>37.99</ele>
<time>2015-04-26T16:11:34Z</time>
</trkpt>
<trkpt lat="35.0357938" lon="32.4273868">
<ele>37.94</ele>
<time>2015-04-26T16:11:36Z</time>
</trkpt>
<trkpt lat="35.0357988" lon="32.4273003">
<ele>37.93</ele>
<time>2015-04-26T16:11:38Z</time>
</trkpt>
<trkpt lat="35.0358047" lon="32.4272192">
<ele>37.93</ele>
<time>2015-04-26T16:11:40Z</time>
</trkpt>
<trkpt lat="35.0358047" lon="32.4271421">
<ele>38.68</ele>
<time>2015-04-26T16:11:42Z</time>
</trkpt>
<trkpt lat="35.0357892" lon="32.4270671">
<ele>38.86</ele>
<time>2015-04-26T16:11:44Z</time>
</trkpt>
<trkpt lat="35.0357693" lon="32.4269960">
<ele>38.91</ele>
<time>2015-04-26T16:11:46Z</time>
</trkpt>
<trkpt lat="35.0357497" lon="32.4269358">
<ele>38.17</ele>
<time>2015-04-26T16:11:48Z</time>
</trkpt>
<trkpt lat="35.0357354" lon="32.4268781">
<ele>37.99</ele>
<time>2015-04-26T16:11:50Z</time>
</trkpt>
<trkpt lat="35.0357227" lon="32.4268226">
<ele>36.69</ele>
<time>2015-04-26T16:11:52Z</time>
</trkpt>
<trkpt lat="35.0357151" lon="32.4267676">
<ele>36.87</ele>
<time>2015-04-26T16:11:54Z</time>
</trkpt>
<trkpt lat="35.0357633" lon="32.4267298">
<ele>38.16</ele>
<time>2015-04-26T16:11:56Z</time>
</trkpt>
<trkpt lat="35.0358319" lon="32.4266894">
<ele>38.23</ele>
<time>2015-04-26T16:11:58Z</time>
</trkpt>
<trkpt lat="35.0359052" lon="32.4266396">
<ele>38.00</ele>
<time>2015-04-26T16:12:00Z</time>
</trkpt>
<trkpt lat="35.0359733" lon="32.4265901">
<ele>37.94</ele>
<time>2015-04-26T16:12:02Z</time>
</trkpt>
<trkpt lat="35.0360463" lon="32.4265530">
<ele>36.93</ele>
<time>2015-04-26T16:12:04Z</time>
</trkpt>
<trkpt lat="35.0361162" lon="32.4265154">
<ele>36.18</ele>
<time>2015-04-26T16:12:06Z</time>
</trkpt>
<trkpt lat="35.0361810" lon="32.4264679">
<ele>36.74</ele>
<time>2015-04-26T16:12:08Z</time>
</trkpt>
<trkpt lat="35.0362411" lon="32.4264209">
<ele>37.63</ele>
<time>2015-04-26T16:12:10Z</time>
</trkpt>
<trkpt lat="35.0363106" lon="32.4263862">
<ele>38.10</ele>
<time>2015-04-26T16:12:12Z</time>
</trkpt>
<trkpt lat="35.0363720" lon="32.4263439">
<ele>37.22</ele>
<time>2015-04-26T16:12:14Z</time>
</trkpt>
<trkpt lat="35.0364326" lon="32.4263020">
<ele>37.00</ele>
<time>2015-04-26T16:12:16Z</time>
</trkpt>
<trkpt lat="35.0364953" lon="32.4262631">
<ele>35.69</ele>
<time>2015-04-26T16:12:18Z</time>
</trkpt>
<trkpt lat="35.0365586" lon="32.4262246">
<ele>35.62</ele>
<time>2015-04-26T16:12:20Z</time>
</trkpt>
<trkpt lat="35.0366217" lon="32.4261816">
<ele>35.85</ele>
<time>2015-04-26T16:12:22Z</time>
</trkpt>
<trkpt lat="35.0366809" lon="32.4261447">
<ele>35.91</ele>
<time>2015-04-26T16:12:24Z</time>
</trkpt>
<trkpt lat="35.0367297" lon="32.4261156">
<ele>35.92</ele>
<time>2015-04-26T16:12:26Z</time>
</trkpt>
<trkpt lat="35.0367707" lon="32.4260658">
<ele>35.92</ele>
<time>2015-04-26T16:12:28Z</time>
</trkpt>
<trkpt lat="35.0367957" lon="32.4259939">
<ele>35.17</ele>
<time>2015-04-26T16:12:30Z</time>
</trkpt>
<trkpt lat="35.0367846" lon="32.4259114">
<ele>34.99</ele>
<time>2015-04-26T16:12:32Z</time>
</trkpt>
<trkpt lat="35.0367450" lon="32.4258344">
<ele>34.94</ele>
<time>2015-04-26T16:12:34Z</time>
</trkpt>
<trkpt lat="35.0367033" lon="32.4257598">
<ele>34.18</ele>
<time>2015-04-26T16:12:36Z</time>
</trkpt>
<trkpt lat="35.0366723" lon="32.4256808">
<ele>34.49</ele>
<time>2015-04-26T16:12:38Z</time>
</trkpt>
<trkpt lat="35.0366464" lon="32.4256042">
<ele>34.82</ele>
<time>2015-04-26T16:12:40Z</time>
</trkpt>
<trkpt lat="35.0366204" lon="32.4255320">
<ele>34.90</ele>
<time>2015-04-26T16:12:42Z</time>
</trkpt>
<trkpt lat="35.0365992" lon="32.4254706">
<ele>34.92</ele>
<time>2015-04-26T16:12:44Z</time>
</trkpt>
<trkpt lat="35.0365899" lon="32.4254062">
<ele>34.42</ele>
<time>2015-04-26T16:12:46Z</time>
</trkpt>
<trkpt lat="35.0365772" lon="32.4253430">
<ele>34.05</ele>
<time>2015-04-26T16:12:48Z</time>
</trkpt>
<trkpt lat="35.0365608" lon="32.4252844">
<ele>33.96</ele>
<time>2015-04-26T16:12:50Z</time>
</trkpt>
<trkpt lat="35.0365483" lon="32.4252272">
<ele>33.93</ele>
<time>2015-04-26T16:12:52Z</time>
</trkpt>
<trkpt lat="35.0365330" lon="32.4251606">
<ele>33.93</ele>
<time>2015-04-26T16:12:55Z</time>
</trkpt>
<trkpt lat="35.0365121" lon="32.4250968">
<ele>34.43</ele>
<time>2015-04-26T16:12:58Z</time>
</trkpt>
<trkpt lat="35.0364988" lon="32.4250388">
<ele>34.05</ele>
<time>2015-04-26T16:13:00Z</time>
</trkpt>
<trkpt lat="35.0364872" lon="32.4249715">
<ele>34.71</ele>
<time>2015-04-26T16:13:02Z</time>
</trkpt>
<trkpt lat="35.0364752" lon="32.4249052">
<ele>34.12</ele>
<time>2015-04-26T16:13:04Z</time>
</trkpt>
<trkpt lat="35.0364622" lon="32.4248478">
<ele>33.97</ele>
<time>2015-04-26T16:13:06Z</time>
</trkpt>
<trkpt lat="35.0364592" lon="32.4247904">
<ele>33.93</ele>
<time>2015-04-26T16:13:09Z</time>
</trkpt>
<trkpt lat="35.0364400" lon="32.4247392">
<ele>33.93</ele>
<time>2015-04-26T16:13:12Z</time>
</trkpt>
<trkpt lat="35.0363964" lon="32.4247050">
<ele>33.93</ele>
<time>2015-04-26T16:13:14Z</time>
</trkpt>
<trkpt lat="35.0363288" lon="32.4246874">
<ele>34.18</ele>
<time>2015-04-26T16:13:16Z</time>
</trkpt>
<trkpt lat="35.0362655" lon="32.4246848">
<ele>33.99</ele>
<time>2015-04-26T16:13:18Z</time>
</trkpt>
<trkpt lat="35.0362012" lon="32.4246936">
<ele>33.44</ele>
<time>2015-04-26T16:13:20Z</time>
</trkpt>
<trkpt lat="35.0361410" lon="32.4246993">
<ele>33.80</ele>
<time>2015-04-26T16:13:22Z</time>
</trkpt>
<trkpt lat="35.0360833" lon="32.4247008">
<ele>33.89</ele>
<time>2015-04-26T16:13:24Z</time>
</trkpt>
<trkpt lat="35.0360279" lon="32.4247011">
<ele>32.67</ele>
<time>2015-04-26T16:13:26Z</time>
</trkpt>
<trkpt lat="35.0359771" lon="32.4247010">
<ele>33.61</ele>
<time>2015-04-26T16:13:28Z</time>
</trkpt>
<trkpt lat="35.0359237" lon="32.4247098">
<ele>33.85</ele>
<time>2015-04-26T16:13:30Z</time>
</trkpt>
<trkpt lat="35.0358701" lon="32.4247165">
<ele>33.91</ele>
<time>2015-04-26T16:13:32Z</time>
</trkpt>
<trkpt lat="35.0358178" lon="32.4247251">
<ele>33.92</ele>
<time>2015-04-26T16:13:34Z</time>
</trkpt>
<trkpt lat="35.0357675" lon="32.4247322">
<ele>33.92</ele>
<time>2015-04-26T16:13:36Z</time>
</trkpt>
<trkpt lat="35.0357196" lon="32.4247440">
<ele>34.42</ele>
<time>2015-04-26T16:13:38Z</time>
</trkpt>
<trkpt lat="35.0356703" lon="32.4247587">
<ele>34.80</ele>
<time>2015-04-26T16:13:40Z</time>
</trkpt>
<trkpt lat="35.0356270" lon="32.4247798">
<ele>34.89</ele>
<time>2015-04-26T16:13:42Z</time>
</trkpt>
<trkpt lat="35.0355837" lon="32.4248034">
<ele>34.92</ele>
<time>2015-04-26T16:13:44Z</time>
</trkpt>
<trkpt lat="35.0355406" lon="32.4248221">
<ele>35.42</ele>
<time>2015-04-26T16:13:46Z</time>
</trkpt>
<trkpt lat="35.0354985" lon="32.4248422">
<ele>35.80</ele>
<time>2015-04-26T16:13:48Z</time>
</trkpt>
<trkpt lat="35.0354368" lon="32.4248619">
<ele>36.41</ele>
<time>2015-04-26T16:13:51Z</time>
</trkpt>
<trkpt lat="35.0353930" lon="32.4248798">
<ele>35.99</ele>
<time>2015-04-26T16:13:54Z</time>
</trkpt>
<trkpt lat="35.0353467" lon="32.4249022">
<ele>37.18</ele>
<time>2015-04-26T16:13:57Z</time>
</trkpt>
<trkpt lat="35.0353119" lon="32.4249448">
<ele>39.07</ele>
<time>2015-04-26T16:14:01Z</time>
</trkpt>
<trkpt lat="35.0353264" lon="32.4250018">
<ele>39.82</ele>
<time>2015-04-26T16:14:04Z</time>
</trkpt>
<trkpt lat="35.0353452" lon="32.4250657">
<ele>39.91</ele>
<time>2015-04-26T16:14:07Z</time>
</trkpt>
<trkpt lat="35.0353594" lon="32.4251334">
<ele>40.67</ele>
<time>2015-04-26T16:14:09Z</time>
</trkpt>
<trkpt lat="35.0353876" lon="32.4252148">
<ele>40.11</ele>
<time>2015-04-26T16:14:11Z</time>
</trkpt>
<trkpt lat="35.0354152" lon="32.4252669">
<ele>39.97</ele>
<time>2015-04-26T16:14:13Z</time>
</trkpt>
<trkpt lat="35.0354336" lon="32.4253179">
<ele>40.44</ele>
<time>2015-04-26T16:14:15Z</time>
</trkpt>
<trkpt lat="35.0354538" lon="32.4254016">
<ele>40.80</ele>
<time>2015-04-26T16:14:18Z</time>
</trkpt>
<trkpt lat="35.0354674" lon="32.4254545">
<ele>40.89</ele>
<time>2015-04-26T16:14:20Z</time>
</trkpt>
<trkpt lat="35.0354920" lon="32.4255303">
<ele>40.05</ele>
<time>2015-04-26T16:14:23Z</time>
</trkpt>
<trkpt lat="35.0355098" lon="32.4255857">
<ele>39.71</ele>
<time>2015-04-26T16:14:25Z</time>
</trkpt>
<trkpt lat="35.0355305" lon="32.4256508">
<ele>39.87</ele>
<time>2015-04-26T16:14:27Z</time>
</trkpt>
<trkpt lat="35.0355463" lon="32.4257222">
<ele>39.16</ele>
<time>2015-04-26T16:14:29Z</time>
</trkpt>
<trkpt lat="35.0355602" lon="32.4257915">
<ele>38.98</ele>
<time>2015-04-26T16:14:31Z</time>
</trkpt>
<trkpt lat="35.0355743" lon="32.4258613">
<ele>38.44</ele>
<time>2015-04-26T16:14:33Z</time>
</trkpt>
<trkpt lat="35.0355926" lon="32.4259310">
<ele>38.05</ele>
<time>2015-04-26T16:14:35Z</time>
</trkpt>
<trkpt lat="35.0356131" lon="32.4260001">
<ele>37.96</ele>
<time>2015-04-26T16:14:37Z</time>
</trkpt>
<trkpt lat="35.0356376" lon="32.4260671">
<ele>37.93</ele>
<time>2015-04-26T16:14:39Z</time>
</trkpt>
<trkpt lat="35.0356599" lon="32.4261360">
<ele>37.93</ele>
<time>2015-04-26T16:14:41Z</time>
</trkpt>
<trkpt lat="35.0356725" lon="32.4262081">
<ele>38.68</ele>
<time>2015-04-26T16:14:43Z</time>
</trkpt>
<trkpt lat="35.0356836" lon="32.4263073">
<ele>38.11</ele>
<time>2015-04-26T16:14:45Z</time>
</trkpt>
<trkpt lat="35.0357066" lon="32.4263943">
<ele>37.97</ele>
<time>2015-04-26T16:14:47Z</time>
</trkpt>
<trkpt lat="35.0357296" lon="32.4264753">
<ele>37.94</ele>
<time>2015-04-26T16:14:49Z</time>
</trkpt>
<trkpt lat="35.0357508" lon="32.4265474">
<ele>37.68</ele>
<time>2015-04-26T16:14:51Z</time>
</trkpt>
<trkpt lat="35.0357694" lon="32.4266195">
<ele>37.36</ele>
<time>2015-04-26T16:14:53Z</time>
</trkpt>
<trkpt lat="35.0357837" lon="32.4266954">
<ele>36.53</ele>
<time>2015-04-26T16:14:55Z</time>
</trkpt>
<trkpt lat="35.0357977" lon="32.4267760">
<ele>36.08</ele>
<time>2015-04-26T16:14:57Z</time>
</trkpt>
<trkpt lat="35.0358169" lon="32.4268721">
<ele>35.96</ele>
<time>2015-04-26T16:14:59Z</time>
</trkpt>
<trkpt lat="35.0358219" lon="32.4269465">
<ele>34.68</ele>
<time>2015-04-26T16:15:01Z</time>
</trkpt>
<trkpt lat="35.0358205" lon="32.4270017">
<ele>34.11</ele>
<time>2015-04-26T16:15:03Z</time>
</trkpt>
<trkpt lat="35.0358349" lon="32.4270649">
<ele>34.47</ele>
<time>2015-04-26T16:15:05Z</time>
</trkpt>
<trkpt lat="35.0358584" lon="32.4271293">
<ele>35.31</ele>
<time>2015-04-26T16:15:07Z</time>
</trkpt>
<trkpt lat="35.0358790" lon="32.4271953">
<ele>35.77</ele>
<time>2015-04-26T16:15:09Z</time>
</trkpt>
<trkpt lat="35.0358975" lon="32.4272583">
<ele>35.39</ele>
<time>2015-04-26T16:15:11Z</time>
</trkpt>
<trkpt lat="35.0359214" lon="32.4273130">
<ele>34.54</ele>
<time>2015-04-26T16:15:13Z</time>
</trkpt>
<trkpt lat="35.0359779" lon="32.4273477">
<ele>35.33</ele>
<time>2015-04-26T16:15:15Z</time>
</trkpt>
<trkpt lat="35.0360181" lon="32.4274216">
<ele>36.53</ele>
<time>2015-04-26T16:15:17Z</time>
</trkpt>
<trkpt lat="35.0360131" lon="32.4275052">
<ele>37.58</ele>
<time>2015-04-26T16:15:19Z</time>
</trkpt>
<trkpt lat="35.0359686" lon="32.4275834">
<ele>37.09</ele>
<time>2015-04-26T16:15:21Z</time>
</trkpt>
<trkpt lat="35.0359056" lon="32.4276555">
<ele>36.97</ele>
<time>2015-04-26T16:15:23Z</time>
</trkpt>
<trkpt lat="35.0358586" lon="32.4277227">
<ele>36.94</ele>
<time>2015-04-26T16:15:25Z</time>
</trkpt>
<trkpt lat="35.0358380" lon="32.4277878">
<ele>36.18</ele>
<time>2015-04-26T16:15:27Z</time>
</trkpt>
<trkpt lat="35.0358288" lon="32.4278521">
<ele>35.99</ele>
<time>2015-04-26T16:15:29Z</time>
</trkpt>
<trkpt lat="35.0358220" lon="32.4279133">
<ele>35.94</ele>
<time>2015-04-26T16:15:31Z</time>
</trkpt>
<trkpt lat="35.0358139" lon="32.4279677">
<ele>35.93</ele>
<time>2015-04-26T16:15:33Z</time>
</trkpt>
<trkpt lat="35.0358099" lon="32.4280278">
<ele>35.93</ele>
<time>2015-04-26T16:15:37Z</time>
</trkpt>
<trkpt lat="35.0357851" lon="32.4280896">
<ele>38.80</ele>
<time>2015-04-26T16:17:19Z</time>
</trkpt>
<trkpt lat="35.0357722" lon="32.4281511">
<ele>42.16</ele>
<time>2015-04-26T16:17:22Z</time>
</trkpt>
<trkpt lat="35.0357689" lon="32.4282614">
<ele>42.08</ele>
<time>2015-04-26T16:17:25Z</time>
</trkpt>
<trkpt lat="35.0357957" lon="32.4283444">
<ele>40.96</ele>
<time>2015-04-26T16:17:27Z</time>
</trkpt>
<trkpt lat="35.0358259" lon="32.4284251">
<ele>40.43</ele>
<time>2015-04-26T16:17:29Z</time>
</trkpt>
<trkpt lat="35.0358556" lon="32.4285093">
<ele>39.55</ele>
<time>2015-04-26T16:17:31Z</time>
</trkpt>
<trkpt lat="35.0359005" lon="32.4286776">
<ele>37.83</ele>
<time>2015-04-26T16:17:33Z</time>
</trkpt>
<trkpt lat="35.0359213" lon="32.4287518">
<ele>36.88</ele>
<time>2015-04-26T16:17:34Z</time>
</trkpt>
<trkpt lat="35.0359508" lon="32.4288252">
<ele>35.90</ele>
<time>2015-04-26T16:17:35Z</time>
</trkpt>
<trkpt lat="35.0359697" lon="32.4288954">
<ele>35.41</ele>
<time>2015-04-26T16:17:36Z</time>
</trkpt>
<trkpt lat="35.0360082" lon="32.4289660">
<ele>35.17</ele>
<time>2015-04-26T16:17:37Z</time>
</trkpt>
<trkpt lat="35.0360303" lon="32.4290436">
<ele>35.55</ele>
<time>2015-04-26T16:17:38Z</time>
</trkpt>
<trkpt lat="35.0360443" lon="32.4291180">
<ele>34.74</ele>
<time>2015-04-26T16:17:39Z</time>
</trkpt>
<trkpt lat="35.0360682" lon="32.4291933">
<ele>34.33</ele>
<time>2015-04-26T16:17:40Z</time>
</trkpt>
<trkpt lat="35.0360840" lon="32.4292675">
<ele>33.63</ele>
<time>2015-04-26T16:17:41Z</time>
</trkpt>
<trkpt lat="35.0361065" lon="32.4293436">
<ele>33.28</ele>
<time>2015-04-26T16:17:42Z</time>
</trkpt>
<trkpt lat="35.0361300" lon="32.4294370">
<ele>32.60</ele>
<time>2015-04-26T16:17:43Z</time>
</trkpt>
<trkpt lat="35.0361622" lon="32.4295048">
<ele>32.26</ele>
<time>2015-04-26T16:17:44Z</time>
</trkpt>
<trkpt lat="35.0361888" lon="32.4295730">
<ele>31.59</ele>
<time>2015-04-26T16:17:45Z</time>
</trkpt>
<trkpt lat="35.0362042" lon="32.4296417">
<ele>31.76</ele>
<time>2015-04-26T16:17:46Z</time>
</trkpt>
<trkpt lat="35.0362190" lon="32.4297024">
<ele>32.34</ele>
<time>2015-04-26T16:17:47Z</time>
</trkpt>
<trkpt lat="35.0362505" lon="32.4297492">
<ele>32.63</ele>
<time>2015-04-26T16:17:48Z</time>
</trkpt>
<trkpt lat="35.0362722" lon="32.4298226">
<ele>32.35</ele>
<time>2015-04-26T16:17:50Z</time>
</trkpt>
<trkpt lat="35.0362986" lon="32.4298750">
<ele>31.01</ele>
<time>2015-04-26T16:17:54Z</time>
</trkpt>
<trkpt lat="35.0362920" lon="32.4299308">
<ele>31.49</ele>
<time>2015-04-26T16:19:39Z</time>
</trkpt>
<trkpt lat="35.0362576" lon="32.4299738">
<ele>31.27</ele>
<time>2015-04-26T16:19:43Z</time>
</trkpt>
<trkpt lat="35.0362590" lon="32.4300368">
<ele>30.51</ele>
<time>2015-04-26T16:19:45Z</time>
</trkpt>
<trkpt lat="35.0362469" lon="32.4301009">
<ele>30.07</ele>
<time>2015-04-26T16:19:47Z</time>
</trkpt>
<trkpt lat="35.0362045" lon="32.4301565">
<ele>30.46</ele>
<time>2015-04-26T16:19:49Z</time>
</trkpt>
<trkpt lat="35.0361774" lon="32.4302043">
<ele>31.31</ele>
<time>2015-04-26T16:19:51Z</time>
</trkpt>
<trkpt lat="35.0362299" lon="32.4302241">
<ele>31.85</ele>
<time>2015-04-26T16:19:54Z</time>
</trkpt>
<trkpt lat="35.0362630" lon="32.4301675">
<ele>30.66</ele>
<time>2015-04-26T16:19:56Z</time>
</trkpt>
<trkpt lat="35.0362763" lon="32.4300955">
<ele>30.11</ele>
<time>2015-04-26T16:19:58Z</time>
</trkpt>
<trkpt lat="35.0362653" lon="32.4300262">
<ele>29.97</ele>
<time>2015-04-26T16:20:00Z</time>
</trkpt>
<trkpt lat="35.0362460" lon="32.4299645">
<ele>29.94</ele>
<time>2015-04-26T16:20:02Z</time>
</trkpt>
<trkpt lat="35.0362269" lon="32.4299053">
<ele>29.43</ele>
<time>2015-04-26T16:20:04Z</time>
</trkpt>
<trkpt lat="35.0362065" lon="32.4298511">
<ele>29.30</ele>
<time>2015-04-26T16:20:06Z</time>
</trkpt>
<trkpt lat="35.0361801" lon="32.4297729">
<ele>30.52</ele>
<time>2015-04-26T16:20:08Z</time>
</trkpt>
<trkpt lat="35.0361527" lon="32.4296914">
<ele>31.32</ele>
<time>2015-04-26T16:20:10Z</time>
</trkpt>
<trkpt lat="35.0361289" lon="32.4296191">
<ele>31.52</ele>
<time>2015-04-26T16:20:12Z</time>
</trkpt>
<trkpt lat="35.0360847" lon="32.4295822">
<ele>30.57</ele>
<time>2015-04-26T16:20:14Z</time>
</trkpt>
<trkpt lat="35.0360261" lon="32.4295998">
<ele>29.59</ele>
<time>2015-04-26T16:20:16Z</time>
</trkpt>
<trkpt lat="35.0359648" lon="32.4296265">
<ele>29.09</ele>
<time>2015-04-26T16:20:18Z</time>
</trkpt>
<trkpt lat="35.0359078" lon="32.4296533">
<ele>28.47</ele>
<time>2015-04-26T16:20:20Z</time>
</trkpt>
<trkpt lat="35.0358514" lon="32.4296866">
<ele>28.06</ele>
<time>2015-04-26T16:20:22Z</time>
</trkpt>
<trkpt lat="35.0357989" lon="32.4297250">
<ele>27.71</ele>
<time>2015-04-26T16:20:24Z</time>
</trkpt>
<trkpt lat="35.0357485" lon="32.4297646">
<ele>27.87</ele>
<time>2015-04-26T16:20:26Z</time>
</trkpt>
<trkpt lat="35.0356992" lon="32.4298086">
<ele>28.66</ele>
<time>2015-04-26T16:20:28Z</time>
</trkpt>
<trkpt lat="35.0356467" lon="32.4298432">
<ele>29.36</ele>
<time>2015-04-26T16:20:30Z</time>
</trkpt>
<trkpt lat="35.0355943" lon="32.4298704">
<ele>29.78</ele>
<time>2015-04-26T16:20:32Z</time>
</trkpt>
<trkpt lat="35.0355454" lon="32.4298835">
<ele>29.39</ele>
<time>2015-04-26T16:20:34Z</time>
</trkpt>
<trkpt lat="35.0354924" lon="32.4298985">
<ele>29.86</ele>
<time>2015-04-26T16:20:37Z</time>
</trkpt>
<trkpt lat="35.0355117" lon="32.4298473">
<ele>28.42</ele>
<time>2015-04-26T16:20:40Z</time>
</trkpt>
<trkpt lat="35.0355373" lon="32.4298980">
<ele>24.70</ele>
<time>2015-04-26T16:27:31Z</time>
</trkpt>
<trkpt lat="35.0355486" lon="32.4299618">
<ele>27.22</ele>
<time>2015-04-26T16:27:35Z</time>
</trkpt>
<trkpt lat="35.0355934" lon="32.4298957">
<ele>28.92</ele>
<time>2015-04-26T16:27:48Z</time>
</trkpt>
<trkpt lat="35.0356556" lon="32.4298561">
<ele>28.92</ele>
<time>2015-04-26T16:27:50Z</time>
</trkpt>
<trkpt lat="35.0357165" lon="32.4298135">
<ele>28.92</ele>
<time>2015-04-26T16:27:52Z</time>
</trkpt>
<trkpt lat="35.0357776" lon="32.4297685">
<ele>28.92</ele>
<time>2015-04-26T16:27:54Z</time>
</trkpt>
<trkpt lat="35.0358357" lon="32.4297291">
<ele>28.92</ele>
<time>2015-04-26T16:27:56Z</time>
</trkpt>
<trkpt lat="35.0358879" lon="32.4296891">
<ele>28.92</ele>
<time>2015-04-26T16:27:58Z</time>
</trkpt>
<trkpt lat="35.0359406" lon="32.4296563">
<ele>28.42</ele>
<time>2015-04-26T16:28:00Z</time>
</trkpt>
<trkpt lat="35.0359931" lon="32.4296295">
<ele>28.80</ele>
<time>2015-04-26T16:28:02Z</time>
</trkpt>
<trkpt lat="35.0360352" lon="32.4296061">
<ele>28.89</ele>
<time>2015-04-26T16:28:04Z</time>
</trkpt>
<trkpt lat="35.0360970" lon="32.4295939">
<ele>30.42</ele>
<time>2015-04-26T16:28:07Z</time>
</trkpt>
<trkpt lat="35.0361365" lon="32.4296351">
<ele>30.80</ele>
<time>2015-04-26T16:28:09Z</time>
</trkpt>
<trkpt lat="35.0361389" lon="32.4297032">
<ele>30.64</ele>
<time>2015-04-26T16:28:11Z</time>
</trkpt>
<trkpt lat="35.0361131" lon="32.4297486">
<ele>32.85</ele>
<time>2015-04-26T16:28:13Z</time>
</trkpt>
<trkpt lat="35.0361033" lon="32.4296946">
<ele>32.94</ele>
<time>2015-04-26T16:28:21Z</time>
</trkpt>
<trkpt lat="35.0361665" lon="32.4297250">
<ele>34.05</ele>
<time>2015-04-26T16:28:43Z</time>
</trkpt>
<trkpt lat="35.0362153" lon="32.4297943">
<ele>33.96</ele>
<time>2015-04-26T16:28:45Z</time>
</trkpt>
<trkpt lat="35.0362568" lon="32.4298681">
<ele>33.43</ele>
<time>2015-04-26T16:28:47Z</time>
</trkpt>
<trkpt lat="35.0362912" lon="32.4299475">
<ele>33.05</ele>
<time>2015-04-26T16:28:49Z</time>
</trkpt>
<trkpt lat="35.0363209" lon="32.4300269">
<ele>32.96</ele>
<time>2015-04-26T16:28:51Z</time>
</trkpt>
<trkpt lat="35.0363471" lon="32.4301062">
<ele>32.18</ele>
<time>2015-04-26T16:28:53Z</time>
</trkpt>
<trkpt lat="35.0363772" lon="32.4301826">
<ele>31.99</ele>
<time>2015-04-26T16:28:55Z</time>
</trkpt>
<trkpt lat="35.0364096" lon="32.4302611">
<ele>31.94</ele>
<time>2015-04-26T16:28:57Z</time>
</trkpt>
<trkpt lat="35.0364484" lon="32.4303477">
<ele>31.93</ele>
<time>2015-04-26T16:28:59Z</time>
</trkpt>
<trkpt lat="35.0364722" lon="32.4303953">
<ele>31.93</ele>
<time>2015-04-26T16:29:00Z</time>
</trkpt>
<trkpt lat="35.0365207" lon="32.4304860">
<ele>31.43</ele>
<time>2015-04-26T16:29:02Z</time>
</trkpt>
<trkpt lat="35.0365697" lon="32.4305747">
<ele>31.05</ele>
<time>2015-04-26T16:29:04Z</time>
</trkpt>
<trkpt lat="35.0366193" lon="32.4306592">
<ele>30.96</ele>
<time>2015-04-26T16:29:06Z</time>
</trkpt>
<trkpt lat="35.0366687" lon="32.4307474">
<ele>30.93</ele>
<time>2015-04-26T16:29:08Z</time>
</trkpt>
<trkpt lat="35.0366990" lon="32.4308060">
<ele>30.93</ele>
<time>2015-04-26T16:29:09Z</time>
</trkpt>
<trkpt lat="35.0367217" lon="32.4308623">
<ele>30.43</ele>
<time>2015-04-26T16:29:10Z</time>
</trkpt>
<trkpt lat="35.0367449" lon="32.4309160">
<ele>30.18</ele>
<time>2015-04-26T16:29:11Z</time>
</trkpt>
<trkpt lat="35.0367697" lon="32.4309700">
<ele>30.55</ele>
<time>2015-04-26T16:29:12Z</time>
</trkpt>
<trkpt lat="35.0367961" lon="32.4310249">
<ele>30.24</ele>
<time>2015-04-26T16:29:13Z</time>
</trkpt>
<trkpt lat="35.0368229" lon="32.4310806">
<ele>30.08</ele>
<time>2015-04-26T16:29:14Z</time>
</trkpt>
<trkpt lat="35.0368479" lon="32.4311347">
<ele>30.00</ele>
<time>2015-04-26T16:29:15Z</time>
</trkpt>
<trkpt lat="35.0368760" lon="32.4311886">
<ele>29.96</ele>
<time>2015-04-26T16:29:16Z</time>
</trkpt>
<trkpt lat="35.0369003" lon="32.4312398">
<ele>29.94</ele>
<time>2015-04-26T16:29:17Z</time>
</trkpt>
<trkpt lat="35.0369230" lon="32.4312883">
<ele>29.93</ele>
<time>2015-04-26T16:29:18Z</time>
</trkpt>
<trkpt lat="35.0369680" lon="32.4313762">
<ele>29.93</ele>
<time>2015-04-26T16:29:20Z</time>
</trkpt>
<trkpt lat="35.0370111" lon="32.4314643">
<ele>29.93</ele>
<time>2015-04-26T16:29:22Z</time>
</trkpt>
<trkpt lat="35.0370315" lon="32.4315184">
<ele>29.93</ele>
<time>2015-04-26T16:29:23Z</time>
</trkpt>
<trkpt lat="35.0370474" lon="32.4315786">
<ele>29.93</ele>
<time>2015-04-26T16:29:24Z</time>
</trkpt>
<trkpt lat="35.0370612" lon="32.4316392">
<ele>29.93</ele>
<time>2015-04-26T16:29:25Z</time>
</trkpt>
<trkpt lat="35.0370831" lon="32.4316960">
<ele>29.93</ele>
<time>2015-04-26T16:29:26Z</time>
</trkpt>
<trkpt lat="35.0371017" lon="32.4317548">
<ele>29.93</ele>
<time>2015-04-26T16:29:27Z</time>
</trkpt>
<trkpt lat="35.0371191" lon="32.4318141">
<ele>29.93</ele>
<time>2015-04-26T16:29:28Z</time>
</trkpt>
<trkpt lat="35.0371501" lon="32.4319163">
<ele>29.93</ele>
<time>2015-04-26T16:29:30Z</time>
</trkpt>
<trkpt lat="35.0371669" lon="32.4319719">
<ele>29.93</ele>
<time>2015-04-26T16:29:31Z</time>
</trkpt>
<trkpt lat="35.0371878" lon="32.4320266">
<ele>30.43</ele>
<time>2015-04-26T16:29:32Z</time>
</trkpt>
<trkpt lat="35.0372096" lon="32.4320900">
<ele>30.68</ele>
<time>2015-04-26T16:29:33Z</time>
</trkpt>
<trkpt lat="35.0372290" lon="32.4321544">
<ele>30.80</ele>
<time>2015-04-26T16:29:34Z</time>
</trkpt>
<trkpt lat="35.0372592" lon="32.4321964">
<ele>30.86</ele>
<time>2015-04-26T16:29:35Z</time>
</trkpt>
<trkpt lat="35.0372761" lon="32.4322584">
<ele>30.89</ele>
<time>2015-04-26T16:29:36Z</time>
</trkpt>
<trkpt lat="35.0372905" lon="32.4323122">
<ele>30.41</ele>
<time>2015-04-26T16:29:37Z</time>
</trkpt>
<trkpt lat="35.0373129" lon="32.4323717">
<ele>30.17</ele>
<time>2015-04-26T16:29:38Z</time>
</trkpt>
<trkpt lat="35.0373342" lon="32.4324266">
<ele>30.05</ele>
<time>2015-04-26T16:29:39Z</time>
</trkpt>
<trkpt lat="35.0373700" lon="32.4325301">
<ele>29.96</ele>
<time>2015-04-26T16:29:41Z</time>
</trkpt>
<trkpt lat="35.0373942" lon="32.4325786">
<ele>29.94</ele>
<time>2015-04-26T16:29:42Z</time>
</trkpt>
<trkpt lat="35.0374139" lon="32.4326328">
<ele>30.43</ele>
<time>2015-04-26T16:29:43Z</time>
</trkpt>
<trkpt lat="35.0374364" lon="32.4326814">
<ele>30.68</ele>
<time>2015-04-26T16:29:44Z</time>
</trkpt>
<trkpt lat="35.0374807" lon="32.4327720">
<ele>31.30</ele>
<time>2015-04-26T16:29:46Z</time>
</trkpt>
<trkpt lat="35.0375024" lon="32.4328231">
<ele>31.61</ele>
<time>2015-04-26T16:29:47Z</time>
</trkpt>
<trkpt lat="35.0375289" lon="32.4328677">
<ele>31.77</ele>
<time>2015-04-26T16:29:48Z</time>
</trkpt>
<trkpt lat="35.0375708" lon="32.4329505">
<ele>31.89</ele>
<time>2015-04-26T16:29:50Z</time>
</trkpt>
<trkpt lat="35.0376119" lon="32.4330053">
<ele>31.42</ele>
<time>2015-04-26T16:29:52Z</time>
</trkpt>
<trkpt lat="35.0376495" lon="32.4330783">
<ele>31.80</ele>
<time>2015-04-26T16:29:54Z</time>
</trkpt>
<trkpt lat="35.0376896" lon="32.4331484">
<ele>31.64</ele>
<time>2015-04-26T16:29:56Z</time>
</trkpt>
<trkpt lat="35.0377271" lon="32.4332198">
<ele>31.85</ele>
<time>2015-04-26T16:29:58Z</time>
</trkpt>
<trkpt lat="35.0377661" lon="32.4332870">
<ele>32.66</ele>
<time>2015-04-26T16:30:00Z</time>
</trkpt>
<trkpt lat="35.0378045" lon="32.4333569">
<ele>32.86</ele>
<time>2015-04-26T16:30:02Z</time>
</trkpt>
<trkpt lat="35.0378358" lon="32.4334257">
<ele>32.41</ele>
<time>2015-04-26T16:30:04Z</time>
</trkpt>
<trkpt lat="35.0378604" lon="32.4334753">
<ele>32.80</ele>
<time>2015-04-26T16:30:06Z</time>
</trkpt>
<trkpt lat="35.0378953" lon="32.4335189">
<ele>32.89</ele>
<time>2015-04-26T16:30:08Z</time>
</trkpt>
<trkpt lat="35.0379418" lon="32.4335691">
<ele>32.92</ele>
<time>2015-04-26T16:30:10Z</time>
</trkpt>
<trkpt lat="35.0379967" lon="32.4336154">
<ele>32.92</ele>
<time>2015-04-26T16:30:12Z</time>
</trkpt>
<trkpt lat="35.0380439" lon="32.4336633">
<ele>32.92</ele>
<time>2015-04-26T16:30:14Z</time>
</trkpt>
<trkpt lat="35.0380893" lon="32.4337132">
<ele>32.92</ele>
<time>2015-04-26T16:30:16Z</time>
</trkpt>
<trkpt lat="35.0381380" lon="32.4337615">
<ele>32.92</ele>
<time>2015-04-26T16:30:18Z</time>
</trkpt>
<trkpt lat="35.0381896" lon="32.4338102">
<ele>33.42</ele>
<time>2015-04-26T16:30:20Z</time>
</trkpt>
<trkpt lat="35.0382340" lon="32.4338715">
<ele>33.80</ele>
<time>2015-04-26T16:30:22Z</time>
</trkpt>
<trkpt lat="35.0382852" lon="32.4339365">
<ele>33.14</ele>
<time>2015-04-26T16:30:24Z</time>
</trkpt>
<trkpt lat="35.0383452" lon="32.4339995">
<ele>32.73</ele>
<time>2015-04-26T16:30:26Z</time>
</trkpt>
<trkpt lat="35.0383986" lon="32.4340701">
<ele>32.13</ele>
<time>2015-04-26T16:30:28Z</time>
</trkpt>
<trkpt lat="35.0384515" lon="32.4341436">
<ele>32.48</ele>
<time>2015-04-26T16:30:30Z</time>
</trkpt>
<trkpt lat="35.0385078" lon="32.4342158">
<ele>32.81</ele>
<time>2015-04-26T16:30:32Z</time>
</trkpt>
<trkpt lat="35.0385604" lon="32.4342857">
<ele>32.90</ele>
<time>2015-04-26T16:30:34Z</time>
</trkpt>
<trkpt lat="35.0386030" lon="32.4343515">
<ele>32.92</ele>
<time>2015-04-26T16:30:36Z</time>
</trkpt>
<trkpt lat="35.0386436" lon="32.4344114">
<ele>32.92</ele>
<time>2015-04-26T16:30:38Z</time>
</trkpt>
<trkpt lat="35.0386781" lon="32.4344765">
<ele>32.67</ele>
<time>2015-04-26T16:30:40Z</time>
</trkpt>
<trkpt lat="35.0386973" lon="32.4345517">
<ele>32.86</ele>
<time>2015-04-26T16:30:42Z</time>
</trkpt>
<trkpt lat="35.0387059" lon="32.4346250">
<ele>32.91</ele>
<time>2015-04-26T16:30:44Z</time>
</trkpt>
<trkpt lat="35.0387156" lon="32.4346821">
<ele>32.17</ele>
<time>2015-04-26T16:30:47Z</time>
</trkpt>
<trkpt lat="35.0387405" lon="32.4347722">
<ele>32.71</ele>
<time>2015-04-26T16:30:50Z</time>
</trkpt>
<trkpt lat="35.0387650" lon="32.4348587">
<ele>32.87</ele>
<time>2015-04-26T16:30:52Z</time>
</trkpt>
<trkpt lat="35.0387896" lon="32.4349463">
<ele>32.66</ele>
<time>2015-04-26T16:30:54Z</time>
</trkpt>
<trkpt lat="35.0388194" lon="32.4350486">
<ele>32.86</ele>
<time>2015-04-26T16:30:56Z</time>
</trkpt>
<trkpt lat="35.0388342" lon="32.4351208">
<ele>32.89</ele>
<time>2015-04-26T16:30:57Z</time>
</trkpt>
<trkpt lat="35.0388479" lon="32.4351790">
<ele>32.91</ele>
<time>2015-04-26T16:30:58Z</time>
</trkpt>
<trkpt lat="35.0388615" lon="32.4352350">
<ele>32.92</ele>
<time>2015-04-26T16:30:59Z</time>
</trkpt>
<trkpt lat="35.0388791" lon="32.4352929">
<ele>32.92</ele>
<time>2015-04-26T16:31:00Z</time>
</trkpt>
<trkpt lat="35.0388961" lon="32.4353492">
<ele>32.92</ele>
<time>2015-04-26T16:31:01Z</time>
</trkpt>
<trkpt lat="35.0389120" lon="32.4354078">
<ele>32.92</ele>
<time>2015-04-26T16:31:02Z</time>
</trkpt>
<trkpt lat="35.0389324" lon="32.4354685">
<ele>32.92</ele>
<time>2015-04-26T16:31:03Z</time>
</trkpt>
<trkpt lat="35.0389529" lon="32.4355339">
<ele>32.92</ele>
<time>2015-04-26T16:31:04Z</time>
</trkpt>
<trkpt lat="35.0389739" lon="32.4355907">
<ele>32.92</ele>
<time>2015-04-26T16:31:05Z</time>
</trkpt>
<trkpt lat="35.0389954" lon="32.4356507">
<ele>32.92</ele>
<time>2015-04-26T16:31:06Z</time>
</trkpt>
<trkpt lat="35.0390214" lon="32.4357079">
<ele>33.42</ele>
<time>2015-04-26T16:31:07Z</time>
</trkpt>
<trkpt lat="35.0390455" lon="32.4357641">
<ele>33.67</ele>
<time>2015-04-26T16:31:08Z</time>
</trkpt>
<trkpt lat="35.0390714" lon="32.4358154">
<ele>33.80</ele>
<time>2015-04-26T16:31:09Z</time>
</trkpt>
<trkpt lat="35.0390977" lon="32.4358678">
<ele>33.86</ele>
<time>2015-04-26T16:31:10Z</time>
</trkpt>
<trkpt lat="35.0391266" lon="32.4359113">
<ele>34.39</ele>
<time>2015-04-26T16:31:11Z</time>
</trkpt>
<trkpt lat="35.0391575" lon="32.4359524">
<ele>34.66</ele>
<time>2015-04-26T16:31:12Z</time>
</trkpt>
<trkpt lat="35.0392123" lon="32.4360204">
<ele>34.86</ele>
<time>2015-04-26T16:31:14Z</time>
</trkpt>
<trkpt lat="35.0392660" lon="32.4360877">
<ele>34.91</ele>
<time>2015-04-26T16:31:16Z</time>
</trkpt>
<trkpt lat="35.0393168" lon="32.4361449">
<ele>34.92</ele>
<time>2015-04-26T16:31:18Z</time>
</trkpt>
<trkpt lat="35.0393801" lon="32.4362103">
<ele>34.92</ele>
<time>2015-04-26T16:31:20Z</time>
</trkpt>
<trkpt lat="35.0394360" lon="32.4362871">
<ele>35.67</ele>
<time>2015-04-26T16:31:22Z</time>
</trkpt>
<trkpt lat="35.0394938" lon="32.4363562">
<ele>35.86</ele>
<time>2015-04-26T16:31:24Z</time>
</trkpt>
<trkpt lat="35.0395502" lon="32.4364185">
<ele>35.16</ele>
<time>2015-04-26T16:31:26Z</time>
</trkpt>
<trkpt lat="35.0395977" lon="32.4364784">
<ele>34.98</ele>
<time>2015-04-26T16:31:28Z</time>
</trkpt>
<trkpt lat="35.0396387" lon="32.4365353">
<ele>35.19</ele>
<time>2015-04-26T16:31:30Z</time>
</trkpt>
<trkpt lat="35.0396810" lon="32.4365871">
<ele>35.49</ele>
<time>2015-04-26T16:31:32Z</time>
</trkpt>
<trkpt lat="35.0397237" lon="32.4366446">
<ele>35.57</ele>
<time>2015-04-26T16:31:34Z</time>
</trkpt>
<trkpt lat="35.0397648" lon="32.4367112">
<ele>35.84</ele>
<time>2015-04-26T16:31:36Z</time>
</trkpt>
<trkpt lat="35.0398038" lon="32.4367850">
<ele>35.90</ele>
<time>2015-04-26T16:31:38Z</time>
</trkpt>
<trkpt lat="35.0398492" lon="32.4368678">
<ele>36.17</ele>
<time>2015-04-26T16:31:40Z</time>
</trkpt>
<trkpt lat="35.0398998" lon="32.4369595">
<ele>36.74</ele>
<time>2015-04-26T16:31:42Z</time>
</trkpt>
<trkpt lat="35.0399282" lon="32.4370252">
<ele>36.83</ele>
<time>2015-04-26T16:31:43Z</time>
</trkpt>
<trkpt lat="35.0399527" lon="32.4370724">
<ele>36.88</ele>
<time>2015-04-26T16:31:44Z</time>
</trkpt>
<trkpt lat="35.0399838" lon="32.4371224">
<ele>36.90</ele>
<time>2015-04-26T16:31:45Z</time>
</trkpt>
<trkpt lat="35.0400109" lon="32.4371693">
<ele>36.91</ele>
<time>2015-04-26T16:31:46Z</time>
</trkpt>
<trkpt lat="35.0400400" lon="32.4372163">
<ele>37.42</ele>
<time>2015-04-26T16:31:47Z</time>
</trkpt>
<trkpt lat="35.0400694" lon="32.4372687">
<ele>37.67</ele>
<time>2015-04-26T16:31:48Z</time>
</trkpt>
<trkpt lat="35.0401006" lon="32.4373154">
<ele>37.80</ele>
<time>2015-04-26T16:31:49Z</time>
</trkpt>
<trkpt lat="35.0401317" lon="32.4373649">
<ele>37.86</ele>
<time>2015-04-26T16:31:50Z</time>
</trkpt>
<trkpt lat="35.0401802" lon="32.4374648">
<ele>37.91</ele>
<time>2015-04-26T16:31:52Z</time>
</trkpt>
<trkpt lat="35.0402093" lon="32.4375131">
<ele>38.42</ele>
<time>2015-04-26T16:31:53Z</time>
</trkpt>
<trkpt lat="35.0402661" lon="32.4375952">
<ele>38.80</ele>
<time>2015-04-26T16:31:55Z</time>
</trkpt>
<trkpt lat="35.0402953" lon="32.4376438">
<ele>38.86</ele>
<time>2015-04-26T16:31:56Z</time>
</trkpt>
<trkpt lat="35.0403197" lon="32.4376924">
<ele>38.89</ele>
<time>2015-04-26T16:31:57Z</time>
</trkpt>
<trkpt lat="35.0403470" lon="32.4377388">
<ele>38.91</ele>
<time>2015-04-26T16:31:58Z</time>
</trkpt>
<trkpt lat="35.0403765" lon="32.4377891">
<ele>38.42</ele>
<time>2015-04-26T16:31:59Z</time>
</trkpt>
<trkpt lat="35.0404029" lon="32.4378393">
<ele>38.17</ele>
<time>2015-04-26T16:32:00Z</time>
</trkpt>
<trkpt lat="35.0404285" lon="32.4378925">
<ele>38.05</ele>
<time>2015-04-26T16:32:01Z</time>
</trkpt>
<trkpt lat="35.0404519" lon="32.4379484">
<ele>38.49</ele>
<time>2015-04-26T16:32:02Z</time>
</trkpt>
<trkpt lat="35.0404759" lon="32.4379964">
<ele>38.71</ele>
<time>2015-04-26T16:32:03Z</time>
</trkpt>
<trkpt lat="35.0405248" lon="32.4380905">
<ele>38.12</ele>
<time>2015-04-26T16:32:05Z</time>
</trkpt>
<trkpt lat="35.0405465" lon="32.4381392">
<ele>37.52</ele>
<time>2015-04-26T16:32:06Z</time>
</trkpt>
<trkpt lat="35.0405887" lon="32.4382366">
<ele>37.57</ele>
<time>2015-04-26T16:32:08Z</time>
</trkpt>
<trkpt lat="35.0406364" lon="32.4383335">
<ele>37.09</ele>
<time>2015-04-26T16:32:10Z</time>
</trkpt>
<trkpt lat="35.0406643" lon="32.4383840">
<ele>37.51</ele>
<time>2015-04-26T16:32:11Z</time>
</trkpt>
<trkpt lat="35.0406928" lon="32.4384383">
<ele>37.72</ele>
<time>2015-04-26T16:32:12Z</time>
</trkpt>
<trkpt lat="35.0407219" lon="32.4384923">
<ele>37.82</ele>
<time>2015-04-26T16:32:13Z</time>
</trkpt>
<trkpt lat="35.0407539" lon="32.4385500">
<ele>37.37</ele>
<time>2015-04-26T16:32:14Z</time>
</trkpt>
<trkpt lat="35.0407836" lon="32.4386036">
<ele>37.15</ele>
<time>2015-04-26T16:32:15Z</time>
</trkpt>
<trkpt lat="35.0408135" lon="32.4386635">
<ele>37.04</ele>
<time>2015-04-26T16:32:16Z</time>
</trkpt>
<trkpt lat="35.0408427" lon="32.4387259">
<ele>36.98</ele>
<time>2015-04-26T16:32:17Z</time>
</trkpt>
<trkpt lat="35.0408710" lon="32.4387797">
<ele>36.95</ele>
<time>2015-04-26T16:32:18Z</time>
</trkpt>
<trkpt lat="35.0408990" lon="32.4388401">
<ele>36.94</ele>
<time>2015-04-26T16:32:19Z</time>
</trkpt>
<trkpt lat="35.0409259" lon="32.4388997">
<ele>36.93</ele>
<time>2015-04-26T16:32:20Z</time>
</trkpt>
<trkpt lat="35.0409555" lon="32.4389578">
<ele>36.93</ele>
<time>2015-04-26T16:32:21Z</time>
</trkpt>
<trkpt lat="35.0409921" lon="32.4390078">
<ele>36.93</ele>
<time>2015-04-26T16:32:22Z</time>
</trkpt>
<trkpt lat="35.0410240" lon="32.4390623">
<ele>36.93</ele>
<time>2015-04-26T16:32:23Z</time>
</trkpt>
<trkpt lat="35.0410659" lon="32.4391207">
<ele>36.93</ele>
<time>2015-04-26T16:32:24Z</time>
</trkpt>
<trkpt lat="35.0410999" lon="32.4391834">
<ele>36.93</ele>
<time>2015-04-26T16:32:25Z</time>
</trkpt>
<trkpt lat="35.0411365" lon="32.4392478">
<ele>36.93</ele>
<time>2015-04-26T16:32:26Z</time>
</trkpt>
<trkpt lat="35.0411713" lon="32.4393081">
<ele>36.43</ele>
<time>2015-04-26T16:32:27Z</time>
</trkpt>
<trkpt lat="35.0412063" lon="32.4393555">
<ele>36.18</ele>
<time>2015-04-26T16:32:28Z</time>
</trkpt>
<trkpt lat="35.0412428" lon="32.4394108">
<ele>36.05</ele>
<time>2015-04-26T16:32:29Z</time>
</trkpt>
<trkpt lat="35.0412727" lon="32.4394615">
<ele>35.99</ele>
<time>2015-04-26T16:32:30Z</time>
</trkpt>
<trkpt lat="35.0413084" lon="32.4395157">
<ele>35.96</ele>
<time>2015-04-26T16:32:31Z</time>
</trkpt>
<trkpt lat="35.0413523" lon="32.4395655">
<ele>35.94</ele>
<time>2015-04-26T16:32:32Z</time>
</trkpt>
<trkpt lat="35.0413897" lon="32.4396140">
<ele>36.43</ele>
<time>2015-04-26T16:32:33Z</time>
</trkpt>
<trkpt lat="35.0414285" lon="32.4396695">
<ele>36.68</ele>
<time>2015-04-26T16:32:34Z</time>
</trkpt>
<trkpt lat="35.0414674" lon="32.4397240">
<ele>36.80</ele>
<time>2015-04-26T16:32:35Z</time>
</trkpt>
<trkpt lat="35.0415070" lon="32.4397758">
<ele>36.36</ele>
<time>2015-04-26T16:32:36Z</time>
</trkpt>
<trkpt lat="35.0415528" lon="32.4398285">
<ele>36.14</ele>
<time>2015-04-26T16:32:37Z</time>
</trkpt>
<trkpt lat="35.0416007" lon="32.4398799">
<ele>35.53</ele>
<time>2015-04-26T16:32:38Z</time>
</trkpt>
<trkpt lat="35.0416468" lon="32.4399331">
<ele>35.23</ele>
<time>2015-04-26T16:32:39Z</time>
</trkpt>
<trkpt lat="35.0416966" lon="32.4399814">
<ele>35.08</ele>
<time>2015-04-26T16:32:40Z</time>
</trkpt>
<trkpt lat="35.0417451" lon="32.4400324">
<ele>35.00</ele>
<time>2015-04-26T16:32:41Z</time>
</trkpt>
<trkpt lat="35.0417999" lon="32.4400785">
<ele>34.96</ele>
<time>2015-04-26T16:32:42Z</time>
</trkpt>
<trkpt lat="35.0418525" lon="32.4401297">
<ele>34.44</ele>
<time>2015-04-26T16:32:43Z</time>
</trkpt>
<trkpt lat="35.0419103" lon="32.4401764">
<ele>34.18</ele>
<time>2015-04-26T16:32:44Z</time>
</trkpt>
<trkpt lat="35.0419693" lon="32.4402218">
<ele>34.05</ele>
<time>2015-04-26T16:32:45Z</time>
</trkpt>
<trkpt lat="35.0420268" lon="32.4402611">
<ele>33.49</ele>
<time>2015-04-26T16:32:46Z</time>
</trkpt>
<trkpt lat="35.0420848" lon="32.4403028">
<ele>33.21</ele>
<time>2015-04-26T16:32:47Z</time>
</trkpt>
<trkpt lat="35.0421488" lon="32.4403455">
<ele>33.07</ele>
<time>2015-04-26T16:32:48Z</time>
</trkpt>
<trkpt lat="35.0422096" lon="32.4403879">
<ele>33.00</ele>
<time>2015-04-26T16:32:49Z</time>
</trkpt>
<trkpt lat="35.0422772" lon="32.4404214">
<ele>32.96</ele>
<time>2015-04-26T16:32:50Z</time>
</trkpt>
<trkpt lat="35.0423482" lon="32.4404512">
<ele>32.44</ele>
<time>2015-04-26T16:32:51Z</time>
</trkpt>
<trkpt lat="35.0424177" lon="32.4404853">
<ele>32.18</ele>
<time>2015-04-26T16:32:52Z</time>
</trkpt>
<trkpt lat="35.0424897" lon="32.4405159">
<ele>32.05</ele>
<time>2015-04-26T16:32:53Z</time>
</trkpt>
<trkpt lat="35.0425601" lon="32.4405486">
<ele>31.99</ele>
<time>2015-04-26T16:32:54Z</time>
</trkpt>
<trkpt lat="35.0426348" lon="32.4405821">
<ele>31.96</ele>
<time>2015-04-26T16:32:55Z</time>
</trkpt>
<trkpt lat="35.0427076" lon="32.4406086">
<ele>31.94</ele>
<time>2015-04-26T16:32:56Z</time>
</trkpt>
<trkpt lat="35.0427824" lon="32.4406315">
<ele>31.93</ele>
<time>2015-04-26T16:32:57Z</time>
</trkpt>
<trkpt lat="35.0428585" lon="32.4406483">
<ele>31.93</ele>
<time>2015-04-26T16:32:58Z</time>
</trkpt>
<trkpt lat="35.0429350" lon="32.4406701">
<ele>31.93</ele>
<time>2015-04-26T16:32:59Z</time>
</trkpt>
<trkpt lat="35.0430133" lon="32.4406792">
<ele>31.43</ele>
<time>2015-04-26T16:33:00Z</time>
</trkpt>
<trkpt lat="35.0430849" lon="32.4406986">
<ele>31.18</ele>
<time>2015-04-26T16:33:01Z</time>
</trkpt>
<trkpt lat="35.0431636" lon="32.4407115">
<ele>31.05</ele>
<time>2015-04-26T16:33:02Z</time>
</trkpt>
<trkpt lat="35.0432303" lon="32.4407227">
<ele>30.99</ele>
<time>2015-04-26T16:33:03Z</time>
</trkpt>
<trkpt lat="35.0433112" lon="32.4407317">
<ele>29.96</ele>
<time>2015-04-26T16:33:04Z</time>
</trkpt>
<trkpt lat="35.0433926" lon="32.4407396">
<ele>29.44</ele>
<time>2015-04-26T16:33:05Z</time>
</trkpt>
<trkpt lat="35.0435534" lon="32.4407587">
<ele>28.68</ele>
<time>2015-04-26T16:33:07Z</time>
</trkpt>
<trkpt lat="35.0436401" lon="32.4407672">
<ele>27.80</ele>
<time>2015-04-26T16:33:08Z</time>
</trkpt>
<trkpt lat="35.0437235" lon="32.4407750">
<ele>27.36</ele>
<time>2015-04-26T16:33:09Z</time>
</trkpt>
<trkpt lat="35.0438156" lon="32.4407739">
<ele>27.14</ele>
<time>2015-04-26T16:33:10Z</time>
</trkpt>
<trkpt lat="35.0439026" lon="32.4407801">
<ele>26.53</ele>
<time>2015-04-26T16:33:11Z</time>
</trkpt>
<trkpt lat="35.0439882" lon="32.4407825">
<ele>26.23</ele>
<time>2015-04-26T16:33:12Z</time>
</trkpt>
<trkpt lat="35.0440744" lon="32.4407873">
<ele>25.58</ele>
<time>2015-04-26T16:33:13Z</time>
</trkpt>
<trkpt lat="35.0441623" lon="32.4407949">
<ele>25.25</ele>
<time>2015-04-26T16:33:14Z</time>
</trkpt>
<trkpt lat="35.0442476" lon="32.4407963">
<ele>25.09</ele>
<time>2015-04-26T16:33:15Z</time>
</trkpt>
<trkpt lat="35.0443380" lon="32.4407989">
<ele>25.01</ele>
<time>2015-04-26T16:33:16Z</time>
</trkpt>
<trkpt lat="35.0444235" lon="32.4408022">
<ele>24.97</ele>
<time>2015-04-26T16:33:17Z</time>
</trkpt>
<trkpt lat="35.0445107" lon="32.4408042">
<ele>24.95</ele>
<time>2015-04-26T16:33:18Z</time>
</trkpt>
<trkpt lat="35.0445934" lon="32.4408081">
<ele>24.94</ele>
<time>2015-04-26T16:33:19Z</time>
</trkpt>
<trkpt lat="35.0446842" lon="32.4408142">
<ele>25.43</ele>
<time>2015-04-26T16:33:20Z</time>
</trkpt>
<trkpt lat="35.0447731" lon="32.4408188">
<ele>25.68</ele>
<time>2015-04-26T16:33:21Z</time>
</trkpt>
<trkpt lat="35.0448596" lon="32.4408227">
<ele>25.80</ele>
<time>2015-04-26T16:33:22Z</time>
</trkpt>
<trkpt lat="35.0449491" lon="32.4408261">
<ele>25.36</ele>
<time>2015-04-26T16:33:23Z</time>
</trkpt>
<trkpt lat="35.0450359" lon="32.4408317">
<ele>25.14</ele>
<time>2015-04-26T16:33:24Z</time>
</trkpt>
<trkpt lat="35.0451242" lon="32.4408372">
<ele>25.03</ele>
<time>2015-04-26T16:33:25Z</time>
</trkpt>
<trkpt lat="35.0452158" lon="32.4408434">
<ele>24.98</ele>
<time>2015-04-26T16:33:26Z</time>
</trkpt>
<trkpt lat="35.0453030" lon="32.4408509">
<ele>25.45</ele>
<time>2015-04-26T16:33:27Z</time>
</trkpt>
<trkpt lat="35.0453945" lon="32.4408635">
<ele>25.19</ele>
<time>2015-04-26T16:33:28Z</time>
</trkpt>
<trkpt lat="35.0454830" lon="32.4408740">
<ele>25.06</ele>
<time>2015-04-26T16:33:29Z</time>
</trkpt>
<trkpt lat="35.0455722" lon="32.4408828">
<ele>24.99</ele>
<time>2015-04-26T16:33:30Z</time>
</trkpt>
<trkpt lat="35.0456586" lon="32.4408960">
<ele>24.96</ele>
<time>2015-04-26T16:33:31Z</time>
</trkpt>
<trkpt lat="35.0457482" lon="32.4409078">
<ele>24.44</ele>
<time>2015-04-26T16:33:32Z</time>
</trkpt>
<trkpt lat="35.0458331" lon="32.4409204">
<ele>24.18</ele>
<time>2015-04-26T16:33:33Z</time>
</trkpt>
<trkpt lat="35.0459181" lon="32.4409399">
<ele>24.55</ele>
<time>2015-04-26T16:33:34Z</time>
</trkpt>
<trkpt lat="35.0460061" lon="32.4409581">
<ele>24.24</ele>
<time>2015-04-26T16:33:35Z</time>
</trkpt>
<trkpt lat="35.0460938" lon="32.4409786">
<ele>24.58</ele>
<time>2015-04-26T16:33:36Z</time>
</trkpt>
<trkpt lat="35.0461816" lon="32.4410009">
<ele>24.75</ele>
<time>2015-04-26T16:33:37Z</time>
</trkpt>
<trkpt lat="35.0462626" lon="32.4410311">
<ele>23.84</ele>
<time>2015-04-26T16:33:38Z</time>
</trkpt>
<trkpt lat="35.0463541" lon="32.4410650">
<ele>23.38</ele>
<time>2015-04-26T16:33:39Z</time>
</trkpt>
<trkpt lat="35.0464361" lon="32.4411028">
<ele>23.15</ele>
<time>2015-04-26T16:33:40Z</time>
</trkpt>
<trkpt lat="35.0465209" lon="32.4411426">
<ele>23.04</ele>
<time>2015-04-26T16:33:41Z</time>
</trkpt>
<trkpt lat="35.0466073" lon="32.4411872">
<ele>22.48</ele>
<time>2015-04-26T16:33:42Z</time>
</trkpt>
<trkpt lat="35.0466893" lon="32.4412331">
<ele>22.20</ele>
<time>2015-04-26T16:33:43Z</time>
</trkpt>
<trkpt lat="35.0467729" lon="32.4412774">
<ele>22.06</ele>
<time>2015-04-26T16:33:44Z</time>
</trkpt>
<trkpt lat="35.0468530" lon="32.4413307">
<ele>21.99</ele>
<time>2015-04-26T16:33:45Z</time>
</trkpt>
<trkpt lat="35.0469320" lon="32.4413838">
<ele>21.46</ele>
<time>2015-04-26T16:33:46Z</time>
</trkpt>
<trkpt lat="35.0470089" lon="32.4414415">
<ele>21.19</ele>
<time>2015-04-26T16:33:47Z</time>
</trkpt>
<trkpt lat="35.0470846" lon="32.4414983">
<ele>21.06</ele>
<time>2015-04-26T16:33:48Z</time>
</trkpt>
<trkpt lat="35.0471545" lon="32.4415621">
<ele>20.99</ele>
<time>2015-04-26T16:33:49Z</time>
</trkpt>
<trkpt lat="35.0472216" lon="32.4416290">
<ele>20.46</ele>
<time>2015-04-26T16:33:50Z</time>
</trkpt>
<trkpt lat="35.0472862" lon="32.4416979">
<ele>20.19</ele>
<time>2015-04-26T16:33:51Z</time>
</trkpt>
<trkpt lat="35.0473506" lon="32.4417665">
<ele>20.56</ele>
<time>2015-04-26T16:33:52Z</time>
</trkpt>
<trkpt lat="35.0474140" lon="32.4418344">
<ele>20.24</ele>
<time>2015-04-26T16:33:53Z</time>
</trkpt>
<trkpt lat="35.0474757" lon="32.4419089">
<ele>20.08</ele>
<time>2015-04-26T16:33:54Z</time>
</trkpt>
<trkpt lat="35.0475361" lon="32.4419829">
<ele>20.00</ele>
<time>2015-04-26T16:33:55Z</time>
</trkpt>
<trkpt lat="35.0475940" lon="32.4420581">
<ele>20.46</ele>
<time>2015-04-26T16:33:56Z</time>
</trkpt>
<trkpt lat="35.0476518" lon="32.4421322">
<ele>20.19</ele>
<time>2015-04-26T16:33:57Z</time>
</trkpt>
<trkpt lat="35.0477068" lon="32.4422126">
<ele>20.06</ele>
<time>2015-04-26T16:33:58Z</time>
</trkpt>
<trkpt lat="35.0477634" lon="32.4422928">
<ele>19.49</ele>
<time>2015-04-26T16:33:59Z</time>
</trkpt>
<trkpt lat="35.0478197" lon="32.4423654">
<ele>19.21</ele>
<time>2015-04-26T16:34:00Z</time>
</trkpt>
<trkpt lat="35.0478754" lon="32.4424448">
<ele>19.07</ele>
<time>2015-04-26T16:34:01Z</time>
</trkpt>
<trkpt lat="35.0479288" lon="32.4425315">
<ele>18.50</ele>
<time>2015-04-26T16:34:02Z</time>
</trkpt>
<trkpt lat="35.0479822" lon="32.4426131">
<ele>18.21</ele>
<time>2015-04-26T16:34:03Z</time>
</trkpt>
<trkpt lat="35.0480374" lon="32.4426981">
<ele>18.07</ele>
<time>2015-04-26T16:34:04Z</time>
</trkpt>
<trkpt lat="35.0480918" lon="32.4427831">
<ele>18.00</ele>
<time>2015-04-26T16:34:05Z</time>
</trkpt>
<trkpt lat="35.0481469" lon="32.4428698">
<ele>17.96</ele>
<time>2015-04-26T16:34:06Z</time>
</trkpt>
<trkpt lat="35.0481991" lon="32.4429519">
<ele>17.94</ele>
<time>2015-04-26T16:34:07Z</time>
</trkpt>
<trkpt lat="35.0482533" lon="32.4430322">
<ele>17.93</ele>
<time>2015-04-26T16:34:08Z</time>
</trkpt>
<trkpt lat="35.0483076" lon="32.4431181">
<ele>17.93</ele>
<time>2015-04-26T16:34:09Z</time>
</trkpt>
<trkpt lat="35.0483624" lon="32.4431986">
<ele>17.93</ele>
<time>2015-04-26T16:34:10Z</time>
</trkpt>
<trkpt lat="35.0484092" lon="32.4432873">
<ele>17.93</ele>
<time>2015-04-26T16:34:11Z</time>
</trkpt>
<trkpt lat="35.0484594" lon="32.4433623">
<ele>18.43</ele>
<time>2015-04-26T16:34:12Z</time>
</trkpt>
<trkpt lat="35.0485069" lon="32.4434420">
<ele>18.68</ele>
<time>2015-04-26T16:34:13Z</time>
</trkpt>
<trkpt lat="35.0485522" lon="32.4435186">
<ele>18.30</ele>
<time>2015-04-26T16:34:14Z</time>
</trkpt>
<trkpt lat="35.0486015" lon="32.4435912">
<ele>18.11</ele>
<time>2015-04-26T16:34:15Z</time>
</trkpt>
<trkpt lat="35.0486492" lon="32.4436701">
<ele>18.02</ele>
<time>2015-04-26T16:34:16Z</time>
</trkpt>
<trkpt lat="35.0487019" lon="32.4437457">
<ele>17.97</ele>
<time>2015-04-26T16:34:17Z</time>
</trkpt>
<trkpt lat="35.0487508" lon="32.4438263">
<ele>17.95</ele>
<time>2015-04-26T16:34:18Z</time>
</trkpt>
<trkpt lat="35.0487976" lon="32.4439081">
<ele>17.94</ele>
<time>2015-04-26T16:34:19Z</time>
</trkpt>
<trkpt lat="35.0488500" lon="32.4439937">
<ele>17.93</ele>
<time>2015-04-26T16:34:20Z</time>
</trkpt>
<trkpt lat="35.0488993" lon="32.4440709">
<ele>17.93</ele>
<time>2015-04-26T16:34:21Z</time>
</trkpt>
<trkpt lat="35.0489432" lon="32.4441507">
<ele>17.93</ele>
<time>2015-04-26T16:34:22Z</time>
</trkpt>
<trkpt lat="35.0489884" lon="32.4442260">
<ele>17.93</ele>
<time>2015-04-26T16:34:23Z</time>
</trkpt>
<trkpt lat="35.0490374" lon="32.4442986">
<ele>17.93</ele>
<time>2015-04-26T16:34:24Z</time>
</trkpt>
<trkpt lat="35.0490855" lon="32.4443725">
<ele>18.43</ele>
<time>2015-04-26T16:34:25Z</time>
</trkpt>
<trkpt lat="35.0491327" lon="32.4444520">
<ele>18.68</ele>
<time>2015-04-26T16:34:26Z</time>
</trkpt>
<trkpt lat="35.0491762" lon="32.4445242">
<ele>18.80</ele>
<time>2015-04-26T16:34:27Z</time>
</trkpt>
<trkpt lat="35.0492245" lon="32.4446008">
<ele>18.86</ele>
<time>2015-04-26T16:34:28Z</time>
</trkpt>
<trkpt lat="35.0492711" lon="32.4446722">
<ele>18.89</ele>
<time>2015-04-26T16:34:29Z</time>
</trkpt>
<trkpt lat="35.0493112" lon="32.4447458">
<ele>18.41</ele>
<time>2015-04-26T16:34:30Z</time>
</trkpt>
<trkpt lat="35.0493571" lon="32.4448220">
<ele>18.17</ele>
<time>2015-04-26T16:34:31Z</time>
</trkpt>
<trkpt lat="35.0494035" lon="32.4448929">
<ele>18.05</ele>
<time>2015-04-26T16:34:32Z</time>
</trkpt>
<trkpt lat="35.0494500" lon="32.4449661">
<ele>17.99</ele>
<time>2015-04-26T16:34:33Z</time>
</trkpt>
<trkpt lat="35.0494944" lon="32.4450406">
<ele>17.96</ele>
<time>2015-04-26T16:34:34Z</time>
</trkpt>
<trkpt lat="35.0495441" lon="32.4451119">
<ele>18.44</ele>
<time>2015-04-26T16:34:35Z</time>
</trkpt>
<trkpt lat="35.0495872" lon="32.4451853">
<ele>18.68</ele>
<time>2015-04-26T16:34:36Z</time>
</trkpt>
<trkpt lat="35.0496276" lon="32.4452481">
<ele>18.80</ele>
<time>2015-04-26T16:34:37Z</time>
</trkpt>
<trkpt lat="35.0496667" lon="32.4453135">
<ele>18.86</ele>
<time>2015-04-26T16:34:38Z</time>
</trkpt>
<trkpt lat="35.0497081" lon="32.4453784">
<ele>18.89</ele>
<time>2015-04-26T16:34:39Z</time>
</trkpt>
<trkpt lat="35.0497514" lon="32.4454364">
<ele>18.91</ele>
<time>2015-04-26T16:34:40Z</time>
</trkpt>
<trkpt lat="35.0497887" lon="32.4454964">
<ele>18.92</ele>
<time>2015-04-26T16:34:41Z</time>
</trkpt>
<trkpt lat="35.0498247" lon="32.4455551">
<ele>18.92</ele>
<time>2015-04-26T16:34:42Z</time>
</trkpt>
<trkpt lat="35.0498625" lon="32.4456142">
<ele>19.42</ele>
<time>2015-04-26T16:34:43Z</time>
</trkpt>
<trkpt lat="35.0498995" lon="32.4456728">
<ele>19.17</ele>
<time>2015-04-26T16:34:44Z</time>
</trkpt>
<trkpt lat="35.0499302" lon="32.4457383">
<ele>19.55</ele>
<time>2015-04-26T16:34:45Z</time>
</trkpt>
<trkpt lat="35.0499646" lon="32.4458004">
<ele>19.74</ele>
<time>2015-04-26T16:34:46Z</time>
</trkpt>
<trkpt lat="35.0500016" lon="32.4458592">
<ele>19.83</ele>
<time>2015-04-26T16:34:47Z</time>
</trkpt>
<trkpt lat="35.0500375" lon="32.4459153">
<ele>19.38</ele>
<time>2015-04-26T16:34:48Z</time>
</trkpt>
<trkpt lat="35.0500760" lon="32.4459770">
<ele>19.65</ele>
<time>2015-04-26T16:34:49Z</time>
</trkpt>
<trkpt lat="35.0501137" lon="32.4460366">
<ele>19.79</ele>
<time>2015-04-26T16:34:50Z</time>
</trkpt>
<trkpt lat="35.0501482" lon="32.4460862">
<ele>19.86</ele>
<time>2015-04-26T16:34:51Z</time>
</trkpt>
<trkpt lat="35.0501876" lon="32.4461480">
<ele>19.39</ele>
<time>2015-04-26T16:34:52Z</time>
</trkpt>
<trkpt lat="35.0502234" lon="32.4462087">
<ele>19.16</ele>
<time>2015-04-26T16:34:53Z</time>
</trkpt>
<trkpt lat="35.0502581" lon="32.4462654">
<ele>19.04</ele>
<time>2015-04-26T16:34:54Z</time>
</trkpt>
<trkpt lat="35.0502971" lon="32.4463238">
<ele>19.48</ele>
<time>2015-04-26T16:34:55Z</time>
</trkpt>
<trkpt lat="35.0503356" lon="32.4463782">
<ele>19.20</ele>
<time>2015-04-26T16:34:56Z</time>
</trkpt>
<trkpt lat="35.0503721" lon="32.4464360">
<ele>19.06</ele>
<time>2015-04-26T16:34:57Z</time>
</trkpt>
<trkpt lat="35.0504005" lon="32.4465009">
<ele>18.99</ele>
<time>2015-04-26T16:34:58Z</time>
</trkpt>
<trkpt lat="35.0504311" lon="32.4465618">
<ele>18.96</ele>
<time>2015-04-26T16:34:59Z</time>
</trkpt>
<trkpt lat="35.0504754" lon="32.4466134">
<ele>18.94</ele>
<time>2015-04-26T16:35:00Z</time>
</trkpt>
<trkpt lat="35.0505139" lon="32.4466756">
<ele>18.93</ele>
<time>2015-04-26T16:35:01Z</time>
</trkpt>
<trkpt lat="35.0505487" lon="32.4467366">
<ele>18.93</ele>
<time>2015-04-26T16:35:02Z</time>
</trkpt>
<trkpt lat="35.0505860" lon="32.4467969">
<ele>18.93</ele>
<time>2015-04-26T16:35:03Z</time>
</trkpt>
<trkpt lat="35.0506173" lon="32.4468525">
<ele>18.93</ele>
<time>2015-04-26T16:35:04Z</time>
</trkpt>
<trkpt lat="35.0506517" lon="32.4469058">
<ele>18.93</ele>
<time>2015-04-26T16:35:05Z</time>
</trkpt>
<trkpt lat="35.0506832" lon="32.4469592">
<ele>18.93</ele>
<time>2015-04-26T16:35:06Z</time>
</trkpt>
<trkpt lat="35.0507153" lon="32.4470153">
<ele>18.93</ele>
<time>2015-04-26T16:35:07Z</time>
</trkpt>
<trkpt lat="35.0507461" lon="32.4470731">
<ele>18.93</ele>
<time>2015-04-26T16:35:08Z</time>
</trkpt>
<trkpt lat="35.0507805" lon="32.4471348">
<ele>19.43</ele>
<time>2015-04-26T16:35:09Z</time>
</trkpt>
<trkpt lat="35.0508133" lon="32.4471960">
<ele>19.68</ele>
<time>2015-04-26T16:35:10Z</time>
</trkpt>
<trkpt lat="35.0508454" lon="32.4472580">
<ele>19.80</ele>
<time>2015-04-26T16:35:11Z</time>
</trkpt>
<trkpt lat="35.0508781" lon="32.4473260">
<ele>19.86</ele>
<time>2015-04-26T16:35:12Z</time>
</trkpt>
<trkpt lat="35.0509128" lon="32.4473895">
<ele>19.89</ele>
<time>2015-04-26T16:35:13Z</time>
</trkpt>
<trkpt lat="35.0509456" lon="32.4474518">
<ele>19.91</ele>
<time>2015-04-26T16:35:14Z</time>
</trkpt>
<trkpt lat="35.0509749" lon="32.4475166">
<ele>19.92</ele>
<time>2015-04-26T16:35:15Z</time>
</trkpt>
<trkpt lat="35.0510048" lon="32.4475768">
<ele>19.92</ele>
<time>2015-04-26T16:35:16Z</time>
</trkpt>
<trkpt lat="35.0510407" lon="32.4476384">
<ele>19.92</ele>
<time>2015-04-26T16:35:17Z</time>
</trkpt>
<trkpt lat="35.0510698" lon="32.4476985">
<ele>19.92</ele>
<time>2015-04-26T16:35:18Z</time>
</trkpt>
<trkpt lat="35.0511024" lon="32.4477575">
<ele>19.92</ele>
<time>2015-04-26T16:35:19Z</time>
</trkpt>
<trkpt lat="35.0511360" lon="32.4478145">
<ele>19.92</ele>
<time>2015-04-26T16:35:20Z</time>
</trkpt>
<trkpt lat="35.0511658" lon="32.4478728">
<ele>19.92</ele>
<time>2015-04-26T16:35:21Z</time>
</trkpt>
<trkpt lat="35.0511896" lon="32.4479289">
<ele>19.92</ele>
<time>2015-04-26T16:35:22Z</time>
</trkpt>
<trkpt lat="35.0512199" lon="32.4479853">
<ele>19.92</ele>
<time>2015-04-26T16:35:23Z</time>
</trkpt>
<trkpt lat="35.0512470" lon="32.4480492">
<ele>19.92</ele>
<time>2015-04-26T16:35:24Z</time>
</trkpt>
<trkpt lat="35.0512735" lon="32.4481106">
<ele>19.92</ele>
<time>2015-04-26T16:35:25Z</time>
</trkpt>
<trkpt lat="35.0512996" lon="32.4481756">
<ele>20.42</ele>
<time>2015-04-26T16:35:26Z</time>
</trkpt>
<trkpt lat="35.0513328" lon="32.4482377">
<ele>20.67</ele>
<time>2015-04-26T16:35:27Z</time>
</trkpt>
<trkpt lat="35.0513660" lon="32.4483037">
<ele>20.80</ele>
<time>2015-04-26T16:35:28Z</time>
</trkpt>
<trkpt lat="35.0513981" lon="32.4483656">
<ele>20.86</ele>
<time>2015-04-26T16:35:29Z</time>
</trkpt>
<trkpt lat="35.0514268" lon="32.4484243">
<ele>20.89</ele>
<time>2015-04-26T16:35:30Z</time>
</trkpt>
<trkpt lat="35.0514604" lon="32.4484809">
<ele>20.91</ele>
<time>2015-04-26T16:35:31Z</time>
</trkpt>
<trkpt lat="35.0514880" lon="32.4485412">
<ele>20.92</ele>
<time>2015-04-26T16:35:32Z</time>
</trkpt>
<trkpt lat="35.0515138" lon="32.4486037">
<ele>20.92</ele>
<time>2015-04-26T16:35:33Z</time>
</trkpt>
<trkpt lat="35.0515481" lon="32.4486676">
<ele>20.92</ele>
<time>2015-04-26T16:35:34Z</time>
</trkpt>
<trkpt lat="35.0515807" lon="32.4487299">
<ele>20.92</ele>
<time>2015-04-26T16:35:35Z</time>
</trkpt>
<trkpt lat="35.0516137" lon="32.4487982">
<ele>20.92</ele>
<time>2015-04-26T16:35:36Z</time>
</trkpt>
<trkpt lat="35.0516405" lon="32.4488710">
<ele>20.92</ele>
<time>2015-04-26T16:35:37Z</time>
</trkpt>
<trkpt lat="35.0516708" lon="32.4489309">
<ele>20.92</ele>
<time>2015-04-26T16:35:38Z</time>
</trkpt>
<trkpt lat="35.0517023" lon="32.4489953">
<ele>20.92</ele>
<time>2015-04-26T16:35:39Z</time>
</trkpt>
<trkpt lat="35.0517333" lon="32.4490587">
<ele>20.42</ele>
<time>2015-04-26T16:35:40Z</time>
</trkpt>
<trkpt lat="35.0517620" lon="32.4491168">
<ele>20.17</ele>
<time>2015-04-26T16:35:41Z</time>
</trkpt>
<trkpt lat="35.0517924" lon="32.4491775">
<ele>20.05</ele>
<time>2015-04-26T16:35:42Z</time>
</trkpt>
<trkpt lat="35.0518219" lon="32.4492362">
<ele>19.99</ele>
<time>2015-04-26T16:35:43Z</time>
</trkpt>
<trkpt lat="35.0518495" lon="32.4492994">
<ele>19.96</ele>
<time>2015-04-26T16:35:44Z</time>
</trkpt>
<trkpt lat="35.0518795" lon="32.4493583">
<ele>19.94</ele>
<time>2015-04-26T16:35:45Z</time>
</trkpt>
<trkpt lat="35.0519153" lon="32.4494248">
<ele>20.43</ele>
<time>2015-04-26T16:35:46Z</time>
</trkpt>
<trkpt lat="35.0519480" lon="32.4494948">
<ele>20.68</ele>
<time>2015-04-26T16:35:47Z</time>
</trkpt>
<trkpt lat="35.0519795" lon="32.4495636">
<ele>20.80</ele>
<time>2015-04-26T16:35:48Z</time>
</trkpt>
<trkpt lat="35.0520115" lon="32.4496298">
<ele>20.86</ele>
<time>2015-04-26T16:35:49Z</time>
</trkpt>
<trkpt lat="35.0520440" lon="32.4496950">
<ele>20.89</ele>
<time>2015-04-26T16:35:50Z</time>
</trkpt>
<trkpt lat="35.0520755" lon="32.4497632">
<ele>20.41</ele>
<time>2015-04-26T16:35:51Z</time>
</trkpt>
<trkpt lat="35.0521058" lon="32.4498299">
<ele>20.67</ele>
<time>2015-04-26T16:35:52Z</time>
</trkpt>
<trkpt lat="35.0521357" lon="32.4498943">
<ele>20.80</ele>
<time>2015-04-26T16:35:53Z</time>
</trkpt>
<trkpt lat="35.0521670" lon="32.4499595">
<ele>20.86</ele>
<time>2015-04-26T16:35:54Z</time>
</trkpt>
<trkpt lat="35.0521991" lon="32.4500260">
<ele>20.89</ele>
<time>2015-04-26T16:35:55Z</time>
</trkpt>
<trkpt lat="35.0522307" lon="32.4500951">
<ele>20.91</ele>
<time>2015-04-26T16:35:56Z</time>
</trkpt>
<trkpt lat="35.0522660" lon="32.4501630">
<ele>20.92</ele>
<time>2015-04-26T16:35:57Z</time>
</trkpt>
<trkpt lat="35.0522979" lon="32.4502363">
<ele>20.92</ele>
<time>2015-04-26T16:35:58Z</time>
</trkpt>
<trkpt lat="35.0523339" lon="32.4503073">
<ele>20.92</ele>
<time>2015-04-26T16:35:59Z</time>
</trkpt>
<trkpt lat="35.0523702" lon="32.4503792">
<ele>20.92</ele>
<time>2015-04-26T16:36:00Z</time>
</trkpt>
<trkpt lat="35.0524037" lon="32.4504497">
<ele>20.92</ele>
<time>2015-04-26T16:36:01Z</time>
</trkpt>
<trkpt lat="35.0524369" lon="32.4505229">
<ele>20.92</ele>
<time>2015-04-26T16:36:02Z</time>
</trkpt>
<trkpt lat="35.0524705" lon="32.4505937">
<ele>20.92</ele>
<time>2015-04-26T16:36:03Z</time>
</trkpt>
<trkpt lat="35.0525028" lon="32.4506535">
<ele>20.42</ele>
<time>2015-04-26T16:36:04Z</time>
</trkpt>
<trkpt lat="35.0525327" lon="32.4507154">
<ele>20.67</ele>
<time>2015-04-26T16:36:05Z</time>
</trkpt>
<trkpt lat="35.0525640" lon="32.4507828">
<ele>20.30</ele>
<time>2015-04-26T16:36:06Z</time>
</trkpt>
<trkpt lat="35.0525964" lon="32.4508467">
<ele>20.11</ele>
<time>2015-04-26T16:36:07Z</time>
</trkpt>
<trkpt lat="35.0526292" lon="32.4509155">
<ele>20.52</ele>
<time>2015-04-26T16:36:08Z</time>
</trkpt>
<trkpt lat="35.0526598" lon="32.4509824">
<ele>20.72</ele>
<time>2015-04-26T16:36:09Z</time>
</trkpt>
<trkpt lat="35.0526954" lon="32.4510544">
<ele>20.32</ele>
<time>2015-04-26T16:36:10Z</time>
</trkpt>
<trkpt lat="35.0527317" lon="32.4511281">
<ele>20.62</ele>
<time>2015-04-26T16:36:11Z</time>
</trkpt>
<trkpt lat="35.0527665" lon="32.4512022">
<ele>21.27</ele>
<time>2015-04-26T16:36:12Z</time>
</trkpt>
<trkpt lat="35.0528028" lon="32.4512729">
<ele>21.60</ele>
<time>2015-04-26T16:36:13Z</time>
</trkpt>
<trkpt lat="35.0528361" lon="32.4513347">
<ele>21.26</ele>
<time>2015-04-26T16:36:14Z</time>
</trkpt>
<trkpt lat="35.0528715" lon="32.4514104">
<ele>21.09</ele>
<time>2015-04-26T16:36:15Z</time>
</trkpt>
<trkpt lat="35.0529052" lon="32.4514852">
<ele>21.51</ele>
<time>2015-04-26T16:36:16Z</time>
</trkpt>
<trkpt lat="35.0529434" lon="32.4515546">
<ele>21.22</ele>
<time>2015-04-26T16:36:17Z</time>
</trkpt>
<trkpt lat="35.0529811" lon="32.4516290">
<ele>21.07</ele>
<time>2015-04-26T16:36:18Z</time>
</trkpt>
<trkpt lat="35.0530179" lon="32.4517042">
<ele>21.00</ele>
<time>2015-04-26T16:36:19Z</time>
</trkpt>
<trkpt lat="35.0530525" lon="32.4517728">
<ele>20.96</ele>
<time>2015-04-26T16:36:20Z</time>
</trkpt>
<trkpt lat="35.0530902" lon="32.4518462">
<ele>20.44</ele>
<time>2015-04-26T16:36:21Z</time>
</trkpt>
<trkpt lat="35.0531255" lon="32.4519254">
<ele>20.18</ele>
<time>2015-04-26T16:36:22Z</time>
</trkpt>
<trkpt lat="35.0531645" lon="32.4519973">
<ele>20.05</ele>
<time>2015-04-26T16:36:23Z</time>
</trkpt>
<trkpt lat="35.0532045" lon="32.4520726">
<ele>19.99</ele>
<time>2015-04-26T16:36:24Z</time>
</trkpt>
<trkpt lat="35.0532423" lon="32.4521456">
<ele>19.96</ele>
<time>2015-04-26T16:36:25Z</time>
</trkpt>
<trkpt lat="35.0532752" lon="32.4522077">
<ele>19.94</ele>
<time>2015-04-26T16:36:26Z</time>
</trkpt>
<trkpt lat="35.0533128" lon="32.4522736">
<ele>19.93</ele>
<time>2015-04-26T16:36:27Z</time>
</trkpt>
<trkpt lat="35.0533459" lon="32.4523452">
<ele>20.43</ele>
<time>2015-04-26T16:36:28Z</time>
</trkpt>
<trkpt lat="35.0533830" lon="32.4524151">
<ele>20.68</ele>
<time>2015-04-26T16:36:29Z</time>
</trkpt>
<trkpt lat="35.0534195" lon="32.4524810">
<ele>20.80</ele>
<time>2015-04-26T16:36:30Z</time>
</trkpt>
<trkpt lat="35.0534564" lon="32.4525524">
<ele>20.86</ele>
<time>2015-04-26T16:36:31Z</time>
</trkpt>
<trkpt lat="35.0534927" lon="32.4526288">
<ele>20.89</ele>
<time>2015-04-26T16:36:32Z</time>
</trkpt>
<trkpt lat="35.0535248" lon="32.4526984">
<ele>20.91</ele>
<time>2015-04-26T16:36:33Z</time>
</trkpt>
<trkpt lat="35.0535609" lon="32.4527665">
<ele>20.92</ele>
<time>2015-04-26T16:36:34Z</time>
</trkpt>
<trkpt lat="35.0535970" lon="32.4528326">
<ele>20.92</ele>
<time>2015-04-26T16:36:35Z</time>
</trkpt>
<trkpt lat="35.0536366" lon="32.4529106">
<ele>20.92</ele>
<time>2015-04-26T16:36:36Z</time>
</trkpt>
<trkpt lat="35.0536722" lon="32.4529762">
<ele>20.92</ele>
<time>2015-04-26T16:36:37Z</time>
</trkpt>
<trkpt lat="35.0537093" lon="32.4530416">
<ele>20.42</ele>
<time>2015-04-26T16:36:38Z</time>
</trkpt>
<trkpt lat="35.0537446" lon="32.4531040">
<ele>20.17</ele>
<time>2015-04-26T16:36:39Z</time>
</trkpt>
<trkpt lat="35.0537770" lon="32.4531711">
<ele>20.05</ele>
<time>2015-04-26T16:36:40Z</time>
</trkpt>
<trkpt lat="35.0538078" lon="32.4532448">
<ele>19.99</ele>
<time>2015-04-26T16:36:41Z</time>
</trkpt>
<trkpt lat="35.0538409" lon="32.4533028">
<ele>19.96</ele>
<time>2015-04-26T16:36:42Z</time>
</trkpt>
<trkpt lat="35.0538770" lon="32.4533686">
<ele>19.94</ele>
<time>2015-04-26T16:36:43Z</time>
</trkpt>
<trkpt lat="35.0539074" lon="32.4534285">
<ele>19.93</ele>
<time>2015-04-26T16:36:44Z</time>
</trkpt>
<trkpt lat="35.0539421" lon="32.4534893">
<ele>19.43</ele>
<time>2015-04-26T16:36:45Z</time>
</trkpt>
<trkpt lat="35.0539783" lon="32.4535573">
<ele>19.18</ele>
<time>2015-04-26T16:36:46Z</time>
</trkpt>
<trkpt lat="35.0540141" lon="32.4536247">
<ele>19.05</ele>
<time>2015-04-26T16:36:47Z</time>
</trkpt>
<trkpt lat="35.0540556" lon="32.4536920">
<ele>18.99</ele>
<time>2015-04-26T16:36:48Z</time>
</trkpt>
<trkpt lat="35.0540942" lon="32.4537601">
<ele>18.96</ele>
<time>2015-04-26T16:36:49Z</time>
</trkpt>
<trkpt lat="35.0541208" lon="32.4538288">
<ele>18.94</ele>
<time>2015-04-26T16:36:50Z</time>
</trkpt>
<trkpt lat="35.0541611" lon="32.4539040">
<ele>18.93</ele>
<time>2015-04-26T16:36:51Z</time>
</trkpt>
<trkpt lat="35.0542054" lon="32.4539732">
<ele>18.93</ele>
<time>2015-04-26T16:36:52Z</time>
</trkpt>
<trkpt lat="35.0542463" lon="32.4540410">
<ele>19.43</ele>
<time>2015-04-26T16:36:53Z</time>
</trkpt>
<trkpt lat="35.0542899" lon="32.4541108">
<ele>19.68</ele>
<time>2015-04-26T16:36:54Z</time>
</trkpt>
<trkpt lat="35.0543331" lon="32.4541734">
<ele>19.30</ele>
<time>2015-04-26T16:36:55Z</time>
</trkpt>
<trkpt lat="35.0543846" lon="32.4542328">
<ele>19.11</ele>
<time>2015-04-26T16:36:56Z</time>
</trkpt>
<trkpt lat="35.0544400" lon="32.4542894">
<ele>19.02</ele>
<time>2015-04-26T16:36:57Z</time>
</trkpt>
<trkpt lat="35.0545000" lon="32.4543458">
<ele>18.97</ele>
<time>2015-04-26T16:36:58Z</time>
</trkpt>
<trkpt lat="35.0545580" lon="32.4543960">
<ele>18.95</ele>
<time>2015-04-26T16:36:59Z</time>
</trkpt>
<trkpt lat="35.0546205" lon="32.4544438">
<ele>19.44</ele>
<time>2015-04-26T16:37:00Z</time>
</trkpt>
<trkpt lat="35.0546872" lon="32.4544830">
<ele>19.68</ele>
<time>2015-04-26T16:37:01Z</time>
</trkpt>
<trkpt lat="35.0547544" lon="32.4545272">
<ele>19.80</ele>
<time>2015-04-26T16:37:02Z</time>
</trkpt>
<trkpt lat="35.0548198" lon="32.4545607">
<ele>20.36</ele>
<time>2015-04-26T16:37:03Z</time>
</trkpt>
<trkpt lat="35.0548924" lon="32.4545865">
<ele>20.14</ele>
<time>2015-04-26T16:37:04Z</time>
</trkpt>
<trkpt lat="35.0549682" lon="32.4546029">
<ele>20.53</ele>
<time>2015-04-26T16:37:05Z</time>
</trkpt>
<trkpt lat="35.0550432" lon="32.4546226">
<ele>20.23</ele>
<time>2015-04-26T16:37:06Z</time>
</trkpt>
<trkpt lat="35.0551183" lon="32.4546373">
<ele>20.08</ele>
<time>2015-04-26T16:37:07Z</time>
</trkpt>
<trkpt lat="35.0551906" lon="32.4546541">
<ele>20.50</ele>
<time>2015-04-26T16:37:08Z</time>
</trkpt>
<trkpt lat="35.0552632" lon="32.4546650">
<ele>20.71</ele>
<time>2015-04-26T16:37:09Z</time>
</trkpt>
<trkpt lat="35.0553454" lon="32.4546747">
<ele>20.32</ele>
<time>2015-04-26T16:37:10Z</time>
</trkpt>
<trkpt lat="35.0554285" lon="32.4546863">
<ele>20.12</ele>
<time>2015-04-26T16:37:11Z</time>
</trkpt>
<trkpt lat="35.0555172" lon="32.4546985">
<ele>20.02</ele>
<time>2015-04-26T16:37:12Z</time>
</trkpt>
<trkpt lat="35.0556082" lon="32.4547108">
<ele>19.97</ele>
<time>2015-04-26T16:37:13Z</time>
</trkpt>
<trkpt lat="35.0556977" lon="32.4547168">
<ele>18.95</ele>
<time>2015-04-26T16:37:14Z</time>
</trkpt>
<trkpt lat="35.0557806" lon="32.4547246">
<ele>18.44</ele>
<time>2015-04-26T16:37:15Z</time>
</trkpt>
<trkpt lat="35.0558583" lon="32.4547301">
<ele>18.18</ele>
<time>2015-04-26T16:37:16Z</time>
</trkpt>
<trkpt lat="35.0559415" lon="32.4547438">
<ele>17.55</ele>
<time>2015-04-26T16:37:17Z</time>
</trkpt>
<trkpt lat="35.0560264" lon="32.4547541">
<ele>17.24</ele>
<time>2015-04-26T16:37:18Z</time>
</trkpt>
<trkpt lat="35.0561116" lon="32.4547674">
<ele>17.08</ele>
<time>2015-04-26T16:37:19Z</time>
</trkpt>
<trkpt lat="35.0561992" lon="32.4547754">
<ele>17.00</ele>
<time>2015-04-26T16:37:20Z</time>
</trkpt>
<trkpt lat="35.0562813" lon="32.4547873">
<ele>16.96</ele>
<time>2015-04-26T16:37:21Z</time>
</trkpt>
<trkpt lat="35.0563711" lon="32.4547971">
<ele>17.44</ele>
<time>2015-04-26T16:37:22Z</time>
</trkpt>
<trkpt lat="35.0564589" lon="32.4548080">
<ele>17.68</ele>
<time>2015-04-26T16:37:23Z</time>
</trkpt>
<trkpt lat="35.0565562" lon="32.4548200">
<ele>17.30</ele>
<time>2015-04-26T16:37:24Z</time>
</trkpt>
<trkpt lat="35.0566468" lon="32.4548283">
<ele>17.11</ele>
<time>2015-04-26T16:37:25Z</time>
</trkpt>
<trkpt lat="35.0567315" lon="32.4548356">
<ele>17.02</ele>
<time>2015-04-26T16:37:26Z</time>
</trkpt>
<trkpt lat="35.0568251" lon="32.4548486">
<ele>16.97</ele>
<time>2015-04-26T16:37:27Z</time>
</trkpt>
<trkpt lat="35.0569176" lon="32.4548637">
<ele>16.95</ele>
<time>2015-04-26T16:37:28Z</time>
</trkpt>
<trkpt lat="35.0570068" lon="32.4548853">
<ele>16.94</ele>
<time>2015-04-26T16:37:29Z</time>
</trkpt>
<trkpt lat="35.0570986" lon="32.4549117">
<ele>16.93</ele>
<time>2015-04-26T16:37:30Z</time>
</trkpt>
<trkpt lat="35.0571832" lon="32.4549389">
<ele>16.93</ele>
<time>2015-04-26T16:37:31Z</time>
</trkpt>
<trkpt lat="35.0572620" lon="32.4549830">
<ele>16.93</ele>
<time>2015-04-26T16:37:32Z</time>
</trkpt>
<trkpt lat="35.0573390" lon="32.4550367">
<ele>16.93</ele>
<time>2015-04-26T16:37:33Z</time>
</trkpt>
<trkpt lat="35.0574075" lon="32.4551027">
<ele>17.43</ele>
<time>2015-04-26T16:37:34Z</time>
</trkpt>
<trkpt lat="35.0574700" lon="32.4551765">
<ele>18.18</ele>
<time>2015-04-26T16:37:35Z</time>
</trkpt>
<trkpt lat="35.0575262" lon="32.4552554">
<ele>18.55</ele>
<time>2015-04-26T16:37:36Z</time>
</trkpt>
<trkpt lat="35.0575819" lon="32.4553385">
<ele>18.74</ele>
<time>2015-04-26T16:37:37Z</time>
</trkpt>
<trkpt lat="35.0576334" lon="32.4554262">
<ele>18.83</ele>
<time>2015-04-26T16:37:38Z</time>
</trkpt>
<trkpt lat="35.0576850" lon="32.4555118">
<ele>18.88</ele>
<time>2015-04-26T16:37:39Z</time>
</trkpt>
<trkpt lat="35.0577295" lon="32.4555963">
<ele>18.90</ele>
<time>2015-04-26T16:37:40Z</time>
</trkpt>
<trkpt lat="35.0577736" lon="32.4556831">
<ele>18.91</ele>
<time>2015-04-26T16:37:41Z</time>
</trkpt>
<trkpt lat="35.0578206" lon="32.4557688">
<ele>18.92</ele>
<time>2015-04-26T16:37:42Z</time>
</trkpt>
<trkpt lat="35.0578658" lon="32.4558460">
<ele>18.42</ele>
<time>2015-04-26T16:37:43Z</time>
</trkpt>
<trkpt lat="35.0579038" lon="32.4559220">
<ele>18.17</ele>
<time>2015-04-26T16:37:44Z</time>
</trkpt>
<trkpt lat="35.0579471" lon="32.4560034">
<ele>18.05</ele>
<time>2015-04-26T16:37:45Z</time>
</trkpt>
<trkpt lat="35.0579937" lon="32.4560846">
<ele>17.99</ele>
<time>2015-04-26T16:37:46Z</time>
</trkpt>
<trkpt lat="35.0580380" lon="32.4561684">
<ele>17.96</ele>
<time>2015-04-26T16:37:47Z</time>
</trkpt>
<trkpt lat="35.0580796" lon="32.4562485">
<ele>17.94</ele>
<time>2015-04-26T16:37:48Z</time>
</trkpt>
<trkpt lat="35.0581218" lon="32.4563345">
<ele>18.43</ele>
<time>2015-04-26T16:37:49Z</time>
</trkpt>
<trkpt lat="35.0581687" lon="32.4564207">
<ele>18.68</ele>
<time>2015-04-26T16:37:50Z</time>
</trkpt>
<trkpt lat="35.0582129" lon="32.4565038">
<ele>18.80</ele>
<time>2015-04-26T16:37:51Z</time>
</trkpt>
<trkpt lat="35.0582586" lon="32.4565836">
<ele>18.86</ele>
<time>2015-04-26T16:37:52Z</time>
</trkpt>
<trkpt lat="35.0583021" lon="32.4566642">
<ele>18.89</ele>
<time>2015-04-26T16:37:53Z</time>
</trkpt>
<trkpt lat="35.0583499" lon="32.4567432">
<ele>18.91</ele>
<time>2015-04-26T16:37:54Z</time>
</trkpt>
<trkpt lat="35.0583976" lon="32.4568292">
<ele>18.92</ele>
<time>2015-04-26T16:37:55Z</time>
</trkpt>
<trkpt lat="35.0584446" lon="32.4568965">
<ele>18.92</ele>
<time>2015-04-26T16:37:56Z</time>
</trkpt>
<trkpt lat="35.0584909" lon="32.4569826">
<ele>18.92</ele>
<time>2015-04-26T16:37:57Z</time>
</trkpt>
<trkpt lat="35.0585348" lon="32.4570621">
<ele>18.92</ele>
<time>2015-04-26T16:37:58Z</time>
</trkpt>
<trkpt lat="35.0585747" lon="32.4571436">
<ele>19.42</ele>
<time>2015-04-26T16:37:59Z</time>
</trkpt>
<trkpt lat="35.0586082" lon="32.4572091">
<ele>19.17</ele>
<time>2015-04-26T16:38:00Z</time>
</trkpt>
<trkpt lat="35.0586513" lon="32.4572835">
<ele>19.55</ele>
<time>2015-04-26T16:38:01Z</time>
</trkpt>
<trkpt lat="35.0586911" lon="32.4573476">
<ele>19.74</ele>
<time>2015-04-26T16:38:02Z</time>
</trkpt>
<trkpt lat="35.0587368" lon="32.4574238">
<ele>19.83</ele>
<time>2015-04-26T16:38:03Z</time>
</trkpt>
<trkpt lat="35.0587853" lon="32.4575067">
<ele>19.88</ele>
<time>2015-04-26T16:38:04Z</time>
</trkpt>
<trkpt lat="35.0588251" lon="32.4575814">
<ele>19.90</ele>
<time>2015-04-26T16:38:05Z</time>
</trkpt>
<trkpt lat="35.0588645" lon="32.4576531">
<ele>19.91</ele>
<time>2015-04-26T16:38:06Z</time>
</trkpt>
<trkpt lat="35.0589101" lon="32.4577253">
<ele>19.92</ele>
<time>2015-04-26T16:38:07Z</time>
</trkpt>
<trkpt lat="35.0589574" lon="32.4577912">
<ele>20.42</ele>
<time>2015-04-26T16:38:08Z</time>
</trkpt>
<trkpt lat="35.0589992" lon="32.4578604">
<ele>20.67</ele>
<time>2015-04-26T16:38:09Z</time>
</trkpt>
<trkpt lat="35.0590467" lon="32.4579243">
<ele>20.80</ele>
<time>2015-04-26T16:38:10Z</time>
</trkpt>
<trkpt lat="35.0591021" lon="32.4579884">
<ele>20.36</ele>
<time>2015-04-26T16:38:11Z</time>
</trkpt>
<trkpt lat="35.0591531" lon="32.4580490">
<ele>20.14</ele>
<time>2015-04-26T16:38:12Z</time>
</trkpt>
<trkpt lat="35.0592010" lon="32.4581066">
<ele>20.53</ele>
<time>2015-04-26T16:38:13Z</time>
</trkpt>
<trkpt lat="35.0592542" lon="32.4581665">
<ele>20.73</ele>
<time>2015-04-26T16:38:14Z</time>
</trkpt>
<trkpt lat="35.0593027" lon="32.4582225">
<ele>20.83</ele>
<time>2015-04-26T16:38:15Z</time>
</trkpt>
<trkpt lat="35.0593515" lon="32.4582752">
<ele>20.88</ele>
<time>2015-04-26T16:38:16Z</time>
</trkpt>
<trkpt lat="35.0594034" lon="32.4583049">
<ele>21.40</ele>
<time>2015-04-26T16:38:17Z</time>
</trkpt>
<trkpt lat="35.0594511" lon="32.4583599">
<ele>21.66</ele>
<time>2015-04-26T16:38:18Z</time>
</trkpt>
<trkpt lat="35.0594912" lon="32.4584152">
<ele>21.79</ele>
<time>2015-04-26T16:38:19Z</time>
</trkpt>
<trkpt lat="35.0595330" lon="32.4584630">
<ele>21.86</ele>
<time>2015-04-26T16:38:20Z</time>
</trkpt>
<trkpt lat="35.0595777" lon="32.4585246">
<ele>21.89</ele>
<time>2015-04-26T16:38:21Z</time>
</trkpt>
<trkpt lat="35.0596300" lon="32.4585837">
<ele>21.41</ele>
<time>2015-04-26T16:38:22Z</time>
</trkpt>
<trkpt lat="35.0596802" lon="32.4586363">
<ele>21.17</ele>
<time>2015-04-26T16:38:23Z</time>
</trkpt>
<trkpt lat="35.0597195" lon="32.4586996">
<ele>20.55</ele>
<time>2015-04-26T16:38:24Z</time>
</trkpt>
<trkpt lat="35.0597592" lon="32.4587608">
<ele>20.24</ele>
<time>2015-04-26T16:38:25Z</time>
</trkpt>
<trkpt lat="35.0597989" lon="32.4588231">
<ele>20.08</ele>
<time>2015-04-26T16:38:26Z</time>
</trkpt>
<trkpt lat="35.0598386" lon="32.4588740">
<ele>20.50</ele>
<time>2015-04-26T16:38:27Z</time>
</trkpt>
<trkpt lat="35.0598761" lon="32.4589404">
<ele>20.21</ele>
<time>2015-04-26T16:38:28Z</time>
</trkpt>
<trkpt lat="35.0599152" lon="32.4590049">
<ele>20.07</ele>
<time>2015-04-26T16:38:29Z</time>
</trkpt>
<trkpt lat="35.0599498" lon="32.4590730">
<ele>20.50</ele>
<time>2015-04-26T16:38:30Z</time>
</trkpt>
<trkpt lat="35.0599794" lon="32.4591349">
<ele>20.21</ele>
<time>2015-04-26T16:38:31Z</time>
</trkpt>
<trkpt lat="35.0600140" lon="32.4591904">
<ele>20.07</ele>
<time>2015-04-26T16:38:32Z</time>
</trkpt>
<trkpt lat="35.0600418" lon="32.4592626">
<ele>20.00</ele>
<time>2015-04-26T16:38:33Z</time>
</trkpt>
<trkpt lat="35.0600786" lon="32.4593332">
<ele>19.96</ele>
<time>2015-04-26T16:38:34Z</time>
</trkpt>
<trkpt lat="35.0601013" lon="32.4594052">
<ele>19.94</ele>
<time>2015-04-26T16:38:35Z</time>
</trkpt>
<trkpt lat="35.0601366" lon="32.4594783">
<ele>19.93</ele>
<time>2015-04-26T16:38:36Z</time>
</trkpt>
<trkpt lat="35.0601608" lon="32.4595525">
<ele>19.93</ele>
<time>2015-04-26T16:38:37Z</time>
</trkpt>
<trkpt lat="35.0601808" lon="32.4596233">
<ele>19.43</ele>
<time>2015-04-26T16:38:38Z</time>
</trkpt>
<trkpt lat="35.0602114" lon="32.4597023">
<ele>19.68</ele>
<time>2015-04-26T16:38:39Z</time>
</trkpt>
<trkpt lat="35.0602360" lon="32.4597838">
<ele>19.80</ele>
<time>2015-04-26T16:38:40Z</time>
</trkpt>
<trkpt lat="35.0602641" lon="32.4598602">
<ele>19.86</ele>
<time>2015-04-26T16:38:41Z</time>
</trkpt>
<trkpt lat="35.0602764" lon="32.4599390">
<ele>19.89</ele>
<time>2015-04-26T16:38:42Z</time>
</trkpt>
<trkpt lat="35.0603005" lon="32.4600143">
<ele>19.91</ele>
<time>2015-04-26T16:38:43Z</time>
</trkpt>
<trkpt lat="35.0603196" lon="32.4600825">
<ele>19.92</ele>
<time>2015-04-26T16:38:44Z</time>
</trkpt>
<trkpt lat="35.0603549" lon="32.4601496">
<ele>19.92</ele>
<time>2015-04-26T16:38:45Z</time>
</trkpt>
<trkpt lat="35.0603818" lon="32.4602158">
<ele>19.92</ele>
<time>2015-04-26T16:38:46Z</time>
</trkpt>
<trkpt lat="35.0604068" lon="32.4603014">
<ele>19.92</ele>
<time>2015-04-26T16:38:47Z</time>
</trkpt>
<trkpt lat="35.0604393" lon="32.4603760">
<ele>19.92</ele>
<time>2015-04-26T16:38:48Z</time>
</trkpt>
<trkpt lat="35.0604780" lon="32.4604521">
<ele>19.42</ele>
<time>2015-04-26T16:38:49Z</time>
</trkpt>
<trkpt lat="35.0605123" lon="32.4605231">
<ele>19.17</ele>
<time>2015-04-26T16:38:50Z</time>
</trkpt>
<trkpt lat="35.0605493" lon="32.4605798">
<ele>19.05</ele>
<time>2015-04-26T16:38:51Z</time>
</trkpt>
<trkpt lat="35.0605798" lon="32.4606471">
<ele>18.99</ele>
<time>2015-04-26T16:38:52Z</time>
</trkpt>
<trkpt lat="35.0606144" lon="32.4607145">
<ele>18.96</ele>
<time>2015-04-26T16:38:53Z</time>
</trkpt>
<trkpt lat="35.0606450" lon="32.4607812">
<ele>18.94</ele>
<time>2015-04-26T16:38:54Z</time>
</trkpt>
<trkpt lat="35.0606828" lon="32.4608386">
<ele>18.93</ele>
<time>2015-04-26T16:38:55Z</time>
</trkpt>
<trkpt lat="35.0607181" lon="32.4609001">
<ele>18.93</ele>
<time>2015-04-26T16:38:56Z</time>
</trkpt>
<trkpt lat="35.0607586" lon="32.4609601">
<ele>19.43</ele>
<time>2015-04-26T16:38:57Z</time>
</trkpt>
<trkpt lat="35.0607981" lon="32.4610107">
<ele>20.18</ele>
<time>2015-04-26T16:38:58Z</time>
</trkpt>
<trkpt lat="35.0608336" lon="32.4610708">
<ele>20.55</ele>
<time>2015-04-26T16:38:59Z</time>
</trkpt>
<trkpt lat="35.0608724" lon="32.4611339">
<ele>20.74</ele>
<time>2015-04-26T16:39:00Z</time>
</trkpt>
<trkpt lat="35.0609154" lon="32.4611938">
<ele>20.33</ele>
<time>2015-04-26T16:39:01Z</time>
</trkpt>
<trkpt lat="35.0609563" lon="32.4612569">
<ele>20.13</ele>
<time>2015-04-26T16:39:02Z</time>
</trkpt>
<trkpt lat="35.0609964" lon="32.4613137">
<ele>20.03</ele>
<time>2015-04-26T16:39:03Z</time>
</trkpt>
<trkpt lat="35.0610382" lon="32.4613755">
<ele>19.98</ele>
<time>2015-04-26T16:39:04Z</time>
</trkpt>
<trkpt lat="35.0610770" lon="32.4614280">
<ele>19.95</ele>
<time>2015-04-26T16:39:05Z</time>
</trkpt>
<trkpt lat="35.0611187" lon="32.4614803">
<ele>20.44</ele>
<time>2015-04-26T16:39:06Z</time>
</trkpt>
<trkpt lat="35.0611550" lon="32.4615254">
<ele>21.18</ele>
<time>2015-04-26T16:39:07Z</time>
</trkpt>
<trkpt lat="35.0611942" lon="32.4615825">
<ele>21.55</ele>
<time>2015-04-26T16:39:08Z</time>
</trkpt>
<trkpt lat="35.0612359" lon="32.4616301">
<ele>21.74</ele>
<time>2015-04-26T16:39:09Z</time>
</trkpt>
<trkpt lat="35.0612778" lon="32.4616899">
<ele>22.33</ele>
<time>2015-04-26T16:39:10Z</time>
</trkpt>
<trkpt lat="35.0613217" lon="32.4617602">
<ele>22.13</ele>
<time>2015-04-26T16:39:11Z</time>
</trkpt>
<trkpt lat="35.0613630" lon="32.4618271">
<ele>22.03</ele>
<time>2015-04-26T16:39:12Z</time>
</trkpt>
<trkpt lat="35.0614142" lon="32.4618864">
<ele>21.98</ele>
<time>2015-04-26T16:39:13Z</time>
</trkpt>
<trkpt lat="35.0614552" lon="32.4619502">
<ele>21.95</ele>
<time>2015-04-26T16:39:14Z</time>
</trkpt>
<trkpt lat="35.0614995" lon="32.4620154">
<ele>21.94</ele>
<time>2015-04-26T16:39:15Z</time>
</trkpt>
<trkpt lat="35.0615474" lon="32.4620737">
<ele>21.93</ele>
<time>2015-04-26T16:39:16Z</time>
</trkpt>
<trkpt lat="35.0615984" lon="32.4621355">
<ele>21.93</ele>
<time>2015-04-26T16:39:17Z</time>
</trkpt>
<trkpt lat="35.0616443" lon="32.4621943">
<ele>21.93</ele>
<time>2015-04-26T16:39:18Z</time>
</trkpt>
<trkpt lat="35.0616837" lon="32.4622671">
<ele>21.43</ele>
<time>2015-04-26T16:39:19Z</time>
</trkpt>
<trkpt lat="35.0617266" lon="32.4623331">
<ele>21.18</ele>
<time>2015-04-26T16:39:20Z</time>
</trkpt>
<trkpt lat="35.0617706" lon="32.4624010">
<ele>20.55</ele>
<time>2015-04-26T16:39:21Z</time>
</trkpt>
<trkpt lat="35.0618172" lon="32.4624680">
<ele>21.24</ele>
<time>2015-04-26T16:39:22Z</time>
</trkpt>
<trkpt lat="35.0618652" lon="32.4625379">
<ele>22.08</ele>
<time>2015-04-26T16:39:23Z</time>
</trkpt>
<trkpt lat="35.0619130" lon="32.4625848">
<ele>22.00</ele>
<time>2015-04-26T16:39:24Z</time>
</trkpt>
<trkpt lat="35.0619507" lon="32.4626486">
<ele>21.96</ele>
<time>2015-04-26T16:39:25Z</time>
</trkpt>
<trkpt lat="35.0619944" lon="32.4627139">
<ele>21.44</ele>
<time>2015-04-26T16:39:26Z</time>
</trkpt>
<trkpt lat="35.0620404" lon="32.4627798">
<ele>21.68</ele>
<time>2015-04-26T16:39:27Z</time>
</trkpt>
<trkpt lat="35.0620829" lon="32.4628486">
<ele>21.80</ele>
<time>2015-04-26T16:39:28Z</time>
</trkpt>
<trkpt lat="35.0621324" lon="32.4629150">
<ele>21.86</ele>
<time>2015-04-26T16:39:29Z</time>
</trkpt>
<trkpt lat="35.0621769" lon="32.4629869">
<ele>22.39</ele>
<time>2015-04-26T16:39:30Z</time>
</trkpt>
<trkpt lat="35.0622216" lon="32.4630469">
<ele>22.66</ele>
<time>2015-04-26T16:39:31Z</time>
</trkpt>
<trkpt lat="35.0622658" lon="32.4631012">
<ele>22.29</ele>
<time>2015-04-26T16:39:32Z</time>
</trkpt>
<trkpt lat="35.0623112" lon="32.4631670">
<ele>22.11</ele>
<time>2015-04-26T16:39:33Z</time>
</trkpt>
<trkpt lat="35.0623481" lon="32.4632382">
<ele>21.52</ele>
<time>2015-04-26T16:39:34Z</time>
</trkpt>
<trkpt lat="35.0623933" lon="32.4632984">
<ele>20.72</ele>
<time>2015-04-26T16:39:35Z</time>
</trkpt>
<trkpt lat="35.0624397" lon="32.4633651">
<ele>20.32</ele>
<time>2015-04-26T16:39:36Z</time>
</trkpt>
<trkpt lat="35.0624868" lon="32.4634351">
<ele>19.62</ele>
<time>2015-04-26T16:39:37Z</time>
</trkpt>
<trkpt lat="35.0625383" lon="32.4634883">
<ele>18.77</ele>
<time>2015-04-26T16:39:38Z</time>
</trkpt>
<trkpt lat="35.0625848" lon="32.4635628">
<ele>19.35</ele>
<time>2015-04-26T16:39:39Z</time>
</trkpt>
<trkpt lat="35.0626328" lon="32.4636308">
<ele>19.64</ele>
<time>2015-04-26T16:39:40Z</time>
</trkpt>
<trkpt lat="35.0626856" lon="32.4637033">
<ele>19.78</ele>
<time>2015-04-26T16:39:41Z</time>
</trkpt>
<trkpt lat="35.0627317" lon="32.4637747">
<ele>19.85</ele>
<time>2015-04-26T16:39:42Z</time>
</trkpt>
<trkpt lat="35.0627834" lon="32.4638421">
<ele>19.39</ele>
<time>2015-04-26T16:39:43Z</time>
</trkpt>
<trkpt lat="35.0628324" lon="32.4639006">
<ele>19.16</ele>
<time>2015-04-26T16:39:44Z</time>
</trkpt>
<trkpt lat="35.0628752" lon="32.4639618">
<ele>18.54</ele>
<time>2015-04-26T16:39:45Z</time>
</trkpt>
<trkpt lat="35.0629163" lon="32.4640198">
<ele>18.23</ele>
<time>2015-04-26T16:39:46Z</time>
</trkpt>
<trkpt lat="35.0629585" lon="32.4640867">
<ele>17.58</ele>
<time>2015-04-26T16:39:47Z</time>
</trkpt>
<trkpt lat="35.0630037" lon="32.4641470">
<ele>17.75</ele>
<time>2015-04-26T16:39:48Z</time>
</trkpt>
<trkpt lat="35.0630446" lon="32.4642075">
<ele>17.84</ele>
<time>2015-04-26T16:39:49Z</time>
</trkpt>
<trkpt lat="35.0630835" lon="32.4642671">
<ele>17.88</ele>
<time>2015-04-26T16:39:50Z</time>
</trkpt>
<trkpt lat="35.0631241" lon="32.4643109">
<ele>17.90</ele>
<time>2015-04-26T16:39:51Z</time>
</trkpt>
<trkpt lat="35.0631610" lon="32.4643647">
<ele>17.91</ele>
<time>2015-04-26T16:39:52Z</time>
</trkpt>
<trkpt lat="35.0631948" lon="32.4644210">
<ele>17.42</ele>
<time>2015-04-26T16:39:53Z</time>
</trkpt>
<trkpt lat="35.0632278" lon="32.4644698">
<ele>17.67</ele>
<time>2015-04-26T16:39:54Z</time>
</trkpt>
<trkpt lat="35.0632668" lon="32.4645238">
<ele>17.30</ele>
<time>2015-04-26T16:39:55Z</time>
</trkpt>
<trkpt lat="35.0633118" lon="32.4645918">
<ele>17.11</ele>
<time>2015-04-26T16:39:56Z</time>
</trkpt>
<trkpt lat="35.0633572" lon="32.4646517">
<ele>17.02</ele>
<time>2015-04-26T16:39:57Z</time>
</trkpt>
<trkpt lat="35.0634053" lon="32.4647173">
<ele>16.97</ele>
<time>2015-04-26T16:39:58Z</time>
</trkpt>
<trkpt lat="35.0634601" lon="32.4647838">
<ele>16.95</ele>
<time>2015-04-26T16:39:59Z</time>
</trkpt>
<trkpt lat="35.0635107" lon="32.4648397">
<ele>16.94</ele>
<time>2015-04-26T16:40:00Z</time>
</trkpt>
<trkpt lat="35.0635608" lon="32.4648957">
<ele>16.93</ele>
<time>2015-04-26T16:40:01Z</time>
</trkpt>
<trkpt lat="35.0636046" lon="32.4649428">
<ele>17.43</ele>
<time>2015-04-26T16:40:02Z</time>
</trkpt>
<trkpt lat="35.0636568" lon="32.4649952">
<ele>18.18</ele>
<time>2015-04-26T16:40:03Z</time>
</trkpt>
<trkpt lat="35.0637052" lon="32.4650422">
<ele>18.55</ele>
<time>2015-04-26T16:40:04Z</time>
</trkpt>
<trkpt lat="35.0637480" lon="32.4650938">
<ele>18.74</ele>
<time>2015-04-26T16:40:05Z</time>
</trkpt>
<trkpt lat="35.0637884" lon="32.4651372">
<ele>18.83</ele>
<time>2015-04-26T16:40:06Z</time>
</trkpt>
<trkpt lat="35.0638302" lon="32.4651877">
<ele>18.38</ele>
<time>2015-04-26T16:40:07Z</time>
</trkpt>
<trkpt lat="35.0638780" lon="32.4652372">
<ele>18.15</ele>
<time>2015-04-26T16:40:08Z</time>
</trkpt>
<trkpt lat="35.0639260" lon="32.4652902">
<ele>18.04</ele>
<time>2015-04-26T16:40:09Z</time>
</trkpt>
<trkpt lat="35.0639674" lon="32.4653432">
<ele>17.98</ele>
<time>2015-04-26T16:40:10Z</time>
</trkpt>
<trkpt lat="35.0640141" lon="32.4653905">
<ele>17.95</ele>
<time>2015-04-26T16:40:11Z</time>
</trkpt>
<trkpt lat="35.0640570" lon="32.4654548">
<ele>17.94</ele>
<time>2015-04-26T16:40:12Z</time>
</trkpt>
<trkpt lat="35.0641042" lon="32.4655055">
<ele>17.93</ele>
<time>2015-04-26T16:40:13Z</time>
</trkpt>
<trkpt lat="35.0641569" lon="32.4655636">
<ele>17.93</ele>
<time>2015-04-26T16:40:14Z</time>
</trkpt>
<trkpt lat="35.0642078" lon="32.4656212">
<ele>17.93</ele>
<time>2015-04-26T16:40:15Z</time>
</trkpt>
<trkpt lat="35.0642564" lon="32.4656721">
<ele>18.43</ele>
<time>2015-04-26T16:40:16Z</time>
</trkpt>
<trkpt lat="35.0643045" lon="32.4657214">
<ele>18.18</ele>
<time>2015-04-26T16:40:17Z</time>
</trkpt>
<trkpt lat="35.0643581" lon="32.4657742">
<ele>18.55</ele>
<time>2015-04-26T16:40:18Z</time>
</trkpt>
<trkpt lat="35.0644085" lon="32.4658316">
<ele>18.74</ele>
<time>2015-04-26T16:40:19Z</time>
</trkpt>
<trkpt lat="35.0644646" lon="32.4658935">
<ele>18.83</ele>
<time>2015-04-26T16:40:20Z</time>
</trkpt>
<trkpt lat="35.0645206" lon="32.4659455">
<ele>18.38</ele>
<time>2015-04-26T16:40:21Z</time>
</trkpt>
<trkpt lat="35.0645654" lon="32.4659979">
<ele>18.15</ele>
<time>2015-04-26T16:40:22Z</time>
</trkpt>
<trkpt lat="35.0646105" lon="32.4660598">
<ele>18.04</ele>
<time>2015-04-26T16:40:23Z</time>
</trkpt>
<trkpt lat="35.0646608" lon="32.4661211">
<ele>18.48</ele>
<time>2015-04-26T16:40:24Z</time>
</trkpt>
<trkpt lat="35.0647091" lon="32.4661835">
<ele>18.20</ele>
<time>2015-04-26T16:40:25Z</time>
</trkpt>
<trkpt lat="35.0647540" lon="32.4662469">
<ele>18.06</ele>
<time>2015-04-26T16:40:26Z</time>
</trkpt>
<trkpt lat="35.0647871" lon="32.4663028">
<ele>17.49</ele>
<time>2015-04-26T16:40:27Z</time>
</trkpt>
<trkpt lat="35.0648244" lon="32.4663591">
<ele>17.21</ele>
<time>2015-04-26T16:40:28Z</time>
</trkpt>
<trkpt lat="35.0648731" lon="32.4664139">
<ele>16.57</ele>
<time>2015-04-26T16:40:29Z</time>
</trkpt>
<trkpt lat="35.0649059" lon="32.4664743">
<ele>16.75</ele>
<time>2015-04-26T16:40:30Z</time>
</trkpt>
<trkpt lat="35.0649442" lon="32.4665357">
<ele>16.84</ele>
<time>2015-04-26T16:40:31Z</time>
</trkpt>
<trkpt lat="35.0649863" lon="32.4665948">
<ele>16.88</ele>
<time>2015-04-26T16:40:32Z</time>
</trkpt>
<trkpt lat="35.0650238" lon="32.4666660">
<ele>16.90</ele>
<time>2015-04-26T16:40:33Z</time>
</trkpt>
<trkpt lat="35.0650595" lon="32.4667462">
<ele>16.91</ele>
<time>2015-04-26T16:40:34Z</time>
</trkpt>
<trkpt lat="35.0651024" lon="32.4668179">
<ele>16.92</ele>
<time>2015-04-26T16:40:35Z</time>
</trkpt>
<trkpt lat="35.0651478" lon="32.4668883">
<ele>16.92</ele>
<time>2015-04-26T16:40:36Z</time>
</trkpt>
<trkpt lat="35.0651846" lon="32.4669583">
<ele>17.42</ele>
<time>2015-04-26T16:40:37Z</time>
</trkpt>
<trkpt lat="35.0652140" lon="32.4670262">
<ele>18.17</ele>
<time>2015-04-26T16:40:38Z</time>
</trkpt>
<trkpt lat="35.0652473" lon="32.4670889">
<ele>18.05</ele>
<time>2015-04-26T16:40:39Z</time>
</trkpt>
<trkpt lat="35.0652770" lon="32.4671533">
<ele>18.49</ele>
<time>2015-04-26T16:40:40Z</time>
</trkpt>
<trkpt lat="35.0653085" lon="32.4672104">
<ele>18.71</ele>
<time>2015-04-26T16:40:41Z</time>
</trkpt>
<trkpt lat="35.0653341" lon="32.4672601">
<ele>19.32</ele>
<time>2015-04-26T16:40:42Z</time>
</trkpt>
<trkpt lat="35.0653664" lon="32.4673122">
<ele>19.12</ele>
<time>2015-04-26T16:40:43Z</time>
</trkpt>
<trkpt lat="35.0653948" lon="32.4673738">
<ele>19.52</ele>
<time>2015-04-26T16:40:44Z</time>
</trkpt>
<trkpt lat="35.0654247" lon="32.4674283">
<ele>19.22</ele>
<time>2015-04-26T16:40:45Z</time>
</trkpt>
<trkpt lat="35.0654646" lon="32.4674794">
<ele>19.07</ele>
<time>2015-04-26T16:40:46Z</time>
</trkpt>
<trkpt lat="35.0654900" lon="32.4675419">
<ele>19.50</ele>
<time>2015-04-26T16:40:47Z</time>
</trkpt>
<trkpt lat="35.0655168" lon="32.4676072">
<ele>19.71</ele>
<time>2015-04-26T16:40:48Z</time>
</trkpt>
<trkpt lat="35.0655456" lon="32.4676698">
<ele>20.32</ele>
<time>2015-04-26T16:40:49Z</time>
</trkpt>
<trkpt lat="35.0655775" lon="32.4677269">
<ele>20.12</ele>
<time>2015-04-26T16:40:50Z</time>
</trkpt>
<trkpt lat="35.0656074" lon="32.4677900">
<ele>20.52</ele>
<time>2015-04-26T16:40:51Z</time>
</trkpt>
<trkpt lat="35.0656314" lon="32.4678567">
<ele>20.22</ele>
<time>2015-04-26T16:40:52Z</time>
</trkpt>
<trkpt lat="35.0656563" lon="32.4679264">
<ele>20.07</ele>
<time>2015-04-26T16:40:53Z</time>
</trkpt>
<trkpt lat="35.0656913" lon="32.4679893">
<ele>20.50</ele>
<time>2015-04-26T16:40:54Z</time>
</trkpt>
<trkpt lat="35.0657238" lon="32.4680511">
<ele>20.71</ele>
<time>2015-04-26T16:40:55Z</time>
</trkpt>
<trkpt lat="35.0657513" lon="32.4681203">
<ele>20.82</ele>
<time>2015-04-26T16:40:56Z</time>
</trkpt>
<trkpt lat="35.0657870" lon="32.4681756">
<ele>20.87</ele>
<time>2015-04-26T16:40:57Z</time>
</trkpt>
<trkpt lat="35.0658186" lon="32.4682334">
<ele>21.40</ele>
<time>2015-04-26T16:40:58Z</time>
</trkpt>
<trkpt lat="35.0658591" lon="32.4683049">
<ele>21.66</ele>
<time>2015-04-26T16:40:59Z</time>
</trkpt>
<trkpt lat="35.0658878" lon="32.4683760">
<ele>21.29</ele>
<time>2015-04-26T16:41:00Z</time>
</trkpt>
<trkpt lat="35.0659238" lon="32.4684399">
<ele>21.11</ele>
<time>2015-04-26T16:41:01Z</time>
</trkpt>
<trkpt lat="35.0659533" lon="32.4684986">
<ele>21.02</ele>
<time>2015-04-26T16:41:02Z</time>
</trkpt>
<trkpt lat="35.0659876" lon="32.4685589">
<ele>20.97</ele>
<time>2015-04-26T16:41:03Z</time>
</trkpt>
<trkpt lat="35.0660283" lon="32.4686092">
<ele>20.45</ele>
<time>2015-04-26T16:41:04Z</time>
</trkpt>
<trkpt lat="35.0660614" lon="32.4686705">
<ele>20.19</ele>
<time>2015-04-26T16:41:05Z</time>
</trkpt>
<trkpt lat="35.0661015" lon="32.4687319">
<ele>20.56</ele>
<time>2015-04-26T16:41:06Z</time>
</trkpt>
<trkpt lat="35.0661406" lon="32.4687824">
<ele>20.74</ele>
<time>2015-04-26T16:41:07Z</time>
</trkpt>
<trkpt lat="35.0661728" lon="32.4688434">
<ele>20.83</ele>
<time>2015-04-26T16:41:08Z</time>
</trkpt>
<trkpt lat="35.0662030" lon="32.4688927">
<ele>20.38</ele>
<time>2015-04-26T16:41:09Z</time>
</trkpt>
<trkpt lat="35.0662366" lon="32.4689545">
<ele>20.65</ele>
<time>2015-04-26T16:41:10Z</time>
</trkpt>
<trkpt lat="35.0662770" lon="32.4690060">
<ele>20.79</ele>
<time>2015-04-26T16:41:11Z</time>
</trkpt>
<trkpt lat="35.0663096" lon="32.4690638">
<ele>20.86</ele>
<time>2015-04-26T16:41:12Z</time>
</trkpt>
<trkpt lat="35.0663442" lon="32.4691179">
<ele>20.89</ele>
<time>2015-04-26T16:41:13Z</time>
</trkpt>
<trkpt lat="35.0663739" lon="32.4691669">
<ele>20.91</ele>
<time>2015-04-26T16:41:14Z</time>
</trkpt>
<trkpt lat="35.0664116" lon="32.4692182">
<ele>20.92</ele>
<time>2015-04-26T16:41:15Z</time>
</trkpt>
<trkpt lat="35.0664498" lon="32.4692620">
<ele>21.42</ele>
<time>2015-04-26T16:41:16Z</time>
</trkpt>
<trkpt lat="35.0665005" lon="32.4693258">
<ele>21.55</ele>
<time>2015-04-26T16:41:18Z</time>
</trkpt>
<trkpt lat="35.0665376" lon="32.4693692">
<ele>21.58</ele>
<time>2015-04-26T16:41:20Z</time>
</trkpt>
<trkpt lat="35.0665785" lon="32.4694100">
<ele>21.76</ele>
<time>2015-04-26T16:41:23Z</time>
</trkpt>
<trkpt lat="35.0665571" lon="32.4694708">
<ele>21.91</ele>
<time>2015-04-26T16:41:27Z</time>
</trkpt>
<trkpt lat="35.0665024" lon="32.4694659">
<ele>20.30</ele>
<time>2015-04-26T16:41:31Z</time>
</trkpt>
<trkpt lat="35.0664701" lon="32.4694272">
<ele>19.44</ele>
<time>2015-04-26T16:51:29Z</time>
</trkpt>
<trkpt lat="35.0665134" lon="32.4694466">
<ele>18.55</ele>
<time>2015-04-26T16:53:23Z</time>
</trkpt>
<trkpt lat="35.0665508" lon="32.4694778">
<ele>19.33</ele>
<time>2015-04-26T16:53:25Z</time>
</trkpt>
<trkpt lat="35.0665856" lon="32.4695166">
<ele>19.78</ele>
<time>2015-04-26T16:53:27Z</time>
</trkpt>
<trkpt lat="35.0666245" lon="32.4695595">
<ele>18.64</ele>
<time>2015-04-26T16:53:29Z</time>
</trkpt>
<trkpt lat="35.0666588" lon="32.4696069">
<ele>18.85</ele>
<time>2015-04-26T16:53:31Z</time>
</trkpt>
<trkpt lat="35.0666917" lon="32.4696492">
<ele>17.66</ele>
<time>2015-04-26T16:53:33Z</time>
</trkpt>
<trkpt lat="35.0667331" lon="32.4696742">
<ele>17.11</ele>
<time>2015-04-26T16:53:35Z</time>
</trkpt>
<trkpt lat="35.0667844" lon="32.4696912">
<ele>17.47</ele>
<time>2015-04-26T16:53:37Z</time>
</trkpt>
<trkpt lat="35.0668378" lon="32.4697206">
<ele>17.81</ele>
<time>2015-04-26T16:53:39Z</time>
</trkpt>
<trkpt lat="35.0668939" lon="32.4697730">
<ele>17.90</ele>
<time>2015-04-26T16:53:41Z</time>
</trkpt>
<trkpt lat="35.0669541" lon="32.4698351">
<ele>18.67</ele>
<time>2015-04-26T16:53:43Z</time>
</trkpt>
<trkpt lat="35.0669885" lon="32.4698727">
<ele>18.80</ele>
<time>2015-04-26T16:53:44Z</time>
</trkpt>
<trkpt lat="35.0670472" lon="32.4699439">
<ele>18.36</ele>
<time>2015-04-26T16:53:45Z</time>
</trkpt>
<trkpt lat="35.0671061" lon="32.4700122">
<ele>18.53</ele>
<time>2015-04-26T16:53:47Z</time>
</trkpt>
<trkpt lat="35.0671434" lon="32.4700573">
<ele>18.73</ele>
<time>2015-04-26T16:53:48Z</time>
</trkpt>
<trkpt lat="35.0672072" lon="32.4701314">
<ele>19.63</ele>
<time>2015-04-26T16:53:50Z</time>
</trkpt>
<trkpt lat="35.0672494" lon="32.4701707">
<ele>19.78</ele>
<time>2015-04-26T16:53:51Z</time>
</trkpt>
<trkpt lat="35.0672856" lon="32.4702135">
<ele>19.85</ele>
<time>2015-04-26T16:53:52Z</time>
</trkpt>
<trkpt lat="35.0673167" lon="32.4702603">
<ele>19.39</ele>
<time>2015-04-26T16:53:53Z</time>
</trkpt>
<trkpt lat="35.0673615" lon="32.4703088">
<ele>19.16</ele>
<time>2015-04-26T16:53:54Z</time>
</trkpt>
<trkpt lat="35.0673933" lon="32.4703516">
<ele>19.04</ele>
<time>2015-04-26T16:53:55Z</time>
</trkpt>
<trkpt lat="35.0674354" lon="32.4704115">
<ele>18.98</ele>
<time>2015-04-26T16:53:56Z</time>
</trkpt>
<trkpt lat="35.0674712" lon="32.4704514">
<ele>18.45</ele>
<time>2015-04-26T16:53:57Z</time>
</trkpt>
<trkpt lat="35.0675057" lon="32.4705510">
<ele>17.06</ele>
<time>2015-04-26T16:53:59Z</time>
</trkpt>
<trkpt lat="35.0675459" lon="32.4706049">
<ele>15.49</ele>
<time>2015-04-26T16:54:00Z</time>
</trkpt>
<trkpt lat="35.0675849" lon="32.4706592">
<ele>15.21</ele>
<time>2015-04-26T16:54:01Z</time>
</trkpt>
<trkpt lat="35.0676190" lon="32.4707159">
<ele>15.07</ele>
<time>2015-04-26T16:54:02Z</time>
</trkpt>
<trkpt lat="35.0676593" lon="32.4707632">
<ele>14.50</ele>
<time>2015-04-26T16:54:03Z</time>
</trkpt>
<trkpt lat="35.0677105" lon="32.4707990">
<ele>13.71</ele>
<time>2015-04-26T16:54:04Z</time>
</trkpt>
<trkpt lat="35.0677540" lon="32.4708458">
<ele>12.82</ele>
<time>2015-04-26T16:54:05Z</time>
</trkpt>
<trkpt lat="35.0677960" lon="32.4708916">
<ele>12.87</ele>
<time>2015-04-26T16:54:06Z</time>
</trkpt>
<trkpt lat="35.0678410" lon="32.4709470">
<ele>13.40</ele>
<time>2015-04-26T16:54:07Z</time>
</trkpt>
<trkpt lat="35.0678693" lon="32.4709902">
<ele>13.66</ele>
<time>2015-04-26T16:54:08Z</time>
</trkpt>
<trkpt lat="35.0679404" lon="32.4710958">
<ele>13.36</ele>
<time>2015-04-26T16:54:10Z</time>
</trkpt>
<trkpt lat="35.0679811" lon="32.4711480">
<ele>13.14</ele>
<time>2015-04-26T16:54:11Z</time>
</trkpt>
<trkpt lat="35.0680184" lon="32.4712029">
<ele>13.53</ele>
<time>2015-04-26T16:54:12Z</time>
</trkpt>
<trkpt lat="35.0680601" lon="32.4712564">
<ele>14.23</ele>
<time>2015-04-26T16:54:13Z</time>
</trkpt>
<trkpt lat="35.0681044" lon="32.4713065">
<ele>14.58</ele>
<time>2015-04-26T16:54:14Z</time>
</trkpt>
<trkpt lat="35.0681595" lon="32.4713540">
<ele>14.75</ele>
<time>2015-04-26T16:54:15Z</time>
</trkpt>
<trkpt lat="35.0682029" lon="32.4714137">
<ele>14.34</ele>
<time>2015-04-26T16:54:16Z</time>
</trkpt>
<trkpt lat="35.0682462" lon="32.4714723">
<ele>14.13</ele>
<time>2015-04-26T16:54:17Z</time>
</trkpt>
<trkpt lat="35.0682903" lon="32.4715256">
<ele>13.53</ele>
<time>2015-04-26T16:54:18Z</time>
</trkpt>
<trkpt lat="35.0683348" lon="32.4715867">
<ele>13.23</ele>
<time>2015-04-26T16:54:19Z</time>
</trkpt>
<trkpt lat="35.0683860" lon="32.4716533">
<ele>13.58</ele>
<time>2015-04-26T16:54:20Z</time>
</trkpt>
<trkpt lat="35.0684289" lon="32.4717119">
<ele>14.25</ele>
<time>2015-04-26T16:54:21Z</time>
</trkpt>
<trkpt lat="35.0684726" lon="32.4717807">
<ele>14.59</ele>
<time>2015-04-26T16:54:22Z</time>
</trkpt>
<trkpt lat="35.0685206" lon="32.4718394">
<ele>14.76</ele>
<time>2015-04-26T16:54:23Z</time>
</trkpt>
<trkpt lat="35.0685644" lon="32.4719130">
<ele>14.84</ele>
<time>2015-04-26T16:54:24Z</time>
</trkpt>
<trkpt lat="35.0686070" lon="32.4719833">
<ele>15.38</ele>
<time>2015-04-26T16:54:25Z</time>
</trkpt>
<trkpt lat="35.0686557" lon="32.4720408">
<ele>16.15</ele>
<time>2015-04-26T16:54:26Z</time>
</trkpt>
<trkpt lat="35.0687006" lon="32.4721090">
<ele>16.54</ele>
<time>2015-04-26T16:54:27Z</time>
</trkpt>
<trkpt lat="35.0687487" lon="32.4721720">
<ele>16.23</ele>
<time>2015-04-26T16:54:28Z</time>
</trkpt>
<trkpt lat="35.0687925" lon="32.4722362">
<ele>16.58</ele>
<time>2015-04-26T16:54:29Z</time>
</trkpt>
<trkpt lat="35.0688358" lon="32.4723027">
<ele>17.25</ele>
<time>2015-04-26T16:54:30Z</time>
</trkpt>
<trkpt lat="35.0688758" lon="32.4723698">
<ele>17.09</ele>
<time>2015-04-26T16:54:31Z</time>
</trkpt>
<trkpt lat="35.0689250" lon="32.4724332">
<ele>16.51</ele>
<time>2015-04-26T16:54:32Z</time>
</trkpt>
<trkpt lat="35.0689725" lon="32.4724990">
<ele>16.22</ele>
<time>2015-04-26T16:54:33Z</time>
</trkpt>
<trkpt lat="35.0690234" lon="32.4725686">
<ele>16.57</ele>
<time>2015-04-26T16:54:34Z</time>
</trkpt>
<trkpt lat="35.0690665" lon="32.4726309">
<ele>17.25</ele>
<time>2015-04-26T16:54:35Z</time>
</trkpt>
<trkpt lat="35.0691142" lon="32.4726866">
<ele>17.59</ele>
<time>2015-04-26T16:54:36Z</time>
</trkpt>
<trkpt lat="35.0691614" lon="32.4727522">
<ele>17.76</ele>
<time>2015-04-26T16:54:37Z</time>
</trkpt>
<trkpt lat="35.0692076" lon="32.4728117">
<ele>17.34</ele>
<time>2015-04-26T16:54:38Z</time>
</trkpt>
<trkpt lat="35.0692578" lon="32.4728720">
<ele>17.13</ele>
<time>2015-04-26T16:54:39Z</time>
</trkpt>
<trkpt lat="35.0693112" lon="32.4729384">
<ele>17.03</ele>
<time>2015-04-26T16:54:40Z</time>
</trkpt>
<trkpt lat="35.0693629" lon="32.4729980">
<ele>16.98</ele>
<time>2015-04-26T16:54:41Z</time>
</trkpt>
<trkpt lat="35.0694150" lon="32.4730622">
<ele>16.95</ele>
<time>2015-04-26T16:54:42Z</time>
</trkpt>
<trkpt lat="35.0694546" lon="32.4731175">
<ele>17.44</ele>
<time>2015-04-26T16:54:43Z</time>
</trkpt>
<trkpt lat="35.0695013" lon="32.4731826">
<ele>17.68</ele>
<time>2015-04-26T16:54:44Z</time>
</trkpt>
<trkpt lat="35.0695526" lon="32.4732297">
<ele>17.30</ele>
<time>2015-04-26T16:54:45Z</time>
</trkpt>
<trkpt lat="35.0695945" lon="32.4732888">
<ele>17.61</ele>
<time>2015-04-26T16:54:46Z</time>
</trkpt>
<trkpt lat="35.0696507" lon="32.4733466">
<ele>17.27</ele>
<time>2015-04-26T16:54:47Z</time>
</trkpt>
<trkpt lat="35.0697048" lon="32.4734052">
<ele>17.10</ele>
<time>2015-04-26T16:54:48Z</time>
</trkpt>
<trkpt lat="35.0697537" lon="32.4734705">
<ele>17.01</ele>
<time>2015-04-26T16:54:49Z</time>
</trkpt>
<trkpt lat="35.0698019" lon="32.4735319">
<ele>17.47</ele>
<time>2015-04-26T16:54:50Z</time>
</trkpt>
<trkpt lat="35.0698484" lon="32.4735921">
<ele>17.70</ele>
<time>2015-04-26T16:54:51Z</time>
</trkpt>
<trkpt lat="35.0698895" lon="32.4736546">
<ele>17.31</ele>
<time>2015-04-26T16:54:52Z</time>
</trkpt>
<trkpt lat="35.0699343" lon="32.4737177">
<ele>16.62</ele>
<time>2015-04-26T16:54:53Z</time>
</trkpt>
<trkpt lat="35.0699774" lon="32.4737782">
<ele>15.77</ele>
<time>2015-04-26T16:54:54Z</time>
</trkpt>
<trkpt lat="35.0700214" lon="32.4738427">
<ele>15.35</ele>
<time>2015-04-26T16:54:55Z</time>
</trkpt>
<trkpt lat="35.0700742" lon="32.4739006">
<ele>15.14</ele>
<time>2015-04-26T16:54:56Z</time>
</trkpt>
<trkpt lat="35.0701220" lon="32.4739525">
<ele>15.03</ele>
<time>2015-04-26T16:54:57Z</time>
</trkpt>
<trkpt lat="35.0701600" lon="32.4740067">
<ele>14.98</ele>
<time>2015-04-26T16:54:58Z</time>
</trkpt>
<trkpt lat="35.0702071" lon="32.4740619">
<ele>15.45</ele>
<time>2015-04-26T16:54:59Z</time>
</trkpt>
<trkpt lat="35.0702478" lon="32.4741137">
<ele>15.69</ele>
<time>2015-04-26T16:55:00Z</time>
</trkpt>
<trkpt lat="35.0702915" lon="32.4741768">
<ele>15.31</ele>
<time>2015-04-26T16:55:01Z</time>
</trkpt>
<trkpt lat="35.0703382" lon="32.4742327">
<ele>15.62</ele>
<time>2015-04-26T16:55:02Z</time>
</trkpt>
<trkpt lat="35.0703896" lon="32.4742848">
<ele>15.27</ele>
<time>2015-04-26T16:55:03Z</time>
</trkpt>
<trkpt lat="35.0704415" lon="32.4743378">
<ele>15.10</ele>
<time>2015-04-26T16:55:04Z</time>
</trkpt>
<trkpt lat="35.0704888" lon="32.4743938">
<ele>15.01</ele>
<time>2015-04-26T16:55:05Z</time>
</trkpt>
<trkpt lat="35.0705363" lon="32.4744406">
<ele>15.47</ele>
<time>2015-04-26T16:55:06Z</time>
</trkpt>
<trkpt lat="35.0705804" lon="32.4744984">
<ele>16.20</ele>
<time>2015-04-26T16:55:07Z</time>
</trkpt>
<trkpt lat="35.0706337" lon="32.4745513">
<ele>16.56</ele>
<time>2015-04-26T16:55:08Z</time>
</trkpt>
<trkpt lat="35.0706788" lon="32.4746157">
<ele>17.24</ele>
<time>2015-04-26T16:55:09Z</time>
</trkpt>
<trkpt lat="35.0707332" lon="32.4746664">
<ele>17.58</ele>
<time>2015-04-26T16:55:10Z</time>
</trkpt>
<trkpt lat="35.0707856" lon="32.4747304">
<ele>18.25</ele>
<time>2015-04-26T16:55:11Z</time>
</trkpt>
<trkpt lat="35.0708374" lon="32.4747866">
<ele>18.59</ele>
<time>2015-04-26T16:55:12Z</time>
</trkpt>
<trkpt lat="35.0708908" lon="32.4748426">
<ele>18.26</ele>
<time>2015-04-26T16:55:13Z</time>
</trkpt>
<trkpt lat="35.0709521" lon="32.4749098">
<ele>17.59</ele>
<time>2015-04-26T16:55:14Z</time>
</trkpt>
<trkpt lat="35.0710054" lon="32.4749784">
<ele>17.26</ele>
<time>2015-04-26T16:55:15Z</time>
</trkpt>
<trkpt lat="35.0710519" lon="32.4750324">
<ele>17.09</ele>
<time>2015-04-26T16:55:16Z</time>
</trkpt>
<trkpt lat="35.0711052" lon="32.4750992">
<ele>17.51</ele>
<time>2015-04-26T16:55:17Z</time>
</trkpt>
<trkpt lat="35.0711585" lon="32.4751612">
<ele>18.22</ele>
<time>2015-04-26T16:55:18Z</time>
</trkpt>
<trkpt lat="35.0712062" lon="32.4752209">
<ele>18.57</ele>
<time>2015-04-26T16:55:19Z</time>
</trkpt>
<trkpt lat="35.0712578" lon="32.4752821">
<ele>18.75</ele>
<time>2015-04-26T16:55:20Z</time>
</trkpt>
<trkpt lat="35.0713040" lon="32.4753375">
<ele>18.84</ele>
<time>2015-04-26T16:55:21Z</time>
</trkpt>
<trkpt lat="35.0713543" lon="32.4753991">
<ele>18.88</ele>
<time>2015-04-26T16:55:22Z</time>
</trkpt>
<trkpt lat="35.0714005" lon="32.4754565">
<ele>18.90</ele>
<time>2015-04-26T16:55:23Z</time>
</trkpt>
<trkpt lat="35.0714493" lon="32.4755103">
<ele>18.41</ele>
<time>2015-04-26T16:55:24Z</time>
</trkpt>
<trkpt lat="35.0714951" lon="32.4755649">
<ele>18.67</ele>
<time>2015-04-26T16:55:25Z</time>
</trkpt>
<trkpt lat="35.0715347" lon="32.4756177">
<ele>18.30</ele>
<time>2015-04-26T16:55:26Z</time>
</trkpt>
<trkpt lat="35.0715753" lon="32.4756850">
<ele>18.11</ele>
<time>2015-04-26T16:55:27Z</time>
</trkpt>
<trkpt lat="35.0716221" lon="32.4757401">
<ele>18.02</ele>
<time>2015-04-26T16:55:28Z</time>
</trkpt>
<trkpt lat="35.0716638" lon="32.4757879">
<ele>18.47</ele>
<time>2015-04-26T16:55:29Z</time>
</trkpt>
<trkpt lat="35.0717108" lon="32.4758423">
<ele>19.20</ele>
<time>2015-04-26T16:55:30Z</time>
</trkpt>
<trkpt lat="35.0717594" lon="32.4758986">
<ele>19.06</ele>
<time>2015-04-26T16:55:31Z</time>
</trkpt>
<trkpt lat="35.0717968" lon="32.4759524">
<ele>18.99</ele>
<time>2015-04-26T16:55:32Z</time>
</trkpt>
<trkpt lat="35.0718392" lon="32.4760094">
<ele>18.96</ele>
<time>2015-04-26T16:55:33Z</time>
</trkpt>
<trkpt lat="35.0718840" lon="32.4760560">
<ele>18.44</ele>
<time>2015-04-26T16:55:34Z</time>
</trkpt>
<trkpt lat="35.0719312" lon="32.4761078">
<ele>18.18</ele>
<time>2015-04-26T16:55:35Z</time>
</trkpt>
<trkpt lat="35.0719733" lon="32.4761719">
<ele>18.55</ele>
<time>2015-04-26T16:55:36Z</time>
</trkpt>
<trkpt lat="35.0720271" lon="32.4762310">
<ele>18.24</ele>
<time>2015-04-26T16:55:37Z</time>
</trkpt>
<trkpt lat="35.0720631" lon="32.4762799">
<ele>17.58</ele>
<time>2015-04-26T16:55:38Z</time>
</trkpt>
<trkpt lat="35.0721059" lon="32.4763392">
<ele>17.25</ele>
<time>2015-04-26T16:55:39Z</time>
</trkpt>
<trkpt lat="35.0721603" lon="32.4763992">
<ele>17.09</ele>
<time>2015-04-26T16:55:40Z</time>
</trkpt>
<trkpt lat="35.0722138" lon="32.4764635">
<ele>17.01</ele>
<time>2015-04-26T16:55:41Z</time>
</trkpt>
<trkpt lat="35.0722645" lon="32.4765148">
<ele>16.97</ele>
<time>2015-04-26T16:55:42Z</time>
</trkpt>
<trkpt lat="35.0723075" lon="32.4765703">
<ele>16.95</ele>
<time>2015-04-26T16:55:43Z</time>
</trkpt>
<trkpt lat="35.0723544" lon="32.4766256">
<ele>16.94</ele>
<time>2015-04-26T16:55:44Z</time>
</trkpt>
<trkpt lat="35.0724006" lon="32.4766884">
<ele>16.43</ele>
<time>2015-04-26T16:55:45Z</time>
</trkpt>
<trkpt lat="35.0724554" lon="32.4767525">
<ele>16.18</ele>
<time>2015-04-26T16:55:46Z</time>
</trkpt>
<trkpt lat="35.0725052" lon="32.4768216">
<ele>16.55</ele>
<time>2015-04-26T16:55:47Z</time>
</trkpt>
<trkpt lat="35.0725521" lon="32.4768909">
<ele>16.74</ele>
<time>2015-04-26T16:55:48Z</time>
</trkpt>
<trkpt lat="35.0726063" lon="32.4769618">
<ele>17.33</ele>
<time>2015-04-26T16:55:49Z</time>
</trkpt>
<trkpt lat="35.0726588" lon="32.4770277">
<ele>17.13</ele>
<time>2015-04-26T16:55:50Z</time>
</trkpt>
<trkpt lat="35.0727112" lon="32.4770907">
<ele>17.03</ele>
<time>2015-04-26T16:55:51Z</time>
</trkpt>
<trkpt lat="35.0727627" lon="32.4771475">
<ele>17.48</ele>
<time>2015-04-26T16:55:52Z</time>
</trkpt>
<trkpt lat="35.0728131" lon="32.4772113">
<ele>17.70</ele>
<time>2015-04-26T16:55:53Z</time>
</trkpt>
<trkpt lat="35.0728621" lon="32.4772755">
<ele>18.31</ele>
<time>2015-04-26T16:55:54Z</time>
</trkpt>
<trkpt lat="35.0729123" lon="32.4773472">
<ele>18.62</ele>
<time>2015-04-26T16:55:55Z</time>
</trkpt>
<trkpt lat="35.0729694" lon="32.4773954">
<ele>19.27</ele>
<time>2015-04-26T16:55:56Z</time>
</trkpt>
<trkpt lat="35.0730246" lon="32.4774691">
<ele>19.10</ele>
<time>2015-04-26T16:55:57Z</time>
</trkpt>
<trkpt lat="35.0730763" lon="32.4775239">
<ele>19.51</ele>
<time>2015-04-26T16:55:58Z</time>
</trkpt>
<trkpt lat="35.0731216" lon="32.4775781">
<ele>19.22</ele>
<time>2015-04-26T16:55:59Z</time>
</trkpt>
<trkpt lat="35.0731721" lon="32.4776410">
<ele>19.07</ele>
<time>2015-04-26T16:56:00Z</time>
</trkpt>
<trkpt lat="35.0732228" lon="32.4777121">
<ele>19.00</ele>
<time>2015-04-26T16:56:01Z</time>
</trkpt>
<trkpt lat="35.0732665" lon="32.4777739">
<ele>18.96</ele>
<time>2015-04-26T16:56:02Z</time>
</trkpt>
<trkpt lat="35.0733140" lon="32.4778423">
<ele>18.94</ele>
<time>2015-04-26T16:56:03Z</time>
</trkpt>
<trkpt lat="35.0733695" lon="32.4779038">
<ele>18.93</ele>
<time>2015-04-26T16:56:04Z</time>
</trkpt>
<trkpt lat="35.0734171" lon="32.4779753">
<ele>18.93</ele>
<time>2015-04-26T16:56:05Z</time>
</trkpt>
<trkpt lat="35.0734720" lon="32.4780364">
<ele>18.93</ele>
<time>2015-04-26T16:56:06Z</time>
</trkpt>
<trkpt lat="35.0735236" lon="32.4780937">
<ele>18.93</ele>
<time>2015-04-26T16:56:07Z</time>
</trkpt>
<trkpt lat="35.0735782" lon="32.4781485">
<ele>19.43</ele>
<time>2015-04-26T16:56:08Z</time>
</trkpt>
<trkpt lat="35.0736286" lon="32.4782058">
<ele>19.68</ele>
<time>2015-04-26T16:56:09Z</time>
</trkpt>
<trkpt lat="35.0736815" lon="32.4782643">
<ele>21.30</ele>
<time>2015-04-26T16:56:10Z</time>
</trkpt>
<trkpt lat="35.0737310" lon="32.4783274">
<ele>21.61</ele>
<time>2015-04-26T16:56:11Z</time>
</trkpt>
<trkpt lat="35.0737842" lon="32.4783856">
<ele>22.27</ele>
<time>2015-04-26T16:56:12Z</time>
</trkpt>
<trkpt lat="35.0738385" lon="32.4784530">
<ele>22.10</ele>
<time>2015-04-26T16:56:13Z</time>
</trkpt>
<trkpt lat="35.0738970" lon="32.4785156">
<ele>22.51</ele>
<time>2015-04-26T16:56:14Z</time>
</trkpt>
<trkpt lat="35.0739537" lon="32.4785771">
<ele>22.72</ele>
<time>2015-04-26T16:56:15Z</time>
</trkpt>
<trkpt lat="35.0740125" lon="32.4786410">
<ele>22.82</ele>
<time>2015-04-26T16:56:16Z</time>
</trkpt>
<trkpt lat="35.0740686" lon="32.4787056">
<ele>23.37</ele>
<time>2015-04-26T16:56:17Z</time>
</trkpt>
<trkpt lat="35.0741236" lon="32.4787671">
<ele>23.65</ele>
<time>2015-04-26T16:56:18Z</time>
</trkpt>
<trkpt lat="35.0741748" lon="32.4788318">
<ele>23.79</ele>
<time>2015-04-26T16:56:19Z</time>
</trkpt>
<trkpt lat="35.0742302" lon="32.4788863">
<ele>23.86</ele>
<time>2015-04-26T16:56:20Z</time>
</trkpt>
<trkpt lat="35.0742897" lon="32.4789449">
<ele>23.89</ele>
<time>2015-04-26T16:56:21Z</time>
</trkpt>
<trkpt lat="35.0743438" lon="32.4789979">
<ele>23.91</ele>
<time>2015-04-26T16:56:22Z</time>
</trkpt>
<trkpt lat="35.0744026" lon="32.4790515">
<ele>23.42</ele>
<time>2015-04-26T16:56:23Z</time>
</trkpt>
<trkpt lat="35.0744545" lon="32.4791193">
<ele>23.17</ele>
<time>2015-04-26T16:56:24Z</time>
</trkpt>
<trkpt lat="35.0745152" lon="32.4791796">
<ele>23.05</ele>
<time>2015-04-26T16:56:25Z</time>
</trkpt>
<trkpt lat="35.0745749" lon="32.4792333">
<ele>22.99</ele>
<time>2015-04-26T16:56:26Z</time>
</trkpt>
<trkpt lat="35.0746320" lon="32.4792915">
<ele>22.46</ele>
<time>2015-04-26T16:56:27Z</time>
</trkpt>
<trkpt lat="35.0746863" lon="32.4793563">
<ele>22.19</ele>
<time>2015-04-26T16:56:28Z</time>
</trkpt>
<trkpt lat="35.0747410" lon="32.4794066">
<ele>22.06</ele>
<time>2015-04-26T16:56:29Z</time>
</trkpt>
<trkpt lat="35.0747967" lon="32.4794624">
<ele>21.49</ele>
<time>2015-04-26T16:56:30Z</time>
</trkpt>
<trkpt lat="35.0748436" lon="32.4795223">
<ele>21.21</ele>
<time>2015-04-26T16:56:31Z</time>
</trkpt>
<trkpt lat="35.0748948" lon="32.4795732">
<ele>20.57</ele>
<time>2015-04-26T16:56:32Z</time>
</trkpt>
<trkpt lat="35.0749459" lon="32.4796325">
<ele>20.25</ele>
<time>2015-04-26T16:56:33Z</time>
</trkpt>
<trkpt lat="35.0749961" lon="32.4797037">
<ele>20.59</ele>
<time>2015-04-26T16:56:34Z</time>
</trkpt>
<trkpt lat="35.0750507" lon="32.4797731">
<ele>20.26</ele>
<time>2015-04-26T16:56:35Z</time>
</trkpt>
<trkpt lat="35.0751076" lon="32.4798363">
<ele>20.59</ele>
<time>2015-04-26T16:56:36Z</time>
</trkpt>
<trkpt lat="35.0751620" lon="32.4798949">
<ele>20.76</ele>
<time>2015-04-26T16:56:37Z</time>
</trkpt>
<trkpt lat="35.0752203" lon="32.4799508">
<ele>21.34</ele>
<time>2015-04-26T16:56:38Z</time>
</trkpt>
<trkpt lat="35.0752722" lon="32.4800001">
<ele>21.63</ele>
<time>2015-04-26T16:56:39Z</time>
</trkpt>
<trkpt lat="35.0753338" lon="32.4800519">
<ele>21.28</ele>
<time>2015-04-26T16:56:40Z</time>
</trkpt>
<trkpt lat="35.0753799" lon="32.4801111">
<ele>20.60</ele>
<time>2015-04-26T16:56:41Z</time>
</trkpt>
<trkpt lat="35.0754261" lon="32.4801732">
<ele>20.76</ele>
<time>2015-04-26T16:56:42Z</time>
</trkpt>
<trkpt lat="35.0754812" lon="32.4802326">
<ele>20.84</ele>
<time>2015-04-26T16:56:43Z</time>
</trkpt>
<trkpt lat="35.0755336" lon="32.4803016">
<ele>20.88</ele>
<time>2015-04-26T16:56:44Z</time>
</trkpt>
<trkpt lat="35.0755867" lon="32.4803601">
<ele>20.90</ele>
<time>2015-04-26T16:56:45Z</time>
</trkpt>
<trkpt lat="35.0756498" lon="32.4804139">
<ele>20.91</ele>
<time>2015-04-26T16:56:46Z</time>
</trkpt>
<trkpt lat="35.0757080" lon="32.4804820">
<ele>20.92</ele>
<time>2015-04-26T16:56:47Z</time>
</trkpt>
<trkpt lat="35.0757597" lon="32.4805312">
<ele>20.92</ele>
<time>2015-04-26T16:56:48Z</time>
</trkpt>
<trkpt lat="35.0758078" lon="32.4805964">
<ele>20.92</ele>
<time>2015-04-26T16:56:49Z</time>
</trkpt>
<trkpt lat="35.0758588" lon="32.4806603">
<ele>20.92</ele>
<time>2015-04-26T16:56:50Z</time>
</trkpt>
<trkpt lat="35.0759018" lon="32.4807035">
<ele>20.92</ele>
<time>2015-04-26T16:56:51Z</time>
</trkpt>
<trkpt lat="35.0759485" lon="32.4807639">
<ele>20.92</ele>
<time>2015-04-26T16:56:52Z</time>
</trkpt>
<trkpt lat="35.0760046" lon="32.4808263">
<ele>20.92</ele>
<time>2015-04-26T16:56:53Z</time>
</trkpt>
<trkpt lat="35.0760516" lon="32.4808830">
<ele>20.92</ele>
<time>2015-04-26T16:56:54Z</time>
</trkpt>
<trkpt lat="35.0761082" lon="32.4809419">
<ele>20.42</ele>
<time>2015-04-26T16:56:55Z</time>
</trkpt>
<trkpt lat="35.0761485" lon="32.4810010">
<ele>20.67</ele>
<time>2015-04-26T16:56:56Z</time>
</trkpt>
<trkpt lat="35.0761995" lon="32.4810596">
<ele>20.30</ele>
<time>2015-04-26T16:56:57Z</time>
</trkpt>
<trkpt lat="35.0762457" lon="32.4811210">
<ele>20.11</ele>
<time>2015-04-26T16:56:58Z</time>
</trkpt>
<trkpt lat="35.0762961" lon="32.4811790">
<ele>20.02</ele>
<time>2015-04-26T16:56:59Z</time>
</trkpt>
<trkpt lat="35.0763368" lon="32.4812567">
<ele>19.47</ele>
<time>2015-04-26T16:57:00Z</time>
</trkpt>
<trkpt lat="35.0763860" lon="32.4813231">
<ele>19.20</ele>
<time>2015-04-26T16:57:01Z</time>
</trkpt>
<trkpt lat="35.0764336" lon="32.4813937">
<ele>19.06</ele>
<time>2015-04-26T16:57:02Z</time>
</trkpt>
<trkpt lat="35.0764853" lon="32.4814608">
<ele>18.49</ele>
<time>2015-04-26T16:57:03Z</time>
</trkpt>
<trkpt lat="35.0765405" lon="32.4815304">
<ele>18.71</ele>
<time>2015-04-26T16:57:04Z</time>
</trkpt>
<trkpt lat="35.0766054" lon="32.4815975">
<ele>19.32</ele>
<time>2015-04-26T16:57:05Z</time>
</trkpt>
<trkpt lat="35.0766669" lon="32.4816644">
<ele>19.62</ele>
<time>2015-04-26T16:57:06Z</time>
</trkpt>
<trkpt lat="35.0767210" lon="32.4817091">
<ele>19.77</ele>
<time>2015-04-26T16:57:07Z</time>
</trkpt>
<trkpt lat="35.0767892" lon="32.4817682">
<ele>18.85</ele>
<time>2015-04-26T16:57:08Z</time>
</trkpt>
<trkpt lat="35.0768520" lon="32.4818153">
<ele>18.89</ele>
<time>2015-04-26T16:57:09Z</time>
</trkpt>
<trkpt lat="35.0769195" lon="32.4818566">
<ele>19.41</ele>
<time>2015-04-26T16:57:10Z</time>
</trkpt>
<trkpt lat="35.0769830" lon="32.4818904">
<ele>19.17</ele>
<time>2015-04-26T16:57:11Z</time>
</trkpt>
<trkpt lat="35.0770553" lon="32.4819254">
<ele>18.55</ele>
<time>2015-04-26T16:57:12Z</time>
</trkpt>
<trkpt lat="35.0771340" lon="32.4819610">
<ele>18.24</ele>
<time>2015-04-26T16:57:13Z</time>
</trkpt>
<trkpt lat="35.0772106" lon="32.4820018">
<ele>18.08</ele>
<time>2015-04-26T16:57:14Z</time>
</trkpt>
<trkpt lat="35.0772894" lon="32.4820454">
<ele>17.50</ele>
<time>2015-04-26T16:57:15Z</time>
</trkpt>
<trkpt lat="35.0773664" lon="32.4820922">
<ele>17.21</ele>
<time>2015-04-26T16:57:16Z</time>
</trkpt>
<trkpt lat="35.0774300" lon="32.4821393">
<ele>16.57</ele>
<time>2015-04-26T16:57:17Z</time>
</trkpt>
<trkpt lat="35.0774904" lon="32.4821896">
<ele>16.75</ele>
<time>2015-04-26T16:57:18Z</time>
</trkpt>
<trkpt lat="35.0775489" lon="32.4822474">
<ele>16.84</ele>
<time>2015-04-26T16:57:19Z</time>
</trkpt>
<trkpt lat="35.0776048" lon="32.4823062">
<ele>17.38</ele>
<time>2015-04-26T16:57:20Z</time>
</trkpt>
<trkpt lat="35.0776698" lon="32.4823659">
<ele>17.65</ele>
<time>2015-04-26T16:57:21Z</time>
</trkpt>
<trkpt lat="35.0777287" lon="32.4824333">
<ele>17.79</ele>
<time>2015-04-26T16:57:22Z</time>
</trkpt>
<trkpt lat="35.0777830" lon="32.4825070">
<ele>17.86</ele>
<time>2015-04-26T16:57:23Z</time>
</trkpt>
<trkpt lat="35.0778385" lon="32.4825725">
<ele>17.89</ele>
<time>2015-04-26T16:57:24Z</time>
</trkpt>
<trkpt lat="35.0778996" lon="32.4826349">
<ele>18.41</ele>
<time>2015-04-26T16:57:25Z</time>
</trkpt>
<trkpt lat="35.0779605" lon="32.4826925">
<ele>18.67</ele>
<time>2015-04-26T16:57:26Z</time>
</trkpt>
<trkpt lat="35.0780161" lon="32.4827497">
<ele>19.30</ele>
<time>2015-04-26T16:57:27Z</time>
</trkpt>
<trkpt lat="35.0780760" lon="32.4828127">
<ele>19.11</ele>
<time>2015-04-26T16:57:28Z</time>
</trkpt>
<trkpt lat="35.0781342" lon="32.4828861">
<ele>19.02</ele>
<time>2015-04-26T16:57:29Z</time>
</trkpt>
<trkpt lat="35.0781845" lon="32.4829456">
<ele>18.97</ele>
<time>2015-04-26T16:57:30Z</time>
</trkpt>
<trkpt lat="35.0782404" lon="32.4829926">
<ele>18.95</ele>
<time>2015-04-26T16:57:31Z</time>
</trkpt>
<trkpt lat="35.0782891" lon="32.4830516">
<ele>18.94</ele>
<time>2015-04-26T16:57:32Z</time>
</trkpt>
<trkpt lat="35.0783388" lon="32.4831199">
<ele>18.93</ele>
<time>2015-04-26T16:57:33Z</time>
</trkpt>
<trkpt lat="35.0783891" lon="32.4831803">
<ele>18.93</ele>
<time>2015-04-26T16:57:34Z</time>
</trkpt>
<trkpt lat="35.0784443" lon="32.4832438">
<ele>18.93</ele>
<time>2015-04-26T16:57:35Z</time>
</trkpt>
<trkpt lat="35.0784993" lon="32.4833029">
<ele>18.93</ele>
<time>2015-04-26T16:57:36Z</time>
</trkpt>
<trkpt lat="35.0785504" lon="32.4833550">
<ele>19.43</ele>
<time>2015-04-26T16:57:37Z</time>
</trkpt>
<trkpt lat="35.0786043" lon="32.4834107">
<ele>19.68</ele>
<time>2015-04-26T16:57:38Z</time>
</trkpt>
<trkpt lat="35.0786548" lon="32.4834671">
<ele>20.30</ele>
<time>2015-04-26T16:57:39Z</time>
</trkpt>
<trkpt lat="35.0786987" lon="32.4835332">
<ele>20.11</ele>
<time>2015-04-26T16:57:40Z</time>
</trkpt>
<trkpt lat="35.0787447" lon="32.4835930">
<ele>20.02</ele>
<time>2015-04-26T16:57:41Z</time>
</trkpt>
<trkpt lat="35.0787874" lon="32.4836604">
<ele>19.97</ele>
<time>2015-04-26T16:57:42Z</time>
</trkpt>
<trkpt lat="35.0788372" lon="32.4837236">
<ele>20.45</ele>
<time>2015-04-26T16:57:43Z</time>
</trkpt>
<trkpt lat="35.0788826" lon="32.4837812">
<ele>20.69</ele>
<time>2015-04-26T16:57:44Z</time>
</trkpt>
<trkpt lat="35.0789312" lon="32.4838411">
<ele>21.31</ele>
<time>2015-04-26T16:57:45Z</time>
</trkpt>
<trkpt lat="35.0789861" lon="32.4839056">
<ele>21.62</ele>
<time>2015-04-26T16:57:46Z</time>
</trkpt>
<trkpt lat="35.0790411" lon="32.4839633">
<ele>21.77</ele>
<time>2015-04-26T16:57:47Z</time>
</trkpt>
<trkpt lat="35.0790910" lon="32.4840136">
<ele>21.85</ele>
<time>2015-04-26T16:57:48Z</time>
</trkpt>
<trkpt lat="35.0791473" lon="32.4840777">
<ele>21.89</ele>
<time>2015-04-26T16:57:49Z</time>
</trkpt>
<trkpt lat="35.0792020" lon="32.4841341">
<ele>21.41</ele>
<time>2015-04-26T16:57:50Z</time>
</trkpt>
<trkpt lat="35.0792529" lon="32.4841887">
<ele>21.67</ele>
<time>2015-04-26T16:57:51Z</time>
</trkpt>
<trkpt lat="35.0793035" lon="32.4842511">
<ele>21.80</ele>
<time>2015-04-26T16:57:52Z</time>
</trkpt>
<trkpt lat="35.0793620" lon="32.4843140">
<ele>21.36</ele>
<time>2015-04-26T16:57:53Z</time>
</trkpt>
<trkpt lat="35.0794184" lon="32.4843662">
<ele>21.64</ele>
<time>2015-04-26T16:57:54Z</time>
</trkpt>
<trkpt lat="35.0794659" lon="32.4844324">
<ele>21.78</ele>
<time>2015-04-26T16:57:55Z</time>
</trkpt>
<trkpt lat="35.0795188" lon="32.4844768">
<ele>22.35</ele>
<time>2015-04-26T16:57:56Z</time>
</trkpt>
<trkpt lat="35.0795657" lon="32.4845262">
<ele>22.64</ele>
<time>2015-04-26T16:57:57Z</time>
</trkpt>
<trkpt lat="35.0796110" lon="32.4845807">
<ele>21.78</ele>
<time>2015-04-26T16:57:58Z</time>
</trkpt>
<trkpt lat="35.0796694" lon="32.4846373">
<ele>21.85</ele>
<time>2015-04-26T16:57:59Z</time>
</trkpt>
<trkpt lat="35.0797255" lon="32.4846811">
<ele>21.39</ele>
<time>2015-04-26T16:58:00Z</time>
</trkpt>
<trkpt lat="35.0797811" lon="32.4847368">
<ele>21.66</ele>
<time>2015-04-26T16:58:01Z</time>
</trkpt>
<trkpt lat="35.0798434" lon="32.4847798">
<ele>21.29</ele>
<time>2015-04-26T16:58:02Z</time>
</trkpt>
<trkpt lat="35.0798987" lon="32.4848426">
<ele>21.11</ele>
<time>2015-04-26T16:58:03Z</time>
</trkpt>
<trkpt lat="35.0799543" lon="32.4849047">
<ele>21.02</ele>
<time>2015-04-26T16:58:04Z</time>
</trkpt>
<trkpt lat="35.0800218" lon="32.4849625">
<ele>20.97</ele>
<time>2015-04-26T16:58:05Z</time>
</trkpt>
<trkpt lat="35.0800923" lon="32.4850248">
<ele>21.45</ele>
<time>2015-04-26T16:58:06Z</time>
</trkpt>
<trkpt lat="35.0801604" lon="32.4850884">
<ele>21.69</ele>
<time>2015-04-26T16:58:07Z</time>
</trkpt>
<trkpt lat="35.0802146" lon="32.4851504">
<ele>21.81</ele>
<time>2015-04-26T16:58:08Z</time>
</trkpt>
<trkpt lat="35.0802853" lon="32.4852071">
<ele>21.87</ele>
<time>2015-04-26T16:58:09Z</time>
</trkpt>
<trkpt lat="35.0803445" lon="32.4852653">
<ele>21.40</ele>
<time>2015-04-26T16:58:10Z</time>
</trkpt>
<trkpt lat="35.0804088" lon="32.4853234">
<ele>21.16</ele>
<time>2015-04-26T16:58:11Z</time>
</trkpt>
<trkpt lat="35.0804767" lon="32.4853800">
<ele>21.04</ele>
<time>2015-04-26T16:58:12Z</time>
</trkpt>
<trkpt lat="35.0805439" lon="32.4854408">
<ele>20.98</ele>
<time>2015-04-26T16:58:13Z</time>
</trkpt>
<trkpt lat="35.0806064" lon="32.4855004">
<ele>21.45</ele>
<time>2015-04-26T16:58:14Z</time>
</trkpt>
<trkpt lat="35.0806715" lon="32.4855654">
<ele>21.69</ele>
<time>2015-04-26T16:58:15Z</time>
</trkpt>
<trkpt lat="35.0807392" lon="32.4856256">
<ele>21.31</ele>
<time>2015-04-26T16:58:16Z</time>
</trkpt>
<trkpt lat="35.0808085" lon="32.4856846">
<ele>21.62</ele>
<time>2015-04-26T16:58:17Z</time>
</trkpt>
<trkpt lat="35.0808718" lon="32.4857541">
<ele>22.27</ele>
<time>2015-04-26T16:58:18Z</time>
</trkpt>
<trkpt lat="35.0809312" lon="32.4858175">
<ele>22.10</ele>
<time>2015-04-26T16:58:19Z</time>
</trkpt>
<trkpt lat="35.0810022" lon="32.4858689">
<ele>22.01</ele>
<time>2015-04-26T16:58:20Z</time>
</trkpt>
<trkpt lat="35.0810610" lon="32.4859268">
<ele>21.97</ele>
<time>2015-04-26T16:58:21Z</time>
</trkpt>
<trkpt lat="35.0811222" lon="32.4859879">
<ele>21.95</ele>
<time>2015-04-26T16:58:22Z</time>
</trkpt>
<trkpt lat="35.0811892" lon="32.4860496">
<ele>22.44</ele>
<time>2015-04-26T16:58:23Z</time>
</trkpt>
<trkpt lat="35.0812513" lon="32.4861080">
<ele>22.68</ele>
<time>2015-04-26T16:58:24Z</time>
</trkpt>
<trkpt lat="35.0813141" lon="32.4861670">
<ele>22.30</ele>
<time>2015-04-26T16:58:25Z</time>
</trkpt>
<trkpt lat="35.0813769" lon="32.4862265">
<ele>22.11</ele>
<time>2015-04-26T16:58:26Z</time>
</trkpt>
<trkpt lat="35.0814405" lon="32.4862903">
<ele>22.02</ele>
<time>2015-04-26T16:58:27Z</time>
</trkpt>
<trkpt lat="35.0815019" lon="32.4863403">
<ele>21.47</ele>
<time>2015-04-26T16:58:28Z</time>
</trkpt>
<trkpt lat="35.0815630" lon="32.4863966">
<ele>21.70</ele>
<time>2015-04-26T16:58:29Z</time>
</trkpt>
<trkpt lat="35.0816230" lon="32.4864514">
<ele>21.81</ele>
<time>2015-04-26T16:58:30Z</time>
</trkpt>
<trkpt lat="35.0816804" lon="32.4865014">
<ele>21.87</ele>
<time>2015-04-26T16:58:31Z</time>
</trkpt>
<trkpt lat="35.0817320" lon="32.4865488">
<ele>21.90</ele>
<time>2015-04-26T16:58:32Z</time>
</trkpt>
<trkpt lat="35.0817770" lon="32.4865933">
<ele>21.41</ele>
<time>2015-04-26T16:58:33Z</time>
</trkpt>
<trkpt lat="35.0818225" lon="32.4866285">
<ele>20.67</ele>
<time>2015-04-26T16:58:34Z</time>
</trkpt>
<trkpt lat="35.0818660" lon="32.4866605">
<ele>20.30</ele>
<time>2015-04-26T16:58:35Z</time>
</trkpt>
<trkpt lat="35.0819106" lon="32.4867074">
<ele>20.11</ele>
<time>2015-04-26T16:58:36Z</time>
</trkpt>
<trkpt lat="35.0819595" lon="32.4867574">
<ele>20.02</ele>
<time>2015-04-26T16:58:37Z</time>
</trkpt>
<trkpt lat="35.0820094" lon="32.4868050">
<ele>19.97</ele>
<time>2015-04-26T16:58:38Z</time>
</trkpt>
<trkpt lat="35.0820546" lon="32.4868521">
<ele>20.95</ele>
<time>2015-04-26T16:58:39Z</time>
</trkpt>
<trkpt lat="35.0821041" lon="32.4869002">
<ele>21.44</ele>
<time>2015-04-26T16:58:40Z</time>
</trkpt>
<trkpt lat="35.0821515" lon="32.4869450">
<ele>21.68</ele>
<time>2015-04-26T16:58:41Z</time>
</trkpt>
<trkpt lat="35.0822103" lon="32.4869794">
<ele>21.30</ele>
<time>2015-04-26T16:58:42Z</time>
</trkpt>
<trkpt lat="35.0822571" lon="32.4870288">
<ele>21.11</ele>
<time>2015-04-26T16:58:43Z</time>
</trkpt>
<trkpt lat="35.0823146" lon="32.4870655">
<ele>20.52</ele>
<time>2015-04-26T16:58:44Z</time>
</trkpt>
<trkpt lat="35.0823622" lon="32.4871272">
<ele>20.72</ele>
<time>2015-04-26T16:58:45Z</time>
</trkpt>
<trkpt lat="35.0824193" lon="32.4871728">
<ele>20.82</ele>
<time>2015-04-26T16:58:46Z</time>
</trkpt>
<trkpt lat="35.0824734" lon="32.4872102">
<ele>19.87</ele>
<time>2015-04-26T16:58:47Z</time>
</trkpt>
<trkpt lat="35.0825350" lon="32.4872608">
<ele>19.90</ele>
<time>2015-04-26T16:58:48Z</time>
</trkpt>
<trkpt lat="35.0825868" lon="32.4873131">
<ele>19.91</ele>
<time>2015-04-26T16:58:49Z</time>
</trkpt>
<trkpt lat="35.0826380" lon="32.4873637">
<ele>19.42</ele>
<time>2015-04-26T16:58:50Z</time>
</trkpt>
<trkpt lat="35.0826938" lon="32.4874094">
<ele>19.67</ele>
<time>2015-04-26T16:58:51Z</time>
</trkpt>
<trkpt lat="35.0827485" lon="32.4874609">
<ele>19.80</ele>
<time>2015-04-26T16:58:52Z</time>
</trkpt>
<trkpt lat="35.0828017" lon="32.4875019">
<ele>19.86</ele>
<time>2015-04-26T16:58:53Z</time>
</trkpt>
<trkpt lat="35.0828511" lon="32.4875505">
<ele>20.39</ele>
<time>2015-04-26T16:58:54Z</time>
</trkpt>
<trkpt lat="35.0829009" lon="32.4875972">
<ele>20.16</ele>
<time>2015-04-26T16:58:55Z</time>
</trkpt>
<trkpt lat="35.0829547" lon="32.4876404">
<ele>20.54</ele>
<time>2015-04-26T16:58:56Z</time>
</trkpt>
<trkpt lat="35.0830097" lon="32.4876866">
<ele>20.73</ele>
<time>2015-04-26T16:58:57Z</time>
</trkpt>
<trkpt lat="35.0830621" lon="32.4877356">
<ele>20.83</ele>
<time>2015-04-26T16:58:58Z</time>
</trkpt>
<trkpt lat="35.0831136" lon="32.4877850">
<ele>20.88</ele>
<time>2015-04-26T16:58:59Z</time>
</trkpt>
<trkpt lat="35.0831776" lon="32.4878276">
<ele>20.90</ele>
<time>2015-04-26T16:59:00Z</time>
</trkpt>
<trkpt lat="35.0832432" lon="32.4878664">
<ele>20.91</ele>
<time>2015-04-26T16:59:01Z</time>
</trkpt>
<trkpt lat="35.0832952" lon="32.4879120">
<ele>21.42</ele>
<time>2015-04-26T16:59:02Z</time>
</trkpt>
<trkpt lat="35.0833570" lon="32.4879595">
<ele>21.17</ele>
<time>2015-04-26T16:59:03Z</time>
</trkpt>
<trkpt lat="35.0834210" lon="32.4880014">
<ele>21.55</ele>
<time>2015-04-26T16:59:04Z</time>
</trkpt>
<trkpt lat="35.0834807" lon="32.4880550">
<ele>21.74</ele>
<time>2015-04-26T16:59:05Z</time>
</trkpt>
<trkpt lat="35.0835362" lon="32.4881092">
<ele>21.33</ele>
<time>2015-04-26T16:59:06Z</time>
</trkpt>
<trkpt lat="35.0835886" lon="32.4881533">
<ele>20.63</ele>
<time>2015-04-26T16:59:07Z</time>
</trkpt>
<trkpt lat="35.0836493" lon="32.4882001">
<ele>20.28</ele>
<time>2015-04-26T16:59:08Z</time>
</trkpt>
<trkpt lat="35.0837106" lon="32.4882439">
<ele>20.10</ele>
<time>2015-04-26T16:59:09Z</time>
</trkpt>
<trkpt lat="35.0837630" lon="32.4882946">
<ele>20.01</ele>
<time>2015-04-26T16:59:10Z</time>
</trkpt>
<trkpt lat="35.0838189" lon="32.4883415">
<ele>19.97</ele>
<time>2015-04-26T16:59:11Z</time>
</trkpt>
<trkpt lat="35.0838774" lon="32.4883862">
<ele>20.45</ele>
<time>2015-04-26T16:59:12Z</time>
</trkpt>
<trkpt lat="35.0839372" lon="32.4884228">
<ele>20.69</ele>
<time>2015-04-26T16:59:13Z</time>
</trkpt>
<trkpt lat="35.0839926" lon="32.4884665">
<ele>20.81</ele>
<time>2015-04-26T16:59:14Z</time>
</trkpt>
<trkpt lat="35.0840506" lon="32.4885163">
<ele>21.37</ele>
<time>2015-04-26T16:59:15Z</time>
</trkpt>
<trkpt lat="35.0840944" lon="32.4885725">
<ele>21.65</ele>
<time>2015-04-26T16:59:16Z</time>
</trkpt>
<trkpt lat="35.0841595" lon="32.4886258">
<ele>21.29</ele>
<time>2015-04-26T16:59:17Z</time>
</trkpt>
<trkpt lat="35.0842236" lon="32.4886825">
<ele>21.11</ele>
<time>2015-04-26T16:59:18Z</time>
</trkpt>
<trkpt lat="35.0842856" lon="32.4887300">
<ele>21.02</ele>
<time>2015-04-26T16:59:19Z</time>
</trkpt>
<trkpt lat="35.0843486" lon="32.4887691">
<ele>20.97</ele>
<time>2015-04-26T16:59:20Z</time>
</trkpt>
<trkpt lat="35.0844090" lon="32.4888186">
<ele>20.45</ele>
<time>2015-04-26T16:59:21Z</time>
</trkpt>
<trkpt lat="35.0844644" lon="32.4888690">
<ele>20.69</ele>
<time>2015-04-26T16:59:22Z</time>
</trkpt>
<trkpt lat="35.0845242" lon="32.4889207">
<ele>20.31</ele>
<time>2015-04-26T16:59:23Z</time>
</trkpt>
<trkpt lat="35.0845793" lon="32.4889653">
<ele>20.62</ele>
<time>2015-04-26T16:59:24Z</time>
</trkpt>
<trkpt lat="35.0846310" lon="32.4890061">
<ele>20.77</ele>
<time>2015-04-26T16:59:25Z</time>
</trkpt>
<trkpt lat="35.0846812" lon="32.4890559">
<ele>20.85</ele>
<time>2015-04-26T16:59:26Z</time>
</trkpt>
<trkpt lat="35.0847312" lon="32.4890871">
<ele>20.89</ele>
<time>2015-04-26T16:59:27Z</time>
</trkpt>
<trkpt lat="35.0847937" lon="32.4891345">
<ele>20.91</ele>
<time>2015-04-26T16:59:28Z</time>
</trkpt>
<trkpt lat="35.0848499" lon="32.4891963">
<ele>20.92</ele>
<time>2015-04-26T16:59:29Z</time>
</trkpt>
<trkpt lat="35.0849074" lon="32.4892498">
<ele>20.42</ele>
<time>2015-04-26T16:59:30Z</time>
</trkpt>
<trkpt lat="35.0849635" lon="32.4893001">
<ele>20.17</ele>
<time>2015-04-26T16:59:31Z</time>
</trkpt>
<trkpt lat="35.0850189" lon="32.4893463">
<ele>20.05</ele>
<time>2015-04-26T16:59:32Z</time>
</trkpt>
<trkpt lat="35.0850773" lon="32.4894023">
<ele>19.99</ele>
<time>2015-04-26T16:59:33Z</time>
</trkpt>
<trkpt lat="35.0851346" lon="32.4894497">
<ele>19.96</ele>
<time>2015-04-26T16:59:34Z</time>
</trkpt>
<trkpt lat="35.0851870" lon="32.4894928">
<ele>19.94</ele>
<time>2015-04-26T16:59:35Z</time>
</trkpt>
<trkpt lat="35.0852423" lon="32.4895454">
<ele>19.93</ele>
<time>2015-04-26T16:59:36Z</time>
</trkpt>
<trkpt lat="35.0852898" lon="32.4895856">
<ele>19.93</ele>
<time>2015-04-26T16:59:37Z</time>
</trkpt>
<trkpt lat="35.0853429" lon="32.4896461">
<ele>19.93</ele>
<time>2015-04-26T16:59:38Z</time>
</trkpt>
<trkpt lat="35.0853987" lon="32.4897056">
<ele>19.93</ele>
<time>2015-04-26T16:59:39Z</time>
</trkpt>
<trkpt lat="35.0854560" lon="32.4897616">
<ele>19.93</ele>
<time>2015-04-26T16:59:40Z</time>
</trkpt>
<trkpt lat="35.0855127" lon="32.4898086">
<ele>19.43</ele>
<time>2015-04-26T16:59:41Z</time>
</trkpt>
<trkpt lat="35.0855722" lon="32.4898623">
<ele>19.18</ele>
<time>2015-04-26T16:59:42Z</time>
</trkpt>
<trkpt lat="35.0856272" lon="32.4899088">
<ele>19.05</ele>
<time>2015-04-26T16:59:43Z</time>
</trkpt>
<trkpt lat="35.0856772" lon="32.4899625">
<ele>18.99</ele>
<time>2015-04-26T16:59:44Z</time>
</trkpt>
<trkpt lat="35.0857277" lon="32.4900209">
<ele>18.96</ele>
<time>2015-04-26T16:59:45Z</time>
</trkpt>
<trkpt lat="35.0857759" lon="32.4900726">
<ele>18.94</ele>
<time>2015-04-26T16:59:46Z</time>
</trkpt>
<trkpt lat="35.0858296" lon="32.4901182">
<ele>18.43</ele>
<time>2015-04-26T16:59:47Z</time>
</trkpt>
<trkpt lat="35.0858819" lon="32.4901680">
<ele>18.18</ele>
<time>2015-04-26T16:59:48Z</time>
</trkpt>
<trkpt lat="35.0859407" lon="32.4902238">
<ele>18.05</ele>
<time>2015-04-26T16:59:49Z</time>
</trkpt>
<trkpt lat="35.0860020" lon="32.4902547">
<ele>17.99</ele>
<time>2015-04-26T16:59:50Z</time>
</trkpt>
<trkpt lat="35.0860606" lon="32.4903132">
<ele>17.96</ele>
<time>2015-04-26T16:59:51Z</time>
</trkpt>
<trkpt lat="35.0861146" lon="32.4903624">
<ele>17.94</ele>
<time>2015-04-26T16:59:52Z</time>
</trkpt>
<trkpt lat="35.0861778" lon="32.4904119">
<ele>17.93</ele>
<time>2015-04-26T16:59:53Z</time>
</trkpt>
<trkpt lat="35.0862336" lon="32.4904588">
<ele>18.43</ele>
<time>2015-04-26T16:59:54Z</time>
</trkpt>
<trkpt lat="35.0862845" lon="32.4904983">
<ele>18.18</ele>
<time>2015-04-26T16:59:55Z</time>
</trkpt>
<trkpt lat="35.0863326" lon="32.4905460">
<ele>18.05</ele>
<time>2015-04-26T16:59:56Z</time>
</trkpt>
<trkpt lat="35.0863852" lon="32.4905926">
<ele>17.99</ele>
<time>2015-04-26T16:59:57Z</time>
</trkpt>
<trkpt lat="35.0864347" lon="32.4906332">
<ele>17.96</ele>
<time>2015-04-26T16:59:58Z</time>
</trkpt>
<trkpt lat="35.0864864" lon="32.4906734">
<ele>17.94</ele>
<time>2015-04-26T16:59:59Z</time>
</trkpt>
<trkpt lat="35.0865330" lon="32.4907114">
<ele>17.43</ele>
<time>2015-04-26T17:00:00Z</time>
</trkpt>
<trkpt lat="35.0865829" lon="32.4907524">
<ele>17.18</ele>
<time>2015-04-26T17:00:01Z</time>
</trkpt>
<trkpt lat="35.0866335" lon="32.4907943">
<ele>17.55</ele>
<time>2015-04-26T17:00:02Z</time>
</trkpt>
<trkpt lat="35.0866895" lon="32.4908355">
<ele>17.24</ele>
<time>2015-04-26T17:00:03Z</time>
</trkpt>
<trkpt lat="35.0867555" lon="32.4908788">
<ele>17.58</ele>
<time>2015-04-26T17:00:04Z</time>
</trkpt>
<trkpt lat="35.0868138" lon="32.4909177">
<ele>18.75</ele>
<time>2015-04-26T17:00:05Z</time>
</trkpt>
<trkpt lat="35.0868666" lon="32.4909638">
<ele>19.34</ele>
<time>2015-04-26T17:00:06Z</time>
</trkpt>
<trkpt lat="35.0869175" lon="32.4910107">
<ele>19.63</ele>
<time>2015-04-26T17:00:07Z</time>
</trkpt>
<trkpt lat="35.0869634" lon="32.4910517">
<ele>20.28</ele>
<time>2015-04-26T17:00:08Z</time>
</trkpt>
<trkpt lat="35.0870204" lon="32.4910830">
<ele>20.10</ele>
<time>2015-04-26T17:00:09Z</time>
</trkpt>
<trkpt lat="35.0870790" lon="32.4911317">
<ele>20.51</ele>
<time>2015-04-26T17:00:10Z</time>
</trkpt>
<trkpt lat="35.0871434" lon="32.4911778">
<ele>20.72</ele>
<time>2015-04-26T17:00:11Z</time>
</trkpt>
<trkpt lat="35.0871971" lon="32.4912233">
<ele>21.32</ele>
<time>2015-04-26T17:00:12Z</time>
</trkpt>
<trkpt lat="35.0872762" lon="32.4912552">
<ele>21.12</ele>
<time>2015-04-26T17:00:13Z</time>
</trkpt>
<trkpt lat="35.0873357" lon="32.4913148">
<ele>20.52</ele>
<time>2015-04-26T17:00:14Z</time>
</trkpt>
<trkpt lat="35.0874004" lon="32.4913759">
<ele>20.22</ele>
<time>2015-04-26T17:00:15Z</time>
</trkpt>
<trkpt lat="35.0874623" lon="32.4914205">
<ele>20.57</ele>
<time>2015-04-26T17:00:16Z</time>
</trkpt>
<trkpt lat="35.0875215" lon="32.4914634">
<ele>20.75</ele>
<time>2015-04-26T17:00:17Z</time>
</trkpt>
<trkpt lat="35.0875817" lon="32.4915050">
<ele>20.34</ele>
<time>2015-04-26T17:00:18Z</time>
</trkpt>
<trkpt lat="35.0876412" lon="32.4915597">
<ele>20.13</ele>
<time>2015-04-26T17:00:19Z</time>
</trkpt>
<trkpt lat="35.0876993" lon="32.4916044">
<ele>20.53</ele>
<time>2015-04-26T17:00:20Z</time>
</trkpt>
<trkpt lat="35.0877620" lon="32.4916359">
<ele>20.23</ele>
<time>2015-04-26T17:00:21Z</time>
</trkpt>
<trkpt lat="35.0878221" lon="32.4916792">
<ele>20.58</ele>
<time>2015-04-26T17:00:22Z</time>
</trkpt>
<trkpt lat="35.0878827" lon="32.4917202">
<ele>20.75</ele>
<time>2015-04-26T17:00:23Z</time>
</trkpt>
<trkpt lat="35.0879434" lon="32.4917691">
<ele>20.84</ele>
<time>2015-04-26T17:00:24Z</time>
</trkpt>
<trkpt lat="35.0880049" lon="32.4918136">
<ele>20.88</ele>
<time>2015-04-26T17:00:25Z</time>
</trkpt>
<trkpt lat="35.0880646" lon="32.4918538">
<ele>20.40</ele>
<time>2015-04-26T17:00:26Z</time>
</trkpt>
<trkpt lat="35.0881179" lon="32.4918778">
<ele>19.66</ele>
<time>2015-04-26T17:00:27Z</time>
</trkpt>
<trkpt lat="35.0881704" lon="32.4919192">
<ele>19.29</ele>
<time>2015-04-26T17:00:28Z</time>
</trkpt>
<trkpt lat="35.0882106" lon="32.4919480">
<ele>19.11</ele>
<time>2015-04-26T17:00:29Z</time>
</trkpt>
<trkpt lat="35.0882581" lon="32.4919907">
<ele>19.02</ele>
<time>2015-04-26T17:00:30Z</time>
</trkpt>
<trkpt lat="35.0883071" lon="32.4920330">
<ele>18.97</ele>
<time>2015-04-26T17:00:31Z</time>
</trkpt>
<trkpt lat="35.0883614" lon="32.4920704">
<ele>19.45</ele>
<time>2015-04-26T17:00:32Z</time>
</trkpt>
<trkpt lat="35.0884169" lon="32.4921108">
<ele>19.69</ele>
<time>2015-04-26T17:00:33Z</time>
</trkpt>
<trkpt lat="35.0884695" lon="32.4921608">
<ele>19.81</ele>
<time>2015-04-26T17:00:34Z</time>
</trkpt>
<trkpt lat="35.0885210" lon="32.4922175">
<ele>19.87</ele>
<time>2015-04-26T17:00:35Z</time>
</trkpt>
<trkpt lat="35.0885770" lon="32.4922682">
<ele>20.40</ele>
<time>2015-04-26T17:00:36Z</time>
</trkpt>
<trkpt lat="35.0886313" lon="32.4923116">
<ele>20.16</ele>
<time>2015-04-26T17:00:37Z</time>
</trkpt>
<trkpt lat="35.0886843" lon="32.4923633">
<ele>20.04</ele>
<time>2015-04-26T17:00:38Z</time>
</trkpt>
<trkpt lat="35.0887388" lon="32.4924098">
<ele>19.98</ele>
<time>2015-04-26T17:00:39Z</time>
</trkpt>
<trkpt lat="35.0887900" lon="32.4924538">
<ele>19.45</ele>
<time>2015-04-26T17:00:40Z</time>
</trkpt>
<trkpt lat="35.0888372" lon="32.4925075">
<ele>19.19</ele>
<time>2015-04-26T17:00:41Z</time>
</trkpt>
<trkpt lat="35.0888904" lon="32.4925558">
<ele>19.06</ele>
<time>2015-04-26T17:00:42Z</time>
</trkpt>
<trkpt lat="35.0889458" lon="32.4926017">
<ele>18.99</ele>
<time>2015-04-26T17:00:43Z</time>
</trkpt>
<trkpt lat="35.0889943" lon="32.4926524">
<ele>18.96</ele>
<time>2015-04-26T17:00:44Z</time>
</trkpt>
<trkpt lat="35.0890494" lon="32.4926988">
<ele>18.94</ele>
<time>2015-04-26T17:00:45Z</time>
</trkpt>
<trkpt lat="35.0891009" lon="32.4927419">
<ele>18.93</ele>
<time>2015-04-26T17:00:46Z</time>
</trkpt>
<trkpt lat="35.0891555" lon="32.4927903">
<ele>18.93</ele>
<time>2015-04-26T17:00:47Z</time>
</trkpt>
<trkpt lat="35.0892071" lon="32.4928328">
<ele>18.93</ele>
<time>2015-04-26T17:00:48Z</time>
</trkpt>
<trkpt lat="35.0892668" lon="32.4928787">
<ele>18.93</ele>
<time>2015-04-26T17:00:49Z</time>
</trkpt>
<trkpt lat="35.0893264" lon="32.4929227">
<ele>18.93</ele>
<time>2015-04-26T17:00:50Z</time>
</trkpt>
<trkpt lat="35.0893817" lon="32.4929779">
<ele>18.93</ele>
<time>2015-04-26T17:00:51Z</time>
</trkpt>
<trkpt lat="35.0894375" lon="32.4930329">
<ele>18.93</ele>
<time>2015-04-26T17:00:52Z</time>
</trkpt>
<trkpt lat="35.0894934" lon="32.4930765">
<ele>18.93</ele>
<time>2015-04-26T17:00:53Z</time>
</trkpt>
<trkpt lat="35.0895431" lon="32.4931254">
<ele>19.43</ele>
<time>2015-04-26T17:00:54Z</time>
</trkpt>
<trkpt lat="35.0895981" lon="32.4931688">
<ele>19.68</ele>
<time>2015-04-26T17:00:55Z</time>
</trkpt>
<trkpt lat="35.0896456" lon="32.4932192">
<ele>19.80</ele>
<time>2015-04-26T17:00:56Z</time>
</trkpt>
<trkpt lat="35.0896972" lon="32.4932628">
<ele>19.86</ele>
<time>2015-04-26T17:00:57Z</time>
</trkpt>
<trkpt lat="35.0897489" lon="32.4933090">
<ele>19.89</ele>
<time>2015-04-26T17:00:58Z</time>
</trkpt>
<trkpt lat="35.0898008" lon="32.4933618">
<ele>20.41</ele>
<time>2015-04-26T17:00:59Z</time>
</trkpt>
<trkpt lat="35.0898552" lon="32.4934110">
<ele>21.17</ele>
<time>2015-04-26T17:01:00Z</time>
</trkpt>
<trkpt lat="35.0899178" lon="32.4934671">
<ele>21.05</ele>
<time>2015-04-26T17:01:01Z</time>
</trkpt>
<trkpt lat="35.0899802" lon="32.4935189">
<ele>20.99</ele>
<time>2015-04-26T17:01:02Z</time>
</trkpt>
<trkpt lat="35.0900432" lon="32.4935710">
<ele>20.96</ele>
<time>2015-04-26T17:01:03Z</time>
</trkpt>
<trkpt lat="35.0901014" lon="32.4936304">
<ele>20.94</ele>
<time>2015-04-26T17:01:04Z</time>
</trkpt>
<trkpt lat="35.0901569" lon="32.4936848">
<ele>20.43</ele>
<time>2015-04-26T17:01:05Z</time>
</trkpt>
<trkpt lat="35.0902075" lon="32.4937457">
<ele>19.68</ele>
<time>2015-04-26T17:01:06Z</time>
</trkpt>
<trkpt lat="35.0902765" lon="32.4937978">
<ele>18.80</ele>
<time>2015-04-26T17:01:07Z</time>
</trkpt>
<trkpt lat="35.0903374" lon="32.4938530">
<ele>18.36</ele>
<time>2015-04-26T17:01:08Z</time>
</trkpt>
<trkpt lat="35.0904041" lon="32.4939110">
<ele>18.14</ele>
<time>2015-04-26T17:01:09Z</time>
</trkpt>
<trkpt lat="35.0904638" lon="32.4939745">
<ele>18.03</ele>
<time>2015-04-26T17:01:10Z</time>
</trkpt>
<trkpt lat="35.0905265" lon="32.4940288">
<ele>17.98</ele>
<time>2015-04-26T17:01:11Z</time>
</trkpt>
<trkpt lat="35.0905780" lon="32.4940808">
<ele>17.95</ele>
<time>2015-04-26T17:01:12Z</time>
</trkpt>
<trkpt lat="35.0906298" lon="32.4941290">
<ele>18.44</ele>
<time>2015-04-26T17:01:13Z</time>
</trkpt>
<trkpt lat="35.0906782" lon="32.4941829">
<ele>18.68</ele>
<time>2015-04-26T17:01:14Z</time>
</trkpt>
<trkpt lat="35.0907308" lon="32.4942320">
<ele>18.80</ele>
<time>2015-04-26T17:01:15Z</time>
</trkpt>
<trkpt lat="35.0907762" lon="32.4942849">
<ele>18.86</ele>
<time>2015-04-26T17:01:16Z</time>
</trkpt>
<trkpt lat="35.0908305" lon="32.4943399">
<ele>18.89</ele>
<time>2015-04-26T17:01:17Z</time>
</trkpt>
<trkpt lat="35.0908884" lon="32.4943794">
<ele>18.41</ele>
<time>2015-04-26T17:01:18Z</time>
</trkpt>
<trkpt lat="35.0909455" lon="32.4944260">
<ele>18.17</ele>
<time>2015-04-26T17:01:19Z</time>
</trkpt>
<trkpt lat="35.0910051" lon="32.4944717">
<ele>18.05</ele>
<time>2015-04-26T17:01:20Z</time>
</trkpt>
<trkpt lat="35.0910604" lon="32.4945237">
<ele>17.49</ele>
<time>2015-04-26T17:01:21Z</time>
</trkpt>
<trkpt lat="35.0911132" lon="32.4945748">
<ele>17.21</ele>
<time>2015-04-26T17:01:22Z</time>
</trkpt>
<trkpt lat="35.0911637" lon="32.4946231">
<ele>17.07</ele>
<time>2015-04-26T17:01:23Z</time>
</trkpt>
<trkpt lat="35.0912153" lon="32.4946724">
<ele>17.00</ele>
<time>2015-04-26T17:01:24Z</time>
</trkpt>
<trkpt lat="35.0912531" lon="32.4947250">
<ele>16.96</ele>
<time>2015-04-26T17:01:25Z</time>
</trkpt>
<trkpt lat="35.0913044" lon="32.4947768">
<ele>17.44</ele>
<time>2015-04-26T17:01:26Z</time>
</trkpt>
<trkpt lat="35.0913625" lon="32.4948273">
<ele>17.68</ele>
<time>2015-04-26T17:01:27Z</time>
</trkpt>
<trkpt lat="35.0914111" lon="32.4948787">
<ele>18.30</ele>
<time>2015-04-26T17:01:28Z</time>
</trkpt>
<trkpt lat="35.0914622" lon="32.4949289">
<ele>19.11</ele>
<time>2015-04-26T17:01:29Z</time>
</trkpt>
<trkpt lat="35.0915148" lon="32.4949742">
<ele>19.02</ele>
<time>2015-04-26T17:01:30Z</time>
</trkpt>
<trkpt lat="35.0915724" lon="32.4950149">
<ele>19.47</ele>
<time>2015-04-26T17:01:31Z</time>
</trkpt>
<trkpt lat="35.0916302" lon="32.4950605">
<ele>19.20</ele>
<time>2015-04-26T17:01:32Z</time>
</trkpt>
<trkpt lat="35.0916749" lon="32.4951098">
<ele>19.06</ele>
<time>2015-04-26T17:01:33Z</time>
</trkpt>
<trkpt lat="35.0917235" lon="32.4951527">
<ele>18.99</ele>
<time>2015-04-26T17:01:34Z</time>
</trkpt>
<trkpt lat="35.0917759" lon="32.4951916">
<ele>19.46</ele>
<time>2015-04-26T17:01:35Z</time>
</trkpt>
<trkpt lat="35.0918346" lon="32.4952347">
<ele>19.69</ele>
<time>2015-04-26T17:01:36Z</time>
</trkpt>
<trkpt lat="35.0918903" lon="32.4952908">
<ele>19.81</ele>
<time>2015-04-26T17:01:37Z</time>
</trkpt>
<trkpt lat="35.0919495" lon="32.4953385">
<ele>19.87</ele>
<time>2015-04-26T17:01:38Z</time>
</trkpt>
<trkpt lat="35.0920119" lon="32.4953894">
<ele>19.90</ele>
<time>2015-04-26T17:01:39Z</time>
</trkpt>
<trkpt lat="35.0920776" lon="32.4954401">
<ele>19.91</ele>
<time>2015-04-26T17:01:40Z</time>
</trkpt>
<trkpt lat="35.0921371" lon="32.4954911">
<ele>20.42</ele>
<time>2015-04-26T17:01:41Z</time>
</trkpt>
<trkpt lat="35.0921947" lon="32.4955383">
<ele>20.67</ele>
<time>2015-04-26T17:01:42Z</time>
</trkpt>
<trkpt lat="35.0922511" lon="32.4955817">
<ele>20.80</ele>
<time>2015-04-26T17:01:43Z</time>
</trkpt>
<trkpt lat="35.0922997" lon="32.4956292">
<ele>20.86</ele>
<time>2015-04-26T17:01:44Z</time>
</trkpt>
<trkpt lat="35.0923440" lon="32.4956727">
<ele>20.89</ele>
<time>2015-04-26T17:01:45Z</time>
</trkpt>
<trkpt lat="35.0923913" lon="32.4957116">
<ele>20.41</ele>
<time>2015-04-26T17:01:46Z</time>
</trkpt>
<trkpt lat="35.0924353" lon="32.4957483">
<ele>20.17</ele>
<time>2015-04-26T17:01:47Z</time>
</trkpt>
<trkpt lat="35.0924892" lon="32.4957815">
<ele>20.05</ele>
<time>2015-04-26T17:01:48Z</time>
</trkpt>
<trkpt lat="35.0925362" lon="32.4958176">
<ele>19.99</ele>
<time>2015-04-26T17:01:49Z</time>
</trkpt>
<trkpt lat="35.0925794" lon="32.4958638">
<ele>19.96</ele>
<time>2015-04-26T17:01:50Z</time>
</trkpt>
<trkpt lat="35.0926289" lon="32.4959100">
<ele>20.44</ele>
<time>2015-04-26T17:01:51Z</time>
</trkpt>
<trkpt lat="35.0926791" lon="32.4959594">
<ele>21.18</ele>
<time>2015-04-26T17:01:52Z</time>
</trkpt>
<trkpt lat="35.0927332" lon="32.4960061">
<ele>21.55</ele>
<time>2015-04-26T17:01:53Z</time>
</trkpt>
<trkpt lat="35.0927835" lon="32.4960544">
<ele>21.74</ele>
<time>2015-04-26T17:01:54Z</time>
</trkpt>
<trkpt lat="35.0928372" lon="32.4960993">
<ele>21.83</ele>
<time>2015-04-26T17:01:55Z</time>
</trkpt>
<trkpt lat="35.0928955" lon="32.4961464">
<ele>21.38</ele>
<time>2015-04-26T17:01:56Z</time>
</trkpt>
<trkpt lat="35.0929524" lon="32.4961918">
<ele>21.65</ele>
<time>2015-04-26T17:01:57Z</time>
</trkpt>
<trkpt lat="35.0930009" lon="32.4962314">
<ele>21.79</ele>
<time>2015-04-26T17:01:58Z</time>
</trkpt>
<trkpt lat="35.0930465" lon="32.4962769">
<ele>21.86</ele>
<time>2015-04-26T17:01:59Z</time>
</trkpt>
<trkpt lat="35.0930988" lon="32.4963097">
<ele>21.39</ele>
<time>2015-04-26T17:02:00Z</time>
</trkpt>
<trkpt lat="35.0931484" lon="32.4963524">
<ele>21.16</ele>
<time>2015-04-26T17:02:01Z</time>
</trkpt>
<trkpt lat="35.0931962" lon="32.4963956">
<ele>21.04</ele>
<time>2015-04-26T17:02:02Z</time>
</trkpt>
<trkpt lat="35.0932473" lon="32.4964331">
<ele>20.98</ele>
<time>2015-04-26T17:02:03Z</time>
</trkpt>
<trkpt lat="35.0932946" lon="32.4964742">
<ele>20.95</ele>
<time>2015-04-26T17:02:04Z</time>
</trkpt>
<trkpt lat="35.0933448" lon="32.4965164">
<ele>20.44</ele>
<time>2015-04-26T17:02:05Z</time>
</trkpt>
<trkpt lat="35.0933998" lon="32.4965540">
<ele>20.18</ele>
<time>2015-04-26T17:02:06Z</time>
</trkpt>
<trkpt lat="35.0934551" lon="32.4965912">
<ele>20.55</ele>
<time>2015-04-26T17:02:07Z</time>
</trkpt>
<trkpt lat="35.0935090" lon="32.4966385">
<ele>20.74</ele>
<time>2015-04-26T17:02:08Z</time>
</trkpt>
<trkpt lat="35.0935521" lon="32.4966726">
<ele>20.33</ele>
<time>2015-04-26T17:02:09Z</time>
</trkpt>
<trkpt lat="35.0936042" lon="32.4967140">
<ele>20.63</ele>
<time>2015-04-26T17:02:10Z</time>
</trkpt>
<trkpt lat="35.0936542" lon="32.4967452">
<ele>20.28</ele>
<time>2015-04-26T17:02:11Z</time>
</trkpt>
<trkpt lat="35.0936990" lon="32.4967863">
<ele>20.60</ele>
<time>2015-04-26T17:02:12Z</time>
</trkpt>
<trkpt lat="35.0937492" lon="32.4968110">
<ele>20.26</ele>
<time>2015-04-26T17:02:13Z</time>
</trkpt>
<trkpt lat="35.0938012" lon="32.4968576">
<ele>20.59</ele>
<time>2015-04-26T17:02:14Z</time>
</trkpt>
<trkpt lat="35.0938586" lon="32.4968992">
<ele>20.76</ele>
<time>2015-04-26T17:02:15Z</time>
</trkpt>
<trkpt lat="35.0939208" lon="32.4969398">
<ele>20.84</ele>
<time>2015-04-26T17:02:16Z</time>
</trkpt>
<trkpt lat="35.0939794" lon="32.4969811">
<ele>20.88</ele>
<time>2015-04-26T17:02:17Z</time>
</trkpt>
<trkpt lat="35.0940368" lon="32.4970265">
<ele>20.90</ele>
<time>2015-04-26T17:02:18Z</time>
</trkpt>
<trkpt lat="35.0941013" lon="32.4970629">
<ele>21.41</ele>
<time>2015-04-26T17:02:19Z</time>
</trkpt>
<trkpt lat="35.0941683" lon="32.4971012">
<ele>21.67</ele>
<time>2015-04-26T17:02:20Z</time>
</trkpt>
<trkpt lat="35.0942274" lon="32.4971369">
<ele>22.30</ele>
<time>2015-04-26T17:02:21Z</time>
</trkpt>
<trkpt lat="35.0942872" lon="32.4971775">
<ele>22.61</ele>
<time>2015-04-26T17:02:22Z</time>
</trkpt>
<trkpt lat="35.0943498" lon="32.4972098">
<ele>22.77</ele>
<time>2015-04-26T17:02:23Z</time>
</trkpt>
<trkpt lat="35.0944151" lon="32.4972463">
<ele>22.85</ele>
<time>2015-04-26T17:02:24Z</time>
</trkpt>
<trkpt lat="35.0944781" lon="32.4972813">
<ele>22.89</ele>
<time>2015-04-26T17:02:25Z</time>
</trkpt>
<trkpt lat="35.0945380" lon="32.4973186">
<ele>22.41</ele>
<time>2015-04-26T17:02:26Z</time>
</trkpt>
<trkpt lat="35.0946000" lon="32.4973619">
<ele>22.17</ele>
<time>2015-04-26T17:02:27Z</time>
</trkpt>
<trkpt lat="35.0946679" lon="32.4973965">
<ele>22.05</ele>
<time>2015-04-26T17:02:28Z</time>
</trkpt>
<trkpt lat="35.0947185" lon="32.4974339">
<ele>21.99</ele>
<time>2015-04-26T17:02:29Z</time>
</trkpt>
<trkpt lat="35.0947807" lon="32.4974702">
<ele>21.96</ele>
<time>2015-04-26T17:02:30Z</time>
</trkpt>
<trkpt lat="35.0948374" lon="32.4975076">
<ele>21.94</ele>
<time>2015-04-26T17:02:31Z</time>
</trkpt>
<trkpt lat="35.0949052" lon="32.4975450">
<ele>21.93</ele>
<time>2015-04-26T17:02:32Z</time>
</trkpt>
<trkpt lat="35.0949709" lon="32.4975838">
<ele>21.93</ele>
<time>2015-04-26T17:02:33Z</time>
</trkpt>
<trkpt lat="35.0950380" lon="32.4976160">
<ele>21.43</ele>
<time>2015-04-26T17:02:34Z</time>
</trkpt>
<trkpt lat="35.0950940" lon="32.4976482">
<ele>21.68</ele>
<time>2015-04-26T17:02:35Z</time>
</trkpt>
<trkpt lat="35.0951568" lon="32.4976809">
<ele>21.80</ele>
<time>2015-04-26T17:02:36Z</time>
</trkpt>
<trkpt lat="35.0952220" lon="32.4977141">
<ele>21.86</ele>
<time>2015-04-26T17:02:37Z</time>
</trkpt>
<trkpt lat="35.0952818" lon="32.4977449">
<ele>22.39</ele>
<time>2015-04-26T17:02:38Z</time>
</trkpt>
<trkpt lat="35.0953378" lon="32.4977698">
<ele>22.16</ele>
<time>2015-04-26T17:02:39Z</time>
</trkpt>
<trkpt lat="35.0953894" lon="32.4978021">
<ele>22.04</ele>
<time>2015-04-26T17:02:40Z</time>
</trkpt>
<trkpt lat="35.0954450" lon="32.4978366">
<ele>22.48</ele>
<time>2015-04-26T17:02:41Z</time>
</trkpt>
<trkpt lat="35.0955028" lon="32.4978703">
<ele>22.20</ele>
<time>2015-04-26T17:02:42Z</time>
</trkpt>
<trkpt lat="35.0955608" lon="32.4979034">
<ele>21.56</ele>
<time>2015-04-26T17:02:43Z</time>
</trkpt>
<trkpt lat="35.0956109" lon="32.4979458">
<ele>21.24</ele>
<time>2015-04-26T17:02:44Z</time>
</trkpt>
<trkpt lat="35.0956716" lon="32.4979749">
<ele>21.08</ele>
<time>2015-04-26T17:02:45Z</time>
</trkpt>
<trkpt lat="35.0957337" lon="32.4980068">
<ele>20.50</ele>
<time>2015-04-26T17:02:46Z</time>
</trkpt>
<trkpt lat="35.0957962" lon="32.4980346">
<ele>20.21</ele>
<time>2015-04-26T17:02:47Z</time>
</trkpt>
<trkpt lat="35.0958500" lon="32.4980694">
<ele>20.07</ele>
<time>2015-04-26T17:02:48Z</time>
</trkpt>
<trkpt lat="35.0959055" lon="32.4981122">
<ele>20.00</ele>
<time>2015-04-26T17:02:49Z</time>
</trkpt>
<trkpt lat="35.0959648" lon="32.4981531">
<ele>19.96</ele>
<time>2015-04-26T17:02:50Z</time>
</trkpt>
<trkpt lat="35.0960240" lon="32.4981954">
<ele>20.44</ele>
<time>2015-04-26T17:02:51Z</time>
</trkpt>
<trkpt lat="35.0960858" lon="32.4982330">
<ele>20.68</ele>
<time>2015-04-26T17:02:52Z</time>
</trkpt>
<trkpt lat="35.0961454" lon="32.4982652">
<ele>20.80</ele>
<time>2015-04-26T17:02:53Z</time>
</trkpt>
<trkpt lat="35.0962106" lon="32.4982947">
<ele>19.86</ele>
<time>2015-04-26T17:02:54Z</time>
</trkpt>
<trkpt lat="35.0962730" lon="32.4983367">
<ele>19.89</ele>
<time>2015-04-26T17:02:55Z</time>
</trkpt>
<trkpt lat="35.0963328" lon="32.4983735">
<ele>19.91</ele>
<time>2015-04-26T17:02:56Z</time>
</trkpt>
<trkpt lat="35.0963927" lon="32.4984146">
<ele>19.42</ele>
<time>2015-04-26T17:02:57Z</time>
</trkpt>
<trkpt lat="35.0964481" lon="32.4984544">
<ele>19.67</ele>
<time>2015-04-26T17:02:58Z</time>
</trkpt>
<trkpt lat="35.0965044" lon="32.4984837">
<ele>19.30</ele>
<time>2015-04-26T17:02:59Z</time>
</trkpt>
<trkpt lat="35.0965616" lon="32.4985224">
<ele>19.11</ele>
<time>2015-04-26T17:03:00Z</time>
</trkpt>
<trkpt lat="35.0966126" lon="32.4985678">
<ele>19.02</ele>
<time>2015-04-26T17:03:01Z</time>
</trkpt>
<trkpt lat="35.0966701" lon="32.4986053">
<ele>18.97</ele>
<time>2015-04-26T17:03:02Z</time>
</trkpt>
<trkpt lat="35.0967296" lon="32.4986455">
<ele>18.95</ele>
<time>2015-04-26T17:03:03Z</time>
</trkpt>
<trkpt lat="35.0967875" lon="32.4986797">
<ele>18.94</ele>
<time>2015-04-26T17:03:04Z</time>
</trkpt>
<trkpt lat="35.0968469" lon="32.4987230">
<ele>18.43</ele>
<time>2015-04-26T17:03:05Z</time>
</trkpt>
<trkpt lat="35.0969058" lon="32.4987665">
<ele>18.68</ele>
<time>2015-04-26T17:03:06Z</time>
</trkpt>
<trkpt lat="35.0969755" lon="32.4988003">
<ele>19.30</ele>
<time>2015-04-26T17:03:07Z</time>
</trkpt>
<trkpt lat="35.0970419" lon="32.4988500">
<ele>20.11</ele>
<time>2015-04-26T17:03:08Z</time>
</trkpt>
<trkpt lat="35.0971022" lon="32.4988989">
<ele>20.02</ele>
<time>2015-04-26T17:03:09Z</time>
</trkpt>
<trkpt lat="35.0971434" lon="32.4989361">
<ele>19.97</ele>
<time>2015-04-26T17:03:10Z</time>
</trkpt>
<trkpt lat="35.0972031" lon="32.4989876">
<ele>19.95</ele>
<time>2015-04-26T17:03:11Z</time>
</trkpt>
<trkpt lat="35.0972539" lon="32.4990351">
<ele>20.44</ele>
<time>2015-04-26T17:03:12Z</time>
</trkpt>
<trkpt lat="35.0973149" lon="32.4990752">
<ele>20.68</ele>
<time>2015-04-26T17:03:13Z</time>
</trkpt>
<trkpt lat="35.0973761" lon="32.4991135">
<ele>20.30</ele>
<time>2015-04-26T17:03:14Z</time>
</trkpt>
<trkpt lat="35.0974460" lon="32.4991642">
<ele>20.11</ele>
<time>2015-04-26T17:03:15Z</time>
</trkpt>
<trkpt lat="35.0975096" lon="32.4992108">
<ele>20.02</ele>
<time>2015-04-26T17:03:16Z</time>
</trkpt>
<trkpt lat="35.0975730" lon="32.4992542">
<ele>19.97</ele>
<time>2015-04-26T17:03:17Z</time>
</trkpt>
<trkpt lat="35.0976236" lon="32.4993006">
<ele>19.95</ele>
<time>2015-04-26T17:03:18Z</time>
</trkpt>
<trkpt lat="35.0976659" lon="32.4993415">
<ele>19.94</ele>
<time>2015-04-26T17:03:19Z</time>
</trkpt>
<trkpt lat="35.0977275" lon="32.4993867">
<ele>19.93</ele>
<time>2015-04-26T17:03:20Z</time>
</trkpt>
<trkpt lat="35.0977834" lon="32.4994195">
<ele>19.43</ele>
<time>2015-04-26T17:03:21Z</time>
</trkpt>
<trkpt lat="35.0978433" lon="32.4994565">
<ele>18.68</ele>
<time>2015-04-26T17:03:22Z</time>
</trkpt>
<trkpt lat="35.0979081" lon="32.4994969">
<ele>18.80</ele>
<time>2015-04-26T17:03:23Z</time>
</trkpt>
<trkpt lat="35.0979635" lon="32.4995429">
<ele>17.86</ele>
<time>2015-04-26T17:03:24Z</time>
</trkpt>
<trkpt lat="35.0980180" lon="32.4995751">
<ele>17.39</ele>
<time>2015-04-26T17:03:25Z</time>
</trkpt>
<trkpt lat="35.0980805" lon="32.4996204">
<ele>17.16</ele>
<time>2015-04-26T17:03:26Z</time>
</trkpt>
<trkpt lat="35.0981435" lon="32.4996587">
<ele>16.54</ele>
<time>2015-04-26T17:03:27Z</time>
</trkpt>
<trkpt lat="35.0982014" lon="32.4997044">
<ele>16.23</ele>
<time>2015-04-26T17:03:28Z</time>
</trkpt>
<trkpt lat="35.0982584" lon="32.4997494">
<ele>16.58</ele>
<time>2015-04-26T17:03:29Z</time>
</trkpt>
<trkpt lat="35.0983200" lon="32.4997919">
<ele>16.25</ele>
<time>2015-04-26T17:03:30Z</time>
</trkpt>
<trkpt lat="35.0983729" lon="32.4998346">
<ele>16.09</ele>
<time>2015-04-26T17:03:31Z</time>
</trkpt>
<trkpt lat="35.0984274" lon="32.4998695">
<ele>16.51</ele>
<time>2015-04-26T17:03:32Z</time>
</trkpt>
<trkpt lat="35.0984818" lon="32.4999000">
<ele>16.72</ele>
<time>2015-04-26T17:03:33Z</time>
</trkpt>
<trkpt lat="35.0985306" lon="32.4999328">
<ele>16.82</ele>
<time>2015-04-26T17:03:34Z</time>
</trkpt>
<trkpt lat="35.0985801" lon="32.4999710">
<ele>16.87</ele>
<time>2015-04-26T17:03:35Z</time>
</trkpt>
<trkpt lat="35.0986266" lon="32.5000057">
<ele>17.40</ele>
<time>2015-04-26T17:03:36Z</time>
</trkpt>
<trkpt lat="35.0986743" lon="32.5000466">
<ele>17.66</ele>
<time>2015-04-26T17:03:37Z</time>
</trkpt>
<trkpt lat="35.0987157" lon="32.5000799">
<ele>17.79</ele>
<time>2015-04-26T17:03:38Z</time>
</trkpt>
<trkpt lat="35.0987609" lon="32.5001100">
<ele>17.86</ele>
<time>2015-04-26T17:03:39Z</time>
</trkpt>
<trkpt lat="35.0988026" lon="32.5001387">
<ele>17.89</ele>
<time>2015-04-26T17:03:40Z</time>
</trkpt>
<trkpt lat="35.0988473" lon="32.5001732">
<ele>18.41</ele>
<time>2015-04-26T17:03:41Z</time>
</trkpt>
<trkpt lat="35.0988934" lon="32.5001996">
<ele>18.67</ele>
<time>2015-04-26T17:03:42Z</time>
</trkpt>
<trkpt lat="35.0989369" lon="32.5002433">
<ele>19.30</ele>
<time>2015-04-26T17:03:43Z</time>
</trkpt>
<trkpt lat="35.0989893" lon="32.5002823">
<ele>19.61</ele>
<time>2015-04-26T17:03:44Z</time>
</trkpt>
<trkpt lat="35.0990403" lon="32.5003220">
<ele>19.27</ele>
<time>2015-04-26T17:03:45Z</time>
</trkpt>
<trkpt lat="35.0990982" lon="32.5003430">
<ele>18.60</ele>
<time>2015-04-26T17:03:46Z</time>
</trkpt>
<trkpt lat="35.0991460" lon="32.5003668">
<ele>17.76</ele>
<time>2015-04-26T17:03:47Z</time>
</trkpt>
<trkpt lat="35.0991880" lon="32.5004021">
<ele>16.84</ele>
<time>2015-04-26T17:03:48Z</time>
</trkpt>
<trkpt lat="35.0992352" lon="32.5004418">
<ele>16.38</ele>
<time>2015-04-26T17:03:49Z</time>
</trkpt>
<trkpt lat="35.0992868" lon="32.5004802">
<ele>16.65</ele>
<time>2015-04-26T17:03:50Z</time>
</trkpt>
<trkpt lat="35.0993420" lon="32.5005147">
<ele>16.79</ele>
<time>2015-04-26T17:03:51Z</time>
</trkpt>
<trkpt lat="35.0994037" lon="32.5005559">
<ele>16.86</ele>
<time>2015-04-26T17:03:52Z</time>
</trkpt>
<trkpt lat="35.0994505" lon="32.5005925">
<ele>16.89</ele>
<time>2015-04-26T17:03:53Z</time>
</trkpt>
<trkpt lat="35.0994954" lon="32.5006235">
<ele>16.91</ele>
<time>2015-04-26T17:03:54Z</time>
</trkpt>
<trkpt lat="35.0995535" lon="32.5006653">
<ele>16.92</ele>
<time>2015-04-26T17:03:55Z</time>
</trkpt>
<trkpt lat="35.0996117" lon="32.5007076">
<ele>16.92</ele>
<time>2015-04-26T17:03:56Z</time>
</trkpt>
<trkpt lat="35.0996726" lon="32.5007492">
<ele>17.42</ele>
<time>2015-04-26T17:03:57Z</time>
</trkpt>
<trkpt lat="35.0997292" lon="32.5007858">
<ele>18.17</ele>
<time>2015-04-26T17:03:58Z</time>
</trkpt>
<trkpt lat="35.0997847" lon="32.5008328">
<ele>18.55</ele>
<time>2015-04-26T17:03:59Z</time>
</trkpt>
<trkpt lat="35.0998403" lon="32.5008721">
<ele>19.24</ele>
<time>2015-04-26T17:04:00Z</time>
</trkpt>
<trkpt lat="35.0998979" lon="32.5009063">
<ele>19.08</ele>
<time>2015-04-26T17:04:01Z</time>
</trkpt>
<trkpt lat="35.0999416" lon="32.5009419">
<ele>18.50</ele>
<time>2015-04-26T17:04:02Z</time>
</trkpt>
<trkpt lat="35.0999913" lon="32.5009779">
<ele>18.21</ele>
<time>2015-04-26T17:04:03Z</time>
</trkpt>
<trkpt lat="35.1000405" lon="32.5010083">
<ele>18.07</ele>
<time>2015-04-26T17:04:04Z</time>
</trkpt>
<trkpt lat="35.1000879" lon="32.5010501">
<ele>17.50</ele>
<time>2015-04-26T17:04:05Z</time>
</trkpt>
<trkpt lat="35.1001417" lon="32.5010861">
<ele>17.21</ele>
<time>2015-04-26T17:04:06Z</time>
</trkpt>
<trkpt lat="35.1001968" lon="32.5011234">
<ele>17.07</ele>
<time>2015-04-26T17:04:07Z</time>
</trkpt>
<trkpt lat="35.1002482" lon="32.5011646">
<ele>17.00</ele>
<time>2015-04-26T17:04:08Z</time>
</trkpt>
<trkpt lat="35.1003040" lon="32.5011972">
<ele>16.46</ele>
<time>2015-04-26T17:04:09Z</time>
</trkpt>
<trkpt lat="35.1003686" lon="32.5012373">
<ele>16.19</ele>
<time>2015-04-26T17:04:10Z</time>
</trkpt>
<trkpt lat="35.1004162" lon="32.5012731">
<ele>15.56</ele>
<time>2015-04-26T17:04:11Z</time>
</trkpt>
<trkpt lat="35.1004792" lon="32.5013202">
<ele>15.24</ele>
<time>2015-04-26T17:04:12Z</time>
</trkpt>
<trkpt lat="35.1005270" lon="32.5013587">
<ele>14.58</ele>
<time>2015-04-26T17:04:13Z</time>
</trkpt>
<trkpt lat="35.1005824" lon="32.5014009">
<ele>14.25</ele>
<time>2015-04-26T17:04:14Z</time>
</trkpt>
<trkpt lat="35.1006354" lon="32.5014326">
<ele>14.59</ele>
<time>2015-04-26T17:04:15Z</time>
</trkpt>
<trkpt lat="35.1006866" lon="32.5014694">
<ele>14.76</ele>
<time>2015-04-26T17:04:16Z</time>
</trkpt>
<trkpt lat="35.1007308" lon="32.5015038">
<ele>14.84</ele>
<time>2015-04-26T17:04:17Z</time>
</trkpt>
<trkpt lat="35.1007808" lon="32.5015444">
<ele>14.38</ele>
<time>2015-04-26T17:04:18Z</time>
</trkpt>
<trkpt lat="35.1008339" lon="32.5015747">
<ele>14.15</ele>
<time>2015-04-26T17:04:19Z</time>
</trkpt>
<trkpt lat="35.1008800" lon="32.5016185">
<ele>14.04</ele>
<time>2015-04-26T17:04:20Z</time>
</trkpt>
<trkpt lat="35.1009383" lon="32.5016521">
<ele>14.48</ele>
<time>2015-04-26T17:04:21Z</time>
</trkpt>
<trkpt lat="35.1009954" lon="32.5016893">
<ele>14.20</ele>
<time>2015-04-26T17:04:22Z</time>
</trkpt>
<trkpt lat="35.1010534" lon="32.5017256">
<ele>14.56</ele>
<time>2015-04-26T17:04:23Z</time>
</trkpt>
<trkpt lat="35.1011126" lon="32.5017641">
<ele>14.74</ele>
<time>2015-04-26T17:04:24Z</time>
</trkpt>
<trkpt lat="35.1011581" lon="32.5017872">
<ele>14.33</ele>
<time>2015-04-26T17:04:25Z</time>
</trkpt>
<trkpt lat="35.1012129" lon="32.5018233">
<ele>14.63</ele>
<time>2015-04-26T17:04:26Z</time>
</trkpt>
<trkpt lat="35.1012734" lon="32.5018611">
<ele>14.28</ele>
<time>2015-04-26T17:04:27Z</time>
</trkpt>
<trkpt lat="35.1013274" lon="32.5018919">
<ele>14.60</ele>
<time>2015-04-26T17:04:28Z</time>
</trkpt>
<trkpt lat="35.1013726" lon="32.5019196">
<ele>14.76</ele>
<time>2015-04-26T17:04:29Z</time>
</trkpt>
<trkpt lat="35.1014231" lon="32.5019541">
<ele>14.84</ele>
<time>2015-04-26T17:04:30Z</time>
</trkpt>
<trkpt lat="35.1014771" lon="32.5019817">
<ele>14.88</ele>
<time>2015-04-26T17:04:31Z</time>
</trkpt>
<trkpt lat="35.1015212" lon="32.5020218">
<ele>14.90</ele>
<time>2015-04-26T17:04:32Z</time>
</trkpt>
<trkpt lat="35.1015854" lon="32.5020566">
<ele>14.41</ele>
<time>2015-04-26T17:04:33Z</time>
</trkpt>
<trkpt lat="35.1016348" lon="32.5020817">
<ele>13.67</ele>
<time>2015-04-26T17:04:34Z</time>
</trkpt>
<trkpt lat="35.1016924" lon="32.5021084">
<ele>13.80</ele>
<time>2015-04-26T17:04:35Z</time>
</trkpt>
<trkpt lat="35.1017464" lon="32.5021451">
<ele>13.86</ele>
<time>2015-04-26T17:04:36Z</time>
</trkpt>
<trkpt lat="35.1018065" lon="32.5021773">
<ele>14.39</ele>
<time>2015-04-26T17:04:37Z</time>
</trkpt>
<trkpt lat="35.1018603" lon="32.5022059">
<ele>14.66</ele>
<time>2015-04-26T17:04:38Z</time>
</trkpt>
<trkpt lat="35.1019101" lon="32.5022421">
<ele>14.29</ele>
<time>2015-04-26T17:04:39Z</time>
</trkpt>
<trkpt lat="35.1019716" lon="32.5022782">
<ele>14.61</ele>
<time>2015-04-26T17:04:40Z</time>
</trkpt>
<trkpt lat="35.1020269" lon="32.5023146">
<ele>14.77</ele>
<time>2015-04-26T17:04:41Z</time>
</trkpt>
<trkpt lat="35.1020864" lon="32.5023550">
<ele>14.85</ele>
<time>2015-04-26T17:04:42Z</time>
</trkpt>
<trkpt lat="35.1021350" lon="32.5023876">
<ele>14.89</ele>
<time>2015-04-26T17:04:43Z</time>
</trkpt>
<trkpt lat="35.1021930" lon="32.5024227">
<ele>14.91</ele>
<time>2015-04-26T17:04:44Z</time>
</trkpt>
<trkpt lat="35.1022603" lon="32.5024486">
<ele>14.92</ele>
<time>2015-04-26T17:04:45Z</time>
</trkpt>
<trkpt lat="35.1023256" lon="32.5024788">
<ele>14.92</ele>
<time>2015-04-26T17:04:46Z</time>
</trkpt>
<trkpt lat="35.1023894" lon="32.5025143">
<ele>15.42</ele>
<time>2015-04-26T17:04:47Z</time>
</trkpt>
<trkpt lat="35.1024553" lon="32.5025550">
<ele>16.17</ele>
<time>2015-04-26T17:04:48Z</time>
</trkpt>
<trkpt lat="35.1025111" lon="32.5025903">
<ele>16.55</ele>
<time>2015-04-26T17:04:49Z</time>
</trkpt>
<trkpt lat="35.1025737" lon="32.5026147">
<ele>16.74</ele>
<time>2015-04-26T17:04:50Z</time>
</trkpt>
<trkpt lat="35.1026341" lon="32.5026474">
<ele>16.83</ele>
<time>2015-04-26T17:04:51Z</time>
</trkpt>
<trkpt lat="35.1026906" lon="32.5026795">
<ele>17.38</ele>
<time>2015-04-26T17:04:52Z</time>
</trkpt>
<trkpt lat="35.1027458" lon="32.5027126">
<ele>17.65</ele>
<time>2015-04-26T17:04:53Z</time>
</trkpt>
<trkpt lat="35.1028043" lon="32.5027489">
<ele>17.79</ele>
<time>2015-04-26T17:04:54Z</time>
</trkpt>
<trkpt lat="35.1028535" lon="32.5027734">
<ele>16.86</ele>
<time>2015-04-26T17:04:55Z</time>
</trkpt>
<trkpt lat="35.1029080" lon="32.5028188">
<ele>16.39</ele>
<time>2015-04-26T17:04:56Z</time>
</trkpt>
<trkpt lat="35.1029969" lon="32.5028952">
<ele>15.29</ele>
<time>2015-04-26T17:04:58Z</time>
</trkpt>
<trkpt lat="35.1030501" lon="32.5029337">
<ele>16.11</ele>
<time>2015-04-26T17:04:59Z</time>
</trkpt>
<trkpt lat="35.1030975" lon="32.5029782">
<ele>16.52</ele>
<time>2015-04-26T17:05:00Z</time>
</trkpt>
<trkpt lat="35.1031486" lon="32.5030208">
<ele>17.22</ele>
<time>2015-04-26T17:05:01Z</time>
</trkpt>
<trkpt lat="35.1031944" lon="32.5030602">
<ele>18.07</ele>
<time>2015-04-26T17:05:02Z</time>
</trkpt>
<trkpt lat="35.1032472" lon="32.5031038">
<ele>18.00</ele>
<time>2015-04-26T17:05:03Z</time>
</trkpt>
<trkpt lat="35.1032989" lon="32.5031407">
<ele>17.96</ele>
<time>2015-04-26T17:05:04Z</time>
</trkpt>
<trkpt lat="35.1033409" lon="32.5031747">
<ele>17.44</ele>
<time>2015-04-26T17:05:05Z</time>
</trkpt>
<trkpt lat="35.1033831" lon="32.5032052">
<ele>17.68</ele>
<time>2015-04-26T17:05:06Z</time>
</trkpt>
<trkpt lat="35.1034334" lon="32.5032451">
<ele>17.80</ele>
<time>2015-04-26T17:05:07Z</time>
</trkpt>
<trkpt lat="35.1034725" lon="32.5032747">
<ele>17.86</ele>
<time>2015-04-26T17:05:08Z</time>
</trkpt>
<trkpt lat="35.1035159" lon="32.5033125">
<ele>17.89</ele>
<time>2015-04-26T17:05:09Z</time>
</trkpt>
<trkpt lat="35.1035926" lon="32.5033698">
<ele>17.17</ele>
<time>2015-04-26T17:05:11Z</time>
</trkpt>
<trkpt lat="35.1036377" lon="32.5034020">
<ele>17.05</ele>
<time>2015-04-26T17:05:12Z</time>
</trkpt>
<trkpt lat="35.1036796" lon="32.5034326">
<ele>16.99</ele>
<time>2015-04-26T17:05:13Z</time>
</trkpt>
<trkpt lat="35.1037580" lon="32.5034802">
<ele>16.94</ele>
<time>2015-04-26T17:05:15Z</time>
</trkpt>
<trkpt lat="35.1038033" lon="32.5035184">
<ele>16.93</ele>
<time>2015-04-26T17:05:16Z</time>
</trkpt>
<trkpt lat="35.1038425" lon="32.5035486">
<ele>16.93</ele>
<time>2015-04-26T17:05:17Z</time>
</trkpt>
<trkpt lat="35.1038946" lon="32.5035773">
<ele>16.43</ele>
<time>2015-04-26T17:05:18Z</time>
</trkpt>
<trkpt lat="35.1039506" lon="32.5035982">
<ele>16.18</ele>
<time>2015-04-26T17:05:19Z</time>
</trkpt>
<trkpt lat="35.1040102" lon="32.5036265">
<ele>16.05</ele>
<time>2015-04-26T17:05:20Z</time>
</trkpt>
<trkpt lat="35.1040576" lon="32.5036453">
<ele>15.99</ele>
<time>2015-04-26T17:05:21Z</time>
</trkpt>
<trkpt lat="35.1041052" lon="32.5036688">
<ele>15.96</ele>
<time>2015-04-26T17:05:22Z</time>
</trkpt>
<trkpt lat="35.1041567" lon="32.5036886">
<ele>15.94</ele>
<time>2015-04-26T17:05:23Z</time>
</trkpt>
<trkpt lat="35.1042144" lon="32.5037132">
<ele>15.93</ele>
<time>2015-04-26T17:05:24Z</time>
</trkpt>
<trkpt lat="35.1042729" lon="32.5037320">
<ele>16.43</ele>
<time>2015-04-26T17:05:25Z</time>
</trkpt>
<trkpt lat="35.1043274" lon="32.5037609">
<ele>16.18</ele>
<time>2015-04-26T17:05:26Z</time>
</trkpt>
<trkpt lat="35.1043876" lon="32.5037911">
<ele>16.05</ele>
<time>2015-04-26T17:05:27Z</time>
</trkpt>
<trkpt lat="35.1044504" lon="32.5038167">
<ele>16.49</ele>
<time>2015-04-26T17:05:28Z</time>
</trkpt>
<trkpt lat="35.1045100" lon="32.5038304">
<ele>16.71</ele>
<time>2015-04-26T17:05:29Z</time>
</trkpt>
<trkpt lat="35.1045582" lon="32.5038443">
<ele>16.82</ele>
<time>2015-04-26T17:05:30Z</time>
</trkpt>
<trkpt lat="35.1046184" lon="32.5038607">
<ele>16.87</ele>
<time>2015-04-26T17:05:31Z</time>
</trkpt>
<trkpt lat="35.1046842" lon="32.5038753">
<ele>16.40</ele>
<time>2015-04-26T17:05:32Z</time>
</trkpt>
<trkpt lat="35.1047395" lon="32.5038874">
<ele>15.66</ele>
<time>2015-04-26T17:05:33Z</time>
</trkpt>
<trkpt lat="35.1047898" lon="32.5038985">
<ele>15.29</ele>
<time>2015-04-26T17:05:34Z</time>
</trkpt>
<trkpt lat="35.1048572" lon="32.5038958">
<ele>14.11</ele>
<time>2015-04-26T17:05:35Z</time>
</trkpt>
<trkpt lat="35.1049052" lon="32.5039178">
<ele>13.52</ele>
<time>2015-04-26T17:05:36Z</time>
</trkpt>
<trkpt lat="35.1049512" lon="32.5039286">
<ele>13.72</ele>
<time>2015-04-26T17:05:37Z</time>
</trkpt>
<trkpt lat="35.1050023" lon="32.5039371">
<ele>14.32</ele>
<time>2015-04-26T17:05:38Z</time>
</trkpt>
<trkpt lat="35.1050542" lon="32.5039419">
<ele>14.62</ele>
<time>2015-04-26T17:05:39Z</time>
</trkpt>
<trkpt lat="35.1051077" lon="32.5039498">
<ele>14.77</ele>
<time>2015-04-26T17:05:40Z</time>
</trkpt>
<trkpt lat="35.1051917" lon="32.5039625">
<ele>15.64</ele>
<time>2015-04-26T17:05:42Z</time>
</trkpt>
<trkpt lat="35.1052395" lon="32.5039764">
<ele>15.78</ele>
<time>2015-04-26T17:05:43Z</time>
</trkpt>
<trkpt lat="35.1052844" lon="32.5039814">
<ele>15.85</ele>
<time>2015-04-26T17:05:44Z</time>
</trkpt>
<trkpt lat="35.1053735" lon="32.5039977">
<ele>16.41</ele>
<time>2015-04-26T17:05:46Z</time>
</trkpt>
<trkpt lat="35.1054179" lon="32.5040123">
<ele>16.67</ele>
<time>2015-04-26T17:05:47Z</time>
</trkpt>
<trkpt lat="35.1055044" lon="32.5040466">
<ele>18.36</ele>
<time>2015-04-26T17:05:49Z</time>
</trkpt>
<trkpt lat="35.1055454" lon="32.5040742">
<ele>18.64</ele>
<time>2015-04-26T17:05:50Z</time>
</trkpt>
<trkpt lat="35.1056382" lon="32.5041074">
<ele>18.85</ele>
<time>2015-04-26T17:05:52Z</time>
</trkpt>
<trkpt lat="35.1056882" lon="32.5041374">
<ele>18.89</ele>
<time>2015-04-26T17:05:53Z</time>
</trkpt>
<trkpt lat="35.1057376" lon="32.5041698">
<ele>18.91</ele>
<time>2015-04-26T17:05:54Z</time>
</trkpt>
<trkpt lat="35.1057966" lon="32.5041990">
<ele>18.92</ele>
<time>2015-04-26T17:05:55Z</time>
</trkpt>
<trkpt lat="35.1058540" lon="32.5042258">
<ele>18.42</ele>
<time>2015-04-26T17:05:56Z</time>
</trkpt>
<trkpt lat="35.1059019" lon="32.5042615">
<ele>17.67</ele>
<time>2015-04-26T17:05:57Z</time>
</trkpt>
<trkpt lat="35.1059607" lon="32.5043006">
<ele>17.80</ele>
<time>2015-04-26T17:05:58Z</time>
</trkpt>
<trkpt lat="35.1060206" lon="32.5043287">
<ele>18.36</ele>
<time>2015-04-26T17:05:59Z</time>
</trkpt>
<trkpt lat="35.1060758" lon="32.5043702">
<ele>18.64</ele>
<time>2015-04-26T17:06:00Z</time>
</trkpt>
<trkpt lat="35.1061278" lon="32.5044132">
<ele>18.78</ele>
<time>2015-04-26T17:06:01Z</time>
</trkpt>
<trkpt lat="35.1061734" lon="32.5044472">
<ele>18.85</ele>
<time>2015-04-26T17:06:02Z</time>
</trkpt>
<trkpt lat="35.1062147" lon="32.5044706">
<ele>18.39</ele>
<time>2015-04-26T17:06:03Z</time>
</trkpt>
<trkpt lat="35.1062719" lon="32.5044955">
<ele>18.16</ele>
<time>2015-04-26T17:06:04Z</time>
</trkpt>
<trkpt lat="35.1063229" lon="32.5045294">
<ele>18.54</ele>
<time>2015-04-26T17:06:05Z</time>
</trkpt>
<trkpt lat="35.1063767" lon="32.5045665">
<ele>18.73</ele>
<time>2015-04-26T17:06:06Z</time>
</trkpt>
<trkpt lat="35.1064150" lon="32.5046090">
<ele>18.83</ele>
<time>2015-04-26T17:06:07Z</time>
</trkpt>
<trkpt lat="35.1064668" lon="32.5046518">
<ele>18.88</ele>
<time>2015-04-26T17:06:08Z</time>
</trkpt>
<trkpt lat="35.1065180" lon="32.5046750">
<ele>18.90</ele>
<time>2015-04-26T17:06:09Z</time>
</trkpt>
<trkpt lat="35.1065662" lon="32.5047141">
<ele>18.41</ele>
<time>2015-04-26T17:06:10Z</time>
</trkpt>
<trkpt lat="35.1066173" lon="32.5047430">
<ele>18.17</ele>
<time>2015-04-26T17:06:11Z</time>
</trkpt>
<trkpt lat="35.1066722" lon="32.5047720">
<ele>18.05</ele>
<time>2015-04-26T17:06:12Z</time>
</trkpt>
<trkpt lat="35.1067225" lon="32.5048074">
<ele>17.99</ele>
<time>2015-04-26T17:06:13Z</time>
</trkpt>
<trkpt lat="35.1067683" lon="32.5048486">
<ele>17.96</ele>
<time>2015-04-26T17:06:14Z</time>
</trkpt>
<trkpt lat="35.1068115" lon="32.5048815">
<ele>17.94</ele>
<time>2015-04-26T17:06:15Z</time>
</trkpt>
<trkpt lat="35.1068943" lon="32.5049438">
<ele>17.93</ele>
<time>2015-04-26T17:06:17Z</time>
</trkpt>
<trkpt lat="35.1069405" lon="32.5049714">
<ele>17.93</ele>
<time>2015-04-26T17:06:18Z</time>
</trkpt>
<trkpt lat="35.1069918" lon="32.5049986">
<ele>17.93</ele>
<time>2015-04-26T17:06:19Z</time>
</trkpt>
<trkpt lat="35.1070650" lon="32.5050349">
<ele>15.93</ele>
<time>2015-04-26T17:06:21Z</time>
</trkpt>
<trkpt lat="35.1071124" lon="32.5050676">
<ele>15.43</ele>
<time>2015-04-26T17:06:22Z</time>
</trkpt>
<trkpt lat="35.1071553" lon="32.5050965">
<ele>15.18</ele>
<time>2015-04-26T17:06:23Z</time>
</trkpt>
<trkpt lat="35.1072054" lon="32.5051300">
<ele>15.05</ele>
<time>2015-04-26T17:06:24Z</time>
</trkpt>
<trkpt lat="35.1072541" lon="32.5051584">
<ele>14.49</ele>
<time>2015-04-26T17:06:25Z</time>
</trkpt>
<trkpt lat="35.1073000" lon="32.5051925">
<ele>14.71</ele>
<time>2015-04-26T17:06:26Z</time>
</trkpt>
<trkpt lat="35.1073460" lon="32.5052235">
<ele>14.82</ele>
<time>2015-04-26T17:06:27Z</time>
</trkpt>
<trkpt lat="35.1073961" lon="32.5052532">
<ele>14.87</ele>
<time>2015-04-26T17:06:28Z</time>
</trkpt>
<trkpt lat="35.1074422" lon="32.5052899">
<ele>14.90</ele>
<time>2015-04-26T17:06:29Z</time>
</trkpt>
<trkpt lat="35.1075236" lon="32.5053531">
<ele>14.92</ele>
<time>2015-04-26T17:06:31Z</time>
</trkpt>
<trkpt lat="35.1075760" lon="32.5053865">
<ele>15.42</ele>
<time>2015-04-26T17:06:32Z</time>
</trkpt>
<trkpt lat="35.1076573" lon="32.5054510">
<ele>15.55</ele>
<time>2015-04-26T17:06:34Z</time>
</trkpt>
<trkpt lat="35.1077027" lon="32.5054889">
<ele>15.74</ele>
<time>2015-04-26T17:06:35Z</time>
</trkpt>
<trkpt lat="35.1077563" lon="32.5055283">
<ele>16.33</ele>
<time>2015-04-26T17:06:36Z</time>
</trkpt>
<trkpt lat="35.1078081" lon="32.5055580">
<ele>16.63</ele>
<time>2015-04-26T17:06:37Z</time>
</trkpt>
<trkpt lat="35.1078642" lon="32.5055961">
<ele>17.28</ele>
<time>2015-04-26T17:06:38Z</time>
</trkpt>
<trkpt lat="35.1079146" lon="32.5056346">
<ele>17.60</ele>
<time>2015-04-26T17:06:39Z</time>
</trkpt>
<trkpt lat="35.1079673" lon="32.5056772">
<ele>17.76</ele>
<time>2015-04-26T17:06:40Z</time>
</trkpt>
<trkpt lat="35.1080222" lon="32.5057188">
<ele>17.34</ele>
<time>2015-04-26T17:06:41Z</time>
</trkpt>
<trkpt lat="35.1080827" lon="32.5057565">
<ele>17.13</ele>
<time>2015-04-26T17:06:42Z</time>
</trkpt>
<trkpt lat="35.1081341" lon="32.5057920">
<ele>17.03</ele>
<time>2015-04-26T17:06:43Z</time>
</trkpt>
<trkpt lat="35.1081888" lon="32.5058289">
<ele>16.98</ele>
<time>2015-04-26T17:06:44Z</time>
</trkpt>
<trkpt lat="35.1082508" lon="32.5058680">
<ele>16.95</ele>
<time>2015-04-26T17:06:45Z</time>
</trkpt>
<trkpt lat="35.1083042" lon="32.5059054">
<ele>17.44</ele>
<time>2015-04-26T17:06:46Z</time>
</trkpt>
<trkpt lat="35.1083473" lon="32.5059378">
<ele>17.68</ele>
<time>2015-04-26T17:06:47Z</time>
</trkpt>
<trkpt lat="35.1083892" lon="32.5059720">
<ele>17.80</ele>
<time>2015-04-26T17:06:48Z</time>
</trkpt>
<trkpt lat="35.1084342" lon="32.5060099">
<ele>17.36</ele>
<time>2015-04-26T17:06:49Z</time>
</trkpt>
<trkpt lat="35.1084825" lon="32.5060440">
<ele>17.64</ele>
<time>2015-04-26T17:06:50Z</time>
</trkpt>
<trkpt lat="35.1085300" lon="32.5060793">
<ele>17.78</ele>
<time>2015-04-26T17:06:51Z</time>
</trkpt>
<trkpt lat="35.1085873" lon="32.5061030">
<ele>17.35</ele>
<time>2015-04-26T17:06:52Z</time>
</trkpt>
<trkpt lat="35.1086374" lon="32.5061366">
<ele>17.64</ele>
<time>2015-04-26T17:06:53Z</time>
</trkpt>
<trkpt lat="35.1086849" lon="32.5061796">
<ele>17.78</ele>
<time>2015-04-26T17:06:54Z</time>
</trkpt>
<trkpt lat="35.1087388" lon="32.5062152">
<ele>17.85</ele>
<time>2015-04-26T17:06:55Z</time>
</trkpt>
<trkpt lat="35.1087942" lon="32.5062586">
<ele>18.39</ele>
<time>2015-04-26T17:06:56Z</time>
</trkpt>
<trkpt lat="35.1088482" lon="32.5062990">
<ele>18.66</ele>
<time>2015-04-26T17:06:57Z</time>
</trkpt>
<trkpt lat="35.1088956" lon="32.5063343">
<ele>18.79</ele>
<time>2015-04-26T17:06:58Z</time>
</trkpt>
<trkpt lat="35.1089402" lon="32.5063722">
<ele>19.36</ele>
<time>2015-04-26T17:06:59Z</time>
</trkpt>
<trkpt lat="35.1089904" lon="32.5063989">
<ele>19.14</ele>
<time>2015-04-26T17:07:00Z</time>
</trkpt>
<trkpt lat="35.1090328" lon="32.5064272">
<ele>18.53</ele>
<time>2015-04-26T17:07:01Z</time>
</trkpt>
<trkpt lat="35.1090808" lon="32.5064585">
<ele>18.73</ele>
<time>2015-04-26T17:07:02Z</time>
</trkpt>
<trkpt lat="35.1091291" lon="32.5064922">
<ele>19.33</ele>
<time>2015-04-26T17:07:03Z</time>
</trkpt>
<trkpt lat="35.1091787" lon="32.5065171">
<ele>19.63</ele>
<time>2015-04-26T17:07:04Z</time>
</trkpt>
<trkpt lat="35.1092189" lon="32.5065426">
<ele>19.78</ele>
<time>2015-04-26T17:07:05Z</time>
</trkpt>
<trkpt lat="35.1092617" lon="32.5065717">
<ele>19.85</ele>
<time>2015-04-26T17:07:06Z</time>
</trkpt>
<trkpt lat="35.1093132" lon="32.5065932">
<ele>18.89</ele>
<time>2015-04-26T17:07:07Z</time>
</trkpt>
<trkpt lat="35.1093912" lon="32.5066435">
<ele>18.17</ele>
<time>2015-04-26T17:07:09Z</time>
</trkpt>
<trkpt lat="35.1094601" lon="32.5067073">
<ele>17.99</ele>
<time>2015-04-26T17:07:11Z</time>
</trkpt>
<trkpt lat="35.1094994" lon="32.5067374">
<ele>17.96</ele>
<time>2015-04-26T17:07:12Z</time>
</trkpt>
<trkpt lat="35.1095433" lon="32.5067632">
<ele>17.94</ele>
<time>2015-04-26T17:07:13Z</time>
</trkpt>
<trkpt lat="35.1096126" lon="32.5068189">
<ele>17.93</ele>
<time>2015-04-26T17:07:15Z</time>
</trkpt>
<trkpt lat="35.1096559" lon="32.5068501">
<ele>17.93</ele>
<time>2015-04-26T17:07:16Z</time>
</trkpt>
<trkpt lat="35.1097328" lon="32.5069085">
<ele>18.43</ele>
<time>2015-04-26T17:07:18Z</time>
</trkpt>
<trkpt lat="35.1097780" lon="32.5069184">
<ele>18.68</ele>
<time>2015-04-26T17:07:19Z</time>
</trkpt>
<trkpt lat="35.1098241" lon="32.5069444">
<ele>18.80</ele>
<time>2015-04-26T17:07:20Z</time>
</trkpt>
<trkpt lat="35.1098650" lon="32.5069760">
<ele>18.86</ele>
<time>2015-04-26T17:07:21Z</time>
</trkpt>
<trkpt lat="35.1099069" lon="32.5070127">
<ele>18.39</ele>
<time>2015-04-26T17:07:22Z</time>
</trkpt>
<trkpt lat="35.1099506" lon="32.5070475">
<ele>18.16</ele>
<time>2015-04-26T17:07:23Z</time>
</trkpt>
<trkpt lat="35.1099937" lon="32.5070837">
<ele>18.54</ele>
<time>2015-04-26T17:07:24Z</time>
</trkpt>
<trkpt lat="35.1100327" lon="32.5071182">
<ele>18.73</ele>
<time>2015-04-26T17:07:25Z</time>
</trkpt>
<trkpt lat="35.1100803" lon="32.5071377">
<ele>18.33</ele>
<time>2015-04-26T17:07:26Z</time>
</trkpt>
<trkpt lat="35.1101253" lon="32.5071637">
<ele>18.13</ele>
<time>2015-04-26T17:07:27Z</time>
</trkpt>
<trkpt lat="35.1101772" lon="32.5071952">
<ele>18.03</ele>
<time>2015-04-26T17:07:28Z</time>
</trkpt>
<trkpt lat="35.1102232" lon="32.5072241">
<ele>17.98</ele>
<time>2015-04-26T17:07:29Z</time>
</trkpt>
<trkpt lat="35.1102737" lon="32.5072621">
<ele>17.95</ele>
<time>2015-04-26T17:07:30Z</time>
</trkpt>
<trkpt lat="35.1103277" lon="32.5072936">
<ele>18.44</ele>
<time>2015-04-26T17:07:31Z</time>
</trkpt>
<trkpt lat="35.1103761" lon="32.5073244">
<ele>18.68</ele>
<time>2015-04-26T17:07:32Z</time>
</trkpt>
<trkpt lat="35.1104270" lon="32.5073435">
<ele>19.30</ele>
<time>2015-04-26T17:07:33Z</time>
</trkpt>
<trkpt lat="35.1105074" lon="32.5074031">
<ele>19.27</ele>
<time>2015-04-26T17:07:35Z</time>
</trkpt>
<trkpt lat="35.1105523" lon="32.5074337">
<ele>19.60</ele>
<time>2015-04-26T17:07:36Z</time>
</trkpt>
<trkpt lat="35.1106046" lon="32.5074632">
<ele>20.26</ele>
<time>2015-04-26T17:07:37Z</time>
</trkpt>
<trkpt lat="35.1106453" lon="32.5074898">
<ele>20.09</ele>
<time>2015-04-26T17:07:38Z</time>
</trkpt>
<trkpt lat="35.1106928" lon="32.5075186">
<ele>19.51</ele>
<time>2015-04-26T17:07:39Z</time>
</trkpt>
<trkpt lat="35.1107269" lon="32.5075564">
<ele>19.22</ele>
<time>2015-04-26T17:07:40Z</time>
</trkpt>
<trkpt lat="35.1107731" lon="32.5075823">
<ele>18.57</ele>
<time>2015-04-26T17:07:41Z</time>
</trkpt>
<trkpt lat="35.1108171" lon="32.5076065">
<ele>18.75</ele>
<time>2015-04-26T17:07:42Z</time>
</trkpt>
<trkpt lat="35.1108747" lon="32.5076581">
<ele>18.88</ele>
<time>2015-04-26T17:07:44Z</time>
</trkpt>
<trkpt lat="35.1108983" lon="32.5077162">
<ele>18.17</ele>
<time>2015-04-26T17:07:47Z</time>
</trkpt>
<trkpt lat="35.1108572" lon="32.5077422">
<ele>18.08</ele>
<time>2015-04-26T17:07:50Z</time>
</trkpt>
<trkpt lat="35.1108268" lon="32.5078031">
<ele>17.94</ele>
<time>2015-04-26T17:07:53Z</time>
</trkpt>
<trkpt lat="35.1107954" lon="32.5078645">
<ele>18.80</ele>
<time>2015-04-26T17:07:56Z</time>
</trkpt>
<trkpt lat="35.1107722" lon="32.5079227">
<ele>19.41</ele>
<time>2015-04-26T17:07:59Z</time>
</trkpt>
<trkpt lat="35.1107313" lon="32.5079506">
<ele>19.14</ele>
<time>2015-04-26T17:08:37Z</time>
</trkpt>
<trkpt lat="35.1107490" lon="32.5078968">
<ele>19.87</ele>
<time>2015-04-26T17:11:31Z</time>
</trkpt>
</trkseg>
</trk>
</gpx>
